
Distance (Route):
Temperature : 14°C
Humidity : 85%
Pressure : 1006.6hPa| Receiver | Frames | First received | Last received |
|---|---|---|---|
| BIOWL1-15 | 1071 | 2026-09-02 03:47:57 | 2026-09-02 06:41:04 |
| DL1XH-west | 1055 | 2026-09-02 03:52:37 | 2026-09-02 06:37:31 |
| DM0DOS-11 | 816 | 2026-09-02 03:47:30 | 2026-09-02 06:41:10 |
| DL1XH1-15 | 692 | 2026-09-02 03:52:14 | 2026-09-02 06:36:20 |
| DL1XH-15 | 582 | 2026-09-02 03:57:36 | 2026-09-02 06:32:17 |
| AA1-15 | 560 | 2026-09-02 04:11:50 | 2026-09-02 06:23:39 |
| DO2JMG | 553 | 2026-09-02 04:05:26 | 2026-09-02 06:32:12 |
| HSKMA3-T | 528 | 2026-09-02 04:25:53 | 2026-09-02 06:12:30 |
| DB0DAN | 407 | 2026-09-02 03:58:25 | 2026-09-02 06:39:40 |
| DF8AY | 383 | 2026-09-02 04:31:17 | 2026-09-02 06:20:49 |
| GOEST3-10 | 328 | 2026-09-02 03:51:44 | 2026-09-02 06:33:12 |
| DD8BA-10 | 281 | 2026-09-02 03:48:02 | 2026-09-02 06:38:47 |
| DO2SHX-10 | 177 | 2026-09-02 04:19:18 | 2026-09-02 05:59:54 |
| DJ2DS-15 | 155 | 2026-09-02 03:47:56 | 2026-09-02 06:38:59 |
| DL3AQ-11 | 101 | 2026-09-02 04:00:07 | 2026-09-02 06:30:48 |
| DO9LL-15 | 93 | 2026-09-02 03:47:58 | 2026-09-02 06:27:06 |
| DF5WG-10 | 93 | 2026-09-02 04:00:25 | 2026-09-02 06:29:10 |
| DO3DL | 68 | 2026-09-02 04:13:01 | 2026-09-02 06:15:30 |
| DL4XJ-10 | 55 | 2026-09-02 04:05:22 | 2026-09-02 06:36:35 |
| DL4BBY-15 | 54 | 2026-09-02 03:55:00 | 2026-09-02 06:36:35 |
| DB0UT-7 | 52 | 2026-09-02 04:02:16 | 2026-09-02 06:24:43 |
| BIOWL9-15 | 49 | 2026-09-02 03:48:31 | 2026-09-02 06:40:48 |
| DC6BW-12 | 47 | 2026-09-02 03:48:20 | 2026-09-02 06:19:39 |
| HTAHTA | 46 | 2026-09-02 03:55:11 | 2026-09-02 06:24:12 |
| DK9SH | 42 | 2026-09-02 03:52:32 | 2026-09-02 06:32:41 |
| DF4FW | 36 | 2026-09-02 03:53:42 | 2026-09-02 06:07:56 |
| DD1CC8 | 32 | 2026-09-02 04:12:44 | 2026-09-02 06:21:37 |
| BUE01 | 31 | 2026-09-02 04:04:54 | 2026-09-02 06:33:58 |
| DL1LOL-11 | 30 | 2026-09-02 03:46:32 | 2026-09-02 06:29:35 |
| DD1CC3-15 | 29 | 2026-09-02 03:58:01 | 2026-09-02 06:23:20 |
| SONCRA | 28 | 2026-09-02 04:01:58 | 2026-09-02 06:26:21 |
| DK5PH-5 | 28 | 2026-09-02 04:56:49 | 2026-09-02 05:46:40 |
| BIOWL7-15 | 27 | 2026-09-02 03:52:22 | 2026-09-02 06:39:27 |
| DD1CC2-15 | 26 | 2026-09-02 04:00:36 | 2026-09-02 06:08:30 |
| D01LWL | 26 | 2026-09-02 04:32:37 | 2026-09-02 06:12:00 |
| DL1CLM-18 | 25 | 2026-09-02 03:50:08 | 2026-09-02 06:28:51 |
| DB0NH | 25 | 2026-09-02 04:24:28 | 2026-09-02 06:13:30 |
| EDDB2-12 | 24 | 2026-09-02 04:37:57 | 2026-09-02 05:57:36 |
| SMARD9-15 | 22 | 2026-09-02 04:31:45 | 2026-09-02 06:07:00 |
| SONDE2-11 | 17 | 2026-09-02 04:23:08 | 2026-09-02 05:59:22 |
| DJ2KF-10 | 17 | 2026-09-02 04:23:47 | 2026-09-02 06:03:11 |
| DO1YAY-16 | 17 | 2026-09-02 04:51:45 | 2026-09-02 05:40:56 |
| SMARD9-10 | 16 | 2026-09-02 04:17:42 | 2026-09-02 06:26:02 |
| DL8OAI-8 | 14 | 2026-09-02 04:28:12 | 2026-09-02 06:24:32 |
| DL3OBA | 13 | 2026-09-02 04:27:34 | 2026-09-02 05:56:46 |
| DO2LYB-13 | 12 | 2026-09-02 04:10:08 | 2026-09-02 06:28:21 |
| AU51GT2 | 12 | 2026-09-02 04:24:07 | 2026-09-02 06:01:21 |
| MET0W-2 | 10 | 2026-09-02 04:03:03 | 2026-09-02 05:32:36 |
| DO3MHA-11 | 9 | 2026-09-02 05:08:56 | 2026-09-02 05:28:40 |
| DL1NUX | 9 | 2026-09-02 05:43:56 | 2026-09-02 05:46:22 |
| DB0ND-19 | 8 | 2026-09-02 04:18:38 | 2026-09-02 05:57:56 |
| EDDB2-11 | 8 | 2026-09-02 05:12:54 | 2026-09-02 05:34:37 |
| WEDDY | 7 | 2026-09-02 04:17:10 | 2026-09-02 05:52:42 |
| DL8DAS-14 | 4 | 2026-09-02 04:32:47 | 2026-09-02 05:53:27 |
| DO3MHA-12 | 4 | 2026-09-02 05:20:40 | 2026-09-02 05:23:31 |
| AP2371 | 4 | 2026-09-02 05:36:38 | 2026-09-02 05:57:16 |
| DD1CC9-15 | 2 | 2026-09-02 03:59:48 | 2026-09-02 04:19:37 |
| DO2KSM | 2 | 2026-09-02 04:09:23 | 2026-09-02 04:33:09 |
| DF8AY-15 | 2 | 2026-09-02 05:24:27 | 2026-09-02 06:09:09 |
| NBG1-10 | 1 | 2026-09-02 04:51:27 | 2026-09-02 04:51:27 |
| SP3BTT-10 | 1 | 2026-09-02 05:34:06 | 2026-09-02 05:34:06 |
| DL1ZP-14 | 1 | 2026-09-02 05:35:48 | 2026-09-02 05:35:48 |
| DL8DAS-15 | 1 | 2026-09-02 05:36:56 | 2026-09-02 05:36:56 |
| AM1SDL-15 | 1 | 2026-09-02 05:39:07 | 2026-09-02 05:39:07 |
| DD1CC1-15 | 1 | 2026-09-02 05:53:38 | 2026-09-02 05:53:38 |
| Receiver | Date | Latitude | Longitude | Direction | Speed | Altitude | Climb | Temperature | Humidity | Pressure | Voltage | Killtimer | Uptime | BKT | XDATA |
|---|---|---|---|---|---|---|---|---|---|---|---|---|---|---|---|
| DM0DOS-11 | 2026-09-02 06:41:10 | 52.76508 | 9.01604 | 36° | 29km/h | 139m | -3.2m/s | 14°C | 85% | 1006.6hPa | 2.8V | 07:16:28 | 03:09:40 | 00:00:00 | |
| DM0DOS-11 | 2026-09-02 06:41:10 | 52.76497 | 9.01590 | 38° | 27km/h | 145m | -3m/s | 13.8°C | 85.6% | 1005.7hPa | 2.8V | 07:16:30 | 03:09:38 | 00:00:00 | |
| DM0DOS-11 | 2026-09-02 06:41:04 | 52.76464 | 9.01545 | 39° | 31km/h | 162m | -3.3m/s | 14.3°C | 82.1% | 1003.7hPa | 2.8V | 07:16:36 | 03:09:32 | 00:00:00 | |
| BIOWL1-15 | 2026-09-02 06:41:04 | 52.76492 | 9.01583 | 39° | 27km/h | 148m | -2.9m/s | 13.7°C | 87% | 1005.4hPa | 2.7V | 07:16:35 | 03:09:37 | 00:00:00 | |
| BIOWL1-15 | 2026-09-02 06:41:03 | 52.76486 | 9.01576 | 38° | 27km/h | 151m | -2.9m/s | 13.7°C | 87% | 1005.1hPa | 2.8V | 07:16:35 | 03:09:36 | 00:00:00 | |
| BIOWL1-15 | 2026-09-02 06:41:01 | 52.76475 | 9.01561 | 40° | 29km/h | 156m | -2.9m/s | 13.8°C | 85.9% | 1004.4hPa | 2.8V | 07:16:35 | 03:09:34 | 00:00:00 | |
| BIOWL1-15 | 2026-09-02 06:41:00 | 52.76470 | 9.01553 | 39° | 31km/h | 159m | -3.2m/s | 14.1°C | 84.6% | 1004.1hPa | 2.8V | 07:16:35 | 03:09:33 | 00:00:00 | |
| DM0DOS-11 | 2026-09-02 06:40:58 | 52.76440 | 9.01510 | 43° | 31km/h | 174m | -2.8m/s | 14.2°C | 81.6% | 1002.4hPa | 2.8V | 07:16:40 | 03:09:28 | 00:00:00 | |
| DM0DOS-11 | 2026-09-02 06:40:58 | 52.76429 | 9.01492 | 46° | 31km/h | 181m | -3.4m/s | 14.6°C | 79.4% | 1001.7hPa | 2.8V | 07:16:42 | 03:09:26 | 00:00:00 | |
| BIOWL1-15 | 2026-09-02 06:40:58 | 52.76458 | 9.01536 | 40° | 31km/h | 166m | -3m/s | 14.3°C | 84% | 1003.5hPa | 2.8V | 07:17:26 | 03:09:31 | 00:00:00 | |
| BIOWL1-15 | 2026-09-02 06:40:57 | 52.76452 | 9.01528 | 43° | 31km/h | 169m | -2.7m/s | 14.3°C | 83.9% | 1003.2hPa | 2.8V | 07:17:26 | 03:09:30 | 00:00:00 | |
| BIOWL1-15 | 2026-09-02 06:40:56 | 52.76446 | 9.01519 | 43° | 31km/h | 172m | -3.1m/s | 14.2°C | 83.9% | 1002.7hPa | 2.8V | 07:17:26 | 03:09:29 | 00:00:00 | |
| BIOWL1-15 | 2026-09-02 06:40:54 | 52.76429 | 9.01492 | 47° | 31km/h | 181m | -3.4m/s | 14.6°C | 82.3% | 1001.7hPa | 2.8V | 07:17:26 | 03:09:26 | 00:00:00 | |
| BIOWL1-15 | 2026-09-02 06:40:54 | 52.76423 | 9.01482 | 47° | 31km/h | 184m | -3.1m/s | 14.6°C | 82.2% | 1001.4hPa | 2.7V | 07:17:26 | 03:09:25 | 00:00:00 | |
| DM0DOS-11 | 2026-09-02 06:40:52 | 52.76407 | 9.01454 | 46° | 31km/h | 193m | -3.2m/s | 14.6°C | 78.9% | 1000.2hPa | 2.8V | 07:16:46 | 03:09:22 | 00:00:00 | |
| BIOWL1-15 | 2026-09-02 06:40:49 | 52.76402 | 9.01444 | 48° | 31km/h | 196m | -3m/s | 14.6°C | 82.1% | 1000hPa | 2.8V | 07:17:26 | 03:09:21 | 00:00:00 | |
| BIOWL1-15 | 2026-09-02 06:40:49 | 52.76396 | 9.01434 | 49° | 31km/h | 199m | -3.1m/s | 14.6°C | 82.1% | 999.4hPa | 2.8V | 07:17:26 | 03:09:20 | 00:00:00 | |
| BIOWL9-15 | 2026-09-02 06:40:48 | 52.76402 | 9.01444 | 48° | 31km/h | 196m | -3.0m/s | 14.6°C | -1.0% | -1.0hPa | 2.8V | 00:00:00 | 00:00:00 | 00:00:00 | |
| DM0DOS-11 | 2026-09-02 06:40:46 | 52.76386 | 9.01414 | 53° | 31km/h | 205m | -3.3m/s | 14.6°C | 78.7% | 998.7hPa | 2.8V | 07:16:50 | 03:09:18 | 00:00:00 | |
| DM0DOS-11 | 2026-09-02 06:40:46 | 52.76377 | 9.01392 | 59° | 31km/h | 211m | -3.1m/s | 14.7°C | 78.1% | 998.2hPa | 2.8V | 07:16:52 | 03:09:16 | 00:00:00 | |
| DM0DOS-11 | 2026-09-02 06:40:46 | 52.76370 | 9.01371 | 60° | 27km/h | 217m | -2.9m/s | 14.6°C | 78.1% | 997.3hPa | 2.8V | 07:16:54 | 03:09:14 | 00:00:00 | |
| BIOWL1-15 | 2026-09-02 06:40:45 | 52.76386 | 9.01414 | 53° | 31km/h | 205m | -3.3m/s | 14.6°C | 81.7% | 998.7hPa | 2.8V | 07:17:26 | 03:09:18 | 00:00:00 | |
| BIOWL1-15 | 2026-09-02 06:40:42 | 52.76373 | 9.01381 | 61° | 29km/h | 214m | -3.1m/s | 14.6°C | 81.5% | 997.7hPa | 2.8V | 07:17:26 | 03:09:15 | 00:00:00 | |
| BIOWL1-15 | 2026-09-02 06:40:41 | 52.76370 | 9.01370 | 61° | 27km/h | 217m | -2.9m/s | 14.6°C | 81.6% | 997.3hPa | 2.8V | 07:17:26 | 03:09:14 | 00:00:00 | |
| DM0DOS-11 | 2026-09-02 06:40:40 | 52.76358 | 9.01335 | 59° | 20km/h | 229m | -2.9m/s | 14.6°C | 78.1% | 995.9hPa | 2.8V | 07:16:58 | 03:09:10 | 00:00:00 | |
| BIOWL1-15 | 2026-09-02 06:40:40 | 52.76367 | 9.01361 | 64° | 26km/h | 220m | -3.1m/s | 14.6°C | 81.7% | 996.8hPa | 2.7V | 07:17:26 | 03:09:13 | 00:00:00 | |
| BIOWL1-15 | 2026-09-02 06:40:38 | 52.76361 | 9.01343 | 62° | 22km/h | 226m | -3.3m/s | 14.6°C | 81.9% | 996.2hPa | 2.8V | 07:17:26 | 03:09:11 | 00:00:00 | |
| BIOWL1-15 | 2026-09-02 06:40:36 | 52.76356 | 9.01328 | 58° | 20km/h | 232m | -3.2m/s | 14.6°C | 81.9% | 995.4hPa | 2.8V | 07:17:26 | 03:09:09 | 00:00:00 | |
| BIOWL1-15 | 2026-09-02 06:40:35 | 52.76353 | 9.01321 | 56° | 20km/h | 235m | -3.1m/s | 14.6°C | 81.7% | 995.2hPa | 2.8V | 07:17:26 | 03:09:08 | 00:00:00 | |
| DM0DOS-11 | 2026-09-02 06:40:34 | 52.76347 | 9.01307 | 54° | 20km/h | 241m | -3.4m/s | 14.6°C | 77.7% | 994.5hPa | 2.8V | 07:17:02 | 03:09:06 | 00:00:00 | |
| DM0DOS-11 | 2026-09-02 06:40:34 | 52.76341 | 9.01295 | 49° | 18km/h | 248m | -3.3m/s | 14.5°C | 77.5% | 993.5hPa | 2.8V | 07:17:04 | 03:09:04 | 00:00:00 | |
| DM0DOS-11 | 2026-09-02 06:40:34 | 52.76331 | 9.01276 | 44° | 22km/h | 257m | -3.3m/s | 14.5°C | 76.9% | 992.5hPa | 2.8V | 07:17:07 | 03:09:01 | 00:00:00 | |
| BIOWL1-15 | 2026-09-02 06:40:33 | 52.76344 | 9.01301 | 53° | 18km/h | 244m | -3.4m/s | 14.5°C | 81.2% | 994hPa | 2.8V | 07:17:26 | 03:09:05 | 00:00:00 | |
| BIOWL1-15 | 2026-09-02 06:40:31 | 52.76341 | 9.01295 | 50° | 18km/h | 248m | -3.3m/s | 14.5°C | 80.7% | 993.5hPa | 2.8V | 07:17:26 | 03:09:04 | 00:00:00 | |
| BIOWL1-15 | 2026-09-02 06:40:29 | 52.76311 | 9.01246 | 45° | 29km/h | 270m | -3m/s | 14.4°C | 79.7% | 991hPa | 2.8V | 07:17:26 | 03:08:57 | 00:00:00 | |
| BIOWL1-15 | 2026-09-02 06:40:29 | 52.76306 | 9.01238 | 46° | 29km/h | 273m | -3.3m/s | 14.4°C | 79.9% | 990.7hPa | 2.8V | 07:17:26 | 03:08:56 | 00:00:00 | |
| DM0DOS-11 | 2026-09-02 06:40:29 | 52.76316 | 9.01254 | 43° | 27km/h | 267m | -3.2m/s | 14.4°C | 77.2% | 991.3hPa | 2.8V | 07:17:10 | 03:08:58 | 00:00:00 | |
| DM0DOS-11 | 2026-09-02 06:40:29 | 52.76306 | 9.01238 | 45° | 29km/h | 273m | -3.2m/s | 14.4°C | 77.3% | 990.7hPa | 2.8V | 07:17:12 | 03:08:56 | 00:00:00 | |
| BIOWL1-15 | 2026-09-02 06:40:26 | 52.76301 | 9.01229 | 45° | 29km/h | 276m | -3.1m/s | 14.4°C | 79.7% | 990.3hPa | 2.8V | 07:17:26 | 03:08:55 | 00:00:00 | |
| DM0DOS-11 | 2026-09-02 06:40:22 | 52.76285 | 9.01200 | 50° | 33km/h | 286m | -3m/s | 14.3°C | 77% | 989.2hPa | 2.8V | 07:17:16 | 03:08:52 | 00:00:00 | |
| DM0DOS-11 | 2026-09-02 06:40:22 | 52.76274 | 9.01179 | 51° | 33km/h | 292m | -3.3m/s | 14.3°C | 77.3% | 988.6hPa | 2.8V | 07:17:18 | 03:08:50 | 00:00:00 | |
| BIOWL1-15 | 2026-09-02 06:40:20 | 52.76285 | 9.01200 | 50° | 33km/h | 286m | -3m/s | 14.3°C | 79.9% | 989.2hPa | 2.8V | 07:17:26 | 03:08:52 | 00:00:00 | |
| BIOWL1-15 | 2026-09-02 06:40:20 | 52.76269 | 9.01168 | 53° | 35km/h | 295m | -3.2m/s | 14.3°C | 80.2% | 988.1hPa | 2.8V | 07:17:26 | 03:08:49 | 00:00:00 | |
| BIOWL9-15 | 2026-09-02 06:40:17 | 52.76269 | 9.01168 | 53° | 33km/h | 295m | -3.2m/s | 14.3°C | -1.0% | -1.0hPa | 2.8V | 00:00:00 | 00:00:00 | 00:00:00 | |
| DM0DOS-11 | 2026-09-02 06:40:16 | 52.76254 | 9.01132 | 56° | 35km/h | 305m | -3.1m/s | 14.4°C | 76% | 986.9hPa | 2.8V | 07:17:22 | 03:08:46 | 00:00:00 | |
| BIOWL1-15 | 2026-09-02 06:40:14 | 52.76259 | 9.01144 | 56° | 35km/h | 302m | -3.2m/s | 14.4°C | 79.5% | 987.4hPa | 2.8V | 07:17:26 | 03:08:47 | 00:00:00 | |
| BIOWL1-15 | 2026-09-02 06:40:12 | 52.76244 | 9.01108 | 58° | 35km/h | 311m | -3.4m/s | 14.4°C | 79.1% | 986.3hPa | 2.8V | 07:17:26 | 03:08:44 | 00:00:00 | |
| BIOWL1-15 | 2026-09-02 06:40:12 | 52.76239 | 9.01096 | 57° | 35km/h | 314m | -3.2m/s | 14.4°C | 79.3% | 985.9hPa | 2.8V | 07:17:26 | 03:08:43 | 00:00:00 | |
| DM0DOS-11 | 2026-09-02 06:40:10 | 52.76234 | 9.01083 | 57° | 35km/h | 318m | -3.4m/s | 14.4°C | 75.6% | 985.4hPa | 2.8V | 07:17:26 | 03:08:42 | 00:00:00 | |
| DM0DOS-11 | 2026-09-02 06:40:10 | 52.76216 | 9.01034 | 56° | 35km/h | 330m | -3m/s | 14.5°C | 74.2% | 983.8hPa | 2.8V | 07:17:30 | 03:08:38 | 00:00:00 | |
| BIOWL1-15 | 2026-09-02 06:40:08 | 52.76230 | 9.01071 | 59° | 35km/h | 321m | -3.4m/s | 14.4°C | 79% | 985hPa | 2.8V | 07:18:17 | 03:08:41 | 00:00:00 | |
| BIOWL1-15 | 2026-09-02 06:40:06 | 52.76216 | 9.01034 | 57° | 35km/h | 330m | -3m/s | 14.5°C | 78.1% | 983.8hPa | 2.8V | 07:18:17 | 03:08:38 | 00:00:00 | |
| BIOWL1-15 | 2026-09-02 06:40:06 | 52.76211 | 9.01022 | 57° | 35km/h | 333m | -3.1m/s | 14.5°C | 78.2% | 983.4hPa | 2.8V | 07:18:17 | 03:08:37 | 00:00:00 | |
| DM0DOS-11 | 2026-09-02 06:40:04 | 52.76206 | 9.01010 | 56° | 35km/h | 337m | -3.4m/s | 14.5°C | 74.3% | 983.1hPa | 2.8V | 07:17:32 | 03:08:36 | 00:00:00 | |
| BIOWL1-15 | 2026-09-02 06:40:02 | 52.76201 | 9.00998 | 55° | 35km/h | 340m | -3.3m/s | 14.4°C | 78.3% | 982.8hPa | 2.8V | 07:18:17 | 03:08:35 | 00:00:00 | |
| BIOWL1-15 | 2026-09-02 06:40:00 | 52.76191 | 9.00975 | 57° | 33km/h | 347m | -3.5m/s | 14.4°C | 78.2% | 982hPa | 2.8V | 07:18:17 | 03:08:33 | 00:00:00 | |
| BIOWL1-15 | 2026-09-02 06:39:59 | 52.76186 | 9.00963 | 54° | 35km/h | 350m | -3m/s | 14.4°C | 78.2% | 981.5hPa | 2.8V | 07:18:17 | 03:08:32 | 00:00:00 | |
| DM0DOS-11 | 2026-09-02 06:39:58 | 52.76176 | 9.00940 | 53° | 35km/h | 357m | -3.1m/s | 14.3°C | 74.7% | 980.9hPa | 2.7V | 07:17:38 | 03:08:30 | 00:00:00 | |
| BIOWL1-15 | 2026-09-02 06:39:58 | 52.76171 | 9.00929 | 55° | 33km/h | 360m | -3.3m/s | 14.3°C | 78.5% | 980.5hPa | 2.8V | 07:18:17 | 03:08:29 | 00:00:00 | |
| BIOWL1-15 | 2026-09-02 06:39:57 | 52.76166 | 9.00917 | 55° | 35km/h | 363m | -2.8m/s | 14.3°C | 78.6% | 980.3hPa | 2.8V | 07:18:17 | 03:08:28 | 00:00:00 | |
| BIOWL1-15 | 2026-09-02 06:39:53 | 52.76150 | 9.00883 | 53° | 35km/h | 372m | -3.3m/s | 14.2°C | 78.5% | 979.2hPa | 2.8V | 07:18:17 | 03:08:25 | 00:00:00 | |
| BIOWL1-15 | 2026-09-02 06:39:53 | 52.76145 | 9.00871 | 53° | 35km/h | 376m | -3m/s | 14.2°C | 78.5% | 978.6hPa | 2.8V | 07:18:17 | 03:08:24 | 00:00:00 | |
| DM0DOS-11 | 2026-09-02 06:39:52 | 52.76125 | 9.00829 | 52° | 29km/h | 389m | -3.4m/s | 14.1°C | 74.7% | 977.1hPa | 2.7V | 07:17:48 | 03:08:20 | 00:00:00 | |
| BIOWL1-15 | 2026-09-02 06:39:49 | 52.76120 | 9.00819 | 52° | 29km/h | 392m | -3.2m/s | 14.1°C | 78.4% | 976.6hPa | 2.8V | 07:18:17 | 03:08:19 | 00:00:00 | |
| BIOWL1-15 | 2026-09-02 06:39:47 | 52.76116 | 9.00810 | 54° | 26km/h | 395m | -3.3m/s | 14°C | 78.3% | 976.3hPa | 2.8V | 07:18:17 | 03:08:18 | 00:00:00 | |
| DM0DOS-11 | 2026-09-02 06:39:46 | 52.76116 | 9.00810 | 53° | 26km/h | 395m | -3.3m/s | 14°C | 74.9% | 976.3hPa | 2.8V | 07:17:50 | 03:08:18 | 00:00:00 | |
| BIOWL1-15 | 2026-09-02 06:39:43 | 52.76109 | 9.00792 | 59° | 26km/h | 402m | -3.2m/s | 14°C | 77.9% | 975.7hPa | 2.8V | 07:18:17 | 03:08:16 | 00:00:00 | |
| BIOWL1-15 | 2026-09-02 06:39:42 | 52.76106 | 9.00783 | 60° | 26km/h | 405m | -3.4m/s | 14°C | 77.9% | 975.2hPa | 2.8V | 07:18:17 | 03:08:15 | 00:00:00 | |
| DM0DOS-11 | 2026-09-02 06:39:40 | 52.76097 | 9.00755 | 65° | 24km/h | 415m | -3.4m/s | 14°C | 74.1% | 974.2hPa | 2.8V | 07:17:56 | 03:08:12 | 00:00:00 | |
| DM0DOS-11 | 2026-09-02 06:39:40 | 52.76086 | 9.00717 | 61° | 26km/h | 429m | -3.1m/s | 14°C | 72.4% | 972.8hPa | 2.8V | 07:18:00 | 03:08:08 | 00:00:00 | |
| DB0DAN | 2026-09-02 06:39:40 | 52.76100 | 9.00764 | 64° | 24km/h | 412m | -3.2m/s | 13.9°C | 74.4% | 974.49hPa | 2.8V | 00:00:00 | 00:00:00 | 00:00:00 | |
| BIOWL1-15 | 2026-09-02 06:39:40 | 52.76100 | 9.00764 | 64° | 26km/h | 412m | -3.2m/s | 13.9°C | 78.4% | 974.5hPa | 2.8V | 07:18:17 | 03:08:13 | 00:00:00 | |
| BIOWL1-15 | 2026-09-02 06:39:39 | 52.76097 | 9.00755 | 66° | 24km/h | 415m | -3.4m/s | 14°C | 77.8% | 974.2hPa | 2.8V | 07:18:17 | 03:08:12 | 00:00:00 | |
| BIOWL1-15 | 2026-09-02 06:39:37 | 52.76092 | 9.00737 | 63° | 26km/h | 422m | -3.4m/s | 13.9°C | 77.5% | 973.5hPa | 2.7V | 07:18:17 | 03:08:10 | 00:00:00 | |
| BIOWL1-15 | 2026-09-02 06:39:35 | 52.76086 | 9.00717 | 62° | 26km/h | 429m | -3.1m/s | 14°C | 76.1% | 972.8hPa | 2.8V | 07:18:17 | 03:08:08 | 00:00:00 | |
| DM0DOS-11 | 2026-09-02 06:39:34 | 52.76063 | 9.00659 | 51° | 31km/h | 448m | -3m/s | 14°C | 71.6% | 970.5hPa | 2.8V | 07:18:06 | 03:08:02 | 00:00:00 | |
| BIOWL1-15 | 2026-09-02 06:39:34 | 52.76083 | 9.00708 | 59° | 27km/h | 432m | -3.3m/s | 14°C | 76% | 972.3hPa | 2.8V | 07:18:17 | 03:08:07 | 00:00:00 | |
| BIOWL1-15 | 2026-09-02 06:39:33 | 52.76079 | 9.00698 | 58° | 27km/h | 435m | -3.3m/s | 14.1°C | 75.7% | 971.8hPa | 2.8V | 07:18:17 | 03:08:06 | 00:00:00 | |
| BIOWL1-15 | 2026-09-02 06:39:31 | 52.76058 | 9.00649 | 51° | 33km/h | 451m | -3.1m/s | 14°C | 75.9% | 970.1hPa | 2.8V | 07:18:17 | 03:08:01 | 00:00:00 | |
| BIOWL1-15 | 2026-09-02 06:39:31 | 52.76053 | 9.00638 | 52° | 33km/h | 454m | -3.1m/s | 14°C | 76% | 969.7hPa | 2.7V | 07:18:17 | 03:08:00 | 00:00:00 | |
| DM0DOS-11 | 2026-09-02 06:39:28 | 52.76052 | 9.00638 | 51° | 33km/h | 454m | -3.1m/s | 13.9°C | 71.8% | 969.6hPa | 2.7V | 07:18:08 | 03:08:00 | 00:00:00 | |
| DM0DOS-11 | 2026-09-02 06:39:28 | 52.76043 | 9.00617 | 51° | 33km/h | 460m | -3.1m/s | 13.9°C | 71.9% | 969hPa | 2.8V | 07:18:10 | 03:07:58 | 00:00:00 | |
| BIOWL7-15 | 2026-09-02 06:39:27 | 52.76058 | 9.00649 | 52° | 33km/h | 451m | -3.1m/s | 14.0°C | 71.2% | 970.1hPa | 2.8V | 00:00:00 | 00:00:00 | 00:00:00 | |
| DB0DAN | 2026-09-02 06:39:25 | 52.76043 | 9.00617 | 51° | 31km/h | 460m | -3.1m/s | 13.9°C | 71.4% | 969hPa | 2.8V | 00:00:00 | 00:00:00 | 00:00:00 | |
| BIOWL1-15 | 2026-09-02 06:39:25 | 52.76043 | 9.00617 | 51° | 33km/h | 460m | -3.1m/s | 13.9°C | 76.1% | 969hPa | 2.8V | 07:18:17 | 03:07:58 | 00:00:00 | |
| BIOWL1-15 | 2026-09-02 06:39:24 | 52.76038 | 9.00607 | 52° | 33km/h | 464m | -3.4m/s | 13.9°C | 76.2% | 968.6hPa | 2.8V | 07:18:17 | 03:07:57 | 00:00:00 | |
| BIOWL1-15 | 2026-09-02 06:39:22 | 52.76023 | 9.00574 | 52° | 33km/h | 473m | -3.3m/s | 13.8°C | 76.6% | 967.4hPa | 2.8V | 07:18:17 | 03:07:54 | 00:00:00 | |
| DM0DOS-11 | 2026-09-02 06:39:22 | 52.76023 | 9.00574 | 51° | 33km/h | 473m | -3.3m/s | 13.8°C | 72.4% | 967.4hPa | 2.8V | 07:18:14 | 03:07:54 | 00:00:00 | |
| DM0DOS-11 | 2026-09-02 06:39:22 | 52.76012 | 9.00552 | 52° | 33km/h | 480m | -3.5m/s | 13.7°C | 72.6% | 966.7hPa | 2.8V | 07:18:16 | 03:07:52 | 00:00:00 | |
| BIOWL1-15 | 2026-09-02 06:39:22 | 52.76018 | 9.00563 | 52° | 33km/h | 477m | -3.4m/s | 13.8°C | 76.8% | 967.1hPa | 2.8V | 07:18:17 | 03:07:53 | 00:00:00 | |
| BIOWL1-15 | 2026-09-02 06:39:18 | 52.76002 | 9.00529 | 53° | 35km/h | 487m | -3.4m/s | 13.7°C | 77.2% | 965.9hPa | 2.7V | 07:19:08 | 03:07:50 | 00:00:00 | |
| BIOWL1-15 | 2026-09-02 06:39:18 | 52.75997 | 9.00517 | 53° | 37km/h | 490m | -3.3m/s | 13.6°C | 77.3% | 965.7hPa | 2.8V | 07:19:08 | 03:07:49 | 00:00:00 | |
| DM0DOS-11 | 2026-09-02 06:39:16 | 52.75991 | 9.00505 | 53° | 37km/h | 494m | -3.4m/s | 13.6°C | 73.1% | 965.1hPa | 2.8V | 07:18:20 | 03:07:48 | 00:00:00 | |
| DM0DOS-11 | 2026-09-02 06:39:16 | 52.75980 | 9.00481 | 53° | 37km/h | 500m | -3.3m/s | 13.6°C | 72.9% | 964.4hPa | 2.8V | 07:18:22 | 03:07:46 | 00:00:00 | |
| BIOWL1-15 | 2026-09-02 06:39:15 | 52.75991 | 9.00505 | 53° | 37km/h | 494m | -3.4m/s | 13.6°C | 77.3% | 965.1hPa | 2.8V | 07:19:08 | 03:07:48 | 00:00:00 | |
| BIOWL1-15 | 2026-09-02 06:39:14 | 52.75955 | 9.00416 | 58° | 37km/h | 518m | -3.6m/s | 13.5°C | 77.4% | 962.6hPa | 2.7V | 07:19:08 | 03:07:41 | 00:00:00 | |
| BIOWL1-15 | 2026-09-02 06:39:13 | 52.75950 | 9.00403 | 56° | 35km/h | 522m | -3.4m/s | 13.4°C | 77.3% | 962hPa | 2.8V | 07:19:08 | 03:07:40 | 00:00:00 | |
| DB0DAN | 2026-09-02 06:39:10 | 52.75965 | 9.00442 | 58° | 37km/h | 511m | -3.4m/s | 13.5°C | 72.7% | 963.28hPa | 2.8V | 00:00:00 | 00:00:00 | 00:00:00 | |
| DM0DOS-11 | 2026-09-02 06:39:10 | 52.75950 | 9.00403 | 56° | 35km/h | 522m | -3.4m/s | 13.4°C | 73.4% | 962hPa | 2.8V | 07:18:28 | 03:07:40 | 00:00:00 | |
| DM0DOS-11 | 2026-09-02 06:39:10 | 52.75940 | 9.00380 | 50° | 35km/h | 529m | -3m/s | 13.4°C | 73.6% | 961.4hPa | 2.8V | 07:18:30 | 03:07:38 | 00:00:00 | |
| BIOWL1-15 | 2026-09-02 06:39:09 | 52.75945 | 9.00391 | 55° | 35km/h | 525m | -3.4m/s | 13.4°C | 77.4% | 961.8hPa | 2.8V | 07:19:08 | 03:07:39 | 00:00:00 | |
| DM0DOS-11 | 2026-09-02 06:39:04 | 52.75929 | 9.00358 | 52° | 33km/h | 535m | -2.9m/s | 13.4°C | 73.6% | 960.6hPa | 2.8V | 07:18:32 | 03:07:36 | 00:00:00 | |
| DM0DOS-11 | 2026-09-02 06:39:04 | 52.75918 | 9.00336 | 48° | 35km/h | 541m | -3.1m/s | 13.4°C | 73.2% | 960hPa | 2.8V | 07:18:34 | 03:07:34 | 00:00:00 | |
| BIOWL1-15 | 2026-09-02 06:39:04 | 52.75934 | 9.00369 | 52° | 33km/h | 532m | -3.3m/s | 13.4°C | 77.6% | 961hPa | 2.8V | 07:19:08 | 03:07:37 | 00:00:00 | |
| BIOWL1-15 | 2026-09-02 06:39:02 | 52.75924 | 9.00347 | 50° | 33km/h | 538m | -3.2m/s | 13.4°C | 77.2% | 960.3hPa | 2.8V | 07:19:08 | 03:07:35 | 00:00:00 | |
| BIOWL1-15 | 2026-09-02 06:39:01 | 52.75918 | 9.00336 | 49° | 35km/h | 541m | -3.1m/s | 13.4°C | 77.2% | 960hPa | 2.8V | 07:19:08 | 03:07:34 | 00:00:00 | |
| BIOWL1-15 | 2026-09-02 06:39:00 | 52.75913 | 9.00326 | 52° | 33km/h | 544m | -3.2m/s | 13.4°C | 77.3% | 959.5hPa | 2.8V | 07:19:08 | 03:07:33 | 00:00:00 | |
| DJ2DS-15 | 2026-09-02 06:38:59 | 52.75902 | 9.00302 | 54° | 35km/h | 550m | -3.1m/s | 13.4°C | 72.3% | 959.0hPa | 2.8V | 00:00:00 | 00:00:00 | 00:00:00 | |
| DM0DOS-11 | 2026-09-02 06:38:58 | 52.75886 | 9.00265 | 54° | 37km/h | 560m | -3.2m/s | 13.3°C | 72.5% | 957.6hPa | 2.8V | 07:18:40 | 03:07:28 | 00:00:00 | |
| BIOWL1-15 | 2026-09-02 06:38:58 | 52.75902 | 9.00302 | 54° | 35km/h | 550m | -3.1m/s | 13.4°C | 77% | 959hPa | 2.8V | 07:19:08 | 03:07:31 | 00:00:00 | |
| BIOWL1-15 | 2026-09-02 06:38:57 | 52.75886 | 9.00265 | 55° | 37km/h | 560m | -3.2m/s | 13.4°C | 76.8% | 957.6hPa | 2.8V | 07:19:08 | 03:07:28 | 00:00:00 | |
| BIOWL1-15 | 2026-09-02 06:38:56 | 52.75880 | 9.00252 | 55° | 37km/h | 563m | -3.1m/s | 13.3°C | 76.8% | 957.4hPa | 2.8V | 07:19:08 | 03:07:27 | 00:00:00 | |
| DB0DAN | 2026-09-02 06:38:55 | 52.75886 | 9.00265 | 55° | 35km/h | 560m | -3.2m/s | 13.4°C | 71.9% | 957.62hPa | 2.8V | 00:00:00 | 00:00:00 | 00:00:00 | |
| BIOWL1-15 | 2026-09-02 06:38:53 | 52.75875 | 9.00239 | 55° | 38km/h | 567m | -3.4m/s | 13.3°C | 76.7% | 956.9hPa | 2.8V | 07:19:08 | 03:07:26 | 00:00:00 | |
| DM0DOS-11 | 2026-09-02 06:38:52 | 52.75864 | 9.00214 | 52° | 38km/h | 573m | -3.2m/s | 13.3°C | 72.3% | 956.1hPa | 2.8V | 07:18:44 | 03:07:24 | 00:00:00 | |
| DM0DOS-11 | 2026-09-02 06:38:52 | 52.75842 | 9.00167 | 51° | 33km/h | 586m | -3.4m/s | 13.2°C | 72.6% | 954.4hPa | 2.8V | 07:18:48 | 03:07:20 | 00:00:00 | |
| BIOWL1-15 | 2026-09-02 06:38:52 | 52.75870 | 9.00226 | 55° | 38km/h | 570m | -3.4m/s | 13.3°C | 76.7% | 956.5hPa | 2.8V | 07:19:08 | 03:07:25 | 00:00:00 | |
| BIOWL1-15 | 2026-09-02 06:38:50 | 52.75858 | 9.00201 | 53° | 37km/h | 577m | -3.2m/s | 13.2°C | 76.9% | 955.8hPa | 2.7V | 07:19:08 | 03:07:23 | 00:00:00 | |
| BIOWL1-15 | 2026-09-02 06:38:48 | 52.75847 | 9.00178 | 50° | 37km/h | 583m | -3.2m/s | 13.2°C | 77.1% | 955hPa | 2.8V | 07:19:08 | 03:07:21 | 00:00:00 | |
| DD8BA-10 | 2026-09-02 06:38:47 | 52.75842 | 9.00167 | 52° | 33km/h | 586m | -3.3m/s | 13.1°C | 72.6% | 954.4hPa | 2.8V | 00:00:00 | 00:00:00 | 00:00:00 | |
| DM0DOS-11 | 2026-09-02 06:38:46 | 52.75831 | 9.00146 | 48° | 33km/h | 593m | -3.4m/s | 13.1°C | 72.9% | 954hPa | 2.8V | 07:18:50 | 03:07:18 | 00:00:00 | |
| DM0DOS-11 | 2026-09-02 06:38:46 | 52.75821 | 9.00126 | 50° | 31km/h | 600m | -3m/s | 13°C | 73.3% | 953.3hPa | 2.8V | 07:18:52 | 03:07:16 | 00:00:00 | |
| DM0DOS-11 | 2026-09-02 06:38:46 | 52.75811 | 9.00107 | 49° | 29km/h | 605m | -3.2m/s | 13°C | 73.4% | 952.5hPa | 2.7V | 07:18:54 | 03:07:14 | 00:00:00 | |
| BIOWL1-15 | 2026-09-02 06:38:46 | 52.75837 | 9.00156 | 51° | 33km/h | 590m | -3.2m/s | 13.1°C | 77.2% | 954.4hPa | 2.8V | 07:19:08 | 03:07:19 | 00:00:00 | |
| BIOWL1-15 | 2026-09-02 06:38:44 | 52.75826 | 9.00136 | 49° | 31km/h | 596m | -3m/s | 13.1°C | 77.4% | 953.6hPa | 2.8V | 07:19:08 | 03:07:17 | 00:00:00 | |
| BIOWL1-15 | 2026-09-02 06:38:43 | 52.75821 | 9.00126 | 51° | 31km/h | 600m | -3m/s | 13°C | 77.6% | 953.3hPa | 2.8V | 07:19:08 | 03:07:16 | 00:00:00 | |
| BIOWL1-15 | 2026-09-02 06:38:41 | 52.75811 | 9.00107 | 49° | 29km/h | 606m | -3.2m/s | 13°C | 77.7% | 952.5hPa | 2.7V | 07:19:08 | 03:07:14 | 00:00:00 | |
| DB0DAN | 2026-09-02 06:38:40 | 52.75806 | 9.00097 | 49° | 29km/h | 609m | -3.4m/s | 13°C | 72.8% | 952.1hPa | 2.8V | 00:00:00 | 00:00:00 | 00:00:00 | |
| DM0DOS-11 | 2026-09-02 06:38:40 | 52.75790 | 9.00066 | 50° | 33km/h | 619m | -3.2m/s | 12.9°C | 72.4% | 950.9hPa | 2.8V | 07:18:58 | 03:07:10 | 00:00:00 | |
| BIOWL1-15 | 2026-09-02 06:38:39 | 52.75795 | 9.00077 | 51° | 33km/h | 615m | -3.3m/s | 12.9°C | 77.1% | 951.4hPa | 2.8V | 07:19:08 | 03:07:11 | 00:00:00 | |
| BIOWL1-15 | 2026-09-02 06:38:39 | 52.75790 | 9.00066 | 51° | 33km/h | 619m | -3.2m/s | 12.9°C | 76.8% | 950.9hPa | 2.8V | 07:19:08 | 03:07:10 | 00:00:00 | |
| BIOWL1-15 | 2026-09-02 06:38:35 | 52.75772 | 9.00031 | 52° | 38km/h | 628m | -3.2m/s | 12.8°C | 77.6% | 949.9hPa | 2.8V | 07:19:08 | 03:07:07 | 00:00:00 | |
| BIOWL1-15 | 2026-09-02 06:38:35 | 52.75767 | 9.00018 | 54° | 38km/h | 632m | -3.3m/s | 12.8°C | 77.7% | 949.4hPa | 2.8V | 07:19:08 | 03:07:06 | 00:00:00 | |
| DD8BA-10 | 2026-09-02 06:38:35 | 52.75778 | 9.00043 | 52° | 38km/h | 625m | -3.3m/s | 12.8°C | 72.8% | 950.1hPa | 2.8V | 00:00:00 | 00:00:00 | 00:00:00 | |
| DM0DOS-11 | 2026-09-02 06:38:34 | 52.75743 | 8.99967 | 51° | 38km/h | 645m | -3.5m/s | 12.7°C | 73.9% | 948hPa | 2.8V | 07:19:06 | 03:07:02 | 00:00:00 | |
| BIOWL1-15 | 2026-09-02 06:38:31 | 52.75714 | 8.99904 | 53° | 38km/h | 662m | -3.6m/s | 12.5°C | 78.8% | 946.1hPa | 2.7V | 07:19:59 | 03:06:57 | 00:00:00 | |
| DM0DOS-11 | 2026-09-02 06:38:28 | 52.75732 | 8.99942 | 50° | 38km/h | 652m | -3.3m/s | 12.6°C | 74.2% | 947.1hPa | 2.8V | 07:19:08 | 03:07:00 | 00:00:00 | |
| BIOWL1-15 | 2026-09-02 06:38:27 | 52.75708 | 8.99891 | 55° | 38km/h | 665m | -3.3m/s | 12.5°C | 78.9% | 945.8hPa | 2.8V | 07:19:59 | 03:06:56 | 00:00:00 | |
| DB0DAN | 2026-09-02 06:38:25 | 52.75720 | 8.99917 | 50° | 37km/h | 658m | -3.3m/s | 12.5°C | 73.8% | 946.45hPa | 2.8V | 00:00:00 | 00:00:00 | 00:00:00 | |
| DJ2DS-15 | 2026-09-02 06:38:25 | 52.75719 | 8.99917 | 51° | 38km/h | 658m | -3.3m/s | 12.5°C | 74.5% | 946.4hPa | 2.8V | 00:00:00 | 03:06:58 | 00:00:00 | |
| DD8BA-10 | 2026-09-02 06:38:25 | 52.75719 | 8.99917 | 51° | 38km/h | 658m | -3.3m/s | 12.5°C | 74.5% | 946.4hPa | 2.8V | 00:00:00 | 00:00:00 | 00:00:00 | |
| DM0DOS-11 | 2026-09-02 06:38:22 | 52.75697 | 8.99863 | 60° | 38km/h | 671m | -3.3m/s | 12.4°C | 75% | 945.1hPa | 2.8V | 07:19:14 | 03:06:54 | 00:00:00 | |
| DM0DOS-11 | 2026-09-02 06:38:22 | 52.75681 | 8.99806 | 64° | 38km/h | 685m | -3.4m/s | 12.3°C | 76.1% | 943.4hPa | 2.8V | 07:19:18 | 03:06:50 | 00:00:00 | |
| BIOWL1-15 | 2026-09-02 06:38:21 | 52.75693 | 8.99849 | 63° | 38km/h | 675m | -3.6m/s | 12.4°C | 79.1% | 944.7hPa | 2.8V | 07:19:59 | 03:06:53 | 00:00:00 | |
| BIOWL1-15 | 2026-09-02 06:38:21 | 52.75689 | 8.99834 | 64° | 38km/h | 678m | -3.5m/s | 12.4°C | 79.3% | 944.2hPa | 2.8V | 07:19:59 | 03:06:52 | 00:00:00 | |
| BIOWL1-15 | 2026-09-02 06:38:17 | 52.75680 | 8.99806 | 64° | 38km/h | 685m | -3.4m/s | 12.3°C | 80.3% | 943.4hPa | 2.8V | 07:19:59 | 03:06:50 | 00:00:00 | |
| BIOWL1-15 | 2026-09-02 06:38:16 | 52.75676 | 8.99792 | 64° | 38km/h | 689m | -3.3m/s | 12.3°C | 80.4% | 943.2hPa | 2.8V | 07:19:59 | 03:06:49 | 00:00:00 | |
| BIOWL1-15 | 2026-09-02 06:38:15 | 52.75672 | 8.99778 | 65° | 37km/h | 692m | -3.3m/s | 12.3°C | 80.7% | 942.8hPa | 2.7V | 07:19:59 | 03:06:48 | 00:00:00 | |
| BIOWL1-15 | 2026-09-02 06:38:14 | 52.75668 | 8.99764 | 65° | 37km/h | 696m | -3.4m/s | 12.2°C | 80.8% | 942.2hPa | 2.8V | 07:19:59 | 03:06:47 | 00:00:00 | |
| BIOWL1-15 | 2026-09-02 06:38:12 | 52.75661 | 8.99736 | 67° | 35km/h | 702m | -3.4m/s | 12.2°C | 81% | 941.6hPa | 2.8V | 07:19:59 | 03:06:45 | 00:00:00 | |
| DB0DAN | 2026-09-02 06:38:10 | 52.75654 | 8.99711 | 68° | 31km/h | 709m | -3.4m/s | 12.1°C | 76.3% | 940.93hPa | 2.8V | 00:00:00 | 00:00:00 | 00:00:00 | |
| DM0DOS-11 | 2026-09-02 06:38:10 | 52.75652 | 8.99699 | 68° | 31km/h | 713m | -3.3m/s | 12.1°C | 77.2% | 940.6hPa | 2.8V | 07:19:26 | 03:06:42 | 00:00:00 | |
| DM0DOS-11 | 2026-09-02 06:38:10 | 52.75645 | 8.99676 | 65° | 29km/h | 719m | -3.4m/s | 12°C | 77.5% | 939.9hPa | 2.7V | 07:19:28 | 03:06:40 | 00:00:00 | |
| BIOWL1-15 | 2026-09-02 06:38:10 | 52.75654 | 8.99711 | 68° | 31km/h | 709m | -3.4m/s | 12.1°C | 81.2% | 940.9hPa | 2.8V | 07:19:59 | 03:06:43 | 00:00:00 | |
| BIOWL1-15 | 2026-09-02 06:38:09 | 52.75651 | 8.99699 | 68° | 31km/h | 713m | -3.3m/s | 12.1°C | 81.3% | 940.6hPa | 2.8V | 07:19:59 | 03:06:42 | 00:00:00 | |
| BIOWL1-15 | 2026-09-02 06:38:07 | 52.75645 | 8.99676 | 66° | 29km/h | 719m | -3.4m/s | 12°C | 81.6% | 939.9hPa | 2.7V | 07:19:59 | 03:06:40 | 00:00:00 | |
| BIOWL1-15 | 2026-09-02 06:38:05 | 52.75636 | 8.99644 | 61° | 29km/h | 729m | -3.5m/s | 11.9°C | 81.7% | 938.6hPa | 2.8V | 07:19:59 | 03:06:37 | 00:00:00 | |
| BIOWL1-15 | 2026-09-02 06:38:05 | 52.75632 | 8.99633 | 64° | 29km/h | 733m | -3.6m/s | 11.9°C | 81.8% | 938.3hPa | 2.8V | 07:19:59 | 03:06:36 | 00:00:00 | |
| DM0DOS-11 | 2026-09-02 06:38:04 | 52.75626 | 8.99611 | 64° | 29km/h | 739m | -3.6m/s | 11.9°C | 78% | 937.4hPa | 2.8V | 07:19:34 | 03:06:34 | 00:00:00 | |
| DM0DOS-11 | 2026-09-02 06:38:04 | 52.75620 | 8.99590 | 62° | 29km/h | 746m | -3.6m/s | 11.8°C | 78.1% | 936.8hPa | 2.7V | 07:19:36 | 03:06:32 | 00:00:00 | |
| BIOWL1-15 | 2026-09-02 06:38:01 | 52.75623 | 8.99600 | 60° | 29km/h | 743m | -3.6m/s | 11.8°C | 82.1% | 937.2hPa | 2.8V | 07:19:59 | 03:06:33 | 00:00:00 | |
| BIOWL1-15 | 2026-09-02 06:38:01 | 52.75619 | 8.99590 | 63° | 29km/h | 746m | -3.6m/s | 11.8°C | 82.2% | 936.8hPa | 2.7V | 07:19:59 | 03:06:32 | 00:00:00 | |
| BIOWL1-15 | 2026-09-02 06:37:57 | 52.75612 | 8.99569 | 59° | 27km/h | 753m | -3.3m/s | 11.8°C | 82.5% | 935.9hPa | 2.8V | 07:19:59 | 03:06:30 | 00:00:00 | |
| DB0DAN | 2026-09-02 06:37:55 | 52.75605 | 8.99550 | 55° | 26km/h | 760m | -3.9m/s | 11.7°C | 77.8% | 935.4hPa | 2.8V | 00:00:00 | 00:00:00 | 00:00:00 | |
| BIOWL1-15 | 2026-09-02 06:37:55 | 52.75605 | 8.99550 | 55° | 27km/h | 760m | -3.9m/s | 11.7°C | 82.6% | 935.4hPa | 2.8V | 07:19:59 | 03:06:28 | 00:00:00 | |
| BIOWL1-15 | 2026-09-02 06:37:54 | 52.75600 | 8.99541 | 48° | 27km/h | 764m | -3.2m/s | 11.7°C | 82.9% | 934.7hPa | 2.8V | 07:19:59 | 03:06:27 | 00:00:00 | |
| BIOWL1-15 | 2026-09-02 06:37:52 | 52.75575 | 8.99497 | 45° | 29km/h | 781m | -3.6m/s | 11.6°C | 82.9% | 932.9hPa | 2.8V | 07:19:59 | 03:06:22 | 00:00:00 | |
| DM0DOS-11 | 2026-09-02 06:37:52 | 52.75586 | 8.99515 | 46° | 29km/h | 774m | -3.7m/s | 11.6°C | 78.8% | 933.7hPa | 2.7V | 07:19:44 | 03:06:24 | 00:00:00 | |
| DM0DOS-11 | 2026-09-02 06:37:52 | 52.75575 | 8.99497 | 44° | 29km/h | 781m | -3.6m/s | 11.6°C | 78.6% | 932.9hPa | 2.8V | 07:19:46 | 03:06:22 | 00:00:00 | |
| BIOWL1-15 | 2026-09-02 06:37:52 | 52.75570 | 8.99488 | 45° | 29km/h | 785m | -3.2m/s | 11.5°C | 82.8% | 932.5hPa | 2.8V | 07:19:59 | 03:06:21 | 00:00:00 | |
| BIOWL1-15 | 2026-09-02 06:37:47 | 52.75565 | 8.99480 | 45° | 29km/h | 788m | -3.4m/s | 11.5°C | 82.5% | 932.1hPa | 2.8V | 07:19:59 | 03:06:20 | 00:00:00 | |
| DJ2DS-15 | 2026-09-02 06:37:47 | 52.75560 | 8.99471 | 44° | 29km/h | 791m | -3.0m/s | 11.5°C | 77.7% | 931.9hPa | 2.7V | 00:00:00 | 00:00:00 | 00:00:00 | |
| DM0DOS-11 | 2026-09-02 06:37:46 | 52.75545 | 8.99445 | 44° | 29km/h | 801m | -3.4m/s | 11.4°C | 78.5% | 930.5hPa | 2.7V | 07:19:52 | 03:06:16 | 00:00:00 | |
| DM0DOS-11 | 2026-09-02 06:37:46 | 52.75535 | 8.99427 | 48° | 27km/h | 808m | -3.2m/s | 11.4°C | 78.7% | 929.9hPa | 2.8V | 07:19:54 | 03:06:14 | 00:00:00 | |
| BIOWL1-15 | 2026-09-02 06:37:45 | 52.75540 | 8.99436 | 48° | 29km/h | 805m | -3.5m/s | 11.4°C | 82.8% | 930.2hPa | 2.8V | 07:19:59 | 03:06:15 | 00:00:00 | |
| BIOWL1-15 | 2026-09-02 06:37:45 | 52.75535 | 8.99427 | 48° | 27km/h | 808m | -3.3m/s | 11.4°C | 82.9% | 929.9hPa | 2.8V | 07:19:59 | 03:06:14 | 00:00:00 | |
| DJ2DS-15 | 2026-09-02 06:37:45 | 52.75554 | 8.99462 | 47° | 29km/h | 794m | -3.5m/s | 11.4°C | 78.4% | 931.1hPa | 2.8V | 00:00:00 | 03:06:18 | 00:00:00 | |
| DD8BA-10 | 2026-09-02 06:37:43 | 52.75545 | 8.99445 | 45° | 29km/h | 801m | -3.4m/s | 11.4°C | 78.5% | 930.5hPa | 2.8V | 00:00:00 | 00:00:00 | 00:00:00 | |
| BIOWL9-15 | 2026-09-02 06:37:42 | 52.75540 | 8.99436 | 47° | 27km/h | 805m | -3.5m/s | 11.4°C | 77.8% | 930.2hPa | 2.8V | 00:00:00 | 00:00:00 | 00:00:00 | |
| DB0DAN | 2026-09-02 06:37:40 | 52.75530 | 8.99418 | 49° | 27km/h | 812m | -3.4m/s | 11.3°C | 78% | 929.39hPa | 2.8V | 00:00:00 | 00:00:00 | 00:00:00 | |
| DM0DOS-11 | 2026-09-02 06:37:40 | 52.75526 | 8.99409 | 50° | 29km/h | 815m | -3.4m/s | 11.3°C | 78.9% | 929.1hPa | 2.8V | 07:19:56 | 03:06:12 | 00:00:00 | |
| DM0DOS-11 | 2026-09-02 06:37:40 | 52.75517 | 8.99391 | 48° | 29km/h | 822m | -3.5m/s | 11.2°C | 79.4% | 928.2hPa | 2.8V | 07:19:58 | 03:06:10 | 00:00:00 | |
| BIOWL1-15 | 2026-09-02 06:37:39 | 52.75526 | 8.99409 | 51° | 29km/h | 815m | -3.4m/s | 11.3°C | 83% | 929.1hPa | 2.8V | 07:19:59 | 03:06:12 | 00:00:00 | |
| BIOWL1-15 | 2026-09-02 06:37:37 | 52.75516 | 8.99391 | 49° | 29km/h | 822m | -3.5m/s | 11.2°C | 83.5% | 928.2hPa | 2.8V | 07:19:59 | 03:06:10 | 00:00:00 | |
| BIOWL1-15 | 2026-09-02 06:37:36 | 52.75512 | 8.99382 | 52° | 27km/h | 825m | -3.8m/s | 11.2°C | 83.5% | 928hPa | 2.8V | 07:19:59 | 03:06:09 | 00:00:00 | |
| DJ2DS-15 | 2026-09-02 06:37:35 | 52.75507 | 8.99372 | 52° | 29km/h | 829m | -3.3m/s | 11.2°C | 80.0% | 927.4hPa | 2.8V | 00:00:00 | 03:06:08 | 00:00:00 | |
| DM0DOS-11 | 2026-09-02 06:37:34 | 52.75499 | 8.99354 | 52° | 29km/h | 836m | -3.4m/s | 11.2°C | 80.1% | 926.8hPa | 2.8V | 07:20:02 | 03:06:06 | 00:00:00 | |
| BIOWL1-15 | 2026-09-02 06:37:34 | 52.75503 | 8.99363 | 53° | 27km/h | 832m | -3.4m/s | 11.2°C | 84% | 927.1hPa | 2.8V | 07:20:50 | 03:06:07 | 00:00:00 | |
| BIOWL1-15 | 2026-09-02 06:37:32 | 52.75494 | 8.99344 | 53° | 29km/h | 839m | -3.6m/s | 11.2°C | 84% | 926.2hPa | 2.8V | 07:20:50 | 03:06:05 | 00:00:00 | |
| DL1XH-west | 2026-09-02 06:37:31 | 52.75490 | 8.99334 | 53° | 29km/h | 843m | -3.2m/s | 11.1°C | 84.2% | 925.9hPa | 2.8V | 07:20:50 | 03:06:04 | 00:00:00 | |
| BIOWL1-15 | 2026-09-02 06:37:30 | 52.75481 | 8.99315 | 50° | 31km/h | 849m | -3.4m/s | 11.1°C | 84.2% | 925.3hPa | 2.8V | 07:20:50 | 03:06:02 | 00:00:00 | |
| BIOWL1-15 | 2026-09-02 06:37:30 | 52.75477 | 8.99306 | 52° | 29km/h | 853m | -3.4m/s | 11°C | 84% | 924.8hPa | 2.8V | 07:20:50 | 03:06:01 | 00:00:00 | |
| DL1XH-west | 2026-09-02 06:37:30 | 52.75486 | 8.99325 | 54° | 27km/h | 846m | -3.4m/s | 11.1°C | 84.2% | 925.8hPa | 2.8V | 07:20:50 | 03:06:03 | 00:00:00 | |
| DJ2DS-15 | 2026-09-02 06:37:30 | 52.75486 | 8.99325 | 54° | 29km/h | 846m | -3.3m/s | 11.0°C | 80.3% | 925.7hPa | 2.7V | 00:00:00 | 03:06:03 | 00:00:00 | |
| DM0DOS-11 | 2026-09-02 06:37:28 | 52.75472 | 8.99296 | 49° | 29km/h | 856m | -3.4m/s | 11°C | 80% | 924.5hPa | 2.7V | 07:20:08 | 03:06:00 | 00:00:00 | |
| BIOWL1-15 | 2026-09-02 06:37:26 | 52.75467 | 8.99287 | 48° | 29km/h | 860m | -3.3m/s | 11°C | 83.5% | 924.2hPa | 2.8V | 07:20:50 | 03:05:59 | 00:00:00 | |
| DB0DAN | 2026-09-02 06:37:25 | 52.75462 | 8.99278 | 50° | 27km/h | 863m | -3.3m/s | 11°C | 79.1% | 923.67hPa | 2.8V | 00:00:00 | 00:00:00 | 00:00:00 | |
| BIOWL1-15 | 2026-09-02 06:37:24 | 52.75457 | 8.99268 | 48° | 31km/h | 866m | -3.4m/s | 11°C | 83.2% | 923.4hPa | 2.8V | 07:20:50 | 03:05:57 | 00:00:00 | |
| DD8BA-10 | 2026-09-02 06:37:24 | 52.75457 | 8.99268 | 48° | 31km/h | 866m | -3.3m/s | 10.9°C | 79.6% | 923.4hPa | 2.7V | 00:00:00 | 00:00:00 | 00:00:00 | |
| DM0DOS-11 | 2026-09-02 06:37:22 | 52.75427 | 8.99221 | 44° | 35km/h | 883m | -3.3m/s | 10.9°C | 78.6% | 921.5hPa | 2.7V | 07:20:16 | 03:05:52 | 00:00:00 | |
| BIOWL1-15 | 2026-09-02 06:37:22 | 52.75446 | 8.99250 | 43° | 33km/h | 873m | -3.3m/s | 10.9°C | 83% | 922.6hPa | 2.8V | 07:20:50 | 03:05:55 | 00:00:00 | |
| DL1XH-west | 2026-09-02 06:37:20 | 52.75433 | 8.99231 | 43° | 35km/h | 879m | -3.3m/s | 10.9°C | 82.4% | 921.9hPa | 2.8V | 07:20:50 | 03:05:53 | 00:00:00 | |
| BIOWL1-15 | 2026-09-02 06:37:19 | 52.75427 | 8.99221 | 44° | 35km/h | 883m | -3.3m/s | 10.9°C | 81.9% | 921.5hPa | 2.7V | 07:20:50 | 03:05:52 | 00:00:00 | |
| DD8BA-10 | 2026-09-02 06:37:18 | 52.75421 | 8.99210 | 46° | 38km/h | 886m | -3.3m/s | 10.8°C | 78.6% | 921.1hPa | 2.7V | 00:00:00 | 00:00:00 | 00:00:00 | |
| DM0DOS-11 | 2026-09-02 06:37:16 | 52.75372 | 8.99126 | 47° | 40km/h | 909m | -3.3m/s | 10.7°C | 76.1% | 918.5hPa | 2.8V | 07:20:24 | 03:05:44 | 00:00:00 | |
| DL1XH-west | 2026-09-02 06:37:16 | 52.75407 | 8.99188 | 45° | 40km/h | 892m | -3.3m/s | 10.9°C | 80.6% | 920.4hPa | 2.8V | 07:20:50 | 03:05:49 | 00:00:00 | |
| DL1XH-west | 2026-09-02 06:37:15 | 52.75400 | 8.99176 | 46° | 40km/h | 896m | -3.3m/s | 10.8°C | 80.4% | 920hPa | 2.8V | 07:20:50 | 03:05:48 | 00:00:00 | |
| BIOWL1-15 | 2026-09-02 06:37:13 | 52.75358 | 8.99101 | 47° | 40km/h | 916m | -3.2m/s | 10.7°C | 79.5% | 917.7hPa | 2.8V | 07:20:50 | 03:05:42 | 00:00:00 | |
| DL1XH-west | 2026-09-02 06:37:13 | 52.75386 | 8.99151 | 47° | 42km/h | 903m | -3m/s | 10.8°C | 80.1% | 919.3hPa | 2.8V | 07:20:50 | 03:05:46 | 00:00:00 | |
| BIOWL1-15 | 2026-09-02 06:37:13 | 52.75351 | 8.99088 | 47° | 42km/h | 919m | -3.3m/s | 10.7°C | 79.6% | 917.5hPa | 2.8V | 07:20:50 | 03:05:41 | 00:00:00 | |
| DL1XH-west | 2026-09-02 06:37:12 | 52.75379 | 8.99138 | 48° | 40km/h | 906m | -3.3m/s | 10.8°C | 80.1% | 918.9hPa | 2.7V | 07:20:50 | 03:05:45 | 00:00:00 | |
| DD8BA-10 | 2026-09-02 06:37:12 | 52.75379 | 8.99138 | 48° | 40km/h | 906m | -3.2m/s | 10.7°C | 76.6% | 918.9hPa | 2.8V | 00:00:00 | 00:00:00 | 00:00:00 | |
| BIOWL9-15 | 2026-09-02 06:37:11 | 52.75372 | 8.99126 | 47° | 40km/h | 909m | -3.3m/s | 10.7°C | 75.3% | 918.5hPa | 2.8V | 00:00:00 | 00:00:00 | 00:00:00 | |
| DJ2DS-15 | 2026-09-02 06:37:11 | 52.75365 | 8.99113 | 46° | 40km/h | 912m | -3.3m/s | 10.7°C | 75.2% | 918.1hPa | 2.8V | 00:00:00 | 00:00:00 | 00:00:00 | |
| DM0DOS-11 | 2026-09-02 06:37:11 | 52.75343 | 8.99076 | 47° | 42km/h | 922m | -3.3m/s | 10.6°C | 75.5% | 916.9hPa | 2.8V | 07:20:28 | 03:05:40 | 00:00:00 | |
| DM0DOS-11 | 2026-09-02 06:37:11 | 52.75329 | 8.99050 | 48° | 42km/h | 929m | -3.5m/s | 10.6°C | 74.5% | 916.3hPa | 2.8V | 07:20:30 | 03:05:38 | 00:00:00 | |
| DB0DAN | 2026-09-02 06:37:10 | 52.75365 | 8.99113 | 47° | 38km/h | 913m | -3.3m/s | 10.7°C | 75.2% | 918.1hPa | 2.8V | 00:00:00 | 00:00:00 | 00:00:00 | |
| BIOWL1-15 | 2026-09-02 06:37:10 | 52.75344 | 8.99076 | 47° | 42km/h | 922m | -3.3m/s | 10.6°C | 79.4% | 916.9hPa | 2.8V | 07:20:50 | 03:05:40 | 00:00:00 | |
| BIOWL1-15 | 2026-09-02 06:37:09 | 52.75336 | 8.99063 | 48° | 42km/h | 926m | -3.6m/s | 10.6°C | 79.2% | 916.6hPa | 2.8V | 07:20:50 | 03:05:39 | 00:00:00 | |
| BIOWL1-15 | 2026-09-02 06:37:07 | 52.75329 | 8.99050 | 48° | 42km/h | 929m | -3.5m/s | 10.6°C | 78.5% | 916.3hPa | 2.8V | 07:20:50 | 03:05:38 | 00:00:00 | |
| BIOWL1-15 | 2026-09-02 06:37:03 | 52.75308 | 8.99010 | 51° | 42km/h | 940m | -3.6m/s | 10.6°C | 78% | 915.1hPa | 2.8V | 07:20:50 | 03:05:35 | 00:00:00 | |
| BIOWL1-15 | 2026-09-02 06:37:03 | 52.75302 | 8.98995 | 53° | 44km/h | 943m | -3.4m/s | 10.6°C | 76.1% | 914.8hPa | 2.8V | 07:20:50 | 03:05:34 | 00:00:00 | |
| BIOWL1-15 | 2026-09-02 06:36:59 | 52.75289 | 8.98966 | 57° | 44km/h | 950m | -3.6m/s | 10.5°C | 75.9% | 914hPa | 2.8V | 07:20:50 | 03:05:32 | 00:00:00 | |
| BIOWL1-15 | 2026-09-02 06:36:57 | 52.75277 | 8.98934 | 60° | 46km/h | 957m | -3.5m/s | 10.4°C | 75.3% | 913.2hPa | 2.7V | 07:20:50 | 03:05:30 | 00:00:00 | |
| BIOWL1-15 | 2026-09-02 06:36:55 | 52.75260 | 8.98885 | 60° | 46km/h | 967m | -3.6m/s | 10.4°C | 74.7% | 911.9hPa | 2.8V | 07:20:50 | 03:05:27 | 00:00:00 | |
| DB0DAN | 2026-09-02 06:36:55 | 52.75266 | 8.98902 | 60° | 42km/h | 964m | -3.6m/s | 10.4°C | 70.7% | 912.4hPa | 2.8V | 00:00:00 | 00:00:00 | 00:00:00 | |
| BIOWL1-15 | 2026-09-02 06:36:55 | 52.75254 | 8.98869 | 61° | 46km/h | 971m | -3.6m/s | 10.4°C | 74.3% | 911.6hPa | 2.8V | 07:20:50 | 03:05:26 | 00:00:00 | |
| BIOWL1-15 | 2026-09-02 06:36:51 | 52.75218 | 8.98775 | 55° | 44km/h | 992m | -3.6m/s | 10.2°C | 75.1% | 909.3hPa | 2.8V | 07:20:50 | 03:05:20 | 00:00:00 | |
| DD8BA-10 | 2026-09-02 06:36:51 | 52.75243 | 8.98837 | 59° | 44km/h | 978m | -3.4m/s | 10.2°C | 71.1% | 910.9hPa | 2.7V | 00:00:00 | 00:00:00 | 00:00:00 | |
| DJ2DS-15 | 2026-09-02 06:36:50 | 52.75237 | 8.98821 | 59° | 44km/h | 981m | -3.4m/s | 10.2°C | 71.3% | 910.3hPa | 2.8V | 00:00:00 | 03:05:23 | 00:00:00 | |
| DD8BA-10 | 2026-09-02 06:36:48 | 52.75225 | 8.98790 | 56° | 44km/h | 988m | -3.3m/s | 10.1°C | 71.0% | 909.8hPa | 2.8V | 00:00:00 | 00:00:00 | 00:00:00 | |
| DL1XH-west | 2026-09-02 06:36:48 | 52.75225 | 8.98790 | 56° | 44km/h | 988m | -3.3m/s | 10.2°C | 75.2% | 909.8hPa | 2.8V | 07:20:50 | 03:05:21 | 00:00:00 | |
| DM0DOS-11 | 2026-09-02 06:36:46 | 52.75206 | 8.98745 | 54° | 44km/h | 999m | -3.6m/s | 10.1°C | 69.5% | 908.6hPa | 2.8V | 07:20:50 | 03:05:18 | 00:00:00 | |
| DL1XH-west | 2026-09-02 06:36:46 | 52.75212 | 8.98760 | 55° | 44km/h | 995m | -3.8m/s | 10.2°C | 74.3% | 909hPa | 2.8V | 07:20:50 | 03:05:19 | 00:00:00 | |
| BIOWL1-15 | 2026-09-02 06:36:45 | 52.75199 | 8.98730 | 55° | 44km/h | 1002m | -3.4m/s | 10.1°C | 74.3% | 908.2hPa | 2.8V | 07:21:41 | 03:05:17 | 00:00:00 | |
| DL1XH-west | 2026-09-02 06:36:45 | 52.75206 | 8.98745 | 55° | 44km/h | 999m | -3.6m/s | 10.1°C | 74% | 908.6hPa | 2.8V | 07:20:50 | 03:05:18 | 00:00:00 | |
| DL1XH-west | 2026-09-02 06:36:43 | 52.75193 | 8.98715 | 55° | 44km/h | 1006m | -3.7m/s | 10.1°C | 74% | 907.8hPa | 2.7V | 07:21:41 | 03:05:16 | 00:00:00 | |
| DL1XH-west | 2026-09-02 06:36:42 | 52.75186 | 8.98700 | 55° | 44km/h | 1009m | -3.6m/s | 10°C | 74.3% | 907.4hPa | 2.7V | 07:21:41 | 03:05:15 | 00:00:00 | |
| BIOWL1-15 | 2026-09-02 06:36:41 | 52.75180 | 8.98685 | 56° | 44km/h | 1013m | -3.6m/s | 10°C | 73% | 907hPa | 2.8V | 07:21:41 | 03:05:14 | 00:00:00 | |
| DB0DAN | 2026-09-02 06:36:40 | 52.75174 | 8.98670 | 56° | 42km/h | 1017m | -3.7m/s | 10°C | 66.8% | 906.68hPa | 2.8V | 00:00:00 | 00:00:00 | 00:00:00 | |
| DM0DOS-11 | 2026-09-02 06:36:40 | 52.75155 | 8.98624 | 57° | 46km/h | 1027m | -3.6m/s | 10°C | 66.4% | 905.6hPa | 2.8V | 07:20:58 | 03:05:10 | 00:00:00 | |
| DL1XH-west | 2026-09-02 06:36:40 | 52.75174 | 8.98670 | 56° | 44km/h | 1017m | -3.7m/s | 10°C | 72.5% | 906.7hPa | 2.8V | 07:21:41 | 03:05:13 | 00:00:00 | |
| BIOWL1-15 | 2026-09-02 06:36:39 | 52.75168 | 8.98655 | 56° | 44km/h | 1020m | -3.4m/s | 10°C | 72.4% | 906.4hPa | 2.8V | 07:21:41 | 03:05:12 | 00:00:00 | |
| BIOWL1-15 | 2026-09-02 06:36:38 | 52.75161 | 8.98639 | 57° | 44km/h | 1024m | -3.5m/s | 10°C | 72.3% | 906hPa | 2.8V | 07:21:41 | 03:05:11 | 00:00:00 | |
| DL1XH-west | 2026-09-02 06:36:37 | 52.75155 | 8.98624 | 57° | 46km/h | 1027m | -3.6m/s | 10°C | 71.5% | 905.6hPa | 2.8V | 07:21:41 | 03:05:10 | 00:00:00 | |
| BIOWL1-15 | 2026-09-02 06:36:36 | 52.75149 | 8.98608 | 57° | 46km/h | 1031m | -3.6m/s | 9.9°C | 71.5% | 905.1hPa | 2.7V | 07:21:41 | 03:05:09 | 00:00:00 | |
| DL1XH-west | 2026-09-02 06:36:35 | 52.75143 | 8.98592 | 58° | 46km/h | 1034m | -3.6m/s | 9.9°C | 71.3% | 904.8hPa | 2.7V | 07:21:41 | 03:05:08 | 00:00:00 | |
| DJ2DS-15 | 2026-09-02 06:36:35 | 52.75143 | 8.98592 | 58° | 46km/h | 1034m | -3.5m/s | 9.9°C | 66.3% | 904.7hPa | 2.8V | 00:00:00 | 03:05:08 | 00:00:00 | |
| DL4XJ-10 | 2026-09-02 06:36:35 | 52.75143 | 8.98592 | 58° | 46km/h | 1034m | -3.5m/s | 11.3°C | 0% | 0hPa | 2.8V | 00:00:00 | 00:00:00 | 00:00:00 | |
| DL4BBY-15 | 2026-09-02 06:36:35 | 52.75143 | 8.98592 | 58° | 46km/h | 1034m | -3.5m/s | 11.3°C | 0% | 0hPa | 2.8V | 00:00:00 | 00:00:00 | 00:00:00 | |
| DM0DOS-11 | 2026-09-02 06:36:34 | 52.75131 | 8.98560 | 58° | 46km/h | 1042m | -3.6m/s | 9.9°C | 66.3% | 903.9hPa | 2.8V | 07:21:02 | 03:05:06 | 00:00:00 | |
| BIOWL1-15 | 2026-09-02 06:36:34 | 52.75125 | 8.98543 | 59° | 46km/h | 1045m | -3.5m/s | 9.8°C | 71.2% | 903.6hPa | 2.8V | 07:21:41 | 03:05:05 | 00:00:00 | |
| DL1XH-west | 2026-09-02 06:36:33 | 52.75131 | 8.98560 | 59° | 46km/h | 1042m | -3.6m/s | 9.9°C | 71.2% | 903.9hPa | 2.8V | 07:21:41 | 03:05:06 | 00:00:00 | |
| DL1XH-west | 2026-09-02 06:36:31 | 52.75119 | 8.98527 | 59° | 46km/h | 1049m | -3.5m/s | 9.8°C | 71.1% | 903.1hPa | 2.8V | 07:21:41 | 03:05:04 | 00:00:00 | |
| DL1XH-west | 2026-09-02 06:36:30 | 52.75113 | 8.98511 | 59° | 46km/h | 1052m | -3.7m/s | 9.8°C | 71.4% | 902.8hPa | 2.8V | 07:21:41 | 03:05:03 | 00:00:00 | |
| DL1XH-west | 2026-09-02 06:36:28 | 52.75101 | 8.98478 | 60° | 46km/h | 1060m | -3.7m/s | 9.7°C | 71.3% | 902hPa | 2.7V | 07:21:41 | 03:05:01 | 00:00:00 | |
| DL1XH-west | 2026-09-02 06:36:27 | 52.75095 | 8.98461 | 60° | 46km/h | 1063m | -3.5m/s | 9.7°C | 71.3% | 901.6hPa | 2.8V | 07:21:41 | 03:05:00 | 00:00:00 | |
| BIOWL1-15 | 2026-09-02 06:36:26 | 52.75089 | 8.98444 | 61° | 46km/h | 1067m | -3.6m/s | 9.7°C | 71.4% | 901.1hPa | 2.8V | 07:21:41 | 03:04:59 | 00:00:00 | |
| DB0DAN | 2026-09-02 06:36:25 | 52.75083 | 8.98428 | 62° | 44km/h | 1071m | -3.7m/s | 9.6°C | 66.6% | 900.83hPa | 2.8V | 00:00:00 | 00:00:00 | 00:00:00 | |
| DL1XH-west | 2026-09-02 06:36:25 | 52.75083 | 8.98428 | 62° | 47km/h | 1071m | -3.7m/s | 9.6°C | 71.5% | 900.8hPa | 2.8V | 07:21:41 | 03:04:58 | 00:00:00 | |
| DL1XH-west | 2026-09-02 06:36:23 | 52.75072 | 8.98393 | 64° | 46km/h | 1078m | -3.7m/s | 9.6°C | 71.5% | 900hPa | 2.8V | 07:21:41 | 03:04:56 | 00:00:00 | |
| BIOWL1-15 | 2026-09-02 06:36:23 | 52.75052 | 8.98323 | 65° | 46km/h | 1092m | -3.6m/s | 9.5°C | 71.8% | 898.6hPa | 2.7V | 07:21:41 | 03:04:52 | 00:00:00 | |
| DM0DOS-11 | 2026-09-02 06:36:22 | 52.75062 | 8.98358 | 65° | 46km/h | 1085m | -3.8m/s | 9.5°C | 67.4% | 899.2hPa | 2.7V | 07:21:14 | 03:04:54 | 00:00:00 | |
| DL1XH-west | 2026-09-02 06:36:22 | 52.75067 | 8.98376 | 65° | 46km/h | 1082m | -3.7m/s | 9.6°C | 71.6% | 899.5hPa | 2.7V | 07:21:41 | 03:04:55 | 00:00:00 | |
| DD8BA-10 | 2026-09-02 06:36:21 | 52.75062 | 8.98358 | 66° | 46km/h | 1085m | -3.8m/s | 9.5°C | 67.4% | 899.1hPa | 2.7V | 00:00:00 | 00:00:00 | 00:00:00 | |
| DL1XH1-15 | 2026-09-02 06:36:20 | 52.75052 | 8.98323 | 64° | 46km/h | 1092m | -3.6m/s | 9.5°C | 67.6% | 898.6hPa | 2.7V | 07:21:16 | 03:04:52 | 00:00:00 | |
| DL1XH-west | 2026-09-02 06:36:20 | 52.75057 | 8.98341 | 65° | 46km/h | 1089m | -3.4m/s | 9.5°C | 71.7% | 898.8hPa | 2.8V | 07:21:41 | 03:04:53 | 00:00:00 | |
| DL1XH-west | 2026-09-02 06:36:18 | 52.75047 | 8.98306 | 66° | 46km/h | 1096m | -3.8m/s | 9.4°C | 72% | 898hPa | 2.7V | 07:21:41 | 03:04:51 | 00:00:00 | |
| BIOWL1-15 | 2026-09-02 06:36:17 | 52.75034 | 8.98252 | 68° | 46km/h | 1107m | -3.8m/s | 9.3°C | 72.4% | 896.8hPa | 2.7V | 07:21:41 | 03:04:48 | 00:00:00 | |
| DL1XH-west | 2026-09-02 06:36:16 | 52.75038 | 8.98270 | 68° | 46km/h | 1103m | -3.7m/s | 9.4°C | 72.2% | 897.2hPa | 2.7V | 07:21:41 | 03:04:49 | 00:00:00 | |
| DL1XH-west | 2026-09-02 06:36:14 | 52.75030 | 8.98234 | 68° | 46km/h | 1111m | -3.6m/s | 9.3°C | 72.5% | 896.5hPa | 2.7V | 07:21:41 | 03:04:47 | 00:00:00 | |
| BIOWL1-15 | 2026-09-02 06:36:13 | 52.75021 | 8.98199 | 67° | 47km/h | 1118m | -3.8m/s | 9.2°C | 73.1% | 895.7hPa | 2.8V | 07:21:41 | 03:04:45 | 00:00:00 | |
| DL1XH-west | 2026-09-02 06:36:13 | 52.75025 | 8.98216 | 67° | 47km/h | 1114m | -3.6m/s | 9.3°C | 72.7% | 896.1hPa | 2.8V | 07:21:41 | 03:04:46 | 00:00:00 | |
| DL1XH-west | 2026-09-02 06:36:11 | 52.75016 | 8.98181 | 67° | 47km/h | 1122m | -3.7m/s | 9.2°C | 73.2% | 895.4hPa | 2.7V | 07:21:41 | 03:04:44 | 00:00:00 | |
| DB0DAN | 2026-09-02 06:36:10 | 52.75011 | 8.98162 | 67° | 46km/h | 1125m | -3.8m/s | 9.2°C | 67.2% | 895.01hPa | 2.7V | 00:00:00 | 00:00:00 | 00:00:00 | |
| DL1XH-west | 2026-09-02 06:36:10 | 52.75011 | 8.98162 | 67° | 47km/h | 1125m | -3.8m/s | 9.2°C | 72.7% | 895hPa | 2.7V | 07:21:41 | 03:04:43 | 00:00:00 | |
| BIOWL1-15 | 2026-09-02 06:36:09 | 52.75002 | 8.98126 | 68° | 47km/h | 1133m | -3.7m/s | 9.1°C | 73% | 894.1hPa | 2.7V | 07:21:41 | 03:04:41 | 00:00:00 | |
| DL1XH-west | 2026-09-02 06:36:09 | 52.75007 | 8.98144 | 68° | 47km/h | 1129m | -3.8m/s | 9.2°C | 72.8% | 894.6hPa | 2.8V | 07:21:41 | 03:04:42 | 00:00:00 | |
| DL1XH-west | 2026-09-02 06:36:07 | 52.74998 | 8.98108 | 69° | 47km/h | 1136m | -3.9m/s | 9.1°C | 73% | 893.6hPa | 2.7V | 07:21:41 | 03:04:40 | 00:00:00 | |
| DL1XH-west | 2026-09-02 06:36:06 | 52.74993 | 8.98090 | 70° | 47km/h | 1140m | -3.7m/s | 9.1°C | 72.7% | 893.2hPa | 2.8V | 07:21:41 | 03:04:39 | 00:00:00 | |
| DL1XH-west | 2026-09-02 06:36:04 | 52.74986 | 8.98053 | 70° | 47km/h | 1148m | -4m/s | 9°C | 71.8% | 892.4hPa | 2.8V | 07:21:41 | 03:04:37 | 00:00:00 | |
| BIOWL1-15 | 2026-09-02 06:36:02 | 52.74969 | 8.97979 | 70° | 47km/h | 1163m | -3.6m/s | 8.9°C | 71.8% | 890.8hPa | 2.7V | 07:21:41 | 03:04:33 | 00:00:00 | |
| DL1XH-west | 2026-09-02 06:36:02 | 52.74978 | 8.98016 | 70° | 47km/h | 1155m | -3.6m/s | 9°C | 72% | 891.7hPa | 2.7V | 07:21:41 | 03:04:35 | 00:00:00 | |
| DL1XH-west | 2026-09-02 06:36:01 | 52.74973 | 8.97998 | 70° | 47km/h | 1159m | -3.6m/s | 9°C | 71.8% | 891.2hPa | 2.7V | 07:21:41 | 03:04:34 | 00:00:00 | |
| DL1XH-west | 2026-09-02 06:35:59 | 52.74965 | 8.97961 | 69° | 47km/h | 1166m | -3.6m/s | 8.9°C | 71.7% | 890.5hPa | 2.7V | 07:21:41 | 03:04:32 | 00:00:00 | |
| DL1XH-west | 2026-09-02 06:35:58 | 52.74961 | 8.97942 | 68° | 47km/h | 1170m | -3.5m/s | 8.9°C | 71.4% | 890hPa | 2.8V | 07:21:41 | 03:04:31 | 00:00:00 | |
| BIOWL1-15 | 2026-09-02 06:35:57 | 52.74951 | 8.97905 | 67° | 47km/h | 1177m | -3.6m/s | 8.8°C | 71.5% | 889.3hPa | 2.8V | 07:21:41 | 03:04:29 | 00:00:00 | |
| DL1XH-west | 2026-09-02 06:35:57 | 52.74956 | 8.97924 | 68° | 47km/h | 1173m | -3.7m/s | 8.9°C | 71.5% | 889.7hPa | 2.7V | 07:21:41 | 03:04:30 | 00:00:00 | |
| DL1XH-west | 2026-09-02 06:35:55 | 52.74947 | 8.97887 | 67° | 47km/h | 1180m | -3.7m/s | 8.8°C | 71.5% | 888.9hPa | 2.7V | 07:21:41 | 03:04:28 | 00:00:00 | |
| DB0DAN | 2026-09-02 06:35:55 | 52.74947 | 8.97887 | 67° | 46km/h | 1180m | -3.7m/s | 8.8°C | 66.8% | 888.93hPa | 2.7V | 00:00:00 | 00:00:00 | 00:00:00 | |
| DL1XH-west | 2026-09-02 06:35:54 | 52.74942 | 8.97868 | 67° | 47km/h | 1184m | -3.7m/s | 8.8°C | 71.4% | 888.5hPa | 2.7V | 07:21:41 | 03:04:27 | 00:00:00 | |
| DL1XH-west | 2026-09-02 06:35:53 | 52.74937 | 8.97850 | 66° | 47km/h | 1188m | -3.7m/s | 8.8°C | 71.2% | 888.2hPa | 2.7V | 07:22:32 | 03:04:26 | 00:00:00 | |
| DL1XH-west | 2026-09-02 06:35:52 | 52.74932 | 8.97832 | 66° | 47km/h | 1191m | -3.6m/s | 8.8°C | 69% | 887.8hPa | 2.7V | 07:22:32 | 03:04:25 | 00:00:00 | |
| BIOWL1-15 | 2026-09-02 06:35:51 | 52.74927 | 8.97813 | 67° | 47km/h | 1195m | -3.5m/s | 8.8°C | 68.5% | 887.3hPa | 2.8V | 07:22:32 | 03:04:24 | 00:00:00 | |
| DD8BA-10 | 2026-09-02 06:35:51 | 52.74927 | 8.97813 | 67° | 47km/h | 1195m | -3.5m/s | 8.8°C | 64.3% | 887.3hPa | 2.7V | 07:21:00 | 00:00:00 | 00:00:00 | |
| DL1XH1-15 | 2026-09-02 06:35:50 | 52.74918 | 8.97776 | 68° | 47km/h | 1202m | -3.7m/s | 8.9°C | 62.2% | 886.4hPa | 2.7V | 07:21:46 | 03:04:22 | 00:00:00 | |
| DL1XH-west | 2026-09-02 06:35:50 | 52.74923 | 8.97795 | 68° | 49km/h | 1198m | -3.6m/s | 8.9°C | 68.1% | 886.9hPa | 2.7V | 07:22:32 | 03:04:23 | 00:00:00 | |
| BIOWL1-15 | 2026-09-02 06:35:49 | 52.74918 | 8.97776 | 69° | 47km/h | 1202m | -3.7m/s | 8.9°C | 66.7% | 886.4hPa | 2.7V | 07:22:32 | 03:04:22 | 00:00:00 | |
| BIOWL1-15 | 2026-09-02 06:35:48 | 52.74914 | 8.97757 | 70° | 49km/h | 1206m | -3.7m/s | 8.9°C | 66.6% | 886.3hPa | 2.7V | 07:22:32 | 03:04:21 | 00:00:00 | |
| DL1XH-west | 2026-09-02 06:35:47 | 52.74909 | 8.97738 | 70° | 47km/h | 1209m | -3.8m/s | 8.9°C | 66.7% | 885.8hPa | 2.7V | 07:22:32 | 03:04:20 | 00:00:00 | |
| BIOWL1-15 | 2026-09-02 06:35:46 | 52.74896 | 8.97681 | 68° | 49km/h | 1220m | -3.5m/s | 8.8°C | 67.1% | 884.7hPa | 2.8V | 07:22:32 | 03:04:17 | 00:00:00 | |
| DL1XH-west | 2026-09-02 06:35:45 | 52.74901 | 8.97700 | 68° | 49km/h | 1216m | -3.4m/s | 8.9°C | 67% | 885.1hPa | 2.7V | 07:22:32 | 03:04:18 | 00:00:00 | |
| DL1XH-west | 2026-09-02 06:35:43 | 52.74891 | 8.97662 | 68° | 49km/h | 1223m | -3.6m/s | 8.8°C | 67.3% | 884.3hPa | 2.8V | 07:22:32 | 03:04:16 | 00:00:00 | |
| BIOWL1-15 | 2026-09-02 06:35:43 | 52.74882 | 8.97624 | 69° | 49km/h | 1231m | -3.7m/s | 8.7°C | 67.4% | 883.5hPa | 2.7V | 07:22:32 | 03:04:14 | 00:00:00 | |
| DL1XH-west | 2026-09-02 06:35:42 | 52.74887 | 8.97643 | 69° | 49km/h | 1227m | -3.7m/s | 8.8°C | 67.4% | 883.9hPa | 2.7V | 07:22:32 | 03:04:15 | 00:00:00 | |
| DD8BA-10 | 2026-09-02 06:35:42 | 52.74887 | 8.97643 | 69° | 49km/h | 1227m | -3.7m/s | 8.7°C | 62.3% | 883.9hPa | 2.7V | 00:00:00 | 00:00:00 | 00:00:00 | |
| BIOWL7-15 | 2026-09-02 06:35:41 | 52.74887 | 8.97643 | 70° | 49km/h | 1227m | -3.7m/s | 8.8°C | 61.5% | 883.9hPa | 2.7V | 07:22:00 | 00:00:00 | 00:00:00 | |
| DB0DAN | 2026-09-02 06:35:40 | 52.74878 | 8.97605 | 70° | 46km/h | 1234m | -3.5m/s | 8.7°C | 62.2% | 883.03hPa | 2.7V | 00:00:00 | 00:00:00 | 00:00:00 | |
| DL1XH-west | 2026-09-02 06:35:40 | 52.74878 | 8.97605 | 70° | 49km/h | 1234m | -3.5m/s | 8.7°C | 68% | 883hPa | 2.7V | 07:22:32 | 03:04:13 | 00:00:00 | |
| BIOWL1-15 | 2026-09-02 06:35:39 | 52.74874 | 8.97586 | 71° | 49km/h | 1238m | -3.5m/s | 8.7°C | 68.2% | 882.8hPa | 2.8V | 07:22:32 | 03:04:12 | 00:00:00 | |
| DD8BA-10 | 2026-09-02 06:35:39 | 52.74874 | 8.97586 | 71° | 49km/h | 1238m | -3.4m/s | 8.6°C | 63.2% | 882.7hPa | 2.7V | 00:00:00 | 00:00:00 | 00:00:00 | |
| BIOWL9-15 | 2026-09-02 06:35:38 | 52.74870 | 8.97567 | 72° | 47km/h | 1241m | -3.9m/s | 8.6°C | 62.2% | 882.3hPa | 2.7V | 00:00:00 | 00:00:00 | 00:00:00 | |
| DL1XH1-15 | 2026-09-02 06:35:38 | 52.74858 | 8.97509 | 69° | 49km/h | 1253m | -3.7m/s | 8.5°C | 63.9% | 881.1hPa | 2.7V | 07:22:00 | 03:04:08 | 00:00:00 | |
| DL1XH-west | 2026-09-02 06:35:38 | 52.74870 | 8.97567 | 72° | 47km/h | 1241m | -3.9m/s | 8.6°C | 68% | 882.3hPa | 2.7V | 07:22:32 | 03:04:11 | 00:00:00 | |
| DL1XH-west | 2026-09-02 06:35:37 | 52.74866 | 8.97547 | 72° | 47km/h | 1245m | -3.8m/s | 8.6°C | 67.9% | 882hPa | 2.7V | 07:22:32 | 03:04:10 | 00:00:00 | |
| DL1XH-west | 2026-09-02 06:35:35 | 52.74858 | 8.97509 | 70° | 49km/h | 1253m | -3.7m/s | 8.5°C | 68.3% | 881.2hPa | 2.7V | 07:22:32 | 03:04:08 | 00:00:00 | |
| BIOWL1-15 | 2026-09-02 06:35:34 | 52.74854 | 8.97490 | 69° | 49km/h | 1256m | -3.8m/s | 8.5°C | 68% | 880.7hPa | 2.7V | 07:22:32 | 03:04:07 | 00:00:00 | |
| DD8BA-10 | 2026-09-02 06:35:33 | 52.74849 | 8.97470 | 70° | 49km/h | 1260m | -3.6m/s | 8.4°C | 63.9% | 880.4hPa | 2.7V | 00:00:00 | 00:00:00 | 00:00:00 | |
| DL1XH1-15 | 2026-09-02 06:35:32 | 52.74841 | 8.97431 | 70° | 49km/h | 1267m | -3.8m/s | 8.4°C | 64.4% | 879.5hPa | 2.7V | 07:22:04 | 03:04:04 | 00:00:00 | |
| DL1XH-west | 2026-09-02 06:35:32 | 52.74845 | 8.97451 | 70° | 49km/h | 1264m | -3.6m/s | 8.4°C | 68.1% | 880hPa | 2.7V | 07:22:32 | 03:04:05 | 00:00:00 | |
| DL1XH-west | 2026-09-02 06:35:31 | 52.74840 | 8.97431 | 71° | 49km/h | 1267m | -3.8m/s | 8.4°C | 68.3% | 879.5hPa | 2.7V | 07:22:32 | 03:04:04 | 00:00:00 | |
| BIOWL1-15 | 2026-09-02 06:35:29 | 52.74829 | 8.97373 | 73° | 47km/h | 1278m | -3.8m/s | 8.3°C | 68.9% | 878.5hPa | 2.7V | 07:22:32 | 03:04:01 | 00:00:00 | |
| DL1XH-west | 2026-09-02 06:35:29 | 52.74833 | 8.97392 | 73° | 49km/h | 1275m | -3.7m/s | 8.3°C | 68.6% | 878.9hPa | 2.7V | 07:22:32 | 03:04:02 | 00:00:00 | |
| DL1XH-west | 2026-09-02 06:35:27 | 52.74826 | 8.97353 | 74° | 47km/h | 1282m | -3.6m/s | 8.2°C | 68.9% | 878.1hPa | 2.7V | 07:22:32 | 03:04:00 | 00:00:00 | |
| DD8BA-10 | 2026-09-02 06:35:27 | 52.74825 | 8.97353 | 75° | 46km/h | 1282m | -3.5m/s | 8.2°C | 64.6% | 878.0hPa | 2.7V | 07:22:00 | 00:00:00 | 00:00:00 | |
| DL1XH1-15 | 2026-09-02 06:35:26 | 52.74814 | 8.97283 | 75° | 40km/h | 1297m | -3.7m/s | 8.1°C | 66.2% | 876.5hPa | 2.7V | 07:22:12 | 03:03:56 | 00:00:00 | |
| DB0DAN | 2026-09-02 06:35:25 | 52.74819 | 8.97317 | 76° | 42km/h | 1289m | -3.8m/s | 8.2°C | 65% | 877.25hPa | 2.7V | 00:00:00 | 00:00:00 | 00:00:00 | |
| DL1XH-west | 2026-09-02 06:35:25 | 52.74819 | 8.97317 | 76° | 44km/h | 1289m | -3.8m/s | 8.2°C | 70.3% | 877.2hPa | 2.7V | 07:22:32 | 03:03:58 | 00:00:00 | |
| DL1XH-west | 2026-09-02 06:35:23 | 52.74814 | 8.97283 | 75° | 40km/h | 1297m | -3.7m/s | 8.1°C | 70.9% | 876.5hPa | 2.7V | 07:22:32 | 03:03:56 | 00:00:00 | |
| BIOWL1-15 | 2026-09-02 06:35:21 | 52.74797 | 8.97193 | 73° | 37km/h | 1319m | -3.9m/s | 7.9°C | 72.6% | 874hPa | 2.7V | 07:22:32 | 03:03:50 | 00:00:00 | |
| DL1XH-west | 2026-09-02 06:35:21 | 52.74809 | 8.97252 | 72° | 38km/h | 1304m | -3.8m/s | 8°C | 72.4% | 875.8hPa | 2.7V | 07:22:32 | 03:03:54 | 00:00:00 | |
| DL1XH-west | 2026-09-02 06:35:20 | 52.74806 | 8.97237 | 72° | 37km/h | 1308m | -3.8m/s | 8°C | 72.6% | 875.3hPa | 2.7V | 07:22:32 | 03:03:53 | 00:00:00 | |
| DL1XH-west | 2026-09-02 06:35:18 | 52.74800 | 8.97208 | 72° | 37km/h | 1316m | -3.8m/s | 7.9°C | 72.7% | 874.5hPa | 2.7V | 07:22:32 | 03:03:51 | 00:00:00 | |
| DL1XH-west | 2026-09-02 06:35:16 | 52.74794 | 8.97178 | 73° | 37km/h | 1323m | -3.7m/s | 7.9°C | 72.6% | 873.7hPa | 2.7V | 07:22:32 | 03:03:49 | 00:00:00 | |
| DL1XH-west | 2026-09-02 06:35:14 | 52.74789 | 8.97148 | 73° | 37km/h | 1330m | -3.7m/s | 7.9°C | 71.4% | 872.9hPa | 2.7V | 07:22:32 | 03:03:47 | 00:00:00 | |
| DL1XH-west | 2026-09-02 06:35:13 | 52.74786 | 8.97133 | 72° | 38km/h | 1334m | -3.8m/s | 7.9°C | 70.2% | 872.5hPa | 2.7V | 07:22:32 | 03:03:46 | 00:00:00 | |
| BIOWL1-15 | 2026-09-02 06:35:12 | 52.74783 | 8.97119 | 72° | 37km/h | 1338m | -3.7m/s | 7.8°C | 70.2% | 872.2hPa | 2.7V | 07:22:32 | 03:03:45 | 00:00:00 | |
| DL1XH-west | 2026-09-02 06:35:11 | 52.74780 | 8.97104 | 73° | 38km/h | 1342m | -3.7m/s | 7.8°C | 70.2% | 871.8hPa | 2.7V | 07:22:32 | 03:03:44 | 00:00:00 | |
| DB0DAN | 2026-09-02 06:35:10 | 52.74777 | 8.97088 | 73° | 37km/h | 1345m | -3.9m/s | 7.8°C | 64.4% | 871.29hPa | 2.7V | 00:00:00 | 00:00:00 | 00:00:00 | |
| DJ2DS-15 | 2026-09-02 06:35:10 | 52.74777 | 8.97088 | 74° | 38km/h | 1345m | -3.8m/s | 7.7°C | 65.2% | 871.2hPa | 2.7V | 07:22:00 | 03:03:43 | 00:00:00 | |
| DL1XH1-15 | 2026-09-02 06:35:09 | 52.74769 | 8.97044 | 72° | 38km/h | 1357m | -3.8m/s | 7.8°C | 62.8% | 870.2hPa | 2.7V | 07:22:28 | 03:03:40 | 00:00:00 | |
| DL1XH-west | 2026-09-02 06:35:09 | 52.74775 | 8.97074 | 72° | 38km/h | 1349m | -3.9m/s | 7.8°C | 69.1% | 870.8hPa | 2.7V | 07:22:32 | 03:03:42 | 00:00:00 | |
| DL1XH-west | 2026-09-02 06:35:08 | 52.74772 | 8.97059 | 73° | 38km/h | 1353m | -3.7m/s | 7.8°C | 68% | 870.6hPa | 2.7V | 07:22:32 | 03:03:41 | 00:00:00 | |
| DL1XH-west | 2026-09-02 06:35:06 | 52.74766 | 8.97028 | 73° | 38km/h | 1360m | -3.7m/s | 7.8°C | 65.7% | 869.6hPa | 2.7V | 07:22:32 | 03:03:39 | 00:00:00 | |
| DL1XH-west | 2026-09-02 06:35:05 | 52.74763 | 8.97013 | 74° | 38km/h | 1364m | -3.9m/s | 7.8°C | 65.5% | 869.2hPa | 2.7V | 07:22:32 | 03:03:38 | 00:00:00 | |
| BIOWL1-15 | 2026-09-02 06:35:04 | 52.74761 | 8.96998 | 74° | 38km/h | 1368m | -3.8m/s | 7.7°C | 65.9% | 868.9hPa | 2.7V | 07:22:32 | 03:03:37 | 00:00:00 | |
| DL1XH-west | 2026-09-02 06:35:03 | 52.74758 | 8.96983 | 75° | 38km/h | 1372m | -3.8m/s | 7.7°C | 66.5% | 868.6hPa | 2.7V | 07:22:32 | 03:03:36 | 00:00:00 | |
| BIOWL1-15 | 2026-09-02 06:35:02 | 52.74753 | 8.96952 | 75° | 38km/h | 1380m | -3.9m/s | 7.6°C | 67% | 867.7hPa | 2.7V | 07:23:23 | 03:03:34 | 00:00:00 | |
| DL1XH-west | 2026-09-02 06:35:02 | 52.74755 | 8.96967 | 75° | 38km/h | 1376m | -3.9m/s | 7.7°C | 66.8% | 868.1hPa | 2.7V | 07:23:23 | 03:03:35 | 00:00:00 | |
| DL1XH-west | 2026-09-02 06:35:00 | 52.74750 | 8.96937 | 74° | 37km/h | 1383m | -3.9m/s | 7.6°C | 66.8% | 867.3hPa | 2.7V | 07:23:23 | 03:03:33 | 00:00:00 | |
| DL1XH-west | 2026-09-02 06:34:59 | 52.74748 | 8.96923 | 71° | 37km/h | 1387m | -3.9m/s | 7.6°C | 66.8% | 867hPa | 2.7V | 07:23:23 | 03:03:32 | 00:00:00 | |
| DL1XH1-15 | 2026-09-02 06:34:58 | 52.74733 | 8.96869 | 60° | 37km/h | 1402m | -3.6m/s | 7.4°C | 64% | 865.2hPa | 2.7V | 07:22:40 | 03:03:28 | 00:00:00 | |
| BIOWL1-15 | 2026-09-02 06:34:58 | 52.74744 | 8.96909 | 69° | 35km/h | 1391m | -3.7m/s | 7.5°C | 67.1% | 866.5hPa | 2.7V | 07:23:23 | 03:03:31 | 00:00:00 | |
| BIOWL1-15 | 2026-09-02 06:34:57 | 52.74741 | 8.96895 | 66° | 35km/h | 1395m | -3.9m/s | 7.5°C | 67.4% | 866.1hPa | 2.7V | 07:23:23 | 03:03:30 | 00:00:00 | |
| BIOWL1-15 | 2026-09-02 06:34:56 | 52.74737 | 8.96882 | 63° | 35km/h | 1398m | -3.9m/s | 7.5°C | 67.9% | 865.7hPa | 2.7V | 07:23:23 | 03:03:29 | 00:00:00 | |
| DB0DAN | 2026-09-02 06:34:55 | 52.74733 | 8.96869 | 60° | 35km/h | 1402m | -3.6m/s | 7.4°C | 63.2% | 865.25hPa | 2.7V | 00:00:00 | 00:00:00 | 00:00:00 | |
| DL1XH-west | 2026-09-02 06:34:55 | 52.74733 | 8.96869 | 60° | 37km/h | 1402m | -3.6m/s | 7.4°C | 68.2% | 865.2hPa | 2.7V | 07:23:23 | 03:03:28 | 00:00:00 | |
| DL1XH-west | 2026-09-02 06:34:54 | 52.74728 | 8.96856 | 59° | 38km/h | 1406m | -3.9m/s | 7.4°C | 68.2% | 864.9hPa | 2.7V | 07:23:23 | 03:03:27 | 00:00:00 | |
| BIOWL1-15 | 2026-09-02 06:34:53 | 52.74723 | 8.96842 | 59° | 38km/h | 1410m | -3.9m/s | 7.4°C | 68.5% | 864.6hPa | 2.7V | 07:23:23 | 03:03:26 | 00:00:00 | |
| DL1XH-west | 2026-09-02 06:34:52 | 52.74718 | 8.96828 | 59° | 38km/h | 1414m | -3.9m/s | 7.3°C | 68.9% | 864.1hPa | 2.7V | 07:23:23 | 03:03:25 | 00:00:00 | |
| BIOWL1-15 | 2026-09-02 06:34:50 | 52.74707 | 8.96800 | 58° | 40km/h | 1421m | -3.7m/s | 7.3°C | 69.1% | 863.3hPa | 2.7V | 07:23:23 | 03:03:23 | 00:00:00 | |
| BIOWL1-15 | 2026-09-02 06:34:49 | 52.74702 | 8.96786 | 58° | 42km/h | 1425m | -3.7m/s | 7.2°C | 69.3% | 863.1hPa | 2.7V | 07:23:23 | 03:03:22 | 00:00:00 | |
| DL1XH-west | 2026-09-02 06:34:48 | 52.74696 | 8.96771 | 58° | 44km/h | 1429m | -3.8m/s | 7.2°C | 69.5% | 862.5hPa | 2.7V | 07:23:23 | 03:03:21 | 00:00:00 | |
| BIOWL1-15 | 2026-09-02 06:34:47 | 52.74690 | 8.96755 | 58° | 44km/h | 1433m | -3.8m/s | 7.1°C | 69.8% | 862.3hPa | 2.7V | 07:23:23 | 03:03:20 | 00:00:00 | |
| DJ2DS-15 | 2026-09-02 06:34:46 | 52.74678 | 8.96724 | 58° | 46km/h | 1440m | -3.8m/s | 7.1°C | 64.3% | 861.4hPa | 2.7V | 00:00:00 | 00:00:00 | 00:00:00 | |
| DL1XH1-15 | 2026-09-02 06:34:46 | 52.74666 | 8.96690 | 62° | 47km/h | 1448m | -4m/s | 7°C | 65.6% | 860.6hPa | 2.7V | 07:22:52 | 03:03:16 | 00:00:00 | |
| DL1XH-west | 2026-09-02 06:34:46 | 52.74684 | 8.96740 | 58° | 46km/h | 1437m | -4m/s | 7.1°C | 69.9% | 861.7hPa | 2.7V | 07:23:23 | 03:03:19 | 00:00:00 | |
| BIOWL1-15 | 2026-09-02 06:34:45 | 52.74678 | 8.96724 | 58° | 46km/h | 1440m | -3.8m/s | 7.1°C | 70% | 861.4hPa | 2.7V | 07:23:23 | 03:03:18 | 00:00:00 | |
| DL1XH-west | 2026-09-02 06:34:44 | 52.74672 | 8.96707 | 60° | 47km/h | 1444m | -3.9m/s | 7°C | 70% | 861hPa | 2.7V | 07:23:23 | 03:03:17 | 00:00:00 | |
| BIOWL1-15 | 2026-09-02 06:34:43 | 52.74661 | 8.96671 | 64° | 49km/h | 1452m | -3.6m/s | 7°C | 69.9% | 860.2hPa | 2.7V | 07:23:23 | 03:03:15 | 00:00:00 | |
| DL1XH-west | 2026-09-02 06:34:43 | 52.74666 | 8.96690 | 62° | 47km/h | 1448m | -4m/s | 7°C | 69.9% | 860.6hPa | 2.7V | 07:23:23 | 03:03:16 | 00:00:00 | |
| DL1XH-west | 2026-09-02 06:34:41 | 52.74656 | 8.96653 | 67° | 49km/h | 1456m | -3.7m/s | 7°C | 69.7% | 859.8hPa | 2.7V | 07:23:23 | 03:03:14 | 00:00:00 | |
| DB0DAN | 2026-09-02 06:34:40 | 52.74651 | 8.96633 | 70° | 47km/h | 1459m | -3.9m/s | 7°C | 61.4% | 859.41hPa | 2.7V | 00:00:00 | 00:00:00 | 00:00:00 | |
| DL1XH-west | 2026-09-02 06:34:40 | 52.74651 | 8.96633 | 70° | 49km/h | 1459m | -3.9m/s | 7°C | 66.5% | 859.4hPa | 2.7V | 07:23:23 | 03:03:13 | 00:00:00 | |
| DL1XH-west | 2026-09-02 06:34:38 | 52.74643 | 8.96595 | 72° | 47km/h | 1467m | -3.6m/s | 7°C | 65.3% | 858.5hPa | 2.7V | 07:23:23 | 03:03:11 | 00:00:00 | |
| DL1XH-west | 2026-09-02 06:34:37 | 52.74639 | 8.96576 | 74° | 47km/h | 1471m | -3.7m/s | 7°C | 64.8% | 858.2hPa | 2.7V | 07:23:23 | 03:03:10 | 00:00:00 | |
| DL1XH-west | 2026-09-02 06:34:35 | 52.74633 | 8.96540 | 76° | 42km/h | 1478m | -3.6m/s | 7°C | 65.5% | 857.5hPa | 2.7V | 07:23:23 | 03:03:08 | 00:00:00 | |
| BIOWL1-15 | 2026-09-02 06:34:35 | 52.74628 | 8.96506 | 76° | 40km/h | 1485m | -3.8m/s | 7°C | 67.8% | 856.7hPa | 2.7V | 07:23:23 | 03:03:06 | 00:00:00 | |
| DL1XH-west | 2026-09-02 06:34:34 | 52.74631 | 8.96523 | 76° | 42km/h | 1482m | -3.7m/s | 7°C | 66.5% | 857.2hPa | 2.7V | 07:23:23 | 03:03:07 | 00:00:00 | |
| DL1XH-west | 2026-09-02 06:34:32 | 52.74626 | 8.96489 | 76° | 40km/h | 1489m | -3.7m/s | 7°C | 68.3% | 856.2hPa | 2.7V | 07:23:23 | 03:03:05 | 00:00:00 | |
| DL1XH-west | 2026-09-02 06:34:31 | 52.74624 | 8.96473 | 77° | 40km/h | 1493m | -3.9m/s | 7°C | 68.4% | 855.9hPa | 2.7V | 07:23:23 | 03:03:04 | 00:00:00 | |
| DL1XH-west | 2026-09-02 06:34:30 | 52.74621 | 8.96457 | 76° | 40km/h | 1497m | -3.7m/s | 7°C | 68.7% | 855.5hPa | 2.7V | 07:23:23 | 03:03:03 | 00:00:00 | |
| BIOWL1-15 | 2026-09-02 06:34:29 | 52.74619 | 8.96441 | 76° | 40km/h | 1501m | -3.8m/s | 6.9°C | 68.9% | 855hPa | 2.7V | 07:23:23 | 03:03:02 | 00:00:00 | |
| BIOWL1-15 | 2026-09-02 06:34:28 | 52.74616 | 8.96425 | 75° | 40km/h | 1504m | -3.7m/s | 6.9°C | 69.2% | 854.8hPa | 2.7V | 07:23:23 | 03:03:01 | 00:00:00 | |
| BIOWL1-15 | 2026-09-02 06:34:26 | 52.74608 | 8.96377 | 75° | 40km/h | 1515m | -3.7m/s | 6.8°C | 70.8% | 853.6hPa | 2.7V | 07:23:23 | 03:02:58 | 00:00:00 | |
| DL1XH-west | 2026-09-02 06:34:26 | 52.74611 | 8.96393 | 75° | 40km/h | 1512m | -3.6m/s | 6.8°C | 69.6% | 854hPa | 2.7V | 07:23:23 | 03:02:59 | 00:00:00 | |
| DB0DAN | 2026-09-02 06:34:25 | 52.74608 | 8.96377 | 75° | 38km/h | 1515m | -3.7m/s | 6.8°C | 65.8% | 853.58hPa | 2.7V | 00:00:00 | 00:00:00 | 00:00:00 | |
| DL1XH-west | 2026-09-02 06:34:24 | 52.74606 | 8.96360 | 74° | 40km/h | 1519m | -3.8m/s | 6.8°C | 71.5% | 853.3hPa | 2.7V | 07:23:23 | 03:02:57 | 00:00:00 | |
| DL1XH-west | 2026-09-02 06:34:23 | 52.74603 | 8.96344 | 74° | 40km/h | 1523m | -3.7m/s | 6.8°C | 72.1% | 852.9hPa | 2.7V | 07:23:23 | 03:02:56 | 00:00:00 | |
| BIOWL1-15 | 2026-09-02 06:34:23 | 52.74597 | 8.96312 | 74° | 40km/h | 1530m | -3.7m/s | 6.7°C | 72.7% | 852hPa | 2.7V | 07:23:23 | 03:02:54 | 00:00:00 | |
| DD8BA-10 | 2026-09-02 06:34:23 | 52.74603 | 8.96344 | 75° | 40km/h | 1523m | -3.6m/s | 6.7°C | 68.1% | 852.8hPa | 2.7V | 00:00:00 | 00:00:00 | 00:00:00 | |
| DL1XH1-15 | 2026-09-02 06:34:22 | 52.74597 | 8.96312 | 74° | 40km/h | 1530m | -3.6m/s | 6.7°C | 68.6% | 852hPa | 2.7V | 07:23:14 | 03:02:54 | 00:00:00 | |
| DL1XH-west | 2026-09-02 06:34:22 | 52.74600 | 8.96328 | 74° | 40km/h | 1526m | -3.6m/s | 6.8°C | 72.5% | 852.4hPa | 2.7V | 07:23:23 | 03:02:55 | 00:00:00 | |
| DL1XH-west | 2026-09-02 06:34:20 | 52.74594 | 8.96296 | 74° | 40km/h | 1534m | -3.7m/s | 6.7°C | 72.8% | 851.8hPa | 2.7V | 07:23:23 | 03:02:53 | 00:00:00 | |
| BIOWL1-15 | 2026-09-02 06:34:19 | 52.74592 | 8.96279 | 74° | 40km/h | 1537m | -3.4m/s | 6.7°C | 73.3% | 851.4hPa | 2.7V | 07:23:23 | 03:02:52 | 00:00:00 | |
| BIOWL1-15 | 2026-09-02 06:34:17 | 52.74577 | 8.96199 | 73° | 40km/h | 1555m | -3.6m/s | 6.6°C | 75.1% | 849.4hPa | 2.7V | 07:23:23 | 03:02:47 | 00:00:00 | |
| DL1XH-west | 2026-09-02 06:34:17 | 52.74586 | 8.96247 | 73° | 40km/h | 1544m | -3.6m/s | 6.7°C | 74% | 850.6hPa | 2.7V | 07:23:23 | 03:02:50 | 00:00:00 | |
| DL1XH1-15 | 2026-09-02 06:34:16 | 52.74574 | 8.96183 | 73° | 40km/h | 1558m | -3.5m/s | 6.6°C | 71.2% | 849.1hPa | 2.7V | 07:23:22 | 03:02:46 | 00:00:00 | |
| DL1XH-west | 2026-09-02 06:34:16 | 52.74583 | 8.96231 | 73° | 40km/h | 1548m | -3.5m/s | 6.6°C | 74.5% | 850.2hPa | 2.7V | 07:23:23 | 03:02:49 | 00:00:00 | |
| DL1XH-west | 2026-09-02 06:34:15 | 52.74580 | 8.96215 | 73° | 40km/h | 1551m | -3.6m/s | 6.6°C | 75% | 849.9hPa | 2.7V | 07:23:23 | 03:02:48 | 00:00:00 | |
| DL1XH-west | 2026-09-02 06:34:13 | 52.74574 | 8.96183 | 74° | 40km/h | 1558m | -3.5m/s | 6.6°C | 75.3% | 849.1hPa | 2.7V | 07:23:23 | 03:02:46 | 00:00:00 | |
| DL1XH-west | 2026-09-02 06:34:11 | 52.74568 | 8.96151 | 71° | 40km/h | 1566m | -3.7m/s | 6.5°C | 75.5% | 848.3hPa | 2.7V | 07:24:14 | 03:02:44 | 00:00:00 | |
| DJ2DS-15 | 2026-09-02 06:34:10 | 52.74565 | 8.96135 | 69° | 38km/h | 1569m | -3.6m/s | 6.5°C | 70.5% | 847.9hPa | 2.7V | 00:00:00 | 00:00:00 | 00:00:00 | |
| DL1XH1-15 | 2026-09-02 06:34:10 | 52.74543 | 8.96060 | 61° | 40km/h | 1588m | -3.7m/s | 6.3°C | 75.3% | 846.1hPa | 2.7V | 07:23:30 | 03:02:38 | 00:00:00 | |
| DB0DAN | 2026-09-02 06:34:10 | 52.74565 | 8.96135 | 69° | 38km/h | 1569m | -3.6m/s | 6.5°C | 70.5% | 847.88hPa | 2.7V | 00:00:00 | 00:00:00 | 00:00:00 | |
| BIOWL1-15 | 2026-09-02 06:34:09 | 52.74552 | 8.96090 | 63° | 40km/h | 1580m | -3.6m/s | 6.4°C | 76.9% | 846.9hPa | 2.7V | 07:24:14 | 03:02:40 | 00:00:00 | |
| DL1XH-west | 2026-09-02 06:34:09 | 52.74561 | 8.96120 | 67° | 40km/h | 1573m | -3.6m/s | 6.5°C | 76.4% | 847.6hPa | 2.7V | 07:24:14 | 03:02:42 | 00:00:00 | |
| DL1XH-west | 2026-09-02 06:34:08 | 52.74557 | 8.96105 | 65° | 40km/h | 1577m | -3.8m/s | 6.4°C | 76.6% | 847.1hPa | 2.7V | 07:24:14 | 03:02:41 | 00:00:00 | |
| DL1XH-west | 2026-09-02 06:34:06 | 52.74548 | 8.96075 | 63° | 40km/h | 1584m | -3.7m/s | 6.4°C | 78.7% | 846.5hPa | 2.7V | 07:24:14 | 03:02:39 | 00:00:00 | |
| BIOWL1-15 | 2026-09-02 06:34:05 | 52.74529 | 8.96014 | 63° | 40km/h | 1599m | -3.7m/s | 6.2°C | 81.2% | 845hPa | 2.7V | 07:24:14 | 03:02:35 | 00:00:00 | |
| DJ2DS-15 | 2026-09-02 06:34:05 | 52.74543 | 8.96060 | 62° | 40km/h | 1588m | -3.7m/s | 6.3°C | 75.3% | 846.1hPa | 2.7V | 00:00:00 | 03:02:38 | 00:00:00 | |
| DL4XJ-10 | 2026-09-02 06:34:05 | 52.74543 | 8.96060 | 62° | 40km/h | 1588m | -3.7m/s | 7.7°C | 0% | 0hPa | 2.7V | 00:00:00 | 00:00:00 | 00:00:00 | |
| DL4BBY-15 | 2026-09-02 06:34:05 | 52.74543 | 8.96060 | 62° | 42km/h | 1588m | -3.7m/s | 7.7°C | 0% | 0hPa | 2.7V | 00:00:00 | 00:00:00 | 00:00:00 | |
| DL1XH1-15 | 2026-09-02 06:34:04 | 52.74533 | 8.96029 | 63° | 40km/h | 1595m | -3.7m/s | 6.3°C | 76.2% | 845.4hPa | 2.7V | 07:23:32 | 03:02:36 | 00:00:00 | |
| DL1XH-west | 2026-09-02 06:34:04 | 52.74538 | 8.96045 | 63° | 40km/h | 1591m | -3.7m/s | 6.3°C | 79.6% | 845.8hPa | 2.7V | 07:24:14 | 03:02:37 | 00:00:00 | |
| DL1XH-west | 2026-09-02 06:34:03 | 52.74534 | 8.96029 | 63° | 40km/h | 1595m | -3.7m/s | 6.3°C | 80.2% | 845.4hPa | 2.7V | 07:24:14 | 03:02:36 | 00:00:00 | |
| DL1XH-west | 2026-09-02 06:34:01 | 52.74524 | 8.95999 | 65° | 40km/h | 1602m | -3.6m/s | 6.2°C | 82% | 844.7hPa | 2.7V | 07:24:14 | 03:02:34 | 00:00:00 | |
| BIOWL1-15 | 2026-09-02 06:34:00 | 52.74516 | 8.95969 | 66° | 40km/h | 1609m | -3.6m/s | 6.1°C | 83.6% | 843.8hPa | 2.7V | 07:24:14 | 03:02:32 | 00:00:00 | |
| DL1XH-west | 2026-09-02 06:34:00 | 52.74520 | 8.95984 | 66° | 40km/h | 1606m | -3.5m/s | 6.2°C | 82.6% | 844.3hPa | 2.7V | 07:24:14 | 03:02:33 | 00:00:00 | |
| BUE01 | 2026-09-02 06:33:58 | 52.74512 | 8.95954 | 67° | 38km/h | 1613m | -3.6m/s | 6.1°C | 79.6% | 843.4hPa | 2.7V | 00:00:00 | 00:00:00 | 00:00:00 | |
| DM0DOS-11 | 2026-09-02 06:33:58 | 52.74508 | 8.95939 | 66° | 40km/h | 1617m | -3.5m/s | 6.1°C | 81.4% | 843.1hPa | 2.7V | 07:23:38 | 03:02:30 | 00:00:00 | |
| DL1XH-west | 2026-09-02 06:33:58 | 52.74512 | 8.95954 | 67° | 40km/h | 1613m | -3.6m/s | 6.1°C | 84.5% | 843.4hPa | 2.7V | 07:24:14 | 03:02:31 | 00:00:00 | |
| BIOWL1-15 | 2026-09-02 06:33:56 | 52.74504 | 8.95923 | 66° | 40km/h | 1620m | -3.5m/s | 6°C | 85.3% | 842.8hPa | 2.7V | 07:24:14 | 03:02:29 | 00:00:00 | |
| DB0DAN | 2026-09-02 06:33:55 | 52.74500 | 8.95908 | 66° | 38km/h | 1624m | -3.6m/s | 6°C | 80.5% | 842.38hPa | 2.7V | 00:00:00 | 00:00:00 | 00:00:00 | |
| DL1XH-west | 2026-09-02 06:33:55 | 52.74500 | 8.95908 | 66° | 40km/h | 1624m | -3.6m/s | 6°C | 85.3% | 842.4hPa | 2.7V | 07:24:14 | 03:02:28 | 00:00:00 | |
| BIOWL1-15 | 2026-09-02 06:33:54 | 52.74496 | 8.95893 | 66° | 40km/h | 1628m | -3.7m/s | 6°C | 85.9% | 842hPa | 2.7V | 07:24:14 | 03:02:27 | 00:00:00 | |
| DL1XH-west | 2026-09-02 06:33:53 | 52.74492 | 8.95878 | 64° | 40km/h | 1631m | -3.5m/s | 5.9°C | 86.3% | 841.4hPa | 2.7V | 07:24:14 | 03:02:26 | 00:00:00 | |
| BIOWL1-15 | 2026-09-02 06:33:52 | 52.74487 | 8.95863 | 63° | 40km/h | 1635m | -3.6m/s | 5.9°C | 86.3% | 841.2hPa | 2.7V | 07:24:14 | 03:02:25 | 00:00:00 | |
| DL1XH-west | 2026-09-02 06:33:51 | 52.74483 | 8.95849 | 63° | 40km/h | 1638m | -3.6m/s | 5.9°C | 86.4% | 840.8hPa | 2.7V | 07:24:14 | 03:02:24 | 00:00:00 | |
| BIOWL1-15 | 2026-09-02 06:33:50 | 52.74478 | 8.95834 | 62° | 40km/h | 1642m | -3.6m/s | 5.8°C | 86.7% | 840.6hPa | 2.7V | 07:24:14 | 03:02:23 | 00:00:00 | |
| DL1XH1-15 | 2026-09-02 06:33:48 | 52.74463 | 8.95789 | 60° | 42km/h | 1653m | -3.4m/s | 5.7°C | 83.9% | 839.4hPa | 2.7V | 07:23:48 | 03:02:20 | 00:00:00 | |
| BIOWL1-15 | 2026-09-02 06:33:48 | 52.74468 | 8.95804 | 61° | 42km/h | 1649m | -3.6m/s | 5.8°C | 86.9% | 839.8hPa | 2.7V | 07:24:14 | 03:02:21 | 00:00:00 | |
| DL1XH-west | 2026-09-02 06:33:46 | 52.74458 | 8.95773 | 59° | 44km/h | 1656m | -3.5m/s | 5.7°C | 87.1% | 839.1hPa | 2.7V | 07:24:14 | 03:02:19 | 00:00:00 | |
| DL1XH-west | 2026-09-02 06:33:45 | 52.74452 | 8.95758 | 58° | 44km/h | 1659m | -3.4m/s | 5.7°C | 87% | 838.8hPa | 2.7V | 07:24:14 | 03:02:18 | 00:00:00 | |
| DL1XH-west | 2026-09-02 06:33:44 | 52.74446 | 8.95742 | 59° | 46km/h | 1663m | -3.5m/s | 5.7°C | 87.2% | 838.4hPa | 2.7V | 07:24:14 | 03:02:17 | 00:00:00 | |
| BIOWL1-15 | 2026-09-02 06:33:43 | 52.74440 | 8.95725 | 58° | 46km/h | 1666m | -3.5m/s | 5.6°C | 87.5% | 838hPa | 2.7V | 07:24:14 | 03:02:16 | 00:00:00 | |
| DL1XH-west | 2026-09-02 06:33:42 | 52.74434 | 8.95709 | 58° | 46km/h | 1670m | -3.5m/s | 5.6°C | 87.5% | 837.6hPa | 2.7V | 07:24:14 | 03:02:15 | 00:00:00 | |
| BIOWL1-15 | 2026-09-02 06:33:41 | 52.74408 | 8.95644 | 57° | 47km/h | 1684m | -3.5m/s | 5.5°C | 88.5% | 836.2hPa | 2.7V | 07:24:14 | 03:02:11 | 00:00:00 | |
| DB0DAN | 2026-09-02 06:33:40 | 52.74421 | 8.95676 | 57° | 44km/h | 1677m | -3.5m/s | 5.5°C | 83.4% | 836.84hPa | 2.6V | 00:00:00 | 00:00:00 | 00:00:00 | |
| DL1XH-west | 2026-09-02 06:33:40 | 52.74421 | 8.95676 | 57° | 47km/h | 1677m | -3.5m/s | 5.5°C | 87.9% | 836.8hPa | 2.6V | 07:24:14 | 03:02:13 | 00:00:00 | |
| DL1XH-west | 2026-09-02 06:33:39 | 52.74414 | 8.95660 | 57° | 47km/h | 1680m | -3.6m/s | 5.5°C | 88.1% | 836.5hPa | 2.7V | 07:24:14 | 03:02:12 | 00:00:00 | |
| DL1XH-west | 2026-09-02 06:33:37 | 52.74402 | 8.95627 | 57° | 47km/h | 1687m | -3.5m/s | 5.5°C | 88.5% | 835.8hPa | 2.7V | 07:24:14 | 03:02:10 | 00:00:00 | |
| DL1XH-west | 2026-09-02 06:33:36 | 52.74395 | 8.95611 | 57° | 47km/h | 1690m | -3.3m/s | 5.4°C | 88.5% | 835.4hPa | 2.7V | 07:24:14 | 03:02:09 | 00:00:00 | |
| DL1XH-west | 2026-09-02 06:33:35 | 52.74388 | 8.95594 | 56° | 47km/h | 1694m | -3.5m/s | 5.4°C | 88.6% | 835.1hPa | 2.7V | 07:24:14 | 03:02:08 | 00:00:00 | |
| BIOWL1-15 | 2026-09-02 06:33:34 | 52.74381 | 8.95577 | 57° | 47km/h | 1697m | -3.9m/s | 5.4°C | 89.1% | 834.7hPa | 2.7V | 07:24:14 | 03:02:07 | 00:00:00 | |
| DL1XH-west | 2026-09-02 06:33:33 | 52.74375 | 8.95561 | 57° | 47km/h | 1701m | -3.6m/s | 5.4°C | 89.6% | 834.4hPa | 2.7V | 07:24:14 | 03:02:06 | 00:00:00 | |
| DL1XH-west | 2026-09-02 06:33:32 | 52.74368 | 8.95544 | 57° | 47km/h | 1705m | -3.5m/s | 5.4°C | 91.1% | 833.9hPa | 2.7V | 07:24:14 | 03:02:05 | 00:00:00 | |
| DL1XH1-15 | 2026-09-02 06:33:30 | 52.74349 | 8.95495 | 56° | 46km/h | 1715m | -3.4m/s | 5.3°C | 87.9% | 832.8hPa | 2.6V | 07:24:06 | 03:02:02 | 00:00:00 | |
| DL1XH-west | 2026-09-02 06:33:30 | 52.74355 | 8.95511 | 57° | 47km/h | 1712m | -3.3m/s | 5.3°C | 90.8% | 833.2hPa | 2.7V | 07:24:14 | 03:02:03 | 00:00:00 | |
| DL1XH-west | 2026-09-02 06:33:29 | 52.74349 | 8.95495 | 57° | 46km/h | 1715m | -3.4m/s | 5.3°C | 91.1% | 832.8hPa | 2.6V | 07:24:14 | 03:02:02 | 00:00:00 | |
| DM0DOS-11 | 2026-09-02 06:33:28 | 52.74336 | 8.95463 | 56° | 46km/h | 1722m | -3.6m/s | 5.3°C | 87.9% | 832hPa | 2.7V | 07:24:08 | 03:02:00 | 00:00:00 | |
| BIOWL1-15 | 2026-09-02 06:33:27 | 52.74324 | 8.95432 | 58° | 44km/h | 1729m | -3.5m/s | 5.2°C | 91.3% | 831.4hPa | 2.7V | 07:24:14 | 03:01:58 | 00:00:00 | |
| DL1XH-west | 2026-09-02 06:33:27 | 52.74336 | 8.95463 | 57° | 46km/h | 1722m | -3.6m/s | 5.3°C | 91.4% | 832hPa | 2.7V | 07:24:14 | 03:02:00 | 00:00:00 | |
| DL1XH-west | 2026-09-02 06:33:26 | 52.74330 | 8.95448 | 57° | 44km/h | 1725m | -3.4m/s | 5.3°C | 91.5% | 831.8hPa | 2.7V | 07:24:14 | 03:01:59 | 00:00:00 | |
| DB0DAN | 2026-09-02 06:33:25 | 52.74324 | 8.95432 | 58° | 42km/h | 1729m | -3.5m/s | 5.2°C | 86.1% | 831.44hPa | 2.7V | 00:00:00 | 00:00:00 | 00:00:00 | |
| BIOWL1-15 | 2026-09-02 06:33:24 | 52.74318 | 8.95417 | 59° | 42km/h | 1732m | -3.7m/s | 5.2°C | 91.3% | 831.1hPa | 2.7V | 07:24:14 | 03:01:57 | 00:00:00 | |
| DL1XH-west | 2026-09-02 06:33:23 | 52.74312 | 8.95402 | 59° | 42km/h | 1736m | -3.6m/s | 5.2°C | 91.2% | 830.8hPa | 2.7V | 07:24:14 | 03:01:56 | 00:00:00 | |
| BIOWL1-15 | 2026-09-02 06:33:22 | 52.74307 | 8.95387 | 58° | 42km/h | 1739m | -3.5m/s | 5.2°C | 91.2% | 830.4hPa | 2.7V | 07:24:14 | 03:01:55 | 00:00:00 | |
| DL1XH-west | 2026-09-02 06:33:21 | 52.74301 | 8.95372 | 58° | 42km/h | 1743m | -3.6m/s | 5.2°C | 91.2% | 830hPa | 2.7V | 07:24:14 | 03:01:54 | 00:00:00 | |
| BIOWL1-15 | 2026-09-02 06:33:20 | 52.74295 | 8.95356 | 58° | 42km/h | 1746m | -3.6m/s | 5.1°C | 91% | 829.6hPa | 2.7V | 07:25:05 | 03:01:53 | 00:00:00 | |
| DL1XH-west | 2026-09-02 06:33:19 | 52.74290 | 8.95341 | 58° | 44km/h | 1750m | -3.6m/s | 5.1°C | 90.7% | 829.3hPa | 2.7V | 07:25:05 | 03:01:52 | 00:00:00 | |
| DL1XH1-15 | 2026-09-02 06:33:18 | 52.74277 | 8.95311 | 56° | 46km/h | 1757m | -3.5m/s | 5.1°C | 88% | 828.7hPa | 2.7V | 07:24:18 | 03:01:50 | 00:00:00 | |
| BIOWL1-15 | 2026-09-02 06:33:18 | 52.74284 | 8.95326 | 57° | 44km/h | 1753m | -3.5m/s | 5.1°C | 90.9% | 828.9hPa | 2.7V | 07:25:05 | 03:01:51 | 00:00:00 | |
| DL1XH-west | 2026-09-02 06:33:17 | 52.74277 | 8.95311 | 56° | 46km/h | 1757m | -3.5m/s | 5.1°C | 91.1% | 828.7hPa | 2.7V | 07:25:05 | 03:01:50 | 00:00:00 | |
| BIOWL1-15 | 2026-09-02 06:33:16 | 52.74271 | 8.95295 | 56° | 46km/h | 1760m | -3.6m/s | 5.1°C | 90.9% | 828.3hPa | 2.7V | 07:25:05 | 03:01:49 | 00:00:00 | |
| DL1XH-west | 2026-09-02 06:33:15 | 52.74264 | 8.95278 | 56° | 47km/h | 1764m | -3.5m/s | 5°C | 91.1% | 827.9hPa | 2.7V | 07:25:05 | 03:01:48 | 00:00:00 | |
| DL1XH-west | 2026-09-02 06:33:14 | 52.74257 | 8.95261 | 57° | 49km/h | 1767m | -3.6m/s | 5°C | 91.3% | 827.5hPa | 2.7V | 07:25:05 | 03:01:47 | 00:00:00 | |
| BIOWL1-15 | 2026-09-02 06:33:12 | 52.74244 | 8.95225 | 59° | 53km/h | 1773m | -3.3m/s | 5°C | 91.6% | 826.8hPa | 2.7V | 07:25:05 | 03:01:45 | 00:00:00 | |
| GOEST3-10 | 2026-09-02 06:33:12 | 52.74243 | 8.95225 | 59° | 53km/h | 1773m | -3.2m/s | 4.9°C | 88.4% | 826.7hPa | 2.7V | 00:00:00 | 00:00:00 | 00:00:00 | |
| DM0DOS-11 | 2026-09-02 06:33:10 | 52.74223 | 8.95166 | 61° | 55km/h | 1783m | -3.5m/s | 4.9°C | 88.5% | 825.9hPa | 2.7V | 07:24:26 | 03:01:42 | 00:00:00 | |
| DB0DAN | 2026-09-02 06:33:10 | 52.74230 | 8.95186 | 61° | 53km/h | 1780m | -3.5m/s | 4.9°C | 87.2% | 826.15hPa | 2.7V | 00:00:00 | 00:00:00 | 00:00:00 | |
| DL1XH-west | 2026-09-02 06:33:10 | 52.74230 | 8.95186 | 61° | 55km/h | 1780m | -3.5m/s | 4.9°C | 91.7% | 826.1hPa | 2.7V | 07:25:05 | 03:01:43 | 00:00:00 | |
| DL1XH-west | 2026-09-02 06:33:09 | 52.74223 | 8.95166 | 61° | 55km/h | 1783m | -3.5m/s | 4.9°C | 91.5% | 825.9hPa | 2.7V | 07:25:05 | 03:01:42 | 00:00:00 | |
| BIOWL1-15 | 2026-09-02 06:33:08 | 52.74188 | 8.95068 | 58° | 53km/h | 1799m | -3.4m/s | 4.7°C | 92.1% | 824hPa | 2.7V | 07:25:05 | 03:01:37 | 00:00:00 | |
| DL1XH-west | 2026-09-02 06:33:07 | 52.74209 | 8.95126 | 60° | 55km/h | 1790m | -3.3m/s | 4.8°C | 91.2% | 825hPa | 2.7V | 07:25:05 | 03:01:40 | 00:00:00 | |
| DL1XH1-15 | 2026-09-02 06:33:06 | 52.74195 | 8.95087 | 58° | 55km/h | 1796m | -3.5m/s | 4.8°C | 89.1% | 824.4hPa | 2.7V | 07:24:30 | 03:01:38 | 00:00:00 | |
| DL1XH-west | 2026-09-02 06:33:05 | 52.74195 | 8.95087 | 59° | 55km/h | 1796m | -3.5m/s | 4.8°C | 91.7% | 824.4hPa | 2.7V | 07:25:05 | 03:01:38 | 00:00:00 | |
| DJ2DS-15 | 2026-09-02 06:33:05 | 52.74195 | 8.95086 | 59° | 53km/h | 1796m | -3.4m/s | 4.7°C | 89.1% | 824.4hPa | 2.7V | 00:00:00 | 03:01:38 | 00:00:00 | |
| DL4XJ-10 | 2026-09-02 06:33:05 | 52.74195 | 8.95086 | 59° | 55km/h | 1796m | -3.4m/s | 6.2°C | 0% | 0hPa | 2.7V | 00:00:00 | 00:00:00 | 00:00:00 | |
| DM0DOS-11 | 2026-09-02 06:33:04 | 52.74166 | 8.95011 | 56° | 53km/h | 1809m | -3.3m/s | 4.7°C | 91.4% | 823hPa | 2.7V | 07:24:34 | 03:01:34 | 00:00:00 | |
| DL1XH-west | 2026-09-02 06:33:03 | 52.74181 | 8.95049 | 57° | 53km/h | 1803m | -3.4m/s | 4.7°C | 92.6% | 823.7hPa | 2.7V | 07:25:05 | 03:01:36 | 00:00:00 | |
| BIOWL1-15 | 2026-09-02 06:33:02 | 52.74144 | 8.94953 | 62° | 55km/h | 1818m | -3.1m/s | 4.6°C | 94.8% | 822.1hPa | 2.7V | 07:25:05 | 03:01:31 | 00:00:00 | |
| DL1XH-west | 2026-09-02 06:33:02 | 52.74173 | 8.95030 | 57° | 53km/h | 1806m | -3.5m/s | 4.7°C | 92.8% | 823.3hPa | 2.7V | 07:25:05 | 03:01:35 | 00:00:00 | |
| DL1XH-west | 2026-09-02 06:33:00 | 52.74159 | 8.94992 | 57° | 55km/h | 1812m | -3.6m/s | 4.6°C | 94.6% | 822.7hPa | 2.6V | 07:25:05 | 03:01:33 | 00:00:00 | |
| DL1XH-west | 2026-09-02 06:32:59 | 52.74151 | 8.94973 | 59° | 55km/h | 1816m | -3.1m/s | 4.6°C | 94.6% | 822.5hPa | 2.7V | 07:25:05 | 03:01:32 | 00:00:00 | |
| DL1XH-west | 2026-09-02 06:32:57 | 52.74137 | 8.94932 | 63° | 57km/h | 1821m | -3.2m/s | 4.5°C | 95.1% | 821.8hPa | 2.7V | 07:25:05 | 03:01:30 | 00:00:00 | |
| BUE01 | 2026-09-02 06:32:56 | 52.74131 | 8.94911 | 65° | 55km/h | 1824m | -3.1m/s | 4.5°C | 92.0% | 821.5hPa | 2.6V | 00:00:00 | 00:00:00 | 00:00:00 | |
| DB0DAN | 2026-09-02 06:32:55 | 52.74126 | 8.94889 | 66° | 53km/h | 1828m | -3.1m/s | 4.5°C | 92.5% | 821.12hPa | 2.6V | 00:00:00 | 00:00:00 | 00:00:00 | |
| DL1XH-west | 2026-09-02 06:32:55 | 52.74126 | 8.94889 | 66° | 55km/h | 1828m | -3.1m/s | 4.5°C | 95.8% | 821.1hPa | 2.6V | 07:25:05 | 03:01:28 | 00:00:00 | |
| DL1XH-west | 2026-09-02 06:32:54 | 52.74120 | 8.94868 | 67° | 55km/h | 1831m | -3.6m/s | 4.4°C | 96% | 820.9hPa | 2.7V | 07:25:05 | 03:01:27 | 00:00:00 | |
| DL1XH-west | 2026-09-02 06:32:52 | 52.74109 | 8.94826 | 68° | 55km/h | 1837m | -3.4m/s | 4.4°C | 97% | 820hPa | 2.7V | 07:25:05 | 03:01:25 | 00:00:00 | |
| BIOWL1-15 | 2026-09-02 06:32:51 | 52.74104 | 8.94805 | 69° | 53km/h | 1841m | -3.2m/s | 4.3°C | 97.4% | 819.8hPa | 2.7V | 07:25:05 | 03:01:24 | 00:00:00 | |
| BIOWL1-15 | 2026-09-02 06:32:50 | 52.74099 | 8.94784 | 70° | 53km/h | 1844m | -3.7m/s | 4.3°C | 97.5% | 819.4hPa | 2.7V | 07:25:05 | 03:01:23 | 00:00:00 | |
| BIOWL1-15 | 2026-09-02 06:32:48 | 52.74086 | 8.94722 | 71° | 51km/h | 1853m | -3.6m/s | 4.2°C | 98.2% | 818.4hPa | 2.7V | 07:25:05 | 03:01:20 | 00:00:00 | |
| DL1XH-west | 2026-09-02 06:32:48 | 52.74091 | 8.94743 | 71° | 53km/h | 1850m | -3.4m/s | 4.3°C | 97.9% | 818.6hPa | 2.7V | 07:25:05 | 03:01:21 | 00:00:00 | |
| DL1XH-west | 2026-09-02 06:32:46 | 52.74082 | 8.94702 | 72° | 53km/h | 1857m | -3.4m/s | 4.2°C | 98% | 818.1hPa | 2.6V | 07:25:05 | 03:01:19 | 00:00:00 | |
| DM0DOS-11 | 2026-09-02 06:32:46 | 52.74078 | 8.94681 | 69° | 51km/h | 1860m | -3.4m/s | 4.2°C | 96.5% | 817.6hPa | 2.6V | 07:24:50 | 03:01:18 | 00:00:00 | |
| BIOWL1-15 | 2026-09-02 06:32:44 | 52.74068 | 8.94640 | 71° | 53km/h | 1867m | -3.6m/s | 4.2°C | 97.2% | 817.1hPa | 2.7V | 07:25:05 | 03:01:16 | 00:00:00 | |
| DL1XH-west | 2026-09-02 06:32:44 | 52.74073 | 8.94661 | 69° | 53km/h | 1863m | -3.5m/s | 4.2°C | 97% | 817.4hPa | 2.7V | 07:25:05 | 03:01:17 | 00:00:00 | |
| DL1XH-west | 2026-09-02 06:32:42 | 52.74063 | 8.94619 | 70° | 53km/h | 1870m | -3.8m/s | 4.1°C | 97.5% | 816.7hPa | 2.7V | 07:25:05 | 03:01:15 | 00:00:00 | |
| DK9SH | 2026-09-02 06:32:41 | 52.74063 | 8.94619 | 71° | 53km/h | 1870m | -3.8m/s | 4.1°C | 95.2% | 816.7hPa | 2.7V | 00:00:00 | 00:00:00 | 00:00:00 | |
| DM0DOS-11 | 2026-09-02 06:32:41 | 52.74043 | 8.94516 | 71° | 51km/h | 1887m | -3.6m/s | 4°C | 98.2% | 815hPa | 2.7V | 07:24:58 | 03:01:10 | 00:00:00 | |
| DL1XH-west | 2026-09-02 06:32:41 | 52.74059 | 8.94598 | 73° | 51km/h | 1874m | -4m/s | 4.1°C | 97.9% | 816.3hPa | 2.7V | 07:25:05 | 03:01:14 | 00:00:00 | |
| DB0DAN | 2026-09-02 06:32:40 | 52.74055 | 8.94578 | 72° | 49km/h | 1877m | -3.6m/s | 4.1°C | 95.9% | 815.99hPa | 2.7V | 00:00:00 | 00:00:00 | 00:00:00 | |
| BIOWL1-15 | 2026-09-02 06:32:40 | 52.74055 | 8.94578 | 72° | 51km/h | 1877m | -3.6m/s | 4.1°C | 97.9% | 816hPa | 2.7V | 07:25:05 | 03:01:13 | 00:00:00 | |
| DL1XH-west | 2026-09-02 06:32:39 | 52.74051 | 8.94557 | 72° | 53km/h | 1881m | -3.2m/s | 4°C | 98.1% | 815.7hPa | 2.7V | 07:25:05 | 03:01:12 | 00:00:00 | |
| DL1XH-west | 2026-09-02 06:32:37 | 52.74043 | 8.94516 | 71° | 51km/h | 1887m | -3.6m/s | 4°C | 98.6% | 815hPa | 2.7V | 07:25:05 | 03:01:10 | 00:00:00 | |
| GOEST3-10 | 2026-09-02 06:32:37 | 52.74043 | 8.94516 | 72° | 51km/h | 1887m | -3.5m/s | 3.9°C | 98.2% | 814.9hPa | 2.7V | 00:00:00 | 03:01:10 | 00:00:00 | |
| DL1XH1-15 | 2026-09-02 06:32:36 | 52.74028 | 8.94436 | 73° | 51km/h | 1902m | -3.3m/s | 3.9°C | 98.1% | 813.8hPa | 2.7V | 07:25:02 | 03:01:06 | 00:00:00 | |
| DL1XH-west | 2026-09-02 06:32:36 | 52.74039 | 8.94496 | 72° | 49km/h | 1891m | -3.9m/s | 4°C | 99% | 814.6hPa | 2.6V | 07:25:05 | 03:01:09 | 00:00:00 | |
| DL1XH-west | 2026-09-02 06:32:35 | 52.74035 | 8.94476 | 73° | 51km/h | 1895m | -3.9m/s | 3.9°C | 99.4% | 814.3hPa | 2.6V | 07:25:05 | 03:01:08 | 00:00:00 | |
| DL1XH-west | 2026-09-02 06:32:33 | 52.74027 | 8.94436 | 74° | 51km/h | 1903m | -3.3m/s | 3.9°C | 99.5% | 813.8hPa | 2.7V | 07:25:05 | 03:01:06 | 00:00:00 | |
| DL1XH-west | 2026-09-02 06:32:32 | 52.74024 | 8.94416 | 75° | 49km/h | 1906m | -3.6m/s | 3.9°C | 99.7% | 813.2hPa | 2.7V | 07:25:05 | 03:01:05 | 00:00:00 | |
| BIOWL1-15 | 2026-09-02 06:32:31 | 52.74021 | 8.94396 | 76° | 47km/h | 1909m | -3.3m/s | 3.8°C | 99.6% | 812.9hPa | 2.7V | 07:25:05 | 03:01:04 | 00:00:00 | |
| DL1XH-west | 2026-09-02 06:32:30 | 52.74018 | 8.94377 | 74° | 46km/h | 1912m | -3.4m/s | 3.8°C | 99.5% | 812.7hPa | 2.7V | 07:25:05 | 03:01:03 | 00:00:00 | |
| DL1XH1-15 | 2026-09-02 06:32:29 | 52.74002 | 8.94287 | 73° | 42km/h | 1929m | -3.5m/s | 3.9°C | 93.7% | 811hPa | 2.6V | 07:25:10 | 03:00:58 | 00:00:00 | |
| DL1XH-west | 2026-09-02 06:32:28 | 52.74012 | 8.94341 | 72° | 46km/h | 1920m | -3.5m/s | 3.8°C | 98.4% | 811.9hPa | 2.7V | 07:25:56 | 03:01:01 | 00:00:00 | |
| BIOWL1-15 | 2026-09-02 06:32:27 | 52.74008 | 8.94323 | 74° | 46km/h | 1923m | -3m/s | 3.8°C | 98.2% | 811.7hPa | 2.7V | 07:25:56 | 03:01:00 | 00:00:00 | |
| DL1XH-west | 2026-09-02 06:32:26 | 52.74005 | 8.94305 | 75° | 44km/h | 1926m | -3.1m/s | 3.8°C | 95.6% | 811.2hPa | 2.6V | 07:25:56 | 03:00:59 | 00:00:00 | |
| DB0DAN | 2026-09-02 06:32:25 | 52.74002 | 8.94288 | 74° | 40km/h | 1929m | -3.5m/s | 3.9°C | 92.1% | 810.98hPa | 2.6V | 00:00:00 | 00:00:00 | 00:00:00 | |
| BIOWL1-15 | 2026-09-02 06:32:25 | 52.73997 | 8.94253 | 76° | 40km/h | 1936m | -3.2m/s | 4.1°C | 82.1% | 810.2hPa | 2.7V | 07:25:56 | 03:00:56 | 00:00:00 | |
| DL1XH-west | 2026-09-02 06:32:25 | 52.74002 | 8.94288 | 74° | 42km/h | 1929m | -3.5m/s | 3.9°C | 93.8% | 811hPa | 2.6V | 07:25:56 | 03:00:58 | 00:00:00 | |
| GOEST3-10 | 2026-09-02 06:32:25 | 52.74002 | 8.94288 | 74° | 42km/h | 1929m | -3.5m/s | 3.8°C | 93.7% | 810.9hPa | 2.6V | 00:00:00 | 03:00:58 | 00:00:00 | |
| DL4XJ-10 | 2026-09-02 06:32:25 | 52.74002 | 8.94288 | 74° | 42km/h | 1929m | -3.5m/s | 5.3°C | 0% | 0hPa | 2.7V | 00:00:00 | 00:00:00 | 00:00:00 | |
| DL1XH1-15 | 2026-09-02 06:32:24 | 52.73993 | 8.94218 | 77° | 44km/h | 1943m | -3m/s | 4.2°C | 71.6% | 809.8hPa | 2.7V | 07:25:14 | 03:00:54 | 00:00:00 | |
| DL1XH-west | 2026-09-02 06:32:24 | 52.74000 | 8.94270 | 76° | 44km/h | 1933m | -3.3m/s | 4°C | 89.4% | 810.7hPa | 2.7V | 07:25:56 | 03:00:57 | 00:00:00 | |
| DL1XH-west | 2026-09-02 06:32:22 | 52.73995 | 8.94236 | 77° | 44km/h | 1940m | -3.1m/s | 4.1°C | 79.2% | 810.1hPa | 2.7V | 07:25:56 | 03:00:55 | 00:00:00 | |
| BIOWL1-15 | 2026-09-02 06:32:21 | 52.73988 | 8.94182 | 81° | 42km/h | 1950m | -3.6m/s | 4.2°C | 74.7% | 809.1hPa | 2.7V | 07:25:56 | 03:00:52 | 00:00:00 | |
| DL1XH-west | 2026-09-02 06:32:20 | 52.73990 | 8.94200 | 76° | 44km/h | 1946m | -3.2m/s | 4.2°C | 72.4% | 809.6hPa | 2.7V | 07:25:56 | 03:00:53 | 00:00:00 | |
| DJ2DS-15 | 2026-09-02 06:32:19 | 52.73988 | 8.94182 | 81° | 42km/h | 1950m | -3.6m/s | 4.1°C | 71.8% | 809.1hPa | 2.7V | 00:00:00 | 03:00:52 | 00:00:00 | |
| DL1XH1-15 | 2026-09-02 06:32:18 | 52.73984 | 8.94148 | 78° | 40km/h | 1958m | -4m/s | 4.1°C | 68.7% | 808.6hPa | 2.7V | 07:25:18 | 03:00:50 | 00:00:00 | |
| DL1XH1-15 | 2026-09-02 06:32:18 | 52.73980 | 8.94114 | 79° | 40km/h | 1966m | -3.9m/s | 4°C | 72.7% | 807.8hPa | 2.6V | 07:25:20 | 03:00:48 | 00:00:00 | |
| DL1XH1-15 | 2026-09-02 06:32:18 | 52.73977 | 8.94080 | 79° | 42km/h | 1974m | -3.7m/s | 3.9°C | 73.9% | 807hPa | 2.7V | 07:25:22 | 03:00:46 | 00:00:00 | |
| DL1XH-west | 2026-09-02 06:32:18 | 52.73986 | 8.94165 | 78° | 42km/h | 1954m | -4.1m/s | 4.2°C | 72% | 808.9hPa | 2.7V | 07:25:56 | 03:00:51 | 00:00:00 | |
| DL1XH-15 | 2026-09-02 06:32:17 | 52.73978 | 8.94097 | 79° | 42km/h | 1970m | -3.7m/s | 3.9°C | 73.9% | 807.3hPa | 2.7V | 07:25:21 | 03:00:47 | 00:00:00 | |
| DL1XH-15 | 2026-09-02 06:32:17 | 52.73975 | 8.94062 | 80° | 42km/h | 1978m | -4.4m/s | 3.9°C | 74.2% | 806.7hPa | 2.7V | 07:25:23 | 03:00:45 | 00:00:00 | |
| DL1XH-west | 2026-09-02 06:32:16 | 52.73982 | 8.94131 | 78° | 40km/h | 1962m | -3.7m/s | 4.1°C | 71.9% | 808.1hPa | 2.6V | 07:25:56 | 03:00:49 | 00:00:00 | |
| DL1XH-west | 2026-09-02 06:32:15 | 52.73980 | 8.94114 | 79° | 40km/h | 1966m | -3.9m/s | 4°C | 75.7% | 807.8hPa | 2.6V | 07:25:56 | 03:00:48 | 00:00:00 | |
| DL1XH-west | 2026-09-02 06:32:13 | 52.73976 | 8.94080 | 80° | 42km/h | 1974m | -3.7m/s | 3.9°C | 77.2% | 807hPa | 2.7V | 07:25:56 | 03:00:46 | 00:00:00 | |
| GOEST3-10 | 2026-09-02 06:32:13 | 52.73976 | 8.94080 | 80° | 42km/h | 1974m | -3.7m/s | 3.9°C | 73.9% | 806.9hPa | 2.7V | 07:25:00 | 00:00:00 | 00:00:00 | |
| DD8BA-10 | 2026-09-02 06:32:13 | 52.73976 | 8.94080 | 80° | 42km/h | 1974m | -3.7m/s | 3.9°C | 73.9% | 806.9hPa | 2.7V | 00:00:00 | 00:00:00 | 00:00:00 | |
| DL1XH1-15 | 2026-09-02 06:32:12 | 52.73973 | 8.94045 | 82° | 42km/h | 1982m | -4.2m/s | 3.8°C | 75.7% | 806.1hPa | 2.7V | 07:25:24 | 03:00:44 | 00:00:00 | |
| DL1XH1-15 | 2026-09-02 06:32:12 | 52.73970 | 8.94011 | 79° | 40km/h | 1991m | -4m/s | 3.9°C | 66.3% | 805.3hPa | 2.7V | 07:25:26 | 03:00:42 | 00:00:00 | |
| DL1XH1-15 | 2026-09-02 06:32:12 | 52.73967 | 8.93976 | 80° | 44km/h | 1999m | -3.9m/s | 3.9°C | 64% | 804.5hPa | 2.7V | 07:25:28 | 03:00:40 | 00:00:00 | |
| DO2JMG | 2026-09-02 06:32:12 | 52.73975 | 8.94062 | 81° | 42km/h | 1978m | -4.4m/s | 3.9°C | 77.6% | 806.7hPa | 2.7V | 07:25:56 | 03:00:45 | 00:00:00 | |
| DL1XH-west | 2026-09-02 06:32:11 | 52.73973 | 8.94045 | 83° | 42km/h | 1982m | -4.2m/s | 3.8°C | 78.8% | 806.2hPa | 2.7V | 07:25:56 | 03:00:44 | 00:00:00 | |
| DB0DAN | 2026-09-02 06:32:10 | 52.73972 | 8.94028 | 81° | 40km/h | 1987m | -4.4m/s | 3.8°C | 71.7% | 805.85hPa | 2.7V | 00:00:00 | 00:00:00 | 00:00:00 | |
| DL1XH-west | 2026-09-02 06:32:10 | 52.73972 | 8.94028 | 81° | 42km/h | 1987m | -4.4m/s | 3.8°C | 76.2% | 805.9hPa | 2.7V | 07:25:56 | 03:00:43 | 00:00:00 | |
| DL1XH-west | 2026-09-02 06:32:08 | 52.73969 | 8.93994 | 82° | 42km/h | 1995m | -3.6m/s | 3.9°C | 68.8% | 805.1hPa | 2.7V | 07:25:56 | 03:00:41 | 00:00:00 | |
| DL1XH-west | 2026-09-02 06:32:07 | 52.73967 | 8.93976 | 80° | 44km/h | 1999m | -3.9m/s | 3.9°C | 68.1% | 804.5hPa | 2.7V | 07:25:56 | 03:00:40 | 00:00:00 | |
| DL1XH-west | 2026-09-02 06:32:04 | 52.73962 | 8.93924 | 79° | 42km/h | 2011m | -3.9m/s | 3.8°C | 68.4% | 803.5hPa | 2.7V | 07:25:56 | 03:00:37 | 00:00:00 | |
| BIOWL1-15 | 2026-09-02 06:32:03 | 52.73959 | 8.93908 | 77° | 40km/h | 2016m | -4.4m/s | 3.7°C | 69% | 803hPa | 2.7V | 07:25:56 | 03:00:36 | 00:00:00 | |
| DL1XH-15 | 2026-09-02 06:32:02 | 52.73957 | 8.93891 | 76° | 40km/h | 2021m | -4.7m/s | 3.7°C | 63.9% | 802.6hPa | 2.7V | 07:25:33 | 03:00:35 | 00:00:00 | |
| DL1XH1-15 | 2026-09-02 06:32:02 | 52.73947 | 8.93808 | 79° | 40km/h | 2045m | -4.8m/s | 3.9°C | 53.7% | 800.4hPa | 2.7V | 07:25:38 | 03:00:30 | 00:00:00 | |
| DM0DOS-11 | 2026-09-02 06:32:00 | 52.73953 | 8.93858 | 76° | 40km/h | 2030m | -4.5m/s | 3.8°C | 62.7% | 801.6hPa | 2.7V | 07:25:35 | 03:00:33 | 00:00:00 | |
| DO2JMG | 2026-09-02 06:32:00 | 52.73953 | 8.93858 | 77° | 40km/h | 2030m | -4.5m/s | 3.8°C | 67.2% | 801.6hPa | 2.7V | 07:25:56 | 03:00:33 | 00:00:00 | |
| GOEST3-10 | 2026-09-02 06:31:59 | 52.73951 | 8.93842 | 80° | 37km/h | 2035m | -4.7m/s | 3.8°C | 57.5% | 801.2hPa | 2.7V | 00:00:00 | 03:00:32 | 00:00:00 | |
| DM0DOS-11 | 2026-09-02 06:31:55 | 52.73940 | 8.93703 | 81° | 29km/h | 2075m | -4.3m/s | 3.5°C | 57.2% | 797.2hPa | 2.7V | 07:25:45 | 03:00:23 | 00:00:00 | |
| DB0DAN | 2026-09-02 06:31:55 | 52.73944 | 8.93775 | 80° | 38km/h | 2054m | -4.2m/s | 3.7°C | 55.4% | 799.5hPa | 2.7V | 00:00:00 | 00:00:00 | 00:00:00 | |
| DL1XH-west | 2026-09-02 06:31:54 | 52.73942 | 8.93759 | 83° | 38km/h | 2058m | -4.4m/s | 3.6°C | 64% | 799.1hPa | 2.6V | 07:25:56 | 03:00:27 | 00:00:00 | |
| BIOWL1-15 | 2026-09-02 06:31:52 | 52.73938 | 8.93677 | 81° | 29km/h | 2083m | -3.6m/s | 3.4°C | 60% | 796.4hPa | 2.7V | 07:25:56 | 03:00:21 | 00:00:00 | |
| DL1XH-15 | 2026-09-02 06:31:52 | 52.73941 | 8.93728 | 88° | 33km/h | 2067m | -4.3m/s | 3.6°C | 55.5% | 798.1hPa | 2.7V | 07:25:43 | 03:00:25 | 00:00:00 | |
| DL1XH1-15 | 2026-09-02 06:31:52 | 52.73936 | 8.93666 | 77° | 29km/h | 2086m | -3.6m/s | 3.4°C | 56.9% | 796.1hPa | 2.7V | 07:25:48 | 03:00:20 | 00:00:00 | |
| GOEST3-10 | 2026-09-02 06:31:49 | 52.73939 | 8.93690 | 83° | 29km/h | 2079m | -3.3m/s | 3.4°C | 56.4% | 796.7hPa | 2.7V | 07:25:00 | 00:00:00 | 00:00:00 | |
| DO2JMG | 2026-09-02 06:31:49 | 52.73939 | 8.93690 | 83° | 33km/h | 2079m | -3.4m/s | 3.4°C | 60.7% | 796.8hPa | 2.7V | 07:25:56 | 03:00:22 | 00:00:00 | |
| DL1XH1-15 | 2026-09-02 06:31:47 | 52.73929 | 8.93609 | 77° | 27km/h | 2106m | -3.9m/s | 3.2°C | 57.2% | 794.2hPa | 2.7V | 07:25:53 | 03:00:15 | 00:00:00 | |
| DJ2DS-15 | 2026-09-02 06:31:46 | 52.73935 | 8.93654 | 78° | 29km/h | 2090m | -4.2m/s | 3.3°C | 55.0% | 795.6hPa | 2.7V | 00:00:00 | 00:00:00 | 00:00:00 | |
| DM0DOS-11 | 2026-09-02 06:31:45 | 52.73927 | 8.93587 | 82° | 27km/h | 2114m | -3.6m/s | 3°C | 60.1% | 793.3hPa | 2.7V | 07:25:55 | 03:00:13 | 00:00:00 | |
| DL1XH-west | 2026-09-02 06:31:43 | 52.73930 | 8.93620 | 78° | 26km/h | 2102m | -3.7m/s | 3.2°C | 61.9% | 794.6hPa | 2.7V | 07:25:56 | 03:00:16 | 00:00:00 | |
| DD8BA-10 | 2026-09-02 06:31:43 | 52.73930 | 8.93619 | 79° | 27km/h | 2102m | -3.6m/s | 3.2°C | 57.6% | 794.6hPa | 2.7V | 00:00:00 | 00:00:00 | 00:00:00 | |
| DB0DAN | 2026-09-02 06:31:40 | 52.73927 | 8.93587 | 83° | 26km/h | 2114m | -3.6m/s | 3°C | 59% | 793.32hPa | 2.7V | 00:00:00 | 00:00:00 | 00:00:00 | |
| BIOWL1-15 | 2026-09-02 06:31:39 | 52.73926 | 8.93575 | 81° | 27km/h | 2117m | -3.5m/s | 3°C | 64.4% | 793hPa | 2.7V | 07:25:56 | 03:00:12 | 00:00:00 | |
| DO2JMG | 2026-09-02 06:31:38 | 52.73925 | 8.93563 | 84° | 29km/h | 2121m | -3.7m/s | 3.1°C | 61.1% | 792.6hPa | 2.7V | 07:26:47 | 03:00:11 | 00:00:00 | |
| DM0DOS-11 | 2026-09-02 06:31:37 | 52.73920 | 8.93528 | 73° | 29km/h | 2131m | -3.5m/s | 3.1°C | 53.8% | 791.5hPa | 2.6V | 07:26:00 | 03:00:08 | 00:00:00 | |
| DL1XH-15 | 2026-09-02 06:31:36 | 52.73912 | 8.93482 | 75° | 27km/h | 2147m | -3.9m/s | 2.9°C | 54.7% | 790.3hPa | 2.7V | 07:26:04 | 03:00:04 | 00:00:00 | |
| BIOWL1-15 | 2026-09-02 06:31:33 | 52.73910 | 8.93459 | 84° | 27km/h | 2154m | -3.7m/s | 2.9°C | 59.4% | 789.5hPa | 2.7V | 07:26:47 | 03:00:02 | 00:00:00 | |
| DL1XH-west | 2026-09-02 06:31:32 | 52.73914 | 8.93494 | 74° | 29km/h | 2143m | -3.8m/s | 3°C | 58.2% | 790.6hPa | 2.7V | 07:26:47 | 03:00:05 | 00:00:00 | |
| DM0DOS-11 | 2026-09-02 06:31:30 | 52.73911 | 8.93471 | 79° | 27km/h | 2151m | -3.9m/s | 2.9°C | 55.9% | 789.8hPa | 2.7V | 07:26:05 | 03:00:03 | 00:00:00 | |
| DM0DOS-11 | 2026-09-02 06:31:30 | 52.73909 | 8.93415 | 94° | 27km/h | 2168m | -2.9m/s | 3°C | 54.5% | 788.1hPa | 2.7V | 07:26:10 | 02:59:58 | 00:00:00 | |
| DL1XH-15 | 2026-09-02 06:31:30 | 52.73909 | 8.93426 | 92° | 26km/h | 2165m | -3.8m/s | 2.9°C | 54.7% | 788.5hPa | 2.6V | 07:26:09 | 02:59:59 | 00:00:00 | |
| DO2JMG | 2026-09-02 06:31:27 | 52.73909 | 8.93437 | 91° | 27km/h | 2161m | -3.2m/s | 2.8°C | 57.9% | 788.8hPa | 2.6V | 07:26:47 | 03:00:00 | 00:00:00 | |
| DB0DAN | 2026-09-02 06:31:25 | 52.73909 | 8.93415 | 95° | 26km/h | 2168m | -2.9m/s | 3°C | 53.5% | 788.12hPa | 2.7V | 00:00:00 | 00:00:00 | 00:00:00 | |
| DL4XJ-10 | 2026-09-02 06:31:25 | 52.73909 | 8.93415 | 95° | 26km/h | 2168m | -2.8m/s | 4.4°C | 0% | 0hPa | 2.7V | 00:00:00 | 00:00:00 | 00:00:00 | |
| DD8BA-10 | 2026-09-02 06:31:23 | 52.73910 | 8.93393 | 94° | 26km/h | 2175m | -3.4m/s | 2.9°C | 54.0% | 787.2hPa | 2.7V | 00:00:00 | 00:00:00 | 00:00:00 | |
| DL1XH1-15 | 2026-09-02 06:31:22 | 52.73913 | 8.93330 | 97° | 26km/h | 2193m | -3.1m/s | 2.8°C | 53.2% | 785.5hPa | 2.6V | 07:26:18 | 02:59:50 | 00:00:00 | |
| DL1XH-west | 2026-09-02 06:31:21 | 52.73911 | 8.93372 | 94° | 26km/h | 2181m | -3.2m/s | 3.2°C | 53.6% | 786.7hPa | 2.7V | 07:26:47 | 02:59:54 | 00:00:00 | |
| DM0DOS-11 | 2026-09-02 06:31:20 | 52.73912 | 8.93362 | 90° | 24km/h | 2184m | -3.1m/s | 3.2°C | 50.7% | 786.4hPa | 2.7V | 07:26:15 | 02:59:53 | 00:00:00 | |
| DM0DOS-11 | 2026-09-02 06:31:20 | 52.73915 | 8.93310 | 102° | 24km/h | 2199m | -3m/s | 2.8°C | 52.6% | 785.1hPa | 2.7V | 07:26:20 | 02:59:48 | 00:00:00 | |
| BIOWL1-15 | 2026-09-02 06:31:18 | 52.73913 | 8.93330 | 97° | 26km/h | 2193m | -3.1m/s | 2.8°C | 55.8% | 785.5hPa | 2.6V | 07:26:47 | 02:59:50 | 00:00:00 | |
| DL1XH1-15 | 2026-09-02 06:31:17 | 52.73919 | 8.93280 | 100° | 26km/h | 2208m | -3m/s | 3°C | 51.6% | 784hPa | 2.7V | 07:26:23 | 02:59:45 | 00:00:00 | |
| DL1XH-15 | 2026-09-02 06:31:16 | 52.73919 | 8.93270 | 97° | 26km/h | 2211m | -3.2m/s | 3°C | 50.8% | 783.8hPa | 2.6V | 07:26:24 | 02:59:44 | 00:00:00 | |
| DO2JMG | 2026-09-02 06:31:16 | 52.73914 | 8.93320 | 101° | 24km/h | 2196m | -3.1m/s | 2.9°C | 55.3% | 785.3hPa | 2.6V | 07:26:47 | 02:59:49 | 00:00:00 | |
| DJ2DS-15 | 2026-09-02 06:31:14 | 52.73917 | 8.93300 | 103° | 24km/h | 2202m | -3.2m/s | 2.7°C | 53.2% | 784.6hPa | 2.7V | 00:00:00 | 02:59:47 | 00:00:00 | |
| DD8BA-10 | 2026-09-02 06:31:13 | 52.73918 | 8.93290 | 98° | 26km/h | 2206m | -3.3m/s | 2.7°C | 54.2% | 784.3hPa | 2.7V | 00:00:00 | 00:00:00 | 00:00:00 | |
| DL1XH1-15 | 2026-09-02 06:31:12 | 52.73925 | 8.93229 | 103° | 24km/h | 2223m | -2.9m/s | 3.1°C | 50.7% | 782.5hPa | 2.7V | 07:26:28 | 02:59:40 | 00:00:00 | |
| DL1XH-west | 2026-09-02 06:31:11 | 52.73919 | 8.93270 | 97° | 26km/h | 2211m | -3.2m/s | 3°C | 54.3% | 783.8hPa | 2.6V | 07:26:47 | 02:59:44 | 00:00:00 | |
| DM0DOS-11 | 2026-09-02 06:31:10 | 52.73929 | 8.93210 | 108° | 26km/h | 2228m | -2.6m/s | 3.4°C | 47.7% | 782.1hPa | 2.7V | 07:26:30 | 02:59:38 | 00:00:00 | |
| DB0DAN | 2026-09-02 06:31:10 | 52.73920 | 8.93259 | 102° | 26km/h | 2214m | -3.1m/s | 2.9°C | 50.5% | 783.43hPa | 2.7V | 00:00:00 | 00:00:00 | 00:00:00 | |
| BIOWL1-15 | 2026-09-02 06:31:08 | 52.73927 | 8.93220 | 108° | 24km/h | 2226m | -2.8m/s | 3.5°C | 51.9% | 782.4hPa | 2.7V | 07:26:47 | 02:59:39 | 00:00:00 | |
| DL1XH1-15 | 2026-09-02 06:31:07 | 52.73932 | 8.93180 | 95° | 24km/h | 2235m | -3.1m/s | 3.2°C | 48.5% | 781.2hPa | 2.6V | 07:26:33 | 02:59:35 | 00:00:00 | |
| DO2JMG | 2026-09-02 06:31:05 | 52.73929 | 8.93210 | 108° | 26km/h | 2228m | -2.6m/s | 3.4°C | 52.3% | 782.1hPa | 2.7V | 07:26:47 | 02:59:38 | 00:00:00 | |
| DL1XH-west | 2026-09-02 06:31:00 | 52.73934 | 8.93160 | 97° | 22km/h | 2241m | -2m/s | 3°C | 52.9% | 780.8hPa | 2.7V | 07:26:47 | 02:59:33 | 00:00:00 | |
| DM0DOS-11 | 2026-09-02 06:31:00 | 52.73935 | 8.93115 | 96° | 20km/h | 2249m | -1.9m/s | 4°C | 44% | 779.6hPa | 2.7V | 07:26:40 | 02:59:28 | 00:00:00 | |
| DL1XH1-15 | 2026-09-02 06:30:59 | 52.73934 | 8.93132 | 91° | 20km/h | 2246m | -1.5m/s | 3.4°C | 47.4% | 780hPa | 2.7V | 07:26:38 | 02:59:30 | 00:00:00 | |
| BIOWL1-15 | 2026-09-02 06:30:57 | 52.73934 | 8.93132 | 92° | 20km/h | 2246m | -1.5m/s | 3.4°C | 50% | 780hPa | 2.7V | 07:26:47 | 02:59:30 | 00:00:00 | |
| DM0DOS-11 | 2026-09-02 06:30:55 | 52.73934 | 8.93066 | 86° | 27km/h | 2258m | -2.3m/s | 4°C | 41.9% | 778.8hPa | 2.7V | 07:26:45 | 02:59:23 | 00:00:00 | |
| DB0DAN | 2026-09-02 06:30:55 | 52.73935 | 8.93115 | 96° | 20km/h | 2249m | -1.9m/s | 4°C | 43.3% | 779.59hPa | 2.7V | 00:00:00 | 00:00:00 | 00:00:00 | |
| DO2JMG | 2026-09-02 06:30:54 | 52.73935 | 8.93107 | 96° | 20km/h | 2251m | -2m/s | 4.1°C | 47% | 779.5hPa | 2.6V | 07:26:47 | 02:59:27 | 00:00:00 | |
| DJ2DS-15 | 2026-09-02 06:30:54 | 52.73935 | 8.93107 | 97° | 29km/h | 2251m | -1.9m/s | 4.0°C | 43.6% | 779.4hPa | 2.6V | 07:26:00 | 02:59:27 | 00:00:00 | |
| DD8BA-10 | 2026-09-02 06:30:53 | 52.73936 | 8.93098 | 91° | 27km/h | 2253m | -1.9m/s | 3.8°C | 44.9% | 779.1hPa | 2.6V | 00:00:00 | 00:00:00 | 00:00:00 | |
| DL1XH1-15 | 2026-09-02 06:30:52 | 52.73933 | 8.93030 | 84° | 29km/h | 2266m | -2.9m/s | 4.1°C | 40.9% | 778hPa | 2.7V | 07:26:48 | 02:59:20 | 00:00:00 | |
| DL1XH-west | 2026-09-02 06:30:50 | 52.73934 | 8.93066 | 87° | 27km/h | 2258m | -2.3m/s | 4°C | 45.2% | 778.8hPa | 2.7V | 07:26:47 | 02:59:23 | 00:00:00 | |
| BIOWL1-15 | 2026-09-02 06:30:49 | 52.73933 | 8.93030 | 84° | 29km/h | 2266m | -2.9m/s | 4.1°C | 45.3% | 778hPa | 2.7V | 07:27:38 | 02:59:20 | 00:00:00 | |
| DL3AQ-11 | 2026-09-02 06:30:48 | 52.73933 | 8.93030 | 84° | 27km/h | 2266m | -2.9m/s | 4.1°C | 40.2% | 778.0hPa | 2.7V | 00:00:00 | 00:00:00 | 00:00:00 | |
| DK9SH | 2026-09-02 06:30:46 | 52.73932 | 8.93018 | 82° | 29km/h | 2268m | -2.5m/s | 3.6°C | 41.9% | 777.9hPa | 2.7V | 07:27:00 | 00:00:00 | 00:00:00 | |
| DM0DOS-11 | 2026-09-02 06:30:45 | 52.73925 | 8.92941 | 89° | 33km/h | 2283m | -2.6m/s | 2.2°C | 54.3% | 776.3hPa | 2.7V | 07:26:55 | 02:59:13 | 00:00:00 | |
| DO2JMG | 2026-09-02 06:30:44 | 52.73929 | 8.92994 | 79° | 29km/h | 2273m | -2.6m/s | 2.1°C | 53.8% | 777.3hPa | 2.6V | 07:30:11 | 02:59:17 | 00:00:00 | |
| DD8BA-10 | 2026-09-02 06:30:43 | 52.73927 | 8.92981 | 83° | 33km/h | 2275m | -2.6m/s | 2.0°C | 55.6% | 777.0hPa | 2.7V | 00:00:00 | 00:00:00 | 00:00:00 | |
| DB0DAN | 2026-09-02 06:30:40 | 52.73925 | 8.92941 | 90° | 31km/h | 2283m | -2.6m/s | 2.2°C | 53.3% | 776.26hPa | 2.7V | 00:00:00 | 00:00:00 | 00:00:00 | |
| DL1XH-west | 2026-09-02 06:30:40 | 52.73925 | 8.92941 | 90° | 33km/h | 2283m | -2.6m/s | 2.2°C | 52.5% | 776.3hPa | 2.7V | 07:27:38 | 02:59:13 | 00:00:00 | |
| DL1XH1-15 | 2026-09-02 06:30:37 | 52.73927 | 8.92900 | 92° | 35km/h | 2291m | -3.5m/s | 4.1°C | 44.1% | 775.4hPa | 2.7V | 07:26:58 | 02:59:10 | 00:00:00 | |
| BIOWL1-15 | 2026-09-02 06:30:36 | 52.73927 | 8.92885 | 92° | 35km/h | 2295m | -3.9m/s | 4.2°C | 49.7% | 775.1hPa | 2.6V | 07:27:38 | 02:59:09 | 00:00:00 | |
| DL1XH-15 | 2026-09-02 06:30:35 | 52.73929 | 8.92800 | 95° | 35km/h | 2318m | -4.1m/s | 4.2°C | 48.8% | 773.1hPa | 2.7V | 07:27:05 | 02:59:03 | 00:00:00 | |
| DO2JMG | 2026-09-02 06:30:33 | 52.73927 | 8.92843 | 92° | 35km/h | 2306m | -4m/s | 4°C | 47.5% | 774.1hPa | 2.7V | 07:30:11 | 02:59:06 | 00:00:00 | |
| DD8BA-10 | 2026-09-02 06:30:33 | 52.73927 | 8.92843 | 93° | 35km/h | 2306m | -3.9m/s | 4.0°C | 43.8% | 774.0hPa | 2.6V | 00:00:00 | 00:00:00 | 00:00:00 | |
| DL1XH1-15 | 2026-09-02 06:30:32 | 52.73931 | 8.92757 | 91° | 33km/h | 2329m | -3.9m/s | 4.2°C | 49.9% | 772hPa | 2.6V | 07:27:08 | 02:59:00 | 00:00:00 | |
| DL1XH-15 | 2026-09-02 06:30:30 | 52.73932 | 8.92729 | 96° | 35km/h | 2337m | -4.4m/s | 4.2°C | 50.2% | 771.4hPa | 2.7V | 07:27:10 | 02:58:58 | 00:00:00 | |
| DL1XH-west | 2026-09-02 06:30:29 | 52.73930 | 8.92786 | 94° | 35km/h | 2322m | -4m/s | 4.2°C | 53.7% | 772.6hPa | 2.7V | 07:27:38 | 02:59:02 | 00:00:00 | |
| BIOWL9-15 | 2026-09-02 06:30:28 | 52.73931 | 8.92757 | 91° | 33km/h | 2329m | -3.9m/s | 0°C | -1.0% | -1.0hPa | 2.7V | 00:00:00 | 00:00:00 | 00:00:00 | |
| DL1XH1-15 | 2026-09-02 06:30:27 | 52.73932 | 8.92685 | 88° | 35km/h | 2348m | -3.4m/s | 4.3°C | 51.9% | 770.3hPa | 2.7V | 07:27:13 | 02:58:55 | 00:00:00 | |
| BIOWL1-15 | 2026-09-02 06:30:26 | 52.73931 | 8.92743 | 93° | 33km/h | 2333m | -3.8m/s | 4.2°C | 54.6% | 771.7hPa | 2.6V | 07:27:38 | 02:58:59 | 00:00:00 | |
| DL1XH-15 | 2026-09-02 06:30:25 | 52.73932 | 8.92656 | 86° | 37km/h | 2355m | -3.9m/s | 4.2°C | 51.9% | 769.7hPa | 2.7V | 07:27:15 | 02:58:53 | 00:00:00 | |
| DB0DAN | 2026-09-02 06:30:25 | 52.73932 | 8.92729 | 96° | 33km/h | 2337m | -4.4m/s | 4.2°C | 49.4% | 771.37hPa | 2.7V | 00:00:00 | 00:00:00 | 00:00:00 | |
| DO2JMG | 2026-09-02 06:30:23 | 52.73932 | 8.92700 | 91° | 35km/h | 2345m | -3.8m/s | 4.3°C | 56.1% | 770.6hPa | 2.7V | 07:30:11 | 02:58:56 | 00:00:00 | |
| DD8BA-10 | 2026-09-02 06:30:23 | 52.73932 | 8.92699 | 91° | 35km/h | 2345m | -3.8m/s | 4.3°C | 51.5% | 770.6hPa | 2.7V | 00:00:00 | 00:00:00 | 00:00:00 | |
| DL1XH1-15 | 2026-09-02 06:30:22 | 52.73930 | 8.92612 | 85° | 37km/h | 2367m | -3.3m/s | 4.2°C | 52% | 768.7hPa | 2.7V | 07:27:18 | 02:58:50 | 00:00:00 | |
| BUE01 | 2026-09-02 06:30:21 | 52.73932 | 8.92671 | 87° | 35km/h | 2352m | -3.6m/s | 4.3°C | 51.2% | 770.0hPa | 2.7V | 00:00:00 | 00:00:00 | 00:00:00 | |
| DM0DOS-11 | 2026-09-02 06:30:20 | 52.73929 | 8.92583 | 94° | 37km/h | 2373m | -3.3m/s | 4.3°C | 51.8% | 768.1hPa | 2.7V | 07:27:20 | 02:58:48 | 00:00:00 | |
| DL1XH-west | 2026-09-02 06:30:19 | 52.73931 | 8.92641 | 87° | 35km/h | 2359m | -3.9m/s | 4.2°C | 56.5% | 769.4hPa | 2.7V | 07:27:38 | 02:58:52 | 00:00:00 | |
| BIOWL1-15 | 2026-09-02 06:30:18 | 52.73929 | 8.92597 | 88° | 35km/h | 2370m | -3.1m/s | 4.3°C | 56.2% | 768.4hPa | 2.7V | 07:27:38 | 02:58:49 | 00:00:00 | |
| DL1XH1-15 | 2026-09-02 06:30:17 | 52.73932 | 8.92539 | 102° | 35km/h | 2384m | -3.8m/s | 4.2°C | 51.8% | 767.1hPa | 2.7V | 07:27:23 | 02:58:45 | 00:00:00 | |
| DM0DOS-11 | 2026-09-02 06:30:15 | 52.73936 | 8.92510 | 100° | 35km/h | 2391m | -4m/s | 4.2°C | 50.9% | 766.4hPa | 2.7V | 07:27:25 | 02:58:43 | 00:00:00 | |
| DO2JMG | 2026-09-02 06:30:13 | 52.73931 | 8.92553 | 98° | 35km/h | 2380m | -3.4m/s | 4.2°C | 56.9% | 767.4hPa | 2.6V | 07:30:11 | 02:58:46 | 00:00:00 | |
| DD8BA-10 | 2026-09-02 06:30:13 | 52.73931 | 8.92553 | 98° | 35km/h | 2380m | -3.4m/s | 4.2°C | 51.8% | 767.4hPa | 2.7V | 00:00:00 | 00:00:00 | 00:00:00 | |
| DL1XH1-15 | 2026-09-02 06:30:12 | 52.73943 | 8.92453 | 99° | 35km/h | 2406m | -2.9m/s | 4.2°C | 49.8% | 765hPa | 2.7V | 07:27:29 | 02:58:39 | 00:00:00 | |
| DB0DAN | 2026-09-02 06:30:10 | 52.73936 | 8.92510 | 100° | 33km/h | 2391m | -4m/s | 4.2°C | 50% | 766.42hPa | 2.7V | 00:00:00 | 00:00:00 | 00:00:00 | |
| BIOWL1-15 | 2026-09-02 06:30:09 | 52.73944 | 8.92438 | 100° | 35km/h | 2409m | -3.2m/s | 4.2°C | 53.7% | 764.8hPa | 2.6V | 07:27:38 | 02:58:38 | 00:00:00 | |
| DL1XH-west | 2026-09-02 06:30:08 | 52.73939 | 8.92482 | 103° | 35km/h | 2399m | -3.5m/s | 4.3°C | 53.6% | 765.8hPa | 2.7V | 07:27:38 | 02:58:41 | 00:00:00 | |
| DL3AQ-11 | 2026-09-02 06:30:08 | 52.73941 | 8.92467 | 100° | 35km/h | 2403m | -3.6m/s | 4.2°C | 48.7% | 765.4hPa | 2.6V | 00:00:00 | 00:00:00 | 00:00:00 | |
| DM0DOS-11 | 2026-09-02 06:30:05 | 52.73944 | 8.92438 | 99° | 35km/h | 2409m | -3.2m/s | 4.2°C | 49.7% | 764.8hPa | 2.6V | 07:27:30 | 02:58:38 | 00:00:00 | |
| DM0DOS-11 | 2026-09-02 06:30:05 | 52.73952 | 8.92367 | 101° | 33km/h | 2427m | -3.6m/s | 4.1°C | 49.2% | 763.2hPa | 2.7V | 07:27:35 | 02:58:33 | 00:00:00 | |
| DD8BA-10 | 2026-09-02 06:30:03 | 52.73947 | 8.92409 | 101° | 33km/h | 2416m | -3.5m/s | 4.2°C | 49.4% | 764.1hPa | 2.7V | 00:00:00 | 00:00:00 | 00:00:00 | |
| DL1XH1-15 | 2026-09-02 06:30:01 | 52.73960 | 8.92313 | 103° | 33km/h | 2441m | -3.6m/s | 3.9°C | 51.7% | 761.8hPa | 2.7V | 07:27:39 | 02:58:29 | 00:00:00 | |
| DM0DOS-11 | 2026-09-02 06:30:00 | 52.73962 | 8.92299 | 103° | 35km/h | 2445m | -4.1m/s | 3.9°C | 51.5% | 761.4hPa | 2.7V | 07:27:40 | 02:58:28 | 00:00:00 | |
| DL1XH-15 | 2026-09-02 06:29:58 | 52.73964 | 8.92286 | 106° | 33km/h | 2449m | -4.2m/s | 3.8°C | 51.4% | 761.1hPa | 2.7V | 07:27:41 | 02:58:27 | 00:00:00 | |
| DL1XH-west | 2026-09-02 06:29:58 | 52.73956 | 8.92340 | 104° | 33km/h | 2434m | -3.5m/s | 4°C | 56.9% | 762.5hPa | 2.7V | 07:27:38 | 02:58:31 | 00:00:00 | |
| BIOWL1-15 | 2026-09-02 06:29:57 | 52.73962 | 8.92299 | 104° | 35km/h | 2445m | -4.1m/s | 3.9°C | 57.4% | 761.4hPa | 2.7V | 07:28:29 | 02:58:28 | 00:00:00 | |
| DL1XH1-15 | 2026-09-02 06:29:56 | 52.73971 | 8.92250 | 108° | 27km/h | 2462m | -4.1m/s | 3.5°C | 53.7% | 759.7hPa | 2.6V | 07:27:44 | 02:58:24 | 00:00:00 | |
| DB0DAN | 2026-09-02 06:29:55 | 52.73962 | 8.92299 | 104° | 33km/h | 2445m | -4.1m/s | 3.9°C | 50.6% | 761.43hPa | 2.7V | 00:00:00 | 00:00:00 | 00:00:00 | |
| DL3AQ-11 | 2026-09-02 06:29:55 | 52.73964 | 8.92286 | 106° | 31km/h | 2449m | -4.2m/s | 3.8°C | 50.5% | 761.1hPa | 2.6V | 00:00:00 | 00:00:00 | 00:00:00 | |
| BUE01 | 2026-09-02 06:29:50 | 52.73973 | 8.92239 | 107° | 26km/h | 2466m | -4.0m/s | 3.5°C | 52.9% | 759.4hPa | 2.6V | 00:00:00 | 00:00:00 | 00:00:00 | |
| DL1XH1-15 | 2026-09-02 06:29:49 | 52.73978 | 8.92201 | 92° | 24km/h | 2481m | -4.1m/s | 3.4°C | 54.7% | 757.9hPa | 2.6V | 07:27:49 | 02:58:19 | 00:00:00 | |
| DL1XH-west | 2026-09-02 06:29:48 | 52.73976 | 8.92220 | 102° | 24km/h | 2474m | -4.1m/s | 3.5°C | 59.1% | 758.6hPa | 2.7V | 07:28:29 | 02:58:21 | 00:00:00 | |
| BIOWL7-15 | 2026-09-02 06:29:47 | 52.73976 | 8.92219 | 103° | 24km/h | 2474m | -4.1m/s | 3.5°C | 53.2% | 758.6hPa | 2.7V | 00:00:00 | 00:00:00 | 00:00:00 | |
| DL1XH-15 | 2026-09-02 06:29:45 | 52.73978 | 8.92191 | 90° | 24km/h | 2485m | -4.2m/s | 3.4°C | 54.3% | 757.6hPa | 2.7V | 07:27:50 | 02:58:18 | 00:00:00 | |
| DL1XH-15 | 2026-09-02 06:29:45 | 52.73974 | 8.92138 | 84° | 27km/h | 2505m | -4.2m/s | 3.2°C | 55% | 755.7hPa | 2.7V | 07:27:55 | 02:58:13 | 00:00:00 | |
| BIOWL1-15 | 2026-09-02 06:29:45 | 52.73978 | 8.92191 | 91° | 24km/h | 2485m | -4.2m/s | 3.4°C | 59.3% | 757.6hPa | 2.7V | 07:28:29 | 02:58:18 | 00:00:00 | |
| DL4XJ-10 | 2026-09-02 06:29:45 | 52.73978 | 8.92191 | 91° | 29km/h | 2485m | -4.1m/s | 4.8°C | 0% | 0hPa | 2.7V | 00:00:00 | 00:00:00 | 00:00:00 | |
| DL3AQ-11 | 2026-09-02 06:29:44 | 52.73977 | 8.92170 | 83° | 26km/h | 2493m | -4.0m/s | 3.3°C | 53.9% | 756.9hPa | 2.7V | 00:00:00 | 00:00:00 | 00:00:00 | |
| DD8BA-10 | 2026-09-02 06:29:43 | 52.73977 | 8.92170 | 84° | 27km/h | 2494m | -3.9m/s | 3.3°C | 54.9% | 756.8hPa | 2.7V | 07:27:00 | 00:00:00 | 00:00:00 | |
| DL1XH1-15 | 2026-09-02 06:29:41 | 52.73975 | 8.92149 | 80° | 26km/h | 2501m | -3.7m/s | 3.3°C | 55.5% | 756.1hPa | 2.7V | 07:27:54 | 02:58:14 | 00:00:00 | |
| DL1XH1-15 | 2026-09-02 06:29:41 | 52.73971 | 8.92093 | 82° | 27km/h | 2521m | -3.9m/s | 3.1°C | 55.4% | 754.1hPa | 2.7V | 07:27:59 | 02:58:09 | 00:00:00 | |
| DL1XH-15 | 2026-09-02 06:29:40 | 52.73970 | 8.92081 | 79° | 29km/h | 2525m | -3.8m/s | 3.1°C | 55.4% | 753.9hPa | 2.7V | 07:28:00 | 02:58:08 | 00:00:00 | |
| DB0DAN | 2026-09-02 06:29:40 | 52.73974 | 8.92138 | 84° | 26km/h | 2505m | -4.2m/s | 3.2°C | 54% | 755.74hPa | 2.7V | 00:00:00 | 00:00:00 | 00:00:00 | |
| DL1XH-west | 2026-09-02 06:29:37 | 52.73972 | 8.92105 | 83° | 27km/h | 2517m | -4.1m/s | 3.1°C | 59.3% | 754.6hPa | 2.7V | 07:28:29 | 02:58:10 | 00:00:00 | |
| DL1XH1-15 | 2026-09-02 06:29:36 | 52.73966 | 8.92028 | 85° | 35km/h | 2540m | -3.5m/s | 3.2°C | 53.6% | 752.4hPa | 2.7V | 07:28:04 | 02:58:04 | 00:00:00 | |
| BIOWL1-15 | 2026-09-02 06:29:36 | 52.73969 | 8.92069 | 80° | 31km/h | 2529m | -3.7m/s | 3.2°C | 59.4% | 753.4hPa | 2.7V | 07:28:29 | 02:58:07 | 00:00:00 | |
| DL1LOL-11 | 2026-09-02 06:29:35 | 52.73970 | 8.92081 | 81° | 29km/h | 2525m | -3.8m/s | 3.1°C | 54.4% | 753.9hPa | 2.7V | 00:00:00 | 00:00:00 | 00:00:00 | |
| DJ2DS-15 | 2026-09-02 06:29:34 | 52.73969 | 8.92069 | 81° | 29km/h | 2529m | -3.7m/s | 3.1°C | 54.9% | 753.4hPa | 2.7V | 00:00:00 | 02:58:07 | 00:00:00 | |
| DD8BA-10 | 2026-09-02 06:29:33 | 52.73968 | 8.92056 | 85° | 33km/h | 2533m | -3.8m/s | 3.2°C | 53.8% | 753.2hPa | 2.7V | 00:00:00 | 00:00:00 | 00:00:00 | |
| DL1XH1-15 | 2026-09-02 06:29:31 | 52.73962 | 8.91959 | 82° | 31km/h | 2555m | -3.1m/s | 2.8°C | 56% | 750.9hPa | 2.7V | 07:28:09 | 02:57:59 | 00:00:00 | |
| DM0DOS-11 | 2026-09-02 06:29:30 | 52.73965 | 8.92014 | 87° | 35km/h | 2543m | -3.1m/s | 3.1°C | 53.8% | 752.1hPa | 2.7V | 07:28:05 | 02:58:03 | 00:00:00 | |
| DL1XH-15 | 2026-09-02 06:29:30 | 52.73961 | 8.91946 | 81° | 29km/h | 2558m | -3.3m/s | 2.9°C | 55.4% | 750.6hPa | 2.7V | 07:28:10 | 02:57:58 | 00:00:00 | |
| DL3AQ-11 | 2026-09-02 06:29:28 | 52.73963 | 8.91972 | 84° | 31km/h | 2552m | -3.3m/s | 2.8°C | 54.9% | 751.1hPa | 2.6V | 00:00:00 | 00:00:00 | 00:00:00 | |
| DL1XH1-15 | 2026-09-02 06:29:26 | 52.73957 | 8.91901 | 84° | 26km/h | 2569m | -2.2m/s | 2.8°C | 55.5% | 749.5hPa | 2.6V | 07:28:14 | 02:57:54 | 00:00:00 | |
| DL1XH-west | 2026-09-02 06:29:26 | 52.73962 | 8.91959 | 83° | 31km/h | 2555m | -3.1m/s | 2.8°C | 60.4% | 750.9hPa | 2.7V | 07:28:29 | 02:57:59 | 00:00:00 | |
| DB0DAN | 2026-09-02 06:29:25 | 52.73961 | 8.91946 | 82° | 27km/h | 2558m | -3.3m/s | 2.9°C | 54.3% | 750.59hPa | 2.7V | 00:00:00 | 00:00:00 | 00:00:00 | |
| BIOWL1-15 | 2026-09-02 06:29:23 | 52.73959 | 8.91923 | 82° | 27km/h | 2565m | -2.8m/s | 2.8°C | 59.6% | 750.1hPa | 2.7V | 07:28:29 | 02:57:56 | 00:00:00 | |
| DD8BA-10 | 2026-09-02 06:29:23 | 52.73959 | 8.91923 | 83° | 24km/h | 2565m | -2.7m/s | 2.8°C | 55.3% | 750.0hPa | 2.7V | 00:00:00 | 00:00:00 | 00:00:00 | |
| DJ2DS-15 | 2026-09-02 06:29:22 | 52.73958 | 8.91912 | 83° | 24km/h | 2567m | -2.7m/s | 2.8°C | 54.2% | 749.8hPa | 2.7V | 00:00:00 | 00:00:00 | 00:00:00 | |
| DL1XH1-15 | 2026-09-02 06:29:21 | 52.73956 | 8.91850 | 90° | 24km/h | 2582m | -2.5m/s | 2.7°C | 55.9% | 748.5hPa | 2.7V | 07:28:19 | 02:57:49 | 00:00:00 | |
| DM0DOS-11 | 2026-09-02 06:29:20 | 52.73957 | 8.91891 | 89° | 26km/h | 2572m | -2.1m/s | 2.8°C | 55.6% | 749.4hPa | 2.7V | 07:28:15 | 02:57:53 | 00:00:00 | |
| DL1XH-15 | 2026-09-02 06:29:20 | 52.73956 | 8.91840 | 89° | 22km/h | 2584m | -2.2m/s | 2.6°C | 56.2% | 748.3hPa | 2.7V | 07:28:20 | 02:57:48 | 00:00:00 | |
| DL1XH-west | 2026-09-02 06:29:16 | 52.73956 | 8.91850 | 91° | 24km/h | 2582m | -2.5m/s | 2.7°C | 60% | 748.5hPa | 2.7V | 07:28:29 | 02:57:49 | 00:00:00 | |
| DM0DOS-11 | 2026-09-02 06:29:15 | 52.73955 | 8.91795 | 91° | 22km/h | 2595m | -2.7m/s | 2.6°C | 56.3% | 747.1hPa | 2.7V | 07:28:25 | 02:57:43 | 00:00:00 | |
| BIOWL1-15 | 2026-09-02 06:29:13 | 52.73955 | 8.91823 | 89° | 22km/h | 2588m | -2.1m/s | 2.6°C | 60.2% | 747.8hPa | 2.6V | 07:28:29 | 02:57:46 | 00:00:00 | |
| DL1XH1-15 | 2026-09-02 06:29:11 | 52.73956 | 8.91757 | 89° | 24km/h | 2606m | -2.5m/s | 2.5°C | 55.9% | 746.1hPa | 2.6V | 07:28:29 | 02:57:39 | 00:00:00 | |
| DB0DAN | 2026-09-02 06:29:10 | 52.73955 | 8.91795 | 92° | 22km/h | 2595m | -2.7m/s | 2.6°C | 55.2% | 747.11hPa | 2.7V | 00:00:00 | 00:00:00 | 00:00:00 | |
| DF5WG-10 | 2026-09-02 06:29:10 | 52.73955 | 8.91795 | 92° | 33km/h | 2595m | -2.7m/s | 2.5°C | 56.3% | 747.1hPa | 2.6V | 07:28:00 | 02:57:43 | 00:00:00 | |
| DL1XH-15 | 2026-09-02 06:29:07 | 52.73956 | 8.91748 | 89° | 24km/h | 2608m | -3m/s | 2.6°C | 55.4% | 745.8hPa | 2.6V | 07:28:30 | 02:57:38 | 00:00:00 | |
| DL1LOL-11 | 2026-09-02 06:29:07 | 52.73956 | 8.91767 | 93° | 22km/h | 2603m | -2.4m/s | 2.6°C | 54.6% | 746.3hPa | 2.7V | 00:00:00 | 00:00:00 | 00:00:00 | |
| DL1XH1-15 | 2026-09-02 06:29:06 | 52.73952 | 8.91706 | 76° | 26km/h | 2619m | -2.5m/s | 2.5°C | 55.2% | 745hPa | 2.7V | 07:28:34 | 02:57:34 | 00:00:00 | |
| DL1XH-west | 2026-09-02 06:29:06 | 52.73956 | 8.91757 | 90° | 24km/h | 2606m | -2.6m/s | 2.5°C | 60.2% | 746.1hPa | 2.6V | 07:28:29 | 02:57:39 | 00:00:00 | |
| BIOWL1-15 | 2026-09-02 06:29:03 | 52.73955 | 8.91727 | 84° | 26km/h | 2614m | -2.7m/s | 2.5°C | 59.1% | 745.4hPa | 2.7V | 07:29:20 | 02:57:36 | 00:00:00 | |
| DD8BA-10 | 2026-09-02 06:29:03 | 52.73955 | 8.91727 | 85° | 26km/h | 2614m | -2.7m/s | 2.5°C | 55.1% | 745.4hPa | 2.7V | 00:00:00 | 00:00:00 | 00:00:00 | |
| DK9SH | 2026-09-02 06:29:02 | 52.73954 | 8.91727 | 85° | 26km/h | 2614m | -2.7m/s | 2.5°C | 54.1% | 745.4hPa | 2.7V | 00:00:00 | 00:00:00 | 00:00:00 | |
| DL1XH1-15 | 2026-09-02 06:29:01 | 52.73942 | 8.91642 | 70° | 26km/h | 2635m | -2.7m/s | 2.3°C | 56.1% | 743.5hPa | 2.7V | 07:28:40 | 02:57:28 | 00:00:00 | |
| DL1XH-15 | 2026-09-02 06:29:00 | 52.73940 | 8.91632 | 70° | 26km/h | 2637m | -2.4m/s | 2.3°C | 56.5% | 743.2hPa | 2.7V | 07:28:41 | 02:57:27 | 00:00:00 | |
| DL1XH-west | 2026-09-02 06:28:56 | 52.73942 | 8.91642 | 71° | 26km/h | 2635m | -2.7m/s | 2.3°C | 60.1% | 743.5hPa | 2.7V | 07:29:20 | 02:57:28 | 00:00:00 | |
| DL1XH-15 | 2026-09-02 06:28:55 | 52.73929 | 8.91576 | 76° | 29km/h | 2652m | -3.8m/s | 2.1°C | 56.6% | 741.9hPa | 2.6V | 07:28:46 | 02:57:22 | 00:00:00 | |
| DB0DAN | 2026-09-02 06:28:55 | 52.73942 | 8.91642 | 71° | 24km/h | 2635m | -2.7m/s | 2.3°C | 55% | 743.48hPa | 2.7V | 00:00:00 | 00:00:00 | 00:00:00 | |
| BIOWL1-15 | 2026-09-02 06:28:54 | 52.73935 | 8.91611 | 73° | 27km/h | 2643m | -3.1m/s | 2.2°C | 60.9% | 742.7hPa | 2.7V | 07:29:20 | 02:57:25 | 00:00:00 | |
| DJ2DS-15 | 2026-09-02 06:28:54 | 52.73940 | 8.91632 | 71° | 33km/h | 2638m | -2.4m/s | 2.2°C | 56.5% | 743.2hPa | 2.7V | 00:00:00 | 02:57:27 | 00:00:00 | |
| DL1CLM-18 | 2026-09-02 06:28:51 | 52.73935 | 8.91610 | 74° | 27km/h | 2643m | -3.1m/s | 2.2°C | 55.2% | 742.7hPa | 2.7V | 00:00:00 | 00:00:00 | 00:00:00 | |
| DM0DOS-11 | 2026-09-02 06:28:49 | 52.73918 | 8.91511 | 77° | 31km/h | 2671m | -4.5m/s | 1.9°C | 57.3% | 740hPa | 2.7V | 07:28:51 | 02:57:17 | 00:00:00 | |
| DL1XH1-15 | 2026-09-02 06:28:49 | 52.73920 | 8.91524 | 72° | 35km/h | 2667m | -4.3m/s | 2°C | 57% | 740.4hPa | 2.7V | 07:28:50 | 02:57:18 | 00:00:00 | |
| DL1XH-west | 2026-09-02 06:28:44 | 52.73918 | 8.91511 | 77° | 31km/h | 2671m | -4.5m/s | 1.9°C | 62.5% | 740hPa | 2.7V | 07:29:20 | 02:57:17 | 00:00:00 | |
| BIOWL1-15 | 2026-09-02 06:28:42 | 52.73914 | 8.91483 | 81° | 35km/h | 2679m | -4.9m/s | 1.9°C | 62.1% | 739.2hPa | 2.6V | 07:29:20 | 02:57:15 | 00:00:00 | |
| DL1XH1-15 | 2026-09-02 06:28:40 | 52.73910 | 8.91453 | 82° | 38km/h | 2688m | -4.7m/s | 1.8°C | 57.6% | 738.2hPa | 2.7V | 07:28:55 | 02:57:13 | 00:00:00 | |
| DL1XH1-15 | 2026-09-02 06:28:40 | 52.73902 | 8.91371 | 80° | 42km/h | 2708m | -5m/s | 1.6°C | 58.5% | 736.7hPa | 2.7V | 07:29:00 | 02:57:08 | 00:00:00 | |
| DB0DAN | 2026-09-02 06:28:40 | 52.73910 | 8.91453 | 83° | 37km/h | 2688m | -4.7m/s | 1.8°C | 56.4% | 738.22hPa | 2.7V | 00:00:00 | 00:00:00 | 00:00:00 | |
| DL1LOL-11 | 2026-09-02 06:28:39 | 52.73910 | 8.91453 | 84° | 38km/h | 2688m | -4.7m/s | 1.8°C | 56.4% | 738.2hPa | 2.7V | 07:29:00 | 00:00:00 | 00:00:00 | |
| DL1XH1-15 | 2026-09-02 06:28:35 | 52.73894 | 8.91286 | 77° | 44km/h | 2734m | -6.4m/s | 1.5°C | 56.3% | 734.2hPa | 2.7V | 07:29:05 | 02:57:03 | 00:00:00 | |
| DL1XH-15 | 2026-09-02 06:28:34 | 52.73901 | 8.91354 | 84° | 40km/h | 2712m | -5.2m/s | 1.5°C | 58.4% | 736.2hPa | 2.6V | 07:29:01 | 02:57:07 | 00:00:00 | |
| DL1XH-west | 2026-09-02 06:28:34 | 52.73901 | 8.91354 | 84° | 40km/h | 2712m | -5.2m/s | 1.5°C | 63.4% | 736.2hPa | 2.6V | 07:29:20 | 02:57:07 | 00:00:00 | |
| BIOWL1-15 | 2026-09-02 06:28:33 | 52.73896 | 8.91303 | 81° | 40km/h | 2729m | -5.6m/s | 1.5°C | 61.6% | 734.8hPa | 2.7V | 07:29:20 | 02:57:04 | 00:00:00 | |
| DD8BA-10 | 2026-09-02 06:28:33 | 52.73899 | 8.91337 | 80° | 44km/h | 2717m | -6.1m/s | 1.4°C | 58.7% | 735.8hPa | 2.7V | 00:00:00 | 00:00:00 | 00:00:00 | |
| DL1XH1-15 | 2026-09-02 06:28:30 | 52.73882 | 8.91196 | 76° | 46km/h | 2760m | -5.3m/s | 1.2°C | 57.6% | 731.7hPa | 2.7V | 07:29:10 | 02:56:58 | 00:00:00 | |
| DM0DOS-11 | 2026-09-02 06:28:29 | 52.73880 | 8.91178 | 75° | 46km/h | 2765m | -4.5m/s | 1.1°C | 57.7% | 731.3hPa | 2.7V | 07:29:11 | 02:56:57 | 00:00:00 | |
| DB0DAN | 2026-09-02 06:28:25 | 52.73882 | 8.91196 | 76° | 42km/h | 2760m | -5.3m/s | 1.2°C | 56.4% | 731.72hPa | 2.7V | 00:00:00 | 00:00:00 | 00:00:00 | |
| DL1XH1-15 | 2026-09-02 06:28:25 | 52.73868 | 8.91103 | 77° | 44km/h | 2782m | -5m/s | 0.9°C | 59% | 729.7hPa | 2.7V | 07:29:15 | 02:56:53 | 00:00:00 | |
| DL4XJ-10 | 2026-09-02 06:28:25 | 52.73882 | 8.91196 | 77° | 49km/h | 2761m | -5.3m/s | 2.6°C | 0% | 0hPa | 2.6V | 00:00:00 | 00:00:00 | 00:00:00 | |
| DL1XH-15 | 2026-09-02 06:28:24 | 52.73866 | 8.91085 | 78° | 46km/h | 2786m | -4.7m/s | 0.9°C | 59.6% | 729.4hPa | 2.6V | 07:29:16 | 02:56:52 | 00:00:00 | |
| DL1XH-west | 2026-09-02 06:28:23 | 52.73877 | 8.91159 | 75° | 46km/h | 2768m | -4.8m/s | 1.1°C | 62.6% | 731hPa | 2.7V | 07:29:20 | 02:56:56 | 00:00:00 | |
| BIOWL1-15 | 2026-09-02 06:28:23 | 52.73870 | 8.91121 | 76° | 46km/h | 2777m | -5.4m/s | 1°C | 63.5% | 730.2hPa | 2.7V | 07:29:20 | 02:56:54 | 00:00:00 | |
| DD8BA-10 | 2026-09-02 06:28:23 | 52.73877 | 8.91159 | 76° | 47km/h | 2768m | -4.8m/s | 1.1°C | 57.9% | 730.9hPa | 2.7V | 07:29:00 | 00:00:00 | 00:00:00 | |
| DO2LYB-13 | 2026-09-02 06:28:21 | 52.73874 | 8.91140 | 76° | 47km/h | 2773m | -5.0m/s | 1.1°C | 56.5% | 730.6hPa | 2.7V | 00:00:00 | 00:00:00 | 00:00:00 | |
| DL1XH1-15 | 2026-09-02 06:28:20 | 52.73854 | 8.91006 | 76° | 51km/h | 2804m | -4.9m/s | 0.7°C | 60.5% | 727.7hPa | 2.7V | 07:29:20 | 02:56:48 | 00:00:00 | |
| BIOWL7-15 | 2026-09-02 06:28:19 | 52.73868 | 8.91103 | 79° | 44km/h | 2782m | -5.0m/s | 0.9°C | 57.7% | 729.7hPa | 2.7V | 00:00:00 | 00:00:00 | 00:00:00 | |
| DL1XH-15 | 2026-09-02 06:28:17 | 52.73852 | 8.90985 | 78° | 51km/h | 2808m | -4.5m/s | 0.7°C | 59% | 727.3hPa | 2.7V | 07:29:21 | 02:56:47 | 00:00:00 | |
| BUE01 | 2026-09-02 06:28:17 | 52.73857 | 8.91026 | 75° | 49km/h | 2799m | -5.3m/s | 0.7°C | 59.2% | 728.2hPa | 2.6V | 00:00:00 | 00:00:00 | 00:00:00 | |
| DL1XH1-15 | 2026-09-02 06:28:15 | 52.73844 | 8.90902 | 77° | 53km/h | 2824m | -4m/s | 0.6°C | 59.2% | 726.2hPa | 2.6V | 07:29:25 | 02:56:43 | 00:00:00 | |
| DL1XH-west | 2026-09-02 06:28:13 | 52.73850 | 8.90964 | 81° | 49km/h | 2812m | -4m/s | 0.7°C | 63.2% | 727.1hPa | 2.7V | 07:30:11 | 02:56:46 | 00:00:00 | |
| BIOWL1-15 | 2026-09-02 06:28:10 | 52.73844 | 8.90902 | 78° | 53km/h | 2824m | -4.1m/s | 0.6°C | 64% | 726.2hPa | 2.6V | 07:30:11 | 02:56:43 | 00:00:00 | |
| DB0DAN | 2026-09-02 06:28:10 | 52.73844 | 8.90902 | 78° | 49km/h | 2824m | -4.1m/s | 0.6°C | 57.9% | 726.2hPa | 2.6V | 00:00:00 | 00:00:00 | 00:00:00 | |
| DL1XH-15 | 2026-09-02 06:28:09 | 52.73841 | 8.90880 | 78° | 55km/h | 2828m | -4.1m/s | 0.5°C | 61.4% | 725.8hPa | 2.7V | 07:29:26 | 02:56:42 | 00:00:00 | |
| DL1XH-15 | 2026-09-02 06:28:09 | 52.73829 | 8.90768 | 81° | 53km/h | 2850m | -5.2m/s | 0.6°C | 58% | 724hPa | 2.6V | 07:29:31 | 02:56:37 | 00:00:00 | |
| DL3AQ-11 | 2026-09-02 06:28:08 | 52.73836 | 8.90835 | 80° | 55km/h | 2835m | -4.7m/s | 0.4°C | 61.0% | 725.1hPa | 2.7V | 00:00:00 | 00:00:00 | 00:00:00 | |
| DL1XH1-15 | 2026-09-02 06:28:05 | 52.73820 | 8.90680 | 80° | 55km/h | 2871m | -5.2m/s | 0.5°C | 58.4% | 722.2hPa | 2.7V | 07:29:35 | 02:56:33 | 00:00:00 | |
| DL1XH-west | 2026-09-02 06:28:02 | 52.73825 | 8.90724 | 80° | 55km/h | 2861m | -5.4m/s | 0.6°C | 63.3% | 723.1hPa | 2.7V | 07:30:11 | 02:56:35 | 00:00:00 | |
| BIOWL1-15 | 2026-09-02 06:28:02 | 52.73821 | 8.90680 | 81° | 55km/h | 2871m | -5.2m/s | 0.5°C | 63.7% | 722.2hPa | 2.7V | 07:30:11 | 02:56:33 | 00:00:00 | |
| DO2JMG | 2026-09-02 06:28:01 | 52.73823 | 8.90702 | 83° | 53km/h | 2866m | -4.9m/s | 0.5°C | 63.6% | 722.7hPa | 2.7V | 07:30:11 | 02:56:34 | 00:00:00 | |
| DM0DOS-11 | 2026-09-02 06:27:59 | 52.73818 | 8.90658 | 80° | 53km/h | 2876m | -5m/s | 0.5°C | 60.3% | 721.8hPa | 2.7V | 07:29:36 | 02:56:32 | 00:00:00 | |
| DL1XH1-15 | 2026-09-02 06:27:55 | 52.73800 | 8.90476 | 80° | 47km/h | 2920m | -4.7m/s | 0°C | 62.5% | 717.9hPa | 2.7V | 07:29:45 | 02:56:23 | 00:00:00 | |
| DB0DAN | 2026-09-02 06:27:55 | 52.73810 | 8.90573 | 81° | 47km/h | 2896m | -5.1m/s | 0.3°C | 59.1% | 720.08hPa | 2.6V | 00:00:00 | 00:00:00 | 00:00:00 | |
| DL1XH-15 | 2026-09-02 06:27:54 | 52.73808 | 8.90553 | 80° | 47km/h | 2901m | -5m/s | 0.2°C | 61.7% | 719.7hPa | 2.7V | 07:29:41 | 02:56:27 | 00:00:00 | |
| DJ2DS-15 | 2026-09-02 06:27:54 | 52.73808 | 8.90553 | 81° | 47km/h | 2901m | -5.0m/s | 0.2°C | 61.7% | 719.6hPa | 2.6V | 00:00:00 | 02:56:27 | 00:00:00 | |
| DM0DOS-11 | 2026-09-02 06:27:53 | 52.73798 | 8.90456 | 80° | 47km/h | 2925m | -4.9m/s | 0°C | 63.4% | 717.4hPa | 2.6V | 07:29:46 | 02:56:22 | 00:00:00 | |
| BIOWL1-15 | 2026-09-02 06:27:53 | 52.73798 | 8.90456 | 81° | 47km/h | 2925m | -4.9m/s | 0°C | 69.4% | 717.4hPa | 2.6V | 07:30:11 | 02:56:22 | 00:00:00 | |
| DL1XH-west | 2026-09-02 06:27:52 | 52.73804 | 8.90514 | 79° | 47km/h | 2910m | -4.8m/s | 0.2°C | 67.8% | 718.8hPa | 2.7V | 07:30:11 | 02:56:25 | 00:00:00 | |
| DL1XH1-15 | 2026-09-02 06:27:50 | 52.73790 | 8.90378 | 80° | 47km/h | 2944m | -5m/s | -0.3°C | 62.7% | 715.7hPa | 2.7V | 07:29:50 | 02:56:18 | 00:00:00 | |
| DO2JMG | 2026-09-02 06:27:50 | 52.73799 | 8.90476 | 81° | 47km/h | 2920m | -4.7m/s | 0°C | 68.1% | 717.9hPa | 2.7V | 07:30:11 | 02:56:23 | 00:00:00 | |
| DL1XH1-15 | 2026-09-02 06:27:45 | 52.73777 | 8.90285 | 71° | 46km/h | 2967m | -4m/s | -0.5°C | 63.5% | 713.5hPa | 2.6V | 07:29:55 | 02:56:13 | 00:00:00 | |
| DL4XJ-10 | 2026-09-02 06:27:45 | 52.73790 | 8.90378 | 81° | 51km/h | 2945m | -4.9m/s | 1.1°C | 0% | 0hPa | 2.7V | 00:00:00 | 00:00:00 | 00:00:00 | |
| DM0DOS-11 | 2026-09-02 06:27:44 | 52.73773 | 8.90267 | 68° | 47km/h | 2971m | -4.2m/s | -0.5°C | 63.6% | 713.1hPa | 2.7V | 07:29:56 | 02:56:12 | 00:00:00 | |
| DL1XH-west | 2026-09-02 06:27:41 | 52.73780 | 8.90303 | 75° | 46km/h | 2963m | -4.3m/s | -0.5°C | 67.4% | 713.9hPa | 2.6V | 07:30:11 | 02:56:14 | 00:00:00 | |
| DB0DAN | 2026-09-02 06:27:40 | 52.73777 | 8.90285 | 72° | 44km/h | 2967m | -4m/s | -0.5°C | 62% | 713.54hPa | 2.6V | 00:00:00 | 00:00:00 | 00:00:00 | |
| DM0DOS-11 | 2026-09-02 06:27:39 | 52.73746 | 8.90170 | 64° | 55km/h | 2993m | -5m/s | -0.6°C | 67.3% | 711.2hPa | 2.6V | 07:30:01 | 02:56:07 | 00:00:00 | |
| DO2JMG | 2026-09-02 06:27:39 | 52.73773 | 8.90267 | 69° | 47km/h | 2971m | -4.2m/s | -0.5°C | 67.9% | 713.1hPa | 2.7V | 07:30:11 | 02:56:12 | 00:00:00 | |
| DF5WG-10 | 2026-09-02 06:27:38 | 52.73769 | 8.90248 | 68° | 55km/h | 2975m | -4.3m/s | -0.5°C | 63.5% | 712.8hPa | 2.7V | 00:00:00 | 02:56:11 | 00:00:00 | |
| DL1XH1-15 | 2026-09-02 06:27:35 | 52.73721 | 8.90089 | 63° | 55km/h | 3013m | -4.8m/s | -0.8°C | 67.2% | 709.5hPa | 2.7V | 07:30:05 | 02:56:03 | 00:00:00 | |
| DL4BBY-15 | 2026-09-02 06:27:35 | 52.73752 | 8.90190 | 64° | 57km/h | 2989m | -4.7m/s | 0.9°C | 0% | 0hPa | 2.7V | 00:00:00 | 00:00:00 | 00:00:00 | |
| DL1XH-15 | 2026-09-02 06:27:34 | 52.73715 | 8.90068 | 62° | 55km/h | 3018m | -5m/s | -0.9°C | 67.1% | 709hPa | 2.7V | 07:30:06 | 02:56:02 | 00:00:00 | |
| DL1XH-west | 2026-09-02 06:27:30 | 52.73721 | 8.90089 | 63° | 55km/h | 3013m | -4.8m/s | -0.9°C | 72.3% | 709.5hPa | 2.7V | 07:30:11 | 02:56:03 | 00:00:00 | |
| DL1XH-15 | 2026-09-02 06:27:29 | 52.73684 | 8.89965 | 63° | 55km/h | 3041m | -4.5m/s | -1.1°C | 67.2% | 707.1hPa | 2.7V | 07:30:11 | 02:55:57 | 00:00:00 | |
| DO2JMG | 2026-09-02 06:27:28 | 52.73709 | 8.90047 | 63° | 55km/h | 3022m | -4.8m/s | -0.9°C | 72.2% | 708.6hPa | 2.7V | 07:30:11 | 02:56:01 | 00:00:00 | |
| DL3AQ-11 | 2026-09-02 06:27:27 | 52.73702 | 8.90027 | 63° | 55km/h | 3027m | -4.9m/s | -1.0°C | 66.3% | 708.2hPa | 2.7V | 00:00:00 | 00:00:00 | 00:00:00 | |
| DL1XH1-15 | 2026-09-02 06:27:25 | 52.73660 | 8.89885 | 63° | 53km/h | 3058m | -4.3m/s | -1.2°C | 69.3% | 705.5hPa | 2.7V | 07:30:15 | 02:55:53 | 00:00:00 | |
| DB0DAN | 2026-09-02 06:27:25 | 52.73690 | 8.89985 | 63° | 53km/h | 3037m | -4.5m/s | -1.1°C | 65.1% | 707.54hPa | 2.6V | 00:00:00 | 00:00:00 | 00:00:00 | |
| DL4XJ-10 | 2026-09-02 06:27:25 | 52.73690 | 8.89985 | 64° | 57km/h | 3037m | -4.5m/s | 0.3°C | 0% | 0hPa | 2.6V | 00:00:00 | 00:00:00 | 00:00:00 | |
| DL1XH-15 | 2026-09-02 06:27:24 | 52.73653 | 8.89865 | 62° | 55km/h | 3063m | -4m/s | -1.3°C | 69.1% | 705.2hPa | 2.6V | 07:30:16 | 02:55:52 | 00:00:00 | |
| DD8BA-10 | 2026-09-02 06:27:23 | 52.73677 | 8.89944 | 65° | 55km/h | 3046m | -4.2m/s | -1.1°C | 68.4% | 706.7hPa | 2.7V | 00:00:00 | 00:00:00 | 00:00:00 | |
| BIOWL9-15 | 2026-09-02 06:27:21 | 52.73666 | 8.89905 | 63° | 53km/h | 3054m | -4.5m/s | -1.2°C | 67.0% | 705.8hPa | 2.7V | 00:00:00 | 00:00:00 | 00:00:00 | |
| DL1XH1-15 | 2026-09-02 06:27:20 | 52.73629 | 8.89782 | 64° | 57km/h | 3080m | -4.3m/s | -1.4°C | 69.8% | 703.7hPa | 2.7V | 07:30:20 | 02:55:48 | 00:00:00 | |
| DL1XH-west | 2026-09-02 06:27:19 | 52.73653 | 8.89865 | 63° | 55km/h | 3063m | -4m/s | -1.3°C | 72.9% | 705.2hPa | 2.6V | 07:31:02 | 02:55:52 | 00:00:00 | |
| BIOWL1-15 | 2026-09-02 06:27:17 | 52.73641 | 8.89824 | 64° | 55km/h | 3071m | -4.3m/s | -1.4°C | 72.5% | 704.4hPa | 2.7V | 07:31:02 | 02:55:50 | 00:00:00 | |
| DL1XH1-15 | 2026-09-02 06:27:15 | 52.73597 | 8.89675 | 63° | 58km/h | 3100m | -4m/s | -1.6°C | 71.5% | 701.9hPa | 2.7V | 07:30:25 | 02:55:43 | 00:00:00 | |
| DL1XH-15 | 2026-09-02 06:27:14 | 52.73590 | 8.89653 | 64° | 60km/h | 3105m | -4m/s | -1.6°C | 71.9% | 701.4hPa | 2.7V | 07:30:26 | 02:55:42 | 00:00:00 | |
| DJ2DS-15 | 2026-09-02 06:27:14 | 52.73622 | 8.89761 | 65° | 60km/h | 3084m | -4.3m/s | -1.4°C | 70.1% | 703.1hPa | 2.7V | 00:00:00 | 02:55:47 | 00:00:00 | |
| DD8BA-10 | 2026-09-02 06:27:13 | 52.73616 | 8.89740 | 65° | 60km/h | 3088m | -4.2m/s | -1.5°C | 70.6% | 702.8hPa | 2.7V | 00:00:00 | 00:00:00 | 00:00:00 | |
| DL1XH1-15 | 2026-09-02 06:27:10 | 52.73567 | 8.89558 | 70° | 62km/h | 3123m | -5m/s | -1.8°C | 71.4% | 699.8hPa | 2.7V | 07:30:30 | 02:55:38 | 00:00:00 | |
| DB0DAN | 2026-09-02 06:27:10 | 52.73597 | 8.89675 | 64° | 57km/h | 3101m | -4m/s | -1.6°C | 69.7% | 701.89hPa | 2.7V | 00:00:00 | 00:00:00 | 00:00:00 | |
| DL1XH-west | 2026-09-02 06:27:09 | 52.73590 | 8.89653 | 65° | 60km/h | 3105m | -4m/s | -1.7°C | 74.3% | 701.5hPa | 2.7V | 07:31:02 | 02:55:42 | 00:00:00 | |
| DO2JMG | 2026-09-02 06:27:07 | 52.73578 | 8.89606 | 68° | 62km/h | 3113m | -4.8m/s | -1.7°C | 74.6% | 700.6hPa | 2.7V | 07:31:02 | 02:55:40 | 00:00:00 | |
| BIOWL1-15 | 2026-09-02 06:27:06 | 52.73572 | 8.89582 | 70° | 62km/h | 3118m | -4.9m/s | -1.8°C | 75.1% | 700.2hPa | 2.7V | 07:31:02 | 02:55:39 | 00:00:00 | |
| DO9LL-15 | 2026-09-02 06:27:06 | 52.73572 | 8.89582 | 71° | 62km/h | 3118m | -4.9m/s | -1.7°C | 71.3% | 700.2hPa | 2.7V | 00:00:00 | 02:55:39 | 00:00:00 | |
| DL4XJ-10 | 2026-09-02 06:27:05 | 52.73567 | 8.89558 | 71° | 62km/h | 3123m | -5.0m/s | -0.3°C | 0% | 0hPa | 2.7V | 00:00:00 | 00:00:00 | 00:00:00 | |
| DD8BA-10 | 2026-09-02 06:27:03 | 52.73557 | 8.89509 | 74° | 60km/h | 3133m | -4.6m/s | -1.9°C | 71.8% | 699.0hPa | 2.7V | 07:30:00 | 00:00:00 | 00:00:00 | |
| DL1XH-15 | 2026-09-02 06:26:59 | 52.73542 | 8.89409 | 77° | 60km/h | 3152m | -4.7m/s | -2°C | 71.6% | 697.3hPa | 2.7V | 07:30:36 | 02:55:32 | 00:00:00 | |
| DM0DOS-11 | 2026-09-02 06:26:59 | 52.73523 | 8.89288 | 72° | 62km/h | 3176m | -5m/s | -2.2°C | 71.4% | 695.1hPa | 2.7V | 07:30:41 | 02:55:27 | 00:00:00 | |
| DL1XH-west | 2026-09-02 06:26:58 | 52.73538 | 8.89385 | 78° | 60km/h | 3157m | -4.9m/s | -2.1°C | 75.8% | 696.9hPa | 2.7V | 07:31:02 | 02:55:31 | 00:00:00 | |
| DO2JMG | 2026-09-02 06:26:57 | 52.73535 | 8.89360 | 77° | 60km/h | 3161m | -4.9m/s | -2.1°C | 76.2% | 696.4hPa | 2.6V | 07:31:02 | 02:55:30 | 00:00:00 | |
| DL1XH1-15 | 2026-09-02 06:26:56 | 52.73527 | 8.89312 | 73° | 60km/h | 3171m | -5.1m/s | -2.2°C | 71.5% | 695.6hPa | 2.7V | 07:30:40 | 02:55:28 | 00:00:00 | |
| DL1XH1-15 | 2026-09-02 06:26:56 | 52.73502 | 8.89190 | 68° | 62km/h | 3196m | -4.7m/s | -2.4°C | 71.9% | 693.4hPa | 2.6V | 07:30:45 | 02:55:23 | 00:00:00 | |
| BIOWL1-15 | 2026-09-02 06:26:55 | 52.73527 | 8.89312 | 74° | 60km/h | 3171m | -5.1m/s | -2.2°C | 75.5% | 695.6hPa | 2.7V | 07:31:02 | 02:55:28 | 00:00:00 | |
| DB0DAN | 2026-09-02 06:26:55 | 52.73527 | 8.89312 | 74° | 58km/h | 3171m | -5.1m/s | -2.2°C | 69.7% | 695.62hPa | 2.7V | 00:00:00 | 00:00:00 | 00:00:00 | |
| DJ2DS-15 | 2026-09-02 06:26:54 | 52.73523 | 8.89288 | 73° | 62km/h | 3176m | -5.0m/s | -2.2°C | 71.4% | 695.0hPa | 2.7V | 00:00:00 | 02:55:27 | 00:00:00 | |
| DL1XH-15 | 2026-09-02 06:26:54 | 52.73490 | 8.89141 | 68° | 62km/h | 3205m | -4.7m/s | -2.4°C | 72.1% | 692.6hPa | 2.7V | 07:30:47 | 02:55:21 | 00:00:00 | |
| DD8BA-10 | 2026-09-02 06:26:53 | 52.73518 | 8.89263 | 72° | 62km/h | 3182m | -5.2m/s | -2.2°C | 71.5% | 694.6hPa | 2.7V | 00:00:00 | 00:00:00 | 00:00:00 | |
| DL1XH1-15 | 2026-09-02 06:26:50 | 52.73473 | 8.89068 | 69° | 62km/h | 3219m | -4.6m/s | -2.5°C | 71.7% | 691.4hPa | 2.7V | 07:30:50 | 02:55:18 | 00:00:00 | |
| DM0DOS-11 | 2026-09-02 06:26:49 | 52.73467 | 8.89044 | 71° | 62km/h | 3224m | -4.9m/s | -2.5°C | 71.5% | 691hPa | 2.7V | 07:30:51 | 02:55:17 | 00:00:00 | |
| DL1XH-west | 2026-09-02 06:26:48 | 52.73490 | 8.89141 | 68° | 62km/h | 3205m | -4.7m/s | -2.4°C | 75.5% | 692.6hPa | 2.7V | 07:31:02 | 02:55:21 | 00:00:00 | |
| BIOWL1-15 | 2026-09-02 06:26:46 | 52.73467 | 8.89044 | 72° | 62km/h | 3224m | -4.9m/s | -2.5°C | 76.2% | 691hPa | 2.7V | 07:31:02 | 02:55:17 | 00:00:00 | |
| DO2JMG | 2026-09-02 06:26:46 | 52.73478 | 8.89093 | 69° | 62km/h | 3214m | -4.3m/s | -2.4°C | 75.9% | 691.9hPa | 2.7V | 07:31:02 | 02:55:19 | 00:00:00 | |
| DL1XH1-15 | 2026-09-02 06:26:45 | 52.73450 | 8.88947 | 75° | 58km/h | 3242m | -4.6m/s | -2.6°C | 72% | 689.4hPa | 2.7V | 07:30:55 | 02:55:13 | 00:00:00 | |
| DL4XJ-10 | 2026-09-02 06:26:45 | 52.73473 | 8.89068 | 70° | 62km/h | 3219m | -4.6m/s | -1.0°C | 0% | 0hPa | 2.7V | 00:00:00 | 00:00:00 | 00:00:00 | |
| DM0DOS-11 | 2026-09-02 06:26:44 | 52.73446 | 8.88923 | 75° | 58km/h | 3247m | -5.1m/s | -2.7°C | 72.5% | 689hPa | 2.7V | 07:30:56 | 02:55:12 | 00:00:00 | |
| DD8BA-10 | 2026-09-02 06:26:43 | 52.73462 | 8.89019 | 73° | 60km/h | 3228m | -4.8m/s | -2.5°C | 71.7% | 690.6hPa | 2.7V | 00:00:00 | 00:00:00 | 00:00:00 | |
| DB0DAN | 2026-09-02 06:26:40 | 52.73450 | 8.88947 | 76° | 57km/h | 3242m | -4.6m/s | -2.6°C | 70.1% | 689.42hPa | 2.7V | 00:00:00 | 00:00:00 | 00:00:00 | |
| DL1XH1-15 | 2026-09-02 06:26:40 | 52.73431 | 8.88826 | 75° | 62km/h | 3266m | -5m/s | -2.9°C | 74% | 687.3hPa | 2.6V | 07:31:00 | 02:55:08 | 00:00:00 | |
| DL1XH-west | 2026-09-02 06:26:37 | 52.73439 | 8.88875 | 76° | 60km/h | 3257m | -4.6m/s | -2.8°C | 76.8% | 688.1hPa | 2.7V | 07:31:02 | 02:55:10 | 00:00:00 | |
| DO9LL-15 | 2026-09-02 06:26:36 | 52.73435 | 8.88851 | 75° | 66km/h | 3261m | -4.9m/s | -2.8°C | 73.7% | 687.7hPa | 2.7V | 00:00:00 | 02:55:09 | 00:00:00 | |
| DM0DOS-11 | 2026-09-02 06:26:35 | 52.73427 | 8.88800 | 74° | 62km/h | 3271m | -5m/s | -3°C | 74.5% | 686.8hPa | 2.7V | 07:31:01 | 02:55:07 | 00:00:00 | |
| DL1XH1-15 | 2026-09-02 06:26:35 | 52.73409 | 8.88700 | 71° | 64km/h | 3291m | -4.9m/s | -3.1°C | 73.9% | 685hPa | 2.7V | 07:31:05 | 02:55:03 | 00:00:00 | |
| BIOWL1-15 | 2026-09-02 06:26:35 | 52.73423 | 8.88775 | 75° | 62km/h | 3276m | -5.1m/s | -3°C | 77.2% | 686.5hPa | 2.7V | 07:31:02 | 02:55:06 | 00:00:00 | |
| DL3AQ-11 | 2026-09-02 06:26:35 | 52.73427 | 8.88800 | 74° | 62km/h | 3271m | -5.0m/s | -3.0°C | 72.5% | 686.8hPa | 2.6V | 00:00:00 | 00:00:00 | 00:00:00 | |
| DJ2DS-15 | 2026-09-02 06:26:34 | 52.73427 | 8.88800 | 75° | 66km/h | 3271m | -5.0m/s | -2.9°C | 74.5% | 686.8hPa | 2.6V | 00:00:00 | 02:55:07 | 00:00:00 | |
| DL1XH-15 | 2026-09-02 06:26:33 | 52.73398 | 8.88649 | 69° | 66km/h | 3301m | -4.7m/s | -3.2°C | 74.1% | 684.1hPa | 2.6V | 07:31:07 | 02:55:01 | 00:00:00 | |
| DO2JMG | 2026-09-02 06:26:31 | 52.73414 | 8.88725 | 73° | 64km/h | 3286m | -5m/s | -3°C | 77.7% | 685.5hPa | 2.7V | 07:31:53 | 02:55:04 | 00:00:00 | |
| DM0DOS-11 | 2026-09-02 06:26:29 | 52.73404 | 8.88674 | 69° | 64km/h | 3296m | -5.1m/s | -3.1°C | 73.7% | 684.6hPa | 2.6V | 07:31:06 | 02:55:02 | 00:00:00 | |
| DM0DOS-11 | 2026-09-02 06:26:29 | 52.73377 | 8.88544 | 74° | 68km/h | 3320m | -4.8m/s | -3.3°C | 75.3% | 682.6hPa | 2.7V | 07:31:11 | 02:54:57 | 00:00:00 | |
| DL1XH-15 | 2026-09-02 06:26:28 | 52.73372 | 8.88517 | 74° | 66km/h | 3325m | -5.5m/s | -3.4°C | 75% | 682.2hPa | 2.7V | 07:31:12 | 02:54:56 | 00:00:00 | |
| BIOWL1-15 | 2026-09-02 06:26:28 | 52.73368 | 8.88490 | 75° | 68km/h | 3330m | -5.1m/s | -3.4°C | 78.9% | 681.7hPa | 2.6V | 07:31:53 | 02:54:55 | 00:00:00 | |
| DL1XH-west | 2026-09-02 06:26:27 | 52.73392 | 8.88623 | 71° | 66km/h | 3306m | -4.8m/s | -3.3°C | 78.8% | 683.7hPa | 2.7V | 07:31:53 | 02:55:00 | 00:00:00 | |
| DL1XH1-15 | 2026-09-02 06:26:25 | 52.73359 | 8.88436 | 74° | 68km/h | 3341m | -5m/s | -3.5°C | 75.6% | 680.8hPa | 2.7V | 07:31:15 | 02:54:53 | 00:00:00 | |
| DB0DAN | 2026-09-02 06:26:25 | 52.73381 | 8.88571 | 73° | 64km/h | 3315m | -5m/s | -3.3°C | 72.9% | 682.92hPa | 2.7V | 00:00:00 | 00:00:00 | 00:00:00 | |
| DL4XJ-10 | 2026-09-02 06:26:25 | 52.73381 | 8.88571 | 73° | 68km/h | 3316m | -5.0m/s | -1.8°C | 0% | 0hPa | 2.7V | 00:00:00 | 00:00:00 | 00:00:00 | |
| DM0DOS-11 | 2026-09-02 06:26:24 | 52.73354 | 8.88409 | 73° | 68km/h | 3346m | -5.4m/s | -3.5°C | 76% | 680.4hPa | 2.7V | 07:31:16 | 02:54:52 | 00:00:00 | |
| DL3AQ-11 | 2026-09-02 06:26:24 | 52.73372 | 8.88517 | 74° | 66km/h | 3325m | -5.5m/s | -3.4°C | 73.0% | 682.2hPa | 2.7V | 00:00:00 | 00:00:00 | 00:00:00 | |
| DL1XH-15 | 2026-09-02 06:26:23 | 52.73349 | 8.88381 | 72° | 69km/h | 3351m | -5.4m/s | -3.6°C | 75.8% | 679.9hPa | 2.7V | 07:31:17 | 02:54:51 | 00:00:00 | |
| DD8BA-10 | 2026-09-02 06:26:23 | 52.73372 | 8.88517 | 75° | 68km/h | 3325m | -5.4m/s | -3.3°C | 75.0% | 682.1hPa | 2.7V | 00:00:00 | 00:00:00 | 00:00:00 | |
| DJ2DS-15 | 2026-09-02 06:26:22 | 52.73363 | 8.88463 | 74° | 68km/h | 3335m | -5.5m/s | -3.5°C | 73.2% | 681.2hPa | 2.6V | 00:00:00 | 00:00:00 | 00:00:00 | |
| SONCRA | 2026-09-02 06:26:21 | 52.73363 | 8.88463 | 74° | 68km/h | 3335m | -5.5m/s | -3.5°C | 73.2% | 681.2hPa | 2.6V | 00:00:00 | 00:00:00 | 00:00:00 | |
| DL1XH1-15 | 2026-09-02 06:26:20 | 52.73333 | 8.88299 | 73° | 69km/h | 3366m | -5.1m/s | -3.7°C | 75.4% | 678.6hPa | 2.6V | 07:31:20 | 02:54:48 | 00:00:00 | |
| DO2JMG | 2026-09-02 06:26:20 | 52.73358 | 8.88436 | 75° | 68km/h | 3341m | -5m/s | -3.5°C | 79.5% | 680.8hPa | 2.7V | 07:31:53 | 02:54:53 | 00:00:00 | |
| DL1XH-west | 2026-09-02 06:26:17 | 52.73344 | 8.88354 | 73° | 69km/h | 3356m | -4.7m/s | -3.6°C | 80% | 679.4hPa | 2.7V | 07:31:53 | 02:54:50 | 00:00:00 | |
| DL1XH1-15 | 2026-09-02 06:26:15 | 52.73313 | 8.88160 | 78° | 68km/h | 3391m | -4.7m/s | -4°C | 78.2% | 676.6hPa | 2.7V | 07:31:25 | 02:54:43 | 00:00:00 | |
| DM0DOS-11 | 2026-09-02 06:26:14 | 52.73310 | 8.88133 | 79° | 68km/h | 3395m | -4.9m/s | -4.1°C | 78.8% | 676.1hPa | 2.7V | 07:31:26 | 02:54:42 | 00:00:00 | |
| DL1XH-15 | 2026-09-02 06:26:13 | 52.73324 | 8.88243 | 76° | 69km/h | 3376m | -5m/s | -3.7°C | 75.2% | 677.8hPa | 2.7V | 07:31:22 | 02:54:46 | 00:00:00 | |
| DL1XH-15 | 2026-09-02 06:26:13 | 52.73306 | 8.88105 | 79° | 68km/h | 3400m | -4.6m/s | -4.1°C | 78.9% | 675.6hPa | 2.6V | 07:31:27 | 02:54:41 | 00:00:00 | |
| BIOWL1-15 | 2026-09-02 06:26:13 | 52.73316 | 8.88188 | 78° | 68km/h | 3386m | -5.2m/s | -4°C | 81.3% | 677hPa | 2.7V | 07:31:53 | 02:54:44 | 00:00:00 | |
| DD8BA-10 | 2026-09-02 06:26:13 | 52.73324 | 8.88243 | 77° | 68km/h | 3376m | -4.9m/s | -3.7°C | 75.2% | 677.8hPa | 2.7V | 00:00:00 | 00:00:00 | 00:00:00 | |
| BUE01 | 2026-09-02 06:26:12 | 52.73320 | 8.88215 | 77° | 68km/h | 3381m | -5.1m/s | -3.9°C | 74.7% | 677.4hPa | 2.7V | 00:00:00 | 00:00:00 | 00:00:00 | |
| DB0DAN | 2026-09-02 06:26:10 | 52.73313 | 8.88160 | 78° | 64km/h | 3391m | -4.7m/s | -4°C | 76.1% | 676.59hPa | 2.7V | 00:00:00 | 00:00:00 | 00:00:00 | |
| DL1XH1-15 | 2026-09-02 06:26:10 | 52.73298 | 8.88022 | 81° | 68km/h | 3414m | -4.8m/s | -4.2°C | 78.5% | 674.5hPa | 2.7V | 07:31:30 | 02:54:38 | 00:00:00 | |
| DO2JMG | 2026-09-02 06:26:09 | 52.73310 | 8.88133 | 79° | 68km/h | 3395m | -4.9m/s | -4.1°C | 81.8% | 676.1hPa | 2.7V | 07:31:53 | 02:54:42 | 00:00:00 | |
| DL1XH-west | 2026-09-02 06:26:06 | 52.73301 | 8.88050 | 81° | 68km/h | 3409m | -4.8m/s | -4.2°C | 81.5% | 674.9hPa | 2.7V | 07:31:53 | 02:54:39 | 00:00:00 | |
| DO9LL-15 | 2026-09-02 06:26:06 | 52.73301 | 8.88050 | 82° | 64km/h | 3409m | -4.7m/s | -4.1°C | 78.2% | 674.8hPa | 2.7V | 00:00:00 | 02:54:39 | 00:00:00 | |
| DL4BBY-15 | 2026-09-02 06:26:05 | 52.73298 | 8.88022 | 82° | 62km/h | 3414m | -4.7m/s | -2.7°C | 0% | 0hPa | 2.7V | 00:00:00 | 00:00:00 | 00:00:00 | |
| DM0DOS-11 | 2026-09-02 06:26:04 | 52.73285 | 8.87859 | 83° | 62km/h | 3442m | -4.5m/s | -4.5°C | 78.9% | 672.1hPa | 2.7V | 07:31:36 | 02:54:32 | 00:00:00 | |
| DL1XH-15 | 2026-09-02 06:26:03 | 52.73293 | 8.87966 | 81° | 68km/h | 3423m | -5.1m/s | -4.3°C | 78.5% | 673.7hPa | 2.7V | 07:31:32 | 02:54:36 | 00:00:00 | |
| DL1XH-15 | 2026-09-02 06:26:03 | 52.73283 | 8.87834 | 83° | 60km/h | 3447m | -4.7m/s | -4.6°C | 79.2% | 671.6hPa | 2.7V | 07:31:37 | 02:54:31 | 00:00:00 | |
| BIOWL1-15 | 2026-09-02 06:26:03 | 52.73289 | 8.87912 | 83° | 64km/h | 3433m | -4.9m/s | -4.4°C | 81.4% | 672.8hPa | 2.6V | 07:31:53 | 02:54:34 | 00:00:00 | |
| DD8BA-10 | 2026-09-02 06:26:03 | 52.73293 | 8.87966 | 82° | 62km/h | 3424m | -5.0m/s | -4.2°C | 78.5% | 673.7hPa | 2.7V | 00:00:00 | 00:00:00 | 00:00:00 | |
| SMARD9-10 | 2026-09-02 06:26:02 | 52.73293 | 8.87966 | 83° | 68km/h | 3424m | -5.1m/s | -4.3°C | 76.3% | 673.7hPa | 2.7V | 00:00:00 | 00:00:00 | 00:00:00 | |
| DL1XH1-15 | 2026-09-02 06:26:00 | 52.73278 | 8.87758 | 82° | 60km/h | 3460m | -4.2m/s | -4.7°C | 78.6% | 670.4hPa | 2.7V | 07:31:40 | 02:54:28 | 00:00:00 | |
| DO2JMG | 2026-09-02 06:25:58 | 52.73283 | 8.87834 | 84° | 60km/h | 3447m | -4.7m/s | -4.6°C | 81.2% | 671.6hPa | 2.7V | 07:31:53 | 02:54:31 | 00:00:00 | |
| DO2LYB-13 | 2026-09-02 06:25:56 | 52.73282 | 8.87808 | 85° | 60km/h | 3452m | -4.6m/s | -4.6°C | 76.9% | 671.2hPa | 2.7V | 00:00:00 | 00:00:00 | 00:00:00 | |
| DB0DAN | 2026-09-02 06:25:55 | 52.73278 | 8.87758 | 82° | 57km/h | 3460m | -4.2m/s | -4.7°C | 76.3% | 670.43hPa | 2.7V | 00:00:00 | 00:00:00 | 00:00:00 | |
| DL1XH-west | 2026-09-02 06:25:55 | 52.73278 | 8.87758 | 82° | 60km/h | 3460m | -4.2m/s | -4.7°C | 81% | 670.4hPa | 2.7V | 07:31:53 | 02:54:28 | 00:00:00 | |
| DL3AQ-11 | 2026-09-02 06:25:55 | 52.73276 | 8.87734 | 80° | 58km/h | 3464m | -4.1m/s | -4.7°C | 76.1% | 670.0hPa | 2.7V | 00:00:00 | 00:00:00 | 00:00:00 | |
| DM0DOS-11 | 2026-09-02 06:25:54 | 52.73258 | 8.87617 | 73° | 58km/h | 3484m | -4.3m/s | -4.9°C | 78.8% | 668.4hPa | 2.7V | 07:31:46 | 02:54:22 | 00:00:00 | |
| DL1XH-15 | 2026-09-02 06:25:53 | 52.73273 | 8.87710 | 78° | 58km/h | 3468m | -4m/s | -4.7°C | 78.7% | 669.7hPa | 2.6V | 07:31:42 | 02:54:26 | 00:00:00 | |
| DL1XH-15 | 2026-09-02 06:25:53 | 52.73254 | 8.87593 | 72° | 58km/h | 3488m | -4.2m/s | -4.9°C | 78.1% | 667.9hPa | 2.7V | 07:31:47 | 02:54:21 | 00:00:00 | |
| BIOWL1-15 | 2026-09-02 06:25:51 | 52.73266 | 8.87663 | 75° | 58km/h | 3476m | -4.2m/s | -4.8°C | 81.2% | 669.1hPa | 2.7V | 07:31:53 | 02:54:24 | 00:00:00 | |
| DO2JMG | 2026-09-02 06:25:48 | 52.73254 | 8.87593 | 73° | 58km/h | 3488m | -4.2m/s | -4.9°C | 80.7% | 667.9hPa | 2.7V | 07:31:53 | 02:54:21 | 00:00:00 | |
| DJ2DS-15 | 2026-09-02 06:25:46 | 52.73239 | 8.87522 | 70° | 62km/h | 3500m | -4.3m/s | -5.0°C | 75.9% | 667.0hPa | 2.6V | 00:00:00 | 00:00:00 | 00:00:00 | |
| DL1XH1-15 | 2026-09-02 06:25:45 | 52.73210 | 8.87392 | 71° | 68km/h | 3521m | -4.4m/s | -5.2°C | 79.1% | 665.1hPa | 2.6V | 07:31:55 | 02:54:13 | 00:00:00 | |
| DM0DOS-11 | 2026-09-02 06:25:44 | 52.73233 | 8.87497 | 70° | 64km/h | 3505m | -4.1m/s | -5°C | 78.4% | 666.5hPa | 2.7V | 07:31:51 | 02:54:17 | 00:00:00 | |
| DL1XH-west | 2026-09-02 06:25:44 | 52.73233 | 8.87497 | 70° | 64km/h | 3505m | -4.1m/s | -5°C | 80.8% | 666.5hPa | 2.7V | 07:31:53 | 02:54:17 | 00:00:00 | |
| DL1XH-15 | 2026-09-02 06:25:43 | 52.73199 | 8.87340 | 70° | 66km/h | 3529m | -4.3m/s | -5.2°C | 79.2% | 664.6hPa | 2.7V | 07:31:57 | 02:54:11 | 00:00:00 | |
| DD8BA-10 | 2026-09-02 06:25:43 | 52.73227 | 8.87471 | 70° | 66km/h | 3509m | -4.2m/s | -5.0°C | 78.5% | 666.2hPa | 2.7V | 07:31:00 | 00:00:00 | 00:00:00 | |
| BUE01 | 2026-09-02 06:25:41 | 52.73216 | 8.87419 | 69° | 68km/h | 3517m | -4.4m/s | -5.1°C | 76.5% | 665.7hPa | 2.7V | 00:00:00 | 00:00:00 | 00:00:00 | |
| DL1XH1-15 | 2026-09-02 06:25:40 | 52.73182 | 8.87263 | 71° | 64km/h | 3541m | -4.3m/s | -5.3°C | 78.5% | 663.5hPa | 2.7V | 07:32:00 | 02:54:08 | 00:00:00 | |
| BIOWL1-15 | 2026-09-02 06:25:40 | 52.73210 | 8.87392 | 71° | 68km/h | 3521m | -4.4m/s | -5.2°C | 80.7% | 665.1hPa | 2.6V | 07:32:44 | 02:54:13 | 00:00:00 | |
| DB0DAN | 2026-09-02 06:25:40 | 52.73210 | 8.87392 | 71° | 64km/h | 3521m | -4.4m/s | -5.2°C | 76.8% | 665.12hPa | 2.6V | 00:00:00 | 00:00:00 | 00:00:00 | |
| DL1XH-15 | 2026-09-02 06:25:38 | 52.73172 | 8.87213 | 70° | 62km/h | 3550m | -4.5m/s | -5.3°C | 78.9% | 662.8hPa | 2.6V | 07:32:02 | 02:54:06 | 00:00:00 | |
| DO2JMG | 2026-09-02 06:25:38 | 52.73199 | 8.87340 | 70° | 66km/h | 3529m | -4.3m/s | -5.2°C | 80.7% | 664.6hPa | 2.7V | 07:32:44 | 02:54:11 | 00:00:00 | |
| DO9LL-15 | 2026-09-02 06:25:36 | 52.73188 | 8.87288 | 72° | 64km/h | 3538m | -4.2m/s | -5.2°C | 79.4% | 663.8hPa | 2.7V | 00:00:00 | 02:54:09 | 00:00:00 | |
| DL1XH1-15 | 2026-09-02 06:25:35 | 52.73157 | 8.87142 | 72° | 58km/h | 3563m | -4.7m/s | -5.5°C | 79.9% | 661.6hPa | 2.7V | 07:32:05 | 02:54:03 | 00:00:00 | |
| DL4BBY-15 | 2026-09-02 06:25:35 | 52.73182 | 8.87263 | 72° | 64km/h | 3542m | -4.3m/s | -3.8°C | 0% | 0hPa | 2.7V | 00:00:00 | 00:00:00 | 00:00:00 | |
| DM0DOS-11 | 2026-09-02 06:25:34 | 52.73152 | 8.87118 | 72° | 60km/h | 3567m | -5m/s | -5.5°C | 80.1% | 661.3hPa | 2.7V | 07:32:06 | 02:54:02 | 00:00:00 | |
| DL1XH-west | 2026-09-02 06:25:34 | 52.73177 | 8.87238 | 71° | 64km/h | 3546m | -4.2m/s | -5.3°C | 81.2% | 663.2hPa | 2.7V | 07:32:44 | 02:54:07 | 00:00:00 | |
| DJ2DS-15 | 2026-09-02 06:25:34 | 52.73177 | 8.87238 | 72° | 62km/h | 3546m | -4.2m/s | -5.3°C | 79.0% | 663.1hPa | 2.6V | 07:32:00 | 02:54:07 | 00:00:00 | |
| DD8BA-10 | 2026-09-02 06:25:33 | 52.73172 | 8.87213 | 71° | 60km/h | 3550m | -4.5m/s | -5.3°C | 78.9% | 662.7hPa | 2.6V | 00:00:00 | 00:00:00 | 00:00:00 | |
| DL1XH1-15 | 2026-09-02 06:25:30 | 52.73133 | 8.87024 | 70° | 58km/h | 3586m | -4.5m/s | -5.7°C | 80.4% | 659.8hPa | 2.6V | 07:32:10 | 02:53:58 | 00:00:00 | |
| DM0DOS-11 | 2026-09-02 06:25:29 | 52.73128 | 8.87000 | 70° | 60km/h | 3590m | -4.3m/s | -5.7°C | 80.6% | 659.4hPa | 2.7V | 07:32:11 | 02:53:57 | 00:00:00 | |
| BIOWL1-15 | 2026-09-02 06:25:29 | 52.73152 | 8.87118 | 72° | 60km/h | 3567m | -5m/s | -5.5°C | 82.5% | 661.3hPa | 2.7V | 07:32:44 | 02:54:02 | 00:00:00 | |
| DO2JMG | 2026-09-02 06:25:27 | 52.73143 | 8.87071 | 72° | 60km/h | 3577m | -4.5m/s | -5.6°C | 82.6% | 660.6hPa | 2.7V | 07:32:44 | 02:54:00 | 00:00:00 | |
| DL1XH1-15 | 2026-09-02 06:25:25 | 52.73108 | 8.86903 | 71° | 62km/h | 3608m | -4.5m/s | -5.8°C | 80.6% | 658hPa | 2.6V | 07:32:15 | 02:53:53 | 00:00:00 | |
| DB0DAN | 2026-09-02 06:25:25 | 52.73133 | 8.87024 | 71° | 57km/h | 3586m | -4.5m/s | -5.7°C | 78% | 659.78hPa | 2.6V | 00:00:00 | 00:00:00 | 00:00:00 | |
| DL4XJ-10 | 2026-09-02 06:25:25 | 52.73133 | 8.87023 | 71° | 66km/h | 3586m | -4.5m/s | -4.2°C | 0% | 0hPa | 2.7V | 00:00:00 | 00:00:00 | 00:00:00 | |
| DM0DOS-11 | 2026-09-02 06:25:24 | 52.73097 | 8.86854 | 70° | 62km/h | 3617m | -4.5m/s | -5.9°C | 80.4% | 657.2hPa | 2.7V | 07:32:17 | 02:53:51 | 00:00:00 | |
| DL1XH-west | 2026-09-02 06:25:23 | 52.73123 | 8.86977 | 71° | 60km/h | 3594m | -4.4m/s | -5.7°C | 83.6% | 659hPa | 2.7V | 07:32:44 | 02:53:56 | 00:00:00 | |
| DD8BA-10 | 2026-09-02 06:25:23 | 52.73123 | 8.86977 | 72° | 62km/h | 3594m | -4.3m/s | -5.7°C | 80.4% | 659.0hPa | 2.7V | 00:00:00 | 00:00:00 | 00:00:00 | |
| DL1XH1-15 | 2026-09-02 06:25:20 | 52.73081 | 8.86780 | 67° | 62km/h | 3630m | -4.5m/s | -6.1°C | 82.1% | 656hPa | 2.7V | 07:32:20 | 02:53:48 | 00:00:00 | |
| DM0DOS-11 | 2026-09-02 06:25:19 | 52.73075 | 8.86756 | 69° | 62km/h | 3634m | -4.4m/s | -6.1°C | 82.6% | 655.7hPa | 2.7V | 07:32:21 | 02:53:47 | 00:00:00 | |
| DL1XH-15 | 2026-09-02 06:25:19 | 52.73097 | 8.86854 | 70° | 62km/h | 3617m | -4.5m/s | -5.9°C | 80.4% | 657.2hPa | 2.7V | 07:32:17 | 02:53:51 | 00:00:00 | |
| DL1XH-15 | 2026-09-02 06:25:19 | 52.73069 | 8.86731 | 68° | 66km/h | 3639m | -4.3m/s | -6.1°C | 82.8% | 655.2hPa | 2.6V | 07:32:22 | 02:53:46 | 00:00:00 | |
| BIOWL1-15 | 2026-09-02 06:25:18 | 52.73097 | 8.86854 | 70° | 62km/h | 3617m | -4.5m/s | -5.9°C | 83.3% | 657.2hPa | 2.7V | 07:32:44 | 02:53:51 | 00:00:00 | |
| DO2JMG | 2026-09-02 06:25:16 | 52.73087 | 8.86805 | 70° | 64km/h | 3626m | -4.4m/s | -6°C | 83.8% | 656.4hPa | 2.7V | 07:32:44 | 02:53:49 | 00:00:00 | |
| DL1XH1-15 | 2026-09-02 06:25:15 | 52.73050 | 8.86654 | 67° | 68km/h | 3652m | -4.5m/s | -6.2°C | 83.9% | 654.2hPa | 2.7V | 07:32:25 | 02:53:43 | 00:00:00 | |
| DL3AQ-11 | 2026-09-02 06:25:15 | 52.73075 | 8.86756 | 69° | 62km/h | 3634m | -4.4m/s | -6.1°C | 80.1% | 655.7hPa | 2.7V | 00:00:00 | 00:00:00 | 00:00:00 | |
| DJ2DS-15 | 2026-09-02 06:25:14 | 52.73075 | 8.86756 | 70° | 71km/h | 3634m | -4.4m/s | -6.1°C | 82.6% | 655.6hPa | 2.7V | 00:00:00 | 02:53:47 | 00:00:00 | |
| DL1XH-15 | 2026-09-02 06:25:13 | 52.73037 | 8.86599 | 68° | 71km/h | 3661m | -4m/s | -6.3°C | 84.4% | 653.5hPa | 2.7V | 07:32:27 | 02:53:41 | 00:00:00 | |
| DM0DOS-11 | 2026-09-02 06:25:13 | 52.73044 | 8.86627 | 69° | 71km/h | 3657m | -4.6m/s | -6.2°C | 84.3% | 653.8hPa | 2.7V | 07:32:26 | 02:53:42 | 00:00:00 | |
| DL1XH-west | 2026-09-02 06:25:12 | 52.73063 | 8.86706 | 68° | 66km/h | 3643m | -4.4m/s | -6.1°C | 85% | 654.9hPa | 2.6V | 07:32:44 | 02:53:45 | 00:00:00 | |
| DL1XH1-15 | 2026-09-02 06:25:10 | 52.73018 | 8.86514 | 69° | 75km/h | 3674m | -4.6m/s | -6.4°C | 84.6% | 652.3hPa | 2.6V | 07:32:30 | 02:53:38 | 00:00:00 | |
| DB0DAN | 2026-09-02 06:25:10 | 52.73050 | 8.86654 | 68° | 66km/h | 3652m | -4.5m/s | -6.2°C | 81.3% | 654.24hPa | 2.7V | 00:00:00 | 00:00:00 | 00:00:00 | |
| BIOWL1-15 | 2026-09-02 06:25:09 | 52.73031 | 8.86571 | 70° | 73km/h | 3665m | -4.7m/s | -6.3°C | 86% | 653hPa | 2.7V | 07:32:44 | 02:53:40 | 00:00:00 | |
| GOEST3-10 | 2026-09-02 06:25:08 | 52.73037 | 8.86599 | 69° | 73km/h | 3661m | -3.9m/s | -6.2°C | 84.4% | 653.4hPa | 2.7V | 00:00:00 | 02:53:41 | 00:00:00 | |
| DK9SH | 2026-09-02 06:25:07 | 52.73037 | 8.86599 | 70° | 71km/h | 3661m | -4.0m/s | -6.3°C | 81.8% | 653.5hPa | 2.6V | 07:32:00 | 00:00:00 | 00:00:00 | |
| DO9LL-15 | 2026-09-02 06:25:06 | 52.73024 | 8.86542 | 70° | 77km/h | 3670m | -4.5m/s | -6.3°C | 84.3% | 652.7hPa | 2.6V | 00:00:00 | 02:53:39 | 00:00:00 | |
| DL1XH1-15 | 2026-09-02 06:25:05 | 52.72987 | 8.86368 | 73° | 73km/h | 3696m | -4.6m/s | -6.5°C | 84.7% | 650.4hPa | 2.6V | 07:32:35 | 02:53:33 | 00:00:00 | |
| DO2JMG | 2026-09-02 06:25:05 | 52.73018 | 8.86514 | 70° | 75km/h | 3674m | -4.6m/s | -6.4°C | 85.9% | 652.3hPa | 2.6V | 07:32:44 | 02:53:38 | 00:00:00 | |
| DM0DOS-11 | 2026-09-02 06:25:04 | 52.73011 | 8.86485 | 70° | 73km/h | 3678m | -4.1m/s | -6.4°C | 84.9% | 651.8hPa | 2.7V | 07:32:31 | 02:53:37 | 00:00:00 | |
| DM0DOS-11 | 2026-09-02 06:25:04 | 52.72981 | 8.86338 | 72° | 75km/h | 3701m | -5.1m/s | -6.5°C | 84.7% | 650hPa | 2.6V | 07:32:36 | 02:53:32 | 00:00:00 | |
| DL1XH-15 | 2026-09-02 06:25:03 | 52.73005 | 8.86456 | 69° | 75km/h | 3683m | -4.7m/s | -6.4°C | 84.6% | 651.6hPa | 2.7V | 07:32:32 | 02:53:36 | 00:00:00 | |
| DL1XH-15 | 2026-09-02 06:25:03 | 52.72976 | 8.86308 | 75° | 75km/h | 3706m | -5.2m/s | -6.6°C | 85.1% | 649.7hPa | 2.7V | 07:32:37 | 02:53:31 | 00:00:00 | |
| DL1XH-west | 2026-09-02 06:25:01 | 52.72992 | 8.86397 | 70° | 75km/h | 3691m | -4.8m/s | -6.5°C | 86% | 650.9hPa | 2.7V | 07:32:44 | 02:53:34 | 00:00:00 | |
| DL1XH1-15 | 2026-09-02 06:25:00 | 52.72961 | 8.86215 | 76° | 77km/h | 3720m | -4.7m/s | -6.7°C | 85.3% | 648.5hPa | 2.7V | 07:32:40 | 02:53:28 | 00:00:00 | |
| DM0DOS-11 | 2026-09-02 06:24:59 | 52.72957 | 8.86184 | 77° | 77km/h | 3725m | -4.8m/s | -6.6°C | 83.6% | 648hPa | 2.7V | 07:32:41 | 02:53:27 | 00:00:00 | |
| BIOWL1-15 | 2026-09-02 06:24:56 | 52.72966 | 8.86246 | 77° | 77km/h | 3716m | -4.9m/s | -6.7°C | 86.4% | 648.9hPa | 2.7V | 07:32:44 | 02:53:29 | 00:00:00 | |
| DB0DAN | 2026-09-02 06:24:55 | 52.72962 | 8.86215 | 76° | 73km/h | 3720m | -4.7m/s | -6.7°C | 82.7% | 648.52hPa | 2.7V | 00:00:00 | 00:00:00 | 00:00:00 | |
| DO2JMG | 2026-09-02 06:24:55 | 52.72962 | 8.86215 | 76° | 77km/h | 3720m | -4.7m/s | -6.7°C | 85.9% | 648.5hPa | 2.7V | 07:32:44 | 02:53:28 | 00:00:00 | |
| DJ2DS-15 | 2026-09-02 06:24:54 | 52.72957 | 8.86184 | 78° | 78km/h | 3725m | -4.7m/s | -6.6°C | 83.6% | 648.0hPa | 2.7V | 00:00:00 | 02:53:27 | 00:00:00 | |
| DM0DOS-11 | 2026-09-02 06:24:53 | 52.72935 | 8.86028 | 76° | 78km/h | 3748m | -4.8m/s | -6.8°C | 83.3% | 646.2hPa | 2.7V | 07:32:46 | 02:53:22 | 00:00:00 | |
| DL1XH-15 | 2026-09-02 06:24:53 | 52.72953 | 8.86153 | 75° | 77km/h | 3730m | -4.8m/s | -6.7°C | 84% | 647.7hPa | 2.6V | 07:32:42 | 02:53:26 | 00:00:00 | |
| DL1XH-15 | 2026-09-02 06:24:53 | 52.72930 | 8.85996 | 76° | 77km/h | 3753m | -4.4m/s | -6.8°C | 83.5% | 645.8hPa | 2.7V | 07:32:47 | 02:53:21 | 00:00:00 | |
| DL1XH-west | 2026-09-02 06:24:50 | 52.72939 | 8.86059 | 77° | 77km/h | 3744m | -4.8m/s | -6.8°C | 85.1% | 646.6hPa | 2.7V | 07:33:35 | 02:53:23 | 00:00:00 | |
| DL1XH-15 | 2026-09-02 06:24:48 | 52.72908 | 8.85836 | 76° | 78km/h | 3776m | -4.7m/s | -7°C | 83.9% | 643.8hPa | 2.7V | 07:32:52 | 02:53:16 | 00:00:00 | |
| DM0DOS-11 | 2026-09-02 06:24:48 | 52.72913 | 8.85868 | 76° | 80km/h | 3771m | -4.7m/s | -7°C | 83.6% | 644.4hPa | 2.7V | 07:32:51 | 02:53:17 | 00:00:00 | |
| BIOWL1-15 | 2026-09-02 06:24:48 | 52.72921 | 8.85932 | 77° | 77km/h | 3762m | -4.9m/s | -6.9°C | 85.2% | 645hPa | 2.6V | 07:33:35 | 02:53:19 | 00:00:00 | |
| DO2JMG | 2026-09-02 06:24:45 | 52.72917 | 8.85901 | 78° | 78km/h | 3767m | -4.6m/s | -6.9°C | 85.2% | 644.6hPa | 2.6V | 07:33:35 | 02:53:18 | 00:00:00 | |
| DL4XJ-10 | 2026-09-02 06:24:45 | 52.72917 | 8.85901 | 79° | 78km/h | 3767m | -4.5m/s | -5.5°C | 0% | 0hPa | 2.6V | 00:00:00 | 00:00:00 | 00:00:00 | |
| DF5WG-10 | 2026-09-02 06:24:44 | 52.72912 | 8.85868 | 77° | 78km/h | 3771m | -4.6m/s | -6.9°C | 83.6% | 644.3hPa | 2.6V | 00:00:00 | 02:53:17 | 00:00:00 | |
| DB0UT-7 | 2026-09-02 06:24:43 | 52.72908 | 8.85836 | 77° | 80km/h | 3776m | -4.6m/s | -7.0°C | 83.9% | 643.8hPa | 2.6V | 00:00:00 | 02:53:16 | 00:00:00 | |
| GOEST3-10 | 2026-09-02 06:24:42 | 52.72903 | 8.85804 | 78° | 78km/h | 3781m | -5.1m/s | -7.0°C | 84.1% | 643.4hPa | 2.6V | 00:00:00 | 00:00:00 | 00:00:00 | |
| DL1XH1-15 | 2026-09-02 06:24:40 | 52.72895 | 8.85740 | 80° | 78km/h | 3790m | -4.9m/s | -7.1°C | 84% | 642.7hPa | 2.6V | 07:32:55 | 02:53:13 | 00:00:00 | |
| DL1XH1-15 | 2026-09-02 06:24:40 | 52.72874 | 8.85580 | 76° | 78km/h | 3812m | -4.5m/s | -7.3°C | 83.7% | 641hPa | 2.7V | 07:33:00 | 02:53:08 | 00:00:00 | |
| DL1XH-west | 2026-09-02 06:24:40 | 52.72895 | 8.85740 | 80° | 78km/h | 3790m | -4.9m/s | -7.1°C | 86.2% | 642.7hPa | 2.6V | 07:33:35 | 02:53:13 | 00:00:00 | |
| DL1XH-15 | 2026-09-02 06:24:38 | 52.72887 | 8.85676 | 77° | 78km/h | 3799m | -4.7m/s | -7.2°C | 83.6% | 642hPa | 2.7V | 07:32:57 | 02:53:11 | 00:00:00 | |
| DL1XH-15 | 2026-09-02 06:24:38 | 52.72864 | 8.85516 | 77° | 78km/h | 3822m | -4.8m/s | -7.4°C | 84.4% | 640.3hPa | 2.6V | 07:33:02 | 02:53:06 | 00:00:00 | |
| BIOWL1-15 | 2026-09-02 06:24:37 | 52.72874 | 8.85580 | 76° | 78km/h | 3812m | -4.5m/s | -7.3°C | 86.2% | 641hPa | 2.7V | 07:33:35 | 02:53:08 | 00:00:00 | |
| DO2JMG | 2026-09-02 06:24:34 | 52.72869 | 8.85548 | 76° | 80km/h | 3817m | -4.8m/s | -7.3°C | 86.3% | 640.8hPa | 2.7V | 07:33:35 | 02:53:07 | 00:00:00 | |
| DJ2DS-15 | 2026-09-02 06:24:34 | 52.72869 | 8.85548 | 76° | 80km/h | 3817m | -4.8m/s | -7.3°C | 83.9% | 640.7hPa | 2.7V | 00:00:00 | 02:53:07 | 00:00:00 | |
| DL1XH-15 | 2026-09-02 06:24:33 | 52.72840 | 8.85353 | 75° | 80km/h | 3845m | -4.1m/s | -7.5°C | 84% | 638.3hPa | 2.7V | 07:33:07 | 02:53:01 | 00:00:00 | |
| DD8BA-10 | 2026-09-02 06:24:33 | 52.72864 | 8.85516 | 78° | 80km/h | 3822m | -4.7m/s | -7.3°C | 84.4% | 640.3hPa | 2.7V | 00:00:00 | 00:00:00 | 00:00:00 | |
| DL8OAI-8 | 2026-09-02 06:24:32 | 52.72864 | 8.85516 | 79° | 78km/h | 3822m | -4.8m/s | -7.4°C | 81.7% | 640.3hPa | 2.7V | 07:33:00 | 00:00:00 | 00:00:00 | |
| GOEST3-10 | 2026-09-02 06:24:31 | 52.72855 | 8.85451 | 78° | 80km/h | 3831m | -4.6m/s | -7.4°C | 84.4% | 639.5hPa | 2.7V | 07:33:00 | 00:00:00 | 00:00:00 | |
| DL1XH1-15 | 2026-09-02 06:24:30 | 52.72826 | 8.85256 | 77° | 80km/h | 3858m | -4.6m/s | -7.5°C | 82.4% | 637.3hPa | 2.7V | 07:33:10 | 02:52:58 | 00:00:00 | |
| DM0DOS-11 | 2026-09-02 06:24:29 | 52.72822 | 8.85224 | 78° | 80km/h | 3862m | -4.7m/s | -7.6°C | 84.1% | 636.9hPa | 2.7V | 07:33:11 | 02:52:57 | 00:00:00 | |
| DL1XH-west | 2026-09-02 06:24:29 | 52.72845 | 8.85386 | 75° | 80km/h | 3841m | -4.7m/s | -7.4°C | 85.2% | 638.7hPa | 2.7V | 07:33:35 | 02:53:02 | 00:00:00 | |
| BIOWL1-15 | 2026-09-02 06:24:25 | 52.72826 | 8.85256 | 78° | 80km/h | 3858m | -4.6m/s | -7.5°C | 84.2% | 637.3hPa | 2.7V | 07:33:35 | 02:52:58 | 00:00:00 | |
| DB0DAN | 2026-09-02 06:24:25 | 52.72826 | 8.85256 | 78° | 77km/h | 3858m | -4.6m/s | -7.5°C | 79.7% | 637.3hPa | 2.7V | 00:00:00 | 00:00:00 | 00:00:00 | |
| DL4XJ-10 | 2026-09-02 06:24:25 | 52.72826 | 8.85256 | 78° | 78km/h | 3858m | -4.6m/s | -6.1°C | 0% | 0hPa | 2.7V | 00:00:00 | 00:00:00 | 00:00:00 | |
| DL3AQ-11 | 2026-09-02 06:24:24 | 52.72822 | 8.85224 | 78° | 78km/h | 3862m | -4.7m/s | -7.6°C | 81.4% | 636.9hPa | 2.7V | 00:00:00 | 00:00:00 | 00:00:00 | |
| DL1XH-15 | 2026-09-02 06:24:23 | 52.72798 | 8.85025 | 78° | 82km/h | 3889m | -4.4m/s | -7.9°C | 86% | 634.8hPa | 2.7V | 07:33:17 | 02:52:51 | 00:00:00 | |
| DO2JMG | 2026-09-02 06:24:23 | 52.72818 | 8.85191 | 79° | 80km/h | 3867m | -4.5m/s | -7.7°C | 85.7% | 636.6hPa | 2.7V | 07:33:35 | 02:52:56 | 00:00:00 | |
| DD8BA-10 | 2026-09-02 06:24:23 | 52.72818 | 8.85191 | 79° | 80km/h | 3867m | -4.4m/s | -7.7°C | 84.8% | 636.5hPa | 2.7V | 07:33:00 | 00:00:00 | 00:00:00 | |
| GOEST3-10 | 2026-09-02 06:24:21 | 52.72810 | 8.85125 | 79° | 82km/h | 3876m | -4.3m/s | -7.8°C | 85.2% | 635.9hPa | 2.7V | 00:00:00 | 00:00:00 | 00:00:00 | |
| DM0DOS-11 | 2026-09-02 06:24:19 | 52.72784 | 8.84892 | 82° | 80km/h | 3907m | -5m/s | -8.1°C | 86.2% | 633.3hPa | 2.6V | 07:33:21 | 02:52:47 | 00:00:00 | |
| DL1XH-west | 2026-09-02 06:24:18 | 52.72798 | 8.85025 | 79° | 82km/h | 3889m | -4.4m/s | -7.9°C | 86.7% | 634.8hPa | 2.7V | 07:33:35 | 02:52:51 | 00:00:00 | |
| DF5WG-10 | 2026-09-02 06:24:17 | 52.72794 | 8.84992 | 81° | 80km/h | 3893m | -4.3m/s | -7.9°C | 86.1% | 634.4hPa | 2.7V | 07:33:00 | 02:52:50 | 00:00:00 | |
| DL1XH1-15 | 2026-09-02 06:24:15 | 52.72787 | 8.84925 | 81° | 80km/h | 3902m | -4.6m/s | -8.1°C | 86.2% | 633.7hPa | 2.7V | 07:33:20 | 02:52:48 | 00:00:00 | |
| DL1XH1-15 | 2026-09-02 06:24:15 | 52.72776 | 8.84762 | 85° | 77km/h | 3926m | -4.6m/s | -8.1°C | 85% | 631.8hPa | 2.7V | 07:33:25 | 02:52:43 | 00:00:00 | |
| BIOWL1-15 | 2026-09-02 06:24:14 | 52.72784 | 8.84892 | 82° | 80km/h | 3907m | -5m/s | -8.1°C | 86.9% | 633.3hPa | 2.6V | 07:33:35 | 02:52:47 | 00:00:00 | |
| DO2JMG | 2026-09-02 06:24:13 | 52.72782 | 8.84859 | 83° | 78km/h | 3911m | -5m/s | -8°C | 86.2% | 633hPa | 2.6V | 07:33:35 | 02:52:46 | 00:00:00 | |
| DD8BA-10 | 2026-09-02 06:24:13 | 52.72782 | 8.84859 | 84° | 77km/h | 3911m | -4.9m/s | -7.9°C | 85.0% | 632.9hPa | 2.7V | 00:00:00 | 00:00:00 | 00:00:00 | |
| HTAHTA | 2026-09-02 06:24:12 | 52.72779 | 8.84826 | 84° | 77km/h | 3916m | -5.1m/s | -8.0°C | 82.1% | 632.6hPa | 2.7V | 00:00:00 | 00:00:00 | 00:00:00 | |
| GOEST3-10 | 2026-09-02 06:24:11 | 52.72777 | 8.84794 | 85° | 77km/h | 3922m | -4.8m/s | -8.0°C | 84.9% | 632.1hPa | 2.7V | 00:00:00 | 00:00:00 | 00:00:00 | |
| DL1XH1-15 | 2026-09-02 06:24:10 | 52.72770 | 8.84604 | 87° | 73km/h | 3950m | -4.7m/s | -8.3°C | 85.3% | 629.9hPa | 2.7V | 07:33:30 | 02:52:38 | 00:00:00 | |
| DB0DAN | 2026-09-02 06:24:10 | 52.72776 | 8.84762 | 85° | 75km/h | 3926m | -4.6m/s | -8.1°C | 82.2% | 631.8hPa | 2.7V | 00:00:00 | 00:00:00 | 00:00:00 | |
| DM0DOS-11 | 2026-09-02 06:24:09 | 52.72769 | 8.84574 | 86° | 73km/h | 3954m | -4.2m/s | -8.3°C | 85.6% | 629.5hPa | 2.7V | 07:33:31 | 02:52:37 | 00:00:00 | |
| DL1XH-15 | 2026-09-02 06:24:08 | 52.72768 | 8.84544 | 86° | 71km/h | 3959m | -4.5m/s | -8.4°C | 85.9% | 629.3hPa | 2.7V | 07:33:32 | 02:52:36 | 00:00:00 | |
| DL1XH-west | 2026-09-02 06:24:07 | 52.72772 | 8.84666 | 87° | 77km/h | 3940m | -4.8m/s | -8.2°C | 85.9% | 630.8hPa | 2.6V | 07:33:35 | 02:52:40 | 00:00:00 | |
| BIOWL1-15 | 2026-09-02 06:24:06 | 52.72769 | 8.84574 | 87° | 73km/h | 3954m | -4.3m/s | -8.3°C | 85.3% | 629.5hPa | 2.7V | 07:33:35 | 02:52:37 | 00:00:00 | |
| DF5WG-10 | 2026-09-02 06:24:06 | 52.72771 | 8.84635 | 87° | 68km/h | 3945m | -4.8m/s | -8.2°C | 85.1% | 630.3hPa | 2.6V | 00:00:00 | 02:52:39 | 00:00:00 | |
| DL1XH1-15 | 2026-09-02 06:24:05 | 52.72764 | 8.84456 | 84° | 69km/h | 3972m | -4.6m/s | -8.5°C | 86.1% | 628.2hPa | 2.6V | 07:33:35 | 02:52:33 | 00:00:00 | |
| DL4BBY-15 | 2026-09-02 06:24:05 | 52.72770 | 8.84604 | 88° | 66km/h | 3950m | -4.7m/s | -6.8°C | 0% | 0hPa | 2.7V | 00:00:00 | 00:00:00 | 00:00:00 | |
| DM0DOS-11 | 2026-09-02 06:24:04 | 52.72762 | 8.84427 | 84° | 68km/h | 3977m | -4.6m/s | -8.5°C | 86.3% | 627.8hPa | 2.7V | 07:33:36 | 02:52:32 | 00:00:00 | |
| DO2JMG | 2026-09-02 06:24:03 | 52.72768 | 8.84544 | 86° | 71km/h | 3959m | -4.5m/s | -8.4°C | 85.7% | 629.3hPa | 2.7V | 07:33:35 | 02:52:36 | 00:00:00 | |
| DD8BA-10 | 2026-09-02 06:24:03 | 52.72768 | 8.84543 | 87° | 68km/h | 3959m | -4.5m/s | -8.3°C | 85.9% | 629.2hPa | 2.6V | 00:00:00 | 00:00:00 | 00:00:00 | |
| GOEST3-10 | 2026-09-02 06:24:01 | 52.72765 | 8.84484 | 86° | 68km/h | 3968m | -4.5m/s | -8.4°C | 86.2% | 628.5hPa | 2.6V | 00:00:00 | 00:00:00 | 00:00:00 | |
| DM0DOS-11 | 2026-09-02 06:23:59 | 52.72754 | 8.84290 | 84° | 66km/h | 4001m | -5.1m/s | -8.7°C | 86.4% | 625.9hPa | 2.6V | 07:33:41 | 02:52:27 | 00:00:00 | |
| DL1XH-15 | 2026-09-02 06:23:58 | 52.72752 | 8.84263 | 85° | 66km/h | 4006m | -5m/s | -8.7°C | 86.7% | 625.5hPa | 2.6V | 07:33:42 | 02:52:26 | 00:00:00 | |
| DL1XH-west | 2026-09-02 06:23:57 | 52.72759 | 8.84371 | 84° | 66km/h | 3986m | -4.7m/s | -8.6°C | 87.2% | 626.9hPa | 2.7V | 07:34:26 | 02:52:30 | 00:00:00 | |
| GOEST3-10 | 2026-09-02 06:23:56 | 52.72757 | 8.84344 | 84° | 66km/h | 3991m | -4.9m/s | -8.6°C | 86.7% | 626.6hPa | 2.7V | 00:00:00 | 02:52:29 | 00:00:00 | |
| DL1XH1-15 | 2026-09-02 06:23:55 | 52.72749 | 8.84181 | 87° | 66km/h | 4021m | -4.6m/s | -8.8°C | 88% | 624.2hPa | 2.7V | 07:33:45 | 02:52:23 | 00:00:00 | |
| DB0DAN | 2026-09-02 06:23:55 | 52.72755 | 8.84317 | 85° | 62km/h | 3996m | -5m/s | -8.6°C | 83.4% | 626.32hPa | 2.7V | 00:00:00 | 00:00:00 | 00:00:00 | |
| DL3AQ-11 | 2026-09-02 06:23:55 | 52.72754 | 8.84290 | 84° | 64km/h | 4001m | -5.1m/s | -8.7°C | 83.4% | 625.9hPa | 2.7V | 00:00:00 | 00:00:00 | 00:00:00 | |
| DM0DOS-11 | 2026-09-02 06:23:54 | 52.72748 | 8.84153 | 87° | 66km/h | 4025m | -4.4m/s | -8.9°C | 88.5% | 623.9hPa | 2.7V | 07:33:46 | 02:52:22 | 00:00:00 | |
| BIOWL1-15 | 2026-09-02 06:23:53 | 52.72752 | 8.84263 | 85° | 66km/h | 4006m | -5m/s | -8.7°C | 87.1% | 625.5hPa | 2.6V | 07:34:26 | 02:52:26 | 00:00:00 | |
| DO2JMG | 2026-09-02 06:23:52 | 52.72751 | 8.84236 | 86° | 66km/h | 4011m | -4.8m/s | -8.7°C | 87.4% | 624.9hPa | 2.7V | 07:34:26 | 02:52:25 | 00:00:00 | |
| DF5WG-10 | 2026-09-02 06:23:51 | 52.72750 | 8.84208 | 87° | 62km/h | 4016m | -4.9m/s | -8.7°C | 87.6% | 624.6hPa | 2.7V | 00:00:00 | 02:52:24 | 00:00:00 | |
| DL8OAI-8 | 2026-09-02 06:23:50 | 52.72750 | 8.84208 | 88° | 66km/h | 4016m | -4.9m/s | -8.8°C | 84.7% | 624.6hPa | 2.7V | 00:00:00 | 00:00:00 | 00:00:00 | |
| DM0DOS-11 | 2026-09-02 06:23:49 | 52.72741 | 8.84017 | 81° | 64km/h | 4047m | -4.3m/s | -9°C | 88.5% | 622.2hPa | 2.7V | 07:33:51 | 02:52:17 | 00:00:00 | |
| DL1XH1-15 | 2026-09-02 06:23:49 | 52.72743 | 8.84044 | 82° | 64km/h | 4043m | -4.4m/s | -9°C | 88.2% | 622.4hPa | 2.7V | 07:33:50 | 02:52:18 | 00:00:00 | |
| DL1XH-15 | 2026-09-02 06:23:48 | 52.72747 | 8.84125 | 86° | 66km/h | 4030m | -4.2m/s | -8.9°C | 88.7% | 623.5hPa | 2.6V | 07:33:47 | 02:52:21 | 00:00:00 | |
| DL1XH-15 | 2026-09-02 06:23:48 | 52.72738 | 8.83991 | 81° | 64km/h | 4051m | -4.5m/s | -8.8°C | 88.8% | 621.7hPa | 2.7V | 07:33:52 | 02:52:16 | 00:00:00 | |
| DL1XH-west | 2026-09-02 06:23:46 | 52.72745 | 8.84071 | 84° | 66km/h | 4038m | -4.5m/s | -9°C | 87.2% | 622.9hPa | 2.7V | 07:34:26 | 02:52:19 | 00:00:00 | |
| GOEST3-10 | 2026-09-02 06:23:46 | 52.72745 | 8.84071 | 85° | 64km/h | 4038m | -4.4m/s | -8.9°C | 88.2% | 622.8hPa | 2.7V | 00:00:00 | 02:52:19 | 00:00:00 | |
| DL4XJ-10 | 2026-09-02 06:23:45 | 52.72743 | 8.84044 | 83° | 60km/h | 4043m | -4.4m/s | -7.5°C | 0% | 0hPa | 2.7V | 00:00:00 | 00:00:00 | 00:00:00 | |
| DM0DOS-11 | 2026-09-02 06:23:44 | 52.72731 | 8.83889 | 84° | 60km/h | 4069m | -4.3m/s | -8.9°C | 89.8% | 620.4hPa | 2.7V | 07:33:56 | 02:52:12 | 00:00:00 | |
| DL1XH-15 | 2026-09-02 06:23:43 | 52.72729 | 8.83864 | 85° | 60km/h | 4074m | -4.6m/s | -8.9°C | 90.1% | 620hPa | 2.7V | 07:33:57 | 02:52:11 | 00:00:00 | |
| BIOWL1-15 | 2026-09-02 06:23:42 | 52.72736 | 8.83965 | 82° | 62km/h | 4056m | -4.7m/s | -8.7°C | 90.6% | 621.4hPa | 2.7V | 07:34:26 | 02:52:15 | 00:00:00 | |
| DO2JMG | 2026-09-02 06:23:41 | 52.72734 | 8.83939 | 83° | 62km/h | 4061m | -4.6m/s | -8.8°C | 89.8% | 621hPa | 2.6V | 07:34:26 | 02:52:14 | 00:00:00 | |
| DL1XH1-15 | 2026-09-02 06:23:40 | 52.72732 | 8.83914 | 83° | 60km/h | 4065m | -4.2m/s | -8.8°C | 90% | 620.7hPa | 2.6V | 07:33:55 | 02:52:13 | 00:00:00 | |
| DL1XH1-15 | 2026-09-02 06:23:40 | 52.72725 | 8.83789 | 82° | 60km/h | 4087m | -4.4m/s | -8.9°C | 92.2% | 618.9hPa | 2.6V | 07:34:00 | 02:52:08 | 00:00:00 | |
| DB0DAN | 2026-09-02 06:23:40 | 52.72732 | 8.83914 | 84° | 58km/h | 4065m | -4.3m/s | -8.8°C | 86.9% | 620.69hPa | 2.6V | 00:00:00 | 00:00:00 | 00:00:00 | |
| AA1-15 | 2026-09-02 06:23:39 | 52.72731 | 8.83889 | 85° | 60km/h | 4069m | -4.3m/s | -8.9°C | 89.1% | 620.4hPa | 2.7V | 07:34:26 | 02:52:12 | 00:00:00 | |
| DM0DOS-11 | 2026-09-02 06:23:38 | 52.72722 | 8.83763 | 81° | 62km/h | 4092m | -4.5m/s | -8.9°C | 92.2% | 618.6hPa | 2.6V | 07:34:01 | 02:52:07 | 00:00:00 | |
| DL1XH-15 | 2026-09-02 06:23:38 | 52.72720 | 8.83738 | 80° | 62km/h | 4096m | -4.4m/s | -9°C | 92.4% | 618.2hPa | 2.7V | 07:34:02 | 02:52:06 | 00:00:00 | |
| DL1XH-west | 2026-09-02 06:23:35 | 52.72725 | 8.83789 | 82° | 60km/h | 4087m | -4.4m/s | -8.9°C | 91.3% | 618.9hPa | 2.6V | 07:34:26 | 02:52:08 | 00:00:00 | |
| DL4BBY-15 | 2026-09-02 06:23:35 | 52.72724 | 8.83788 | 83° | 58km/h | 4087m | -4.4m/s | -7.4°C | 0% | 0hPa | 2.6V | 00:00:00 | 00:00:00 | 00:00:00 | |
| DM0DOS-11 | 2026-09-02 06:23:33 | 52.72710 | 8.83636 | 81° | 60km/h | 4114m | -4.8m/s | -9°C | 93.2% | 616.7hPa | 2.6V | 07:34:06 | 02:52:02 | 00:00:00 | |
| DL1XH-15 | 2026-09-02 06:23:33 | 52.72707 | 8.83612 | 81° | 58km/h | 4119m | -4.6m/s | -9°C | 93.5% | 616.3hPa | 2.6V | 07:34:07 | 02:52:01 | 00:00:00 | |
| DO2JMG | 2026-09-02 06:23:31 | 52.72714 | 8.83686 | 80° | 62km/h | 4105m | -4.3m/s | -9.1°C | 91.7% | 617.5hPa | 2.7V | 07:34:26 | 02:52:04 | 00:00:00 | |
| GOEST3-10 | 2026-09-02 06:23:31 | 52.72714 | 8.83686 | 81° | 60km/h | 4105m | -4.2m/s | -9.0°C | 92.5% | 617.4hPa | 2.7V | 00:00:00 | 00:00:00 | 00:00:00 | |
| DL8OAI-8 | 2026-09-02 06:23:30 | 52.72714 | 8.83686 | 81° | 62km/h | 4105m | -4.3m/s | -9.1°C | 89.4% | 617.5hPa | 2.7V | 00:00:00 | 00:00:00 | 00:00:00 | |
| DL1XH-15 | 2026-09-02 06:23:28 | 52.72695 | 8.83495 | 77° | 58km/h | 4141m | -4.5m/s | -9.1°C | 95.2% | 614.6hPa | 2.7V | 07:34:12 | 02:51:56 | 00:00:00 | |
| DM0DOS-11 | 2026-09-02 06:23:28 | 52.72698 | 8.83518 | 78° | 57km/h | 4137m | -3.8m/s | -9.1°C | 95% | 614.9hPa | 2.7V | 07:34:11 | 02:51:57 | 00:00:00 | |
| DL1XH-west | 2026-09-02 06:23:25 | 52.72700 | 8.83541 | 80° | 57km/h | 4133m | -4.3m/s | -9.1°C | 91.2% | 615.2hPa | 2.7V | 07:34:26 | 02:51:58 | 00:00:00 | |
| DB0DAN | 2026-09-02 06:23:25 | 52.72700 | 8.83541 | 80° | 55km/h | 4133m | -4.3m/s | -9.1°C | 91.4% | 615.23hPa | 2.7V | 00:00:00 | 00:00:00 | 00:00:00 | |
| DL4XJ-10 | 2026-09-02 06:23:25 | 52.72700 | 8.83541 | 80° | 58km/h | 4133m | -4.3m/s | -7.6°C | 0% | 0hPa | 2.7V | 00:00:00 | 00:00:00 | 00:00:00 | |
| DM0DOS-11 | 2026-09-02 06:23:23 | 52.72681 | 8.83399 | 74° | 60km/h | 4159m | -4m/s | -9.2°C | 95.6% | 613.1hPa | 2.7V | 07:34:16 | 02:51:52 | 00:00:00 | |
| BIOWL1-15 | 2026-09-02 06:23:23 | 52.72688 | 8.83447 | 77° | 58km/h | 4150m | -4.4m/s | -9.2°C | 92.1% | 613.9hPa | 2.6V | 07:34:26 | 02:51:54 | 00:00:00 | |
| DD8BA-10 | 2026-09-02 06:23:23 | 52.72695 | 8.83495 | 78° | 60km/h | 4141m | -4.4m/s | -9.1°C | 95.2% | 614.6hPa | 2.7V | 00:00:00 | 00:00:00 | 00:00:00 | |
| GOEST3-10 | 2026-09-02 06:23:21 | 52.72688 | 8.83447 | 78° | 60km/h | 4150m | -4.4m/s | -9.1°C | 95.0% | 613.9hPa | 2.6V | 00:00:00 | 00:00:00 | 00:00:00 | |
| DL1XH1-15 | 2026-09-02 06:23:20 | 52.72664 | 8.83302 | 74° | 60km/h | 4174m | -4m/s | -9.2°C | 96.2% | 611.9hPa | 2.6V | 07:34:20 | 02:51:48 | 00:00:00 | |
| DO2JMG | 2026-09-02 06:23:20 | 52.72685 | 8.83423 | 77° | 60km/h | 4154m | -4.4m/s | -9.1°C | 92.8% | 613.5hPa | 2.7V | 07:34:26 | 02:51:53 | 00:00:00 | |
| DD1CC3-15 | 2026-09-02 06:23:20 | 52.72685 | 8.83423 | 78° | 60km/h | 4154m | -4.4m/s | -9.1°C | 92.1% | 613.4hPa | 2.7V | 07:34:00 | 00:00:00 | 00:00:00 | |
| BIOWL7-15 | 2026-09-02 06:23:19 | 52.72685 | 8.83423 | 78° | 60km/h | 4154m | -4.4m/s | -9.1°C | 92.1% | 613.4hPa | 2.7V | 00:00:00 | 00:00:00 | 00:00:00 | |
| DL1XH-15 | 2026-09-02 06:23:18 | 52.72677 | 8.83374 | 74° | 60km/h | 4163m | -3.9m/s | -9.2°C | 95.8% | 612.9hPa | 2.7V | 07:34:17 | 02:51:51 | 00:00:00 | |
| DL1XH-15 | 2026-09-02 06:23:18 | 52.72657 | 8.83254 | 75° | 58km/h | 4182m | -3.8m/s | -9.3°C | 96.7% | 611.3hPa | 2.7V | 07:34:22 | 02:51:46 | 00:00:00 | |
| BIOWL1-15 | 2026-09-02 06:23:15 | 52.72649 | 8.83209 | 74° | 57km/h | 4189m | -3.6m/s | -9.2°C | 94.7% | 610.7hPa | 2.7V | 07:34:26 | 02:51:44 | 00:00:00 | |
| SMARD9-10 | 2026-09-02 06:23:15 | 52.72664 | 8.83301 | 76° | 60km/h | 4174m | -4.0m/s | -9.2°C | 92.9% | 611.9hPa | 2.7V | 00:00:00 | 00:00:00 | 00:00:00 | |
| DL1XH-west | 2026-09-02 06:23:15 | 52.72661 | 8.83278 | 76° | 58km/h | 4178m | -3.8m/s | -9.3°C | 94.1% | 611.6hPa | 2.7V | 07:34:26 | 02:51:47 | 00:00:00 | |
| DL1XH-15 | 2026-09-02 06:23:13 | 52.72637 | 8.83142 | 72° | 57km/h | 4200m | -3.3m/s | -9.1°C | 97.4% | 610hPa | 2.7V | 07:34:27 | 02:51:41 | 00:00:00 | |
| DJ2DS-15 | 2026-09-02 06:23:13 | 52.72657 | 8.83254 | 76° | 55km/h | 4182m | -3.7m/s | -9.2°C | 96.7% | 611.3hPa | 2.7V | 00:00:00 | 02:51:46 | 00:00:00 | |
| DB0DAN | 2026-09-02 06:23:10 | 52.72645 | 8.83186 | 73° | 53km/h | 4193m | -3.6m/s | -9.1°C | 93.6% | 610.52hPa | 2.6V | 00:00:00 | 00:00:00 | 00:00:00 | |
| DL1XH1-15 | 2026-09-02 06:23:10 | 52.72624 | 8.83074 | 70° | 57km/h | 4210m | -3.6m/s | -9.2°C | 97.3% | 609.1hPa | 2.7V | 07:34:30 | 02:51:38 | 00:00:00 | |
| DO2JMG | 2026-09-02 06:23:09 | 52.72641 | 8.83164 | 73° | 57km/h | 4196m | -3.7m/s | -9.1°C | 95.3% | 610.3hPa | 2.6V | 07:34:26 | 02:51:42 | 00:00:00 | |
| AA1-15 | 2026-09-02 06:23:05 | 52.72624 | 8.83074 | 70° | 57km/h | 4210m | -3.6m/s | -9.2°C | 93.8% | 609.1hPa | 2.7V | 07:35:17 | 02:51:38 | 00:00:00 | |
| DL1XH-west | 2026-09-02 06:23:04 | 52.72619 | 8.83053 | 69° | 55km/h | 4214m | -3.6m/s | -9.1°C | 93.3% | 608.9hPa | 2.6V | 07:35:17 | 02:51:37 | 00:00:00 | |
| DL1XH-15 | 2026-09-02 06:23:03 | 52.72588 | 8.82927 | 66° | 55km/h | 4236m | -3.7m/s | -9°C | 98.3% | 607.2hPa | 2.7V | 07:34:37 | 02:51:31 | 00:00:00 | |
| DD8BA-10 | 2026-09-02 06:23:03 | 52.72614 | 8.83032 | 69° | 55km/h | 4217m | -3.6m/s | -8.9°C | 97.8% | 608.4hPa | 2.7V | 07:34:00 | 00:00:00 | 00:00:00 | |
| GOEST3-10 | 2026-09-02 06:23:01 | 52.72604 | 8.82990 | 68° | 55km/h | 4225m | -3.7m/s | -8.8°C | 97.8% | 608.0hPa | 2.7V | 00:00:00 | 00:00:00 | 00:00:00 | |
| DL1XH1-15 | 2026-09-02 06:23:00 | 52.72571 | 8.82863 | 67° | 57km/h | 4247m | -3.7m/s | -9.1°C | 98.6% | 606.3hPa | 2.7V | 07:34:40 | 02:51:28 | 00:00:00 | |
| DM0DOS-11 | 2026-09-02 06:22:59 | 52.72565 | 8.82841 | 67° | 57km/h | 4251m | -3.6m/s | -9.1°C | 98.9% | 606hPa | 2.7V | 07:34:41 | 02:51:27 | 00:00:00 | |
| DO2JMG | 2026-09-02 06:22:58 | 52.72588 | 8.82927 | 67° | 55km/h | 4236m | -3.7m/s | -9°C | 96.7% | 607.2hPa | 2.7V | 07:35:17 | 02:51:31 | 00:00:00 | |
| DF5WG-10 | 2026-09-02 06:22:57 | 52.72582 | 8.82906 | 67° | 58km/h | 4240m | -3.8m/s | -9.0°C | 98.6% | 606.8hPa | 2.6V | 00:00:00 | 02:51:30 | 00:00:00 | |
| GOEST3-10 | 2026-09-02 06:22:56 | 52.72577 | 8.82885 | 68° | 57km/h | 4243m | -4.0m/s | -9.0°C | 98.5% | 606.6hPa | 2.6V | 00:00:00 | 02:51:29 | 00:00:00 | |
| DL1XH1-15 | 2026-09-02 06:22:55 | 52.72542 | 8.82751 | 67° | 60km/h | 4265m | -3.5m/s | -9.2°C | 99% | 604.9hPa | 2.6V | 07:34:45 | 02:51:23 | 00:00:00 | |
| AA1-15 | 2026-09-02 06:22:54 | 52.72566 | 8.82841 | 67° | 57km/h | 4251m | -3.6m/s | -9.1°C | 97% | 606hPa | 2.7V | 07:35:17 | 02:51:27 | 00:00:00 | |
| DL1XH-west | 2026-09-02 06:22:53 | 52.72560 | 8.82819 | 67° | 58km/h | 4255m | -3.6m/s | -9.1°C | 97.2% | 605.7hPa | 2.7V | 07:35:17 | 02:51:26 | 00:00:00 | |
| DD8BA-10 | 2026-09-02 06:22:53 | 52.72560 | 8.82819 | 68° | 60km/h | 4255m | -3.5m/s | -9.1°C | 99.1% | 605.7hPa | 2.7V | 00:00:00 | 00:00:00 | 00:00:00 | |
| GOEST3-10 | 2026-09-02 06:22:51 | 52.72548 | 8.82774 | 68° | 60km/h | 4262m | -3.4m/s | -9.1°C | 98.8% | 605.1hPa | 2.6V | 00:00:00 | 00:00:00 | 00:00:00 | |
| DL1XH1-15 | 2026-09-02 06:22:50 | 52.72513 | 8.82633 | 67° | 60km/h | 4283m | -3.6m/s | -9.3°C | 99.4% | 603.5hPa | 2.6V | 07:34:50 | 02:51:18 | 00:00:00 | |
| DM0DOS-11 | 2026-09-02 06:22:49 | 52.72507 | 8.82610 | 66° | 60km/h | 4287m | -3.6m/s | -9.3°C | 99% | 603.2hPa | 2.6V | 07:34:51 | 02:51:17 | 00:00:00 | |
| DO2JMG | 2026-09-02 06:22:48 | 52.72531 | 8.82703 | 68° | 60km/h | 4272m | -3.5m/s | -9.2°C | 97% | 604.2hPa | 2.7V | 07:35:17 | 02:51:21 | 00:00:00 | |
| BIOWL1-15 | 2026-09-02 06:22:47 | 52.72525 | 8.82680 | 68° | 60km/h | 4276m | -3.7m/s | -9.3°C | 97.1% | 604hPa | 2.7V | 07:35:17 | 02:51:20 | 00:00:00 | |
| DF5WG-10 | 2026-09-02 06:22:47 | 52.72525 | 8.82680 | 68° | 62km/h | 4276m | -3.6m/s | -9.2°C | 99.4% | 603.9hPa | 2.7V | 07:34:00 | 02:51:20 | 00:00:00 | |
| GOEST3-10 | 2026-09-02 06:22:46 | 52.72519 | 8.82656 | 68° | 60km/h | 4280m | -3.6m/s | -9.2°C | 99.8% | 603.6hPa | 2.7V | 00:00:00 | 02:51:19 | 00:00:00 | |
| DL1XH1-15 | 2026-09-02 06:22:45 | 52.72483 | 8.82514 | 70° | 64km/h | 4301m | -3.5m/s | -9.4°C | 98.9% | 602.1hPa | 2.7V | 07:34:55 | 02:51:13 | 00:00:00 | |
| DL4XJ-10 | 2026-09-02 06:22:45 | 52.72513 | 8.82650 | 68° | 64km/h | 4283m | -3.6m/s | -7.9°C | 0% | 0hPa | 2.6V | 00:00:00 | 00:00:00 | 00:00:00 | |
| DM0DOS-11 | 2026-09-02 06:22:44 | 52.72478 | 8.82489 | 72° | 66km/h | 4305m | -3.6m/s | -9.4°C | 99% | 601.8hPa | 2.6V | 07:34:56 | 02:51:12 | 00:00:00 | |
| AA1-15 | 2026-09-02 06:22:44 | 52.72507 | 8.82610 | 67° | 60km/h | 4287m | -3.6m/s | -9.3°C | 96.4% | 603.2hPa | 2.6V | 07:35:17 | 02:51:17 | 00:00:00 | |
| DL1XH-west | 2026-09-02 06:22:43 | 52.72501 | 8.82587 | 67° | 60km/h | 4290m | -3.8m/s | -9.3°C | 96.3% | 602.9hPa | 2.7V | 07:35:17 | 02:51:16 | 00:00:00 | |
| DB0UT-7 | 2026-09-02 06:22:43 | 52.72501 | 8.82587 | 68° | 66km/h | 4291m | -3.8m/s | -9.3°C | 98.9% | 602.8hPa | 2.7V | 07:34:00 | 02:51:16 | 00:00:00 | |
| BIOWL9-15 | 2026-09-02 06:22:42 | 52.72495 | 8.82563 | 68° | 62km/h | 4294m | -3.7m/s | -9.3°C | 95.5% | 602.6hPa | 2.7V | 00:00:00 | 00:00:00 | 00:00:00 | |
| GOEST3-10 | 2026-09-02 06:22:41 | 52.72489 | 8.82539 | 70° | 64km/h | 4298m | -3.5m/s | -9.3°C | 98.8% | 602.3hPa | 2.7V | 00:00:00 | 00:00:00 | 00:00:00 | |
| DL1XH1-15 | 2026-09-02 06:22:40 | 52.72460 | 8.82384 | 75° | 66km/h | 4319m | -3.6m/s | -9.2°C | 97.5% | 600.7hPa | 2.7V | 07:35:00 | 02:51:08 | 00:00:00 | |
| DB0DAN | 2026-09-02 06:22:40 | 52.72483 | 8.82514 | 71° | 60km/h | 4301m | -3.6m/s | -9.4°C | 95.5% | 602.09hPa | 2.7V | 00:00:00 | 00:00:00 | 00:00:00 | |
| DO2JMG | 2026-09-02 06:22:37 | 52.72469 | 8.82436 | 74° | 66km/h | 4312m | -3.5m/s | -9.4°C | 94.9% | 601.3hPa | 2.7V | 07:35:17 | 02:51:10 | 00:00:00 | |
| BIOWL1-15 | 2026-09-02 06:22:36 | 52.72464 | 8.82410 | 75° | 66km/h | 4315m | -3.6m/s | -9.3°C | 94.6% | 600.9hPa | 2.7V | 07:35:17 | 02:51:09 | 00:00:00 | |
| DO9LL-15 | 2026-09-02 06:22:36 | 52.72464 | 8.82410 | 75° | 66km/h | 4315m | -3.5m/s | -9.3°C | 98.1% | 600.9hPa | 2.7V | 00:00:00 | 02:51:09 | 00:00:00 | |
| DL4BBY-15 | 2026-09-02 06:22:35 | 52.72460 | 8.82384 | 76° | 66km/h | 4320m | -3.6m/s | -7.7°C | 0% | 0hPa | 2.7V | 00:00:00 | 00:00:00 | 00:00:00 | |
| DK9SH | 2026-09-02 06:22:34 | 52.72460 | 8.82384 | 76° | 66km/h | 4319m | -3.6m/s | -9.2°C | 94.1% | 600.7hPa | 2.7V | 07:35:00 | 00:00:00 | 00:00:00 | |
| DM0DOS-11 | 2026-09-02 06:22:33 | 52.72435 | 8.82224 | 74° | 66km/h | 4340m | -3.5m/s | -9.1°C | 97% | 599.1hPa | 2.7V | 07:35:06 | 02:51:02 | 00:00:00 | |
| AA1-15 | 2026-09-02 06:22:33 | 52.72451 | 8.82331 | 76° | 66km/h | 4326m | -3.4m/s | -9.1°C | 95.1% | 600.2hPa | 2.6V | 07:35:17 | 02:51:06 | 00:00:00 | |
| DL1XH-15 | 2026-09-02 06:22:33 | 52.72430 | 8.82197 | 75° | 66km/h | 4343m | -3.6m/s | -9.1°C | 97.1% | 598.8hPa | 2.7V | 07:35:07 | 02:51:01 | 00:00:00 | |
| DL1XH-west | 2026-09-02 06:22:32 | 52.72447 | 8.82304 | 76° | 66km/h | 4330m | -3.4m/s | -9.1°C | 95.1% | 599.9hPa | 2.6V | 07:35:17 | 02:51:05 | 00:00:00 | |
| GOEST3-10 | 2026-09-02 06:22:31 | 52.72443 | 8.82277 | 76° | 66km/h | 4333m | -3.5m/s | -9.1°C | 97.1% | 599.6hPa | 2.7V | 07:35:00 | 00:00:00 | 00:00:00 | |
| DL1XH1-15 | 2026-09-02 06:22:29 | 52.72419 | 8.82116 | 79° | 66km/h | 4354m | -3.6m/s | -9.2°C | 97.6% | 598hPa | 2.7V | 07:35:10 | 02:50:58 | 00:00:00 | |
| DF5WG-10 | 2026-09-02 06:22:27 | 52.72426 | 8.82170 | 77° | 66km/h | 4347m | -3.7m/s | -9.1°C | 97.6% | 598.5hPa | 2.7V | 00:00:00 | 02:51:00 | 00:00:00 | |
| DO2JMG | 2026-09-02 06:22:27 | 52.72426 | 8.82170 | 77° | 68km/h | 4347m | -3.7m/s | -9.2°C | 95.4% | 598.5hPa | 2.6V | 07:35:17 | 02:51:00 | 00:00:00 | |
| DB0DAN | 2026-09-02 06:22:25 | 52.72419 | 8.82116 | 79° | 62km/h | 4354m | -3.6m/s | -9.2°C | 94.2% | 597.97hPa | 2.7V | 00:00:00 | 00:00:00 | 00:00:00 | |
| BIOWL1-15 | 2026-09-02 06:22:25 | 52.72419 | 8.82116 | 79° | 66km/h | 4354m | -3.6m/s | -9.2°C | 95.4% | 598hPa | 2.7V | 07:35:17 | 02:50:58 | 00:00:00 | |
| DM0DOS-11 | 2026-09-02 06:22:24 | 52.72416 | 8.82090 | 81° | 66km/h | 4358m | -3.6m/s | -9.2°C | 97.7% | 597.8hPa | 2.7V | 07:35:11 | 02:50:57 | 00:00:00 | |
| DL1XH-west | 2026-09-02 06:22:22 | 52.72411 | 8.82036 | 81° | 66km/h | 4365m | -3.5m/s | -9.3°C | 95.1% | 597.2hPa | 2.7V | 07:35:17 | 02:50:55 | 00:00:00 | |
| DL1XH1-15 | 2026-09-02 06:22:20 | 52.72405 | 8.81982 | 78° | 66km/h | 4371m | -3.5m/s | -9.3°C | 97.6% | 596.6hPa | 2.6V | 07:35:15 | 02:50:53 | 00:00:00 | |
| DL1XH1-15 | 2026-09-02 06:22:20 | 52.72386 | 8.81847 | 76° | 68km/h | 4388m | -3.5m/s | -9.4°C | 97.7% | 595.3hPa | 2.6V | 07:35:20 | 02:50:48 | 00:00:00 | |
| DM0DOS-11 | 2026-09-02 06:22:19 | 52.72382 | 8.81820 | 76° | 68km/h | 4391m | -3.5m/s | -9.4°C | 97.7% | 595.1hPa | 2.6V | 07:35:21 | 02:50:47 | 00:00:00 | |
| AA1-15 | 2026-09-02 06:22:18 | 52.72398 | 8.81929 | 76° | 66km/h | 4378m | -3.3m/s | -9.3°C | 95.2% | 596.2hPa | 2.7V | 07:35:17 | 02:50:51 | 00:00:00 | |
| DL1XH-15 | 2026-09-02 06:22:18 | 52.72398 | 8.81929 | 76° | 66km/h | 4378m | -3.3m/s | -9.3°C | 97.5% | 596.2hPa | 2.7V | 07:35:17 | 02:50:51 | 00:00:00 | |
| DL1XH-15 | 2026-09-02 06:22:18 | 52.72378 | 8.81793 | 75° | 68km/h | 4394m | -3.2m/s | -9.4°C | 97.9% | 594.8hPa | 2.7V | 07:35:22 | 02:50:46 | 00:00:00 | |
| DO2JMG | 2026-09-02 06:22:17 | 52.72394 | 8.81902 | 76° | 68km/h | 4381m | -3.2m/s | -9.4°C | 95.5% | 595.9hPa | 2.7V | 07:36:08 | 02:50:50 | 00:00:00 | |
| DF5WG-10 | 2026-09-02 06:22:17 | 52.72394 | 8.81901 | 77° | 66km/h | 4381m | -3.1m/s | -9.3°C | 97.7% | 595.8hPa | 2.7V | 00:00:00 | 02:50:50 | 00:00:00 | |
| GOEST3-10 | 2026-09-02 06:22:16 | 52.72390 | 8.81875 | 77° | 68km/h | 4385m | -3.2m/s | -9.3°C | 97.8% | 595.5hPa | 2.7V | 00:00:00 | 02:50:49 | 00:00:00 | |
| BIOWL1-15 | 2026-09-02 06:22:16 | 52.72382 | 8.81820 | 76° | 68km/h | 4391m | -3.5m/s | -9.4°C | 95.6% | 595.1hPa | 2.6V | 07:36:08 | 02:50:47 | 00:00:00 | |
| DL1XH1-15 | 2026-09-02 06:22:15 | 52.72366 | 8.81713 | 75° | 66km/h | 4404m | -3.2m/s | -9.5°C | 98% | 594hPa | 2.7V | 07:35:25 | 02:50:43 | 00:00:00 | |
| DM0DOS-11 | 2026-09-02 06:22:14 | 52.72361 | 8.81686 | 75° | 66km/h | 4407m | -3.3m/s | -9.5°C | 97.9% | 593.9hPa | 2.6V | 07:35:26 | 02:50:42 | 00:00:00 | |
| DL1XH-west | 2026-09-02 06:22:11 | 52.72370 | 8.81740 | 76° | 66km/h | 4401m | -3.2m/s | -9.5°C | 95.8% | 594.4hPa | 2.7V | 07:36:08 | 02:50:44 | 00:00:00 | |
| GOEST3-10 | 2026-09-02 06:22:11 | 52.72370 | 8.81740 | 76° | 66km/h | 4401m | -3.2m/s | -9.4°C | 98.0% | 594.3hPa | 2.7V | 00:00:00 | 00:00:00 | 00:00:00 | |
| DL1XH1-15 | 2026-09-02 06:22:10 | 52.72343 | 8.81581 | 73° | 66km/h | 4420m | -3.3m/s | -9.5°C | 96.8% | 592.9hPa | 2.7V | 07:35:30 | 02:50:38 | 00:00:00 | |
| DB0DAN | 2026-09-02 06:22:10 | 52.72366 | 8.81713 | 75° | 62km/h | 4404m | -3.2m/s | -9.5°C | 94.6% | 594.04hPa | 2.7V | 00:00:00 | 00:00:00 | 00:00:00 | |
| DM0DOS-11 | 2026-09-02 06:22:09 | 52.72338 | 8.81555 | 74° | 66km/h | 4424m | -3.4m/s | -9.5°C | 96.6% | 592.5hPa | 2.7V | 07:35:31 | 02:50:37 | 00:00:00 | |
| AA1-15 | 2026-09-02 06:22:07 | 52.72352 | 8.81634 | 74° | 66km/h | 4414m | -3.3m/s | -9.5°C | 95.6% | 593.4hPa | 2.7V | 07:39:32 | 02:50:40 | 00:00:00 | |
| DO2JMG | 2026-09-02 06:22:06 | 52.72348 | 8.81608 | 74° | 66km/h | 4417m | -3.2m/s | -9.5°C | 95.7% | 593.2hPa | 2.7V | 07:36:08 | 02:50:39 | 00:00:00 | |
| DO9LL-15 | 2026-09-02 06:22:06 | 52.72348 | 8.81608 | 74° | 60km/h | 4417m | -3.1m/s | -9.5°C | 97.3% | 593.1hPa | 2.7V | 00:00:00 | 02:50:39 | 00:00:00 | |
| DL4BBY-15 | 2026-09-02 06:22:05 | 52.72343 | 8.81581 | 74° | 60km/h | 4420m | -3.3m/s | -8.1°C | 0% | 0hPa | 2.7V | 00:00:00 | 00:00:00 | 00:00:00 | |
| DM0DOS-11 | 2026-09-02 06:22:04 | 52.72321 | 8.81418 | 81° | 68km/h | 4441m | -3.3m/s | -9.5°C | 94.9% | 591.3hPa | 2.7V | 07:35:36 | 02:50:32 | 00:00:00 | |
| BIOWL1-15 | 2026-09-02 06:22:04 | 52.72334 | 8.81528 | 77° | 68km/h | 4427m | -3.4m/s | -9.5°C | 94.9% | 592.4hPa | 2.6V | 07:36:08 | 02:50:36 | 00:00:00 | |
| DL1XH-15 | 2026-09-02 06:22:03 | 52.72334 | 8.81528 | 76° | 68km/h | 4427m | -3.4m/s | -9.5°C | 96.2% | 592.4hPa | 2.6V | 07:35:32 | 02:50:36 | 00:00:00 | |
| DL1XH-15 | 2026-09-02 06:22:03 | 52.72319 | 8.81390 | 83° | 68km/h | 4444m | -3.1m/s | -9.5°C | 94.7% | 591hPa | 2.7V | 07:35:37 | 02:50:31 | 00:00:00 | |
| DL1XH-west | 2026-09-02 06:22:01 | 52.72327 | 8.81473 | 79° | 68km/h | 4434m | -3.5m/s | -9.5°C | 93.9% | 591.9hPa | 2.7V | 07:36:08 | 02:50:34 | 00:00:00 | |
| GOEST3-10 | 2026-09-02 06:22:01 | 52.72327 | 8.81473 | 80° | 68km/h | 4434m | -3.4m/s | -9.5°C | 95.2% | 591.8hPa | 2.7V | 00:00:00 | 00:00:00 | 00:00:00 | |
| DL1XH1-15 | 2026-09-02 06:22:00 | 52.72314 | 8.81307 | 85° | 66km/h | 4454m | -3.3m/s | -9.5°C | 94.6% | 590.3hPa | 2.7V | 07:35:40 | 02:50:28 | 00:00:00 | |
| DM0DOS-11 | 2026-09-02 06:21:59 | 52.72313 | 8.81280 | 85° | 66km/h | 4457m | -3.5m/s | -9.5°C | 94.5% | 590.1hPa | 2.7V | 07:35:41 | 02:50:27 | 00:00:00 | |
| AA1-15 | 2026-09-02 06:21:56 | 52.72316 | 8.81334 | 85° | 66km/h | 4450m | -3.4m/s | -9.5°C | 92.6% | 590.6hPa | 2.6V | 07:39:32 | 02:50:29 | 00:00:00 | |
| DO2JMG | 2026-09-02 06:21:55 | 52.72314 | 8.81307 | 86° | 66km/h | 4454m | -3.3m/s | -9.5°C | 92.8% | 590.3hPa | 2.7V | 07:36:08 | 02:50:28 | 00:00:00 | |
| DB0DAN | 2026-09-02 06:21:55 | 52.72314 | 8.81307 | 86° | 62km/h | 4454m | -3.3m/s | -9.5°C | 91.3% | 590.32hPa | 2.7V | 00:00:00 | 00:00:00 | 00:00:00 | |
| BIOWL1-15 | 2026-09-02 06:21:54 | 52.72311 | 8.81226 | 88° | 64km/h | 4464m | -3.3m/s | -9.6°C | 92.4% | 589.6hPa | 2.7V | 07:36:08 | 02:50:25 | 00:00:00 | |
| DL1XH-15 | 2026-09-02 06:21:53 | 52.72312 | 8.81252 | 86° | 66km/h | 4460m | -3.4m/s | -9.5°C | 94.3% | 589.8hPa | 2.7V | 07:35:42 | 02:50:26 | 00:00:00 | |
| DL1XH-15 | 2026-09-02 06:21:53 | 52.72310 | 8.81124 | 89° | 58km/h | 4477m | -3.2m/s | -9.6°C | 94% | 588.6hPa | 2.7V | 07:35:47 | 02:50:21 | 00:00:00 | |
| DL1XH-west | 2026-09-02 06:21:51 | 52.72311 | 8.81199 | 88° | 62km/h | 4467m | -3.3m/s | -9.6°C | 92% | 589.3hPa | 2.6V | 07:36:08 | 02:50:24 | 00:00:00 | |
| GOEST3-10 | 2026-09-02 06:21:51 | 52.72311 | 8.81199 | 89° | 60km/h | 4467m | -3.3m/s | -9.5°C | 93.8% | 589.2hPa | 2.6V | 07:35:00 | 00:00:00 | 00:00:00 | |
| DM0DOS-11 | 2026-09-02 06:21:50 | 52.72310 | 8.81148 | 89° | 60km/h | 4474m | -3.2m/s | -9.6°C | 94.2% | 588.8hPa | 2.7V | 07:35:46 | 02:50:22 | 00:00:00 | |
| DL1XH1-15 | 2026-09-02 06:21:50 | 52.72309 | 8.81055 | 87° | 53km/h | 4487m | -3.4m/s | -9.7°C | 93.7% | 587.8hPa | 2.6V | 07:35:50 | 02:50:18 | 00:00:00 | |
| AA1-15 | 2026-09-02 06:21:46 | 52.72309 | 8.81077 | 88° | 55km/h | 4483m | -3.4m/s | -9.7°C | 92.1% | 588hPa | 2.7V | 07:39:32 | 02:50:19 | 00:00:00 | |
| GOEST3-10 | 2026-09-02 06:21:46 | 52.72309 | 8.81077 | 88° | 53km/h | 4483m | -3.3m/s | -9.6°C | 93.8% | 588.0hPa | 2.7V | 00:00:00 | 02:50:19 | 00:00:00 | |
| DL1XH1-15 | 2026-09-02 06:21:45 | 52.72303 | 8.80949 | 82° | 51km/h | 4504m | -3.4m/s | -9.7°C | 93.8% | 586.5hPa | 2.7V | 07:35:55 | 02:50:13 | 00:00:00 | |
| DM0DOS-11 | 2026-09-02 06:21:44 | 52.72308 | 8.81033 | 86° | 51km/h | 4490m | -3.4m/s | -9.7°C | 93.8% | 587.6hPa | 2.6V | 07:35:51 | 02:50:17 | 00:00:00 | |
| DO2JMG | 2026-09-02 06:21:44 | 52.72308 | 8.81033 | 86° | 51km/h | 4490m | -3.4m/s | -9.7°C | 92.2% | 587.6hPa | 2.6V | 07:36:08 | 02:50:17 | 00:00:00 | |
| DL1XH-15 | 2026-09-02 06:21:43 | 52.72307 | 8.81012 | 85° | 51km/h | 4493m | -3.4m/s | -9.7°C | 93.9% | 587.3hPa | 2.7V | 07:35:52 | 02:50:16 | 00:00:00 | |
| DL1XH-15 | 2026-09-02 06:21:43 | 52.72299 | 8.80907 | 78° | 51km/h | 4510m | -3.4m/s | -9.8°C | 94.3% | 585.9hPa | 2.6V | 07:35:57 | 02:50:11 | 00:00:00 | |
| DL1XH-west | 2026-09-02 06:21:41 | 52.72305 | 8.80969 | 84° | 51km/h | 4500m | -3.5m/s | -9.7°C | 92.3% | 586.9hPa | 2.7V | 07:36:08 | 02:50:14 | 00:00:00 | |
| DB0DAN | 2026-09-02 06:21:40 | 52.72303 | 8.80949 | 83° | 47km/h | 4504m | -3.4m/s | -9.7°C | 90.5% | 586.48hPa | 2.7V | 00:00:00 | 00:00:00 | 00:00:00 | |
| DM0DOS-11 | 2026-09-02 06:21:39 | 52.72287 | 8.80824 | 77° | 51km/h | 4524m | -3.5m/s | -9.9°C | 94.7% | 585hPa | 2.7V | 07:36:01 | 02:50:07 | 00:00:00 | |
| DD1CC8 | 2026-09-02 06:21:37 | 52.72293 | 8.80866 | 76° | 51km/h | 4517m | -3.5m/s | -9.8°C | 90.8% | 585.5hPa | 2.6V | 00:00:00 | 00:00:00 | 00:00:00 | |
| DL1XH-15 | 2026-09-02 06:21:36 | 52.72285 | 8.80804 | 78° | 51km/h | 4528m | -3.5m/s | -9.9°C | 94.8% | 584.6hPa | 2.6V | 07:36:02 | 02:50:06 | 00:00:00 | |
| DL1XH1-15 | 2026-09-02 06:21:35 | 52.72290 | 8.80845 | 76° | 51km/h | 4521m | -3.7m/s | -9.9°C | 94.4% | 585.2hPa | 2.7V | 07:36:00 | 02:50:08 | 00:00:00 | |
| DL1XH1-15 | 2026-09-02 06:21:35 | 52.72279 | 8.80742 | 82° | 49km/h | 4538m | -3.5m/s | -10°C | 94.6% | 583.8hPa | 2.7V | 07:36:05 | 02:50:03 | 00:00:00 | |
| DO2JMG | 2026-09-02 06:21:34 | 52.72288 | 8.80824 | 77° | 51km/h | 4524m | -3.5m/s | -9.9°C | 92.9% | 585hPa | 2.7V | 07:36:08 | 02:50:07 | 00:00:00 | |
| BIOWL1-15 | 2026-09-02 06:21:32 | 52.72278 | 8.80742 | 83° | 49km/h | 4538m | -3.5m/s | -10°C | 92.8% | 583.9hPa | 2.7V | 07:36:08 | 02:50:03 | 00:00:00 | |
| DL1XH-west | 2026-09-02 06:21:31 | 52.72280 | 8.80763 | 81° | 51km/h | 4535m | -3.2m/s | -10°C | 92.7% | 584.2hPa | 2.7V | 07:36:08 | 02:50:04 | 00:00:00 | |
| GOEST3-10 | 2026-09-02 06:21:31 | 52.72280 | 8.80762 | 82° | 49km/h | 4535m | -3.1m/s | -9.9°C | 94.6% | 584.1hPa | 2.7V | 00:00:00 | 00:00:00 | 00:00:00 | |
| DL1XH1-15 | 2026-09-02 06:21:30 | 52.72271 | 8.80640 | 80° | 49km/h | 4555m | -3.6m/s | -10.1°C | 93.7% | 582.5hPa | 2.7V | 07:36:10 | 02:49:58 | 00:00:00 | |
| DM0DOS-11 | 2026-09-02 06:21:29 | 52.72269 | 8.80620 | 78° | 49km/h | 4559m | -3.5m/s | -10.1°C | 93.6% | 582.4hPa | 2.7V | 07:36:11 | 02:49:57 | 00:00:00 | |
| DL1XH-15 | 2026-09-02 06:21:28 | 52.72266 | 8.80600 | 77° | 49km/h | 4562m | -3.5m/s | -10.1°C | 93.4% | 582hPa | 2.7V | 07:36:12 | 02:49:56 | 00:00:00 | |
| DL3AQ-11 | 2026-09-02 06:21:27 | 52.72274 | 8.80680 | 83° | 49km/h | 4548m | -3.5m/s | -10.0°C | 90.6% | 583.1hPa | 2.6V | 00:00:00 | 00:00:00 | 00:00:00 | |
| GOEST3-10 | 2026-09-02 06:21:26 | 52.72273 | 8.80660 | 83° | 49km/h | 4552m | -3.4m/s | -10.0°C | 93.9% | 582.8hPa | 2.6V | 00:00:00 | 02:49:59 | 00:00:00 | |
| DL1XH1-15 | 2026-09-02 06:21:25 | 52.72256 | 8.80538 | 73° | 55km/h | 4572m | -3.4m/s | -10.2°C | 93.5% | 581.3hPa | 2.6V | 07:36:15 | 02:49:53 | 00:00:00 | |
| DB0DAN | 2026-09-02 06:21:25 | 52.72271 | 8.80640 | 81° | 46km/h | 4555m | -3.6m/s | -10.1°C | 90.3% | 582.5hPa | 2.7V | 00:00:00 | 00:00:00 | 00:00:00 | |
| DL4XJ-10 | 2026-09-02 06:21:25 | 52.72271 | 8.80640 | 81° | 55km/h | 4555m | -3.5m/s | -8.6°C | 0% | 0hPa | 2.7V | 00:00:00 | 00:00:00 | 00:00:00 | |
| DM0DOS-11 | 2026-09-02 06:21:24 | 52.72252 | 8.80515 | 73° | 57km/h | 4576m | -3.5m/s | -10.2°C | 93.3% | 581hPa | 2.7V | 07:36:16 | 02:49:52 | 00:00:00 | |
| DO2JMG | 2026-09-02 06:21:23 | 52.72266 | 8.80600 | 77° | 49km/h | 4562m | -3.5m/s | -10.1°C | 91.9% | 582hPa | 2.7V | 07:36:59 | 02:49:56 | 00:00:00 | |
| DL1XH-west | 2026-09-02 06:21:21 | 52.72260 | 8.80559 | 75° | 53km/h | 4569m | -3.6m/s | -10.1°C | 91.7% | 581.6hPa | 2.6V | 07:36:59 | 02:49:54 | 00:00:00 | |
| BIOWL1-15 | 2026-09-02 06:21:20 | 52.72256 | 8.80538 | 74° | 55km/h | 4572m | -3.4m/s | -10.2°C | 91.9% | 581.3hPa | 2.6V | 07:36:59 | 02:49:53 | 00:00:00 | |
| DM0DOS-11 | 2026-09-02 06:21:19 | 52.72232 | 8.80401 | 73° | 58km/h | 4594m | -3.6m/s | -10.3°C | 93.5% | 579.6hPa | 2.6V | 07:36:21 | 02:49:47 | 00:00:00 | |
| DL1XH-15 | 2026-09-02 06:21:18 | 52.72227 | 8.80378 | 73° | 58km/h | 4597m | -3.5m/s | -10.3°C | 93.7% | 579.4hPa | 2.7V | 07:36:22 | 02:49:46 | 00:00:00 | |
| DF5WG-10 | 2026-09-02 06:21:17 | 52.72244 | 8.80470 | 74° | 58km/h | 4583m | -3.7m/s | -10.2°C | 93.3% | 580.5hPa | 2.7V | 07:36:00 | 02:49:50 | 00:00:00 | |
| GOEST3-10 | 2026-09-02 06:21:16 | 52.72240 | 8.80447 | 74° | 58km/h | 4586m | -3.5m/s | -10.2°C | 93.2% | 580.1hPa | 2.7V | 00:00:00 | 02:49:49 | 00:00:00 | |
| DL1XH1-15 | 2026-09-02 06:21:15 | 52.72215 | 8.80309 | 72° | 58km/h | 4608m | -3.6m/s | -10.4°C | 93.5% | 578.6hPa | 2.7V | 07:36:25 | 02:49:43 | 00:00:00 | |
| DL3AQ-11 | 2026-09-02 06:21:15 | 52.72232 | 8.80401 | 73° | 57km/h | 4594m | -3.6m/s | -10.3°C | 90.1% | 579.6hPa | 2.6V | 00:00:00 | 00:00:00 | 00:00:00 | |
| DM0DOS-11 | 2026-09-02 06:21:14 | 52.72210 | 8.80286 | 73° | 58km/h | 4611m | -3.6m/s | -10.4°C | 93.5% | 578.3hPa | 2.6V | 07:36:26 | 02:49:42 | 00:00:00 | |
| AA1-15 | 2026-09-02 06:21:13 | 52.72227 | 8.80378 | 73° | 58km/h | 4597m | -3.5m/s | -10.3°C | 91.3% | 579.4hPa | 2.7V | 07:39:32 | 02:49:46 | 00:00:00 | |
| DO2JMG | 2026-09-02 06:21:12 | 52.72223 | 8.80355 | 73° | 58km/h | 4601m | -3.6m/s | -10.4°C | 91.4% | 579.1hPa | 2.7V | 07:36:59 | 02:49:45 | 00:00:00 | |
| DL1XH-west | 2026-09-02 06:21:11 | 52.72219 | 8.80332 | 73° | 58km/h | 4604m | -3.7m/s | -10.4°C | 91.4% | 578.9hPa | 2.7V | 07:36:59 | 02:49:44 | 00:00:00 | |
| BIOWL1-15 | 2026-09-02 06:21:10 | 52.72214 | 8.80309 | 73° | 58km/h | 4608m | -3.6m/s | -10.4°C | 91.4% | 578.6hPa | 2.7V | 07:36:59 | 02:49:43 | 00:00:00 | |
| DB0DAN | 2026-09-02 06:21:10 | 52.72214 | 8.80309 | 73° | 55km/h | 4608m | -3.6m/s | -10.4°C | 90.1% | 578.57hPa | 2.7V | 00:00:00 | 00:00:00 | 00:00:00 | |
| BIOWL9-15 | 2026-09-02 06:21:09 | 52.72210 | 8.80286 | 73° | 58km/h | 4611m | -3.6m/s | -10.4°C | 90.1% | 578.3hPa | 2.7V | 00:00:00 | 00:00:00 | 00:00:00 | |
| DO9LL-15 | 2026-09-02 06:21:07 | 52.72197 | 8.80216 | 74° | 55km/h | 4622m | -3.5m/s | -10.4°C | 93.4% | 577.4hPa | 2.7V | 00:00:00 | 02:49:39 | 00:00:00 | |
| DD1CC8 | 2026-09-02 06:21:06 | 52.72193 | 8.80193 | 72° | 57km/h | 4626m | -3.6m/s | -10.5°C | 90.0% | 577.1hPa | 2.7V | 00:00:00 | 00:00:00 | 00:00:00 | |
| DL1XH1-15 | 2026-09-02 06:21:05 | 52.72173 | 8.80084 | 73° | 53km/h | 4645m | -4.1m/s | -10.6°C | 91.9% | 575.8hPa | 2.7V | 07:36:35 | 02:49:33 | 00:00:00 | |
| DL4XJ-10 | 2026-09-02 06:21:05 | 52.72193 | 8.80192 | 73° | 53km/h | 4626m | -3.6m/s | -9.0°C | 0% | 0hPa | 2.7V | 00:00:00 | 00:00:00 | 00:00:00 | |
| DM0DOS-11 | 2026-09-02 06:21:04 | 52.72169 | 8.80063 | 74° | 51km/h | 4649m | -4m/s | -10.6°C | 91.7% | 575.4hPa | 2.7V | 07:36:36 | 02:49:32 | 00:00:00 | |
| DL1XH-15 | 2026-09-02 06:21:03 | 52.72185 | 8.80148 | 72° | 55km/h | 4633m | -3.7m/s | -10.5°C | 93% | 576.6hPa | 2.6V | 07:36:32 | 02:49:36 | 00:00:00 | |
| DL1XH-15 | 2026-09-02 06:21:03 | 52.72166 | 8.80043 | 74° | 51km/h | 4653m | -4m/s | -10.6°C | 91.7% | 575.1hPa | 2.6V | 07:36:37 | 02:49:31 | 00:00:00 | |
| DO2JMG | 2026-09-02 06:21:02 | 52.72181 | 8.80126 | 73° | 55km/h | 4637m | -3.9m/s | -10.6°C | 92.3% | 576.4hPa | 2.7V | 07:36:59 | 02:49:35 | 00:00:00 | |
| DL1XH-west | 2026-09-02 06:21:00 | 52.72173 | 8.80084 | 74° | 53km/h | 4645m | -4.1m/s | -10.6°C | 92.3% | 575.8hPa | 2.7V | 07:36:59 | 02:49:33 | 00:00:00 | |
| BIOWL1-15 | 2026-09-02 06:20:59 | 52.72169 | 8.80063 | 74° | 51km/h | 4649m | -4m/s | -10.6°C | 92.1% | 575.4hPa | 2.7V | 07:36:59 | 02:49:32 | 00:00:00 | |
| DF5WG-10 | 2026-09-02 06:20:57 | 52.72162 | 8.80022 | 76° | 49km/h | 4657m | -4.0m/s | -10.6°C | 91.3% | 574.9hPa | 2.6V | 00:00:00 | 02:49:30 | 00:00:00 | |
| SMARD9-10 | 2026-09-02 06:20:56 | 52.72162 | 8.80022 | 76° | 51km/h | 4657m | -4.0m/s | -10.6°C | 88.0% | 574.9hPa | 2.7V | 00:00:00 | 00:00:00 | 00:00:00 | |
| DB0DAN | 2026-09-02 06:20:55 | 52.72156 | 8.79982 | 76° | 47km/h | 4664m | -3.6m/s | -10.7°C | 88.4% | 574.32hPa | 2.7V | 00:00:00 | 00:00:00 | 00:00:00 | |
| DL1XH1-15 | 2026-09-02 06:20:55 | 52.72156 | 8.79982 | 76° | 49km/h | 4664m | -3.6m/s | -10.7°C | 91.8% | 574.3hPa | 2.7V | 07:36:40 | 02:49:28 | 00:00:00 | |
| DL1XH1-15 | 2026-09-02 06:20:55 | 52.72139 | 8.79885 | 71° | 49km/h | 4682m | -3.8m/s | -10.7°C | 90.8% | 572.9hPa | 2.7V | 07:36:45 | 02:49:23 | 00:00:00 | |
| DM0DOS-11 | 2026-09-02 06:20:54 | 52.72131 | 8.79844 | 68° | 53km/h | 4690m | -3.5m/s | -10.7°C | 89.6% | 572.4hPa | 2.7V | 07:36:47 | 02:49:21 | 00:00:00 | |
| DO2JMG | 2026-09-02 06:20:52 | 52.72147 | 8.79924 | 75° | 47km/h | 4675m | -3.7m/s | -10.7°C | 89.6% | 573.5hPa | 2.6V | 07:36:59 | 02:49:25 | 00:00:00 | |
| DL1LOL-11 | 2026-09-02 06:20:52 | 52.72147 | 8.79923 | 76° | 47km/h | 4675m | -3.7m/s | -10.7°C | 87.8% | 573.5hPa | 2.6V | 00:00:00 | 00:00:00 | 00:00:00 | |
| GOEST3-10 | 2026-09-02 06:20:51 | 52.72143 | 8.79904 | 74° | 51km/h | 4679m | -3.9m/s | -10.7°C | 91.4% | 573.2hPa | 2.6V | 00:00:00 | 00:00:00 | 00:00:00 | |
| DL1XH1-15 | 2026-09-02 06:20:50 | 52.72114 | 8.79778 | 67° | 60km/h | 4700m | -3.5m/s | -10.7°C | 85.9% | 571.6hPa | 2.7V | 07:36:50 | 02:49:18 | 00:00:00 | |
| DF8AY | 2026-09-02 06:20:49 | 52.72135 | 8.79865 | 71° | 51km/h | 4686m | -3.7m/s | -10.7°C | 88.7% | 572.7hPa | 2.7V | 07:36:59 | 02:49:22 | 00:00:00 | |
| DL1XH-15 | 2026-09-02 06:20:49 | 52.72131 | 8.79844 | 68° | 53km/h | 4690m | -3.5m/s | -10.7°C | 89.6% | 572.4hPa | 2.7V | 07:36:47 | 02:49:21 | 00:00:00 | |
| BIOWL1-15 | 2026-09-02 06:20:48 | 52.72131 | 8.79844 | 69° | 53km/h | 4690m | -3.5m/s | -10.7°C | 88.4% | 572.4hPa | 2.7V | 07:36:59 | 02:49:21 | 00:00:00 | |
| DF5WG-10 | 2026-09-02 06:20:47 | 52.72125 | 8.79823 | 68° | 62km/h | 4693m | -3.4m/s | -10.6°C | 88.2% | 571.9hPa | 2.6V | 00:00:00 | 02:49:20 | 00:00:00 | |
| GOEST3-10 | 2026-09-02 06:20:46 | 52.72120 | 8.79801 | 68° | 62km/h | 4697m | -3.4m/s | -10.7°C | 87.8% | 571.8hPa | 2.6V | 00:00:00 | 02:49:19 | 00:00:00 | |
| DL1XH1-15 | 2026-09-02 06:20:45 | 52.72088 | 8.79651 | 76° | 66km/h | 4717m | -3.4m/s | -10.8°C | 85.8% | 570.4hPa | 2.6V | 07:36:55 | 02:49:13 | 00:00:00 | |
| DO2JMG | 2026-09-02 06:20:41 | 52.72093 | 8.79677 | 74° | 66km/h | 4713m | -3.1m/s | -10.8°C | 85.7% | 570.7hPa | 2.6V | 07:36:59 | 02:49:14 | 00:00:00 | |
| GOEST3-10 | 2026-09-02 06:20:41 | 52.72092 | 8.79677 | 74° | 64km/h | 4713m | -3.0m/s | -10.8°C | 86.3% | 570.6hPa | 2.6V | 00:00:00 | 00:00:00 | 00:00:00 | |
| DL1XH1-15 | 2026-09-02 06:20:40 | 52.72074 | 8.79526 | 80° | 58km/h | 4733m | -3.6m/s | -11°C | 86.4% | 569.3hPa | 2.6V | 07:37:00 | 02:49:08 | 00:00:00 | |
| DB0DAN | 2026-09-02 06:20:40 | 52.72088 | 8.79651 | 76° | 62km/h | 4717m | -3.4m/s | -10.8°C | 82.5% | 570.38hPa | 2.6V | 00:00:00 | 00:00:00 | 00:00:00 | |
| DL1XH-15 | 2026-09-02 06:20:38 | 52.72081 | 8.79599 | 79° | 62km/h | 4723m | -3.3m/s | -10.9°C | 86.4% | 570hPa | 2.7V | 07:36:57 | 02:49:11 | 00:00:00 | |
| DL1XH-west | 2026-09-02 06:20:38 | 52.72082 | 8.79599 | 79° | 62km/h | 4723m | -3.3m/s | -10.9°C | 85.4% | 570hPa | 2.7V | 07:36:59 | 02:49:11 | 00:00:00 | |
| BIOWL1-15 | 2026-09-02 06:20:37 | 52.72079 | 8.79574 | 81° | 60km/h | 4726m | -3m/s | -11°C | 85.9% | 569.7hPa | 2.7V | 07:36:59 | 02:49:10 | 00:00:00 | |
| DF5WG-10 | 2026-09-02 06:20:37 | 52.72079 | 8.79574 | 81° | 62km/h | 4727m | -2.9m/s | -10.9°C | 87.0% | 569.7hPa | 2.6V | 00:00:00 | 02:49:10 | 00:00:00 | |
| DO9LL-15 | 2026-09-02 06:20:36 | 52.72076 | 8.79550 | 82° | 58km/h | 4729m | -3.0m/s | -10.9°C | 86.7% | 569.4hPa | 2.6V | 00:00:00 | 02:49:09 | 00:00:00 | |
| DL1XH1-15 | 2026-09-02 06:20:35 | 52.72058 | 8.79399 | 76° | 66km/h | 4749m | -3.6m/s | -11.1°C | 87% | 568hPa | 2.6V | 07:37:05 | 02:49:03 | 00:00:00 | |
| AA1-15 | 2026-09-02 06:20:31 | 52.72062 | 8.79425 | 76° | 64km/h | 4746m | -3.4m/s | -11.1°C | 86.4% | 568.2hPa | 2.7V | 07:39:32 | 02:49:04 | 00:00:00 | |
| DO2JMG | 2026-09-02 06:20:30 | 52.72058 | 8.79399 | 76° | 66km/h | 4749m | -3.6m/s | -11.1°C | 86.3% | 568hPa | 2.6V | 07:37:50 | 02:49:03 | 00:00:00 | |
| BIOWL7-15 | 2026-09-02 06:20:29 | 52.72058 | 8.79399 | 77° | 66km/h | 4749m | -3.6m/s | -11.1°C | 83.7% | 568.0hPa | 2.7V | 00:00:00 | 00:00:00 | 00:00:00 | |
| DL1XH-15 | 2026-09-02 06:20:28 | 52.72050 | 8.79346 | 77° | 64km/h | 4757m | -3.6m/s | -11.2°C | 87.2% | 567.4hPa | 2.7V | 07:37:07 | 02:49:01 | 00:00:00 | |
| DL1XH-west | 2026-09-02 06:20:27 | 52.72047 | 8.79321 | 77° | 62km/h | 4760m | -3.3m/s | -11.2°C | 86.5% | 567.2hPa | 2.7V | 07:37:50 | 02:49:00 | 00:00:00 | |
| DF5WG-10 | 2026-09-02 06:20:27 | 52.72047 | 8.79321 | 77° | 58km/h | 4760m | -3.2m/s | -11.1°C | 87.4% | 567.1hPa | 2.7V | 00:00:00 | 02:49:00 | 00:00:00 | |
| GOEST3-10 | 2026-09-02 06:20:26 | 52.72043 | 8.79296 | 79° | 58km/h | 4763m | -3.0m/s | -11.2°C | 87.6% | 566.9hPa | 2.7V | 00:00:00 | 02:48:59 | 00:00:00 | |
| DL1XH1-15 | 2026-09-02 06:20:25 | 52.72026 | 8.79153 | 77° | 58km/h | 4784m | -4m/s | -11.4°C | 88.4% | 565.4hPa | 2.7V | 07:37:15 | 02:48:53 | 00:00:00 | |
| DL4XJ-10 | 2026-09-02 06:20:25 | 52.72040 | 8.79271 | 80° | 57km/h | 4767m | -3.3m/s | -9.8°C | 0% | 0hPa | 2.6V | 00:00:00 | 00:00:00 | 00:00:00 | |
| DB0DAN | 2026-09-02 06:20:25 | 52.72040 | 8.79272 | 79° | 57km/h | 4766m | -3.4m/s | -11.2°C | 84.4% | 566.75hPa | 2.7V | 00:00:00 | 00:00:00 | 00:00:00 | |
| DL1LOL-11 | 2026-09-02 06:20:24 | 52.72040 | 8.79271 | 80° | 58km/h | 4766m | -3.4m/s | -11.2°C | 84.4% | 566.7hPa | 2.6V | 00:00:00 | 00:00:00 | 00:00:00 | |
| DM0DOS-11 | 2026-09-02 06:20:23 | 52.72020 | 8.79105 | 78° | 57km/h | 4793m | -4m/s | -11.4°C | 88.5% | 564.8hPa | 2.6V | 07:37:17 | 02:48:51 | 00:00:00 | |
| DO2JMG | 2026-09-02 06:20:20 | 52.72026 | 8.79153 | 78° | 58km/h | 4784m | -4m/s | -11.4°C | 88.2% | 565.4hPa | 2.7V | 07:37:50 | 02:48:53 | 00:00:00 | |
| DL1XH-west | 2026-09-02 06:20:17 | 52.72017 | 8.79082 | 78° | 57km/h | 4797m | -4.1m/s | -11.5°C | 87.5% | 564.5hPa | 2.6V | 07:37:50 | 02:48:50 | 00:00:00 | |
| DF8AY | 2026-09-02 06:20:16 | 52.72014 | 8.79059 | 78° | 57km/h | 4800m | -3.9m/s | -11.5°C | 87.5% | 564.2hPa | 2.7V | 07:37:50 | 02:48:49 | 00:00:00 | |
| GOEST3-10 | 2026-09-02 06:20:16 | 52.72014 | 8.79059 | 79° | 57km/h | 4801m | -3.8m/s | -11.5°C | 87.6% | 564.1hPa | 2.7V | 00:00:00 | 02:48:49 | 00:00:00 | |
| DL1XH1-15 | 2026-09-02 06:20:15 | 52.71997 | 8.78921 | 77° | 55km/h | 4823m | -3.8m/s | -11.7°C | 85.2% | 562.6hPa | 2.7V | 07:37:25 | 02:48:43 | 00:00:00 | |
| DL1XH-15 | 2026-09-02 06:20:13 | 52.72005 | 8.78990 | 78° | 57km/h | 4811m | -3.8m/s | -11.6°C | 85.2% | 563.4hPa | 2.6V | 07:37:22 | 02:48:46 | 00:00:00 | |
| DL1XH-15 | 2026-09-02 06:20:13 | 52.71992 | 8.78877 | 78° | 53km/h | 4830m | -3.2m/s | -11.8°C | 85.5% | 562.1hPa | 2.7V | 07:37:27 | 02:48:41 | 00:00:00 | |
| DD8BA-10 | 2026-09-02 06:20:13 | 52.72006 | 8.78990 | 79° | 53km/h | 4811m | -3.8m/s | -11.6°C | 85.2% | 563.4hPa | 2.7V | 00:00:00 | 00:00:00 | 00:00:00 | |
| DL1CLM-18 | 2026-09-02 06:20:12 | 52.72005 | 8.78990 | 80° | 57km/h | 4811m | -3.8m/s | -11.6°C | 81.9% | 563.4hPa | 2.7V | 07:37:00 | 00:00:00 | 00:00:00 | |
| DB0DAN | 2026-09-02 06:20:10 | 52.71997 | 8.78921 | 78° | 53km/h | 4823m | -3.8m/s | -11.7°C | 81.9% | 562.61hPa | 2.7V | 00:00:00 | 00:00:00 | 00:00:00 | |
| DO2JMG | 2026-09-02 06:20:09 | 52.71994 | 8.78899 | 80° | 53km/h | 4827m | -3.6m/s | -11.7°C | 84.2% | 562.3hPa | 2.7V | 07:37:50 | 02:48:42 | 00:00:00 | |
| DL1XH-15 | 2026-09-02 06:20:08 | 52.71978 | 8.78777 | 79° | 51km/h | 4848m | -3.7m/s | -11.8°C | 83.9% | 560.7hPa | 2.7V | 07:37:32 | 02:48:36 | 00:00:00 | |
| BIOWL1-15 | 2026-09-02 06:20:08 | 52.71986 | 8.78837 | 78° | 47km/h | 4837m | -3.8m/s | -11.8°C | 83.7% | 561.6hPa | 2.6V | 07:37:50 | 02:48:39 | 00:00:00 | |
| DL1XH-west | 2026-09-02 06:20:07 | 52.71989 | 8.78856 | 77° | 49km/h | 4833m | -3.3m/s | -11.8°C | 83.1% | 561.8hPa | 2.6V | 07:37:50 | 02:48:40 | 00:00:00 | |
| DF8AY | 2026-09-02 06:20:05 | 52.71984 | 8.78817 | 77° | 49km/h | 4841m | -4.2m/s | -11.9°C | 83.7% | 561.3hPa | 2.7V | 07:37:50 | 02:48:38 | 00:00:00 | |
| DL4BBY-15 | 2026-09-02 06:20:05 | 52.71984 | 8.78817 | 78° | 47km/h | 4841m | -4.1m/s | -10.4°C | 0% | 0hPa | 2.7V | 00:00:00 | 00:00:00 | 00:00:00 | |
| DD1CC8 | 2026-09-02 06:20:04 | 52.71978 | 8.78777 | 79° | 49km/h | 4848m | -3.7m/s | -11.8°C | 80.6% | 560.7hPa | 2.7V | 00:00:00 | 00:00:00 | 00:00:00 | |
| DL1XH-15 | 2026-09-02 06:20:03 | 52.71966 | 8.78671 | 76° | 51km/h | 4867m | -3.5m/s | -12°C | 81.1% | 559.3hPa | 2.7V | 07:37:37 | 02:48:31 | 00:00:00 | |
| DO2JMG | 2026-09-02 06:19:59 | 52.71968 | 8.78692 | 79° | 51km/h | 4864m | -3.6m/s | -11.9°C | 83.6% | 559.6hPa | 2.7V | 07:37:50 | 02:48:32 | 00:00:00 | |
| DL1XH-15 | 2026-09-02 06:19:58 | 52.71947 | 8.78581 | 67° | 46km/h | 4885m | -3.9m/s | -12.1°C | 82.8% | 558.1hPa | 2.7V | 07:37:42 | 02:48:26 | 00:00:00 | |
| AA1-15 | 2026-09-02 06:19:58 | 52.71966 | 8.78671 | 77° | 51km/h | 4867m | -3.5m/s | -12°C | 81.2% | 559.3hPa | 2.7V | 07:39:32 | 02:48:31 | 00:00:00 | |
| DL1XH-west | 2026-09-02 06:19:56 | 52.71959 | 8.78633 | 72° | 46km/h | 4874m | -3.3m/s | -12°C | 83.7% | 558.9hPa | 2.6V | 07:37:50 | 02:48:29 | 00:00:00 | |
| GOEST3-10 | 2026-09-02 06:19:56 | 52.71959 | 8.78633 | 72° | 44km/h | 4874m | -3.2m/s | -12.0°C | 83.6% | 558.8hPa | 2.6V | 00:00:00 | 02:48:29 | 00:00:00 | |
| DL1XH1-15 | 2026-09-02 06:19:55 | 52.71933 | 8.78531 | 65° | 46km/h | 4896m | -4m/s | -12.2°C | 83.2% | 557.1hPa | 2.6V | 07:37:45 | 02:48:23 | 00:00:00 | |
| BIOWL1-15 | 2026-09-02 06:19:55 | 52.71955 | 8.78615 | 70° | 44km/h | 4878m | -3.4m/s | -12°C | 84.2% | 558.5hPa | 2.6V | 07:37:50 | 02:48:28 | 00:00:00 | |
| DB0DAN | 2026-09-02 06:19:55 | 52.71955 | 8.78615 | 70° | 42km/h | 4878m | -3.4m/s | -12°C | 80.5% | 558.53hPa | 2.6V | 00:00:00 | 00:00:00 | 00:00:00 | |
| DL3AQ-11 | 2026-09-02 06:19:55 | 52.71951 | 8.78598 | 66° | 42km/h | 4881m | -3.8m/s | -12.1°C | 79.6% | 558.3hPa | 2.7V | 00:00:00 | 00:00:00 | 00:00:00 | |
| DO2LYB-13 | 2026-09-02 06:19:54 | 52.71955 | 8.78615 | 71° | 44km/h | 4878m | -3.4m/s | -12.0°C | 80.5% | 558.5hPa | 2.7V | 00:00:00 | 00:00:00 | 00:00:00 | |
| DL1XH-15 | 2026-09-02 06:19:53 | 52.71924 | 8.78498 | 65° | 44km/h | 4904m | -3.7m/s | -12.3°C | 82.7% | 556.6hPa | 2.7V | 07:37:47 | 02:48:21 | 00:00:00 | |
| DO2JMG | 2026-09-02 06:19:49 | 52.71929 | 8.78514 | 65° | 44km/h | 4900m | -3.9m/s | -12.3°C | 82.7% | 556.9hPa | 2.7V | 07:37:50 | 02:48:22 | 00:00:00 | |
| DL1XH-15 | 2026-09-02 06:19:48 | 52.71899 | 8.78415 | 62° | 46km/h | 4922m | -3.2m/s | -12.5°C | 83.1% | 555.2hPa | 2.7V | 07:37:52 | 02:48:16 | 00:00:00 | |
| DL1XH-west | 2026-09-02 06:19:45 | 52.71909 | 8.78448 | 64° | 44km/h | 4915m | -3.7m/s | -12.4°C | 82.6% | 555.8hPa | 2.6V | 07:37:50 | 02:48:18 | 00:00:00 | |
| DL1XH1-15 | 2026-09-02 06:19:45 | 52.71881 | 8.78364 | 61° | 46km/h | 4933m | -3.8m/s | -12.6°C | 81.8% | 554.5hPa | 2.6V | 07:37:55 | 02:48:13 | 00:00:00 | |
| DJ2DS-15 | 2026-09-02 06:19:45 | 52.71909 | 8.78448 | 63° | 44km/h | 4915m | -3.7m/s | -12.4°C | 79.5% | 555.8hPa | 2.6V | 00:00:00 | 00:00:00 | 00:00:00 | |
| DF8AY | 2026-09-02 06:19:44 | 52.71876 | 8.78348 | 60° | 46km/h | 4936m | -3.7m/s | -12.6°C | 81.6% | 554.3hPa | 2.6V | 07:38:41 | 02:48:12 | 00:00:00 | |
| BIOWL1-15 | 2026-09-02 06:19:44 | 52.71904 | 8.78431 | 61° | 46km/h | 4919m | -4m/s | -12.4°C | 82.9% | 555.6hPa | 2.6V | 07:38:41 | 02:48:17 | 00:00:00 | |
| DL3AQ-11 | 2026-09-02 06:19:44 | 52.71899 | 8.78415 | 62° | 44km/h | 4922m | -3.3m/s | -12.5°C | 79.8% | 555.2hPa | 2.7V | 00:00:00 | 00:00:00 | 00:00:00 | |
| DD8BA-10 | 2026-09-02 06:19:43 | 52.71899 | 8.78414 | 63° | 47km/h | 4922m | -3.2m/s | -12.4°C | 83.1% | 555.1hPa | 2.7V | 00:00:00 | 00:00:00 | 00:00:00 | |
| DL1CLM-18 | 2026-09-02 06:19:42 | 52.71899 | 8.78414 | 63° | 46km/h | 4922m | -3.3m/s | -12.5°C | 79.8% | 555.2hPa | 2.7V | 00:00:00 | 00:00:00 | 00:00:00 | |
| GOEST3-10 | 2026-09-02 06:19:41 | 52.71887 | 8.78381 | 61° | 47km/h | 4929m | -3.6m/s | -12.5°C | 82.6% | 554.8hPa | 2.7V | 00:00:00 | 00:00:00 | 00:00:00 | |
| DL1XH1-15 | 2026-09-02 06:19:40 | 52.71851 | 8.78277 | 60° | 53km/h | 4951m | -3.7m/s | -12.7°C | 82.1% | 553.2hPa | 2.7V | 07:38:00 | 02:48:08 | 00:00:00 | |
| DB0DAN | 2026-09-02 06:19:40 | 52.71882 | 8.78365 | 61° | 44km/h | 4933m | -3.8m/s | -12.6°C | 78.5% | 554.54hPa | 2.6V | 00:00:00 | 00:00:00 | 00:00:00 | |
| DC6BW-12 | 2026-09-02 06:19:39 | 52.71881 | 8.78364 | 62° | 47km/h | 4933m | -3.8m/s | -12.6°C | 78.5% | 554.5hPa | 2.7V | 07:38:00 | 00:00:00 | 00:00:00 | |
| DL1XH-15 | 2026-09-02 06:19:38 | 52.71870 | 8.78331 | 61° | 46km/h | 4940m | -3.7m/s | -12.6°C | 81.9% | 554hPa | 2.7V | 07:37:57 | 02:48:11 | 00:00:00 | |
| DO2JMG | 2026-09-02 06:19:38 | 52.71870 | 8.78331 | 61° | 46km/h | 4940m | -3.7m/s | -12.6°C | 81.6% | 554hPa | 2.7V | 07:38:41 | 02:48:11 | 00:00:00 | |
| DL1XH-west | 2026-09-02 06:19:35 | 52.71851 | 8.78277 | 60° | 53km/h | 4951m | -3.7m/s | -12.7°C | 81.9% | 553.2hPa | 2.7V | 07:38:41 | 02:48:08 | 00:00:00 | |
| BIOWL1-15 | 2026-09-02 06:19:35 | 52.71837 | 8.78239 | 60° | 55km/h | 4958m | -3.8m/s | -12.8°C | 81.7% | 552.5hPa | 2.6V | 07:38:41 | 02:48:06 | 00:00:00 | |
| DL4BBY-15 | 2026-09-02 06:19:35 | 52.71851 | 8.78277 | 61° | 51km/h | 4951m | -3.7m/s | -11.3°C | 0% | 0hPa | 2.7V | 00:00:00 | 00:00:00 | 00:00:00 | |
| DM0DOS-11 | 2026-09-02 06:19:33 | 52.71797 | 8.78114 | 65° | 58km/h | 4983m | -4.3m/s | -12.9°C | 83.1% | 550.9hPa | 2.7V | 07:38:08 | 02:48:00 | 00:00:00 | |
| DD1CC8 | 2026-09-02 06:19:32 | 52.71830 | 8.78220 | 59° | 53km/h | 4962m | -4.1m/s | -12.8°C | 78.5% | 552.3hPa | 2.7V | 00:00:00 | 00:00:00 | 00:00:00 | |
| GOEST3-10 | 2026-09-02 06:19:31 | 52.71823 | 8.78199 | 62° | 58km/h | 4966m | -3.9m/s | -12.7°C | 82.4% | 552.1hPa | 2.7V | 00:00:00 | 00:00:00 | 00:00:00 | |
| DL1XH1-15 | 2026-09-02 06:19:30 | 52.71786 | 8.78068 | 69° | 60km/h | 4991m | -3.7m/s | -13°C | 83.4% | 550.3hPa | 2.7V | 07:38:10 | 02:47:58 | 00:00:00 | |
| DF8AY | 2026-09-02 06:19:29 | 52.71810 | 8.78158 | 62° | 58km/h | 4974m | -4.1m/s | -12.9°C | 82.5% | 551.5hPa | 2.6V | 07:38:41 | 02:48:02 | 00:00:00 | |
| DO2JMG | 2026-09-02 06:19:28 | 52.71804 | 8.78136 | 64° | 58km/h | 4978m | -4.3m/s | -12.9°C | 82.6% | 551.1hPa | 2.6V | 07:38:41 | 02:48:01 | 00:00:00 | |
| DL1XH-west | 2026-09-02 06:19:25 | 52.71786 | 8.78068 | 70° | 60km/h | 4991m | -3.7m/s | -13°C | 82.6% | 550.3hPa | 2.7V | 07:38:41 | 02:47:58 | 00:00:00 | |
| DB0DAN | 2026-09-02 06:19:25 | 52.71786 | 8.78068 | 70° | 57km/h | 4991m | -3.7m/s | -13°C | 80% | 550.33hPa | 2.7V | 00:00:00 | 00:00:00 | 00:00:00 | |
| DL4XJ-10 | 2026-09-02 06:19:25 | 52.71786 | 8.78068 | 70° | 49km/h | 4991m | -3.7m/s | -11.5°C | 0% | 0hPa | 2.6V | 00:00:00 | 00:00:00 | 00:00:00 | |
| DM0DOS-11 | 2026-09-02 06:19:23 | 52.71771 | 8.77997 | 73° | 58km/h | 5003m | -4.1m/s | -13.1°C | 83.7% | 549.5hPa | 2.6V | 07:38:13 | 02:47:55 | 00:00:00 | |
| BIOWL1-15 | 2026-09-02 06:19:23 | 52.71776 | 8.78021 | 72° | 60km/h | 4999m | -4.1m/s | -13°C | 82.6% | 549.8hPa | 2.6V | 07:38:41 | 02:47:56 | 00:00:00 | |
| DF8AY | 2026-09-02 06:19:18 | 52.71759 | 8.77907 | 80° | 51km/h | 5018m | -3.5m/s | -13.2°C | 82.7% | 548.4hPa | 2.6V | 07:38:41 | 02:47:51 | 00:00:00 | |
| DO2JMG | 2026-09-02 06:19:17 | 52.71757 | 8.77887 | 79° | 47km/h | 5021m | -3.6m/s | -13.2°C | 82.9% | 548.2hPa | 2.6V | 07:38:41 | 02:47:50 | 00:00:00 | |
| DF5WG-10 | 2026-09-02 06:19:17 | 52.71757 | 8.77887 | 79° | 46km/h | 5021m | -3.6m/s | -13.1°C | 84.1% | 548.1hPa | 2.7V | 00:00:00 | 02:47:50 | 00:00:00 | |
| GOEST3-10 | 2026-09-02 06:19:16 | 52.71754 | 8.77868 | 79° | 46km/h | 5025m | -3.9m/s | -13.2°C | 84.1% | 547.8hPa | 2.7V | 00:00:00 | 02:47:49 | 00:00:00 | |
| DL1XH1-15 | 2026-09-02 06:19:15 | 52.71740 | 8.77758 | 79° | 46km/h | 5047m | -3.8m/s | -13.4°C | 84.9% | 546.2hPa | 2.7V | 07:38:25 | 02:47:43 | 00:00:00 | |
| DL1XH-west | 2026-09-02 06:19:14 | 52.71750 | 8.77831 | 78° | 46km/h | 5032m | -4m/s | -13.3°C | 83.3% | 547.4hPa | 2.7V | 07:38:41 | 02:47:47 | 00:00:00 | |
| BIOWL1-15 | 2026-09-02 06:19:14 | 52.71745 | 8.77795 | 78° | 46km/h | 5040m | -3.9m/s | -13.3°C | 83.5% | 546.9hPa | 2.6V | 07:38:41 | 02:47:45 | 00:00:00 | |
| DM0DOS-11 | 2026-09-02 06:19:13 | 52.71745 | 8.77795 | 78° | 46km/h | 5040m | -3.9m/s | -13.3°C | 84.5% | 546.8hPa | 2.6V | 07:38:23 | 02:47:45 | 00:00:00 | |
| DJ2DS-15 | 2026-09-02 06:19:13 | 52.71747 | 8.77813 | 77° | 44km/h | 5036m | -3.8m/s | -13.3°C | 84.3% | 547.0hPa | 2.6V | 00:00:00 | 02:47:46 | 00:00:00 | |
| SMARD9-10 | 2026-09-02 06:19:12 | 52.71747 | 8.77813 | 78° | 44km/h | 5036m | -3.8m/s | -13.3°C | 80.8% | 547.1hPa | 2.7V | 00:00:00 | 00:00:00 | 00:00:00 | |
| DB0DAN | 2026-09-02 06:19:10 | 52.71740 | 8.77758 | 79° | 44km/h | 5047m | -3.8m/s | -13.4°C | 81.4% | 546.26hPa | 2.7V | 00:00:00 | 00:00:00 | 00:00:00 | |
| DL1XH-15 | 2026-09-02 06:19:09 | 52.71727 | 8.77650 | 76° | 42km/h | 5070m | -3.8m/s | -13.6°C | 85.1% | 544.7hPa | 2.7V | 07:38:31 | 02:47:37 | 00:00:00 | |
| DF8AY | 2026-09-02 06:19:08 | 52.71736 | 8.77721 | 79° | 46km/h | 5055m | -3.7m/s | -13.4°C | 84.6% | 545.7hPa | 2.7V | 07:38:41 | 02:47:41 | 00:00:00 | |
| DO2JMG | 2026-09-02 06:19:07 | 52.71734 | 8.77703 | 78° | 44km/h | 5058m | -3.6m/s | -13.5°C | 85.1% | 545.5hPa | 2.6V | 07:38:41 | 02:47:40 | 00:00:00 | |
| DF5WG-10 | 2026-09-02 06:19:07 | 52.71734 | 8.77703 | 79° | 42km/h | 5058m | -3.6m/s | -13.4°C | 86.3% | 545.4hPa | 2.7V | 00:00:00 | 02:47:40 | 00:00:00 | |
| DO9LL-15 | 2026-09-02 06:19:06 | 52.71732 | 8.77685 | 79° | 42km/h | 5062m | -3.9m/s | -13.4°C | 86.6% | 545.1hPa | 2.7V | 00:00:00 | 02:47:39 | 00:00:00 | |
| DL1XH1-15 | 2026-09-02 06:19:05 | 52.71716 | 8.77582 | 72° | 42km/h | 5085m | -4m/s | -13.7°C | 85.3% | 543.7hPa | 2.7V | 07:38:35 | 02:47:33 | 00:00:00 | |
| DL1XH-west | 2026-09-02 06:19:04 | 52.71727 | 8.77650 | 77° | 42km/h | 5070m | -3.8m/s | -13.6°C | 83.9% | 544.7hPa | 2.7V | 07:38:41 | 02:47:37 | 00:00:00 | |
| DM0DOS-11 | 2026-09-02 06:19:03 | 52.71722 | 8.77615 | 75° | 42km/h | 5077m | -3.9m/s | -13.6°C | 85.3% | 544.1hPa | 2.6V | 07:38:33 | 02:47:35 | 00:00:00 | |
| BIOWL1-15 | 2026-09-02 06:19:02 | 52.71722 | 8.77615 | 76° | 42km/h | 5077m | -3.9m/s | -13.6°C | 83.8% | 544.1hPa | 2.6V | 07:38:41 | 02:47:35 | 00:00:00 | |
| HTAHTA | 2026-09-02 06:19:02 | 52.71719 | 8.77598 | 74° | 40km/h | 5081m | -3.9m/s | -13.6°C | 81.5% | 543.9hPa | 2.7V | 00:00:00 | 00:00:00 | 00:00:00 | |
| GOEST3-10 | 2026-09-02 06:19:01 | 52.71719 | 8.77598 | 75° | 42km/h | 5081m | -3.9m/s | -13.6°C | 85.1% | 543.8hPa | 2.7V | 00:00:00 | 00:00:00 | 00:00:00 | |
| DL1XH-15 | 2026-09-02 06:18:59 | 52.71697 | 8.77484 | 73° | 40km/h | 5108m | -3.3m/s | -13.8°C | 85.8% | 542.1hPa | 2.7V | 07:38:41 | 02:47:27 | 00:00:00 | |
| DF8AY | 2026-09-02 06:18:58 | 52.71710 | 8.77549 | 72° | 40km/h | 5093m | -3.8m/s | -13.7°C | 84% | 543.1hPa | 2.6V | 07:38:41 | 02:47:31 | 00:00:00 | |
| DO2JMG | 2026-09-02 06:18:57 | 52.71706 | 8.77533 | 73° | 40km/h | 5097m | -3.7m/s | -13.8°C | 84.2% | 542.9hPa | 2.6V | 07:38:41 | 02:47:30 | 00:00:00 | |
| DF5WG-10 | 2026-09-02 06:18:57 | 52.71706 | 8.77533 | 73° | 42km/h | 5097m | -3.7m/s | -13.7°C | 85.7% | 542.8hPa | 2.6V | 00:00:00 | 02:47:30 | 00:00:00 | |
| GOEST3-10 | 2026-09-02 06:18:56 | 52.71703 | 8.77517 | 75° | 42km/h | 5101m | -3.4m/s | -13.7°C | 85.9% | 542.6hPa | 2.6V | 00:00:00 | 02:47:29 | 00:00:00 | |
| DL1XH1-15 | 2026-09-02 06:18:55 | 52.71687 | 8.77417 | 77° | 40km/h | 5122m | -3.6m/s | -13.9°C | 85.9% | 541hPa | 2.6V | 07:38:45 | 02:47:23 | 00:00:00 | |
| DB0DAN | 2026-09-02 06:18:55 | 52.71700 | 8.77500 | 73° | 38km/h | 5104m | -4m/s | -13.8°C | 82.3% | 542.29hPa | 2.7V | 00:00:00 | 00:00:00 | 00:00:00 | |
| BIOWL1-15 | 2026-09-02 06:18:53 | 52.71689 | 8.77434 | 77° | 42km/h | 5119m | -3.4m/s | -13.9°C | 84.5% | 541.3hPa | 2.6V | 07:39:32 | 02:47:24 | 00:00:00 | |
| DL1XH-west | 2026-09-02 06:18:53 | 52.71695 | 8.77467 | 74° | 42km/h | 5111m | -3.8m/s | -13.8°C | 84.4% | 541.9hPa | 2.7V | 07:39:32 | 02:47:26 | 00:00:00 | |
| DJ2DS-15 | 2026-09-02 06:18:53 | 52.71695 | 8.77467 | 74° | 46km/h | 5111m | -3.8m/s | -13.8°C | 85.7% | 541.9hPa | 2.7V | 00:00:00 | 02:47:26 | 00:00:00 | |
| DL8OAI-8 | 2026-09-02 06:18:51 | 52.71689 | 8.77434 | 78° | 42km/h | 5119m | -3.4m/s | -13.9°C | 82.3% | 541.3hPa | 2.7V | 07:39:00 | 00:00:00 | 00:00:00 | |
| DD1CC3-15 | 2026-09-02 06:18:50 | 52.71689 | 8.77434 | 78° | 42km/h | 5119m | -3.4m/s | -13.9°C | 82.3% | 541.3hPa | 2.7V | 07:39:00 | 00:00:00 | 00:00:00 | |
| DL1XH-15 | 2026-09-02 06:18:49 | 52.71669 | 8.77321 | 66° | 40km/h | 5144m | -3.7m/s | -14.1°C | 86.8% | 539.5hPa | 2.7V | 07:38:51 | 02:47:17 | 00:00:00 | |
| DO2JMG | 2026-09-02 06:18:47 | 52.71679 | 8.77368 | 74° | 40km/h | 5133m | -3.9m/s | -14°C | 84.5% | 540.3hPa | 2.7V | 07:39:32 | 02:47:20 | 00:00:00 | |
| DF5WG-10 | 2026-09-02 06:18:47 | 52.71679 | 8.77368 | 74° | 44km/h | 5133m | -3.8m/s | -13.9°C | 86.1% | 540.3hPa | 2.6V | 00:00:00 | 02:47:20 | 00:00:00 | |
| GOEST3-10 | 2026-09-02 06:18:46 | 52.71676 | 8.77352 | 73° | 42km/h | 5137m | -3.6m/s | -14.0°C | 86.1% | 540.0hPa | 2.6V | 00:00:00 | 02:47:19 | 00:00:00 | |
| DL1XH1-15 | 2026-09-02 06:18:45 | 52.71650 | 8.77255 | 62° | 49km/h | 5159m | -3.7m/s | -14.2°C | 86.9% | 538.5hPa | 2.6V | 07:38:55 | 02:47:13 | 00:00:00 | |
| DL1XH-west | 2026-09-02 06:18:43 | 52.71665 | 8.77305 | 66° | 42km/h | 5148m | -3.6m/s | -14.1°C | 84.4% | 539.2hPa | 2.7V | 07:39:32 | 02:47:16 | 00:00:00 | |
| BIOWL1-15 | 2026-09-02 06:18:41 | 52.71655 | 8.77272 | 63° | 46km/h | 5155m | -3.5m/s | -14.1°C | 84.5% | 538.8hPa | 2.6V | 07:39:32 | 02:47:14 | 00:00:00 | |
| DB0DAN | 2026-09-02 06:18:40 | 52.71650 | 8.77255 | 62° | 46km/h | 5159m | -3.7m/s | -14.2°C | 83.2% | 538.45hPa | 2.6V | 00:00:00 | 00:00:00 | 00:00:00 | |
| DL1XH-15 | 2026-09-02 06:18:39 | 52.71615 | 8.77136 | 65° | 57km/h | 5181m | -3.6m/s | -14.3°C | 87.5% | 536.9hPa | 2.6V | 07:39:01 | 02:47:07 | 00:00:00 | |
| DO2JMG | 2026-09-02 06:18:36 | 52.71626 | 8.77177 | 65° | 55km/h | 5174m | -3.4m/s | -14.3°C | 85.3% | 537.5hPa | 2.6V | 07:39:32 | 02:47:09 | 00:00:00 | |
| DO9LL-15 | 2026-09-02 06:18:36 | 52.71626 | 8.77177 | 65° | 57km/h | 5174m | -3.4m/s | -14.2°C | 87.4% | 537.5hPa | 2.6V | 00:00:00 | 02:47:09 | 00:00:00 | |
| DL1XH1-15 | 2026-09-02 06:18:35 | 52.71591 | 8.77052 | 64° | 55km/h | 5195m | -3.6m/s | -14.4°C | 87.8% | 535.9hPa | 2.6V | 07:39:05 | 02:47:03 | 00:00:00 | |
| DL1XH-west | 2026-09-02 06:18:32 | 52.71603 | 8.77093 | 65° | 55km/h | 5188m | -3.7m/s | -14.4°C | 85.2% | 536.4hPa | 2.6V | 07:39:32 | 02:47:05 | 00:00:00 | |
| BIOWL1-15 | 2026-09-02 06:18:31 | 52.71597 | 8.77072 | 65° | 55km/h | 5192m | -3.8m/s | -14.4°C | 85.2% | 536.1hPa | 2.6V | 07:39:32 | 02:47:04 | 00:00:00 | |
| HTAHTA | 2026-09-02 06:18:31 | 52.71591 | 8.77052 | 64° | 53km/h | 5195m | -3.6m/s | -14.4°C | 84.0% | 535.9hPa | 2.6V | 00:00:00 | 00:00:00 | 00:00:00 | |
| DD1CC8 | 2026-09-02 06:18:30 | 52.71591 | 8.77052 | 64° | 53km/h | 5195m | -3.6m/s | -14.4°C | 84.0% | 535.9hPa | 2.6V | 00:00:00 | 00:00:00 | 00:00:00 | |
| GOEST3-10 | 2026-09-02 06:18:29 | 52.71585 | 8.77032 | 65° | 53km/h | 5199m | -3.6m/s | -14.3°C | 88.2% | 535.6hPa | 2.6V | 07:39:00 | 00:00:00 | 00:00:00 | |
| DM0DOS-11 | 2026-09-02 06:18:27 | 52.71545 | 8.76892 | 64° | 55km/h | 5225m | -3.9m/s | -14.6°C | 89.6% | 533.8hPa | 2.6V | 07:39:13 | 02:46:55 | 00:00:00 | |
| DO2JMG | 2026-09-02 06:18:26 | 52.71568 | 8.76972 | 65° | 53km/h | 5210m | -3.6m/s | -14.5°C | 86.8% | 534.9hPa | 2.6V | 07:39:32 | 02:46:59 | 00:00:00 | |
| DL1XH-15 | 2026-09-02 06:18:25 | 52.71556 | 8.76932 | 64° | 53km/h | 5217m | -3.8m/s | -14.5°C | 89.5% | 534.3hPa | 2.6V | 07:39:11 | 02:46:57 | 00:00:00 | |
| DB0DAN | 2026-09-02 06:18:25 | 52.71562 | 8.76952 | 65° | 51km/h | 5214m | -3.7m/s | -14.5°C | 85.3% | 534.63hPa | 2.6V | 00:00:00 | 00:00:00 | 00:00:00 | |
| DL1XH-west | 2026-09-02 06:18:22 | 52.71545 | 8.76892 | 65° | 55km/h | 5225m | -3.9m/s | -14.6°C | 87.4% | 533.8hPa | 2.6V | 07:39:32 | 02:46:55 | 00:00:00 | |
| BIOWL1-15 | 2026-09-02 06:18:20 | 52.71533 | 8.76850 | 65° | 55km/h | 5232m | -3.7m/s | -14.6°C | 87.2% | 533.2hPa | 2.6V | 07:39:32 | 02:46:53 | 00:00:00 | |
| DL1XH-15 | 2026-09-02 06:18:19 | 52.71501 | 8.76716 | 73° | 58km/h | 5255m | -3.7m/s | -14.8°C | 89.5% | 531.7hPa | 2.6V | 07:39:21 | 02:46:47 | 00:00:00 | |
| DF8AY | 2026-09-02 06:18:16 | 52.71510 | 8.76763 | 69° | 58km/h | 5248m | -4m/s | -14.7°C | 87.4% | 532.2hPa | 2.6V | 07:39:32 | 02:46:49 | 00:00:00 | |
| DO2JMG | 2026-09-02 06:18:15 | 52.71505 | 8.76739 | 71° | 58km/h | 5251m | -3.8m/s | -14.8°C | 87.5% | 532hPa | 2.6V | 07:39:32 | 02:46:48 | 00:00:00 | |
| AA1-15 | 2026-09-02 06:18:12 | 52.71493 | 8.76668 | 76° | 58km/h | 5263m | -3.7m/s | -14.9°C | 87.7% | 531.1hPa | 2.6V | 07:39:32 | 02:46:45 | 00:00:00 | |
| DL1XH-west | 2026-09-02 06:18:11 | 52.71490 | 8.76645 | 78° | 58km/h | 5267m | -3.7m/s | -14.9°C | 87.7% | 530.9hPa | 2.6V | 07:39:32 | 02:46:44 | 00:00:00 | |
| DB0DAN | 2026-09-02 06:18:10 | 52.71487 | 8.76621 | 79° | 55km/h | 5270m | -3.8m/s | -14.9°C | 85.9% | 530.6hPa | 2.6V | 00:00:00 | 00:00:00 | 00:00:00 | |
| DL1XH-15 | 2026-09-02 06:18:09 | 52.71473 | 8.76482 | 80° | 57km/h | 5293m | -4m/s | -15.1°C | 90% | 529hPa | 2.6V | 07:39:31 | 02:46:37 | 00:00:00 | |
| BIOWL1-15 | 2026-09-02 06:18:09 | 52.71484 | 8.76598 | 80° | 57km/h | 5274m | -3.8m/s | -14.9°C | 87.6% | 530.3hPa | 2.6V | 07:39:32 | 02:46:42 | 00:00:00 | |
| GOEST3-10 | 2026-09-02 06:18:08 | 52.71482 | 8.76575 | 81° | 57km/h | 5278m | -3.8m/s | -14.9°C | 89.8% | 530.1hPa | 2.6V | 00:00:00 | 00:00:00 | 00:00:00 | |
| DM0DOS-11 | 2026-09-02 06:18:07 | 52.71468 | 8.76435 | 81° | 57km/h | 5301m | -3.8m/s | -15.1°C | 89.9% | 528.5hPa | 2.6V | 07:39:33 | 02:46:35 | 00:00:00 | |
| DF8AY | 2026-09-02 06:18:05 | 52.71475 | 8.76505 | 81° | 57km/h | 5289m | -3.9m/s | -15°C | 87.7% | 529.3hPa | 2.6V | 07:39:32 | 02:46:38 | 00:00:00 | |
| DO2JMG | 2026-09-02 06:18:04 | 52.71473 | 8.76482 | 81° | 57km/h | 5293m | -4m/s | -15.1°C | 87.4% | 529hPa | 2.6V | 07:39:32 | 02:46:37 | 00:00:00 | |
| BIOWL1-15 | 2026-09-02 06:18:02 | 52.71456 | 8.76297 | 82° | 55km/h | 5324m | -3.8m/s | -15.3°C | 86.5% | 526.8hPa | 2.6V | 07:41:14 | 02:46:29 | 00:00:00 | |
| AA1-15 | 2026-09-02 06:18:01 | 52.71466 | 8.76412 | 82° | 57km/h | 5304m | -3.9m/s | -15.1°C | 87.3% | 528.2hPa | 2.6V | 07:40:23 | 02:46:34 | 00:00:00 | |
| DL1XH-west | 2026-09-02 06:18:00 | 52.71464 | 8.76389 | 82° | 57km/h | 5308m | -4m/s | -15.2°C | 87% | 527.9hPa | 2.6V | 07:40:23 | 02:46:33 | 00:00:00 | |
| HTAHTA | 2026-09-02 06:18:00 | 52.71462 | 8.76366 | 82° | 55km/h | 5312m | -3.8m/s | -15.2°C | 85.8% | 527.6hPa | 2.6V | 00:00:00 | 00:00:00 | 00:00:00 | |
| DL1XH-15 | 2026-09-02 06:17:59 | 52.71453 | 8.76252 | 83° | 53km/h | 5331m | -3.8m/s | -15.3°C | 89.4% | 526.3hPa | 2.6V | 07:39:41 | 02:46:27 | 00:00:00 | |
| DF8AY | 2026-09-02 06:17:56 | 52.71455 | 8.76274 | 83° | 55km/h | 5327m | -3.7m/s | -15.3°C | 86.4% | 526.6hPa | 2.7V | 07:40:23 | 02:46:28 | 00:00:00 | |
| DB0DAN | 2026-09-02 06:17:55 | 52.71455 | 8.76274 | 83° | 51km/h | 5328m | -3.7m/s | -15.3°C | 85.4% | 526.57hPa | 2.7V | 00:00:00 | 00:00:00 | 00:00:00 | |
| DO2JMG | 2026-09-02 06:17:54 | 52.71453 | 8.76252 | 84° | 53km/h | 5331m | -3.8m/s | -15.3°C | 86.4% | 526.3hPa | 2.6V | 07:40:23 | 02:46:27 | 00:00:00 | |
| DM0DOS-11 | 2026-09-02 06:17:52 | 52.71450 | 8.76210 | 84° | 49km/h | 5339m | -3.7m/s | -15.4°C | 89.5% | 525.8hPa | 2.6V | 07:39:43 | 02:46:25 | 00:00:00 | |
| DL1XH-west | 2026-09-02 06:17:50 | 52.71447 | 8.76170 | 83° | 47km/h | 5346m | -3.8m/s | -15.4°C | 86.2% | 525.2hPa | 2.6V | 07:40:23 | 02:46:23 | 00:00:00 | |
| DL1CLM-18 | 2026-09-02 06:17:49 | 52.71447 | 8.76169 | 84° | 47km/h | 5346m | -3.8m/s | -15.4°C | 85.4% | 525.2hPa | 2.6V | 00:00:00 | 00:00:00 | 00:00:00 | |
| GOEST3-10 | 2026-09-02 06:17:48 | 52.71444 | 8.76132 | 82° | 44km/h | 5354m | -3.6m/s | -15.4°C | 89.8% | 524.7hPa | 2.6V | 07:39:00 | 00:00:00 | 00:00:00 | |
| DD1CC3-15 | 2026-09-02 06:17:47 | 52.71444 | 8.76132 | 82° | 44km/h | 5354m | -3.7m/s | -15.5°C | 85.8% | 524.8hPa | 2.6V | 07:40:00 | 00:00:00 | 00:00:00 | |
| DL1XH1-15 | 2026-09-02 06:17:45 | 52.71424 | 8.75992 | 73° | 42km/h | 5384m | -3.8m/s | -15.7°C | 90.7% | 522.7hPa | 2.6V | 07:39:55 | 02:46:13 | 00:00:00 | |
| BIOWL1-15 | 2026-09-02 06:17:45 | 52.71438 | 8.76078 | 77° | 44km/h | 5365m | -4m/s | -15.5°C | 87.7% | 524hPa | 2.6V | 07:41:14 | 02:46:18 | 00:00:00 | |
| DO2JMG | 2026-09-02 06:17:44 | 52.71436 | 8.76061 | 77° | 42km/h | 5369m | -3.7m/s | -15.6°C | 88% | 523.7hPa | 2.6V | 07:40:23 | 02:46:17 | 00:00:00 | |
| DM0DOS-11 | 2026-09-02 06:17:42 | 52.71430 | 8.76027 | 74° | 42km/h | 5377m | -3.7m/s | -15.6°C | 90.8% | 523.2hPa | 2.6V | 07:39:53 | 02:46:15 | 00:00:00 | |
| DB0DAN | 2026-09-02 06:17:40 | 52.71424 | 8.75993 | 74° | 40km/h | 5384m | -3.8m/s | -15.7°C | 86.6% | 522.67hPa | 2.6V | 00:00:00 | 00:00:00 | 00:00:00 | |
| DL1XH-west | 2026-09-02 06:17:39 | 52.71421 | 8.75975 | 71° | 44km/h | 5388m | -3.8m/s | -15.7°C | 87.4% | 522.5hPa | 2.6V | 07:40:23 | 02:46:12 | 00:00:00 | |
| GOEST3-10 | 2026-09-02 06:17:38 | 52.71417 | 8.75958 | 70° | 47km/h | 5392m | -3.5m/s | -15.7°C | 90.8% | 522.2hPa | 2.6V | 00:00:00 | 00:00:00 | 00:00:00 | |
| DM0DOS-11 | 2026-09-02 06:17:37 | 52.71388 | 8.75846 | 67° | 53km/h | 5414m | -3.7m/s | -15.9°C | 91.7% | 520.6hPa | 2.6V | 07:40:03 | 02:46:05 | 00:00:00 | |
| BIOWL1-15 | 2026-09-02 06:17:37 | 52.71404 | 8.75904 | 66° | 49km/h | 5403m | -3.6m/s | -15.8°C | 87.8% | 521.5hPa | 2.6V | 07:41:14 | 02:46:08 | 00:00:00 | |
| DF5WG-10 | 2026-09-02 06:17:37 | 52.71413 | 8.75940 | 68° | 53km/h | 5395m | -3.7m/s | -15.7°C | 90.8% | 521.8hPa | 2.6V | 00:00:00 | 02:46:10 | 00:00:00 | |
| DL1XH-15 | 2026-09-02 06:17:36 | 52.71399 | 8.75886 | 66° | 49km/h | 5406m | -3.6m/s | -15.8°C | 91.3% | 521.1hPa | 2.6V | 07:40:01 | 02:46:07 | 00:00:00 | |
| DF8AY | 2026-09-02 06:17:34 | 52.71399 | 8.75886 | 66° | 49km/h | 5406m | -3.6m/s | -15.8°C | 87.9% | 521.1hPa | 2.6V | 07:40:23 | 02:46:07 | 00:00:00 | |
| DO2JMG | 2026-09-02 06:17:33 | 52.71393 | 8.75866 | 67° | 51km/h | 5410m | -4m/s | -15.9°C | 88.1% | 520.9hPa | 2.6V | 07:40:23 | 02:46:06 | 00:00:00 | |
| DD8BA-10 | 2026-09-02 06:17:33 | 52.71393 | 8.75866 | 68° | 57km/h | 5410m | -3.9m/s | -15.8°C | 91.5% | 520.8hPa | 2.6V | 00:00:00 | 00:00:00 | 00:00:00 | |
| BIOWL9-15 | 2026-09-02 06:17:32 | 52.71383 | 8.75825 | 68° | 55km/h | 5417m | -3.6m/s | -15.9°C | 87.6% | 520.5hPa | 2.6V | 00:00:00 | 00:00:00 | 00:00:00 | |
| DL1XH-15 | 2026-09-02 06:17:29 | 52.71354 | 8.75660 | 81° | 60km/h | 5443m | -3.9m/s | -16.1°C | 92.4% | 518.5hPa | 2.6V | 07:40:11 | 02:45:57 | 00:00:00 | |
| DL1XH-west | 2026-09-02 06:17:28 | 52.71369 | 8.75757 | 73° | 58km/h | 5428m | -3.8m/s | -16°C | 88.7% | 519.6hPa | 2.6V | 07:40:23 | 02:46:01 | 00:00:00 | |
| GOEST3-10 | 2026-09-02 06:17:28 | 52.71369 | 8.75757 | 73° | 60km/h | 5428m | -3.7m/s | -15.9°C | 91.9% | 519.6hPa | 2.6V | 00:00:00 | 00:00:00 | 00:00:00 | |
| DF5WG-10 | 2026-09-02 06:17:27 | 52.71364 | 8.75733 | 75° | 57km/h | 5432m | -3.8m/s | -16.0°C | 91.9% | 519.3hPa | 2.6V | 00:00:00 | 02:46:00 | 00:00:00 | |
| DK9SH | 2026-09-02 06:17:26 | 52.71364 | 8.75733 | 76° | 60km/h | 5432m | -3.8m/s | -16.0°C | 87.7% | 519.3hPa | 2.6V | 07:40:00 | 00:00:00 | 00:00:00 | |
| DB0DAN | 2026-09-02 06:17:25 | 52.71357 | 8.75685 | 78° | 57km/h | 5440m | -3.8m/s | -16.1°C | 87.9% | 518.8hPa | 2.6V | 00:00:00 | 00:00:00 | 00:00:00 | |
| DF8AY | 2026-09-02 06:17:23 | 52.71352 | 8.75636 | 83° | 58km/h | 5447m | -3.5m/s | -16.1°C | 88.9% | 518.3hPa | 2.6V | 07:40:23 | 02:45:56 | 00:00:00 | |
| DO2JMG | 2026-09-02 06:17:22 | 52.71351 | 8.75612 | 85° | 57km/h | 5451m | -3.9m/s | -16.2°C | 89.1% | 518hPa | 2.6V | 07:40:23 | 02:45:55 | 00:00:00 | |
| DL1XH-west | 2026-09-02 06:17:17 | 52.71347 | 8.75502 | 87° | 47km/h | 5469m | -3.6m/s | -16.3°C | 89.7% | 516.7hPa | 2.6V | 07:40:23 | 02:45:50 | 00:00:00 | |
| BIOWL7-15 | 2026-09-02 06:17:17 | 52.71347 | 8.75502 | 88° | 47km/h | 5469m | -3.6m/s | -16.3°C | 89.5% | 516.7hPa | 2.6V | 00:00:00 | 00:00:00 | 00:00:00 | |
| DC6BW-12 | 2026-09-02 06:17:16 | 52.71347 | 8.75502 | 88° | 47km/h | 5469m | -3.6m/s | -16.3°C | 89.5% | 516.7hPa | 2.6V | 07:40:00 | 00:00:00 | 00:00:00 | |
| DL1XH1-15 | 2026-09-02 06:17:15 | 52.71337 | 8.75375 | 83° | 44km/h | 5494m | -3.8m/s | -16.5°C | 94.1% | 515hPa | 2.6V | 07:40:25 | 02:45:43 | 00:00:00 | |
| DL1XH-15 | 2026-09-02 06:17:14 | 52.71344 | 8.75445 | 82° | 44km/h | 5480m | -3.5m/s | -16.4°C | 94.1% | 516.1hPa | 2.6V | 07:40:21 | 02:45:47 | 00:00:00 | |
| BIOWL1-15 | 2026-09-02 06:17:14 | 52.71344 | 8.75445 | 82° | 44km/h | 5480m | -3.6m/s | -16.4°C | 90.6% | 516.1hPa | 2.6V | 07:41:14 | 02:45:47 | 00:00:00 | |
| DF8AY | 2026-09-02 06:17:13 | 52.71342 | 8.75427 | 81° | 42km/h | 5484m | -3.7m/s | -16.4°C | 90.7% | 515.8hPa | 2.6V | 07:40:23 | 02:45:46 | 00:00:00 | |
| DO2JMG | 2026-09-02 06:17:11 | 52.71338 | 8.75392 | 81° | 42km/h | 5491m | -3.6m/s | -16.5°C | 90.6% | 515.4hPa | 2.6V | 07:41:14 | 02:45:44 | 00:00:00 | |
| DB0DAN | 2026-09-02 06:17:10 | 52.71337 | 8.75375 | 84° | 42km/h | 5495m | -3.8m/s | -16.5°C | 89.8% | 515.02hPa | 2.6V | 00:00:00 | 00:00:00 | 00:00:00 | |
| DL1XH-15 | 2026-09-02 06:17:09 | 52.71329 | 8.75268 | 77° | 42km/h | 5517m | -3.8m/s | -16.6°C | 93.1% | 513.5hPa | 2.6V | 07:40:31 | 02:45:37 | 00:00:00 | |
| GOEST3-10 | 2026-09-02 06:17:08 | 52.71335 | 8.75339 | 86° | 44km/h | 5502m | -3.8m/s | -16.5°C | 93.9% | 514.5hPa | 2.6V | 07:40:00 | 00:00:00 | 00:00:00 | |
| DM0DOS-11 | 2026-09-02 06:17:07 | 52.71324 | 8.75233 | 73° | 42km/h | 5525m | -3.8m/s | -16.7°C | 93.5% | 513hPa | 2.6V | 07:40:33 | 02:45:35 | 00:00:00 | |
| DL1XH-west | 2026-09-02 06:17:07 | 52.71334 | 8.75321 | 85° | 44km/h | 5506m | -3.8m/s | -16.6°C | 89.9% | 514.3hPa | 2.6V | 07:41:14 | 02:45:40 | 00:00:00 | |
| AA1-15 | 2026-09-02 06:17:06 | 52.71333 | 8.75303 | 83° | 42km/h | 5510m | -3.9m/s | -16.6°C | 90.1% | 514hPa | 2.6V | 07:41:14 | 02:45:39 | 00:00:00 | |
| BIOWL1-15 | 2026-09-02 06:17:04 | 52.71329 | 8.75268 | 77° | 42km/h | 5517m | -3.8m/s | -16.7°C | 89.5% | 513.5hPa | 2.6V | 07:41:14 | 02:45:37 | 00:00:00 | |
| DF8AY | 2026-09-02 06:17:02 | 52.71324 | 8.75233 | 74° | 42km/h | 5525m | -3.8m/s | -16.7°C | 89.5% | 513hPa | 2.6V | 07:41:14 | 02:45:35 | 00:00:00 | |
| DO2JMG | 2026-09-02 06:17:00 | 52.71318 | 8.75199 | 73° | 44km/h | 5532m | -3.8m/s | -16.8°C | 89.4% | 512.5hPa | 2.6V | 07:41:14 | 02:45:33 | 00:00:00 | |
| DL1XH-15 | 2026-09-02 06:16:59 | 52.71307 | 8.75092 | 84° | 44km/h | 5554m | -3.8m/s | -16.9°C | 94% | 511.1hPa | 2.6V | 07:40:41 | 02:45:27 | 00:00:00 | |
| GOEST3-10 | 2026-09-02 06:16:58 | 52.71312 | 8.75164 | 80° | 44km/h | 5539m | -3.6m/s | -16.7°C | 93.8% | 511.9hPa | 2.6V | 00:00:00 | 00:00:00 | 00:00:00 | |
| DF5WG-10 | 2026-09-02 06:16:57 | 52.71311 | 8.75147 | 83° | 42km/h | 5543m | -3.7m/s | -16.8°C | 93.8% | 511.7hPa | 2.6V | 00:00:00 | 02:45:30 | 00:00:00 | |
| DM0DOS-11 | 2026-09-02 06:16:56 | 52.71305 | 8.75056 | 83° | 42km/h | 5562m | -3.8m/s | -16.9°C | 94.3% | 510.4hPa | 2.6V | 07:40:43 | 02:45:25 | 00:00:00 | |
| DL1XH-west | 2026-09-02 06:16:56 | 52.71309 | 8.75129 | 84° | 44km/h | 5547m | -3.6m/s | -16.9°C | 90% | 511.6hPa | 2.6V | 07:41:14 | 02:45:29 | 00:00:00 | |
| DC6BW-12 | 2026-09-02 06:16:56 | 52.71309 | 8.75129 | 85° | 44km/h | 5547m | -3.6m/s | -16.9°C | 89.5% | 511.6hPa | 2.6V | 07:41:00 | 00:00:00 | 00:00:00 | |
| DL1XH1-15 | 2026-09-02 06:16:55 | 52.71302 | 8.75022 | 80° | 42km/h | 5570m | -3.8m/s | -17°C | 94.8% | 510hPa | 2.6V | 07:40:45 | 02:45:23 | 00:00:00 | |
| AA1-15 | 2026-09-02 06:16:55 | 52.71308 | 8.75110 | 85° | 44km/h | 5551m | -3.8m/s | -16.9°C | 90% | 511.2hPa | 2.6V | 07:41:14 | 02:45:28 | 00:00:00 | |
| BIOWL1-15 | 2026-09-02 06:16:54 | 52.71305 | 8.75056 | 83° | 42km/h | 5562m | -3.8m/s | -17°C | 90.3% | 510.4hPa | 2.6V | 07:41:14 | 02:45:25 | 00:00:00 | |
| DO2JMG | 2026-09-02 06:16:49 | 52.71301 | 8.75004 | 79° | 42km/h | 5574m | -3.7m/s | -17.1°C | 90.9% | 509.6hPa | 2.6V | 07:41:14 | 02:45:22 | 00:00:00 | |
| GOEST3-10 | 2026-09-02 06:16:48 | 52.71298 | 8.74987 | 78° | 44km/h | 5577m | -3.7m/s | -17.0°C | 94.9% | 509.4hPa | 2.6V | 00:00:00 | 00:00:00 | 00:00:00 | |
| DF5WG-10 | 2026-09-02 06:16:47 | 52.71296 | 8.74970 | 77° | 46km/h | 5581m | -3.6m/s | -17.0°C | 94.9% | 509.2hPa | 2.6V | 00:00:00 | 02:45:20 | 00:00:00 | |
| DM0DOS-11 | 2026-09-02 06:16:46 | 52.71280 | 8.74883 | 70° | 46km/h | 5600m | -3.8m/s | -17.2°C | 94.5% | 507.9hPa | 2.6V | 07:40:53 | 02:45:15 | 00:00:00 | |
| DL1XH1-15 | 2026-09-02 06:16:45 | 52.71272 | 8.74846 | 70° | 47km/h | 5607m | -3.9m/s | -17.3°C | 94.6% | 507.4hPa | 2.6V | 07:40:55 | 02:45:13 | 00:00:00 | |
| DL1XH-west | 2026-09-02 06:16:45 | 52.71290 | 8.74936 | 73° | 44km/h | 5589m | -3.9m/s | -17.1°C | 90.4% | 508.6hPa | 2.6V | 07:41:14 | 02:45:18 | 00:00:00 | |
| AA1-15 | 2026-09-02 06:16:44 | 52.71287 | 8.74918 | 72° | 44km/h | 5592m | -3.8m/s | -17.2°C | 90.4% | 508.5hPa | 2.6V | 07:41:14 | 02:45:17 | 00:00:00 | |
| BIOWL1-15 | 2026-09-02 06:16:41 | 52.71276 | 8.74864 | 70° | 46km/h | 5604m | -3.7m/s | -17.3°C | 90.5% | 507.7hPa | 2.6V | 07:41:14 | 02:45:14 | 00:00:00 | |
| DB0DAN | 2026-09-02 06:16:40 | 52.71272 | 8.74846 | 70° | 44km/h | 5607m | -3.9m/s | -17.3°C | 90.1% | 507.46hPa | 2.6V | 00:00:00 | 00:00:00 | 00:00:00 | |
| DO2JMG | 2026-09-02 06:16:39 | 52.71268 | 8.74828 | 71° | 46km/h | 5611m | -3.8m/s | -17.3°C | 90.6% | 507.1hPa | 2.6V | 07:41:14 | 02:45:12 | 00:00:00 | |
| GOEST3-10 | 2026-09-02 06:16:38 | 52.71264 | 8.74810 | 71° | 47km/h | 5615m | -3.7m/s | -17.3°C | 94.8% | 506.8hPa | 2.6V | 00:00:00 | 00:00:00 | 00:00:00 | |
| DF5WG-10 | 2026-09-02 06:16:37 | 52.71260 | 8.74792 | 71° | 49km/h | 5619m | -3.7m/s | -17.3°C | 94.9% | 506.6hPa | 2.6V | 00:00:00 | 02:45:10 | 00:00:00 | |
| DM0DOS-11 | 2026-09-02 06:16:36 | 52.71239 | 8.74699 | 68° | 51km/h | 5638m | -4.1m/s | -17.6°C | 94.5% | 505.4hPa | 2.6V | 07:41:03 | 02:45:05 | 00:00:00 | |
| DL1XH-west | 2026-09-02 06:16:35 | 52.71252 | 8.74756 | 70° | 47km/h | 5626m | -3.9m/s | -17.4°C | 90.8% | 506.1hPa | 2.6V | 07:41:14 | 02:45:08 | 00:00:00 | |
| AA1-15 | 2026-09-02 06:16:33 | 52.71243 | 8.74718 | 69° | 49km/h | 5634m | -3.9m/s | -17.5°C | 90.4% | 505.6hPa | 2.6V | 07:41:14 | 02:45:06 | 00:00:00 | |
| DF8AY | 2026-09-02 06:16:32 | 52.71234 | 8.74679 | 68° | 51km/h | 5642m | -3.9m/s | -17.6°C | 90.5% | 505.1hPa | 2.6V | 07:41:14 | 02:45:04 | 00:00:00 | |
| BIOWL1-15 | 2026-09-02 06:16:29 | 52.71224 | 8.74639 | 69° | 53km/h | 5650m | -4m/s | -17.6°C | 90.3% | 504.5hPa | 2.6V | 07:41:14 | 02:45:02 | 00:00:00 | |
| DO2JMG | 2026-09-02 06:16:28 | 52.71219 | 8.74617 | 70° | 55km/h | 5654m | -3.9m/s | -17.7°C | 90.3% | 504.4hPa | 2.6V | 07:41:14 | 02:45:01 | 00:00:00 | |
| DL1XH-west | 2026-09-02 06:16:25 | 52.71205 | 8.74549 | 74° | 60km/h | 5666m | -3.9m/s | -17.8°C | 90.6% | 503.5hPa | 2.6V | 07:41:14 | 02:44:58 | 00:00:00 | |
| DB0DAN | 2026-09-02 06:16:25 | 52.71205 | 8.74549 | 74° | 58km/h | 5666m | -3.9m/s | -17.8°C | 90.5% | 503.52hPa | 2.6V | 00:00:00 | 00:00:00 | 00:00:00 | |
| AA1-15 | 2026-09-02 06:16:23 | 52.71197 | 8.74500 | 75° | 60km/h | 5674m | -3.9m/s | -17.8°C | 90.9% | 503hPa | 2.6V | 07:41:14 | 02:44:56 | 00:00:00 | |
| DF8AY | 2026-09-02 06:16:20 | 52.71185 | 8.74427 | 76° | 60km/h | 5685m | -4m/s | -17.9°C | 91% | 502.2hPa | 2.5V | 07:42:05 | 02:44:53 | 00:00:00 | |
| DL1XH-15 | 2026-09-02 06:16:19 | 52.71163 | 8.74278 | 77° | 62km/h | 5709m | -4m/s | -18.1°C | 95.6% | 500.5hPa | 2.6V | 07:41:21 | 02:44:47 | 00:00:00 | |
| BIOWL1-15 | 2026-09-02 06:16:18 | 52.71178 | 8.74378 | 76° | 62km/h | 5693m | -3.9m/s | -18°C | 91.2% | 501.6hPa | 2.6V | 07:42:05 | 02:44:51 | 00:00:00 | |
| DO2JMG | 2026-09-02 06:16:17 | 52.71174 | 8.74353 | 77° | 62km/h | 5697m | -4.1m/s | -18°C | 91.2% | 501.3hPa | 2.6V | 07:42:05 | 02:44:50 | 00:00:00 | |
| DL1XH-west | 2026-09-02 06:16:14 | 52.71163 | 8.74278 | 77° | 62km/h | 5709m | -4m/s | -18.1°C | 91% | 500.5hPa | 2.6V | 07:42:05 | 02:44:47 | 00:00:00 | |
| AA1-15 | 2026-09-02 06:16:12 | 52.71157 | 8.74227 | 80° | 62km/h | 5717m | -3.9m/s | -18.1°C | 90.8% | 500hPa | 2.6V | 07:42:05 | 02:44:45 | 00:00:00 | |
| DF8AY | 2026-09-02 06:16:10 | 52.71151 | 8.74176 | 82° | 62km/h | 5725m | -4.2m/s | -18.1°C | 90.5% | 499.5hPa | 2.6V | 07:42:05 | 02:44:43 | 00:00:00 | |
| DB0DAN | 2026-09-02 06:16:10 | 52.71151 | 8.74176 | 82° | 60km/h | 5725m | -4.2m/s | -18.1°C | 89.6% | 499.54hPa | 2.6V | 00:00:00 | 00:00:00 | 00:00:00 | |
| DL1XH-15 | 2026-09-02 06:16:09 | 52.71138 | 8.74020 | 80° | 64km/h | 5749m | -3.9m/s | -18.3°C | 95.4% | 497.9hPa | 2.6V | 07:41:31 | 02:44:37 | 00:00:00 | |
| BIOWL1-15 | 2026-09-02 06:16:08 | 52.71147 | 8.74124 | 83° | 62km/h | 5733m | -4m/s | -18.2°C | 90.3% | 499hPa | 2.6V | 07:42:05 | 02:44:41 | 00:00:00 | |
| DL3AQ-11 | 2026-09-02 06:16:08 | 52.71145 | 8.74098 | 83° | 62km/h | 5737m | -4.1m/s | -18.2°C | 89.9% | 498.7hPa | 2.6V | 00:00:00 | 00:00:00 | 00:00:00 | |
| DM0DOS-11 | 2026-09-02 06:16:07 | 52.71132 | 8.73968 | 77° | 64km/h | 5757m | -4m/s | -18.4°C | 95.7% | 497.4hPa | 2.6V | 07:41:33 | 02:44:35 | 00:00:00 | |
| DO2JMG | 2026-09-02 06:16:06 | 52.71143 | 8.74072 | 83° | 64km/h | 5741m | -4.3m/s | -18.3°C | 90.7% | 498.4hPa | 2.6V | 07:42:05 | 02:44:39 | 00:00:00 | |
| DL1XH-west | 2026-09-02 06:16:04 | 52.71138 | 8.74020 | 81° | 64km/h | 5749m | -3.9m/s | -18.3°C | 90.7% | 497.9hPa | 2.6V | 07:42:05 | 02:44:37 | 00:00:00 | |
| AA1-15 | 2026-09-02 06:16:01 | 52.71129 | 8.73943 | 76° | 62km/h | 5761m | -3.8m/s | -18.4°C | 91.3% | 497.2hPa | 2.6V | 07:42:05 | 02:44:34 | 00:00:00 | |
| DF8AY | 2026-09-02 06:15:59 | 52.71121 | 8.73893 | 74° | 62km/h | 5769m | -3.8m/s | -18.5°C | 91.5% | 496.6hPa | 2.6V | 07:42:05 | 02:44:32 | 00:00:00 | |
| BIOWL1-15 | 2026-09-02 06:15:57 | 52.71112 | 8.73844 | 74° | 62km/h | 5777m | -4m/s | -18.5°C | 91.6% | 496.1hPa | 2.6V | 07:42:05 | 02:44:30 | 00:00:00 | |
| DO2JMG | 2026-09-02 06:15:56 | 52.71108 | 8.73820 | 74° | 60km/h | 5781m | -3.9m/s | -18.6°C | 91.8% | 495.8hPa | 2.6V | 07:42:05 | 02:44:29 | 00:00:00 | |
| DF5WG-10 | 2026-09-02 06:15:56 | 52.71108 | 8.73820 | 75° | 62km/h | 5781m | -3.8m/s | -18.5°C | 96.8% | 495.7hPa | 2.6V | 07:41:00 | 02:44:29 | 00:00:00 | |
| DM0DOS-11 | 2026-09-02 06:15:55 | 52.71095 | 8.73717 | 81° | 64km/h | 5796m | -3.8m/s | -18.7°C | 96.8% | 494.8hPa | 2.6V | 07:41:43 | 02:44:25 | 00:00:00 | |
| DB0DAN | 2026-09-02 06:15:55 | 52.71104 | 8.73795 | 77° | 58km/h | 5784m | -4m/s | -18.6°C | 91.6% | 495.5hPa | 2.6V | 00:00:00 | 00:00:00 | 00:00:00 | |
| DL1XH-west | 2026-09-02 06:15:54 | 52.71100 | 8.73770 | 78° | 64km/h | 5788m | -3.8m/s | -18.6°C | 91.9% | 495.3hPa | 2.6V | 07:42:05 | 02:44:27 | 00:00:00 | |
| AA1-15 | 2026-09-02 06:15:50 | 52.71091 | 8.73665 | 84° | 64km/h | 5804m | -3.9m/s | -18.7°C | 92.1% | 494.2hPa | 2.6V | 07:42:05 | 02:44:23 | 00:00:00 | |
| DF8AY | 2026-09-02 06:15:49 | 52.71089 | 8.73639 | 84° | 64km/h | 5808m | -3.9m/s | -18.8°C | 92% | 494hPa | 2.6V | 07:42:05 | 02:44:22 | 00:00:00 | |
| GOEST3-10 | 2026-09-02 06:15:47 | 52.71086 | 8.73587 | 87° | 60km/h | 5815m | -3.8m/s | -18.8°C | 97.0% | 493.4hPa | 2.6V | 07:41:00 | 00:00:00 | 00:00:00 | |
| DM0DOS-11 | 2026-09-02 06:15:46 | 52.71085 | 8.73463 | 89° | 58km/h | 5835m | -4.1m/s | -19°C | 97.2% | 492.2hPa | 2.6V | 07:41:53 | 02:44:15 | 00:00:00 | |
| DO2JMG | 2026-09-02 06:15:45 | 52.71086 | 8.73537 | 89° | 60km/h | 5823m | -4m/s | -18.9°C | 92.6% | 493hPa | 2.6V | 07:42:05 | 02:44:18 | 00:00:00 | |
| DL1XH-west | 2026-09-02 06:15:44 | 52.71085 | 8.73512 | 89° | 58km/h | 5827m | -4m/s | -18.9°C | 92.6% | 492.7hPa | 2.6V | 07:42:05 | 02:44:17 | 00:00:00 | |
| DL3AQ-11 | 2026-09-02 06:15:44 | 52.71085 | 8.73487 | 89° | 58km/h | 5831m | -4.0m/s | -19.0°C | 92.6% | 492.6hPa | 2.6V | 00:00:00 | 00:00:00 | 00:00:00 | |
| DD8BA-10 | 2026-09-02 06:15:43 | 52.71085 | 8.73487 | 90° | 53km/h | 5831m | -4.0m/s | -18.9°C | 97.5% | 492.5hPa | 2.6V | 00:00:00 | 00:00:00 | 00:00:00 | |
| GOEST3-10 | 2026-09-02 06:15:42 | 52.71085 | 8.73463 | 90° | 57km/h | 5835m | -4.1m/s | -18.9°C | 97.2% | 492.2hPa | 2.6V | 00:00:00 | 02:44:15 | 00:00:00 | |
| DB0DAN | 2026-09-02 06:15:40 | 52.71085 | 8.73415 | 90° | 53km/h | 5843m | -4m/s | -19.1°C | 92.5% | 491.63hPa | 2.6V | 00:00:00 | 00:00:00 | 00:00:00 | |
| DL1XH-15 | 2026-09-02 06:15:39 | 52.71080 | 8.73287 | 81° | 47km/h | 5866m | -4m/s | -19.3°C | 96.6% | 490.1hPa | 2.6V | 07:42:01 | 02:44:07 | 00:00:00 | |
| AA1-15 | 2026-09-02 06:15:39 | 52.71085 | 8.73392 | 91° | 55km/h | 5847m | -3.8m/s | -19.1°C | 92.4% | 491.4hPa | 2.5V | 07:42:05 | 02:44:12 | 00:00:00 | |
| DF8AY | 2026-09-02 06:15:38 | 52.71085 | 8.73369 | 89° | 53km/h | 5851m | -3.9m/s | -19.1°C | 92.1% | 491.1hPa | 2.5V | 07:42:05 | 02:44:11 | 00:00:00 | |
| BIOWL1-15 | 2026-09-02 06:15:34 | 52.71080 | 8.73287 | 81° | 47km/h | 5866m | -4m/s | -19.3°C | 91.3% | 490.1hPa | 2.6V | 07:42:05 | 02:44:07 | 00:00:00 | |
| DL1XH-west | 2026-09-02 06:15:33 | 52.71078 | 8.73267 | 80° | 47km/h | 5870m | -4.1m/s | -19.3°C | 91.7% | 489.8hPa | 2.6V | 07:42:05 | 02:44:06 | 00:00:00 | |
| DJ2DS-15 | 2026-09-02 06:15:33 | 52.71076 | 8.73248 | 77° | 47km/h | 5874m | -4.0m/s | -19.3°C | 92.1% | 489.6hPa | 2.5V | 00:00:00 | 00:00:00 | 00:00:00 | |
| GOEST3-10 | 2026-09-02 06:15:32 | 52.71076 | 8.73247 | 78° | 47km/h | 5874m | -4.0m/s | -19.3°C | 97.1% | 489.5hPa | 2.5V | 00:00:00 | 02:44:05 | 00:00:00 | |
| BIOWL7-15 | 2026-09-02 06:15:31 | 52.71076 | 8.73247 | 79° | 47km/h | 5874m | -4.0m/s | -19.3°C | 92.1% | 489.6hPa | 2.6V | 00:00:00 | 00:00:00 | 00:00:00 | |
| DO3DL | 2026-09-02 06:15:30 | 52.71073 | 8.73228 | 80° | 47km/h | 5878m | -3.9m/s | -19.3°C | 92.9% | 489.5hPa | 2.6V | 07:42:00 | 00:00:00 | 00:00:00 | |
| DL1XH-15 | 2026-09-02 06:15:29 | 52.71061 | 8.73090 | 83° | 49km/h | 5906m | -4m/s | -19.6°C | 96.6% | 487.5hPa | 2.6V | 07:42:11 | 02:43:57 | 00:00:00 | |
| AA1-15 | 2026-09-02 06:15:28 | 52.71067 | 8.73170 | 81° | 47km/h | 5890m | -4.2m/s | -19.4°C | 92.9% | 488.6hPa | 2.6V | 07:42:56 | 02:44:01 | 00:00:00 | |
| DF8AY | 2026-09-02 06:15:27 | 52.71066 | 8.73150 | 83° | 47km/h | 5894m | -4m/s | -19.5°C | 92% | 488.3hPa | 2.6V | 07:42:56 | 02:44:00 | 00:00:00 | |
| GOEST3-10 | 2026-09-02 06:15:27 | 52.71066 | 8.73150 | 83° | 47km/h | 5894m | -3.9m/s | -19.4°C | 97.0% | 488.3hPa | 2.6V | 00:00:00 | 00:00:00 | 00:00:00 | |
| DB0DAN | 2026-09-02 06:15:25 | 52.71063 | 8.73110 | 84° | 46km/h | 5902m | -4.1m/s | -19.5°C | 91.6% | 487.81hPa | 2.6V | 00:00:00 | 00:00:00 | 00:00:00 | |
| DO2JMG | 2026-09-02 06:15:24 | 52.71061 | 8.73090 | 83° | 49km/h | 5906m | -4.1m/s | -19.6°C | 91.5% | 487.5hPa | 2.6V | 07:42:56 | 02:43:57 | 00:00:00 | |
| DL1XH-west | 2026-09-02 06:15:23 | 52.71060 | 8.73070 | 84° | 49km/h | 5910m | -3.8m/s | -19.6°C | 91.9% | 487.2hPa | 2.6V | 07:42:56 | 02:43:56 | 00:00:00 | |
| DL1LOL-11 | 2026-09-02 06:15:23 | 52.71060 | 8.73070 | 85° | 47km/h | 5910m | -3.8m/s | -19.6°C | 92.1% | 487.2hPa | 2.6V | 07:42:00 | 00:00:00 | 00:00:00 | |
| GOEST3-10 | 2026-09-02 06:15:22 | 52.71058 | 8.73050 | 85° | 51km/h | 5914m | -3.5m/s | -19.6°C | 97.4% | 486.9hPa | 2.6V | 00:00:00 | 02:43:55 | 00:00:00 | |
| BUE01 | 2026-09-02 06:15:20 | 52.71057 | 8.73008 | 86° | 51km/h | 5921m | -3.9m/s | -19.7°C | 92.3% | 486.5hPa | 2.6V | 00:00:00 | 00:00:00 | 00:00:00 | |
| DL1XH-15 | 2026-09-02 06:15:19 | 52.71054 | 8.72874 | 88° | 57km/h | 5945m | -4.1m/s | -19.9°C | 96.3% | 484.9hPa | 2.6V | 07:42:21 | 02:43:47 | 00:00:00 | |
| AA1-15 | 2026-09-02 06:15:17 | 52.71055 | 8.72943 | 88° | 53km/h | 5933m | -4.2m/s | -19.8°C | 92.6% | 485.8hPa | 2.6V | 07:42:56 | 02:43:50 | 00:00:00 | |
| GOEST3-10 | 2026-09-02 06:15:17 | 52.71055 | 8.72942 | 89° | 55km/h | 5933m | -4.1m/s | -19.7°C | 98.0% | 485.7hPa | 2.6V | 00:00:00 | 00:00:00 | 00:00:00 | |
| DM0DOS-11 | 2026-09-02 06:15:16 | 52.71053 | 8.72827 | 89° | 57km/h | 5953m | -4m/s | -20°C | 95.3% | 484.4hPa | 2.5V | 07:42:23 | 02:43:45 | 00:00:00 | |
| DF8AY | 2026-09-02 06:15:16 | 52.71055 | 8.72920 | 88° | 55km/h | 5937m | -4.2m/s | -19.8°C | 92.6% | 485.5hPa | 2.6V | 07:42:56 | 02:43:49 | 00:00:00 | |
| DF5WG-10 | 2026-09-02 06:15:16 | 52.71055 | 8.72920 | 88° | 53km/h | 5937m | -4.2m/s | -19.8°C | 97.9% | 485.5hPa | 2.6V | 00:00:00 | 02:43:49 | 00:00:00 | |
| DL1XH1-15 | 2026-09-02 06:15:15 | 52.71052 | 8.72782 | 87° | 53km/h | 5961m | -4.3m/s | -20.1°C | 94.9% | 483.9hPa | 2.6V | 07:42:25 | 02:43:43 | 00:00:00 | |
| DO2JMG | 2026-09-02 06:15:14 | 52.71054 | 8.72874 | 89° | 57km/h | 5945m | -4.1m/s | -19.9°C | 90.9% | 484.9hPa | 2.6V | 07:42:56 | 02:43:47 | 00:00:00 | |
| BIOWL1-15 | 2026-09-02 06:15:12 | 52.71053 | 8.72827 | 89° | 57km/h | 5953m | -4.1m/s | -20°C | 90% | 484.4hPa | 2.5V | 07:43:47 | 02:43:45 | 00:00:00 | |
| GOEST3-10 | 2026-09-02 06:15:12 | 52.71053 | 8.72827 | 90° | 53km/h | 5953m | -4.0m/s | -19.9°C | 95.3% | 484.3hPa | 2.6V | 00:00:00 | 02:43:45 | 00:00:00 | |
| DB0DAN | 2026-09-02 06:15:10 | 52.71052 | 8.72782 | 87° | 51km/h | 5961m | -4.3m/s | -20.1°C | 90% | 483.91hPa | 2.6V | 00:00:00 | 00:00:00 | 00:00:00 | |
| DL1XH-15 | 2026-09-02 06:15:09 | 52.71042 | 8.72659 | 79° | 47km/h | 5986m | -3.9m/s | -20.2°C | 95.5% | 482.3hPa | 2.5V | 07:42:31 | 02:43:37 | 00:00:00 | |
| DO3DL | 2026-09-02 06:15:08 | 52.71051 | 8.72760 | 86° | 51km/h | 5966m | -3.9m/s | -20.1°C | 90.0% | 483.7hPa | 2.6V | 07:42:00 | 00:00:00 | 00:00:00 | |
| GOEST3-10 | 2026-09-02 06:15:07 | 52.71048 | 8.72719 | 82° | 49km/h | 5973m | -4.2m/s | -20.1°C | 95.0% | 483.1hPa | 2.6V | 07:42:00 | 00:00:00 | 00:00:00 | |
| DM0DOS-11 | 2026-09-02 06:15:06 | 52.71037 | 8.72620 | 76° | 49km/h | 5994m | -3.9m/s | -20.3°C | 95.5% | 481.8hPa | 2.6V | 07:42:33 | 02:43:35 | 00:00:00 | |
| DF8AY | 2026-09-02 06:15:06 | 52.71047 | 8.72699 | 81° | 49km/h | 5978m | -4.4m/s | -20.2°C | 90% | 482.8hPa | 2.5V | 07:42:56 | 02:43:39 | 00:00:00 | |
| DO2JMG | 2026-09-02 06:15:05 | 52.71042 | 8.72660 | 80° | 47km/h | 5986m | -3.9m/s | -20.3°C | 90.3% | 482.3hPa | 2.5V | 07:42:56 | 02:43:37 | 00:00:00 | |
| DL1XH-west | 2026-09-02 06:15:02 | 52.71037 | 8.72620 | 76° | 49km/h | 5994m | -3.9m/s | -20.3°C | 90.5% | 481.8hPa | 2.6V | 07:42:56 | 02:43:35 | 00:00:00 | |
| GOEST3-10 | 2026-09-02 06:15:02 | 52.71037 | 8.72620 | 77° | 49km/h | 5994m | -3.8m/s | -20.3°C | 95.5% | 481.7hPa | 2.6V | 00:00:00 | 02:43:35 | 00:00:00 | |
| DD1CC3-15 | 2026-09-02 06:15:01 | 52.71037 | 8.72620 | 77° | 49km/h | 5994m | -3.9m/s | -20.3°C | 90.5% | 481.8hPa | 2.6V | 07:42:00 | 00:00:00 | 00:00:00 | |
| DL1XH-15 | 2026-09-02 06:14:59 | 52.71007 | 8.72459 | 70° | 51km/h | 6027m | -4.1m/s | -20.6°C | 93.8% | 479.6hPa | 2.6V | 07:42:41 | 02:43:27 | 00:00:00 | |
| SONCRA | 2026-09-02 06:14:58 | 52.71024 | 8.72541 | 73° | 49km/h | 6010m | -4.1m/s | -20.5°C | 89.2% | 480.8hPa | 2.5V | 00:00:00 | 00:00:00 | 00:00:00 | |
| DM0DOS-11 | 2026-09-02 06:14:57 | 52.70998 | 8.72418 | 70° | 51km/h | 6035m | -4.1m/s | -20.7°C | 93.4% | 479.1hPa | 2.5V | 07:42:43 | 02:43:25 | 00:00:00 | |
| DF8AY | 2026-09-02 06:14:55 | 52.71012 | 8.72480 | 70° | 53km/h | 6023m | -4.1m/s | -20.6°C | 89.1% | 479.9hPa | 2.6V | 07:42:56 | 02:43:28 | 00:00:00 | |
| DB0DAN | 2026-09-02 06:14:55 | 52.71012 | 8.72480 | 70° | 51km/h | 6023m | -4.1m/s | -20.6°C | 88.5% | 479.9hPa | 2.6V | 00:00:00 | 00:00:00 | 00:00:00 | |
| DO2JMG | 2026-09-02 06:14:53 | 52.71002 | 8.72439 | 70° | 53km/h | 6031m | -4.2m/s | -20.6°C | 89.3% | 479.3hPa | 2.6V | 07:42:56 | 02:43:26 | 00:00:00 | |
| DL1XH-west | 2026-09-02 06:14:52 | 52.70998 | 8.72418 | 71° | 51km/h | 6035m | -4.1m/s | -20.7°C | 89% | 479.1hPa | 2.5V | 07:42:56 | 02:43:25 | 00:00:00 | |
| BIOWL1-15 | 2026-09-02 06:14:51 | 52.70994 | 8.72398 | 71° | 51km/h | 6039m | -4.5m/s | -20.7°C | 89% | 478.8hPa | 2.5V | 07:43:47 | 02:43:24 | 00:00:00 | |
| DC6BW-12 | 2026-09-02 06:14:51 | 52.70998 | 8.72418 | 72° | 51km/h | 6035m | -4.1m/s | -20.7°C | 88.5% | 479.1hPa | 2.5V | 07:42:00 | 00:00:00 | 00:00:00 | |
| DL1XH-15 | 2026-09-02 06:14:49 | 52.70964 | 8.72258 | 68° | 55km/h | 6069m | -3.9m/s | -20.9°C | 91.6% | 476.9hPa | 2.5V | 07:42:51 | 02:43:17 | 00:00:00 | |
| DM0DOS-11 | 2026-09-02 06:14:47 | 52.70953 | 8.72215 | 69° | 57km/h | 6076m | -4.1m/s | -21°C | 92.3% | 476.4hPa | 2.6V | 07:42:53 | 02:43:15 | 00:00:00 | |
| GOEST3-10 | 2026-09-02 06:14:47 | 52.70977 | 8.72320 | 72° | 53km/h | 6057m | -4.5m/s | -20.8°C | 92.2% | 477.5hPa | 2.6V | 00:00:00 | 00:00:00 | 00:00:00 | |
| DF5WG-10 | 2026-09-02 06:14:46 | 52.70973 | 8.72299 | 71° | 57km/h | 6061m | -3.9m/s | -20.8°C | 92.4% | 477.5hPa | 2.6V | 00:00:00 | 02:43:19 | 00:00:00 | |
| DL1XH1-15 | 2026-09-02 06:14:45 | 52.70943 | 8.72171 | 69° | 57km/h | 6084m | -4m/s | -21.1°C | 93.1% | 475.9hPa | 2.6V | 07:42:55 | 02:43:13 | 00:00:00 | |
| DF8AY | 2026-09-02 06:14:45 | 52.70968 | 8.72279 | 69° | 55km/h | 6065m | -3.7m/s | -20.9°C | 87.2% | 477.1hPa | 2.5V | 07:42:56 | 02:43:18 | 00:00:00 | |
| AA1-15 | 2026-09-02 06:14:44 | 52.70964 | 8.72258 | 69° | 55km/h | 6069m | -3.9m/s | -20.9°C | 87.1% | 476.9hPa | 2.5V | 07:42:56 | 02:43:17 | 00:00:00 | |
| BIOWL1-15 | 2026-09-02 06:14:43 | 52.70948 | 8.72193 | 69° | 57km/h | 6080m | -4.2m/s | -21°C | 88.1% | 476.2hPa | 2.6V | 07:43:47 | 02:43:14 | 00:00:00 | |
| DO2JMG | 2026-09-02 06:14:43 | 52.70959 | 8.72236 | 69° | 55km/h | 6072m | -3.4m/s | -20.9°C | 87.4% | 476.7hPa | 2.6V | 07:42:56 | 02:43:16 | 00:00:00 | |
| DL1XH-west | 2026-09-02 06:14:42 | 52.70954 | 8.72215 | 69° | 57km/h | 6076m | -4.1m/s | -21°C | 87.8% | 476.4hPa | 2.6V | 07:42:56 | 02:43:15 | 00:00:00 | |
| GOEST3-10 | 2026-09-02 06:14:42 | 52.70953 | 8.72215 | 70° | 57km/h | 6076m | -4.0m/s | -20.9°C | 92.3% | 476.4hPa | 2.6V | 00:00:00 | 02:43:15 | 00:00:00 | |
| DO3DL | 2026-09-02 06:14:41 | 52.70953 | 8.72215 | 70° | 57km/h | 6076m | -4.1m/s | -21.0°C | 87.3% | 476.4hPa | 2.6V | 07:42:00 | 00:00:00 | 00:00:00 | |
| DD1CC3-15 | 2026-09-02 06:14:40 | 52.70948 | 8.72193 | 70° | 57km/h | 6080m | -4.2m/s | -21.0°C | 87.5% | 476.2hPa | 2.6V | 07:42:00 | 00:00:00 | 00:00:00 | |
| DL1XH-15 | 2026-09-02 06:14:39 | 52.70912 | 8.72035 | 71° | 60km/h | 6110m | -4.4m/s | -21.2°C | 89.9% | 474.3hPa | 2.6V | 07:43:01 | 02:43:07 | 00:00:00 | |
| DM0DOS-11 | 2026-09-02 06:14:37 | 52.70903 | 8.71987 | 76° | 60km/h | 6119m | -4.3m/s | -21.2°C | 89.7% | 473.7hPa | 2.6V | 07:43:03 | 02:43:05 | 00:00:00 | |
| GOEST3-10 | 2026-09-02 06:14:37 | 52.70927 | 8.72104 | 69° | 60km/h | 6097m | -4.3m/s | -21.1°C | 91.8% | 475.1hPa | 2.5V | 00:00:00 | 00:00:00 | 00:00:00 | |
| DO9LL-15 | 2026-09-02 06:14:36 | 52.70922 | 8.72082 | 69° | 58km/h | 6101m | -4.3m/s | -21.1°C | 91.1% | 474.8hPa | 2.5V | 00:00:00 | 02:43:09 | 00:00:00 | |
| DL1XH1-15 | 2026-09-02 06:14:35 | 52.70897 | 8.71938 | 79° | 58km/h | 6127m | -4.2m/s | -21.3°C | 89.8% | 473.1hPa | 2.5V | 07:43:05 | 02:43:03 | 00:00:00 | |
| DF8AY | 2026-09-02 06:14:34 | 52.70912 | 8.72035 | 72° | 60km/h | 6110m | -4.4m/s | -21.2°C | 85.6% | 474.3hPa | 2.6V | 07:43:47 | 02:43:07 | 00:00:00 | |
| AA1-15 | 2026-09-02 06:14:33 | 52.70907 | 8.72011 | 74° | 60km/h | 6114m | -4.3m/s | -21.2°C | 85.1% | 473.9hPa | 2.6V | 07:43:47 | 02:43:06 | 00:00:00 | |
| BIOWL1-15 | 2026-09-02 06:14:32 | 52.70897 | 8.71938 | 79° | 58km/h | 6127m | -4.2m/s | -21.3°C | 85.5% | 473.1hPa | 2.5V | 07:43:47 | 02:43:03 | 00:00:00 | |
| DO2JMG | 2026-09-02 06:14:32 | 52.70903 | 8.71987 | 77° | 60km/h | 6119m | -4.3m/s | -21.3°C | 85.4% | 473.7hPa | 2.6V | 07:43:47 | 02:43:05 | 00:00:00 | |
| DL1XH-west | 2026-09-02 06:14:31 | 52.70900 | 8.71962 | 78° | 60km/h | 6123m | -4.2m/s | -21.3°C | 85.4% | 473.4hPa | 2.5V | 07:43:47 | 02:43:04 | 00:00:00 | |
| DC6BW-12 | 2026-09-02 06:14:30 | 52.70900 | 8.71962 | 79° | 60km/h | 6123m | -4.2m/s | -21.3°C | 84.8% | 473.4hPa | 2.6V | 07:43:00 | 00:00:00 | 00:00:00 | |
| DL1XH-15 | 2026-09-02 06:14:29 | 52.70885 | 8.71794 | 84° | 57km/h | 6153m | -4.5m/s | -21.5°C | 91% | 471.5hPa | 2.6V | 07:43:11 | 02:42:57 | 00:00:00 | |
| DM0DOS-11 | 2026-09-02 06:14:28 | 52.70881 | 8.71746 | 83° | 58km/h | 6162m | -3.8m/s | -21.6°C | 91.6% | 471hPa | 2.6V | 07:43:13 | 02:42:55 | 00:00:00 | |
| DO3DL | 2026-09-02 06:14:28 | 52.70892 | 8.71890 | 83° | 58km/h | 6136m | -4.2m/s | -21.4°C | 86.2% | 472.6hPa | 2.6V | 07:43:00 | 00:00:00 | 00:00:00 | |
| GOEST3-10 | 2026-09-02 06:14:27 | 52.70890 | 8.71866 | 84° | 58km/h | 6140m | -3.9m/s | -21.4°C | 91.4% | 472.4hPa | 2.6V | 07:43:00 | 00:00:00 | 00:00:00 | |
| DF5WG-10 | 2026-09-02 06:14:26 | 52.70888 | 8.71842 | 84° | 58km/h | 6144m | -4.7m/s | -21.5°C | 91.7% | 472.1hPa | 2.6V | 00:00:00 | 02:42:59 | 00:00:00 | |
| DL1XH1-15 | 2026-09-02 06:14:25 | 52.70877 | 8.71698 | 81° | 60km/h | 6169m | -4.3m/s | -21.7°C | 92.1% | 470.4hPa | 2.5V | 07:43:15 | 02:42:53 | 00:00:00 | |
| DB0DAN | 2026-09-02 06:14:25 | 52.70886 | 8.71818 | 84° | 53km/h | 6149m | -4.5m/s | -21.5°C | 86.1% | 471.82hPa | 2.5V | 00:00:00 | 00:00:00 | 00:00:00 | |
| AA1-15 | 2026-09-02 06:14:23 | 52.70883 | 8.71771 | 83° | 58km/h | 6158m | -4.1m/s | -21.6°C | 86.6% | 471.3hPa | 2.6V | 07:43:47 | 02:42:56 | 00:00:00 | |
| DO2JMG | 2026-09-02 06:14:22 | 52.70881 | 8.71746 | 83° | 58km/h | 6162m | -3.8m/s | -21.6°C | 86.8% | 471hPa | 2.6V | 07:43:47 | 02:42:55 | 00:00:00 | |
| DL1XH-west | 2026-09-02 06:14:21 | 52.70880 | 8.71722 | 83° | 58km/h | 6165m | -3.9m/s | -21.7°C | 86.9% | 470.7hPa | 2.6V | 07:43:47 | 02:42:54 | 00:00:00 | |
| BIOWL1-15 | 2026-09-02 06:14:20 | 52.70877 | 8.71698 | 81° | 60km/h | 6169m | -4.3m/s | -21.7°C | 87% | 470.4hPa | 2.5V | 07:43:47 | 02:42:53 | 00:00:00 | |
| DD1CC3-15 | 2026-09-02 06:14:20 | 52.70880 | 8.71722 | 84° | 58km/h | 6166m | -3.9m/s | -21.7°C | 86.7% | 470.7hPa | 2.5V | 07:43:00 | 00:00:00 | 00:00:00 | |
| DL1XH-15 | 2026-09-02 06:14:19 | 52.70861 | 8.71550 | 80° | 60km/h | 6196m | -4.3m/s | -21.9°C | 93.5% | 468.8hPa | 2.5V | 07:43:21 | 02:42:47 | 00:00:00 | |
| BUE01 | 2026-09-02 06:14:18 | 52.70872 | 8.71649 | 78° | 58km/h | 6178m | -4.2m/s | -21.8°C | 87.6% | 469.9hPa | 2.6V | 00:00:00 | 00:00:00 | 00:00:00 | |
| DM0DOS-11 | 2026-09-02 06:14:17 | 52.70856 | 8.71499 | 81° | 60km/h | 6205m | -4m/s | -22°C | 93.3% | 468.2hPa | 2.6V | 07:43:23 | 02:42:45 | 00:00:00 | |
| GOEST3-10 | 2026-09-02 06:14:17 | 52.70869 | 8.71624 | 80° | 60km/h | 6182m | -3.9m/s | -21.7°C | 92.9% | 469.6hPa | 2.6V | 00:00:00 | 00:00:00 | 00:00:00 | |
| DF5WG-10 | 2026-09-02 06:14:16 | 52.70866 | 8.71599 | 80° | 60km/h | 6187m | -4.7m/s | -21.8°C | 93.2% | 469.3hPa | 2.6V | 00:00:00 | 02:42:49 | 00:00:00 | |
| DL1XH1-15 | 2026-09-02 06:14:15 | 52.70852 | 8.71450 | 83° | 58km/h | 6213m | -3.8m/s | -22.1°C | 93.6% | 467.7hPa | 2.6V | 07:43:25 | 02:42:43 | 00:00:00 | |
| DF8AY | 2026-09-02 06:14:13 | 52.70858 | 8.71524 | 80° | 62km/h | 6201m | -4.6m/s | -22°C | 89.4% | 468.5hPa | 2.5V | 07:43:47 | 02:42:46 | 00:00:00 | |
| BIOWL1-15 | 2026-09-02 06:14:12 | 52.70852 | 8.71450 | 83° | 58km/h | 6213m | -3.8m/s | -22.1°C | 89.1% | 467.7hPa | 2.6V | 07:43:47 | 02:42:43 | 00:00:00 | |
| DO2JMG | 2026-09-02 06:14:12 | 52.70856 | 8.71499 | 82° | 60km/h | 6205m | -4m/s | -22°C | 89.2% | 468.2hPa | 2.6V | 07:43:47 | 02:42:45 | 00:00:00 | |
| DL1XH-west | 2026-09-02 06:14:11 | 52.70854 | 8.71474 | 82° | 60km/h | 6209m | -4.1m/s | -22°C | 89.2% | 468hPa | 2.6V | 07:43:47 | 02:42:44 | 00:00:00 | |
| DB0DAN | 2026-09-02 06:14:10 | 52.70852 | 8.71450 | 83° | 57km/h | 6213m | -3.8m/s | -22.1°C | 88.4% | 467.73hPa | 2.6V | 00:00:00 | 00:00:00 | 00:00:00 | |
| DL1XH-15 | 2026-09-02 06:14:09 | 52.70849 | 8.71321 | 87° | 44km/h | 6237m | -4.3m/s | -22.2°C | 91.7% | 466.2hPa | 2.6V | 07:43:31 | 02:42:37 | 00:00:00 | |
| DL3AQ-11 | 2026-09-02 06:14:08 | 52.70850 | 8.71380 | 89° | 53km/h | 6225m | -4.4m/s | -22.2°C | 87.1% | 466.9hPa | 2.6V | 00:00:00 | 00:00:00 | 00:00:00 | |
| DM0DOS-11 | 2026-09-02 06:14:07 | 52.70847 | 8.71286 | 80° | 40km/h | 6245m | -3.8m/s | -22.2°C | 89.9% | 465.6hPa | 2.6V | 07:43:33 | 02:42:35 | 00:00:00 | |
| GOEST3-10 | 2026-09-02 06:14:07 | 52.70850 | 8.71380 | 90° | 47km/h | 6225m | -4.4m/s | -22.1°C | 92.4% | 466.8hPa | 2.5V | 00:00:00 | 00:00:00 | 00:00:00 | |
| DO9LL-15 | 2026-09-02 06:14:06 | 52.70850 | 8.71359 | 89° | 53km/h | 6230m | -4.0m/s | -22.1°C | 92.1% | 466.6hPa | 2.5V | 00:00:00 | 02:42:39 | 00:00:00 | |
| DL1XH1-15 | 2026-09-02 06:14:05 | 52.70843 | 8.71252 | 73° | 42km/h | 6253m | -4.2m/s | -22.3°C | 89.4% | 465.1hPa | 2.5V | 07:43:35 | 02:42:33 | 00:00:00 | |
| DF8AY | 2026-09-02 06:14:02 | 52.70847 | 8.71286 | 81° | 40km/h | 6246m | -3.8m/s | -22.2°C | 85.7% | 465.6hPa | 2.6V | 07:43:47 | 02:42:35 | 00:00:00 | |
| DO2JMG | 2026-09-02 06:14:01 | 52.70845 | 8.71269 | 78° | 40km/h | 6249m | -3.9m/s | -22.3°C | 86.1% | 465.4hPa | 2.5V | 07:43:47 | 02:42:34 | 00:00:00 | |
| DL1XH-west | 2026-09-02 06:14:00 | 52.70843 | 8.71252 | 74° | 42km/h | 6253m | -4.3m/s | -22.3°C | 85.4% | 465.1hPa | 2.5V | 07:43:47 | 02:42:33 | 00:00:00 | |
| DL1XH-15 | 2026-09-02 06:13:59 | 52.70816 | 8.71135 | 69° | 55km/h | 6277m | -3.7m/s | -22.4°C | 89.4% | 463.5hPa | 2.5V | 07:43:41 | 02:42:27 | 00:00:00 | |
| BIOWL1-15 | 2026-09-02 06:13:59 | 52.70839 | 8.71235 | 72° | 46km/h | 6258m | -3.8m/s | -22.3°C | 85.4% | 464.9hPa | 2.5V | 07:43:47 | 02:42:32 | 00:00:00 | |
| DO3DL | 2026-09-02 06:13:58 | 52.70839 | 8.71234 | 73° | 46km/h | 6258m | -3.8m/s | -22.3°C | 84.3% | 464.9hPa | 2.6V | 07:43:00 | 00:00:00 | 00:00:00 | |
| DM0DOS-11 | 2026-09-02 06:13:57 | 52.70807 | 8.71090 | 71° | 58km/h | 6285m | -3.7m/s | -22.5°C | 90.2% | 463.2hPa | 2.6V | 07:43:43 | 02:42:25 | 00:00:00 | |
| GOEST3-10 | 2026-09-02 06:13:57 | 52.70830 | 8.71197 | 70° | 55km/h | 6265m | -3.9m/s | -22.3°C | 89.1% | 464.4hPa | 2.6V | 00:00:00 | 00:00:00 | 00:00:00 | |
| DF5WG-10 | 2026-09-02 06:13:56 | 52.70826 | 8.71177 | 69° | 58km/h | 6269m | -4.2m/s | -22.3°C | 89.0% | 464.1hPa | 2.6V | 00:00:00 | 02:42:29 | 00:00:00 | |
| DL1XH1-15 | 2026-09-02 06:13:55 | 52.70797 | 8.71043 | 72° | 60km/h | 6292m | -3.8m/s | -22.6°C | 90.6% | 462.6hPa | 2.5V | 07:43:45 | 02:42:23 | 00:00:00 | |
| DB0DAN | 2026-09-02 06:13:55 | 52.70821 | 8.71156 | 69° | 51km/h | 6273m | -4m/s | -22.4°C | 84.1% | 463.92hPa | 2.5V | 00:00:00 | 00:00:00 | 00:00:00 | |
| DO2JMG | 2026-09-02 06:13:51 | 52.70802 | 8.71067 | 72° | 58km/h | 6288m | -4m/s | -22.6°C | 86.9% | 462.9hPa | 2.6V | 07:43:47 | 02:42:24 | 00:00:00 | |
| DL1XH-west | 2026-09-02 06:13:50 | 52.70797 | 8.71044 | 73° | 60km/h | 6292m | -3.8m/s | -22.6°C | 86.9% | 462.6hPa | 2.5V | 07:43:47 | 02:42:23 | 00:00:00 | |
| BIOWL1-15 | 2026-09-02 06:13:49 | 52.70793 | 8.71020 | 74° | 60km/h | 6296m | -4.1m/s | -22.6°C | 86.3% | 462.3hPa | 2.5V | 07:43:47 | 02:42:22 | 00:00:00 | |
| DM0DOS-11 | 2026-09-02 06:13:48 | 52.70773 | 8.70846 | 86° | 55km/h | 6322m | -3.8m/s | -22.8°C | 90.2% | 460.7hPa | 2.6V | 07:43:53 | 02:42:15 | 00:00:00 | |
| GOEST3-10 | 2026-09-02 06:13:47 | 52.70785 | 8.70970 | 78° | 60km/h | 6304m | -3.6m/s | -22.6°C | 90.0% | 461.8hPa | 2.6V | 07:43:00 | 00:00:00 | 00:00:00 | |
| DF5WG-10 | 2026-09-02 06:13:46 | 52.70782 | 8.70945 | 78° | 53km/h | 6307m | -3.5m/s | -22.6°C | 90.2% | 461.6hPa | 2.5V | 00:00:00 | 02:42:19 | 00:00:00 | |
| DL1XH1-15 | 2026-09-02 06:13:45 | 52.70772 | 8.70803 | 87° | 47km/h | 6329m | -3.7m/s | -22.8°C | 90.4% | 460.3hPa | 2.5V | 07:43:55 | 02:42:13 | 00:00:00 | |
| DJ2DS-15 | 2026-09-02 06:13:45 | 52.70776 | 8.70894 | 81° | 58km/h | 6314m | -4.0m/s | -22.7°C | 85.0% | 461.2hPa | 2.5V | 00:00:00 | 00:00:00 | 00:00:00 | |
| DF8AY | 2026-09-02 06:13:41 | 52.70772 | 8.70824 | 88° | 51km/h | 6326m | -3.5m/s | -22.8°C | 86.6% | 460.5hPa | 2.5V | 07:44:38 | 02:42:14 | 00:00:00 | |
| DB0DAN | 2026-09-02 06:13:40 | 52.70772 | 8.70803 | 87° | 46km/h | 6329m | -3.7m/s | -22.8°C | 85.1% | 460.31hPa | 2.5V | 00:00:00 | 00:00:00 | 00:00:00 | |
| DL1XH-west | 2026-09-02 06:13:40 | 52.70772 | 8.70803 | 87° | 47km/h | 6329m | -3.7m/s | -22.8°C | 86.7% | 460.3hPa | 2.5V | 07:44:38 | 02:42:13 | 00:00:00 | |
| AA1-15 | 2026-09-02 06:13:39 | 52.70771 | 8.70784 | 86° | 47km/h | 6333m | -4m/s | -22.8°C | 86.5% | 460.1hPa | 2.6V | 07:44:38 | 02:42:12 | 00:00:00 | |
| DD1CC3-15 | 2026-09-02 06:13:38 | 52.70771 | 8.70784 | 87° | 47km/h | 6333m | -4.0m/s | -22.8°C | 84.8% | 460.1hPa | 2.6V | 07:44:00 | 00:00:00 | 00:00:00 | |
| DM0DOS-11 | 2026-09-02 06:13:37 | 52.70765 | 8.70652 | 85° | 44km/h | 6360m | -3.4m/s | -23.1°C | 92.3% | 458.4hPa | 2.6V | 07:44:03 | 02:42:05 | 00:00:00 | |
| GOEST3-10 | 2026-09-02 06:13:37 | 52.70769 | 8.70745 | 86° | 46km/h | 6342m | -3.8m/s | -22.8°C | 90.5% | 459.5hPa | 2.5V | 00:00:00 | 00:00:00 | 00:00:00 | |
| DO9LL-15 | 2026-09-02 06:13:36 | 52.70768 | 8.70726 | 86° | 51km/h | 6345m | -3.7m/s | -22.9°C | 90.5% | 459.3hPa | 2.5V | 00:00:00 | 02:42:09 | 00:00:00 | |
| DL1XH1-15 | 2026-09-02 06:13:35 | 52.70763 | 8.70615 | 85° | 46km/h | 6366m | -3.4m/s | -23.1°C | 92.9% | 457.9hPa | 2.6V | 07:44:05 | 02:42:03 | 00:00:00 | |
| DF8AY | 2026-09-02 06:13:31 | 52.70763 | 8.70633 | 85° | 44km/h | 6363m | -3.4m/s | -23.1°C | 88.2% | 458.1hPa | 2.6V | 07:44:38 | 02:42:04 | 00:00:00 | |
| DO2JMG | 2026-09-02 06:13:30 | 52.70762 | 8.70615 | 86° | 46km/h | 6366m | -3.4m/s | -23.1°C | 88.7% | 457.9hPa | 2.6V | 07:44:38 | 02:42:03 | 00:00:00 | |
| DB0NH | 2026-09-02 06:13:30 | 52.70762 | 8.70615 | 86° | 47km/h | 6366m | -3.3m/s | -23.1°C | 92.9% | 457.8hPa | 2.6V | 00:00:00 | 02:42:03 | 00:00:00 | |
| DL1XH-15 | 2026-09-02 06:13:29 | 52.70753 | 8.70506 | 76° | 44km/h | 6387m | -3.5m/s | -23.3°C | 95.2% | 456.6hPa | 2.6V | 07:44:11 | 02:41:57 | 00:00:00 | |
| DL1XH-west | 2026-09-02 06:13:29 | 52.70761 | 8.70596 | 84° | 44km/h | 6370m | -3.7m/s | -23.2°C | 89% | 457.7hPa | 2.5V | 07:44:38 | 02:42:02 | 00:00:00 | |
| DL3AQ-11 | 2026-09-02 06:13:28 | 52.70759 | 8.70560 | 83° | 44km/h | 6377m | -3.4m/s | -23.2°C | 88.8% | 457.2hPa | 2.6V | 00:00:00 | 00:00:00 | 00:00:00 | |
| BIOWL1-15 | 2026-09-02 06:13:28 | 52.70760 | 8.70578 | 83° | 44km/h | 6373m | -3.6m/s | -23.2°C | 89.1% | 457.4hPa | 2.5V | 07:44:38 | 02:42:01 | 00:00:00 | |
| GOEST3-10 | 2026-09-02 06:13:27 | 52.70759 | 8.70560 | 84° | 44km/h | 6377m | -3.4m/s | -23.2°C | 94.3% | 457.2hPa | 2.6V | 00:00:00 | 00:00:00 | 00:00:00 | |
| DF5WG-10 | 2026-09-02 06:13:26 | 52.70757 | 8.70541 | 81° | 47km/h | 6380m | -3.6m/s | -23.2°C | 93.9% | 456.9hPa | 2.6V | 00:00:00 | 02:41:59 | 00:00:00 | |
| DL1XH1-15 | 2026-09-02 06:13:25 | 52.70740 | 8.70433 | 70° | 47km/h | 6402m | -3.6m/s | -23.4°C | 96% | 455.6hPa | 2.6V | 07:44:15 | 02:41:53 | 00:00:00 | |
| DB0DAN | 2026-09-02 06:13:25 | 52.70755 | 8.70524 | 80° | 42km/h | 6384m | -3.7m/s | -23.3°C | 88.9% | 456.73hPa | 2.6V | 00:00:00 | 00:00:00 | 00:00:00 | |
| DF8AY | 2026-09-02 06:13:20 | 52.70740 | 8.70433 | 71° | 47km/h | 6402m | -3.6m/s | -23.4°C | 90.8% | 455.6hPa | 2.6V | 07:44:38 | 02:41:53 | 00:00:00 | |
| DO2JMG | 2026-09-02 06:13:19 | 52.70736 | 8.70413 | 71° | 51km/h | 6406m | -3.7m/s | -23.5°C | 90.9% | 455.4hPa | 2.6V | 07:44:38 | 02:41:52 | 00:00:00 | |
| DL1XH-west | 2026-09-02 06:13:18 | 52.70732 | 8.70393 | 72° | 53km/h | 6410m | -3.8m/s | -23.5°C | 91.4% | 455.2hPa | 2.5V | 07:44:38 | 02:41:51 | 00:00:00 | |
| BIOWL1-15 | 2026-09-02 06:13:17 | 52.70728 | 8.70371 | 73° | 57km/h | 6413m | -3.6m/s | -23.5°C | 91.6% | 454.9hPa | 2.5V | 07:44:38 | 02:41:50 | 00:00:00 | |
| DF5WG-10 | 2026-09-02 06:13:16 | 52.70723 | 8.70349 | 74° | 62km/h | 6417m | -3.8m/s | -23.5°C | 97.0% | 454.7hPa | 2.5V | 07:44:00 | 02:41:49 | 00:00:00 | |
| DL1XH1-15 | 2026-09-02 06:13:15 | 52.70704 | 8.70199 | 83° | 62km/h | 6439m | -3.5m/s | -23.8°C | 96.1% | 453.3hPa | 2.5V | 07:44:25 | 02:41:43 | 00:00:00 | |
| DF8AY | 2026-09-02 06:13:10 | 52.70704 | 8.70199 | 84° | 62km/h | 6439m | -3.5m/s | -23.8°C | 91.2% | 453.3hPa | 2.5V | 07:44:38 | 02:41:43 | 00:00:00 | |
| DB0DAN | 2026-09-02 06:13:10 | 52.70704 | 8.70199 | 84° | 60km/h | 6439m | -3.5m/s | -23.8°C | 90.4% | 453.31hPa | 2.5V | 00:00:00 | 00:00:00 | 00:00:00 | |
| DO2JMG | 2026-09-02 06:13:09 | 52.70702 | 8.70173 | 84° | 62km/h | 6442m | -4m/s | -23.8°C | 91.5% | 453.2hPa | 2.5V | 07:44:38 | 02:41:42 | 00:00:00 | |
| DL1XH-west | 2026-09-02 06:13:07 | 52.70699 | 8.70122 | 85° | 62km/h | 6450m | -4m/s | -23.8°C | 92% | 452.7hPa | 2.6V | 07:44:38 | 02:41:40 | 00:00:00 | |
| BIOWL1-15 | 2026-09-02 06:13:06 | 52.70698 | 8.70096 | 86° | 60km/h | 6454m | -3.5m/s | -23.9°C | 92.5% | 452.4hPa | 2.6V | 07:44:38 | 02:41:39 | 00:00:00 | |
| DF8AY | 2026-09-02 06:12:59 | 52.70693 | 8.69921 | 88° | 60km/h | 6481m | -4.2m/s | -24.1°C | 93.1% | 450.8hPa | 2.5V | 07:44:38 | 02:41:32 | 00:00:00 | |
| DO2JMG | 2026-09-02 06:12:58 | 52.70692 | 8.69896 | 88° | 58km/h | 6485m | -4.2m/s | -24.1°C | 93% | 450.6hPa | 2.5V | 07:44:38 | 02:41:31 | 00:00:00 | |
| GOEST3-10 | 2026-09-02 06:12:57 | 52.70692 | 8.69872 | 90° | 57km/h | 6489m | -3.9m/s | -24.1°C | 98.2% | 450.2hPa | 2.6V | 00:00:00 | 00:00:00 | 00:00:00 | |
| DM0DOS-11 | 2026-09-02 06:12:56 | 52.70692 | 8.69755 | 90° | 53km/h | 6508m | -3.7m/s | -24.3°C | 99.8% | 449.1hPa | 2.6V | 07:44:43 | 02:41:25 | 00:00:00 | |
| BIOWL1-15 | 2026-09-02 06:12:56 | 52.70692 | 8.69848 | 91° | 58km/h | 6493m | -3.6m/s | -24.2°C | 94.1% | 450.1hPa | 2.6V | 07:45:29 | 02:41:29 | 00:00:00 | |
| AA1-15 | 2026-09-02 06:12:55 | 52.70692 | 8.69824 | 90° | 58km/h | 6497m | -3.7m/s | -24.2°C | 94.9% | 449.8hPa | 2.6V | 07:45:29 | 02:41:28 | 00:00:00 | |
| SONCRA | 2026-09-02 06:12:54 | 52.70692 | 8.69777 | 91° | 53km/h | 6504m | -3.9m/s | -24.3°C | 93.7% | 449.4hPa | 2.6V | 00:00:00 | 00:00:00 | 00:00:00 | |
| BIOWL9-15 | 2026-09-02 06:12:52 | 52.70692 | 8.69755 | 90° | 51km/h | 6508m | -3.7m/s | 0°C | -1.0% | 449.2hPa | 2.6V | 00:00:00 | 00:00:00 | 00:00:00 | |
| DL1XH-15 | 2026-09-02 06:12:49 | 52.70695 | 8.69592 | 88° | 44km/h | 6539m | -3.5m/s | -24.6°C | 98.8% | 447.1hPa | 2.6V | 07:44:51 | 02:41:17 | 00:00:00 | |
| DO2JMG | 2026-09-02 06:12:48 | 52.70694 | 8.69670 | 92° | 49km/h | 6525m | -4m/s | -24.4°C | 95.3% | 448.1hPa | 2.5V | 07:45:29 | 02:41:21 | 00:00:00 | |
| BIOWL1-15 | 2026-09-02 06:12:47 | 52.70695 | 8.69611 | 91° | 47km/h | 6536m | -3.5m/s | -24.5°C | 94.6% | 447.3hPa | 2.6V | 07:45:29 | 02:41:18 | 00:00:00 | |
| GOEST3-10 | 2026-09-02 06:12:47 | 52.70694 | 8.69650 | 93° | 46km/h | 6529m | -3.8m/s | -24.4°C | 99.5% | 447.8hPa | 2.5V | 00:00:00 | 00:00:00 | 00:00:00 | |
| DM0DOS-11 | 2026-09-02 06:12:46 | 52.70694 | 8.69555 | 86° | 44km/h | 6547m | -3.7m/s | -24.6°C | 98.9% | 446.6hPa | 2.5V | 07:44:53 | 02:41:15 | 00:00:00 | |
| DL1XH-west | 2026-09-02 06:12:46 | 52.70694 | 8.69630 | 92° | 47km/h | 6532m | -3.8m/s | -24.5°C | 94.7% | 447.6hPa | 2.6V | 07:45:29 | 02:41:19 | 00:00:00 | |
| AA1-15 | 2026-09-02 06:12:44 | 52.70695 | 8.69592 | 88° | 44km/h | 6539m | -3.5m/s | -24.6°C | 94.2% | 447.1hPa | 2.6V | 07:45:29 | 02:41:17 | 00:00:00 | |
| DL1CLM-18 | 2026-09-02 06:12:43 | 52.70694 | 8.69573 | 90° | 44km/h | 6543m | -3.8m/s | -24.6°C | 92.7% | 446.9hPa | 2.5V | 07:45:00 | 00:00:00 | 00:00:00 | |
| GOEST3-10 | 2026-09-02 06:12:42 | 52.70694 | 8.69555 | 87° | 44km/h | 6547m | -3.7m/s | -24.6°C | 98.9% | 446.6hPa | 2.5V | 00:00:00 | 02:41:15 | 00:00:00 | |
| DB0DAN | 2026-09-02 06:12:40 | 52.70691 | 8.69519 | 82° | 42km/h | 6554m | -3.8m/s | -24.7°C | 92.4% | 446.23hPa | 2.5V | 00:00:00 | 00:00:00 | 00:00:00 | |
| DL1XH-15 | 2026-09-02 06:12:39 | 52.70675 | 8.69410 | 74° | 46km/h | 6578m | -4.2m/s | -24.9°C | 99.2% | 444.7hPa | 2.6V | 07:45:01 | 02:41:07 | 00:00:00 | |
| DF8AY | 2026-09-02 06:12:38 | 52.70687 | 8.69483 | 77° | 46km/h | 6562m | -4.2m/s | -24.8°C | 94% | 445.7hPa | 2.6V | 07:45:29 | 02:41:11 | 00:00:00 | |
| DO2JMG | 2026-09-02 06:12:37 | 52.70684 | 8.69464 | 76° | 46km/h | 6566m | -3.9m/s | -24.8°C | 94% | 445.5hPa | 2.6V | 07:45:29 | 02:41:10 | 00:00:00 | |
| DK9SH | 2026-09-02 06:12:37 | 52.70684 | 8.69464 | 77° | 46km/h | 6567m | -3.9m/s | -24.8°C | 92.4% | 445.5hPa | 2.5V | 07:45:00 | 00:00:00 | 00:00:00 | |
| DO9LL-15 | 2026-09-02 06:12:36 | 52.70681 | 8.69446 | 76° | 57km/h | 6570m | -3.8m/s | -24.7°C | 98.6% | 445.1hPa | 2.5V | 00:00:00 | 02:41:09 | 00:00:00 | |
| DL1XH1-15 | 2026-09-02 06:12:35 | 52.70661 | 8.69332 | 71° | 53km/h | 6595m | -4m/s | -25°C | 99.8% | 443.7hPa | 2.5V | 07:45:05 | 02:41:03 | 00:00:00 | |
| DL1XH-west | 2026-09-02 06:12:35 | 52.70678 | 8.69428 | 74° | 46km/h | 6574m | -3.8m/s | -24.8°C | 94.6% | 445hPa | 2.5V | 07:45:29 | 02:41:08 | 00:00:00 | |
| BIOWL1-15 | 2026-09-02 06:12:34 | 52.70675 | 8.69410 | 75° | 46km/h | 6578m | -4.2m/s | -24.9°C | 94.7% | 444.7hPa | 2.6V | 07:45:29 | 02:41:07 | 00:00:00 | |
| AA1-15 | 2026-09-02 06:12:33 | 52.70672 | 8.69391 | 73° | 47km/h | 6582m | -4.3m/s | -24.9°C | 95% | 444.5hPa | 2.6V | 07:45:29 | 02:41:06 | 00:00:00 | |
| HSKMA3-T | 2026-09-02 06:12:30 | 52.70661 | 8.69332 | 71° | 53km/h | 6595m | -4m/s | -25°C | 95% | 443.7hPa | 2.5V | 07:45:29 | 02:41:03 | 00:00:00 | |
| DL1XH-15 | 2026-09-02 06:12:29 | 52.70639 | 8.69190 | 79° | 62km/h | 6621m | -4m/s | -25.1°C | 98.8% | 442.3hPa | 2.5V | 07:45:11 | 02:40:57 | 00:00:00 | |
| DO2JMG | 2026-09-02 06:12:27 | 52.70649 | 8.69265 | 77° | 60km/h | 6608m | -4.4m/s | -25.1°C | 94.8% | 443hPa | 2.6V | 07:45:29 | 02:41:00 | 00:00:00 | |
| GOEST3-10 | 2026-09-02 06:12:27 | 52.70649 | 8.69265 | 77° | 62km/h | 6608m | -4.4m/s | -25.0°C | 99.7% | 442.9hPa | 2.5V | 07:45:00 | 00:00:00 | 00:00:00 | |
| DB0NH | 2026-09-02 06:12:26 | 52.70645 | 8.69240 | 78° | 58km/h | 6612m | -4.2m/s | -25.0°C | 99.3% | 442.7hPa | 2.5V | 07:45:00 | 02:40:59 | 00:00:00 | |
| DL1XH1-15 | 2026-09-02 06:12:25 | 52.70632 | 8.69086 | 87° | 60km/h | 6636m | -3.9m/s | -25.3°C | 99.5% | 441.3hPa | 2.5V | 07:45:15 | 02:40:53 | 00:00:00 | |
| BIOWL1-15 | 2026-09-02 06:12:25 | 52.70637 | 8.69164 | 81° | 64km/h | 6625m | -4m/s | -25.2°C | 94% | 442hPa | 2.6V | 07:45:29 | 02:40:56 | 00:00:00 | |
| DB0DAN | 2026-09-02 06:12:25 | 52.70642 | 8.69215 | 79° | 60km/h | 6616m | -4.2m/s | -25.1°C | 92.6% | 442.51hPa | 2.5V | 00:00:00 | 00:00:00 | 00:00:00 | |
| DL1XH-west | 2026-09-02 06:12:24 | 52.70639 | 8.69190 | 80° | 62km/h | 6621m | -4m/s | -25.1°C | 93.9% | 442.3hPa | 2.5V | 07:45:29 | 02:40:57 | 00:00:00 | |
| AA1-15 | 2026-09-02 06:12:22 | 52.70635 | 8.69138 | 84° | 62km/h | 6628m | -3.8m/s | -25.2°C | 94.2% | 441.8hPa | 2.6V | 07:45:29 | 02:40:55 | 00:00:00 | |
| DL8OAI-8 | 2026-09-02 06:12:20 | 52.70633 | 8.69112 | 86° | 62km/h | 6632m | -4.3m/s | -25.2°C | 93.0% | 441.5hPa | 2.5V | 07:45:00 | 00:00:00 | 00:00:00 | |
| DL1XH-15 | 2026-09-02 06:12:19 | 52.70634 | 8.68940 | 94° | 57km/h | 6661m | -4.5m/s | -25.5°C | 0% | 439.8hPa | 2.5V | 07:45:21 | 02:40:47 | 00:00:00 | |
| DO2JMG | 2026-09-02 06:12:17 | 52.70632 | 8.69012 | 92° | 58km/h | 6648m | -4.1m/s | -25.4°C | 94.8% | 440.5hPa | 2.6V | 07:45:29 | 02:40:50 | 00:00:00 | |
| GOEST3-10 | 2026-09-02 06:12:17 | 52.70632 | 8.69012 | 93° | 57km/h | 6648m | -4.1m/s | -25.3°C | 0% | 440.5hPa | 2.6V | 00:00:00 | 00:00:00 | 00:00:00 | |
| DM0DOS-11 | 2026-09-02 06:12:16 | 52.70636 | 8.68893 | 94° | 57km/h | 6670m | -4.7m/s | -25.6°C | 0% | 439.3hPa | 2.6V | 07:45:23 | 02:40:45 | 00:00:00 | |
| DF8AY | 2026-09-02 06:12:16 | 52.70632 | 8.68988 | 92° | 57km/h | 6652m | -4.3m/s | -25.4°C | 94.9% | 440.3hPa | 2.6V | 07:45:29 | 02:40:49 | 00:00:00 | |
| DL1XH1-15 | 2026-09-02 06:12:15 | 52.70638 | 8.68847 | 94° | 55km/h | 6678m | -4.4m/s | -25.6°C | 0% | 438.7hPa | 2.6V | 07:45:25 | 02:40:43 | 00:00:00 | |
| DL1XH-west | 2026-09-02 06:12:13 | 52.70635 | 8.68917 | 94° | 57km/h | 6665m | -4.7m/s | -25.5°C | 94.9% | 439.5hPa | 2.5V | 07:45:29 | 02:40:46 | 00:00:00 | |
| AA1-15 | 2026-09-02 06:12:12 | 52.70636 | 8.68893 | 94° | 57km/h | 6670m | -4.7m/s | -25.6°C | 94.7% | 439.3hPa | 2.6V | 07:45:29 | 02:40:45 | 00:00:00 | |
| DJ2DS-15 | 2026-09-02 06:12:12 | 52.70636 | 8.68893 | 95° | 57km/h | 6670m | -4.7m/s | -25.5°C | 0% | 439.2hPa | 2.6V | 07:45:00 | 02:40:45 | 00:00:00 | |
| DL1LOL-11 | 2026-09-02 06:12:11 | 52.70636 | 8.68893 | 95° | 57km/h | 6670m | -4.7m/s | -25.6°C | 94.1% | 439.3hPa | 2.6V | 00:00:00 | 00:00:00 | 00:00:00 | |
| DB0DAN | 2026-09-02 06:12:10 | 52.70638 | 8.68847 | 95° | 53km/h | 6679m | -4.4m/s | -25.7°C | 94.3% | 438.73hPa | 2.6V | 00:00:00 | 00:00:00 | 00:00:00 | |
| DL1XH-15 | 2026-09-02 06:12:09 | 52.70646 | 8.68709 | 93° | 57km/h | 6703m | -4m/s | -25.8°C | 98.5% | 437.2hPa | 2.6V | 07:45:31 | 02:40:37 | 00:00:00 | |
| DL1CLM-18 | 2026-09-02 06:12:08 | 52.70639 | 8.68824 | 96° | 55km/h | 6683m | -4.4m/s | -25.7°C | 94.3% | 438.5hPa | 2.5V | 07:45:00 | 00:00:00 | 00:00:00 | |
| GOEST3-10 | 2026-09-02 06:12:07 | 52.70642 | 8.68779 | 95° | 57km/h | 6691m | -3.9m/s | -25.7°C | 0% | 437.9hPa | 2.5V | 00:00:00 | 00:00:00 | 00:00:00 | |
| DM0DOS-11 | 2026-09-02 06:12:06 | 52.70647 | 8.68661 | 92° | 58km/h | 6711m | -4.5m/s | -25.8°C | 96.9% | 436.7hPa | 2.5V | 07:45:33 | 02:40:35 | 00:00:00 | |
| DO2JMG | 2026-09-02 06:12:06 | 52.70643 | 8.68756 | 96° | 55km/h | 6695m | -4.3m/s | -25.7°C | 93.2% | 437.7hPa | 2.6V | 07:45:29 | 02:40:39 | 00:00:00 | |
| DO9LL-15 | 2026-09-02 06:12:06 | 52.70643 | 8.68756 | 97° | 47km/h | 6695m | -4.3m/s | -25.7°C | 99.3% | 437.6hPa | 2.6V | 00:00:00 | 02:40:39 | 00:00:00 | |
| DL1XH1-15 | 2026-09-02 06:12:05 | 52.70648 | 8.68612 | 89° | 60km/h | 6720m | -4.4m/s | -25.9°C | 97.6% | 436.1hPa | 2.6V | 07:45:35 | 02:40:33 | 00:00:00 | |
| DL1XH-west | 2026-09-02 06:12:03 | 52.70647 | 8.68685 | 94° | 58km/h | 6707m | -4.2m/s | -25.8°C | 91.9% | 436.9hPa | 2.5V | 07:46:20 | 02:40:36 | 00:00:00 | |
| AA1-15 | 2026-09-02 06:12:01 | 52.70648 | 8.68636 | 91° | 60km/h | 6716m | -4.7m/s | -25.8°C | 91% | 436.4hPa | 2.6V | 07:46:20 | 02:40:34 | 00:00:00 | |
| HSKMA3-T | 2026-09-02 06:12:00 | 52.70648 | 8.68612 | 90° | 60km/h | 6720m | -4.4m/s | -25.9°C | 91.4% | 436.1hPa | 2.6V | 07:46:20 | 02:40:33 | 00:00:00 | |
| D01LWL | 2026-09-02 06:12:00 | 52.70647 | 8.68587 | 88° | 58km/h | 6724m | -4.7m/s | -25.9°C | 91.6% | 435.9hPa | 2.5V | 00:00:00 | 00:00:00 | 00:00:00 | |
| DL8OAI-8 | 2026-09-02 06:11:59 | 52.70648 | 8.68612 | 91° | 60km/h | 6720m | -4.4m/s | -25.9°C | 91.6% | 436.1hPa | 2.5V | 00:00:00 | 00:00:00 | 00:00:00 | |
| DO3DL | 2026-09-02 06:11:58 | 52.70647 | 8.68587 | 89° | 60km/h | 6725m | -4.7m/s | -25.9°C | 91.7% | 435.9hPa | 2.5V | 07:46:00 | 00:00:00 | 00:00:00 | |
| GOEST3-10 | 2026-09-02 06:11:57 | 52.70646 | 8.68537 | 88° | 55km/h | 6734m | -4.5m/s | -25.9°C | 97.4% | 435.3hPa | 2.5V | 00:00:00 | 00:00:00 | 00:00:00 | |
| DM0DOS-11 | 2026-09-02 06:11:56 | 52.70650 | 8.68426 | 101° | 47km/h | 6754m | -4.5m/s | -26°C | 94.2% | 434.1hPa | 2.5V | 07:45:43 | 02:40:25 | 00:00:00 | |
| DO2JMG | 2026-09-02 06:11:55 | 52.70646 | 8.68490 | 92° | 55km/h | 6743m | -4.2m/s | -26°C | 89.2% | 434.9hPa | 2.6V | 07:46:20 | 02:40:28 | 00:00:00 | |
| DB0DAN | 2026-09-02 06:11:55 | 52.70646 | 8.68490 | 92° | 53km/h | 6743m | -4.2m/s | -26°C | 90.4% | 434.85hPa | 2.6V | 00:00:00 | 00:00:00 | 00:00:00 | |
| DL1XH-west | 2026-09-02 06:11:53 | 52.70648 | 8.68446 | 98° | 49km/h | 6751m | -3.7m/s | -26°C | 88.1% | 434.4hPa | 2.5V | 07:46:20 | 02:40:26 | 00:00:00 | |
| BIOWL1-15 | 2026-09-02 06:11:52 | 52.70650 | 8.68426 | 101° | 47km/h | 6754m | -4.5m/s | -26°C | 87.5% | 434.1hPa | 2.5V | 07:46:20 | 02:40:25 | 00:00:00 | |
| HSKMA3-T | 2026-09-02 06:11:50 | 52.70655 | 8.68388 | 101° | 46km/h | 6763m | -4.5m/s | -25.9°C | 84.3% | 433.4hPa | 2.6V | 07:46:20 | 02:40:23 | 00:00:00 | |
| DD1CC8 | 2026-09-02 06:11:47 | 52.70664 | 8.68319 | 103° | 40km/h | 6780m | -4.6m/s | -26.1°C | 85.3% | 432.5hPa | 2.5V | 00:00:00 | 00:00:00 | 00:00:00 | |
| DM0DOS-11 | 2026-09-02 06:11:46 | 52.70675 | 8.68255 | 103° | 38km/h | 6798m | -4.8m/s | -26.1°C | 88.2% | 431.5hPa | 2.5V | 07:45:53 | 02:40:15 | 00:00:00 | |
| DF8AY | 2026-09-02 06:11:45 | 52.70667 | 8.68303 | 105° | 40km/h | 6785m | -4.4m/s | -26.2°C | 84.8% | 432.3hPa | 2.6V | 07:46:20 | 02:40:18 | 00:00:00 | |
| DL1XH-west | 2026-09-02 06:11:43 | 52.70672 | 8.68271 | 104° | 38km/h | 6793m | -4.4m/s | -26.1°C | 82.5% | 431.8hPa | 2.5V | 07:46:20 | 02:40:16 | 00:00:00 | |
| BIOWL1-15 | 2026-09-02 06:11:42 | 52.70675 | 8.68255 | 103° | 38km/h | 6798m | -4.8m/s | -26.1°C | 82.1% | 431.5hPa | 2.5V | 07:46:20 | 02:40:15 | 00:00:00 | |
| GOEST3-10 | 2026-09-02 06:11:42 | 52.70675 | 8.68255 | 104° | 35km/h | 6798m | -4.7m/s | -26.0°C | 88.2% | 431.4hPa | 2.6V | 00:00:00 | 02:40:15 | 00:00:00 | |
| DO3DL | 2026-09-02 06:11:40 | 52.70678 | 8.68226 | 100° | 33km/h | 6807m | -4.4m/s | -25.9°C | 81.0% | 431.1hPa | 2.6V | 07:46:00 | 00:00:00 | 00:00:00 | |
| DL1XH-15 | 2026-09-02 06:11:39 | 52.70681 | 8.68144 | 87° | 35km/h | 6832m | -3.9m/s | -25.7°C | 84.1% | 429.5hPa | 2.6V | 07:46:01 | 02:40:07 | 00:00:00 | |
| AA1-15 | 2026-09-02 06:11:39 | 52.70679 | 8.68212 | 97° | 33km/h | 6811m | -4.2m/s | -25.8°C | 81.2% | 430.7hPa | 2.6V | 07:46:20 | 02:40:12 | 00:00:00 | |
| HSKMA3-T | 2026-09-02 06:11:38 | 52.70680 | 8.68199 | 94° | 33km/h | 6815m | -4.5m/s | -25.8°C | 81.1% | 430.5hPa | 2.6V | 07:46:20 | 02:40:11 | 00:00:00 | |
| GOEST3-10 | 2026-09-02 06:11:37 | 52.70680 | 8.68185 | 93° | 33km/h | 6820m | -4.5m/s | -25.7°C | 85.1% | 430.2hPa | 2.6V | 00:00:00 | 00:00:00 | 00:00:00 | |
| DM0DOS-11 | 2026-09-02 06:11:36 | 52.70679 | 8.68116 | 85° | 35km/h | 6839m | -3.8m/s | -25.6°C | 83.2% | 429hPa | 2.6V | 07:46:03 | 02:40:05 | 00:00:00 | |
| DO9LL-15 | 2026-09-02 06:11:36 | 52.70681 | 8.68172 | 93° | 40km/h | 6824m | -4.1m/s | -25.7°C | 84.6% | 429.9hPa | 2.5V | 07:45:00 | 02:40:09 | 00:00:00 | |
| DL1XH1-15 | 2026-09-02 06:11:35 | 52.70677 | 8.68086 | 82° | 37km/h | 6847m | -4.4m/s | -25.5°C | 81.4% | 428.5hPa | 2.5V | 07:46:05 | 02:40:03 | 00:00:00 | |
| DO2JMG | 2026-09-02 06:11:34 | 52.70681 | 8.68144 | 87° | 35km/h | 6832m | -3.9m/s | -25.7°C | 80.2% | 429.5hPa | 2.6V | 07:46:20 | 02:40:07 | 00:00:00 | |
| DL1XH-west | 2026-09-02 06:11:32 | 52.70679 | 8.68116 | 85° | 35km/h | 6839m | -3.8m/s | -25.6°C | 79.6% | 429hPa | 2.6V | 07:46:20 | 02:40:05 | 00:00:00 | |
| BIOWL1-15 | 2026-09-02 06:11:31 | 52.70678 | 8.68102 | 82° | 37km/h | 6843m | -4.2m/s | -25.6°C | 79.2% | 428.8hPa | 2.6V | 07:46:20 | 02:40:04 | 00:00:00 | |
| DL1XH-15 | 2026-09-02 06:11:29 | 52.70669 | 8.67995 | 82° | 38km/h | 6871m | -4.4m/s | -25.6°C | 80.7% | 427hPa | 2.5V | 07:46:11 | 02:39:57 | 00:00:00 | |
| HSKMA3-T | 2026-09-02 06:11:28 | 52.70674 | 8.68056 | 82° | 38km/h | 6856m | -4.4m/s | -25.5°C | 78.4% | 428hPa | 2.5V | 07:46:20 | 02:40:01 | 00:00:00 | |
| GOEST3-10 | 2026-09-02 06:11:27 | 52.70673 | 8.68040 | 84° | 37km/h | 6860m | -4.0m/s | -25.5°C | 80.9% | 427.7hPa | 2.5V | 00:00:00 | 00:00:00 | 00:00:00 | |
| DM0DOS-11 | 2026-09-02 06:11:26 | 52.70667 | 8.67964 | 83° | 37km/h | 6880m | -4.5m/s | -25.7°C | 80.8% | 426.5hPa | 2.5V | 07:46:13 | 02:39:55 | 00:00:00 | |
| DB0NH | 2026-09-02 06:11:26 | 52.70672 | 8.68025 | 84° | 47km/h | 6864m | -3.9m/s | -25.5°C | 80.6% | 427.4hPa | 2.6V | 00:00:00 | 02:39:59 | 00:00:00 | |
| DL1XH1-15 | 2026-09-02 06:11:25 | 52.70665 | 8.67935 | 84° | 37km/h | 6889m | -4.7m/s | -25.7°C | 81% | 425.9hPa | 2.6V | 07:46:15 | 02:39:53 | 00:00:00 | |
| DF8AY | 2026-09-02 06:11:24 | 52.70669 | 8.67995 | 82° | 38km/h | 6871m | -4.4m/s | -25.6°C | 78.3% | 427hPa | 2.5V | 07:46:20 | 02:39:57 | 00:00:00 | |
| DO2JMG | 2026-09-02 06:11:23 | 52.70668 | 8.67979 | 83° | 37km/h | 6876m | -4.6m/s | -25.7°C | 78.4% | 426.7hPa | 2.5V | 07:46:20 | 02:39:56 | 00:00:00 | |
| DL1XH-west | 2026-09-02 06:11:22 | 52.70667 | 8.67964 | 84° | 37km/h | 6880m | -4.5m/s | -25.7°C | 78.4% | 426.5hPa | 2.5V | 07:46:20 | 02:39:55 | 00:00:00 | |
| BIOWL1-15 | 2026-09-02 06:11:20 | 52.70665 | 8.67935 | 84° | 37km/h | 6889m | -4.7m/s | -25.7°C | 78.8% | 425.9hPa | 2.6V | 07:46:20 | 02:39:53 | 00:00:00 | |
| DB0UT-7 | 2026-09-02 06:11:20 | 52.70665 | 8.67934 | 85° | 51km/h | 6889m | -4.6m/s | -25.7°C | 81.0% | 425.9hPa | 2.6V | 00:00:00 | 02:39:53 | 00:00:00 | |
| DL1XH-15 | 2026-09-02 06:11:19 | 52.70655 | 8.67834 | 79° | 46km/h | 6915m | -4.6m/s | -25.8°C | 80.9% | 424.5hPa | 2.6V | 07:46:21 | 02:39:47 | 00:00:00 | |
| AA1-15 | 2026-09-02 06:11:17 | 52.70661 | 8.67886 | 80° | 42km/h | 6903m | -4.3m/s | -25.8°C | 79% | 425.2hPa | 2.5V | 07:46:20 | 02:39:50 | 00:00:00 | |
| GOEST3-10 | 2026-09-02 06:11:17 | 52.70661 | 8.67886 | 80° | 44km/h | 6903m | -4.3m/s | -25.7°C | 81.0% | 425.2hPa | 2.5V | 00:00:00 | 00:00:00 | 00:00:00 | |
| HTAHTA | 2026-09-02 06:11:16 | 52.70655 | 8.67834 | 79° | 46km/h | 6915m | -4.6m/s | -25.8°C | 75.6% | 424.5hPa | 2.6V | 00:00:00 | 00:00:00 | 00:00:00 | |
| DL1XH1-15 | 2026-09-02 06:11:15 | 52.70647 | 8.67756 | 81° | 51km/h | 6933m | -4.5m/s | -25.9°C | 81.4% | 423.5hPa | 2.6V | 07:46:25 | 02:39:43 | 00:00:00 | |
| HSKMA3-T | 2026-09-02 06:11:15 | 52.70657 | 8.67852 | 81° | 44km/h | 6911m | -4.6m/s | -25.8°C | 79.2% | 424.7hPa | 2.6V | 07:46:20 | 02:39:48 | 00:00:00 | |
| BIOWL1-15 | 2026-09-02 06:11:14 | 52.70647 | 8.67756 | 82° | 51km/h | 6933m | -4.5m/s | -25.9°C | 79.7% | 423.5hPa | 2.6V | 07:47:11 | 02:39:43 | 00:00:00 | |
| DO2JMG | 2026-09-02 06:11:13 | 52.70653 | 8.67815 | 80° | 47km/h | 6920m | -4.5m/s | -25.8°C | 79.3% | 424.2hPa | 2.5V | 07:47:11 | 02:39:46 | 00:00:00 | |
| DL1XH-west | 2026-09-02 06:11:12 | 52.70651 | 8.67795 | 80° | 46km/h | 6924m | -4.3m/s | -25.9°C | 79.4% | 424hPa | 2.5V | 07:47:11 | 02:39:45 | 00:00:00 | |
| AA1-15 | 2026-09-02 06:11:07 | 52.70642 | 8.67691 | 84° | 53km/h | 6946m | -4.1m/s | -26.1°C | 79.8% | 422.7hPa | 2.5V | 07:47:11 | 02:39:40 | 00:00:00 | |
| GOEST3-10 | 2026-09-02 06:11:07 | 52.70642 | 8.67691 | 84° | 55km/h | 6946m | -4.1m/s | -26.0°C | 81.3% | 422.6hPa | 2.5V | 07:46:00 | 00:00:00 | 00:00:00 | |
| DO9LL-15 | 2026-09-02 06:11:06 | 52.70641 | 8.67669 | 88° | 57km/h | 6950m | -4.2m/s | -26.0°C | 81.4% | 422.3hPa | 2.5V | 00:00:00 | 02:39:39 | 00:00:00 | |
| DL1XH1-15 | 2026-09-02 06:11:05 | 52.70636 | 8.67531 | 84° | 55km/h | 6977m | -4.3m/s | -26.3°C | 82.4% | 420.9hPa | 2.5V | 07:46:35 | 02:39:33 | 00:00:00 | |
| DF8AY | 2026-09-02 06:11:03 | 52.70639 | 8.67600 | 86° | 57km/h | 6963m | -4.6m/s | -26.2°C | 80.2% | 421.7hPa | 2.6V | 07:47:11 | 02:39:36 | 00:00:00 | |
| DL1XH-west | 2026-09-02 06:11:02 | 52.70638 | 8.67577 | 85° | 55km/h | 6968m | -4.5m/s | -26.2°C | 80.3% | 421.4hPa | 2.6V | 07:47:11 | 02:39:35 | 00:00:00 | |
| BIOWL1-15 | 2026-09-02 06:10:59 | 52.70635 | 8.67507 | 88° | 57km/h | 6982m | -4.5m/s | -26.3°C | 80.7% | 420.6hPa | 2.6V | 07:47:11 | 02:39:32 | 00:00:00 | |
| DM0DOS-11 | 2026-09-02 06:10:57 | 52.70638 | 8.67338 | 95° | 58km/h | 7012m | -4.7m/s | -26.5°C | 83.6% | 418.9hPa | 2.5V | 07:46:43 | 02:39:25 | 00:00:00 | |
| AA1-15 | 2026-09-02 06:10:57 | 52.70634 | 8.67435 | 91° | 60km/h | 6995m | -4.7m/s | -26.4°C | 81.1% | 419.9hPa | 2.5V | 07:47:11 | 02:39:29 | 00:00:00 | |
| DL1XH1-15 | 2026-09-02 06:10:56 | 52.70641 | 8.67290 | 97° | 57km/h | 7021m | -4.4m/s | -26.6°C | 83.8% | 418.4hPa | 2.5V | 07:46:45 | 02:39:23 | 00:00:00 | |
| DB0DAN | 2026-09-02 06:10:55 | 52.70635 | 8.67410 | 92° | 55km/h | 6999m | -4.4m/s | -26.5°C | 77.9% | 419.64hPa | 2.6V | 00:00:00 | 00:00:00 | 00:00:00 | |
| DF8AY | 2026-09-02 06:10:52 | 52.70638 | 8.67338 | 95° | 58km/h | 7012m | -4.7m/s | -26.5°C | 81.5% | 418.9hPa | 2.5V | 07:47:11 | 02:39:25 | 00:00:00 | |
| DL1XH-west | 2026-09-02 06:10:51 | 52.70640 | 8.67314 | 96° | 58km/h | 7017m | -4.6m/s | -26.6°C | 81.7% | 418.6hPa | 2.5V | 07:47:11 | 02:39:24 | 00:00:00 | |
| DB0UT-7 | 2026-09-02 06:10:50 | 52.70641 | 8.67290 | 98° | 53km/h | 7021m | -4.4m/s | -26.5°C | 83.8% | 418.3hPa | 2.5V | 00:00:00 | 00:00:00 | 00:00:00 | |
| DL1XH-15 | 2026-09-02 06:10:49 | 52.70653 | 8.67148 | 97° | 58km/h | 7047m | -4.6m/s | -26.8°C | 85% | 416.8hPa | 2.5V | 07:46:51 | 02:39:17 | 00:00:00 | |
| BIOWL1-15 | 2026-09-02 06:10:48 | 52.70645 | 8.67244 | 98° | 57km/h | 7030m | -4.2m/s | -26.6°C | 82.1% | 417.8hPa | 2.6V | 07:47:11 | 02:39:21 | 00:00:00 | |
| DL3AQ-11 | 2026-09-02 06:10:48 | 52.70647 | 8.67220 | 97° | 55km/h | 7034m | -4.4m/s | -26.7°C | 78.9% | 417.6hPa | 2.6V | 00:00:00 | 00:00:00 | 00:00:00 | |
| DM0DOS-11 | 2026-09-02 06:10:47 | 52.70657 | 8.67101 | 99° | 57km/h | 7056m | -4.3m/s | -26.8°C | 84.8% | 416.3hPa | 2.6V | 07:46:53 | 02:39:15 | 00:00:00 | |
| AA1-15 | 2026-09-02 06:10:46 | 52.70649 | 8.67197 | 98° | 57km/h | 7038m | -4.5m/s | -26.7°C | 82.6% | 417.3hPa | 2.5V | 07:47:11 | 02:39:19 | 00:00:00 | |
| HTAHTA | 2026-09-02 06:10:45 | 52.70653 | 8.67149 | 97° | 58km/h | 7047m | -4.6m/s | -26.8°C | 79.3% | 416.8hPa | 2.6V | 00:00:00 | 00:00:00 | 00:00:00 | |
| DD1CC8 | 2026-09-02 06:10:44 | 52.70653 | 8.67149 | 97° | 58km/h | 7047m | -4.6m/s | -26.8°C | 79.3% | 416.8hPa | 2.6V | 00:00:00 | 00:00:00 | 00:00:00 | |
| DF8AY | 2026-09-02 06:10:42 | 52.70657 | 8.67101 | 100° | 57km/h | 7056m | -4.3m/s | -26.8°C | 82.7% | 416.3hPa | 2.6V | 07:47:11 | 02:39:15 | 00:00:00 | |
| DL1XH-west | 2026-09-02 06:10:41 | 52.70660 | 8.67078 | 100° | 55km/h | 7060m | -4.1m/s | -26.9°C | 82.6% | 416.1hPa | 2.6V | 07:47:11 | 02:39:14 | 00:00:00 | |
| DB0DAN | 2026-09-02 06:10:40 | 52.70662 | 8.67056 | 101° | 53km/h | 7065m | -4.8m/s | -26.9°C | 79.2% | 415.77hPa | 2.5V | 00:00:00 | 00:00:00 | 00:00:00 | |
| DL1XH-15 | 2026-09-02 06:10:39 | 52.70679 | 8.66928 | 102° | 51km/h | 7091m | -4.6m/s | -27.1°C | 86.2% | 414.4hPa | 2.6V | 07:47:01 | 02:39:07 | 00:00:00 | |
| BIOWL1-15 | 2026-09-02 06:10:38 | 52.70668 | 8.67012 | 102° | 53km/h | 7074m | -4.5m/s | -27°C | 83.1% | 415.3hPa | 2.6V | 07:47:11 | 02:39:11 | 00:00:00 | |
| DM0DOS-11 | 2026-09-02 06:10:37 | 52.70686 | 8.66886 | 103° | 53km/h | 7100m | -4.7m/s | -27.2°C | 85.8% | 413.8hPa | 2.5V | 07:47:03 | 02:39:05 | 00:00:00 | |
| AA1-15 | 2026-09-02 06:10:35 | 52.70677 | 8.66949 | 103° | 51km/h | 7087m | -4.1m/s | -27.1°C | 83.8% | 414.6hPa | 2.5V | 07:47:11 | 02:39:08 | 00:00:00 | |
| DF8AY | 2026-09-02 06:10:31 | 52.70689 | 8.66865 | 105° | 51km/h | 7104m | -4.4m/s | -27.2°C | 83.1% | 413.6hPa | 2.5V | 07:47:11 | 02:39:04 | 00:00:00 | |
| DO2JMG | 2026-09-02 06:10:30 | 52.70692 | 8.66845 | 104° | 51km/h | 7109m | -4.4m/s | -27.3°C | 82.7% | 413.3hPa | 2.6V | 07:47:11 | 02:39:03 | 00:00:00 | |
| DL1XH-15 | 2026-09-02 06:10:29 | 52.70709 | 8.66727 | 101° | 46km/h | 7134m | -4.5m/s | -27.5°C | 82.6% | 411.8hPa | 2.6V | 07:47:11 | 02:38:57 | 00:00:00 | |
| GOEST3-10 | 2026-09-02 06:10:27 | 52.70701 | 8.66784 | 103° | 47km/h | 7121m | -4.6m/s | -27.3°C | 83.7% | 412.5hPa | 2.5V | 07:47:00 | 00:00:00 | 00:00:00 | |
| BIOWL1-15 | 2026-09-02 06:10:27 | 52.70701 | 8.66784 | 102° | 49km/h | 7121m | -4.6m/s | -27.4°C | 81.6% | 412.6hPa | 2.5V | 07:47:11 | 02:39:00 | 00:00:00 | |
| DB0NH | 2026-09-02 06:10:26 | 52.70703 | 8.66765 | 103° | 49km/h | 7126m | -4.2m/s | -27.3°C | 83.2% | 412.3hPa | 2.5V | 00:00:00 | 02:38:59 | 00:00:00 | |
| DL1XH1-15 | 2026-09-02 06:10:25 | 52.70715 | 8.66656 | 94° | 40km/h | 7152m | -4.8m/s | -27.6°C | 81% | 410.8hPa | 2.5V | 07:47:15 | 02:38:53 | 00:00:00 | |
| DB0DAN | 2026-09-02 06:10:25 | 52.70706 | 8.66746 | 103° | 46km/h | 7130m | -4.4m/s | -27.4°C | 77.2% | 412.1hPa | 2.5V | 00:00:00 | 00:00:00 | 00:00:00 | |
| AA1-15 | 2026-09-02 06:10:24 | 52.70709 | 8.66727 | 102° | 46km/h | 7134m | -4.5m/s | -27.5°C | 80.6% | 411.8hPa | 2.6V | 07:47:11 | 02:38:57 | 00:00:00 | |
| DF8AY | 2026-09-02 06:10:21 | 52.70714 | 8.66673 | 97° | 42km/h | 7148m | -4.4m/s | -27.6°C | 79.5% | 411hPa | 2.5V | 07:48:02 | 02:38:54 | 00:00:00 | |
| DO2JMG | 2026-09-02 06:10:20 | 52.70715 | 8.66656 | 94° | 40km/h | 7152m | -4.8m/s | -27.6°C | 79.3% | 410.8hPa | 2.5V | 07:48:02 | 02:38:53 | 00:00:00 | |
| BIOWL1-15 | 2026-09-02 06:10:17 | 52.70718 | 8.66607 | 95° | 40km/h | 7166m | -4.5m/s | -27.7°C | 78.5% | 410.1hPa | 2.6V | 07:48:02 | 02:38:50 | 00:00:00 | |
| GOEST3-10 | 2026-09-02 06:10:17 | 52.70718 | 8.66607 | 95° | 42km/h | 7166m | -4.5m/s | -27.6°C | 80.1% | 410.0hPa | 2.6V | 00:00:00 | 00:00:00 | 00:00:00 | |
| DO2LYB-13 | 2026-09-02 06:10:16 | 52.70718 | 8.66607 | 96° | 40km/h | 7166m | -4.5m/s | -27.6°C | 74.6% | 410.1hPa | 2.6V | 00:00:00 | 00:00:00 | 00:00:00 | |
| DL1XH1-15 | 2026-09-02 06:10:15 | 52.70711 | 8.66477 | 82° | 53km/h | 7197m | -4.4m/s | -27.9°C | 79.3% | 408.2hPa | 2.6V | 07:47:25 | 02:38:43 | 00:00:00 | |
| AA1-15 | 2026-09-02 06:10:14 | 52.70718 | 8.66556 | 86° | 44km/h | 7179m | -4.5m/s | -27.7°C | 77.9% | 409.2hPa | 2.5V | 07:48:02 | 02:38:47 | 00:00:00 | |
| DF8AY | 2026-09-02 06:10:10 | 52.70711 | 8.66477 | 83° | 53km/h | 7197m | -4.4m/s | -27.9°C | 78% | 408.2hPa | 2.6V | 07:48:02 | 02:38:43 | 00:00:00 | |
| DL1XH-west | 2026-09-02 06:10:09 | 52.70709 | 8.66454 | 82° | 57km/h | 7201m | -4.7m/s | -27.9°C | 78.1% | 407.9hPa | 2.5V | 07:48:02 | 02:38:42 | 00:00:00 | |
| DL3AQ-11 | 2026-09-02 06:10:08 | 52.70703 | 8.66386 | 81° | 53km/h | 7215m | -4.7m/s | -28.0°C | 74.2% | 407.2hPa | 2.6V | 00:00:00 | 00:00:00 | 00:00:00 | |
| DM0DOS-11 | 2026-09-02 06:10:07 | 52.70694 | 8.66298 | 78° | 53km/h | 7233m | -4.5m/s | -28.2°C | 80.8% | 406.3hPa | 2.6V | 07:47:33 | 02:38:35 | 00:00:00 | |
| BIOWL1-15 | 2026-09-02 06:10:06 | 52.70703 | 8.66386 | 81° | 55km/h | 7215m | -4.7m/s | -28°C | 78.4% | 407.2hPa | 2.6V | 07:48:02 | 02:38:39 | 00:00:00 | |
| DO9LL-15 | 2026-09-02 06:10:06 | 52.70703 | 8.66386 | 82° | 57km/h | 7215m | -4.6m/s | -27.9°C | 79.8% | 407.1hPa | 2.5V | 00:00:00 | 02:38:39 | 00:00:00 | |
| DL1XH1-15 | 2026-09-02 06:10:05 | 52.70689 | 8.66254 | 82° | 55km/h | 7241m | -4.4m/s | -28.2°C | 81.7% | 405.6hPa | 2.5V | 07:47:35 | 02:38:33 | 00:00:00 | |
| HSKMA3-T | 2026-09-02 06:10:05 | 52.70701 | 8.66363 | 81° | 53km/h | 7219m | -4.9m/s | -28°C | 78.6% | 406.9hPa | 2.5V | 07:48:53 | 02:38:38 | 00:00:00 | |
| AA1-15 | 2026-09-02 06:10:03 | 52.70696 | 8.66319 | 79° | 53km/h | 7229m | -4.7m/s | -28.1°C | 79.1% | 406.5hPa | 2.6V | 07:48:02 | 02:38:36 | 00:00:00 | |
| DF8AY | 2026-09-02 06:10:00 | 52.70689 | 8.66254 | 83° | 55km/h | 7241m | -4.4m/s | -28.2°C | 79.8% | 405.6hPa | 2.5V | 07:48:02 | 02:38:33 | 00:00:00 | |
| DO2JMG | 2026-09-02 06:09:59 | 52.70687 | 8.66231 | 82° | 57km/h | 7246m | -4.5m/s | -28.3°C | 80.1% | 405.4hPa | 2.6V | 07:48:02 | 02:38:32 | 00:00:00 | |
| DL1XH-west | 2026-09-02 06:09:58 | 52.70685 | 8.66208 | 82° | 58km/h | 7250m | -4.6m/s | -28.3°C | 80.4% | 405.1hPa | 2.6V | 07:48:02 | 02:38:31 | 00:00:00 | |
| DM0DOS-11 | 2026-09-02 06:09:57 | 52.70676 | 8.66057 | 86° | 62km/h | 7277m | -4.5m/s | -28.5°C | 83.5% | 403.6hPa | 2.6V | 07:47:43 | 02:38:25 | 00:00:00 | |
| BIOWL1-15 | 2026-09-02 06:09:56 | 52.70681 | 8.66159 | 84° | 60km/h | 7259m | -4.6m/s | -28.4°C | 80.9% | 404.6hPa | 2.5V | 07:48:02 | 02:38:29 | 00:00:00 | |
| AA1-15 | 2026-09-02 06:09:52 | 52.70676 | 8.66057 | 87° | 62km/h | 7277m | -4.5m/s | -28.5°C | 81.4% | 403.6hPa | 2.6V | 07:48:02 | 02:38:25 | 00:00:00 | |
| HSKMA3-T | 2026-09-02 06:09:51 | 52.70675 | 8.66032 | 88° | 62km/h | 7281m | -4.4m/s | -28.6°C | 81.2% | 403.4hPa | 2.6V | 07:48:53 | 02:38:24 | 00:00:00 | |
| DB0UT-7 | 2026-09-02 06:09:50 | 52.70675 | 8.66006 | 90° | 55km/h | 7285m | -4.5m/s | -28.5°C | 83.1% | 403.1hPa | 2.5V | 00:00:00 | 00:00:00 | 00:00:00 | |
| DL1XH-15 | 2026-09-02 06:09:49 | 52.70680 | 8.65857 | 98° | 57km/h | 7313m | -4.6m/s | -28.8°C | 80.4% | 401.6hPa | 2.5V | 07:47:51 | 02:38:17 | 00:00:00 | |
| DF8AY | 2026-09-02 06:09:49 | 52.70675 | 8.65980 | 91° | 62km/h | 7290m | -4.6m/s | -28.6°C | 80% | 402.9hPa | 2.5V | 07:48:02 | 02:38:22 | 00:00:00 | |
| DL1XH-west | 2026-09-02 06:09:48 | 52.70675 | 8.65955 | 92° | 62km/h | 7294m | -4.6m/s | -28.6°C | 79.7% | 402.6hPa | 2.5V | 07:48:02 | 02:38:21 | 00:00:00 | |
| SONCRA | 2026-09-02 06:09:47 | 52.70676 | 8.65929 | 93° | 58km/h | 7299m | -4.9m/s | -28.7°C | 75.3% | 402.4hPa | 2.6V | 00:00:00 | 00:00:00 | 00:00:00 | |
| BIOWL9-15 | 2026-09-02 06:09:46 | 52.70677 | 8.65905 | 94° | 58km/h | 7303m | -4.9m/s | -28.7°C | 75.1% | 402.1hPa | 2.6V | 00:00:00 | 00:00:00 | 00:00:00 | |
| DL1XH1-15 | 2026-09-02 06:09:45 | 52.70688 | 8.65769 | 98° | 49km/h | 7331m | -4.2m/s | -28.9°C | 78.8% | 400.6hPa | 2.6V | 07:47:55 | 02:38:13 | 00:00:00 | |
| BIOWL1-15 | 2026-09-02 06:09:45 | 52.70678 | 8.65880 | 96° | 58km/h | 7308m | -4.6m/s | -28.8°C | 79.1% | 401.9hPa | 2.6V | 07:48:02 | 02:38:18 | 00:00:00 | |
| DL3AQ-11 | 2026-09-02 06:09:44 | 52.70680 | 8.65857 | 98° | 57km/h | 7312m | -4.6m/s | -28.8°C | 74.7% | 401.6hPa | 2.5V | 00:00:00 | 00:00:00 | 00:00:00 | |
| AA1-15 | 2026-09-02 06:09:42 | 52.70684 | 8.65811 | 99° | 53km/h | 7322m | -4.8m/s | -28.8°C | 77.7% | 401.1hPa | 2.5V | 07:48:02 | 02:38:15 | 00:00:00 | |
| GOEST3-10 | 2026-09-02 06:09:42 | 52.70684 | 8.65811 | 100° | 47km/h | 7322m | -4.8m/s | -28.8°C | 79.1% | 401.0hPa | 2.6V | 00:00:00 | 02:38:15 | 00:00:00 | |
| DC6BW-12 | 2026-09-02 06:09:41 | 52.70684 | 8.65811 | 100° | 53km/h | 7322m | -4.8m/s | -28.8°C | 73.5% | 401.1hPa | 2.6V | 07:48:00 | 00:00:00 | 00:00:00 | |
| DB0DAN | 2026-09-02 06:09:40 | 52.70688 | 8.65769 | 98° | 46km/h | 7331m | -4.2m/s | -28.9°C | 73.2% | 400.59hPa | 2.6V | 00:00:00 | 00:00:00 | 00:00:00 | |
| DL1XH-15 | 2026-09-02 06:09:39 | 52.70686 | 8.65657 | 77° | 47km/h | 7356m | -4.6m/s | -29°C | 78.1% | 399.1hPa | 2.6V | 07:48:01 | 02:38:07 | 00:00:00 | |
| DF8AY | 2026-09-02 06:09:38 | 52.70691 | 8.65731 | 93° | 44km/h | 7339m | -4.2m/s | -28.9°C | 76.9% | 400.1hPa | 2.5V | 07:48:02 | 02:38:11 | 00:00:00 | |
| DL1XH-west | 2026-09-02 06:09:37 | 52.70691 | 8.65713 | 88° | 42km/h | 7343m | -4.5m/s | -29°C | 76.8% | 399.8hPa | 2.5V | 07:48:02 | 02:38:10 | 00:00:00 | |
| GOEST3-10 | 2026-09-02 06:09:37 | 52.70690 | 8.65713 | 89° | 46km/h | 7344m | -4.4m/s | -28.9°C | 78.2% | 399.8hPa | 2.5V | 00:00:00 | 00:00:00 | 00:00:00 | |
| DO9LL-15 | 2026-09-02 06:09:36 | 52.70690 | 8.65695 | 84° | 60km/h | 7348m | -4.4m/s | -28.9°C | 78.1% | 399.5hPa | 2.5V | 00:00:00 | 02:38:09 | 00:00:00 | |
| DL1XH1-15 | 2026-09-02 06:09:35 | 52.70672 | 8.65572 | 72° | 55km/h | 7375m | -4.3m/s | -29.1°C | 78.7% | 398hPa | 2.5V | 07:48:05 | 02:38:03 | 00:00:00 | |
| BIOWL1-15 | 2026-09-02 06:09:34 | 52.70686 | 8.65657 | 78° | 47km/h | 7356m | -4.6m/s | -29°C | 76.9% | 399.1hPa | 2.6V | 07:48:02 | 02:38:07 | 00:00:00 | |
| AA1-15 | 2026-09-02 06:09:31 | 52.70676 | 8.65594 | 73° | 55km/h | 7371m | -4.5m/s | -29.1°C | 77.4% | 398.2hPa | 2.5V | 07:48:53 | 02:38:04 | 00:00:00 | |
| DO3DL | 2026-09-02 06:09:30 | 52.70675 | 8.65594 | 74° | 55km/h | 7371m | -4.5m/s | -29.1°C | 72.8% | 398.2hPa | 2.5V | 07:48:00 | 00:00:00 | 00:00:00 | |
| DL1XH-15 | 2026-09-02 06:09:29 | 52.70649 | 8.65431 | 73° | 62km/h | 7404m | -4.7m/s | -29.4°C | 80.2% | 396.5hPa | 2.5V | 07:48:11 | 02:37:57 | 00:00:00 | |
| DF8AY | 2026-09-02 06:09:27 | 52.70660 | 8.65505 | 76° | 58km/h | 7389m | -4.8m/s | -29.2°C | 78.5% | 397.3hPa | 2.6V | 07:48:53 | 02:38:00 | 00:00:00 | |
| DL1XH-west | 2026-09-02 06:09:26 | 52.70657 | 8.65481 | 75° | 62km/h | 7394m | -5.1m/s | -29.3°C | 78.7% | 397hPa | 2.5V | 07:48:53 | 02:37:59 | 00:00:00 | |
| DL1XH1-15 | 2026-09-02 06:09:25 | 52.70635 | 8.65325 | 79° | 66km/h | 7423m | -4.8m/s | -29.5°C | 80.7% | 395.5hPa | 2.5V | 07:48:15 | 02:37:53 | 00:00:00 | |
| HSKMA3-T | 2026-09-02 06:09:25 | 52.70653 | 8.65456 | 75° | 62km/h | 7399m | -4.8m/s | -29.3°C | 79% | 396.7hPa | 2.5V | 07:48:53 | 02:37:58 | 00:00:00 | |
| DB0DAN | 2026-09-02 06:09:25 | 52.70653 | 8.65456 | 75° | 58km/h | 7399m | -4.8m/s | -29.3°C | 74.1% | 396.71hPa | 2.5V | 00:00:00 | 00:00:00 | 00:00:00 | |
| BIOWL1-15 | 2026-09-02 06:09:23 | 52.70645 | 8.65406 | 77° | 62km/h | 7408m | -4.9m/s | -29.4°C | 79.4% | 396.2hPa | 2.6V | 07:48:53 | 02:37:56 | 00:00:00 | |
| DF8AY | 2026-09-02 06:09:22 | 52.70629 | 8.65241 | 84° | 69km/h | 7438m | -5.3m/s | -29.7°C | 80.2% | 394.6hPa | 2.6V | 07:48:53 | 02:37:50 | 00:00:00 | |
| AA1-15 | 2026-09-02 06:09:20 | 52.70635 | 8.65325 | 80° | 66km/h | 7423m | -4.8m/s | -29.5°C | 79.8% | 395.5hPa | 2.5V | 07:48:53 | 02:37:53 | 00:00:00 | |
| DL1XH-west | 2026-09-02 06:09:16 | 52.70627 | 8.65213 | 85° | 69km/h | 7444m | -5m/s | -29.7°C | 80.1% | 394.4hPa | 2.6V | 07:48:53 | 02:37:49 | 00:00:00 | |
| HSKMA3-T | 2026-09-02 06:09:13 | 52.70625 | 8.65127 | 90° | 69km/h | 7458m | -4.9m/s | -29.8°C | 79.7% | 393.6hPa | 2.5V | 07:48:53 | 02:37:46 | 00:00:00 | |
| BIOWL1-15 | 2026-09-02 06:09:12 | 52.70625 | 8.65099 | 92° | 64km/h | 7462m | -4.4m/s | -29.9°C | 79.9% | 393.4hPa | 2.5V | 07:48:53 | 02:37:45 | 00:00:00 | |
| DJ2DS-15 | 2026-09-02 06:09:12 | 52.70625 | 8.65099 | 92° | 58km/h | 7462m | -4.4m/s | -29.8°C | 81.2% | 393.3hPa | 2.5V | 00:00:00 | 02:37:45 | 00:00:00 | |
| DO3DL | 2026-09-02 06:09:11 | 52.70625 | 8.65099 | 93° | 64km/h | 7462m | -4.4m/s | -29.9°C | 75.2% | 393.3hPa | 2.6V | 07:48:00 | 00:00:00 | 00:00:00 | |
| DB0DAN | 2026-09-02 06:09:10 | 52.70627 | 8.65048 | 94° | 57km/h | 7472m | -4.9m/s | -30°C | 75.1% | 392.84hPa | 2.6V | 00:00:00 | 00:00:00 | 00:00:00 | |
| DL1XH-15 | 2026-09-02 06:09:09 | 52.70626 | 8.64919 | 78° | 51km/h | 7500m | -4.7m/s | -30.2°C | 81.4% | 391.3hPa | 2.6V | 07:48:31 | 02:37:37 | 00:00:00 | |
| AA1-15 | 2026-09-02 06:09:09 | 52.70628 | 8.65025 | 94° | 55km/h | 7477m | -4.7m/s | -30°C | 80% | 392.6hPa | 2.6V | 07:48:53 | 02:37:42 | 00:00:00 | |
| DF8AY-15 | 2026-09-02 06:09:09 | 52.70628 | 8.65025 | 95° | 62km/h | 7477m | -4.6m/s | -30.0°C | 81.2% | 392.5hPa | 2.6V | 00:00:00 | 02:37:42 | 00:00:00 | |
| DM0DOS-11 | 2026-09-02 06:09:07 | 52.70620 | 8.64876 | 74° | 58km/h | 7508m | -4.8m/s | -30.3°C | 81.4% | 390.8hPa | 2.5V | 07:48:33 | 02:37:35 | 00:00:00 | |
| DF8AY | 2026-09-02 06:09:06 | 52.70630 | 8.64960 | 88° | 49km/h | 7490m | -4.8m/s | -30.1°C | 79.8% | 391.8hPa | 2.5V | 07:48:53 | 02:37:39 | 00:00:00 | |
| DL1XH-west | 2026-09-02 06:09:05 | 52.70629 | 8.64940 | 82° | 49km/h | 7495m | -4.7m/s | -30.2°C | 79.7% | 391.6hPa | 2.6V | 07:48:53 | 02:37:38 | 00:00:00 | |
| HSKMA3-T | 2026-09-02 06:09:02 | 52.70620 | 8.64876 | 74° | 58km/h | 7509m | -4.8m/s | -30.3°C | 79.4% | 390.8hPa | 2.5V | 07:48:53 | 02:37:35 | 00:00:00 | |
| BIOWL1-15 | 2026-09-02 06:09:01 | 52.70616 | 8.64852 | 75° | 62km/h | 7513m | -4.6m/s | -30.3°C | 78.6% | 390.6hPa | 2.5V | 07:48:53 | 02:37:34 | 00:00:00 | |
| DC6BW-12 | 2026-09-02 06:09:00 | 52.70616 | 8.64851 | 76° | 62km/h | 7513m | -4.6m/s | -30.3°C | 74.5% | 390.6hPa | 2.5V | 07:48:00 | 00:00:00 | 00:00:00 | |
| DL1XH-15 | 2026-09-02 06:08:59 | 52.70588 | 8.64673 | 75° | 58km/h | 7545m | -4.3m/s | -30.6°C | 79.7% | 388.8hPa | 2.5V | 07:48:41 | 02:37:27 | 00:00:00 | |
| AA1-15 | 2026-09-02 06:08:58 | 52.70603 | 8.64775 | 75° | 66km/h | 7527m | -5m/s | -30.4°C | 76.1% | 389.8hPa | 2.6V | 07:48:53 | 02:37:31 | 00:00:00 | |
| DF8AY | 2026-09-02 06:08:56 | 52.70595 | 8.64722 | 76° | 64km/h | 7536m | -4.4m/s | -30.5°C | 77.2% | 389.3hPa | 2.5V | 07:48:53 | 02:37:29 | 00:00:00 | |
| DO2JMG | 2026-09-02 06:08:55 | 52.70591 | 8.64697 | 76° | 62km/h | 7541m | -4.3m/s | -30.6°C | 76.8% | 0hPa | 2.5V | 07:48:53 | 02:37:28 | 00:00:00 | |
| DB0DAN | 2026-09-02 06:08:55 | 52.70591 | 8.64697 | 76° | 58km/h | 7541m | -4.3m/s | -30.6°C | 72.6% | 389.03hPa | 2.5V | 00:00:00 | 00:00:00 | 00:00:00 | |
| DL1XH-west | 2026-09-02 06:08:54 | 52.70588 | 8.64673 | 76° | 58km/h | 7545m | -4.3m/s | -30.6°C | 77.9% | 388.9hPa | 2.5V | 07:48:53 | 02:37:27 | 00:00:00 | |
| HSKMA3-T | 2026-09-02 06:08:52 | 52.70581 | 8.64627 | 76° | 57km/h | 7554m | -4.7m/s | -30.7°C | 76.7% | 388.4hPa | 2.6V | 07:48:53 | 02:37:25 | 00:00:00 | |
| DF8AY | 2026-09-02 06:08:50 | 52.70552 | 8.64450 | 74° | 68km/h | 7586m | -4.8m/s | -31°C | 75.1% | 386.7hPa | 2.6V | 07:48:53 | 02:37:18 | 00:00:00 | |
| BIOWL1-15 | 2026-09-02 06:08:50 | 52.70573 | 8.64579 | 74° | 60km/h | 7563m | -4.5m/s | -30.8°C | 75% | 387.9hPa | 2.5V | 07:48:53 | 02:37:23 | 00:00:00 | |
| DB0UT-7 | 2026-09-02 06:08:50 | 52.70573 | 8.64579 | 75° | 62km/h | 7563m | -4.5m/s | -30.7°C | 76.3% | 387.8hPa | 2.5V | 00:00:00 | 00:00:00 | 00:00:00 | |
| DL1XH-15 | 2026-09-02 06:08:49 | 52.70548 | 8.64424 | 75° | 66km/h | 7590m | -4.5m/s | -31°C | 75.9% | 386.4hPa | 2.5V | 07:48:51 | 02:37:17 | 00:00:00 | |
| AA1-15 | 2026-09-02 06:08:47 | 52.70561 | 8.64504 | 76° | 64km/h | 7577m | -4.3m/s | -30.9°C | 75.6% | 387.1hPa | 2.6V | 07:48:53 | 02:37:20 | 00:00:00 | |
| DL1XH-west | 2026-09-02 06:08:44 | 52.70548 | 8.64424 | 75° | 66km/h | 7590m | -4.5m/s | -31°C | 74.9% | 386.4hPa | 2.5V | 07:48:53 | 02:37:17 | 00:00:00 | |
| HSKMA3-T | 2026-09-02 06:08:42 | 52.70539 | 8.64370 | 75° | 68km/h | 7600m | -4.7m/s | -31.1°C | 74.2% | 385.9hPa | 2.5V | 07:48:53 | 02:37:15 | 00:00:00 | |
| BIOWL1-15 | 2026-09-02 06:08:40 | 52.70530 | 8.64317 | 75° | 68km/h | 7609m | -4.9m/s | -31.2°C | 73.8% | 385.4hPa | 2.6V | 07:49:44 | 02:37:13 | 00:00:00 | |
| DB0DAN | 2026-09-02 06:08:40 | 52.70530 | 8.64317 | 75° | 64km/h | 7609m | -4.9m/s | -31.2°C | 69% | 385.35hPa | 2.6V | 00:00:00 | 00:00:00 | 00:00:00 | |
| DL1XH-15 | 2026-09-02 06:08:39 | 52.70504 | 8.64163 | 75° | 60km/h | 7636m | -4.6m/s | -31.4°C | 74.4% | 383.9hPa | 2.6V | 07:49:01 | 02:37:07 | 00:00:00 | |
| DO3DL | 2026-09-02 06:08:38 | 52.70525 | 8.64290 | 75° | 68km/h | 7614m | -5.0m/s | -31.2°C | 69.1% | 385.2hPa | 2.5V | 07:49:00 | 00:00:00 | 00:00:00 | |
| DM0DOS-11 | 2026-09-02 06:08:37 | 52.70497 | 8.64114 | 77° | 60km/h | 7645m | -4.8m/s | -31.5°C | 74.7% | 383.4hPa | 2.5V | 07:49:03 | 02:37:05 | 00:00:00 | |
| AA1-15 | 2026-09-02 06:08:36 | 52.70512 | 8.64212 | 75° | 64km/h | 7627m | -4.7m/s | -31.3°C | 73.5% | 384.4hPa | 2.5V | 07:49:44 | 02:37:09 | 00:00:00 | |
| DO9LL-15 | 2026-09-02 06:08:36 | 52.70512 | 8.64212 | 76° | 68km/h | 7628m | -4.7m/s | -31.3°C | 74.7% | 384.3hPa | 2.5V | 00:00:00 | 02:37:09 | 00:00:00 | |
| DL1XH1-15 | 2026-09-02 06:08:35 | 52.70491 | 8.64067 | 79° | 57km/h | 7654m | -4.5m/s | -31.6°C | 74.5% | 383hPa | 2.5V | 07:49:05 | 02:37:03 | 00:00:00 | |
| DF8AY | 2026-09-02 06:08:35 | 52.70508 | 8.64187 | 74° | 62km/h | 7632m | -4.6m/s | -31.4°C | 73.3% | 384.2hPa | 2.6V | 07:49:44 | 02:37:08 | 00:00:00 | |
| DL1XH-west | 2026-09-02 06:08:34 | 52.70504 | 8.64163 | 76° | 60km/h | 7636m | -4.6m/s | -31.4°C | 73.3% | 384hPa | 2.6V | 07:49:44 | 02:37:07 | 00:00:00 | |
| BIOWL1-15 | 2026-09-02 06:08:32 | 52.70491 | 8.64067 | 80° | 57km/h | 7654m | -4.6m/s | -31.6°C | 73.6% | 383hPa | 2.5V | 07:49:44 | 02:37:03 | 00:00:00 | |
| HSKMA3-T | 2026-09-02 06:08:32 | 52.70497 | 8.64114 | 77° | 60km/h | 7645m | -4.8m/s | -31.5°C | 73.6% | 383.4hPa | 2.5V | 07:49:44 | 02:37:05 | 00:00:00 | |
| DJ2DS-15 | 2026-09-02 06:08:32 | 52.70497 | 8.64114 | 78° | 66km/h | 7645m | -4.7m/s | -31.5°C | 74.7% | 383.4hPa | 2.6V | 00:00:00 | 02:37:05 | 00:00:00 | |
| DK9SH | 2026-09-02 06:08:31 | 52.70497 | 8.64114 | 78° | 60km/h | 7645m | -4.8m/s | -31.5°C | 68.9% | 383.4hPa | 2.6V | 07:49:00 | 00:00:00 | 00:00:00 | |
| DD1CC2-15 | 2026-09-02 06:08:30 | 52.70494 | 8.64090 | 80° | 58km/h | 7650m | -4.5m/s | -31.6°C | 69.0% | 383.2hPa | 2.6V | 00:00:00 | 00:00:00 | 00:00:00 | |
| DL8OAI-8 | 2026-09-02 06:08:29 | 52.70491 | 8.64067 | 81° | 57km/h | 7654m | -4.6m/s | -31.6°C | 68.7% | 383.0hPa | 2.6V | 07:49:00 | 00:00:00 | 00:00:00 | |
| DM0DOS-11 | 2026-09-02 06:08:27 | 52.70470 | 8.63880 | 73° | 64km/h | 7692m | -4.6m/s | -31.9°C | 72.3% | 380.9hPa | 2.6V | 07:49:13 | 02:36:55 | 00:00:00 | |
| AA1-15 | 2026-09-02 06:08:26 | 52.70483 | 8.63975 | 82° | 55km/h | 7673m | -4.8m/s | -31.8°C | 73.3% | 382hPa | 2.5V | 07:49:44 | 02:36:59 | 00:00:00 | |
| DL1XH1-15 | 2026-09-02 06:08:25 | 52.70460 | 8.63827 | 73° | 69km/h | 7701m | -4.6m/s | -32°C | 72.9% | 380.5hPa | 2.5V | 07:49:15 | 02:36:53 | 00:00:00 | |
| DF8AY | 2026-09-02 06:08:24 | 52.70477 | 8.63928 | 77° | 57km/h | 7682m | -4.8m/s | -31.8°C | 71.6% | 381.4hPa | 2.5V | 07:49:44 | 02:36:57 | 00:00:00 | |
| DL1XH-west | 2026-09-02 06:08:23 | 52.70474 | 8.63905 | 76° | 58km/h | 7687m | -4.5m/s | -31.8°C | 71.7% | 381.1hPa | 2.6V | 07:49:44 | 02:36:56 | 00:00:00 | |
| BIOWL1-15 | 2026-09-02 06:08:21 | 52.70455 | 8.63799 | 74° | 71km/h | 7706m | -4.5m/s | -32°C | 72.3% | 380.2hPa | 2.5V | 07:49:44 | 02:36:52 | 00:00:00 | |
| DB0UT-7 | 2026-09-02 06:08:20 | 52.70460 | 8.63827 | 74° | 77km/h | 7701m | -4.6m/s | -31.9°C | 72.9% | 380.4hPa | 2.5V | 00:00:00 | 02:36:53 | 00:00:00 | |
| DL1XH-15 | 2026-09-02 06:08:19 | 52.70435 | 8.63646 | 81° | 78km/h | 7729m | -4.5m/s | -32.2°C | 73.4% | 378.9hPa | 2.5V | 07:49:21 | 02:36:47 | 00:00:00 | |
| DO3DL | 2026-09-02 06:08:18 | 52.70455 | 8.63799 | 75° | 71km/h | 7706m | -4.5m/s | -32.0°C | 66.9% | 380.2hPa | 2.5V | 07:49:00 | 00:00:00 | 00:00:00 | |
| DM0DOS-11 | 2026-09-02 06:08:17 | 52.70429 | 8.63582 | 81° | 77km/h | 7738m | -4.1m/s | -32.3°C | 73.9% | 378.5hPa | 2.5V | 07:49:23 | 02:36:45 | 00:00:00 | |
| AA1-15 | 2026-09-02 06:08:15 | 52.70438 | 8.63678 | 80° | 77km/h | 7725m | -4.4m/s | -32.2°C | 72.6% | 379.2hPa | 2.6V | 07:49:44 | 02:36:48 | 00:00:00 | |
| DF8AY | 2026-09-02 06:08:13 | 52.70432 | 8.63614 | 82° | 78km/h | 7734m | -4.6m/s | -32.3°C | 73% | 378.7hPa | 2.5V | 07:49:44 | 02:36:46 | 00:00:00 | |
| DL1XH-west | 2026-09-02 06:08:12 | 52.70429 | 8.63582 | 81° | 77km/h | 7738m | -4.1m/s | -32.3°C | 73.3% | 378.5hPa | 2.5V | 07:49:44 | 02:36:45 | 00:00:00 | |
| DJ2DS-15 | 2026-09-02 06:08:12 | 52.70429 | 8.63582 | 82° | 78km/h | 7738m | -4.0m/s | -32.2°C | 73.9% | 378.4hPa | 2.5V | 00:00:00 | 02:36:45 | 00:00:00 | |
| DO3DL | 2026-09-02 06:08:11 | 52.70429 | 8.63582 | 82° | 77km/h | 7738m | -4.1m/s | -32.3°C | 67.9% | 378.5hPa | 2.6V | 07:49:00 | 00:00:00 | 00:00:00 | |
| DB0DAN | 2026-09-02 06:08:10 | 52.70424 | 8.63518 | 81° | 75km/h | 7747m | -4.8m/s | -32.4°C | 68.3% | 378.01hPa | 2.6V | 00:00:00 | 00:00:00 | 00:00:00 | |
| DL1XH-15 | 2026-09-02 06:08:09 | 52.70405 | 8.63326 | 82° | 77km/h | 7773m | -4.3m/s | -32.6°C | 76% | 376.5hPa | 2.6V | 07:49:31 | 02:36:37 | 00:00:00 | |
| BIOWL1-15 | 2026-09-02 06:08:08 | 52.70417 | 8.63454 | 80° | 77km/h | 7756m | -4.3m/s | -32.5°C | 74.1% | 377.4hPa | 2.5V | 07:49:44 | 02:36:41 | 00:00:00 | |
| DL3AQ-11 | 2026-09-02 06:08:08 | 52.70414 | 8.63422 | 81° | 77km/h | 7760m | -4.3m/s | -32.5°C | 69.1% | 377.2hPa | 2.6V | 00:00:00 | 00:00:00 | 00:00:00 | |
| GOEST3-10 | 2026-09-02 06:08:07 | 52.70414 | 8.63422 | 82° | 78km/h | 7760m | -4.2m/s | -32.5°C | 75.2% | 377.2hPa | 2.6V | 00:00:00 | 00:00:00 | 00:00:00 | |
| DO9LL-15 | 2026-09-02 06:08:06 | 52.70411 | 8.63390 | 82° | 75km/h | 7764m | -4.6m/s | -32.5°C | 75.5% | 377.0hPa | 2.6V | 00:00:00 | 02:36:39 | 00:00:00 | |
| DL1XH1-15 | 2026-09-02 06:08:05 | 52.70393 | 8.63198 | 79° | 77km/h | 7790m | -4.3m/s | -32.8°C | 77% | 375.6hPa | 2.6V | 07:49:35 | 02:36:33 | 00:00:00 | |
| AA1-15 | 2026-09-02 06:08:05 | 52.70408 | 8.63358 | 82° | 78km/h | 7769m | -4.6m/s | -32.6°C | 74.8% | 376.9hPa | 2.6V | 07:49:44 | 02:36:38 | 00:00:00 | |
| DF8AY | 2026-09-02 06:08:02 | 52.70400 | 8.63262 | 81° | 78km/h | 7782m | -4.3m/s | -32.7°C | 75.5% | 376.1hPa | 2.5V | 07:49:44 | 02:36:35 | 00:00:00 | |
| DL1XH-west | 2026-09-02 06:08:01 | 52.70396 | 8.63230 | 80° | 77km/h | 7786m | -4.1m/s | -32.8°C | 75.8% | 375.8hPa | 2.6V | 07:49:44 | 02:36:34 | 00:00:00 | |
| DL1XH-15 | 2026-09-02 06:07:59 | 52.70368 | 8.63008 | 75° | 78km/h | 7816m | -4.8m/s | -33.1°C | 78.4% | 374.2hPa | 2.5V | 07:49:41 | 02:36:27 | 00:00:00 | |
| HSKMA3-T | 2026-09-02 06:07:59 | 52.70389 | 8.63166 | 78° | 78km/h | 7794m | -4.6m/s | -32.9°C | 76.2% | 375.4hPa | 2.5V | 07:49:44 | 02:36:32 | 00:00:00 | |
| DO3DL | 2026-09-02 06:07:58 | 52.70389 | 8.63166 | 79° | 78km/h | 7794m | -4.6m/s | -32.9°C | 70.9% | 375.4hPa | 2.6V | 07:49:00 | 00:00:00 | 00:00:00 | |
| DM0DOS-11 | 2026-09-02 06:07:57 | 52.70359 | 8.62944 | 79° | 78km/h | 7825m | -4.4m/s | -33.2°C | 78.9% | 373.6hPa | 2.6V | 07:49:43 | 02:36:25 | 00:00:00 | |
| BIOWL1-15 | 2026-09-02 06:07:57 | 52.70381 | 8.63103 | 78° | 78km/h | 7803m | -4.7m/s | -32.9°C | 76.7% | 374.9hPa | 2.6V | 07:49:44 | 02:36:30 | 00:00:00 | |
| DF4FW | 2026-09-02 06:07:56 | 52.70381 | 8.63103 | 79° | 78km/h | 7803m | -4.7m/s | -32.9°C | 71.4% | 374.9hPa | 2.6V | 00:00:00 | 00:00:00 | 00:00:00 | |
| DL1XH1-15 | 2026-09-02 06:07:55 | 52.70353 | 8.62878 | 82° | 80km/h | 7834m | -4.5m/s | -33.2°C | 79.5% | 373.1hPa | 2.6V | 07:49:45 | 02:36:23 | 00:00:00 | |
| AA1-15 | 2026-09-02 06:07:54 | 52.70368 | 8.63008 | 76° | 78km/h | 7816m | -4.8m/s | -33.1°C | 77.3% | 374.2hPa | 2.5V | 07:49:44 | 02:36:27 | 00:00:00 | |
| DF8AY | 2026-09-02 06:07:52 | 52.70360 | 8.62944 | 79° | 78km/h | 7825m | -4.4m/s | -33.2°C | 77.7% | 373.7hPa | 2.6V | 07:49:44 | 02:36:25 | 00:00:00 | |
| DO2JMG | 2026-09-02 06:07:51 | 52.70356 | 8.62911 | 81° | 82km/h | 7830m | -4.8m/s | -33.2°C | 77.8% | 373.4hPa | 2.6V | 07:49:44 | 02:36:24 | 00:00:00 | |
| DL1XH-west | 2026-09-02 06:07:50 | 52.70353 | 8.62878 | 83° | 80km/h | 7835m | -4.5m/s | -33.3°C | 78.1% | 373.1hPa | 2.6V | 07:50:35 | 02:36:23 | 00:00:00 | |
| DB0UT-7 | 2026-09-02 06:07:50 | 52.70353 | 8.62878 | 83° | 73km/h | 7835m | -4.5m/s | -33.2°C | 79.5% | 373.1hPa | 2.6V | 00:00:00 | 00:00:00 | 00:00:00 | |
| DL1XH-15 | 2026-09-02 06:07:49 | 52.70344 | 8.62681 | 88° | 77km/h | 7861m | -4.7m/s | -33.5°C | 81.1% | 371.7hPa | 2.6V | 07:49:51 | 02:36:17 | 00:00:00 | |
| DM0DOS-11 | 2026-09-02 06:07:47 | 52.70343 | 8.62621 | 90° | 71km/h | 7870m | -4.9m/s | -33.6°C | 81.6% | 371.2hPa | 2.5V | 07:49:53 | 02:36:15 | 00:00:00 | |
| BIOWL1-15 | 2026-09-02 06:07:46 | 52.70345 | 8.62745 | 87° | 78km/h | 7852m | -4.7m/s | -33.4°C | 79.1% | 372.2hPa | 2.6V | 07:50:35 | 02:36:19 | 00:00:00 | |
| DJ2DS-15 | 2026-09-02 06:07:44 | 52.70344 | 8.62681 | 88° | 75km/h | 7861m | -4.7m/s | -33.5°C | 74.4% | 371.7hPa | 2.5V | 00:00:00 | 00:00:00 | 00:00:00 | |
| AA1-15 | 2026-09-02 06:07:43 | 52.70343 | 8.62651 | 89° | 71km/h | 7865m | -4.6m/s | -33.6°C | 79.8% | 371.5hPa | 2.5V | 07:50:35 | 02:36:16 | 00:00:00 | |
| DF8AY | 2026-09-02 06:07:41 | 52.70343 | 8.62592 | 90° | 68km/h | 7875m | -4.8m/s | -33.7°C | 80.2% | 370.9hPa | 2.5V | 07:50:35 | 02:36:14 | 00:00:00 | |
| DO2JMG | 2026-09-02 06:07:40 | 52.70343 | 8.62564 | 91° | 66km/h | 7879m | -4.9m/s | -33.7°C | 80.4% | 370.7hPa | 2.6V | 07:50:35 | 02:36:13 | 00:00:00 | |
| DL1XH-15 | 2026-09-02 06:07:39 | 52.70333 | 8.62410 | 76° | 64km/h | 7905m | -4.5m/s | -34°C | 81.2% | 369.3hPa | 2.6V | 07:50:01 | 02:36:07 | 00:00:00 | |
| DL1XH-west | 2026-09-02 06:07:39 | 52.70343 | 8.62537 | 89° | 66km/h | 7884m | -4.4m/s | -33.7°C | 80.5% | 370.5hPa | 2.6V | 07:50:35 | 02:36:12 | 00:00:00 | |
| DL1LOL-11 | 2026-09-02 06:07:39 | 52.70343 | 8.62537 | 90° | 66km/h | 7884m | -4.4m/s | -33.7°C | 75.6% | 370.5hPa | 2.5V | 00:00:00 | 00:00:00 | 00:00:00 | |
| DD1CC8 | 2026-09-02 06:07:38 | 52.70343 | 8.62511 | 86° | 60km/h | 7888m | -4.2m/s | -33.8°C | 75.7% | 370.3hPa | 2.5V | 00:00:00 | 00:00:00 | 00:00:00 | |
| DM0DOS-11 | 2026-09-02 06:07:37 | 52.70325 | 8.62358 | 74° | 66km/h | 7914m | -4.6m/s | -34°C | 80.5% | 368.9hPa | 2.5V | 07:50:03 | 02:36:05 | 00:00:00 | |
| DD1CC2-15 | 2026-09-02 06:07:37 | 52.70341 | 8.62485 | 85° | 62km/h | 7892m | -4.8m/s | -33.8°C | 75.4% | 370.0hPa | 2.5V | 07:50:00 | 00:00:00 | 00:00:00 | |
| DO9LL-15 | 2026-09-02 06:07:36 | 52.70339 | 8.62460 | 81° | 75km/h | 7896m | -4.4m/s | -33.8°C | 82.2% | 369.7hPa | 2.5V | 07:49:00 | 02:36:09 | 00:00:00 | |
| DL1XH1-15 | 2026-09-02 06:07:35 | 52.70316 | 8.62304 | 73° | 71km/h | 7923m | -4.8m/s | -34.1°C | 80.5% | 368.3hPa | 2.6V | 07:50:05 | 02:36:03 | 00:00:00 | |
| BIOWL1-15 | 2026-09-02 06:07:35 | 52.70336 | 8.62436 | 78° | 62km/h | 7901m | -4.8m/s | -33.9°C | 80.1% | 369.5hPa | 2.5V | 07:50:35 | 02:36:08 | 00:00:00 | |
| AA1-15 | 2026-09-02 06:07:32 | 52.70325 | 8.62358 | 75° | 66km/h | 7914m | -4.6m/s | -34°C | 79.1% | 368.9hPa | 2.5V | 07:50:35 | 02:36:05 | 00:00:00 | |
| DF8AY | 2026-09-02 06:07:30 | 52.70316 | 8.62304 | 73° | 71km/h | 7924m | -4.8m/s | -34.1°C | 79% | 368.3hPa | 2.6V | 07:50:35 | 02:36:03 | 00:00:00 | |
| DL1XH-west | 2026-09-02 06:07:29 | 52.70311 | 8.62275 | 73° | 75km/h | 7928m | -4.8m/s | -34.2°C | 79% | 368.1hPa | 2.6V | 07:50:35 | 02:36:02 | 00:00:00 | |
| DK9SH | 2026-09-02 06:07:29 | 52.70310 | 8.62275 | 74° | 75km/h | 7928m | -4.8m/s | -34.2°C | 74.0% | 368.0hPa | 2.5V | 07:50:00 | 00:00:00 | 00:00:00 | |
| DL3AQ-11 | 2026-09-02 06:07:28 | 52.70300 | 8.62214 | 72° | 78km/h | 7938m | -4.5m/s | -34.2°C | 72.8% | 367.6hPa | 2.5V | 00:00:00 | 00:00:00 | 00:00:00 | |
| DM0DOS-11 | 2026-09-02 06:07:27 | 52.70270 | 8.62054 | 72° | 84km/h | 7962m | -4.7m/s | -34.5°C | 80.2% | 366.5hPa | 2.5V | 07:50:13 | 02:35:55 | 00:00:00 | |
| BIOWL1-15 | 2026-09-02 06:07:26 | 52.70282 | 8.62119 | 73° | 80km/h | 7953m | -4.8m/s | -34.4°C | 78.4% | 366.9hPa | 2.5V | 07:50:35 | 02:35:57 | 00:00:00 | |
| HSKMA3-T | 2026-09-02 06:07:25 | 52.70288 | 8.62151 | 72° | 80km/h | 7947m | -4.9m/s | -34.3°C | 78.4% | 367.2hPa | 2.6V | 07:50:35 | 02:35:58 | 00:00:00 | |
| DB0DAN | 2026-09-02 06:07:25 | 52.70288 | 8.62151 | 72° | 77km/h | 7947m | -4.9m/s | -34.3°C | 73.2% | 367.23hPa | 2.6V | 00:00:00 | 00:00:00 | 00:00:00 | |
| AA1-15 | 2026-09-02 06:07:21 | 52.70265 | 8.62020 | 76° | 86km/h | 7967m | -4.6m/s | -34.5°C | 78.2% | 366.1hPa | 2.6V | 07:50:35 | 02:35:54 | 00:00:00 | |
| DL1XH-west | 2026-09-02 06:07:19 | 52.70255 | 8.61952 | 78° | 86km/h | 7976m | -4.5m/s | -34.6°C | 77.5% | 365.7hPa | 2.6V | 07:50:35 | 02:35:52 | 00:00:00 | |
| DM0DOS-11 | 2026-09-02 06:07:17 | 52.70237 | 8.61709 | 86° | 75km/h | 8009m | -4.3m/s | -34.9°C | 79.5% | 364hPa | 2.5V | 07:50:23 | 02:35:45 | 00:00:00 | |
| GOEST3-10 | 2026-09-02 06:07:17 | 52.70247 | 8.61880 | 83° | 84km/h | 7986m | -4.6m/s | -34.6°C | 78.2% | 365.2hPa | 2.5V | 00:00:00 | 00:00:00 | 00:00:00 | |
| DC6BW-12 | 2026-09-02 06:07:16 | 52.70247 | 8.61880 | 83° | 86km/h | 7986m | -4.7m/s | -34.7°C | 71.6% | 365.3hPa | 2.5V | 07:50:00 | 00:00:00 | 00:00:00 | |
| DL1XH1-15 | 2026-09-02 06:07:15 | 52.70234 | 8.61650 | 85° | 68km/h | 8018m | -4.5m/s | -35°C | 79.7% | 363.6hPa | 2.5V | 07:50:25 | 02:35:43 | 00:00:00 | |
| HSKMA3-T | 2026-09-02 06:07:15 | 52.70242 | 8.61809 | 84° | 84km/h | 7996m | -4.8m/s | -34.7°C | 76.7% | 364.8hPa | 2.6V | 07:50:35 | 02:35:48 | 00:00:00 | |
| BIOWL1-15 | 2026-09-02 06:07:13 | 52.70236 | 8.61679 | 86° | 71km/h | 8013m | -4.8m/s | -34.9°C | 77.8% | 363.9hPa | 2.5V | 07:50:35 | 02:35:44 | 00:00:00 | |
| AA1-15 | 2026-09-02 06:07:10 | 52.70234 | 8.61650 | 85° | 68km/h | 8018m | -4.5m/s | -35°C | 77.9% | 363.6hPa | 2.5V | 07:50:35 | 02:35:43 | 00:00:00 | |
| DB0DAN | 2026-09-02 06:07:10 | 52.70234 | 8.61650 | 85° | 64km/h | 8018m | -4.5m/s | -35°C | 72.9% | 363.57hPa | 2.5V | 00:00:00 | 00:00:00 | 00:00:00 | |
| DL1XH-west | 2026-09-02 06:07:09 | 52.70233 | 8.61622 | 86° | 66km/h | 8023m | -4.9m/s | -35°C | 78.1% | 363.4hPa | 2.6V | 07:50:35 | 02:35:42 | 00:00:00 | |
| DO2JMG | 2026-09-02 06:07:08 | 52.70231 | 8.61595 | 84° | 68km/h | 8027m | -4.9m/s | -35.1°C | 78.2% | 363.1hPa | 2.6V | 07:50:35 | 02:35:41 | 00:00:00 | |
| HTAHTA | 2026-09-02 06:07:08 | 52.70230 | 8.61568 | 84° | 64km/h | 8032m | -5.2m/s | -35.1°C | 73.4% | 362.8hPa | 2.5V | 00:00:00 | 00:00:00 | 00:00:00 | |
| DM0DOS-11 | 2026-09-02 06:07:07 | 52.70213 | 8.61434 | 72° | 69km/h | 8055m | -4.4m/s | -35.3°C | 81.5% | 361.6hPa | 2.5V | 07:50:33 | 02:35:35 | 00:00:00 | |
| GOEST3-10 | 2026-09-02 06:07:07 | 52.70230 | 8.61568 | 85° | 66km/h | 8032m | -5.1m/s | -35.0°C | 80.3% | 362.7hPa | 2.6V | 07:50:00 | 00:00:00 | 00:00:00 | |
| DO9LL-15 | 2026-09-02 06:07:06 | 52.70228 | 8.61540 | 83° | 77km/h | 8037m | -4.6m/s | -35.1°C | 80.4% | 362.5hPa | 2.6V | 00:00:00 | 02:35:39 | 00:00:00 | |
| DL1XH1-15 | 2026-09-02 06:07:05 | 52.70203 | 8.61376 | 72° | 77km/h | 8063m | -4.5m/s | -35.4°C | 82.2% | 361.2hPa | 2.6V | 07:50:35 | 02:35:33 | 00:00:00 | |
| HSKMA3-T | 2026-09-02 06:07:04 | 52.70222 | 8.61488 | 77° | 66km/h | 8046m | -4.7m/s | -35.2°C | 78.6% | 362.1hPa | 2.6V | 07:50:35 | 02:35:37 | 00:00:00 | |
| BIOWL1-15 | 2026-09-02 06:07:03 | 52.70218 | 8.61461 | 74° | 68km/h | 8050m | -4.3m/s | -35.3°C | 78.8% | 361.9hPa | 2.5V | 07:50:35 | 02:35:36 | 00:00:00 | |
| DD8BA-10 | 2026-09-02 06:07:03 | 52.70218 | 8.61461 | 74° | 75km/h | 8050m | -4.2m/s | -35.2°C | 81.4% | 361.9hPa | 2.5V | 07:50:00 | 00:00:00 | 00:00:00 | |
| GOEST3-10 | 2026-09-02 06:07:02 | 52.70213 | 8.61434 | 73° | 75km/h | 8055m | -4.4m/s | -35.3°C | 81.5% | 361.6hPa | 2.5V | 00:00:00 | 02:35:35 | 00:00:00 | |
| SMARD9-15 | 2026-09-02 06:07:00 | 52.70203 | 8.61376 | 72° | 75km/h | 8063m | -4.5m/s | -35.4°C | 75.1% | 361.2hPa | 2.6V | 00:00:00 | 00:00:00 | 00:00:00 | |
| DL1XH-15 | 2026-09-02 06:06:59 | 52.70166 | 8.61194 | 71° | 73km/h | 8091m | -4.7m/s | -35.7°C | 83.8% | 359.8hPa | 2.6V | 07:50:41 | 02:35:27 | 00:00:00 | |
| AA1-15 | 2026-09-02 06:06:59 | 52.70197 | 8.61346 | 72° | 77km/h | 8068m | -4.7m/s | -35.4°C | 79.8% | 361.1hPa | 2.6V | 07:51:26 | 02:35:32 | 00:00:00 | |
| DL1XH-west | 2026-09-02 06:06:58 | 52.70190 | 8.61315 | 72° | 78km/h | 8073m | -5m/s | -35.5°C | 80% | 360.7hPa | 2.6V | 07:51:26 | 02:35:31 | 00:00:00 | |
| DM0DOS-11 | 2026-09-02 06:06:57 | 52.70154 | 8.61137 | 70° | 71km/h | 8100m | -4.4m/s | -35.8°C | 84.1% | 359.3hPa | 2.6V | 07:50:43 | 02:35:25 | 00:00:00 | |
| DO3DL | 2026-09-02 06:06:57 | 52.70184 | 8.61284 | 72° | 77km/h | 8078m | -4.6m/s | -35.5°C | 75.7% | 360.6hPa | 2.5V | 07:51:00 | 00:00:00 | 00:00:00 | |
| DC6BW-12 | 2026-09-02 06:06:56 | 52.70184 | 8.61284 | 72° | 77km/h | 8078m | -4.6m/s | -35.5°C | 75.7% | 360.6hPa | 2.5V | 07:51:00 | 00:00:00 | 00:00:00 | |
| DL1XH1-15 | 2026-09-02 06:06:55 | 52.70143 | 8.61080 | 71° | 73km/h | 8109m | -4.7m/s | -35.9°C | 84.2% | 358.8hPa | 2.5V | 07:50:45 | 02:35:23 | 00:00:00 | |
| DB0DAN | 2026-09-02 06:06:55 | 52.70172 | 8.61224 | 71° | 73km/h | 8087m | -4.8m/s | -35.6°C | 76.5% | 360.01hPa | 2.5V | 00:00:00 | 00:00:00 | 00:00:00 | |
| HSKMA3-T | 2026-09-02 06:06:53 | 52.70160 | 8.61165 | 71° | 73km/h | 8095m | -5m/s | -35.7°C | 81.1% | 359.5hPa | 2.6V | 07:51:26 | 02:35:26 | 00:00:00 | |
| BIOWL1-15 | 2026-09-02 06:06:52 | 52.70143 | 8.61080 | 71° | 73km/h | 8109m | -4.7m/s | -35.9°C | 81.2% | 358.9hPa | 2.5V | 07:51:26 | 02:35:23 | 00:00:00 | |
| DO2JMG | 2026-09-02 06:06:48 | 52.70130 | 8.61022 | 72° | 77km/h | 8118m | -4.9m/s | -35.9°C | 81.6% | 358.4hPa | 2.6V | 07:51:26 | 02:35:21 | 00:00:00 | |
| DL1XH-west | 2026-09-02 06:06:47 | 52.70124 | 8.60992 | 71° | 78km/h | 8123m | -4.8m/s | -36°C | 81.6% | 358.2hPa | 2.6V | 07:51:26 | 02:35:20 | 00:00:00 | |
| DK9SH | 2026-09-02 06:06:47 | 52.70124 | 8.60991 | 72° | 78km/h | 8123m | -4.8m/s | -36.0°C | 77.3% | 358.2hPa | 2.5V | 07:51:00 | 00:00:00 | 00:00:00 | |
| DL1XH-15 | 2026-09-02 06:06:46 | 52.70106 | 8.60897 | 72° | 80km/h | 8136m | -4.7m/s | -36.1°C | 84.6% | 357.4hPa | 2.5V | 07:50:51 | 02:35:17 | 00:00:00 | |
| DL1XH1-15 | 2026-09-02 06:06:45 | 52.70082 | 8.60766 | 74° | 82km/h | 8155m | -4.8m/s | -36.3°C | 85.3% | 356.4hPa | 2.5V | 07:50:55 | 02:35:13 | 00:00:00 | |
| HSKMA3-T | 2026-09-02 06:06:43 | 52.70100 | 8.60864 | 73° | 82km/h | 8141m | -4.8m/s | -36.2°C | 81.5% | 357.1hPa | 2.6V | 07:51:26 | 02:35:16 | 00:00:00 | |
| BIOWL1-15 | 2026-09-02 06:06:41 | 52.70076 | 8.60733 | 75° | 82km/h | 8160m | -4.7m/s | -36.3°C | 81.9% | 356.2hPa | 2.5V | 07:51:26 | 02:35:12 | 00:00:00 | |
| DB0DAN | 2026-09-02 06:06:40 | 52.70082 | 8.60766 | 75° | 78km/h | 8155m | -4.8m/s | -36.3°C | 77.9% | 356.44hPa | 2.5V | 00:00:00 | 00:00:00 | 00:00:00 | |
| DL1XH-west | 2026-09-02 06:06:37 | 52.70066 | 8.60664 | 78° | 88km/h | 8169m | -5m/s | -36.4°C | 81.9% | 355.7hPa | 2.6V | 07:51:26 | 02:35:10 | 00:00:00 | |
| HTAHTA | 2026-09-02 06:06:37 | 52.70062 | 8.60629 | 78° | 86km/h | 8174m | -4.7m/s | -36.5°C | 77.6% | 355.5hPa | 2.5V | 00:00:00 | 00:00:00 | 00:00:00 | |
| DL1XH-15 | 2026-09-02 06:06:36 | 52.70053 | 8.60558 | 79° | 88km/h | 8184m | -5.1m/s | -36.5°C | 85.1% | 355hPa | 2.5V | 07:51:01 | 02:35:07 | 00:00:00 | |
| DO9LL-15 | 2026-09-02 06:06:36 | 52.70062 | 8.60629 | 79° | 75km/h | 8174m | -4.7m/s | -36.4°C | 85.1% | 355.4hPa | 2.6V | 00:00:00 | 02:35:09 | 00:00:00 | |
| DL1XH1-15 | 2026-09-02 06:06:35 | 52.70040 | 8.60417 | 83° | 80km/h | 8205m | -5.1m/s | -36.7°C | 84.4% | 354hPa | 2.6V | 07:51:05 | 02:35:03 | 00:00:00 | |
| HSKMA3-T | 2026-09-02 06:06:33 | 52.70049 | 8.60522 | 80° | 88km/h | 8189m | -5.4m/s | -36.6°C | 81.5% | 354.7hPa | 2.5V | 07:51:26 | 02:35:06 | 00:00:00 | |
| BIOWL1-15 | 2026-09-02 06:06:31 | 52.70042 | 8.60451 | 83° | 84km/h | 8199m | -5.3m/s | -36.7°C | 81.3% | 354.3hPa | 2.6V | 07:51:26 | 02:35:04 | 00:00:00 | |
| DO3DL | 2026-09-02 06:06:31 | 52.70042 | 8.60451 | 84° | 84km/h | 8200m | -5.3m/s | -36.7°C | 77.1% | 354.3hPa | 2.5V | 07:51:00 | 00:00:00 | 00:00:00 | |
| DL1XH-15 | 2026-09-02 06:06:29 | 52.70032 | 8.60237 | 84° | 66km/h | 8234m | -5.2m/s | -36.9°C | 80.4% | 352.6hPa | 2.5V | 07:51:11 | 02:34:57 | 00:00:00 | |
| DM0DOS-11 | 2026-09-02 06:06:27 | 52.70028 | 8.60185 | 79° | 60km/h | 8244m | -4.4m/s | -37°C | 79.1% | 352.1hPa | 2.6V | 07:51:13 | 02:34:55 | 00:00:00 | |
| DL1XH-west | 2026-09-02 06:06:26 | 52.70035 | 8.60293 | 86° | 71km/h | 8224m | -4.7m/s | -36.9°C | 80.2% | 353.1hPa | 2.6V | 07:51:26 | 02:34:59 | 00:00:00 | |
| DB0DAN | 2026-09-02 06:06:25 | 52.70033 | 8.60264 | 85° | 62km/h | 8229m | -4.6m/s | -36.9°C | 74.1% | 352.78hPa | 2.5V | 00:00:00 | 00:00:00 | 00:00:00 | |
| HSKMA3-T | 2026-09-02 06:06:23 | 52.70030 | 8.60210 | 82° | 64km/h | 8239m | -4.5m/s | -37°C | 78% | 352.3hPa | 2.5V | 07:51:26 | 02:34:56 | 00:00:00 | |
| BIOWL1-15 | 2026-09-02 06:06:21 | 52.70024 | 8.60160 | 77° | 60km/h | 8248m | -4.5m/s | -37°C | 76.5% | 351.8hPa | 2.6V | 07:51:26 | 02:34:54 | 00:00:00 | |
| DB0UT-7 | 2026-09-02 06:06:20 | 52.70021 | 8.60136 | 75° | 75km/h | 8253m | -4.7m/s | -37.0°C | 78.4% | 351.6hPa | 2.5V | 00:00:00 | 02:34:53 | 00:00:00 | |
| DL1XH-15 | 2026-09-02 06:06:19 | 52.69985 | 8.59981 | 66° | 73km/h | 8281m | -4.8m/s | -37.3°C | 79.3% | 350.1hPa | 2.5V | 07:51:21 | 02:34:47 | 00:00:00 | |
| D01LWL | 2026-09-02 06:06:18 | 52.70011 | 8.60087 | 70° | 64km/h | 8262m | -4.8m/s | -37.1°C | 71.4% | 351.1hPa | 2.6V | 00:00:00 | 00:00:00 | 00:00:00 | |
| DM0DOS-11 | 2026-09-02 06:06:17 | 52.69971 | 8.59923 | 69° | 77km/h | 8291m | -4.8m/s | -37.4°C | 80.2% | 349.5hPa | 2.6V | 07:51:23 | 02:34:45 | 00:00:00 | |
| DO2JMG | 2026-09-02 06:06:16 | 52.69999 | 8.60035 | 66° | 69km/h | 8272m | -5m/s | -37.2°C | 76.6% | 350.6hPa | 2.6V | 07:51:26 | 02:34:49 | 00:00:00 | |
| DL1XH-west | 2026-09-02 06:06:15 | 52.69992 | 8.60008 | 67° | 69km/h | 8277m | -4.9m/s | -37.2°C | 76.6% | 350.4hPa | 2.6V | 07:51:26 | 02:34:48 | 00:00:00 | |
| HSKMA3-T | 2026-09-02 06:06:13 | 52.69978 | 8.59952 | 67° | 75km/h | 8286m | -5m/s | -37.3°C | 76.9% | 349.9hPa | 2.5V | 07:51:26 | 02:34:46 | 00:00:00 | |
| BIOWL1-15 | 2026-09-02 06:06:11 | 52.69965 | 8.59893 | 72° | 78km/h | 8296m | -4.7m/s | -37.4°C | 77.4% | 349.4hPa | 2.6V | 07:51:26 | 02:34:44 | 00:00:00 | |
| DB0DAN | 2026-09-02 06:06:10 | 52.69959 | 8.59861 | 75° | 77km/h | 8301m | -4.5m/s | -37.4°C | 73.5% | 349.15hPa | 2.5V | 00:00:00 | 00:00:00 | 00:00:00 | |
| DL1XH-15 | 2026-09-02 06:06:09 | 52.69936 | 8.59668 | 79° | 78km/h | 8326m | -4.7m/s | -37.7°C | 82.3% | 347.8hPa | 2.5V | 07:51:31 | 02:34:37 | 00:00:00 | |
| DD1CC3-15 | 2026-09-02 06:06:08 | 52.69954 | 8.59829 | 78° | 78km/h | 8305m | -4.0m/s | -37.5°C | 73.9% | 348.9hPa | 2.5V | 07:51:00 | 00:00:00 | 00:00:00 | |
| DM0DOS-11 | 2026-09-02 06:06:07 | 52.69928 | 8.59604 | 76° | 80km/h | 8335m | -4.8m/s | -37.8°C | 82.6% | 347.4hPa | 2.5V | 07:51:33 | 02:34:35 | 00:00:00 | |
| DO2JMG | 2026-09-02 06:06:05 | 52.69940 | 8.59700 | 80° | 78km/h | 8322m | -4.2m/s | -37.7°C | 78.8% | 348hPa | 2.6V | 07:52:17 | 02:34:38 | 00:00:00 | |
| DL1XH-west | 2026-09-02 06:06:04 | 52.69936 | 8.59668 | 80° | 78km/h | 8326m | -4.7m/s | -37.7°C | 79.1% | 347.8hPa | 2.5V | 07:52:17 | 02:34:37 | 00:00:00 | |
| HSKMA3-T | 2026-09-02 06:06:02 | 52.69928 | 8.59604 | 76° | 80km/h | 8335m | -4.8m/s | -37.8°C | 79.4% | 347.4hPa | 2.5V | 07:52:17 | 02:34:35 | 00:00:00 | |
| BIOWL1-15 | 2026-09-02 06:06:00 | 52.69918 | 8.59539 | 74° | 80km/h | 8345m | -4.6m/s | -37.9°C | 79.6% | 346.9hPa | 2.6V | 07:52:17 | 02:34:33 | 00:00:00 | |
| GOEST3-10 | 2026-09-02 06:06:00 | 52.69918 | 8.59539 | 74° | 80km/h | 8345m | -4.5m/s | -37.8°C | 82.7% | 346.8hPa | 2.6V | 00:00:00 | 02:34:33 | 00:00:00 | |
| DL1XH-15 | 2026-09-02 06:05:59 | 52.69889 | 8.59344 | 79° | 77km/h | 8373m | -4.4m/s | -38.1°C | 83.6% | 345.4hPa | 2.5V | 07:51:41 | 02:34:27 | 00:00:00 | |
| DO2JMG | 2026-09-02 06:05:55 | 52.69893 | 8.59377 | 79° | 80km/h | 8369m | -4.9m/s | -38.1°C | 79.8% | 345.7hPa | 2.5V | 07:52:17 | 02:34:28 | 00:00:00 | |
| DB0DAN | 2026-09-02 06:05:55 | 52.69893 | 8.59377 | 79° | 77km/h | 8369m | -4.9m/s | -38.1°C | 75.6% | 345.7hPa | 2.5V | 00:00:00 | 00:00:00 | 00:00:00 | |
| DL1XH-west | 2026-09-02 06:05:54 | 52.69889 | 8.59344 | 80° | 77km/h | 8373m | -4.4m/s | -38.1°C | 79.8% | 345.4hPa | 2.5V | 07:52:17 | 02:34:27 | 00:00:00 | |
| DF8AY | 2026-09-02 06:05:53 | 52.69886 | 8.59313 | 82° | 75km/h | 8378m | -4.7m/s | -38.2°C | 79.9% | 0hPa | 2.5V | 07:52:17 | 02:34:26 | 00:00:00 | |
| HSKMA3-T | 2026-09-02 06:05:52 | 52.69883 | 8.59282 | 83° | 75km/h | 8382m | -4.7m/s | -38.2°C | 80.1% | 345hPa | 2.6V | 07:52:17 | 02:34:25 | 00:00:00 | |
| BIOWL1-15 | 2026-09-02 06:05:50 | 52.69880 | 8.59225 | 85° | 68km/h | 8391m | -5m/s | -38.3°C | 80.4% | 344.5hPa | 2.6V | 07:52:17 | 02:34:23 | 00:00:00 | |
| DB0UT-7 | 2026-09-02 06:05:50 | 52.69880 | 8.59225 | 86° | 69km/h | 8391m | -5.0m/s | -38.3°C | 85.0% | 344.4hPa | 2.6V | 00:00:00 | 00:00:00 | 00:00:00 | |
| DL1XH-15 | 2026-09-02 06:05:49 | 52.69868 | 8.59068 | 78° | 60km/h | 8420m | -5.3m/s | -38.6°C | 87.4% | 343.1hPa | 2.5V | 07:51:51 | 02:34:17 | 00:00:00 | |
| DM0DOS-11 | 2026-09-02 06:05:47 | 52.69860 | 8.59019 | 70° | 62km/h | 8430m | -4.6m/s | -38.6°C | 88% | 342.6hPa | 2.5V | 07:51:53 | 02:34:15 | 00:00:00 | |
| DL1LOL-11 | 2026-09-02 06:05:47 | 52.69875 | 8.59144 | 86° | 62km/h | 8406m | -5.1m/s | -38.4°C | 78.0% | 343.7hPa | 2.6V | 00:00:00 | 00:00:00 | 00:00:00 | |
| DD1CC2-15 | 2026-09-02 06:05:46 | 52.69875 | 8.59144 | 86° | 62km/h | 8406m | -5.1m/s | -38.4°C | 78.0% | 343.7hPa | 2.6V | 00:00:00 | 00:00:00 | 00:00:00 | |
| DL1XH1-15 | 2026-09-02 06:05:45 | 52.69848 | 8.58972 | 65° | 64km/h | 8440m | -5.2m/s | -38.7°C | 88.3% | 342.1hPa | 2.6V | 07:51:55 | 02:34:13 | 00:00:00 | |
| DO2JMG | 2026-09-02 06:05:44 | 52.69868 | 8.59068 | 78° | 60km/h | 8420m | -5.3m/s | -38.6°C | 82.3% | 343.1hPa | 2.5V | 07:52:17 | 02:34:17 | 00:00:00 | |
| DL1XH-west | 2026-09-02 06:05:43 | 52.69864 | 8.59043 | 75° | 60km/h | 8425m | -5.1m/s | -38.6°C | 82.7% | 342.9hPa | 2.5V | 07:52:17 | 02:34:16 | 00:00:00 | |
| HSKMA3-T | 2026-09-02 06:05:42 | 52.69860 | 8.59019 | 71° | 62km/h | 8430m | -4.6m/s | -38.6°C | 83.2% | 342.6hPa | 2.5V | 07:52:17 | 02:34:15 | 00:00:00 | |
| DB0DAN | 2026-09-02 06:05:40 | 52.69848 | 8.58971 | 65° | 60km/h | 8440m | -5.2m/s | -38.7°C | 80.1% | 342.1hPa | 2.6V | 00:00:00 | 00:00:00 | 00:00:00 | |
| BIOWL1-15 | 2026-09-02 06:05:39 | 52.69819 | 8.58875 | 63° | 68km/h | 8460m | -5.4m/s | -38.9°C | 82.1% | 341.1hPa | 2.5V | 07:52:17 | 02:34:09 | 00:00:00 | |
| DL1XH-15 | 2026-09-02 06:05:39 | 52.69803 | 8.58827 | 61° | 66km/h | 8470m | -5m/s | -38.9°C | 84.9% | 340.6hPa | 2.6V | 07:52:01 | 02:34:07 | 00:00:00 | |
| SONCRA | 2026-09-02 06:05:39 | 52.69841 | 8.58948 | 63° | 62km/h | 8445m | -5.3m/s | -38.8°C | 80.3% | 341.8hPa | 2.6V | 00:00:00 | 00:00:00 | 00:00:00 | |
| BIOWL9-15 | 2026-09-02 06:05:38 | 52.69827 | 8.58899 | 62° | 62km/h | 8455m | -4.9m/s | -38.8°C | 79.6% | 341.3hPa | 2.6V | 00:00:00 | 00:00:00 | 00:00:00 | |
| DO9LL-15 | 2026-09-02 06:05:36 | 52.69819 | 8.58875 | 64° | 73km/h | 8460m | -5.3m/s | -38.8°C | 87.0% | 341.0hPa | 2.6V | 00:00:00 | 02:34:09 | 00:00:00 | |
| DL1XH1-15 | 2026-09-02 06:05:35 | 52.69769 | 8.58721 | 63° | 78km/h | 8490m | -4.8m/s | -38.9°C | 79% | 339.7hPa | 2.6V | 07:52:05 | 02:34:03 | 00:00:00 | |
| DO2JMG | 2026-09-02 06:05:34 | 52.69803 | 8.58827 | 61° | 66km/h | 8470m | -5m/s | -38.9°C | 80.1% | 340.6hPa | 2.6V | 07:52:17 | 02:34:07 | 00:00:00 | |
| DL1XH-west | 2026-09-02 06:05:32 | 52.69787 | 8.58777 | 61° | 73km/h | 8480m | -5m/s | -38.9°C | 77.8% | 340.1hPa | 2.5V | 07:52:17 | 02:34:05 | 00:00:00 | |
| HSKMA3-T | 2026-09-02 06:05:31 | 52.69778 | 8.58750 | 63° | 77km/h | 8485m | -4.6m/s | -38.9°C | 76.4% | 339.9hPa | 2.6V | 07:52:17 | 02:34:04 | 00:00:00 | |
| GOEST3-10 | 2026-09-02 06:05:30 | 52.69769 | 8.58721 | 64° | 80km/h | 8490m | -4.7m/s | -38.9°C | 79.0% | 339.6hPa | 2.6V | 00:00:00 | 02:34:03 | 00:00:00 | |
| DL1XH-15 | 2026-09-02 06:05:29 | 52.69725 | 8.58533 | 74° | 80km/h | 8519m | -4.8m/s | -38.9°C | 71% | 338.2hPa | 2.6V | 07:52:11 | 02:33:57 | 00:00:00 | |
| DL3AQ-11 | 2026-09-02 06:05:28 | 52.69745 | 8.58629 | 68° | 80km/h | 8505m | -4.9m/s | -38.8°C | 65.9% | 338.9hPa | 2.5V | 00:00:00 | 00:00:00 | 00:00:00 | |
| DM0DOS-11 | 2026-09-02 06:05:27 | 52.69715 | 8.58470 | 76° | 77km/h | 8529m | -5.2m/s | -38.9°C | 70.1% | 337.7hPa | 2.5V | 07:52:13 | 02:33:55 | 00:00:00 | |
| BIOWL1-15 | 2026-09-02 06:05:26 | 52.69731 | 8.58566 | 72° | 82km/h | 8514m | -5m/s | -38.9°C | 68.7% | 338.5hPa | 2.6V | 07:52:17 | 02:33:58 | 00:00:00 | |
| DL1XH1-15 | 2026-09-02 06:05:25 | 52.69707 | 8.58411 | 77° | 69km/h | 8539m | -4.5m/s | -39°C | 69.9% | 337.3hPa | 2.6V | 07:52:15 | 02:33:53 | 00:00:00 | |
| DO2JMG | 2026-09-02 06:05:23 | 52.69720 | 8.58501 | 75° | 80km/h | 8524m | -5.1m/s | -38.9°C | 67.8% | 337.9hPa | 2.5V | 07:52:17 | 02:33:56 | 00:00:00 | |
| DF8AY | 2026-09-02 06:05:23 | 52.69715 | 8.58470 | 77° | 77km/h | 8529m | -5.2m/s | -38.9°C | 67.3% | 0hPa | 2.5V | 07:52:17 | 02:33:55 | 00:00:00 | |
| DL1XH-west | 2026-09-02 06:05:21 | 52.69711 | 8.58440 | 78° | 73km/h | 8534m | -4.9m/s | -39°C | 67.4% | 337.5hPa | 2.5V | 07:52:17 | 02:33:54 | 00:00:00 | |
| DB0UT-7 | 2026-09-02 06:05:20 | 52.69707 | 8.58411 | 78° | 75km/h | 8539m | -4.5m/s | -38.9°C | 69.9% | 337.3hPa | 2.6V | 07:52:00 | 02:33:53 | 00:00:00 | |
| DL1XH-15 | 2026-09-02 06:05:19 | 52.69674 | 8.58268 | 61° | 66km/h | 8567m | -4.5m/s | -39.1°C | 60.8% | 335.9hPa | 2.6V | 07:52:21 | 02:33:47 | 00:00:00 | |
| DL1LOL-11 | 2026-09-02 06:05:18 | 52.69703 | 8.58384 | 77° | 64km/h | 8543m | -4.5m/s | -39.0°C | 61.4% | 337.0hPa | 2.5V | 00:00:00 | 00:00:00 | 00:00:00 | |
| DM0DOS-11 | 2026-09-02 06:05:17 | 52.69657 | 8.58218 | 61° | 73km/h | 8576m | -5m/s | -39.1°C | 56.2% | 335.4hPa | 2.5V | 07:52:23 | 02:33:45 | 00:00:00 | |
| BIOWL1-15 | 2026-09-02 06:05:16 | 52.69688 | 8.58313 | 65° | 58km/h | 8558m | -5m/s | -39.1°C | 61.6% | 336.4hPa | 2.5V | 07:53:08 | 02:33:49 | 00:00:00 | |
| DO2JMG | 2026-09-02 06:05:13 | 52.69666 | 8.58243 | 60° | 69km/h | 8572m | -4.7m/s | -39.2°C | 57.1% | 335.6hPa | 2.6V | 07:53:08 | 02:33:46 | 00:00:00 | |
| DF8AY | 2026-09-02 06:05:12 | 52.69657 | 8.58218 | 62° | 73km/h | 8576m | -5m/s | -39.2°C | 54.8% | 0hPa | 2.5V | 07:53:08 | 02:33:45 | 00:00:00 | |
| AA1-15 | 2026-09-02 06:05:11 | 52.69648 | 8.58190 | 63° | 77km/h | 8581m | -4.8m/s | -39.1°C | 52.5% | 335.2hPa | 2.5V | 07:53:08 | 02:33:44 | 00:00:00 | |
| DL1XH-west | 2026-09-02 06:05:10 | 52.69640 | 8.58162 | 65° | 78km/h | 8586m | -4.7m/s | -39.2°C | 51% | 335hPa | 2.5V | 07:53:08 | 02:33:43 | 00:00:00 | |
| SONCRA | 2026-09-02 06:05:08 | 52.69623 | 8.58102 | 67° | 78km/h | 8595m | -4.7m/s | -39.2°C | 44.6% | 334.5hPa | 2.6V | 00:00:00 | 00:00:00 | 00:00:00 | |
| DM0DOS-11 | 2026-09-02 06:05:07 | 52.69577 | 8.57917 | 68° | 80km/h | 8624m | -4.7m/s | -39.5°C | 46.1% | 333.2hPa | 2.6V | 07:52:33 | 02:33:35 | 00:00:00 | |
| BIOWL1-15 | 2026-09-02 06:05:07 | 52.69600 | 8.58009 | 67° | 80km/h | 8609m | -4.8m/s | -39.3°C | 49.2% | 333.9hPa | 2.5V | 07:53:08 | 02:33:38 | 00:00:00 | |
| DO2JMG | 2026-09-02 06:05:03 | 52.69585 | 8.57948 | 68° | 80km/h | 8619m | -4.9m/s | -39.4°C | 48% | 333.3hPa | 2.6V | 07:53:08 | 02:33:36 | 00:00:00 | |
| DF8AY | 2026-09-02 06:05:02 | 52.69577 | 8.57917 | 68° | 80km/h | 8624m | -4.7m/s | -39.5°C | 46.7% | 0hPa | 2.6V | 07:53:08 | 02:33:35 | 00:00:00 | |
| AA1-15 | 2026-09-02 06:05:00 | 52.69563 | 8.57855 | 69° | 80km/h | 8633m | -4.7m/s | -39.6°C | 44.5% | 332.7hPa | 2.5V | 07:53:08 | 02:33:33 | 00:00:00 | |
| DL1XH-west | 2026-09-02 06:04:59 | 52.69555 | 8.57823 | 69° | 80km/h | 8638m | -4.7m/s | -39.6°C | 43% | 332.5hPa | 2.5V | 07:53:08 | 02:33:32 | 00:00:00 | |
| DM0DOS-11 | 2026-09-02 06:04:57 | 52.69507 | 8.57597 | 72° | 82km/h | 8672m | -4.9m/s | -39.8°C | 30.6% | 330.7hPa | 2.6V | 07:52:43 | 02:33:25 | 00:00:00 | |
| BIOWL1-15 | 2026-09-02 06:04:54 | 52.69520 | 8.57663 | 71° | 82km/h | 8662m | -5m/s | -39.7°C | 33.3% | 331.2hPa | 2.5V | 07:53:08 | 02:33:27 | 00:00:00 | |
| DO2JMG | 2026-09-02 06:04:52 | 52.69507 | 8.57597 | 72° | 82km/h | 8672m | -4.9m/s | -39.8°C | 31.3% | 330.7hPa | 2.6V | 07:53:08 | 02:33:25 | 00:00:00 | |
| DF8AY | 2026-09-02 06:04:51 | 52.69501 | 8.57564 | 74° | 84km/h | 8677m | -4.9m/s | -39.8°C | 30.1% | 0hPa | 2.6V | 07:53:08 | 02:33:24 | 00:00:00 | |
| AA1-15 | 2026-09-02 06:04:50 | 52.69495 | 8.57531 | 75° | 84km/h | 8682m | -4.8m/s | -39.9°C | 28.9% | 330.3hPa | 2.5V | 07:53:08 | 02:33:23 | 00:00:00 | |
| DL1XH-west | 2026-09-02 06:04:49 | 52.69490 | 8.57497 | 76° | 84km/h | 8687m | -4.9m/s | -39.9°C | 27.7% | 330.1hPa | 2.5V | 07:53:08 | 02:33:22 | 00:00:00 | |
| HSKMA3-T | 2026-09-02 06:04:48 | 52.69485 | 8.57464 | 77° | 82km/h | 8692m | -4.7m/s | -39.9°C | 27.1% | 329.9hPa | 2.5V | 07:53:08 | 02:33:21 | 00:00:00 | |
| DL3AQ-11 | 2026-09-02 06:04:48 | 52.69480 | 8.57430 | 78° | 80km/h | 8697m | -4.7m/s | -40.0°C | 21.5% | 329.6hPa | 2.6V | 00:00:00 | 00:00:00 | 00:00:00 | |
| BIOWL1-15 | 2026-09-02 06:04:48 | 52.69469 | 8.57334 | 80° | 75km/h | 8710m | -4.7m/s | -40.1°C | 24.3% | 328.9hPa | 2.5V | 07:53:08 | 02:33:17 | 00:00:00 | |
| DM0DOS-11 | 2026-09-02 06:04:47 | 52.69463 | 8.57274 | 79° | 69km/h | 8720m | -4.8m/s | -40.1°C | 21.8% | 328.5hPa | 2.6V | 07:52:53 | 02:33:15 | 00:00:00 | |
| D01LWL | 2026-09-02 06:04:45 | 52.69469 | 8.57334 | 80° | 75km/h | 8710m | -4.7m/s | -40.1°C | 19.5% | 328.9hPa | 2.6V | 00:00:00 | 00:00:00 | 00:00:00 | |
| DF8AY | 2026-09-02 06:04:41 | 52.69460 | 8.57246 | 79° | 69km/h | 8724m | -4.6m/s | -40.2°C | 23.3% | 0hPa | 2.6V | 07:53:08 | 02:33:14 | 00:00:00 | |
| DL1XH-west | 2026-09-02 06:04:39 | 52.69452 | 8.57191 | 77° | 66km/h | 8734m | -4.7m/s | -40.2°C | 23.6% | 327.8hPa | 2.5V | 07:53:08 | 02:33:12 | 00:00:00 | |
| HSKMA3-T | 2026-09-02 06:04:38 | 52.69449 | 8.57164 | 76° | 66km/h | 8738m | -4.8m/s | -40.2°C | 23.8% | 327.6hPa | 2.5V | 07:53:08 | 02:33:11 | 00:00:00 | |
| BIOWL1-15 | 2026-09-02 06:04:38 | 52.69431 | 8.57058 | 74° | 66km/h | 8757m | -4.5m/s | -40.3°C | 25.3% | 326.7hPa | 2.5V | 07:53:08 | 02:33:07 | 00:00:00 | |
| DM0DOS-11 | 2026-09-02 06:04:37 | 52.69422 | 8.57006 | 73° | 66km/h | 8766m | -4.7m/s | -40.4°C | 24.8% | 326.3hPa | 2.5V | 07:53:03 | 02:33:05 | 00:00:00 | |
| BIOWL9-15 | 2026-09-02 06:04:36 | 52.69436 | 8.57084 | 74° | 66km/h | 8752m | -4.5m/s | -40.3°C | 0% | 326.9hPa | 2.6V | 00:00:00 | 00:00:00 | 00:00:00 | |
| DL1XH1-15 | 2026-09-02 06:04:35 | 52.69413 | 8.56952 | 74° | 68km/h | 8775m | -4.6m/s | -40.5°C | 25.6% | 325.8hPa | 2.6V | 07:53:05 | 02:33:03 | 00:00:00 | |
| DF8AY | 2026-09-02 06:04:30 | 52.69413 | 8.56952 | 74° | 68km/h | 8775m | -4.6m/s | -40.5°C | 27.1% | 0hPa | 2.6V | 07:53:08 | 02:33:03 | 00:00:00 | |
| DL1XH-west | 2026-09-02 06:04:29 | 52.69408 | 8.56925 | 75° | 68km/h | 8780m | -4.7m/s | -40.5°C | 27.6% | 325.6hPa | 2.6V | 07:53:08 | 02:33:02 | 00:00:00 | |
| AA1-15 | 2026-09-02 06:04:28 | 52.69404 | 8.56898 | 76° | 69km/h | 8785m | -4.7m/s | -40.6°C | 27.9% | 325.4hPa | 2.5V | 07:53:08 | 02:33:01 | 00:00:00 | |
| HSKMA3-T | 2026-09-02 06:04:27 | 52.69399 | 8.56870 | 76° | 69km/h | 8790m | -4.7m/s | -40.6°C | 28.5% | 325.1hPa | 2.5V | 07:53:08 | 02:33:00 | 00:00:00 | |
| DL1XH1-15 | 2026-09-02 06:04:25 | 52.69368 | 8.56672 | 74° | 69km/h | 8823m | -4.8m/s | -40.9°C | 30.8% | 323.5hPa | 2.6V | 07:53:15 | 02:32:53 | 00:00:00 | |
| BIOWL1-15 | 2026-09-02 06:04:24 | 52.69386 | 8.56785 | 76° | 69km/h | 8804m | -4.9m/s | -40.7°C | 30% | 324.4hPa | 2.6V | 07:53:59 | 02:32:57 | 00:00:00 | |
| DF8AY | 2026-09-02 06:04:19 | 52.69363 | 8.56644 | 74° | 69km/h | 8828m | -4.7m/s | -41°C | 32.3% | 0hPa | 2.6V | 07:53:59 | 02:32:52 | 00:00:00 | |
| DL1XH-west | 2026-09-02 06:04:18 | 52.69358 | 8.56617 | 74° | 69km/h | 8832m | -4.8m/s | -41°C | 32.7% | 323.1hPa | 2.6V | 07:53:59 | 02:32:51 | 00:00:00 | |
| HSKMA3-T | 2026-09-02 06:04:17 | 52.69353 | 8.56589 | 73° | 69km/h | 8837m | -5m/s | -41°C | 33.1% | 322.9hPa | 2.5V | 07:53:59 | 02:32:50 | 00:00:00 | |
| DO3DL | 2026-09-02 06:04:16 | 52.69353 | 8.56589 | 74° | 69km/h | 8838m | -5.0m/s | -41.0°C | 27.4% | 322.9hPa | 2.5V | 07:53:00 | 00:00:00 | 00:00:00 | |
| DL1XH1-15 | 2026-09-02 06:04:15 | 52.69317 | 8.56401 | 74° | 69km/h | 8872m | -4.5m/s | -41.4°C | 35.4% | 321.2hPa | 2.5V | 07:53:25 | 02:32:43 | 00:00:00 | |
| BIOWL1-15 | 2026-09-02 06:04:13 | 52.69332 | 8.56481 | 71° | 68km/h | 8857m | -4.9m/s | -41.2°C | 34.9% | 321.9hPa | 2.6V | 07:53:59 | 02:32:46 | 00:00:00 | |
| DF8AY | 2026-09-02 06:04:09 | 52.69312 | 8.56373 | 74° | 71km/h | 8876m | -4.9m/s | -41.4°C | 37.4% | 0hPa | 2.6V | 07:53:59 | 02:32:42 | 00:00:00 | |
| DL1XH-west | 2026-09-02 06:04:08 | 52.69307 | 8.56344 | 75° | 73km/h | 8881m | -5m/s | -41.5°C | 38.2% | 320.8hPa | 2.6V | 07:53:59 | 02:32:41 | 00:00:00 | |
| AA1-15 | 2026-09-02 06:04:06 | 52.69298 | 8.56285 | 76° | 75km/h | 8891m | -5m/s | -41.6°C | 39.6% | 320.4hPa | 2.5V | 07:53:59 | 02:32:39 | 00:00:00 | |
| DO2JMG | 2026-09-02 06:03:59 | 52.69266 | 8.56075 | 76° | 71km/h | 8925m | -4.9m/s | -41.9°C | 43.9% | 318.7hPa | 2.5V | 07:53:59 | 02:32:32 | 00:00:00 | |
| DL1XH-west | 2026-09-02 06:03:58 | 52.69262 | 8.56047 | 75° | 71km/h | 8931m | -5m/s | -41.9°C | 43.9% | 318.4hPa | 2.5V | 07:53:59 | 02:32:31 | 00:00:00 | |
| DM0DOS-11 | 2026-09-02 06:03:57 | 52.69221 | 8.55890 | 59° | 73km/h | 8959m | -4.9m/s | -42.2°C | 42.6% | 317.1hPa | 2.5V | 07:53:43 | 02:32:25 | 00:00:00 | |
| HSKMA3-T | 2026-09-02 06:03:56 | 52.69252 | 8.55992 | 70° | 66km/h | 8940m | -4.7m/s | -42°C | 44% | 318hPa | 2.6V | 07:53:59 | 02:32:29 | 00:00:00 | |
| AA1-15 | 2026-09-02 06:03:55 | 52.69246 | 8.55967 | 66° | 66km/h | 8945m | -4.8m/s | -42.1°C | 44.1% | 317.8hPa | 2.6V | 07:53:59 | 02:32:28 | 00:00:00 | |
| DL1XH1-15 | 2026-09-02 06:03:55 | 52.69202 | 8.55836 | 60° | 78km/h | 8969m | -4.9m/s | -42.2°C | 42.6% | 316.6hPa | 2.6V | 07:53:45 | 02:32:23 | 00:00:00 | |
| DF8AY | 2026-09-02 06:03:52 | 52.69221 | 8.55891 | 60° | 73km/h | 8959m | -4.9m/s | -42.2°C | 43.9% | 0hPa | 2.5V | 07:53:59 | 02:32:25 | 00:00:00 | |
| BIOWL1-15 | 2026-09-02 06:03:51 | 52.69212 | 8.55864 | 60° | 75km/h | 8964m | -4.8m/s | -42.2°C | 44% | 316.8hPa | 2.6V | 07:53:59 | 02:32:24 | 00:00:00 | |
| DO2JMG | 2026-09-02 06:03:48 | 52.69182 | 8.55777 | 63° | 84km/h | 8978m | -4.8m/s | -42.3°C | 43.7% | 316.1hPa | 2.5V | 07:53:59 | 02:32:21 | 00:00:00 | |
| DM0DOS-11 | 2026-09-02 06:03:47 | 52.69127 | 8.55575 | 65° | 91km/h | 9008m | -5.1m/s | -42.6°C | 44.1% | 314.8hPa | 2.5V | 07:53:53 | 02:32:15 | 00:00:00 | |
| DL1XH-west | 2026-09-02 06:03:47 | 52.69173 | 8.55745 | 64° | 88km/h | 8983m | -4.7m/s | -42.4°C | 43.5% | 316hPa | 2.5V | 07:53:59 | 02:32:20 | 00:00:00 | |
| HSKMA3-T | 2026-09-02 06:03:46 | 52.69163 | 8.55711 | 66° | 88km/h | 8988m | -4.8m/s | -42.5°C | 43.7% | 315.7hPa | 2.5V | 07:53:59 | 02:32:19 | 00:00:00 | |
| DL1XH1-15 | 2026-09-02 06:03:45 | 52.69107 | 8.55507 | 63° | 89km/h | 9018m | -5.3m/s | -42.7°C | 44.3% | 314.4hPa | 2.6V | 07:53:55 | 02:32:13 | 00:00:00 | |
| AA1-15 | 2026-09-02 06:03:44 | 52.69145 | 8.55643 | 67° | 89km/h | 8998m | -4.9m/s | -42.5°C | 43.9% | 315.3hPa | 2.6V | 07:53:59 | 02:32:17 | 00:00:00 | |
| BIOWL1-15 | 2026-09-02 06:03:40 | 52.69107 | 8.55507 | 64° | 89km/h | 9018m | -5.3m/s | -42.7°C | 44.8% | 314.4hPa | 2.6V | 07:53:59 | 02:32:13 | 00:00:00 | |
| DF8AY | 2026-09-02 06:03:38 | 52.69087 | 8.55441 | 62° | 86km/h | 9028m | -4.6m/s | -42.8°C | 45.2% | 0hPa | 2.6V | 07:53:59 | 02:32:11 | 00:00:00 | |
| DM0DOS-11 | 2026-09-02 06:03:37 | 52.69032 | 8.55273 | 61° | 73km/h | 9056m | -4.8m/s | -43.1°C | 46.5% | 312.6hPa | 2.6V | 07:54:03 | 02:32:05 | 00:00:00 | |
| DL1XH-west | 2026-09-02 06:03:37 | 52.69077 | 8.55411 | 62° | 82km/h | 9033m | -4.7m/s | -42.9°C | 45.5% | 313.7hPa | 2.5V | 07:53:59 | 02:32:10 | 00:00:00 | |
| HSKMA3-T | 2026-09-02 06:03:35 | 52.69058 | 8.55353 | 62° | 75km/h | 9042m | -4.6m/s | -42.9°C | 46.1% | 313.3hPa | 2.5V | 07:54:50 | 02:32:08 | 00:00:00 | |
| AA1-15 | 2026-09-02 06:03:33 | 52.69041 | 8.55299 | 62° | 73km/h | 9051m | -5m/s | -43.1°C | 46.7% | 312.8hPa | 2.6V | 07:54:50 | 02:32:06 | 00:00:00 | |
| BIOWL1-15 | 2026-09-02 06:03:29 | 52.69003 | 8.55189 | 60° | 80km/h | 9071m | -5m/s | -43.2°C | 48% | 311.9hPa | 2.5V | 07:54:50 | 02:32:02 | 00:00:00 | |
| DF8AY | 2026-09-02 06:03:28 | 52.68993 | 8.55161 | 60° | 82km/h | 9076m | -5.1m/s | -43.2°C | 48.3% | 0hPa | 2.5V | 07:54:50 | 02:32:01 | 00:00:00 | |
| DL1XH-west | 2026-09-02 06:03:27 | 52.68983 | 8.55131 | 60° | 82km/h | 9081m | -5.2m/s | -43.3°C | 48.4% | 311.4hPa | 2.6V | 07:54:50 | 02:32:00 | 00:00:00 | |
| HSKMA3-T | 2026-09-02 06:03:25 | 52.68961 | 8.55071 | 60° | 86km/h | 9091m | -5.1m/s | -43.3°C | 48.8% | 310.9hPa | 2.5V | 07:54:50 | 02:31:58 | 00:00:00 | |
| AA1-15 | 2026-09-02 06:03:22 | 52.68929 | 8.54973 | 64° | 91km/h | 9107m | -4.7m/s | -43.5°C | 49.7% | 310.3hPa | 2.6V | 07:54:50 | 02:31:55 | 00:00:00 | |
| DL8OAI-8 | 2026-09-02 06:03:21 | 52.68929 | 8.54973 | 65° | 91km/h | 9107m | -4.7m/s | -43.5°C | 43.4% | 310.3hPa | 2.6V | 07:54:00 | 00:00:00 | 00:00:00 | |
| DB0UT-7 | 2026-09-02 06:03:20 | 52.68909 | 8.54903 | 67° | 80km/h | 9117m | -4.8m/s | -43.5°C | 51.0% | 309.7hPa | 2.6V | 00:00:00 | 02:31:53 | 00:00:00 | |
| DL1XH-15 | 2026-09-02 06:03:19 | 52.68859 | 8.54685 | 72° | 91km/h | 9146m | -5.1m/s | -43.8°C | 50.8% | 308.5hPa | 2.6V | 07:54:21 | 02:31:47 | 00:00:00 | |
| BIOWL1-15 | 2026-09-02 06:03:18 | 52.68891 | 8.54831 | 68° | 95km/h | 9126m | -4.9m/s | -43.6°C | 51% | 309.4hPa | 2.5V | 07:54:50 | 02:31:51 | 00:00:00 | |
| DL1XH-west | 2026-09-02 06:03:17 | 52.68882 | 8.54794 | 69° | 93km/h | 9131m | -4.9m/s | -43.7°C | 51.2% | 309.1hPa | 2.5V | 07:54:50 | 02:31:50 | 00:00:00 | |
| DF8AY | 2026-09-02 06:03:15 | 52.68867 | 8.54721 | 72° | 93km/h | 9141m | -5.1m/s | -43.8°C | 51% | 0hPa | 2.6V | 07:54:50 | 02:31:48 | 00:00:00 | |
| HSKMA3-T | 2026-09-02 06:03:14 | 52.68860 | 8.54685 | 72° | 91km/h | 9146m | -5.1m/s | -43.8°C | 50.7% | 308.5hPa | 2.6V | 07:54:50 | 02:31:47 | 00:00:00 | |
| DD8BA-10 | 2026-09-02 06:03:13 | 52.68853 | 8.54648 | 74° | 82km/h | 9151m | -4.9m/s | -43.8°C | 50.0% | 308.2hPa | 2.5V | 00:00:00 | 00:00:00 | 00:00:00 | |
| DL1XH1-15 | 2026-09-02 06:03:12 | 52.68835 | 8.54543 | 75° | 84km/h | 9166m | -5.1m/s | -43.9°C | 46.7% | 307.5hPa | 2.5V | 07:54:25 | 02:31:43 | 00:00:00 | |
| AA1-15 | 2026-09-02 06:03:11 | 52.68841 | 8.54578 | 75° | 86km/h | 9161m | -5m/s | -43.9°C | 48.2% | 307.8hPa | 2.5V | 07:54:50 | 02:31:44 | 00:00:00 | |
| DJ2KF-10 | 2026-09-02 06:03:11 | 52.68841 | 8.54578 | 75° | 84km/h | 9161m | -5.0m/s | -43.8°C | 47.8% | 307.7hPa | 2.6V | 00:00:00 | 02:31:44 | 00:00:00 | |
| GOEST3-10 | 2026-09-02 06:03:10 | 52.68835 | 8.54543 | 76° | 82km/h | 9166m | -5.0m/s | -43.9°C | 46.7% | 307.5hPa | 2.6V | 00:00:00 | 02:31:43 | 00:00:00 | |
| DL1XH-15 | 2026-09-02 06:03:09 | 52.68803 | 8.54349 | 72° | 75km/h | 9196m | -4.8m/s | -44.2°C | 43.1% | 306.1hPa | 2.6V | 07:54:31 | 02:31:37 | 00:00:00 | |
| BIOWL1-15 | 2026-09-02 06:03:08 | 52.68825 | 8.54476 | 76° | 82km/h | 9176m | -5.1m/s | -44°C | 46% | 307hPa | 2.6V | 07:54:50 | 02:31:41 | 00:00:00 | |
| DO2JMG | 2026-09-02 06:03:07 | 52.68819 | 8.54443 | 75° | 82km/h | 9181m | -5.1m/s | -44°C | 45.5% | 306.8hPa | 2.5V | 07:54:50 | 02:31:40 | 00:00:00 | |
| DL1XH-west | 2026-09-02 06:03:06 | 52.68814 | 8.54410 | 75° | 80km/h | 9186m | -4.8m/s | -44.1°C | 44.8% | 306.6hPa | 2.5V | 07:54:50 | 02:31:39 | 00:00:00 | |
| DO9LL-15 | 2026-09-02 06:03:06 | 52.68814 | 8.54410 | 76° | 75km/h | 9186m | -4.7m/s | -44.0°C | 44.0% | 306.5hPa | 2.5V | 00:00:00 | 02:31:39 | 00:00:00 | |
| DL1XH1-15 | 2026-09-02 06:03:05 | 52.68778 | 8.54235 | 68° | 71km/h | 9215m | -5.1m/s | -44.3°C | 40.6% | 305.3hPa | 2.5V | 07:54:35 | 02:31:33 | 00:00:00 | |
| HSKMA3-T | 2026-09-02 06:03:04 | 52.68804 | 8.54349 | 73° | 75km/h | 9196m | -4.8m/s | -44.2°C | 43.7% | 306.1hPa | 2.6V | 07:54:50 | 02:31:37 | 00:00:00 | |
| AA1-15 | 2026-09-02 06:03:00 | 52.68778 | 8.54235 | 68° | 71km/h | 9216m | -5.1m/s | -44.3°C | 41.2% | 305.3hPa | 2.5V | 07:54:50 | 02:31:33 | 00:00:00 | |
| DL1XH-west | 2026-09-02 06:02:56 | 52.68749 | 8.54126 | 65° | 73km/h | 9235m | -4.9m/s | -44.4°C | 38.8% | 304.3hPa | 2.6V | 07:54:50 | 02:31:29 | 00:00:00 | |
| HSKMA3-T | 2026-09-02 06:02:53 | 52.68726 | 8.54044 | 66° | 71km/h | 9251m | -5.1m/s | -44.5°C | 37.1% | 303.7hPa | 2.5V | 07:54:50 | 02:31:26 | 00:00:00 | |
| DD8BA-10 | 2026-09-02 06:02:53 | 52.68726 | 8.54043 | 66° | 75km/h | 9251m | -5.0m/s | -44.5°C | 36.3% | 303.6hPa | 2.5V | 00:00:00 | 00:00:00 | 00:00:00 | |
| DL1XH1-15 | 2026-09-02 06:02:52 | 52.68704 | 8.53962 | 65° | 73km/h | 9266m | -5m/s | -44.6°C | 35.2% | 303hPa | 2.6V | 07:54:45 | 02:31:23 | 00:00:00 | |
| AA1-15 | 2026-09-02 06:02:49 | 52.68696 | 8.53934 | 65° | 73km/h | 9271m | -5m/s | -44.7°C | 35.3% | 302.7hPa | 2.5V | 07:54:50 | 02:31:22 | 00:00:00 | |
| BIOWL1-15 | 2026-09-02 06:02:47 | 52.68680 | 8.53879 | 64° | 75km/h | 9281m | -5m/s | -44.7°C | 33.9% | 302.4hPa | 2.5V | 07:54:50 | 02:31:20 | 00:00:00 | |
| DL1XH-west | 2026-09-02 06:02:46 | 52.68672 | 8.53851 | 64° | 77km/h | 9286m | -5m/s | -44.7°C | 33.3% | 302.1hPa | 2.6V | 07:54:50 | 02:31:19 | 00:00:00 | |
| DL1XH1-15 | 2026-09-02 06:02:45 | 52.68620 | 8.53667 | 65° | 86km/h | 9315m | -5.1m/s | -44.9°C | 28.4% | 300.8hPa | 2.5V | 07:54:55 | 02:31:13 | 00:00:00 | |
| HSKMA3-T | 2026-09-02 06:02:43 | 52.68646 | 8.53762 | 65° | 82km/h | 9300m | -4.7m/s | -44.8°C | 31.6% | 301.4hPa | 2.5V | 07:55:41 | 02:31:16 | 00:00:00 | |
| DF8AY | 2026-09-02 06:02:42 | 52.68637 | 8.53731 | 65° | 82km/h | 9305m | -5.1m/s | 0°C | 0% | 0hPa | 2.5V | 18:12:15 | 02:31:15 | 00:00:00 | |
| DO3DL | 2026-09-02 06:02:42 | 52.68637 | 8.53731 | 66° | 82km/h | 9306m | -5.1m/s | -44.9°C | 25.3% | 301.1hPa | 2.5V | 07:55:00 | 00:00:00 | 00:00:00 | |
| DF5WG-10 | 2026-09-02 06:02:41 | 52.68629 | 8.53699 | 66° | 86km/h | 9310m | -5.2m/s | -44.8°C | 29.0% | 300.9hPa | 2.5V | 00:00:00 | 02:31:14 | 00:00:00 | |
| GOEST3-10 | 2026-09-02 06:02:40 | 52.68620 | 8.53667 | 66° | 84km/h | 9316m | -5.1m/s | -44.9°C | 28.4% | 300.7hPa | 2.5V | 00:00:00 | 02:31:13 | 00:00:00 | |
| DL1XH-15 | 2026-09-02 06:02:39 | 52.68567 | 8.53475 | 66° | 84km/h | 9345m | -4.9m/s | -45°C | 25.9% | 299.3hPa | 2.5V | 07:55:01 | 02:31:07 | 00:00:00 | |
| AA1-15 | 2026-09-02 06:02:38 | 52.68602 | 8.53603 | 66° | 84km/h | 9325m | -5m/s | -45°C | 28.3% | 300.2hPa | 2.6V | 07:55:41 | 02:31:11 | 00:00:00 | |
| DF8AY | 2026-09-02 06:02:36 | 52.68542 | 8.53378 | 69° | 86km/h | 9360m | -5m/s | 0°C | 0% | 0hPa | 2.5V | 18:12:15 | 02:31:04 | 00:00:00 | |
| BIOWL1-15 | 2026-09-02 06:02:36 | 52.68585 | 8.53539 | 66° | 84km/h | 9335m | -5.1m/s | -45°C | 27.4% | 299.8hPa | 2.5V | 07:55:41 | 02:31:09 | 00:00:00 | |
| DL1XH-west | 2026-09-02 06:02:35 | 52.68576 | 8.53507 | 66° | 84km/h | 9340m | -5.1m/s | -45°C | 27.2% | 299.6hPa | 2.5V | 07:55:41 | 02:31:08 | 00:00:00 | |
| HSKMA3-T | 2026-09-02 06:02:33 | 52.68559 | 8.53443 | 67° | 84km/h | 9350m | -5m/s | -45.1°C | 27.1% | 299.1hPa | 2.6V | 07:55:41 | 02:31:06 | 00:00:00 | |
| SONCRA | 2026-09-02 06:02:33 | 52.68550 | 8.53411 | 67° | 84km/h | 9355m | -5.0m/s | -45.1°C | 21.6% | 298.9hPa | 2.5V | 00:00:00 | 00:00:00 | 00:00:00 | |
| DJ2DS-15 | 2026-09-02 06:02:32 | 52.68550 | 8.53411 | 68° | 86km/h | 9355m | -4.9m/s | -45.1°C | 25.9% | 298.9hPa | 2.5V | 00:00:00 | 02:31:05 | 00:00:00 | |
| GOEST3-10 | 2026-09-02 06:02:30 | 52.68534 | 8.53344 | 70° | 88km/h | 9365m | -4.9m/s | -45.1°C | 25.9% | 298.4hPa | 2.5V | 00:00:00 | 02:31:03 | 00:00:00 | |
| DL1XH-15 | 2026-09-02 06:02:29 | 52.68489 | 8.53139 | 69° | 88km/h | 9395m | -5.3m/s | -45.1°C | 25.3% | 297.1hPa | 2.5V | 07:55:11 | 02:30:57 | 00:00:00 | |
| AA1-15 | 2026-09-02 06:02:28 | 52.68519 | 8.53276 | 71° | 88km/h | 9375m | -5m/s | -45.2°C | 27.1% | 298.1hPa | 2.6V | 07:55:41 | 02:31:01 | 00:00:00 | |
| DO2JMG | 2026-09-02 06:02:26 | 52.68504 | 8.53207 | 71° | 88km/h | 9385m | -5.4m/s | -45.2°C | 27.2% | 297.6hPa | 2.6V | 07:55:41 | 02:30:59 | 00:00:00 | |
| DL1XH-west | 2026-09-02 06:02:25 | 52.68497 | 8.53173 | 70° | 88km/h | 9390m | -5.1m/s | -45.2°C | 27.1% | 297.4hPa | 2.5V | 07:55:41 | 02:30:58 | 00:00:00 | |
| HSKMA3-T | 2026-09-02 06:02:23 | 52.68482 | 8.53105 | 69° | 88km/h | 9401m | -5.3m/s | -45°C | 27.3% | 296.9hPa | 2.5V | 07:55:41 | 02:30:56 | 00:00:00 | |
| DD8BA-10 | 2026-09-02 06:02:23 | 52.68482 | 8.53105 | 70° | 86km/h | 9401m | -5.3m/s | -45.0°C | 25.4% | 296.8hPa | 2.5V | 00:00:00 | 00:00:00 | 00:00:00 | |
| DO3DL | 2026-09-02 06:02:22 | 52.68482 | 8.53105 | 70° | 88km/h | 9401m | -5.3m/s | -45.0°C | 21.1% | 296.9hPa | 2.6V | 07:55:00 | 00:00:00 | 00:00:00 | |
| SMARD9-15 | 2026-09-02 06:02:21 | 52.68458 | 8.53004 | 68° | 86km/h | 9416m | -5.4m/s | -45.2°C | 21.4% | 296.2hPa | 2.6V | 00:00:00 | 00:00:00 | 00:00:00 | |
| DJ2DS-15 | 2026-09-02 06:02:20 | 52.68450 | 8.52970 | 68° | 86km/h | 9422m | -5.4m/s | -45.2°C | 21.6% | 295.9hPa | 2.6V | 00:00:00 | 00:00:00 | 00:00:00 | |
| DL1XH-15 | 2026-09-02 06:02:19 | 52.68417 | 8.52799 | 76° | 84km/h | 9447m | -5.1m/s | -45.5°C | 26.9% | 294.8hPa | 2.6V | 07:55:21 | 02:30:47 | 00:00:00 | |
| BIOWL1-15 | 2026-09-02 06:02:18 | 52.68428 | 8.52868 | 74° | 86km/h | 9437m | -5m/s | -45.4°C | 28.1% | 295.2hPa | 2.5V | 07:55:41 | 02:30:49 | 00:00:00 | |
| AA1-15 | 2026-09-02 06:02:17 | 52.68435 | 8.52902 | 71° | 86km/h | 9432m | -4.9m/s | -45.3°C | 28% | 295.5hPa | 2.5V | 07:55:41 | 02:30:50 | 00:00:00 | |
| DM0DOS-11 | 2026-09-02 06:02:17 | 52.68408 | 8.52731 | 77° | 84km/h | 9457m | -5m/s | -45.6°C | 27.2% | 294.3hPa | 2.6V | 07:55:23 | 02:30:45 | 00:00:00 | |
| DL1XH-west | 2026-09-02 06:02:15 | 52.68423 | 8.52834 | 76° | 86km/h | 9442m | -5.1m/s | -45.4°C | 28.3% | 295.1hPa | 2.5V | 07:55:41 | 02:30:48 | 00:00:00 | |
| DF8AY | 2026-09-02 06:02:14 | 52.68418 | 8.52799 | 77° | 84km/h | 9447m | -5.1m/s | 0°C | 0% | 0hPa | 2.6V | 18:12:15 | 02:30:47 | 00:00:00 | |
| HSKMA3-T | 2026-09-02 06:02:13 | 52.68413 | 8.52765 | 77° | 84km/h | 9452m | -5m/s | -45.5°C | 28.4% | 294.6hPa | 2.6V | 07:55:41 | 02:30:46 | 00:00:00 | |
| DD8BA-10 | 2026-09-02 06:02:13 | 52.68413 | 8.52765 | 78° | 80km/h | 9452m | -5.0m/s | -45.5°C | 27.0% | 294.5hPa | 2.6V | 00:00:00 | 00:00:00 | 00:00:00 | |
| DJ2DS-15 | 2026-09-02 06:02:12 | 52.68408 | 8.52731 | 78° | 73km/h | 9457m | -4.9m/s | -45.5°C | 27.2% | 294.3hPa | 2.6V | 00:00:00 | 02:30:45 | 00:00:00 | |
| DB0NH | 2026-09-02 06:02:11 | 52.68403 | 8.52697 | 78° | 78km/h | 9462m | -5.0m/s | -45.6°C | 27.2% | 294.0hPa | 2.5V | 00:00:00 | 02:30:44 | 00:00:00 | |
| DO3DL | 2026-09-02 06:02:10 | 52.68399 | 8.52664 | 79° | 82km/h | 9467m | -5.0m/s | -45.7°C | 22.5% | 294.0hPa | 2.5V | 07:55:00 | 00:00:00 | 00:00:00 | |
| DL1XH-15 | 2026-09-02 06:02:09 | 52.68377 | 8.52470 | 79° | 75km/h | 9497m | -5m/s | -45.9°C | 27.6% | 292.6hPa | 2.5V | 07:55:31 | 02:30:37 | 00:00:00 | |
| DL3AQ-11 | 2026-09-02 06:02:08 | 52.68387 | 8.52565 | 79° | 78km/h | 9482m | -5.0m/s | -45.8°C | 22.8% | 293.3hPa | 2.6V | 00:00:00 | 00:00:00 | 00:00:00 | |
| DM0DOS-11 | 2026-09-02 06:02:07 | 52.68370 | 8.52411 | 78° | 71km/h | 9507m | -5m/s | -46.1°C | 27.7% | 292.2hPa | 2.6V | 07:55:33 | 02:30:35 | 00:00:00 | |
| AA1-15 | 2026-09-02 06:02:06 | 52.68384 | 8.52533 | 80° | 78km/h | 9487m | -5m/s | -45.9°C | 29.1% | 293.1hPa | 2.5V | 07:55:41 | 02:30:39 | 00:00:00 | |
| DL1XH-west | 2026-09-02 06:02:05 | 52.68380 | 8.52501 | 80° | 77km/h | 9492m | -5.1m/s | -45.9°C | 29.2% | 292.9hPa | 2.5V | 07:55:41 | 02:30:38 | 00:00:00 | |
| DO2JMG | 2026-09-02 06:02:04 | 52.68377 | 8.52470 | 80° | 75km/h | 9497m | -5m/s | -45.9°C | 29.3% | 292.6hPa | 2.5V | 07:55:41 | 02:30:37 | 00:00:00 | |
| DF8AY | 2026-09-02 06:02:03 | 52.68374 | 8.52440 | 79° | 73km/h | 9502m | -5.1m/s | 0°C | 0% | 0hPa | 2.6V | 18:12:15 | 02:30:36 | 00:00:00 | |
| HSKMA3-T | 2026-09-02 06:02:02 | 52.68370 | 8.52411 | 78° | 71km/h | 9507m | -5m/s | -46.1°C | 29.5% | 292.2hPa | 2.6V | 07:55:41 | 02:30:35 | 00:00:00 | |
| SONCRA | 2026-09-02 06:02:02 | 52.68366 | 8.52383 | 76° | 68km/h | 9512m | -5.0m/s | -46.1°C | 23.3% | 291.9hPa | 2.6V | 00:00:00 | 00:00:00 | 00:00:00 | |
| DD1CC2-15 | 2026-09-02 06:02:00 | 52.68362 | 8.52356 | 76° | 66km/h | 9517m | -5.4m/s | -46.2°C | 23.5% | 291.7hPa | 2.6V | 07:55:00 | 00:00:00 | 00:00:00 | |
| DL1XH-15 | 2026-09-02 06:01:59 | 52.68326 | 8.52200 | 62° | 71km/h | 9548m | -5.3m/s | -46.4°C | 29.7% | 290.3hPa | 2.6V | 07:55:41 | 02:30:27 | 00:00:00 | |
| DL8OAI-8 | 2026-09-02 06:01:58 | 52.68357 | 8.52329 | 74° | 66km/h | 9522m | -5.4m/s | -46.2°C | 23.8% | 291.5hPa | 2.5V | 00:00:00 | 00:00:00 | 00:00:00 | |
| DM0DOS-11 | 2026-09-02 06:01:57 | 52.68308 | 8.52145 | 61° | 77km/h | 9558m | -5.3m/s | -46.5°C | 29.8% | 289.9hPa | 2.5V | 07:55:43 | 02:30:25 | 00:00:00 | |
| DF5WG-10 | 2026-09-02 06:01:56 | 52.68340 | 8.52251 | 67° | 78km/h | 9537m | -5.0m/s | -46.3°C | 29.3% | 290.8hPa | 2.6V | 00:00:00 | 02:30:29 | 00:00:00 | |
| DL1XH1-15 | 2026-09-02 06:01:55 | 52.68288 | 8.52086 | 62° | 84km/h | 9569m | -5.2m/s | -46.6°C | 30% | 289.4hPa | 2.6V | 07:55:45 | 02:30:23 | 00:00:00 | |
| BIOWL1-15 | 2026-09-02 06:01:55 | 52.68333 | 8.52226 | 65° | 69km/h | 9542m | -5.3m/s | -46.4°C | 30.8% | 290.6hPa | 2.6V | 07:55:41 | 02:30:28 | 00:00:00 | |
| DL1XH-west | 2026-09-02 06:01:54 | 52.68326 | 8.52200 | 63° | 71km/h | 9548m | -5.3m/s | -46.4°C | 31.1% | 290.4hPa | 2.6V | 07:55:41 | 02:30:27 | 00:00:00 | |
| HSKMA3-T | 2026-09-02 06:01:52 | 52.68308 | 8.52145 | 61° | 77km/h | 9558m | -5.3m/s | -46.5°C | 31.4% | 289.9hPa | 2.5V | 07:56:32 | 02:30:25 | 00:00:00 | |
| SMARD9-15 | 2026-09-02 06:01:50 | 52.68279 | 8.52055 | 63° | 86km/h | 9574m | -5.4m/s | -46.7°C | 25.3% | 289.2hPa | 2.6V | 00:00:00 | 00:00:00 | 00:00:00 | |
| DL1XH-15 | 2026-09-02 06:01:49 | 52.68238 | 8.51881 | 73° | 89km/h | 9599m | -5.1m/s | -46.9°C | 30.7% | 288.1hPa | 2.6V | 07:55:51 | 02:30:17 | 00:00:00 | |
| DM0DOS-11 | 2026-09-02 06:01:47 | 52.68226 | 8.51810 | 76° | 88km/h | 9609m | -5.3m/s | -47°C | 30.7% | 287.7hPa | 2.5V | 07:55:53 | 02:30:15 | 00:00:00 | |
| DF5WG-10 | 2026-09-02 06:01:46 | 52.68252 | 8.51953 | 70° | 89km/h | 9590m | -4.8m/s | -46.8°C | 30.7% | 288.5hPa | 2.6V | 00:00:00 | 02:30:19 | 00:00:00 | |
| DL1XH1-15 | 2026-09-02 06:01:45 | 52.68216 | 8.51738 | 77° | 88km/h | 9620m | -5.4m/s | -47.2°C | 30.9% | 287.2hPa | 2.6V | 07:55:55 | 02:30:13 | 00:00:00 | |
| DL1XH-west | 2026-09-02 06:01:44 | 52.68238 | 8.51881 | 74° | 89km/h | 9599m | -5.1m/s | -46.9°C | 32.3% | 288.1hPa | 2.6V | 07:56:32 | 02:30:17 | 00:00:00 | |
| DO2JMG | 2026-09-02 06:01:43 | 52.68232 | 8.51846 | 76° | 89km/h | 9604m | -5m/s | -47°C | 32.4% | 287.9hPa | 2.5V | 07:56:32 | 02:30:16 | 00:00:00 | |
| HSKMA3-T | 2026-09-02 06:01:42 | 52.68226 | 8.51810 | 77° | 88km/h | 9609m | -5.4m/s | -47°C | 32.4% | 287.7hPa | 2.5V | 07:56:32 | 02:30:15 | 00:00:00 | |
| DB0DAN | 2026-09-02 06:01:40 | 52.68216 | 8.51738 | 78° | 84km/h | 9620m | -5.4m/s | -47.2°C | 25.8% | 287.25hPa | 2.6V | 00:00:00 | 00:00:00 | 00:00:00 | |
| GOEST3-10 | 2026-09-02 06:01:40 | 52.68216 | 8.51738 | 78° | 86km/h | 9620m | -5.3m/s | -47.1°C | 30.9% | 287.2hPa | 2.5V | 00:00:00 | 02:30:13 | 00:00:00 | |
| DL1XH-15 | 2026-09-02 06:01:39 | 52.68192 | 8.51537 | 78° | 73km/h | 9652m | -5.1m/s | -47.4°C | 30.8% | 285.8hPa | 2.5V | 07:56:01 | 02:30:07 | 00:00:00 | |
| DD1CC2-15 | 2026-09-02 06:01:39 | 52.68212 | 8.51703 | 79° | 88km/h | 9626m | -5.3m/s | -47.2°C | 25.8% | 287.0hPa | 2.6V | 07:56:00 | 00:00:00 | 00:00:00 | |
| D01LWL | 2026-09-02 06:01:38 | 52.68207 | 8.51667 | 78° | 86km/h | 9631m | -5.5m/s | -47.2°C | 25.8% | 286.7hPa | 2.6V | 00:00:00 | 00:00:00 | 00:00:00 | |
| DM0DOS-11 | 2026-09-02 06:01:37 | 52.68184 | 8.51479 | 75° | 69km/h | 9662m | -4.8m/s | -47.5°C | 30.5% | 285.4hPa | 2.6V | 07:56:03 | 02:30:05 | 00:00:00 | |
| DL1XH1-15 | 2026-09-02 06:01:35 | 52.68174 | 8.51424 | 70° | 69km/h | 9671m | -5m/s | -47.6°C | 30% | 285hPa | 2.5V | 07:56:05 | 02:30:03 | 00:00:00 | |
| DL1XH-west | 2026-09-02 06:01:33 | 52.68188 | 8.51507 | 77° | 71km/h | 9657m | -4.8m/s | -47.5°C | 32% | 285.6hPa | 2.6V | 07:56:32 | 02:30:06 | 00:00:00 | |
| HSKMA3-T | 2026-09-02 06:01:31 | 52.68179 | 8.51451 | 73° | 68km/h | 9666m | -4.8m/s | -47.5°C | 31.5% | 285.1hPa | 2.6V | 07:56:32 | 02:30:04 | 00:00:00 | |
| SONCRA | 2026-09-02 06:01:31 | 52.68174 | 8.51424 | 70° | 68km/h | 9671m | -5.0m/s | -47.6°C | 24.9% | 285.0hPa | 2.5V | 00:00:00 | 00:00:00 | 00:00:00 | |
| GOEST3-10 | 2026-09-02 06:01:30 | 52.68174 | 8.51424 | 71° | 69km/h | 9671m | -5.0m/s | -47.6°C | 30.0% | 284.9hPa | 2.5V | 00:00:00 | 02:30:03 | 00:00:00 | |
| DL1XH-15 | 2026-09-02 06:01:29 | 52.68132 | 8.51264 | 64° | 73km/h | 9703m | -5.6m/s | -47.8°C | 28.7% | 283.6hPa | 2.5V | 07:56:11 | 02:29:57 | 00:00:00 | |
| DL3AQ-11 | 2026-09-02 06:01:28 | 52.68154 | 8.51344 | 66° | 69km/h | 9687m | -5.6m/s | -47.7°C | 23.9% | 284.2hPa | 2.6V | 00:00:00 | 00:00:00 | 00:00:00 | |
| DM0DOS-11 | 2026-09-02 06:01:27 | 52.68116 | 8.51208 | 63° | 77km/h | 9714m | -5.5m/s | -47.9°C | 28.8% | 283.1hPa | 2.6V | 07:56:13 | 02:29:55 | 00:00:00 | |
| DB0DAN | 2026-09-02 06:01:25 | 52.68140 | 8.51291 | 65° | 68km/h | 9698m | -5.4m/s | -47.8°C | 23.7% | 283.8hPa | 2.5V | 00:00:00 | 00:00:00 | 00:00:00 | |
| DL1XH1-15 | 2026-09-02 06:01:25 | 52.68098 | 8.51149 | 63° | 82km/h | 9725m | -5.3m/s | -48°C | 28.9% | 282.6hPa | 2.5V | 07:56:15 | 02:29:53 | 00:00:00 | |
| DL1XH-west | 2026-09-02 06:01:23 | 52.68124 | 8.51236 | 64° | 75km/h | 9708m | -5.6m/s | -47.9°C | 29.9% | 283.4hPa | 2.5V | 07:56:32 | 02:29:56 | 00:00:00 | |
| AA1-15 | 2026-09-02 06:01:22 | 52.68116 | 8.51208 | 63° | 77km/h | 9714m | -5.5m/s | -47.9°C | 29.9% | 283.1hPa | 2.6V | 07:56:32 | 02:29:55 | 00:00:00 | |
| HSKMA3-T | 2026-09-02 06:01:21 | 52.68107 | 8.51179 | 63° | 80km/h | 9719m | -5.4m/s | -48°C | 29.9% | 282.9hPa | 2.6V | 07:56:32 | 02:29:54 | 00:00:00 | |
| AU51GT2 | 2026-09-02 06:01:21 | 52.68098 | 8.51149 | 63° | 82km/h | 9725m | -5.3m/s | 0°C | -1.0% | -1.0hPa | 2.5V | 00:00:00 | 00:00:00 | 00:00:00 | |
| GOEST3-10 | 2026-09-02 06:01:20 | 52.68097 | 8.51149 | 64° | 86km/h | 9725m | -5.3m/s | -48.0°C | 28.9% | 282.6hPa | 2.5V | 00:00:00 | 02:29:53 | 00:00:00 | |
| DL1XH-15 | 2026-09-02 06:01:19 | 52.68045 | 8.50949 | 67° | 88km/h | 9755m | -5.1m/s | -48.1°C | 28.6% | 281.4hPa | 2.5V | 07:56:21 | 02:29:47 | 00:00:00 | |
| SMARD9-15 | 2026-09-02 06:01:19 | 52.68079 | 8.51086 | 66° | 86km/h | 9735m | -4.9m/s | -48.1°C | 23.7% | 282.3hPa | 2.6V | 00:00:00 | 00:00:00 | 00:00:00 | |
| DM0DOS-11 | 2026-09-02 06:01:17 | 52.68027 | 8.50882 | 66° | 88km/h | 9765m | -5.1m/s | -48.2°C | 28.6% | 280.9hPa | 2.6V | 07:56:23 | 02:29:45 | 00:00:00 | |
| DL1XH1-15 | 2026-09-02 06:01:15 | 52.68010 | 8.50815 | 67° | 88km/h | 9776m | -5.4m/s | -48.2°C | 28.5% | 280.4hPa | 2.5V | 07:56:25 | 02:29:43 | 00:00:00 | |
| DL1XH-west | 2026-09-02 06:01:12 | 52.68027 | 8.50882 | 67° | 88km/h | 9766m | -5.1m/s | -48.2°C | 29.6% | 281hPa | 2.6V | 07:56:32 | 02:29:45 | 00:00:00 | |
| AA1-15 | 2026-09-02 06:01:11 | 52.68019 | 8.50849 | 67° | 88km/h | 9771m | -5m/s | -48.2°C | 29.5% | 280.7hPa | 2.5V | 07:56:32 | 02:29:44 | 00:00:00 | |
| DB0DAN | 2026-09-02 06:01:10 | 52.68010 | 8.50815 | 67° | 84km/h | 9776m | -5.4m/s | -48.2°C | 23.4% | 280.45hPa | 2.5V | 00:00:00 | 00:00:00 | 00:00:00 | |
| HSKMA3-T | 2026-09-02 06:01:10 | 52.68010 | 8.50815 | 67° | 88km/h | 9776m | -5.4m/s | -48.2°C | 29.5% | 280.4hPa | 2.5V | 07:56:32 | 02:29:43 | 00:00:00 | |
| GOEST3-10 | 2026-09-02 06:01:10 | 52.68010 | 8.50815 | 68° | 88km/h | 9776m | -5.3m/s | -48.2°C | 28.5% | 280.4hPa | 2.5V | 00:00:00 | 02:29:43 | 00:00:00 | |
| DF5WG-10 | 2026-09-02 06:01:08 | 52.67992 | 8.50749 | 67° | 89km/h | 9787m | -5.2m/s | -48.2°C | 28.4% | 280.0hPa | 2.5V | 00:00:00 | 02:29:41 | 00:00:00 | |
| DM0DOS-11 | 2026-09-02 06:01:07 | 52.67941 | 8.50548 | 66° | 86km/h | 9817m | -5.2m/s | -48.5°C | 28.3% | 278.7hPa | 2.5V | 07:56:33 | 02:29:35 | 00:00:00 | |
| DL1XH1-15 | 2026-09-02 06:01:05 | 52.67923 | 8.50482 | 65° | 84km/h | 9827m | -4.8m/s | -48.5°C | 28.1% | 278.4hPa | 2.6V | 07:56:35 | 02:29:33 | 00:00:00 | |
| DL1XH-west | 2026-09-02 06:01:02 | 52.67941 | 8.50548 | 67° | 86km/h | 9817m | -5.3m/s | -48.5°C | 29.2% | 278.8hPa | 2.5V | 07:57:23 | 02:29:35 | 00:00:00 | |
| DO2JMG | 2026-09-02 06:01:01 | 52.67932 | 8.50515 | 66° | 86km/h | 9822m | -5.4m/s | -48.5°C | 29.2% | 278.6hPa | 2.6V | 07:57:23 | 02:29:34 | 00:00:00 | |
| AA1-15 | 2026-09-02 06:01:00 | 52.67923 | 8.50482 | 66° | 84km/h | 9827m | -4.8m/s | -48.5°C | 29.1% | 278.4hPa | 2.6V | 07:57:23 | 02:29:33 | 00:00:00 | |
| HSKMA3-T | 2026-09-02 06:00:59 | 52.67914 | 8.50451 | 65° | 84km/h | 9832m | -5.4m/s | -48.5°C | 29.1% | 278.1hPa | 2.6V | 07:57:23 | 02:29:32 | 00:00:00 | |
| BIOWL9-15 | 2026-09-02 06:00:58 | 52.67905 | 8.50419 | 64° | 82km/h | 9838m | -5.1m/s | -48.5°C | 22.8% | 277.9hPa | 2.6V | 00:00:00 | 00:00:00 | 00:00:00 | |
| DM0DOS-11 | 2026-09-02 06:00:57 | 52.67852 | 8.50224 | 67° | 88km/h | 9869m | -5.2m/s | -48.7°C | 27.7% | 276.6hPa | 2.6V | 07:56:43 | 02:29:25 | 00:00:00 | |
| DL8OAI-8 | 2026-09-02 06:00:56 | 52.67896 | 8.50387 | 65° | 84km/h | 9843m | -5.2m/s | -48.5°C | 22.7% | 277.7hPa | 2.5V | 00:00:00 | 00:00:00 | 00:00:00 | |
| DB0DAN | 2026-09-02 06:00:55 | 52.67878 | 8.50324 | 66° | 80km/h | 9853m | -5.3m/s | -48.6°C | 22.6% | 277.19hPa | 2.5V | 00:00:00 | 00:00:00 | 00:00:00 | |
| DL1XH1-15 | 2026-09-02 06:00:55 | 52.67836 | 8.50154 | 70° | 89km/h | 9880m | -5m/s | -48.7°C | 27.8% | 276.1hPa | 2.5V | 07:56:45 | 02:29:23 | 00:00:00 | |
| DL1XH-west | 2026-09-02 06:00:52 | 52.67852 | 8.50224 | 67° | 88km/h | 9869m | -5.2m/s | -48.7°C | 29.1% | 276.6hPa | 2.6V | 07:57:23 | 02:29:25 | 00:00:00 | |
| DO2JMG | 2026-09-02 06:00:51 | 52.67843 | 8.50189 | 69° | 89km/h | 9875m | -5.3m/s | -48.7°C | 29.1% | 276.4hPa | 2.5V | 07:57:23 | 02:29:24 | 00:00:00 | |
| BIOWL1-15 | 2026-09-02 06:00:50 | 52.67836 | 8.50154 | 71° | 89km/h | 9880m | -5m/s | -48.7°C | 29.1% | 276.1hPa | 2.5V | 07:57:23 | 02:29:23 | 00:00:00 | |
| AA1-15 | 2026-09-02 06:00:49 | 52.67828 | 8.50119 | 71° | 91km/h | 9885m | -5.4m/s | -48.8°C | 29.2% | 275.9hPa | 2.5V | 07:57:23 | 02:29:22 | 00:00:00 | |
| HSKMA3-T | 2026-09-02 06:00:48 | 52.67821 | 8.50082 | 73° | 91km/h | 9890m | -5.4m/s | -48.8°C | 29.2% | 275.7hPa | 2.6V | 07:57:23 | 02:29:21 | 00:00:00 | |
| DL3AQ-11 | 2026-09-02 06:00:48 | 52.67814 | 8.50046 | 73° | 91km/h | 9896m | -5.1m/s | -48.9°C | 22.9% | 275.4hPa | 2.6V | 00:00:00 | 00:00:00 | 00:00:00 | |
| DM0DOS-11 | 2026-09-02 06:00:47 | 52.67786 | 8.49860 | 76° | 93km/h | 9922m | -5.2m/s | -49°C | 28.1% | 274.3hPa | 2.6V | 07:56:53 | 02:29:15 | 00:00:00 | |
| DL4XJ-10 | 2026-09-02 06:00:45 | 52.67803 | 8.49972 | 77° | 93km/h | 9906m | -5.1m/s | -47.7°C | 0% | 0hPa | 2.5V | 00:00:00 | 00:00:00 | 00:00:00 | |
| DL1XH1-15 | 2026-09-02 06:00:44 | 52.67775 | 8.49784 | 77° | 93km/h | 9933m | -5.2m/s | -49.1°C | 28.2% | 273.9hPa | 2.5V | 07:56:55 | 02:29:13 | 00:00:00 | |
| DF8AY | 2026-09-02 06:00:43 | 52.67792 | 8.49897 | 77° | 91km/h | 9917m | -5.2m/s | -49°C | 29.4% | 274.6hPa | 2.6V | 07:57:23 | 02:29:16 | 00:00:00 | |
| DO2JMG | 2026-09-02 06:00:41 | 52.67781 | 8.49822 | 76° | 93km/h | 9927m | -5.6m/s | -49.1°C | 29.5% | 274.2hPa | 2.5V | 07:57:23 | 02:29:14 | 00:00:00 | |
| DB0DAN | 2026-09-02 06:00:40 | 52.67775 | 8.49784 | 77° | 89km/h | 9933m | -5.2m/s | -49.1°C | 23.1% | 273.93hPa | 2.5V | 00:00:00 | 00:00:00 | 00:00:00 | |
| BIOWL1-15 | 2026-09-02 06:00:40 | 52.67775 | 8.49784 | 77° | 93km/h | 9933m | -5.2m/s | -49.1°C | 29.5% | 273.9hPa | 2.5V | 07:57:23 | 02:29:13 | 00:00:00 | |
| GOEST3-10 | 2026-09-02 06:00:40 | 52.67775 | 8.49784 | 78° | 93km/h | 9933m | -5.1m/s | -49.0°C | 28.2% | 273.9hPa | 2.5V | 00:00:00 | 02:29:13 | 00:00:00 | |
| DL1XH-15 | 2026-09-02 06:00:39 | 52.67747 | 8.49556 | 79° | 93km/h | 9964m | -5.3m/s | -49.2°C | 28.6% | 272.7hPa | 2.5V | 07:57:01 | 02:29:07 | 00:00:00 | |
| AA1-15 | 2026-09-02 06:00:39 | 52.67770 | 8.49746 | 78° | 95km/h | 9938m | -5.1m/s | -49.1°C | 29.6% | 273.8hPa | 2.5V | 07:57:23 | 02:29:12 | 00:00:00 | |
| HSKMA3-T | 2026-09-02 06:00:38 | 52.67765 | 8.49708 | 79° | 93km/h | 9943m | -5.1m/s | -49.2°C | 29.7% | 273.4hPa | 2.6V | 07:57:23 | 02:29:11 | 00:00:00 | |
| DF5WG-10 | 2026-09-02 06:00:38 | 52.67765 | 8.49708 | 79° | 93km/h | 9943m | -5.1m/s | -49.1°C | 28.6% | 273.4hPa | 2.6V | 00:00:00 | 02:29:11 | 00:00:00 | |
| DM0DOS-11 | 2026-09-02 06:00:37 | 52.67738 | 8.49479 | 80° | 93km/h | 9975m | -5.4m/s | -49.3°C | 28.7% | 272.2hPa | 2.5V | 07:57:03 | 02:29:05 | 00:00:00 | |
| D01LWL | 2026-09-02 06:00:36 | 52.67756 | 8.49632 | 78° | 93km/h | 9954m | -5.6m/s | -49.2°C | 23.3% | 273.0hPa | 2.6V | 00:00:00 | 00:00:00 | 00:00:00 | |
| DL1XH1-15 | 2026-09-02 06:00:35 | 52.67730 | 8.49403 | 80° | 93km/h | 9986m | -5.6m/s | -49.4°C | 28.9% | 271.8hPa | 2.6V | 07:57:05 | 02:29:03 | 00:00:00 | |
| DL1XH-west | 2026-09-02 06:00:31 | 52.67734 | 8.49441 | 80° | 93km/h | 9980m | -5.3m/s | -49.3°C | 30% | 271.9hPa | 2.6V | 07:57:23 | 02:29:04 | 00:00:00 | |
| DO2JMG | 2026-09-02 06:00:30 | 52.67730 | 8.49403 | 81° | 93km/h | 9986m | -5.6m/s | -49.4°C | 30.2% | 271.8hPa | 2.6V | 07:57:23 | 02:29:03 | 00:00:00 | |
| BIOWL1-15 | 2026-09-02 06:00:29 | 52.67726 | 8.49365 | 81° | 91km/h | 9991m | -5m/s | -49.4°C | 30.2% | 271.5hPa | 2.6V | 07:57:23 | 02:29:02 | 00:00:00 | |
| HSKMA3-T | 2026-09-02 06:00:28 | 52.67723 | 8.49327 | 82° | 93km/h | 9996m | -5.6m/s | -49.5°C | 30.4% | 271.3hPa | 2.5V | 07:57:23 | 02:29:01 | 00:00:00 | |
| DF5WG-10 | 2026-09-02 06:00:28 | 52.67723 | 8.49327 | 82° | 88km/h | 9996m | -5.6m/s | -49.5°C | 29.2% | 271.3hPa | 2.6V | 00:00:00 | 02:29:01 | 00:00:00 | |
| BIOWL9-15 | 2026-09-02 06:00:27 | 52.67720 | 8.49289 | 81° | 91km/h | 10002m | -5.4m/s | -49.5°C | 23.9% | 271.0hPa | 2.6V | 00:00:00 | 00:00:00 | 00:00:00 | |
| DL1XH1-15 | 2026-09-02 06:00:25 | 52.67703 | 8.49042 | 83° | 78km/h | 10039m | -5.3m/s | -49.8°C | 30% | 269.6hPa | 2.6V | 07:57:15 | 02:28:53 | 00:00:00 | |
| BIOWL1-15 | 2026-09-02 06:00:21 | 52.67701 | 8.49009 | 84° | 78km/h | 10044m | -5.1m/s | -49.9°C | 31% | 269.3hPa | 2.6V | 07:57:23 | 02:28:52 | 00:00:00 | |
| DL1XH-west | 2026-09-02 06:00:21 | 52.67705 | 8.49075 | 84° | 80km/h | 10034m | -5.1m/s | -49.8°C | 30.8% | 269.8hPa | 2.5V | 07:57:23 | 02:28:54 | 00:00:00 | |
| DO2JMG | 2026-09-02 06:00:20 | 52.67703 | 8.49042 | 84° | 78km/h | 10039m | -5.3m/s | -49.8°C | 30.9% | 269.6hPa | 2.6V | 07:57:23 | 02:28:53 | 00:00:00 | |
| BUE01 | 2026-09-02 06:00:20 | 52.67696 | 8.48945 | 84° | 77km/h | 10054m | -5.5m/s | -50.0°C | 24.7% | 268.9hPa | 2.6V | 00:00:00 | 00:00:00 | 00:00:00 | |
| DL1XH-15 | 2026-09-02 06:00:19 | 52.67691 | 8.48848 | 85° | 80km/h | 10071m | -5.4m/s | -50.1°C | 30.4% | 268.2hPa | 2.6V | 07:57:21 | 02:28:47 | 00:00:00 | |
| AA1-15 | 2026-09-02 06:00:17 | 52.67696 | 8.48945 | 84° | 77km/h | 10054m | -5.5m/s | -50°C | 31.1% | 268.9hPa | 2.5V | 07:57:23 | 02:28:50 | 00:00:00 | |
| SMARD9-15 | 2026-09-02 06:00:16 | 52.67694 | 8.48913 | 84° | 77km/h | 10060m | -5.5m/s | -50.0°C | 24.7% | 268.7hPa | 2.5V | 00:00:00 | 00:00:00 | 00:00:00 | |
| DL1XH1-15 | 2026-09-02 06:00:15 | 52.67684 | 8.48718 | 83° | 77km/h | 10093m | -5.3m/s | -50.3°C | 30.8% | 267.4hPa | 2.5V | 07:57:25 | 02:28:43 | 00:00:00 | |
| DF8AY | 2026-09-02 06:00:11 | 52.67686 | 8.48750 | 85° | 77km/h | 10087m | -5.1m/s | -50.3°C | 31.5% | 267.6hPa | 2.5V | 07:58:14 | 02:28:44 | 00:00:00 | |
| DO2JMG | 2026-09-02 06:00:10 | 52.67684 | 8.48718 | 84° | 77km/h | 10093m | -5.3m/s | -50.3°C | 31.5% | 267.4hPa | 2.5V | 07:58:14 | 02:28:43 | 00:00:00 | |
| DB0DAN | 2026-09-02 06:00:10 | 52.67684 | 8.48718 | 84° | 73km/h | 10093m | -5.3m/s | -50.3°C | 25.1% | 267.4hPa | 2.5V | 00:00:00 | 00:00:00 | 00:00:00 | |
| DL1XH-15 | 2026-09-02 06:00:10 | 52.67663 | 8.48536 | 75° | 75km/h | 10124m | -5.4m/s | -50.5°C | 30.2% | 266.1hPa | 2.5V | 07:57:31 | 02:28:37 | 00:00:00 | |
| BIOWL1-15 | 2026-09-02 06:00:09 | 52.67679 | 8.48655 | 80° | 73km/h | 10103m | -4.9m/s | -50.4°C | 31.5% | 267hPa | 2.6V | 07:58:14 | 02:28:41 | 00:00:00 | |
| HSKMA3-T | 2026-09-02 06:00:06 | 52.67671 | 8.48596 | 78° | 73km/h | 10113m | -5.1m/s | -50.5°C | 31.4% | 266.5hPa | 2.6V | 07:58:14 | 02:28:39 | 00:00:00 | |
| DF8AY | 2026-09-02 06:00:01 | 52.67647 | 8.48446 | 73° | 75km/h | 10140m | -5.6m/s | -50.5°C | 31.3% | 265.4hPa | 2.6V | 07:58:14 | 02:28:34 | 00:00:00 | |
| DO2JMG | 2026-09-02 06:00:00 | 52.67641 | 8.48416 | 72° | 77km/h | 10146m | -5.6m/s | -50.6°C | 31.3% | 265.2hPa | 2.5V | 07:58:14 | 02:28:33 | 00:00:00 | |
| BIOWL1-15 | 2026-09-02 05:59:57 | 52.67622 | 8.48324 | 71° | 80km/h | 10163m | -5.6m/s | -50.7°C | 31.3% | 264.5hPa | 2.6V | 07:58:14 | 02:28:30 | 00:00:00 | |
| HSKMA3-T | 2026-09-02 05:59:56 | 52.67616 | 8.48291 | 72° | 84km/h | 10168m | -5.5m/s | -50.8°C | 31.4% | 264.2hPa | 2.6V | 07:58:14 | 02:28:29 | 00:00:00 | |
| DB0DAN | 2026-09-02 05:59:55 | 52.67609 | 8.48258 | 72° | 82km/h | 10174m | -5.7m/s | -50.8°C | 25.1% | 264.05hPa | 2.5V | 00:00:00 | 00:00:00 | 00:00:00 | |
| DL1XH1-15 | 2026-09-02 05:59:55 | 52.67584 | 8.48077 | 82° | 91km/h | 10200m | -5.1m/s | -50.9°C | 30.5% | 263.1hPa | 2.6V | 07:57:45 | 02:28:23 | 00:00:00 | |
| AA1-15 | 2026-09-02 05:59:55 | 52.67609 | 8.48258 | 72° | 86km/h | 10174m | -5.7m/s | -50.8°C | 31.4% | 264.1hPa | 2.5V | 07:58:14 | 02:28:28 | 00:00:00 | |
| GOEST3-10 | 2026-09-02 05:59:55 | 52.67609 | 8.48258 | 72° | 89km/h | 10174m | -5.7m/s | -50.8°C | 30.8% | 264.0hPa | 2.5V | 00:00:00 | 00:00:00 | 00:00:00 | |
| DO2SHX-10 | 2026-09-02 05:59:54 | 52.67603 | 8.48224 | 74° | 89km/h | 10179m | -5.3m/s | -50.8°C | 30.9% | 263.8hPa | 2.5V | 00:00:00 | 02:28:27 | 00:00:00 | |
| DD8BA-10 | 2026-09-02 05:59:53 | 52.67597 | 8.48188 | 77° | 89km/h | 10185m | -5.0m/s | -50.7°C | 30.6% | 263.6hPa | 2.5V | 00:00:00 | 00:00:00 | 00:00:00 | |
| DJ2DS-15 | 2026-09-02 05:59:52 | 52.67592 | 8.48151 | 79° | 89km/h | 10190m | -5.2m/s | -50.8°C | 30.7% | 263.3hPa | 2.5V | 00:00:00 | 02:28:25 | 00:00:00 | |
| DO3DL | 2026-09-02 05:59:51 | 52.67591 | 8.48152 | 79° | 91km/h | 10190m | -5.2m/s | -50.8°C | 24.9% | 263.4hPa | 2.5V | 07:58:00 | 00:00:00 | 00:00:00 | |
| GOEST3-10 | 2026-09-02 05:59:50 | 52.67584 | 8.48077 | 83° | 89km/h | 10200m | -5.1m/s | -50.8°C | 30.5% | 263.0hPa | 2.5V | 00:00:00 | 02:28:23 | 00:00:00 | |
| DB0UT-7 | 2026-09-02 05:59:49 | 52.67581 | 8.48040 | 85° | 84km/h | 10206m | -5.0m/s | -50.8°C | 30.5% | 262.7hPa | 2.5V | 00:00:00 | 00:00:00 | 00:00:00 | |
| DL1XH-west | 2026-09-02 05:59:49 | 52.67581 | 8.48040 | 84° | 89km/h | 10206m | -5m/s | -50.9°C | 31.4% | 262.7hPa | 2.5V | 07:58:14 | 02:28:22 | 00:00:00 | |
| DF5WG-10 | 2026-09-02 05:59:48 | 52.67579 | 8.48002 | 85° | 91km/h | 10211m | -5.5m/s | -50.9°C | 30.5% | 262.5hPa | 2.5V | 07:57:00 | 02:28:21 | 00:00:00 | |
| DM0DOS-11 | 2026-09-02 05:59:47 | 52.67564 | 8.47777 | 82° | 91km/h | 10243m | -5.3m/s | -51°C | 30.6% | 261.3hPa | 2.5V | 07:57:53 | 02:28:15 | 00:00:00 | |
| BIOWL1-15 | 2026-09-02 05:59:46 | 52.67575 | 8.47928 | 85° | 89km/h | 10222m | -5.5m/s | -51°C | 31.4% | 262.1hPa | 2.5V | 07:58:14 | 02:28:19 | 00:00:00 | |
| DL1XH1-15 | 2026-09-02 05:59:45 | 52.67559 | 8.47702 | 83° | 91km/h | 10254m | -5.2m/s | -51°C | 30.6% | 260.9hPa | 2.5V | 07:57:55 | 02:28:13 | 00:00:00 | |
| AA1-15 | 2026-09-02 05:59:44 | 52.67570 | 8.47853 | 83° | 91km/h | 10232m | -5.2m/s | -51°C | 31.5% | 261.7hPa | 2.6V | 07:58:14 | 02:28:17 | 00:00:00 | |
| DL3AQ-11 | 2026-09-02 05:59:44 | 52.67570 | 8.47853 | 83° | 89km/h | 10232m | -5.2m/s | -51.0°C | 24.9% | 261.7hPa | 2.5V | 00:00:00 | 00:00:00 | 00:00:00 | |
| DD8BA-10 | 2026-09-02 05:59:43 | 52.67567 | 8.47815 | 83° | 89km/h | 10238m | -5.3m/s | -51.0°C | 30.8% | 261.5hPa | 2.5V | 00:00:00 | 00:00:00 | 00:00:00 | |
| DC6BW-12 | 2026-09-02 05:59:42 | 52.67567 | 8.47815 | 84° | 91km/h | 10238m | -5.4m/s | -51.0°C | 25.0% | 261.5hPa | 2.5V | 07:58:00 | 00:00:00 | 00:00:00 | |
| DB0DAN | 2026-09-02 05:59:40 | 52.67559 | 8.47702 | 83° | 86km/h | 10254m | -5.2m/s | -51°C | 24.8% | 260.89hPa | 2.5V | 00:00:00 | 00:00:00 | 00:00:00 | |
| GOEST3-10 | 2026-09-02 05:59:40 | 52.67559 | 8.47702 | 84° | 89km/h | 10254m | -5.1m/s | -51.0°C | 30.6% | 260.8hPa | 2.5V | 00:00:00 | 02:28:13 | 00:00:00 | |
| DL1XH-15 | 2026-09-02 05:59:39 | 52.67552 | 8.47485 | 90° | 84km/h | 10285m | -5.5m/s | -51.2°C | 30.9% | 259.6hPa | 2.5V | 07:58:01 | 02:28:07 | 00:00:00 | |
| DL1XH-west | 2026-09-02 05:59:39 | 52.67556 | 8.47665 | 85° | 89km/h | 10259m | -5.2m/s | -51.1°C | 31.6% | 260.6hPa | 2.5V | 07:58:14 | 02:28:12 | 00:00:00 | |
| DO2JMG | 2026-09-02 05:59:38 | 52.67554 | 8.47628 | 85° | 89km/h | 10264m | -5.4m/s | -51.1°C | 31.6% | 260.4hPa | 2.6V | 07:58:14 | 02:28:11 | 00:00:00 | |
| DB0NH | 2026-09-02 05:59:38 | 52.67554 | 8.47628 | 86° | 78km/h | 10264m | -5.4m/s | -51.0°C | 30.6% | 260.4hPa | 2.6V | 07:57:00 | 02:28:11 | 00:00:00 | |
| DM0DOS-11 | 2026-09-02 05:59:37 | 52.67552 | 8.47416 | 91° | 82km/h | 10296m | -5.5m/s | -51.3°C | 31% | 259.1hPa | 2.6V | 07:58:03 | 02:28:05 | 00:00:00 | |
| BIOWL1-15 | 2026-09-02 05:59:36 | 52.67552 | 8.47555 | 89° | 86km/h | 10275m | -5m/s | -51.1°C | 31.7% | 260hPa | 2.6V | 07:58:14 | 02:28:09 | 00:00:00 | |
| AA1-15 | 2026-09-02 05:59:33 | 52.67552 | 8.47450 | 91° | 82km/h | 10290m | -5.1m/s | -51.3°C | 31.9% | 259.4hPa | 2.5V | 07:58:14 | 02:28:06 | 00:00:00 | |
| DD8BA-10 | 2026-09-02 05:59:33 | 52.67552 | 8.47450 | 91° | 78km/h | 10291m | -5.1m/s | -51.2°C | 30.9% | 259.4hPa | 2.5V | 00:00:00 | 00:00:00 | 00:00:00 | |
| DJ2DS-15 | 2026-09-02 05:59:32 | 52.67552 | 8.47416 | 92° | 77km/h | 10296m | -5.4m/s | -51.3°C | 31.0% | 259.1hPa | 2.5V | 00:00:00 | 02:28:05 | 00:00:00 | |
| DL8OAI-8 | 2026-09-02 05:59:31 | 52.67552 | 8.47416 | 92° | 82km/h | 10296m | -5.5m/s | -51.3°C | 25.1% | 259.1hPa | 2.5V | 07:58:00 | 00:00:00 | 00:00:00 | |
| GOEST3-10 | 2026-09-02 05:59:30 | 52.67553 | 8.47348 | 92° | 78km/h | 10307m | -5.1m/s | -51.4°C | 31.1% | 258.6hPa | 2.5V | 00:00:00 | 02:28:03 | 00:00:00 | |
| DL1XH-15 | 2026-09-02 05:59:29 | 52.67559 | 8.47158 | 93° | 73km/h | 10339m | -5.7m/s | -51.7°C | 31.7% | 257.4hPa | 2.5V | 07:58:11 | 02:27:57 | 00:00:00 | |
| DF8AY | 2026-09-02 05:59:28 | 52.67555 | 8.47282 | 92° | 78km/h | 10317m | -5.5m/s | -51.5°C | 32.3% | 258.3hPa | 2.5V | 07:58:14 | 02:28:01 | 00:00:00 | |
| DF5WG-10 | 2026-09-02 05:59:28 | 52.67555 | 8.47282 | 93° | 75km/h | 10317m | -5.4m/s | -51.5°C | 31.3% | 258.2hPa | 2.5V | 00:00:00 | 02:28:01 | 00:00:00 | |
| DB0DAN | 2026-09-02 05:59:25 | 52.67558 | 8.47188 | 93° | 69km/h | 10333m | -5.6m/s | -51.6°C | 25.6% | 257.62hPa | 2.5V | 00:00:00 | 00:00:00 | 00:00:00 | |
| BIOWL1-15 | 2026-09-02 05:59:25 | 52.67560 | 8.47128 | 94° | 73km/h | 10345m | -5.5m/s | -51.7°C | 32.5% | 257.2hPa | 2.6V | 07:58:14 | 02:27:56 | 00:00:00 | |
| HSKMA3-T | 2026-09-02 05:59:25 | 52.67558 | 8.47188 | 93° | 73km/h | 10333m | -5.6m/s | -51.6°C | 32.4% | 257.6hPa | 2.5V | 07:58:14 | 02:27:58 | 00:00:00 | |
| AA1-15 | 2026-09-02 05:59:22 | 52.67561 | 8.47098 | 94° | 73km/h | 10350m | -5.3m/s | -51.8°C | 32.5% | 257hPa | 2.6V | 07:58:14 | 02:27:55 | 00:00:00 | |
| SONDE2-11 | 2026-09-02 05:59:22 | 52.67562 | 8.47068 | 93° | 73km/h | 10356m | -5.6m/s | -51.8°C | 25.8% | 256.8hPa | 2.5V | 00:00:00 | 00:00:00 | 00:00:00 | |
| DD1CC8 | 2026-09-02 05:59:21 | 52.67562 | 8.47068 | 93° | 73km/h | 10356m | -5.6m/s | -51.8°C | 25.8% | 256.8hPa | 2.5V | 00:00:00 | 00:00:00 | 00:00:00 | |
| GOEST3-10 | 2026-09-02 05:59:20 | 52.67563 | 8.47037 | 94° | 77km/h | 10361m | -5.0m/s | -51.8°C | 32.0% | 256.4hPa | 2.5V | 00:00:00 | 02:27:53 | 00:00:00 | |
| DL1XH-15 | 2026-09-02 05:59:19 | 52.67572 | 8.46846 | 94° | 77km/h | 10392m | -5.3m/s | -52°C | 32.1% | 255.2hPa | 2.5V | 07:58:21 | 02:27:47 | 00:00:00 | |
| DF8AY | 2026-09-02 05:59:17 | 52.67574 | 8.46814 | 95° | 75km/h | 10398m | -5.2m/s | -52°C | 33.1% | 255.1hPa | 2.6V | 07:59:05 | 02:27:46 | 00:00:00 | |
| DL1XH-west | 2026-09-02 05:59:17 | 52.67568 | 8.46942 | 94° | 78km/h | 10377m | -5.4m/s | -51.9°C | 32.8% | 255.9hPa | 2.6V | 07:59:05 | 02:27:50 | 00:00:00 | |
| BIOWL1-15 | 2026-09-02 05:59:15 | 52.67571 | 8.46878 | 95° | 78km/h | 10387m | -5.2m/s | -51.9°C | 32.9% | 255.5hPa | 2.5V | 07:59:05 | 02:27:48 | 00:00:00 | |
| HSKMA3-T | 2026-09-02 05:59:14 | 52.67572 | 8.46846 | 94° | 77km/h | 10392m | -5.4m/s | -52°C | 32.9% | 255.2hPa | 2.5V | 07:59:05 | 02:27:47 | 00:00:00 | |
| AA1-15 | 2026-09-02 05:59:11 | 52.67577 | 8.46753 | 96° | 73km/h | 10409m | -5.3m/s | -52.1°C | 33.3% | 254.7hPa | 2.6V | 07:59:05 | 02:27:44 | 00:00:00 | |
| DB0DAN | 2026-09-02 05:59:10 | 52.67579 | 8.46723 | 95° | 68km/h | 10414m | -5.5m/s | -52.1°C | 26.3% | 254.44hPa | 2.5V | 00:00:00 | 00:00:00 | 00:00:00 | |
| GOEST3-10 | 2026-09-02 05:59:10 | 52.67579 | 8.46723 | 95° | 71km/h | 10414m | -5.5m/s | -52.1°C | 32.5% | 254.4hPa | 2.6V | 00:00:00 | 02:27:43 | 00:00:00 | |
| DL1XH-15 | 2026-09-02 05:59:09 | 52.67589 | 8.46542 | 94° | 77km/h | 10446m | -5.7m/s | -52.4°C | 33.1% | 253.2hPa | 2.6V | 07:58:31 | 02:27:37 | 00:00:00 | |
| DL1XH-west | 2026-09-02 05:59:07 | 52.67584 | 8.46634 | 95° | 71km/h | 10430m | -5.2m/s | -52.3°C | 33.5% | 253.8hPa | 2.5V | 07:59:05 | 02:27:40 | 00:00:00 | |
| DM0DOS-11 | 2026-09-02 05:59:06 | 52.67592 | 8.46478 | 94° | 77km/h | 10457m | -5.3m/s | -52.5°C | 33.2% | 252.8hPa | 2.5V | 07:58:33 | 02:27:35 | 00:00:00 | |
| DF8AY | 2026-09-02 05:59:06 | 52.67585 | 8.46604 | 95° | 73km/h | 10435m | -5.1m/s | -52.3°C | 33.5% | 253.6hPa | 2.6V | 07:59:05 | 02:27:39 | 00:00:00 | |
| BIOWL1-15 | 2026-09-02 05:59:04 | 52.67589 | 8.46542 | 95° | 77km/h | 10446m | -5.7m/s | -52.4°C | 33.6% | 253.2hPa | 2.6V | 07:59:05 | 02:27:37 | 00:00:00 | |
| AA1-15 | 2026-09-02 05:59:01 | 52.67596 | 8.46415 | 95° | 77km/h | 10468m | -5.6m/s | -52.6°C | 33.7% | 252.4hPa | 2.5V | 07:59:05 | 02:27:33 | 00:00:00 | |
| DL1XH-west | 2026-09-02 05:58:56 | 52.67601 | 8.46282 | 93° | 80km/h | 10490m | -5.5m/s | -52.7°C | 33.5% | 251.5hPa | 2.5V | 07:59:05 | 02:27:29 | 00:00:00 | |
| DM0DOS-11 | 2026-09-02 05:58:55 | 52.67607 | 8.46151 | 96° | 77km/h | 10511m | -5.3m/s | -52.9°C | 33% | 250.7hPa | 2.6V | 07:58:43 | 02:27:25 | 00:00:00 | |
| DF8AY | 2026-09-02 05:58:55 | 52.67602 | 8.46249 | 94° | 80km/h | 10495m | -5.2m/s | -52.8°C | 33.5% | 251.3hPa | 2.5V | 07:59:05 | 02:27:28 | 00:00:00 | |
| DB0DAN | 2026-09-02 05:58:55 | 52.67602 | 8.46249 | 94° | 77km/h | 10495m | -5.2m/s | -52.8°C | 26.5% | 251.32hPa | 2.5V | 00:00:00 | 00:00:00 | 00:00:00 | |
| BIOWL1-15 | 2026-09-02 05:58:54 | 52.67603 | 8.46216 | 95° | 78km/h | 10501m | -5.5m/s | -52.8°C | 33.4% | 251.1hPa | 2.5V | 07:59:05 | 02:27:27 | 00:00:00 | |
| AA1-15 | 2026-09-02 05:58:49 | 52.67614 | 8.46057 | 97° | 77km/h | 10528m | -5.4m/s | -53°C | 33.2% | 250.1hPa | 2.5V | 07:59:05 | 02:27:22 | 00:00:00 | |
| DL1XH-15 | 2026-09-02 05:58:49 | 52.67623 | 8.45897 | 90° | 78km/h | 10554m | -5.2m/s | -53.1°C | 32.8% | 249hPa | 2.5V | 07:58:51 | 02:27:17 | 00:00:00 | |
| BIOWL1-15 | 2026-09-02 05:58:46 | 52.67623 | 8.45896 | 91° | 78km/h | 10554m | -5.2m/s | -53.1°C | 32.8% | 249hPa | 2.5V | 07:59:05 | 02:27:17 | 00:00:00 | |
| DM0DOS-11 | 2026-09-02 05:58:45 | 52.67622 | 8.45831 | 87° | 78km/h | 10565m | -5.3m/s | -53.1°C | 32.2% | 248.6hPa | 2.5V | 07:58:53 | 02:27:15 | 00:00:00 | |
| DL1XH-west | 2026-09-02 05:58:45 | 52.67622 | 8.45929 | 93° | 78km/h | 10549m | -5.4m/s | -53.1°C | 32.8% | 249.2hPa | 2.5V | 07:59:05 | 02:27:18 | 00:00:00 | |
| HSKMA3-T | 2026-09-02 05:58:43 | 52.67623 | 8.45864 | 89° | 78km/h | 10559m | -5.4m/s | -53.1°C | 32.6% | 248.8hPa | 2.5V | 07:59:05 | 02:27:16 | 00:00:00 | |
| GOEST3-10 | 2026-09-02 05:58:40 | 52.67619 | 8.45767 | 85° | 77km/h | 10576m | -5.4m/s | -53.0°C | 31.9% | 248.1hPa | 2.6V | 00:00:00 | 02:27:13 | 00:00:00 | |
| DL1XH-15 | 2026-09-02 05:58:39 | 52.67612 | 8.45573 | 90° | 78km/h | 10609m | -5.5m/s | -53.3°C | 32.4% | 246.9hPa | 2.6V | 07:59:01 | 02:27:07 | 00:00:00 | |
| AA1-15 | 2026-09-02 05:58:38 | 52.67615 | 8.45703 | 85° | 77km/h | 10587m | -5.6m/s | -53.1°C | 32.3% | 247.8hPa | 2.5V | 07:59:05 | 02:27:11 | 00:00:00 | |
| DO2JMG | 2026-09-02 05:58:35 | 52.67612 | 8.45606 | 89° | 78km/h | 10603m | -5.4m/s | -53.2°C | 32.3% | 247.2hPa | 2.5V | 07:59:05 | 02:27:08 | 00:00:00 | |
| DL1XH-west | 2026-09-02 05:58:34 | 52.67612 | 8.45573 | 91° | 78km/h | 10609m | -5.5m/s | -53.3°C | 32.3% | 246.9hPa | 2.6V | 07:59:05 | 02:27:07 | 00:00:00 | |
| BIOWL1-15 | 2026-09-02 05:58:33 | 52.67613 | 8.45541 | 93° | 78km/h | 10614m | -5.4m/s | -53.3°C | 32.3% | 246.7hPa | 2.6V | 07:59:05 | 02:27:06 | 00:00:00 | |
| HSKMA3-T | 2026-09-02 05:58:32 | 52.67614 | 8.45509 | 95° | 77km/h | 10620m | -5.3m/s | -53.3°C | 32.2% | 246.5hPa | 2.6V | 07:59:05 | 02:27:05 | 00:00:00 | |
| DJ2DS-15 | 2026-09-02 05:58:32 | 52.67614 | 8.45509 | 95° | 66km/h | 10620m | -5.3m/s | -53.3°C | 32.1% | 246.4hPa | 2.5V | 00:00:00 | 02:27:05 | 00:00:00 | |
| GOEST3-10 | 2026-09-02 05:58:30 | 52.67619 | 8.45447 | 100° | 69km/h | 10631m | -5.2m/s | -53.4°C | 32.0% | 246.0hPa | 2.5V | 00:00:00 | 02:27:03 | 00:00:00 | |
| DL1XH-15 | 2026-09-02 05:58:29 | 52.67638 | 8.45278 | 100° | 68km/h | 10663m | -5.5m/s | -53.6°C | 31.5% | 244.9hPa | 2.5V | 07:59:11 | 02:26:57 | 00:00:00 | |
| AA1-15 | 2026-09-02 05:58:27 | 52.67629 | 8.45361 | 101° | 69km/h | 10647m | -5.4m/s | -53.6°C | 31.9% | 245.4hPa | 2.6V | 07:59:56 | 02:27:00 | 00:00:00 | |
| DO2JMG | 2026-09-02 05:58:24 | 52.67638 | 8.45278 | 101° | 68km/h | 10663m | -5.5m/s | -53.6°C | 31.6% | 244.9hPa | 2.5V | 07:59:56 | 02:26:57 | 00:00:00 | |
| DL1XH-west | 2026-09-02 05:58:23 | 52.67642 | 8.45251 | 101° | 64km/h | 10668m | -5.1m/s | -53.7°C | 31.5% | 244.6hPa | 2.6V | 07:59:56 | 02:26:56 | 00:00:00 | |
| BIOWL1-15 | 2026-09-02 05:58:22 | 52.67651 | 8.45172 | 101° | 64km/h | 10684m | -5.5m/s | -53.7°C | 31.1% | 244.1hPa | 2.5V | 07:59:56 | 02:26:53 | 00:00:00 | |
| HSKMA3-T | 2026-09-02 05:58:22 | 52.67645 | 8.45225 | 101° | 64km/h | 10673m | -5.3m/s | -53.7°C | 31.4% | 244.4hPa | 2.6V | 07:59:56 | 02:26:55 | 00:00:00 | |
| HTAHTA | 2026-09-02 05:58:20 | 52.67654 | 8.45146 | 100° | 64km/h | 10690m | -5.5m/s | -53.7°C | 24.6% | 243.8hPa | 2.6V | 00:00:00 | 00:00:00 | 00:00:00 | |
| DL1XH-15 | 2026-09-02 05:58:19 | 52.67665 | 8.45017 | 95° | 58km/h | 10717m | -5.5m/s | -53.6°C | 30.2% | 242.7hPa | 2.6V | 07:59:21 | 02:26:47 | 00:00:00 | |
| AA1-15 | 2026-09-02 05:58:16 | 52.67661 | 8.45067 | 98° | 62km/h | 10706m | -5.4m/s | -53.7°C | 30.7% | 243.1hPa | 2.6V | 07:59:56 | 02:26:49 | 00:00:00 | |
| DM0DOS-11 | 2026-09-02 05:58:15 | 52.67667 | 8.44969 | 94° | 58km/h | 10728m | -5.4m/s | -53.6°C | 30.2% | 242.3hPa | 2.5V | 07:59:23 | 02:26:45 | 00:00:00 | |
| DF8AY | 2026-09-02 05:58:14 | 52.67665 | 8.45017 | 95° | 58km/h | 10717m | -5.5m/s | -53.6°C | 30.5% | 242.7hPa | 2.6V | 07:59:56 | 02:26:47 | 00:00:00 | |
| DL1XH-west | 2026-09-02 05:58:13 | 52.67666 | 8.44993 | 94° | 58km/h | 10723m | -5.6m/s | -53.6°C | 30.4% | 242.6hPa | 2.5V | 07:59:56 | 02:26:46 | 00:00:00 | |
| HSKMA3-T | 2026-09-02 05:58:12 | 52.67667 | 8.44969 | 94° | 58km/h | 10728m | -5.4m/s | -53.6°C | 30.4% | 242.3hPa | 2.5V | 07:59:56 | 02:26:45 | 00:00:00 | |
| DJ2DS-15 | 2026-09-02 05:58:12 | 52.67667 | 8.44969 | 95° | 60km/h | 10728m | -5.3m/s | -53.6°C | 30.2% | 242.3hPa | 2.5V | 00:00:00 | 02:26:45 | 00:00:00 | |
| DD1CC2-15 | 2026-09-02 05:58:11 | 52.67667 | 8.44969 | 95° | 58km/h | 10728m | -5.4m/s | -53.6°C | 24.0% | 242.3hPa | 2.6V | 07:59:00 | 00:00:00 | 00:00:00 | |
| DB0DAN | 2026-09-02 05:58:10 | 52.67670 | 8.44920 | 96° | 58km/h | 10739m | -5.5m/s | -53.7°C | 23.8% | 241.93hPa | 2.6V | 00:00:00 | 00:00:00 | 00:00:00 | |
| GOEST3-10 | 2026-09-02 05:58:10 | 52.67670 | 8.44919 | 96° | 64km/h | 10739m | -5.4m/s | -53.6°C | 30.1% | 241.9hPa | 2.6V | 00:00:00 | 02:26:43 | 00:00:00 | |
| DL1XH-15 | 2026-09-02 05:58:09 | 52.67683 | 8.44759 | 98° | 68km/h | 10772m | -5.5m/s | -53.9°C | 29.6% | 240.7hPa | 2.6V | 07:59:31 | 02:26:37 | 00:00:00 | |
| DL3AQ-11 | 2026-09-02 05:58:08 | 52.67676 | 8.44841 | 97° | 64km/h | 10755m | -5.8m/s | -53.8°C | 23.7% | 241.3hPa | 2.5V | 00:00:00 | 00:00:00 | 00:00:00 | |
| DM0DOS-11 | 2026-09-02 05:58:07 | 52.67688 | 8.44705 | 98° | 64km/h | 10784m | -5.8m/s | -54°C | 29.7% | 240.3hPa | 2.5V | 07:59:33 | 02:26:35 | 00:00:00 | |
| AA1-15 | 2026-09-02 05:58:06 | 52.67678 | 8.44814 | 98° | 66km/h | 10761m | -5.5m/s | -53.8°C | 30% | 241.1hPa | 2.5V | 07:59:56 | 02:26:39 | 00:00:00 | |
| DL4XJ-10 | 2026-09-02 05:58:05 | 52.67680 | 8.44786 | 99° | 60km/h | 10767m | -5.4m/s | -52.6°C | 0% | 0hPa | 2.5V | 00:00:00 | 00:00:00 | 00:00:00 | |
| DL1XH1-15 | 2026-09-02 05:58:04 | 52.67693 | 8.44654 | 97° | 60km/h | 10795m | -5.8m/s | -54.1°C | 29.6% | 239.8hPa | 2.5V | 07:59:35 | 02:26:33 | 00:00:00 | |
| DF8AY | 2026-09-02 05:58:04 | 52.67683 | 8.44759 | 99° | 68km/h | 10772m | -5.5m/s | -53.9°C | 29.8% | 240.7hPa | 2.6V | 07:59:56 | 02:26:37 | 00:00:00 | |
| DL1XH-west | 2026-09-02 05:58:03 | 52.67686 | 8.44732 | 99° | 66km/h | 10778m | -5.9m/s | -53.9°C | 29.7% | 240.5hPa | 2.6V | 07:59:56 | 02:26:36 | 00:00:00 | |
| HSKMA3-T | 2026-09-02 05:58:02 | 52.67688 | 8.44705 | 99° | 64km/h | 10784m | -5.8m/s | -54°C | 29.6% | 240.3hPa | 2.5V | 07:59:56 | 02:26:35 | 00:00:00 | |
| BIOWL1-15 | 2026-09-02 05:58:01 | 52.67694 | 8.44630 | 96° | 58km/h | 10801m | -5.7m/s | -54.1°C | 29.2% | 239.6hPa | 2.5V | 07:59:56 | 02:26:32 | 00:00:00 | |
| D01LWL | 2026-09-02 05:58:01 | 52.67690 | 8.44679 | 98° | 60km/h | 10789m | -5.7m/s | -54.0°C | 23.2% | 240.0hPa | 2.5V | 00:00:00 | 00:00:00 | 00:00:00 | |
| GOEST3-10 | 2026-09-02 05:58:00 | 52.67692 | 8.44654 | 98° | 57km/h | 10795m | -5.7m/s | -54.0°C | 29.6% | 239.8hPa | 2.5V | 00:00:00 | 02:26:33 | 00:00:00 | |
| DL1XH-15 | 2026-09-02 05:57:59 | 52.67693 | 8.44514 | 81° | 57km/h | 10829m | -5.6m/s | -54.2°C | 29% | 238.5hPa | 2.5V | 07:59:41 | 02:26:27 | 00:00:00 | |
| DO9LL-15 | 2026-09-02 05:57:59 | 52.67694 | 8.44630 | 96° | 62km/h | 10801m | -5.7m/s | -54.0°C | 29.5% | 239.5hPa | 2.6V | 00:00:00 | 02:26:32 | 00:00:00 | |
| DM0DOS-11 | 2026-09-02 05:57:57 | 52.67688 | 8.44467 | 77° | 60km/h | 10840m | -5.6m/s | -54.2°C | 28.2% | 238.1hPa | 2.6V | 07:59:43 | 02:26:25 | 00:00:00 | |
| DB0ND-19 | 2026-09-02 05:57:56 | 52.67693 | 8.44514 | 81° | 55km/h | 10829m | -5.6m/s | -54.2°C | 22.7% | 238.5hPa | 2.5V | 00:00:00 | 00:00:00 | 00:00:00 | |
| DB0DAN | 2026-09-02 05:57:55 | 52.67695 | 8.44537 | 85° | 53km/h | 10823m | -5.7m/s | -54.2°C | 23% | 238.72hPa | 2.5V | 00:00:00 | 00:00:00 | 00:00:00 | |
| AA1-15 | 2026-09-02 05:57:55 | 52.67695 | 8.44537 | 85° | 55km/h | 10823m | -5.7m/s | -54.2°C | 28.8% | 238.7hPa | 2.5V | 07:59:56 | 02:26:28 | 00:00:00 | |
| DF8AY | 2026-09-02 05:57:54 | 52.67693 | 8.44514 | 82° | 57km/h | 10829m | -5.6m/s | -54.2°C | 28.5% | 238.5hPa | 2.5V | 07:59:56 | 02:26:27 | 00:00:00 | |
| DL1XH-west | 2026-09-02 05:57:53 | 52.67691 | 8.44491 | 80° | 58km/h | 10835m | -5.8m/s | -54.2°C | 28.3% | 238.3hPa | 2.5V | 07:59:56 | 02:26:26 | 00:00:00 | |
| HSKMA3-T | 2026-09-02 05:57:51 | 52.67685 | 8.44443 | 76° | 60km/h | 10846m | -5.6m/s | -54.3°C | 27.9% | 237.9hPa | 2.6V | 07:59:56 | 02:26:24 | 00:00:00 | |
| BIOWL1-15 | 2026-09-02 05:57:50 | 52.67677 | 8.44393 | 75° | 64km/h | 10857m | -5.8m/s | -54.2°C | 27.4% | 237.5hPa | 2.5V | 07:59:56 | 02:26:22 | 00:00:00 | |
| HTAHTA | 2026-09-02 05:57:49 | 52.67672 | 8.44368 | 74° | 62km/h | 10863m | -5.7m/s | -54.3°C | 21.4% | 237.2hPa | 2.5V | 00:00:00 | 00:00:00 | 00:00:00 | |
| DD1CC8 | 2026-09-02 05:57:48 | 52.67672 | 8.44368 | 74° | 62km/h | 10863m | -5.7m/s | -54.3°C | 21.4% | 237.2hPa | 2.5V | 00:00:00 | 00:00:00 | 00:00:00 | |
| DF5WG-10 | 2026-09-02 05:57:47 | 52.67668 | 8.44342 | 75° | 66km/h | 10869m | -5.6m/s | -54.3°C | 27.4% | 237.0hPa | 2.5V | 00:00:00 | 02:26:20 | 00:00:00 | |
| DM0DOS-11 | 2026-09-02 05:57:46 | 52.67645 | 8.44214 | 72° | 68km/h | 10897m | -5.7m/s | -54.1°C | 26.1% | 236hPa | 2.5V | 07:59:53 | 02:26:15 | 00:00:00 | |
| DL4XJ-10 | 2026-09-02 05:57:45 | 52.67659 | 8.44292 | 74° | 62km/h | 10881m | -5.7m/s | -53.1°C | 0% | 0hPa | 2.6V | 00:00:00 | 00:00:00 | 00:00:00 | |
| AA1-15 | 2026-09-02 05:57:45 | 52.67659 | 8.44292 | 74° | 64km/h | 10880m | -5.8m/s | -54.3°C | 26.6% | 236.6hPa | 2.6V | 07:59:56 | 02:26:18 | 00:00:00 | |
| DL1XH1-15 | 2026-09-02 05:57:44 | 52.67634 | 8.44160 | 71° | 69km/h | 10909m | -6m/s | -54.1°C | 25.3% | 235.7hPa | 2.6V | 07:59:55 | 02:26:13 | 00:00:00 | |
| DF8AY | 2026-09-02 05:57:43 | 52.67650 | 8.44241 | 73° | 66km/h | 10891m | -5.7m/s | -54.3°C | 26.1% | 236.2hPa | 2.5V | 07:59:56 | 02:26:16 | 00:00:00 | |
| DO2JMG | 2026-09-02 05:57:42 | 52.67645 | 8.44214 | 72° | 68km/h | 10897m | -5.7m/s | -54.2°C | 25.8% | 236hPa | 2.5V | 07:59:56 | 02:26:15 | 00:00:00 | |
| DL1LOL-11 | 2026-09-02 05:57:41 | 52.67645 | 8.44214 | 73° | 68km/h | 10898m | -5.7m/s | -54.2°C | 20.2% | 236.0hPa | 2.6V | 00:00:00 | 00:00:00 | 00:00:00 | |
| DB0DAN | 2026-09-02 05:57:40 | 52.67634 | 8.44160 | 72° | 66km/h | 10909m | -6m/s | -54.1°C | 19.5% | 235.66hPa | 2.6V | 00:00:00 | 00:00:00 | 00:00:00 | |
| BIOWL1-15 | 2026-09-02 05:57:40 | 52.67634 | 8.44160 | 72° | 69km/h | 10909m | -6m/s | -54.1°C | 25.3% | 235.7hPa | 2.6V | 07:59:56 | 02:26:13 | 00:00:00 | |
| GOEST3-10 | 2026-09-02 05:57:40 | 52.67634 | 8.44160 | 72° | 66km/h | 10909m | -6.0m/s | -54.0°C | 25.3% | 235.6hPa | 2.6V | 00:00:00 | 02:26:13 | 00:00:00 | |
| DL1XH-15 | 2026-09-02 05:57:39 | 52.67608 | 8.44007 | 80° | 57km/h | 10943m | -5.8m/s | -54.3°C | 25% | 234.3hPa | 2.6V | 08:00:01 | 02:26:07 | 00:00:00 | |
| DB0NH | 2026-09-02 05:57:38 | 52.67623 | 8.44105 | 73° | 60km/h | 10921m | -5.8m/s | -54.1°C | 25.3% | 235.1hPa | 2.6V | 00:00:00 | 02:26:11 | 00:00:00 | |
| DF5WG-10 | 2026-09-02 05:57:37 | 52.67618 | 8.44080 | 74° | 58km/h | 10926m | -5.7m/s | -54.2°C | 25.4% | 234.9hPa | 2.5V | 00:00:00 | 02:26:10 | 00:00:00 | |
| EDDB2-12 | 2026-09-02 05:57:36 | 52.67614 | 8.44055 | 75° | 60km/h | 10932m | -5.6m/s | -54.2°C | 19.5% | 234.8hPa | 2.5V | 00:00:00 | 00:00:00 | 00:00:00 | |
| DL4BBY-15 | 2026-09-02 05:57:35 | 52.67611 | 8.44030 | 79° | 62km/h | 10938m | -5.5m/s | -53.1°C | 0% | 0hPa | 2.5V | 00:00:00 | 00:00:00 | 00:00:00 | |
| DL1XH1-15 | 2026-09-02 05:57:34 | 52.67603 | 8.43913 | 87° | 57km/h | 10966m | -5.8m/s | -54.3°C | 24.1% | 233.4hPa | 2.5V | 08:00:05 | 02:26:03 | 00:00:00 | |
| AA1-15 | 2026-09-02 05:57:34 | 52.67608 | 8.44007 | 81° | 57km/h | 10943m | -5.8m/s | -54.3°C | 24.2% | 234.3hPa | 2.6V | 08:00:47 | 02:26:07 | 00:00:00 | |
| DF8AY | 2026-09-02 05:57:32 | 52.67605 | 8.43960 | 85° | 57km/h | 10955m | -5.9m/s | -54.3°C | 23.8% | 233.9hPa | 2.5V | 08:00:47 | 02:26:05 | 00:00:00 | |
| HSKMA3-T | 2026-09-02 05:57:30 | 52.67603 | 8.43913 | 87° | 57km/h | 10966m | -5.8m/s | -54.3°C | 23.4% | 233.5hPa | 2.5V | 08:00:47 | 02:26:03 | 00:00:00 | |
| BIOWL1-15 | 2026-09-02 05:57:29 | 52.67603 | 8.43864 | 91° | 58km/h | 10978m | -5.9m/s | -54.2°C | 23% | 233.1hPa | 2.6V | 08:00:47 | 02:26:01 | 00:00:00 | |
| DL1XH-15 | 2026-09-02 05:57:29 | 52.67604 | 8.43765 | 90° | 60km/h | 11001m | -6m/s | -54.3°C | 22.9% | 232.2hPa | 2.5V | 08:00:11 | 02:25:57 | 00:00:00 | |
| DO9LL-15 | 2026-09-02 05:57:29 | 52.67602 | 8.43888 | 90° | 75km/h | 10972m | -5.8m/s | -54.2°C | 23.7% | 233.2hPa | 2.6V | 00:00:00 | 02:26:02 | 00:00:00 | |
| DK9SH | 2026-09-02 05:57:28 | 52.67603 | 8.43888 | 91° | 58km/h | 10972m | -5.8m/s | -54.2°C | 18.1% | 233.2hPa | 2.6V | 08:00:00 | 00:00:00 | 00:00:00 | |
| DO3DL | 2026-09-02 05:57:27 | 52.67603 | 8.43864 | 92° | 58km/h | 10978m | -5.9m/s | -54.2°C | 18.1% | 233.1hPa | 2.6V | 08:00:00 | 00:00:00 | 00:00:00 | |
| DM0DOS-11 | 2026-09-02 05:57:26 | 52.67603 | 8.43715 | 89° | 60km/h | 11013m | -5.8m/s | -54.3°C | 22.3% | 231.8hPa | 2.6V | 08:00:13 | 02:25:55 | 00:00:00 | |
| DB0DAN | 2026-09-02 05:57:25 | 52.67603 | 8.43790 | 91° | 57km/h | 10996m | -6m/s | -54.4°C | 17.6% | 232.47hPa | 2.5V | 00:00:00 | 00:00:00 | 00:00:00 | |
| DL1XH1-15 | 2026-09-02 05:57:25 | 52.67603 | 8.43666 | 88° | 58km/h | 11025m | -5.6m/s | -54.3°C | 21.7% | 231.4hPa | 2.6V | 08:00:15 | 02:25:53 | 00:00:00 | |
| AA1-15 | 2026-09-02 05:57:23 | 52.67604 | 8.43740 | 90° | 60km/h | 11008m | -5.9m/s | -54.3°C | 21.9% | 232hPa | 2.5V | 08:00:47 | 02:25:56 | 00:00:00 | |
| DF8AY | 2026-09-02 05:57:22 | 52.67603 | 8.43715 | 89° | 60km/h | 11014m | -5.8m/s | -54.3°C | 21.6% | 231.8hPa | 2.6V | 08:00:47 | 02:25:55 | 00:00:00 | |
| HSKMA3-T | 2026-09-02 05:57:20 | 52.67603 | 8.43666 | 88° | 58km/h | 11025m | -5.6m/s | -54.3°C | 21.1% | 231.4hPa | 2.6V | 08:00:47 | 02:25:53 | 00:00:00 | |
| BIOWL1-15 | 2026-09-02 05:57:19 | 52.67601 | 8.43569 | 87° | 58km/h | 11048m | -5.8m/s | -54.1°C | 20% | 230.5hPa | 2.6V | 08:00:47 | 02:25:49 | 00:00:00 | |
| DC6BW-12 | 2026-09-02 05:57:19 | 52.67602 | 8.43641 | 89° | 58km/h | 11031m | -5.7m/s | -54.3°C | 16.3% | 231.2hPa | 2.5V | 08:00:00 | 00:00:00 | 00:00:00 | |
| SONDE2-11 | 2026-09-02 05:57:18 | 52.67601 | 8.43593 | 87° | 57km/h | 11042m | -5.7m/s | -54.1°C | 15.7% | 230.8hPa | 2.5V | 00:00:00 | 00:00:00 | 00:00:00 | |
| DD1CC8 | 2026-09-02 05:57:17 | 52.67601 | 8.43569 | 86° | 57km/h | 11048m | -5.8m/s | -54.1°C | 15.6% | 230.5hPa | 2.5V | 00:00:00 | 00:00:00 | 00:00:00 | |
| DM0DOS-11 | 2026-09-02 05:57:16 | 52.67595 | 8.43470 | 83° | 64km/h | 11071m | -5.9m/s | -53.8°C | 19.9% | 229.7hPa | 2.5V | 08:00:23 | 02:25:45 | 00:00:00 | |
| AP2371 | 2026-09-02 05:57:16 | 52.67601 | 8.43569 | 88° | 58km/h | 11048m | -5.8m/s | -54.1°C | 0% | 230.5hPa | 2.6V | 00:00:00 | 00:00:00 | 00:00:00 | |
| DF5WG-10 | 2026-09-02 05:57:15 | 52.67600 | 8.43545 | 86° | 68km/h | 11054m | -5.9m/s | -54.0°C | 20.7% | 230.3hPa | 2.6V | 00:00:00 | 02:25:48 | 00:00:00 | |
| SMARD9-10 | 2026-09-02 05:57:14 | 52.67600 | 8.43545 | 87° | 58km/h | 11054m | -5.9m/s | -54.1°C | 15.5% | 230.3hPa | 2.6V | 08:00:00 | 00:00:00 | 00:00:00 | |
| DD8BA-10 | 2026-09-02 05:57:13 | 52.67597 | 8.43495 | 85° | 71km/h | 11066m | -5.8m/s | -53.8°C | 20.1% | 229.9hPa | 2.6V | 00:00:00 | 00:00:00 | 00:00:00 | |
| DL1XH1-15 | 2026-09-02 05:57:12 | 52.67591 | 8.43414 | 83° | 69km/h | 11083m | -5.6m/s | -53.9°C | 19.7% | 229.3hPa | 2.6V | 08:00:25 | 02:25:43 | 00:00:00 | |
| DL1XH-west | 2026-09-02 05:57:12 | 52.67595 | 8.43470 | 84° | 64km/h | 11071m | -5.9m/s | -53.8°C | 19.2% | 229.7hPa | 2.5V | 08:00:47 | 02:25:45 | 00:00:00 | |
| DF8AY | 2026-09-02 05:57:11 | 52.67593 | 8.43443 | 83° | 68km/h | 11077m | -5.7m/s | -53.9°C | 19% | 229.5hPa | 2.6V | 08:00:47 | 02:25:44 | 00:00:00 | |
| GOEST3-10 | 2026-09-02 05:57:10 | 52.67591 | 8.43414 | 84° | 73km/h | 11083m | -5.6m/s | -53.8°C | 19.7% | 229.2hPa | 2.6V | 00:00:00 | 02:25:43 | 00:00:00 | |
| DL1XH-15 | 2026-09-02 05:57:09 | 52.67584 | 8.43228 | 89° | 77km/h | 11118m | -5.9m/s | -53.8°C | 18.1% | 228.1hPa | 2.6V | 08:00:31 | 02:25:37 | 00:00:00 | |
| HSKMA3-T | 2026-09-02 05:57:09 | 52.67589 | 8.43385 | 84° | 73km/h | 11089m | -5.8m/s | -53.8°C | 18.6% | 229.1hPa | 2.6V | 08:00:47 | 02:25:42 | 00:00:00 | |
| BIOWL1-15 | 2026-09-02 05:57:07 | 52.67586 | 8.43323 | 86° | 75km/h | 11100m | -5.8m/s | -53.8°C | 18.2% | 228.7hPa | 2.5V | 08:00:47 | 02:25:40 | 00:00:00 | |
| DM0DOS-11 | 2026-09-02 05:57:06 | 52.67584 | 8.43163 | 92° | 78km/h | 11129m | -5.6m/s | -53.8°C | 17.8% | 227.7hPa | 2.6V | 08:00:33 | 02:25:35 | 00:00:00 | |
| DL1XH-west | 2026-09-02 05:57:02 | 52.67584 | 8.43163 | 92° | 78km/h | 11129m | -5.6m/s | -53.8°C | 17.1% | 227.7hPa | 2.6V | 08:00:47 | 02:25:35 | 00:00:00 | |
| DF8AY | 2026-09-02 05:57:01 | 52.67585 | 8.43131 | 92° | 78km/h | 11135m | -5.9m/s | -53.8°C | 16.9% | 227.4hPa | 2.5V | 08:00:47 | 02:25:34 | 00:00:00 | |
| GOEST3-10 | 2026-09-02 05:57:00 | 52.67586 | 8.43098 | 94° | 80km/h | 11141m | -5.6m/s | -53.8°C | 17.3% | 227.2hPa | 2.5V | 08:00:00 | 02:25:33 | 00:00:00 | |
| DL1XH-15 | 2026-09-02 05:56:59 | 52.67596 | 8.42898 | 95° | 82km/h | 11176m | -6m/s | -53.9°C | 16% | 225.9hPa | 2.5V | 08:00:41 | 02:25:27 | 00:00:00 | |
| HSKMA3-T | 2026-09-02 05:56:58 | 52.67588 | 8.43032 | 94° | 80km/h | 11152m | -5.8m/s | -53.8°C | 16.2% | 226.8hPa | 2.6V | 08:00:47 | 02:25:31 | 00:00:00 | |
| DM0DOS-11 | 2026-09-02 05:56:57 | 52.67600 | 8.42831 | 95° | 82km/h | 11187m | -5.8m/s | -53.9°C | 15.7% | 225.6hPa | 2.6V | 08:00:43 | 02:25:25 | 00:00:00 | |
| BIOWL1-15 | 2026-09-02 05:56:57 | 52.67590 | 8.42999 | 94° | 80km/h | 11158m | -5.7m/s | -53.8°C | 15.9% | 226.6hPa | 2.6V | 08:00:47 | 02:25:30 | 00:00:00 | |
| DL1CLM-18 | 2026-09-02 05:56:56 | 52.67590 | 8.42999 | 95° | 80km/h | 11158m | -5.7m/s | -53.8°C | 12.0% | 226.6hPa | 2.5V | 08:00:00 | 00:00:00 | 00:00:00 | |
| DB0DAN | 2026-09-02 05:56:55 | 52.67593 | 8.42932 | 95° | 77km/h | 11170m | -6m/s | -53.9°C | 11.8% | 226.22hPa | 2.5V | 00:00:00 | 00:00:00 | 00:00:00 | |
| DJ2DS-15 | 2026-09-02 05:56:55 | 52.67593 | 8.42932 | 95° | 80km/h | 11170m | -6.0m/s | -53.9°C | 11.8% | 226.2hPa | 2.6V | 00:00:00 | 00:00:00 | 00:00:00 | |
| DB0ND-19 | 2026-09-02 05:56:54 | 52.67600 | 8.42831 | 95° | 82km/h | 11187m | -5.8m/s | -53.9°C | 11.2% | 225.6hPa | 2.6V | 00:00:00 | 00:00:00 | 00:00:00 | |
| DD8BA-10 | 2026-09-02 05:56:53 | 52.67597 | 8.42864 | 96° | 82km/h | 11182m | -5.8m/s | -53.9°C | 15.9% | 225.7hPa | 2.6V | 00:00:00 | 00:00:00 | 00:00:00 | |
| DL1XH1-15 | 2026-09-02 05:56:52 | 52.67603 | 8.42762 | 93° | 82km/h | 11199m | -6.2m/s | -54°C | 15.5% | 225.2hPa | 2.5V | 08:00:45 | 02:25:23 | 00:00:00 | |
| DL1XH-west | 2026-09-02 05:56:51 | 52.67602 | 8.42796 | 95° | 82km/h | 11193m | -6.1m/s | -54°C | 14.2% | 225.4hPa | 2.6V | 08:00:47 | 02:25:24 | 00:00:00 | |
| DF8AY | 2026-09-02 05:56:50 | 52.67603 | 8.42762 | 94° | 82km/h | 11200m | -6.2m/s | -54°C | 14% | 225.2hPa | 2.5V | 08:00:47 | 02:25:23 | 00:00:00 | |
| HSKMA3-T | 2026-09-02 05:56:47 | 52.67608 | 8.42660 | 95° | 84km/h | 11218m | -6.3m/s | -53.7°C | 13% | 224.4hPa | 2.5V | 08:01:38 | 02:25:20 | 00:00:00 | |
| BIOWL1-15 | 2026-09-02 05:56:46 | 52.67616 | 8.42556 | 100° | 84km/h | 11236m | -6m/s | -53.6°C | 12.2% | 223.8hPa | 2.6V | 08:01:38 | 02:25:17 | 00:00:00 | |
| DL3OBA | 2026-09-02 05:56:46 | 52.67610 | 8.42625 | 97° | 84km/h | 11225m | -6.1m/s | -53.7°C | 10.2% | 224.2hPa | 2.6V | 08:01:00 | 00:00:00 | 00:00:00 | |
| DL1XH1-15 | 2026-09-02 05:56:45 | 52.67636 | 8.42424 | 107° | 78km/h | 11260m | -5.8m/s | -53.5°C | 12.5% | 223.1hPa | 2.6V | 08:00:55 | 02:25:13 | 00:00:00 | |
| DL1XH-west | 2026-09-02 05:56:41 | 52.67631 | 8.42455 | 106° | 80km/h | 11254m | -5.8m/s | -53.5°C | 11.2% | 223.2hPa | 2.5V | 08:01:38 | 02:25:14 | 00:00:00 | |
| AA1-15 | 2026-09-02 05:56:40 | 52.67637 | 8.42424 | 108° | 78km/h | 11260m | -5.8m/s | -53.5°C | 10.9% | 223.1hPa | 2.6V | 08:01:38 | 02:25:13 | 00:00:00 | |
| DB0DAN | 2026-09-02 05:56:40 | 52.67637 | 8.42424 | 108° | 75km/h | 11260m | -5.8m/s | -53.5°C | 8.5% | 223.06hPa | 2.6V | 00:00:00 | 00:00:00 | 00:00:00 | |
| DF8AY | 2026-09-02 05:56:39 | 52.67643 | 8.42393 | 108° | 77km/h | 11265m | -5.9m/s | -53.5°C | 10.7% | 222.8hPa | 2.6V | 08:01:38 | 02:25:12 | 00:00:00 | |
| HSKMA3-T | 2026-09-02 05:56:37 | 52.67655 | 8.42334 | 108° | 73km/h | 11278m | -6.2m/s | -53.4°C | 10.2% | 222.4hPa | 2.5V | 08:01:38 | 02:25:10 | 00:00:00 | |
| BIOWL1-15 | 2026-09-02 05:56:36 | 52.67666 | 8.42278 | 108° | 68km/h | 11290m | -6.1m/s | -52.9°C | 9.5% | 222hPa | 2.6V | 08:01:38 | 02:25:08 | 00:00:00 | |
| DL3AQ-11 | 2026-09-02 05:56:35 | 52.67670 | 8.42251 | 105° | 66km/h | 11296m | -6.0m/s | -52.8°C | 7.1% | 221.8hPa | 2.6V | 00:00:00 | 00:00:00 | 00:00:00 | |
| DF5WG-10 | 2026-09-02 05:56:34 | 52.67670 | 8.42251 | 106° | 62km/h | 11296m | -5.9m/s | -52.8°C | 10.7% | 221.7hPa | 2.6V | 00:00:00 | 02:25:07 | 00:00:00 | |
| DD8BA-10 | 2026-09-02 05:56:33 | 52.67675 | 8.42225 | 106° | 62km/h | 11302m | -6.0m/s | -52.7°C | 10.5% | 221.6hPa | 2.5V | 00:00:00 | 00:00:00 | 00:00:00 | |
| DL1XH1-15 | 2026-09-02 05:56:32 | 52.67687 | 8.42148 | 104° | 64km/h | 11319m | -6m/s | -52.7°C | 10.2% | 221hPa | 2.5V | 08:01:05 | 02:25:03 | 00:00:00 | |
| DL1XH-west | 2026-09-02 05:56:30 | 52.67687 | 8.42148 | 104° | 64km/h | 11319m | -6m/s | -52.7°C | 8.8% | 221hPa | 2.5V | 08:01:38 | 02:25:03 | 00:00:00 | |
| DF8AY | 2026-09-02 05:56:29 | 52.67691 | 8.42123 | 104° | 62km/h | 11325m | -6m/s | -52.7°C | 8.7% | 220.7hPa | 2.6V | 08:01:38 | 02:25:02 | 00:00:00 | |
| DO2JMG | 2026-09-02 05:56:28 | 52.67695 | 8.42098 | 104° | 62km/h | 11331m | -5.9m/s | -52.8°C | 8.6% | 220.5hPa | 2.6V | 08:01:38 | 02:25:01 | 00:00:00 | |
| D01LWL | 2026-09-02 05:56:28 | 52.67699 | 8.42073 | 103° | 60km/h | 11337m | -6.1m/s | -52.7°C | 6.6% | 220.3hPa | 2.6V | 00:00:00 | 00:00:00 | 00:00:00 | |
| DM0DOS-11 | 2026-09-02 05:56:27 | 52.67719 | 8.41951 | 105° | 62km/h | 11368m | -6.3m/s | -52.7°C | 9.7% | 219.3hPa | 2.6V | 08:01:13 | 02:24:55 | 00:00:00 | |
| HSKMA3-T | 2026-09-02 05:56:27 | 52.67699 | 8.42073 | 104° | 60km/h | 11337m | -6.1m/s | -52.7°C | 8.5% | 220.3hPa | 2.5V | 08:01:38 | 02:25:00 | 00:00:00 | |
| BIOWL1-15 | 2026-09-02 05:56:26 | 52.67702 | 8.42049 | 104° | 60km/h | 11343m | -6m/s | -52.7°C | 8.4% | 220.1hPa | 2.5V | 08:01:38 | 02:24:59 | 00:00:00 | |
| DL1XH1-15 | 2026-09-02 05:56:25 | 52.67728 | 8.41899 | 106° | 69km/h | 11380m | -6m/s | -52.7°C | 9.6% | 218.9hPa | 2.5V | 08:01:15 | 02:24:53 | 00:00:00 | |
| DL1XH-west | 2026-09-02 05:56:20 | 52.67728 | 8.41899 | 107° | 69km/h | 11380m | -6m/s | -52.7°C | 7.7% | 218.9hPa | 2.5V | 08:01:38 | 02:24:53 | 00:00:00 | |
| GOEST3-10 | 2026-09-02 05:56:20 | 52.67728 | 8.41899 | 107° | 75km/h | 11381m | -6.0m/s | -52.7°C | 9.6% | 218.8hPa | 2.5V | 00:00:00 | 02:24:53 | 00:00:00 | |
| DL1XH-15 | 2026-09-02 05:56:19 | 52.67761 | 8.41720 | 108° | 73km/h | 11417m | -6.1m/s | -52.8°C | 8.8% | 217.6hPa | 2.5V | 08:01:21 | 02:24:47 | 00:00:00 | |
| DF8AY | 2026-09-02 05:56:19 | 52.67733 | 8.41871 | 107° | 73km/h | 11386m | -5.8m/s | -52.7°C | 7.6% | 218.7hPa | 2.5V | 08:01:38 | 02:24:52 | 00:00:00 | |
| AA1-15 | 2026-09-02 05:56:18 | 52.67738 | 8.41841 | 107° | 75km/h | 11392m | -5.9m/s | -52.7°C | 7.5% | 218.5hPa | 2.5V | 08:01:38 | 02:24:51 | 00:00:00 | |
| DO2JMG | 2026-09-02 05:56:17 | 52.67744 | 8.41811 | 106° | 77km/h | 11398m | -6.2m/s | -52.8°C | 7.4% | 218.3hPa | 2.6V | 08:01:38 | 02:24:50 | 00:00:00 | |
| HSKMA3-T | 2026-09-02 05:56:16 | 52.67750 | 8.41780 | 107° | 78km/h | 11404m | -6.1m/s | -52.8°C | 7.2% | 218.1hPa | 2.6V | 08:01:38 | 02:24:49 | 00:00:00 | |
| HTAHTA | 2026-09-02 05:56:16 | 52.67755 | 8.41749 | 107° | 75km/h | 11410m | -6.4m/s | -52.8°C | 5.6% | 217.9hPa | 2.6V | 00:00:00 | 00:00:00 | 00:00:00 | |
| GOEST3-10 | 2026-09-02 05:56:15 | 52.67755 | 8.41749 | 108° | 69km/h | 11410m | -6.4m/s | -52.8°C | 8.9% | 217.8hPa | 2.6V | 08:01:00 | 00:00:00 | 00:00:00 | |
| DF5WG-10 | 2026-09-02 05:56:14 | 52.67761 | 8.41720 | 109° | 64km/h | 11417m | -6.1m/s | -52.8°C | 8.8% | 217.6hPa | 2.6V | 00:00:00 | 02:24:47 | 00:00:00 | |
| DD8BA-10 | 2026-09-02 05:56:13 | 52.67767 | 8.41692 | 110° | 60km/h | 11423m | -6.3m/s | -52.8°C | 8.6% | 217.4hPa | 2.6V | 00:00:00 | 00:00:00 | 00:00:00 | |
| DL1XH1-15 | 2026-09-02 05:56:12 | 52.67783 | 8.41614 | 107° | 62km/h | 11442m | -6.3m/s | -52.9°C | 8.3% | 216.8hPa | 2.6V | 08:01:25 | 02:24:43 | 00:00:00 | |
| DL1XH-west | 2026-09-02 05:56:10 | 52.67783 | 8.41614 | 108° | 62km/h | 11442m | -6.3m/s | -52.9°C | 6.2% | 216.8hPa | 2.6V | 08:01:38 | 02:24:43 | 00:00:00 | |
| DF8AY | 2026-09-02 05:56:08 | 52.67792 | 8.41567 | 105° | 58km/h | 11454m | -6.4m/s | -52.9°C | 5.8% | 216.4hPa | 2.5V | 08:01:38 | 02:24:41 | 00:00:00 | |
| AA1-15 | 2026-09-02 05:56:07 | 52.67795 | 8.41543 | 104° | 57km/h | 11460m | -6.3m/s | -52.7°C | 5.7% | 216.2hPa | 2.5V | 08:01:38 | 02:24:40 | 00:00:00 | |
| DK9SH | 2026-09-02 05:56:06 | 52.67795 | 8.41543 | 105° | 57km/h | 11460m | -6.3m/s | -52.7°C | 4.8% | 216.2hPa | 2.6V | 08:01:00 | 00:00:00 | 00:00:00 | |
| DL1XH1-15 | 2026-09-02 05:56:05 | 52.67827 | 8.41382 | 113° | 64km/h | 11504m | -6m/s | -51.9°C | 6.8% | 214.7hPa | 2.6V | 08:01:35 | 02:24:33 | 00:00:00 | |
| BIOWL1-15 | 2026-09-02 05:56:05 | 52.67803 | 8.41498 | 105° | 57km/h | 11473m | -6m/s | -52.4°C | 5.3% | 215.8hPa | 2.6V | 08:01:38 | 02:24:38 | 00:00:00 | |
| DL4BBY-15 | 2026-09-02 05:56:05 | 52.67803 | 8.41497 | 106° | 69km/h | 11473m | -5.9m/s | -51.2°C | 0% | 0hPa | 2.6V | 00:00:00 | 00:00:00 | 00:00:00 | |
| DF5WG-10 | 2026-09-02 05:56:04 | 52.67806 | 8.41475 | 107° | 64km/h | 11479m | -6.1m/s | -52.3°C | 7.4% | 215.5hPa | 2.6V | 00:00:00 | 02:24:37 | 00:00:00 | |
| DD8BA-10 | 2026-09-02 05:56:03 | 52.67811 | 8.41452 | 109° | 66km/h | 11485m | -6.0m/s | -52.2°C | 7.3% | 215.2hPa | 2.6V | 00:00:00 | 00:00:00 | 00:00:00 | |
| AP2371 | 2026-09-02 05:56:02 | 52.67816 | 8.41429 | 111° | 58km/h | 11492m | -6.3m/s | -52.2°C | 0% | 0hPa | 2.6V | 00:00:00 | 00:00:00 | 00:00:00 | |
| DO3DL | 2026-09-02 05:56:01 | 52.67816 | 8.41429 | 111° | 58km/h | 11492m | -6.3m/s | -52.2°C | 4.2% | 215.2hPa | 2.6V | 00:00:00 | 00:00:00 | 00:00:00 | |
| GOEST3-10 | 2026-09-02 05:56:00 | 52.67827 | 8.41382 | 114° | 68km/h | 11504m | -5.9m/s | -51.8°C | 6.8% | 214.7hPa | 2.6V | 00:00:00 | 02:24:33 | 00:00:00 | |
| DL1XH-15 | 2026-09-02 05:55:59 | 52.67867 | 8.41224 | 106° | 71km/h | 11540m | -5.7m/s | -52°C | 6.7% | 213.6hPa | 2.6V | 08:01:41 | 02:24:27 | 00:00:00 | |
| DL1XH-west | 2026-09-02 05:55:59 | 52.67834 | 8.41357 | 115° | 66km/h | 11510m | -5.8m/s | -51.8°C | 4.6% | 214.5hPa | 2.6V | 08:01:38 | 02:24:32 | 00:00:00 | |
| DF8AY | 2026-09-02 05:55:57 | 52.67848 | 8.41305 | 114° | 69km/h | 11522m | -6.3m/s | -51.8°C | 4.4% | 214.1hPa | 2.5V | 08:01:38 | 02:24:30 | 00:00:00 | |
| AA1-15 | 2026-09-02 05:55:56 | 52.67855 | 8.41279 | 113° | 69km/h | 11528m | -6.2m/s | -51.9°C | 4.4% | 213.9hPa | 2.5V | 08:02:29 | 02:24:29 | 00:00:00 | |
| HSKMA3-T | 2026-09-02 05:55:55 | 52.67862 | 8.41252 | 111° | 71km/h | 11534m | -6m/s | -51.9°C | 4.3% | 213.7hPa | 2.6V | 08:02:29 | 02:24:28 | 00:00:00 | |
| DB0DAN | 2026-09-02 05:55:55 | 52.67862 | 8.41252 | 111° | 68km/h | 11534m | -6m/s | -51.9°C | 3.8% | 213.74hPa | 2.6V | 00:00:00 | 00:00:00 | 00:00:00 | |
| BIOWL1-15 | 2026-09-02 05:55:54 | 52.67876 | 8.41165 | 101° | 73km/h | 11551m | -5.6m/s | -52°C | 4.3% | 213.2hPa | 2.5V | 08:02:29 | 02:24:25 | 00:00:00 | |
| DB0ND-19 | 2026-09-02 05:55:52 | 52.67879 | 8.41135 | 99° | 71km/h | 11557m | -6.1m/s | -52.1°C | 3.7% | 213.0hPa | 2.5V | 00:00:00 | 00:00:00 | 00:00:00 | |
| DL1LOL-11 | 2026-09-02 05:55:51 | 52.67876 | 8.41165 | 102° | 73km/h | 11551m | -5.6m/s | -52.0°C | 3.8% | 213.2hPa | 2.5V | 08:02:00 | 00:00:00 | 00:00:00 | |
| GOEST3-10 | 2026-09-02 05:55:50 | 52.67882 | 8.41106 | 100° | 71km/h | 11563m | -5.8m/s | -52.1°C | 6.6% | 212.8hPa | 2.5V | 00:00:00 | 02:24:23 | 00:00:00 | |
| DL1XH-15 | 2026-09-02 05:55:49 | 52.67903 | 8.40932 | 103° | 71km/h | 11599m | -5.9m/s | -52.1°C | 6.2% | 211.7hPa | 2.5V | 08:01:51 | 02:24:17 | 00:00:00 | |
| DL1XH-west | 2026-09-02 05:55:48 | 52.67889 | 8.41048 | 101° | 71km/h | 11575m | -6m/s | -52.2°C | 4% | 212.4hPa | 2.6V | 08:02:29 | 02:24:21 | 00:00:00 | |
| DF8AY | 2026-09-02 05:55:46 | 52.67895 | 8.40990 | 102° | 71km/h | 11587m | -6m/s | -52.2°C | 3.9% | 212.1hPa | 2.6V | 08:02:29 | 02:24:19 | 00:00:00 | |
| DM0DOS-11 | 2026-09-02 05:55:46 | 52.67912 | 8.40874 | 102° | 71km/h | 11611m | -6.2m/s | -52°C | 6% | 211.3hPa | 2.6V | 08:01:53 | 02:24:15 | 00:00:00 | |
| BIOWL1-15 | 2026-09-02 05:55:45 | 52.67907 | 8.40903 | 104° | 71km/h | 11605m | -5.9m/s | -52.1°C | 3.6% | 211.4hPa | 2.5V | 08:02:29 | 02:24:16 | 00:00:00 | |
| HSKMA3-T | 2026-09-02 05:55:45 | 52.67899 | 8.40961 | 103° | 71km/h | 11593m | -5.8m/s | -52.2°C | 3.7% | 211.8hPa | 2.5V | 08:02:29 | 02:24:18 | 00:00:00 | |
| DL4XJ-10 | 2026-09-02 05:55:45 | 52.67899 | 8.40961 | 103° | 69km/h | 11592m | -5.8m/s | -51.0°C | 0% | 0hPa | 2.5V | 00:00:00 | 00:00:00 | 00:00:00 | |
| DF5WG-10 | 2026-09-02 05:55:44 | 52.67903 | 8.40932 | 104° | 71km/h | 11599m | -5.9m/s | -52.1°C | 6.2% | 211.6hPa | 2.5V | 00:00:00 | 02:24:17 | 00:00:00 | |
| DD8BA-10 | 2026-09-02 05:55:43 | 52.67907 | 8.40903 | 104° | 71km/h | 11605m | -5.9m/s | -52.0°C | 6.1% | 211.4hPa | 2.5V | 00:00:00 | 00:00:00 | 00:00:00 | |
| DF4FW | 2026-09-02 05:55:42 | 52.67907 | 8.40903 | 105° | 71km/h | 11605m | -5.9m/s | -52.1°C | 3.4% | 211.4hPa | 2.5V | 00:00:00 | 00:00:00 | 00:00:00 | |
| DO3DL | 2026-09-02 05:55:41 | 52.67912 | 8.40874 | 104° | 71km/h | 11611m | -6.2m/s | -52.0°C | 3.3% | 211.3hPa | 2.5V | 00:00:00 | 00:00:00 | 00:00:00 | |
| DB0DAN | 2026-09-02 05:55:40 | 52.67919 | 8.40816 | 101° | 68km/h | 11623m | -6.1m/s | -51.9°C | 3.2% | 210.84hPa | 2.5V | 00:00:00 | 00:00:00 | 00:00:00 | |
| GOEST3-10 | 2026-09-02 05:55:40 | 52.67919 | 8.40816 | 101° | 71km/h | 11623m | -6.0m/s | -51.9°C | 5.9% | 210.8hPa | 2.5V | 00:00:00 | 02:24:13 | 00:00:00 | |
| DL1XH-15 | 2026-09-02 05:55:39 | 52.67940 | 8.40640 | 99° | 71km/h | 11660m | -6.4m/s | -51.9°C | 5.9% | 209.6hPa | 2.5V | 08:02:01 | 02:24:07 | 00:00:00 | |
| DL1XH-west | 2026-09-02 05:55:37 | 52.67929 | 8.40729 | 102° | 73km/h | 11642m | -6.1m/s | -51.9°C | 3.2% | 210.2hPa | 2.6V | 08:02:29 | 02:24:10 | 00:00:00 | |
| DO2JMG | 2026-09-02 05:55:36 | 52.67933 | 8.40699 | 102° | 73km/h | 11648m | -6.3m/s | -51.9°C | 3.3% | 210hPa | 2.6V | 08:02:29 | 02:24:09 | 00:00:00 | |
| DL1XH1-15 | 2026-09-02 05:55:35 | 52.67947 | 8.40525 | 93° | 68km/h | 11685m | -6.2m/s | -51.7°C | 5.7% | 208.8hPa | 2.6V | 08:02:05 | 02:24:03 | 00:00:00 | |
| DF8AY | 2026-09-02 05:55:35 | 52.67937 | 8.40670 | 101° | 73km/h | 11654m | -6.3m/s | -51.9°C | 3.2% | 209.8hPa | 2.6V | 08:02:29 | 02:24:08 | 00:00:00 | |
| HSKMA3-T | 2026-09-02 05:55:34 | 52.67940 | 8.40640 | 100° | 71km/h | 11660m | -6.4m/s | -51.9°C | 3.2% | 209.6hPa | 2.5V | 08:02:29 | 02:24:07 | 00:00:00 | |
| BIOWL1-15 | 2026-09-02 05:55:33 | 52.67942 | 8.40611 | 98° | 71km/h | 11667m | -6.1m/s | -51.8°C | 3.2% | 209.4hPa | 2.5V | 08:02:29 | 02:24:06 | 00:00:00 | |
| DD8BA-10 | 2026-09-02 05:55:33 | 52.67942 | 8.40611 | 98° | 68km/h | 11667m | -6.0m/s | -51.8°C | 5.9% | 209.3hPa | 2.6V | 00:00:00 | 00:00:00 | 00:00:00 | |
| DJ2DS-15 | 2026-09-02 05:55:32 | 52.67945 | 8.40582 | 96° | 69km/h | 11673m | -6.2m/s | -51.8°C | 5.8% | 209.2hPa | 2.6V | 00:00:00 | 02:24:05 | 00:00:00 | |
| SMARD9-10 | 2026-09-02 05:55:31 | 52.67944 | 8.40582 | 97° | 69km/h | 11673m | -6.2m/s | -51.8°C | 3.1% | 209.2hPa | 2.6V | 08:02:00 | 00:00:00 | 00:00:00 | |
| GOEST3-10 | 2026-09-02 05:55:30 | 52.67947 | 8.40525 | 94° | 66km/h | 11685m | -6.2m/s | -51.7°C | 5.7% | 208.7hPa | 2.6V | 08:02:00 | 02:24:03 | 00:00:00 | |
| DL1XH-15 | 2026-09-02 05:55:29 | 52.67951 | 8.40362 | 90° | 64km/h | 11721m | -6.2m/s | -51.6°C | 5.4% | 207.7hPa | 2.6V | 08:02:11 | 02:23:57 | 00:00:00 | |
| DL1XH-west | 2026-09-02 05:55:27 | 52.67950 | 8.40442 | 92° | 66km/h | 11703m | -6m/s | -51.7°C | 2.9% | 208.2hPa | 2.5V | 08:02:29 | 02:24:00 | 00:00:00 | |
| DD1CC2-15 | 2026-09-02 05:55:27 | 52.67950 | 8.40442 | 93° | 66km/h | 11703m | -6.0m/s | -51.7°C | 2.9% | 208.2hPa | 2.5V | 08:02:00 | 00:00:00 | 00:00:00 | |
| DM0DOS-11 | 2026-09-02 05:55:26 | 52.67952 | 8.40308 | 90° | 66km/h | 11734m | -6.2m/s | -51.6°C | 5.3% | 207.2hPa | 2.5V | 08:02:13 | 02:23:55 | 00:00:00 | |
| DB0DAN | 2026-09-02 05:55:25 | 52.67951 | 8.40389 | 91° | 60km/h | 11715m | -6.1m/s | -51.6°C | 2.8% | 207.82hPa | 2.6V | 00:00:00 | 00:00:00 | 00:00:00 | |
| DO2JMG | 2026-09-02 05:55:25 | 52.67951 | 8.40389 | 91° | 64km/h | 11715m | -6.1m/s | -51.6°C | 2.7% | 207.8hPa | 2.6V | 08:02:29 | 02:23:58 | 00:00:00 | |
| DF8AY | 2026-09-02 05:55:24 | 52.67951 | 8.40362 | 91° | 64km/h | 11721m | -6.2m/s | -51.6°C | 2.7% | 207.7hPa | 2.6V | 08:02:29 | 02:23:57 | 00:00:00 | |
| HSKMA3-T | 2026-09-02 05:55:23 | 52.67952 | 8.40335 | 91° | 64km/h | 11727m | -6.2m/s | -51.6°C | 2.7% | 207.4hPa | 2.5V | 08:02:29 | 02:23:56 | 00:00:00 | |
| DL3OBA | 2026-09-02 05:55:23 | 52.67951 | 8.40335 | 92° | 64km/h | 11728m | -6.2m/s | -51.6°C | 2.7% | 207.5hPa | 2.6V | 08:02:00 | 00:00:00 | 00:00:00 | |
| GOEST3-10 | 2026-09-02 05:55:20 | 52.67952 | 8.40253 | 90° | 71km/h | 11747m | -6.3m/s | -51.5°C | 5.2% | 206.8hPa | 2.6V | 00:00:00 | 02:23:53 | 00:00:00 | |
| DB0UT-7 | 2026-09-02 05:55:19 | 52.67951 | 8.40224 | 90° | 80km/h | 11753m | -6.3m/s | -51.5°C | 5.1% | 206.6hPa | 2.6V | 00:00:00 | 02:23:52 | 00:00:00 | |
| SONCRA | 2026-09-02 05:55:18 | 52.67952 | 8.40195 | 89° | 71km/h | 11759m | -6.4m/s | -51.6°C | 2.6% | 206.5hPa | 2.6V | 00:00:00 | 00:00:00 | 00:00:00 | |
| BIOWL9-15 | 2026-09-02 05:55:17 | 52.67951 | 8.40134 | 90° | 73km/h | 11772m | -6.3m/s | -51.6°C | 2.6% | 206.0hPa | 2.6V | 00:00:00 | 00:00:00 | 00:00:00 | |
| DM0DOS-11 | 2026-09-02 05:55:16 | 52.67952 | 8.40008 | 91° | 78km/h | 11797m | -6.1m/s | -51.7°C | 5.2% | 205.2hPa | 2.6V | 08:02:23 | 02:23:45 | 00:00:00 | |
| DL1XH-west | 2026-09-02 05:55:16 | 52.67951 | 8.40134 | 90° | 73km/h | 11772m | -6.3m/s | -51.6°C | 2.5% | 206hPa | 2.5V | 08:02:29 | 02:23:49 | 00:00:00 | |
| DO2JMG | 2026-09-02 05:55:15 | 52.67952 | 8.40103 | 90° | 75km/h | 11778m | -6.3m/s | -51.6°C | 2.4% | 205.8hPa | 2.5V | 08:02:29 | 02:23:48 | 00:00:00 | |
| DF8AY | 2026-09-02 05:55:13 | 52.67952 | 8.40040 | 91° | 77km/h | 11791m | -6.3m/s | -51.7°C | 2.4% | 205.4hPa | 2.6V | 08:02:29 | 02:23:46 | 00:00:00 | |
| BIOWL1-15 | 2026-09-02 05:55:12 | 52.67952 | 8.40008 | 92° | 78km/h | 11797m | -6.1m/s | -51.7°C | 2.5% | 205.2hPa | 2.6V | 08:02:29 | 02:23:45 | 00:00:00 | |
| DO3DL | 2026-09-02 05:55:12 | 52.67952 | 8.40008 | 93° | 78km/h | 11797m | -6.1m/s | -51.7°C | 2.6% | 205.2hPa | 2.5V | 00:00:00 | 00:00:00 | 00:00:00 | |
| DD1CC3-15 | 2026-09-02 05:55:11 | 52.67952 | 8.40008 | 93° | 78km/h | 11797m | -6.1m/s | -51.7°C | 2.7% | 205.2hPa | 2.5V | 08:02:00 | 00:00:00 | 00:00:00 | |
| GOEST3-10 | 2026-09-02 05:55:10 | 52.67954 | 8.39941 | 93° | 82km/h | 11809m | -6.1m/s | -51.7°C | 5.2% | 204.7hPa | 2.5V | 00:00:00 | 02:23:43 | 00:00:00 | |
| DL1XH-15 | 2026-09-02 05:55:09 | 52.67962 | 8.39736 | 92° | 84km/h | 11846m | -6.3m/s | -52°C | 5.2% | 203.7hPa | 2.5V | 08:02:31 | 02:23:37 | 00:00:00 | |
| DB0NH | 2026-09-02 05:55:08 | 52.67956 | 8.39873 | 95° | 68km/h | 11822m | -6.0m/s | -51.8°C | 5.3% | 204.4hPa | 2.6V | 00:00:00 | 02:23:41 | 00:00:00 | |
| DJ2DS-15 | 2026-09-02 05:55:07 | 52.67958 | 8.39839 | 93° | 82km/h | 11828m | -6.3m/s | -51.9°C | 2.6% | 204.3hPa | 2.6V | 00:00:00 | 00:00:00 | 00:00:00 | |
| DM0DOS-11 | 2026-09-02 05:55:06 | 52.67963 | 8.39666 | 91° | 84km/h | 11859m | -6.4m/s | -52°C | 5.1% | 203.3hPa | 2.6V | 08:02:33 | 02:23:35 | 00:00:00 | |
| SMARD9-15 | 2026-09-02 05:55:06 | 52.67960 | 8.39770 | 92° | 82km/h | 11840m | -6.2m/s | -52.0°C | 2.6% | 203.8hPa | 2.5V | 00:00:00 | 00:00:00 | 00:00:00 | |
| DL1XH1-15 | 2026-09-02 05:55:05 | 52.67964 | 8.39596 | 91° | 84km/h | 11872m | -6m/s | -51.9°C | 5.1% | 202.9hPa | 2.5V | 08:02:35 | 02:23:33 | 00:00:00 | |
| DL1XH-west | 2026-09-02 05:55:05 | 52.67960 | 8.39770 | 93° | 84km/h | 11840m | -6.2m/s | -52°C | 2.3% | 203.8hPa | 2.5V | 08:03:20 | 02:23:38 | 00:00:00 | |
| DO2JMG | 2026-09-02 05:55:04 | 52.67961 | 8.39736 | 93° | 84km/h | 11846m | -6.3m/s | -52°C | 2.2% | 203.7hPa | 2.5V | 08:03:20 | 02:23:37 | 00:00:00 | |
| DF8AY | 2026-09-02 05:55:04 | 52.67962 | 8.39701 | 92° | 84km/h | 11853m | -6.4m/s | -52°C | 2.3% | 203.5hPa | 2.5V | 08:03:20 | 02:23:36 | 00:00:00 | |
| HSKMA3-T | 2026-09-02 05:55:02 | 52.67963 | 8.39666 | 92° | 84km/h | 11859m | -6.4m/s | -52°C | 2.2% | 203.3hPa | 2.6V | 08:03:20 | 02:23:35 | 00:00:00 | |
| AA1-15 | 2026-09-02 05:55:01 | 52.67964 | 8.39631 | 92° | 84km/h | 11866m | -6.3m/s | -52°C | 2.2% | 203.1hPa | 2.6V | 08:03:20 | 02:23:34 | 00:00:00 | |
| BIOWL1-15 | 2026-09-02 05:55:01 | 52.67965 | 8.39528 | 89° | 80km/h | 11884m | -6.2m/s | -51.8°C | 2% | 202.5hPa | 2.5V | 08:03:20 | 02:23:31 | 00:00:00 | |
| EDDB2-12 | 2026-09-02 05:55:01 | 52.67964 | 8.39631 | 91° | 84km/h | 11866m | -6.3m/s | -52.0°C | 2.5% | 203.1hPa | 2.5V | 00:00:00 | 00:00:00 | 00:00:00 | |
| GOEST3-10 | 2026-09-02 05:55:00 | 52.67964 | 8.39596 | 92° | 82km/h | 11872m | -6.0m/s | -51.8°C | 5.1% | 202.9hPa | 2.5V | 00:00:00 | 02:23:33 | 00:00:00 | |
| DL1XH-15 | 2026-09-02 05:54:59 | 52.67963 | 8.39392 | 89° | 84km/h | 11909m | -6.3m/s | -51.6°C | 4.8% | 201.7hPa | 2.5V | 08:02:41 | 02:23:27 | 00:00:00 | |
| DM0DOS-11 | 2026-09-02 05:54:56 | 52.67963 | 8.39321 | 91° | 86km/h | 11921m | -6.3m/s | -51.6°C | 4.8% | 201.4hPa | 2.5V | 08:02:43 | 02:23:25 | 00:00:00 | |
| DB0DAN | 2026-09-02 05:54:55 | 52.67963 | 8.39427 | 89° | 78km/h | 11902m | -6.4m/s | -51.6°C | 2.3% | 201.95hPa | 2.6V | 00:00:00 | 00:00:00 | 00:00:00 | |
| DL1XH-west | 2026-09-02 05:54:55 | 52.67963 | 8.39427 | 89° | 82km/h | 11902m | -6.4m/s | -51.6°C | 1.9% | 201.9hPa | 2.6V | 08:03:20 | 02:23:28 | 00:00:00 | |
| DO2JMG | 2026-09-02 05:54:54 | 52.67963 | 8.39392 | 90° | 84km/h | 11909m | -6.3m/s | -51.6°C | 1.9% | 201.7hPa | 2.5V | 08:03:20 | 02:23:27 | 00:00:00 | |
| DF8AY | 2026-09-02 05:54:53 | 52.67963 | 8.39357 | 91° | 86km/h | 11915m | -6.3m/s | -51.6°C | 1.9% | 201.6hPa | 2.5V | 08:03:20 | 02:23:26 | 00:00:00 | |
| AA1-15 | 2026-09-02 05:54:51 | 52.67964 | 8.39285 | 93° | 88km/h | 11927m | -6.4m/s | -51.6°C | 1.8% | 201.2hPa | 2.5V | 08:03:20 | 02:23:24 | 00:00:00 | |
| BIOWL1-15 | 2026-09-02 05:54:50 | 52.67965 | 8.39248 | 94° | 88km/h | 11934m | -6.3m/s | -51.6°C | 1.8% | 201hPa | 2.6V | 08:03:20 | 02:23:23 | 00:00:00 | |
| DB0ND-19 | 2026-09-02 05:54:50 | 52.67967 | 8.39212 | 94° | 88km/h | 11940m | -6.3m/s | -51.5°C | 2.2% | 200.8hPa | 2.6V | 00:00:00 | 00:00:00 | 00:00:00 | |
| DL1XH-15 | 2026-09-02 05:54:49 | 52.67985 | 8.39032 | 103° | 86km/h | 11971m | -6m/s | -51.7°C | 4.7% | 199.8hPa | 2.6V | 08:02:51 | 02:23:17 | 00:00:00 | |
| DB0UT-7 | 2026-09-02 05:54:49 | 52.67967 | 8.39212 | 95° | 86km/h | 11940m | -6.3m/s | -51.5°C | 4.7% | 200.8hPa | 2.5V | 00:00:00 | 00:00:00 | 00:00:00 | |
| DO9LL-15 | 2026-09-02 05:54:47 | 52.67972 | 8.39139 | 99° | 80km/h | 11953m | -6.1m/s | -51.5°C | 4.7% | 200.3hPa | 2.5V | 00:00:00 | 02:23:20 | 00:00:00 | |
| DM0DOS-11 | 2026-09-02 05:54:46 | 52.67995 | 8.38963 | 104° | 86km/h | 11984m | -6.4m/s | -51.7°C | 4.7% | 199.4hPa | 2.5V | 08:02:53 | 02:23:15 | 00:00:00 | |
| BIOWL9-15 | 2026-09-02 05:54:46 | 52.67980 | 8.39067 | 101° | 86km/h | 11965m | -6.3m/s | -51.6°C | 2.2% | 200.0hPa | 2.5V | 00:00:00 | 00:00:00 | 00:00:00 | |
| DL1XH1-15 | 2026-09-02 05:54:45 | 52.68006 | 8.38892 | 103° | 88km/h | 11997m | -6.4m/s | -51.7°C | 4.8% | 199.1hPa | 2.5V | 08:02:55 | 02:23:13 | 00:00:00 | |
| DL1XH-west | 2026-09-02 05:54:45 | 52.67980 | 8.39067 | 102° | 88km/h | 11965m | -6.3m/s | -51.6°C | 1.7% | 200hPa | 2.5V | 08:03:20 | 02:23:18 | 00:00:00 | |
| DF8AY | 2026-09-02 05:54:43 | 52.67990 | 8.38997 | 104° | 86km/h | 11977m | -6.2m/s | -51.7°C | 1.7% | 199.6hPa | 2.6V | 08:03:20 | 02:23:16 | 00:00:00 | |
| HTAHTA | 2026-09-02 05:54:43 | 52.67995 | 8.38963 | 104° | 86km/h | 11984m | -6.4m/s | -51.7°C | 2.2% | 199.4hPa | 2.5V | 00:00:00 | 00:00:00 | 00:00:00 | |
| SONDE2-11 | 2026-09-02 05:54:42 | 52.67995 | 8.38963 | 104° | 86km/h | 11984m | -6.4m/s | -51.7°C | 2.2% | 199.4hPa | 2.5V | 00:00:00 | 00:00:00 | 00:00:00 | |
| DL3OBA | 2026-09-02 05:54:41 | 52.67995 | 8.38962 | 106° | 86km/h | 11984m | -6.4m/s | -51.7°C | 2.2% | 199.4hPa | 2.5V | 08:03:00 | 00:00:00 | 00:00:00 | |
| DB0DAN | 2026-09-02 05:54:40 | 52.68006 | 8.38893 | 103° | 84km/h | 11997m | -6.4m/s | -51.7°C | 2.2% | 199.07hPa | 2.5V | 00:00:00 | 00:00:00 | 00:00:00 | |
| BIOWL1-15 | 2026-09-02 05:54:40 | 52.68006 | 8.38893 | 103° | 88km/h | 11997m | -6.4m/s | -51.7°C | 1.7% | 199.1hPa | 2.5V | 08:03:20 | 02:23:13 | 00:00:00 | |
| DO3DL | 2026-09-02 05:54:39 | 52.68006 | 8.38892 | 104° | 88km/h | 11997m | -6.4m/s | -51.7°C | 2.2% | 199.1hPa | 2.6V | 08:03:00 | 00:00:00 | 00:00:00 | |
| BUE01 | 2026-09-02 05:54:38 | 52.68021 | 8.38784 | 102° | 89km/h | 12015m | -6.2m/s | -51.7°C | 0% | 198.4hPa | 2.6V | 00:00:00 | 00:00:00 | 00:00:00 | |
| DM0DOS-11 | 2026-09-02 05:54:36 | 52.68045 | 8.38597 | 100° | 93km/h | 12047m | -6.3m/s | -51.6°C | 4.8% | 197.5hPa | 2.6V | 08:03:03 | 02:23:05 | 00:00:00 | |
| DL1XH1-15 | 2026-09-02 05:54:35 | 52.68053 | 8.38522 | 96° | 89km/h | 12059m | -6m/s | -51.7°C | 4.7% | 197.1hPa | 2.5V | 08:03:05 | 02:23:03 | 00:00:00 | |
| DL1XH-west | 2026-09-02 05:54:34 | 52.68036 | 8.38672 | 103° | 93km/h | 12034m | -6.4m/s | -51.5°C | 1.7% | 197.9hPa | 2.5V | 08:03:20 | 02:23:07 | 00:00:00 | |
| DF8AY | 2026-09-02 05:54:32 | 52.68046 | 8.38597 | 100° | 93km/h | 12047m | -6.3m/s | -51.6°C | 1.7% | 197.5hPa | 2.6V | 08:03:20 | 02:23:05 | 00:00:00 | |
| HSKMA3-T | 2026-09-02 05:54:30 | 52.68053 | 8.38522 | 97° | 89km/h | 12059m | -6m/s | -51.7°C | 1.6% | 197.1hPa | 2.5V | 08:03:20 | 02:23:03 | 00:00:00 | |
| BIOWL1-15 | 2026-09-02 05:54:29 | 52.68055 | 8.38485 | 96° | 86km/h | 12065m | -6m/s | -51.7°C | 1.7% | 196.9hPa | 2.5V | 08:03:20 | 02:23:02 | 00:00:00 | |
| BIOWL7-15 | 2026-09-02 05:54:28 | 52.68055 | 8.38485 | 97° | 86km/h | 12066m | -6.0m/s | -51.7°C | 2.2% | 196.9hPa | 2.5V | 00:00:00 | 00:00:00 | 00:00:00 | |
| DM0DOS-11 | 2026-09-02 05:54:26 | 52.68066 | 8.38253 | 95° | 77km/h | 12108m | -6.3m/s | -51.4°C | 4.7% | 195.6hPa | 2.5V | 08:03:13 | 02:22:55 | 00:00:00 | |
| DB0DAN | 2026-09-02 05:54:25 | 52.68061 | 8.38349 | 94° | 75km/h | 12090m | -6m/s | -51.7°C | 2.2% | 196.22hPa | 2.5V | 00:00:00 | 00:00:00 | 00:00:00 | |
| DL1XH1-15 | 2026-09-02 05:54:25 | 52.68070 | 8.38190 | 95° | 75km/h | 12121m | -6.1m/s | -51.3°C | 4.7% | 195.2hPa | 2.6V | 08:03:15 | 02:22:53 | 00:00:00 | |
| DL1XH-west | 2026-09-02 05:54:23 | 52.68065 | 8.38285 | 95° | 77km/h | 12102m | -6.1m/s | -51.5°C | 1.7% | 195.8hPa | 2.5V | 08:03:20 | 02:22:56 | 00:00:00 | |
| DF8AY | 2026-09-02 05:54:22 | 52.68066 | 8.38253 | 95° | 77km/h | 12108m | -6.4m/s | -51.4°C | 1.7% | 195.6hPa | 2.5V | 08:03:20 | 02:22:55 | 00:00:00 | |
| SMARD9-10 | 2026-09-02 05:54:22 | 52.68066 | 8.38253 | 96° | 77km/h | 12108m | -6.4m/s | -51.4°C | 2.2% | 195.6hPa | 2.6V | 00:00:00 | 00:00:00 | 00:00:00 | |
| DO2JMG | 2026-09-02 05:54:22 | 52.68068 | 8.38221 | 95° | 77km/h | 12115m | -6.2m/s | -51.3°C | 1.7% | 195.5hPa | 2.6V | 08:03:20 | 02:22:54 | 00:00:00 | |
| DL3OBA | 2026-09-02 05:54:21 | 52.68066 | 8.38253 | 96° | 77km/h | 12108m | -6.4m/s | -51.4°C | 2.2% | 195.6hPa | 2.6V | 08:03:00 | 00:00:00 | 00:00:00 | |
| GOEST3-10 | 2026-09-02 05:54:20 | 52.68070 | 8.38190 | 96° | 75km/h | 12121m | -6.0m/s | -51.3°C | 4.7% | 195.2hPa | 2.6V | 00:00:00 | 02:22:53 | 00:00:00 | |
| DL1XH-15 | 2026-09-02 05:54:19 | 52.68081 | 8.38005 | 94° | 73km/h | 12158m | -6.3m/s | -51.3°C | 4.6% | 194.2hPa | 2.6V | 08:03:21 | 02:22:47 | 00:00:00 | |
| HSKMA3-T | 2026-09-02 05:54:19 | 52.68072 | 8.38159 | 96° | 75km/h | 12127m | -6.1m/s | -51.3°C | 1.7% | 195.1hPa | 2.6V | 08:03:20 | 02:22:52 | 00:00:00 | |
| BIOWL1-15 | 2026-09-02 05:54:18 | 52.68074 | 8.38128 | 96° | 75km/h | 12133m | -6.1m/s | -51.3°C | 1.7% | 194.9hPa | 2.5V | 08:03:20 | 02:22:51 | 00:00:00 | |
| DL1XH-west | 2026-09-02 05:54:13 | 52.68082 | 8.37975 | 95° | 73km/h | 12164m | -6.3m/s | -51.3°C | 1.7% | 193.9hPa | 2.5V | 08:04:11 | 02:22:46 | 00:00:00 | |
| DF8AY | 2026-09-02 05:54:12 | 52.68084 | 8.37944 | 95° | 73km/h | 12170m | -6.4m/s | -51.3°C | 1.7% | 193.8hPa | 2.5V | 08:04:11 | 02:22:45 | 00:00:00 | |
| DJ2DS-15 | 2026-09-02 05:54:12 | 52.68084 | 8.37944 | 95° | 68km/h | 12171m | -6.3m/s | -51.3°C | 4.6% | 193.7hPa | 2.5V | 08:03:00 | 02:22:45 | 00:00:00 | |
| DO3DL | 2026-09-02 05:54:11 | 52.68084 | 8.37944 | 96° | 73km/h | 12171m | -6.4m/s | -51.3°C | 2.2% | 193.7hPa | 2.6V | 08:04:00 | 00:00:00 | 00:00:00 | |
| DB0DAN | 2026-09-02 05:54:10 | 52.68087 | 8.37884 | 94° | 68km/h | 12183m | -6.4m/s | -51.3°C | 2.2% | 193.36hPa | 2.6V | 00:00:00 | 00:00:00 | 00:00:00 | |
| DO2JMG | 2026-09-02 05:54:10 | 52.68087 | 8.37884 | 94° | 71km/h | 12183m | -6.4m/s | -51.3°C | 1.7% | 193.4hPa | 2.6V | 08:04:11 | 02:22:43 | 00:00:00 | |
| GOEST3-10 | 2026-09-02 05:54:10 | 52.68086 | 8.37884 | 95° | 69km/h | 12183m | -6.3m/s | -51.2°C | 4.7% | 193.3hPa | 2.6V | 00:00:00 | 02:22:43 | 00:00:00 | |
| DL1XH-15 | 2026-09-02 05:54:09 | 52.68095 | 8.37712 | 95° | 68km/h | 12221m | -6m/s | -51.4°C | 4.9% | 192.2hPa | 2.6V | 08:03:31 | 02:22:37 | 00:00:00 | |
| BIOWL1-15 | 2026-09-02 05:54:08 | 52.68089 | 8.37826 | 94° | 69km/h | 12196m | -6.4m/s | -51.3°C | 1.7% | 192.9hPa | 2.6V | 08:04:11 | 02:22:41 | 00:00:00 | |
| AA1-15 | 2026-09-02 05:54:07 | 52.68091 | 8.37797 | 94° | 69km/h | 12202m | -6.3m/s | -51.3°C | 1.8% | 192.8hPa | 2.5V | 08:04:11 | 02:22:40 | 00:00:00 | |
| DF4FW | 2026-09-02 05:54:06 | 52.68091 | 8.37797 | 95° | 69km/h | 12203m | -6.3m/s | -51.3°C | 2.2% | 192.8hPa | 2.5V | 00:00:00 | 00:00:00 | 00:00:00 | |
| DL1XH1-15 | 2026-09-02 05:54:05 | 52.68104 | 8.37605 | 100° | 64km/h | 12246m | -6.2m/s | -51.5°C | 5% | 191.5hPa | 2.5V | 08:03:35 | 02:22:33 | 00:00:00 | |
| DL1XH-west | 2026-09-02 05:54:03 | 52.68097 | 8.37685 | 97° | 66km/h | 12227m | -5.9m/s | -51.4°C | 1.9% | 192.1hPa | 2.6V | 08:04:11 | 02:22:36 | 00:00:00 | |
| DF8AY | 2026-09-02 05:54:02 | 52.68101 | 8.37631 | 100° | 64km/h | 12240m | -6.3m/s | -51.5°C | 1.9% | 191.7hPa | 2.5V | 08:04:11 | 02:22:34 | 00:00:00 | |
| DO2JMG | 2026-09-02 05:54:00 | 52.68104 | 8.37605 | 101° | 64km/h | 12246m | -6.2m/s | -51.5°C | 1.9% | 191.5hPa | 2.5V | 08:04:11 | 02:22:33 | 00:00:00 | |
| BIOWL1-15 | 2026-09-02 05:53:59 | 52.68128 | 8.37451 | 104° | 64km/h | 12283m | -6.4m/s | -51.3°C | 1.8% | 190.4hPa | 2.5V | 08:04:11 | 02:22:27 | 00:00:00 | |
| DL1XH-15 | 2026-09-02 05:53:59 | 52.68127 | 8.37451 | 104° | 64km/h | 12283m | -6.4m/s | -51.3°C | 4.9% | 190.4hPa | 2.5V | 08:03:41 | 02:22:27 | 00:00:00 | |
| HSKMA3-T | 2026-09-02 05:53:57 | 52.68115 | 8.37528 | 105° | 64km/h | 12264m | -6m/s | -51.3°C | 1.8% | 191hPa | 2.6V | 08:04:11 | 02:22:30 | 00:00:00 | |
| AA1-15 | 2026-09-02 05:53:56 | 52.68119 | 8.37503 | 106° | 64km/h | 12270m | -6.3m/s | -51.3°C | 1.8% | 190.8hPa | 2.5V | 08:04:11 | 02:22:29 | 00:00:00 | |
| DL1XH-west | 2026-09-02 05:53:52 | 52.68135 | 8.37399 | 102° | 64km/h | 12295m | -6.1m/s | -51.2°C | 1.7% | 190.1hPa | 2.6V | 08:04:11 | 02:22:25 | 00:00:00 | |
| DF8AY | 2026-09-02 05:53:51 | 52.68138 | 8.37373 | 101° | 64km/h | 12301m | -6.1m/s | -51.1°C | 1.7% | 189.9hPa | 2.6V | 08:04:11 | 02:22:24 | 00:00:00 | |
| DO2JMG | 2026-09-02 05:53:50 | 52.68141 | 8.37347 | 100° | 62km/h | 12307m | -6.1m/s | -51°C | 1.7% | 189.7hPa | 2.6V | 08:04:11 | 02:22:23 | 00:00:00 | |
| GOEST3-10 | 2026-09-02 05:53:50 | 52.68141 | 8.37347 | 100° | 62km/h | 12308m | -6.0m/s | -51.0°C | 4.7% | 189.7hPa | 2.5V | 00:00:00 | 02:22:23 | 00:00:00 | |
| DL1XH-15 | 2026-09-02 05:53:49 | 52.68155 | 8.37195 | 94° | 64km/h | 12346m | -6.6m/s | -50.4°C | 4.4% | 188.6hPa | 2.5V | 08:03:51 | 02:22:17 | 00:00:00 | |
| DO9LL-15 | 2026-09-02 05:53:47 | 52.68149 | 8.37271 | 99° | 84km/h | 12326m | -6.4m/s | -50.5°C | 4.5% | 189.1hPa | 2.6V | 00:00:00 | 02:22:20 | 00:00:00 | |
| DM0DOS-11 | 2026-09-02 05:53:46 | 52.68156 | 8.37140 | 90° | 69km/h | 12359m | -6.3m/s | -50.3°C | 4.4% | 188.2hPa | 2.5V | 08:03:53 | 02:22:15 | 00:00:00 | |
| HSKMA3-T | 2026-09-02 05:53:46 | 52.68151 | 8.37246 | 98° | 60km/h | 12333m | -6.5m/s | -50.5°C | 1.5% | 188.9hPa | 2.6V | 08:04:11 | 02:22:19 | 00:00:00 | |
| AA1-15 | 2026-09-02 05:53:45 | 52.68153 | 8.37221 | 97° | 62km/h | 12340m | -6.7m/s | -50.4°C | 1.5% | 188.8hPa | 2.6V | 08:04:11 | 02:22:18 | 00:00:00 | |
| DL1XH1-15 | 2026-09-02 05:53:45 | 52.68156 | 8.37079 | 88° | 77km/h | 12372m | -6.4m/s | -50.2°C | 4.3% | 187.8hPa | 2.6V | 08:03:55 | 02:22:13 | 00:00:00 | |
| DL1XH-west | 2026-09-02 05:53:42 | 52.68156 | 8.37140 | 91° | 69km/h | 12359m | -6.3m/s | -50.3°C | 1.5% | 188.2hPa | 2.5V | 08:04:11 | 02:22:15 | 00:00:00 | |
| DF8AY | 2026-09-02 05:53:41 | 52.68156 | 8.37110 | 89° | 73km/h | 12365m | -6.4m/s | -50.3°C | 1.4% | 188hPa | 2.6V | 08:04:11 | 02:22:14 | 00:00:00 | |
| DB0DAN | 2026-09-02 05:53:40 | 52.68156 | 8.37079 | 89° | 73km/h | 12372m | -6.4m/s | -50.2°C | 2% | 187.81hPa | 2.6V | 00:00:00 | 00:00:00 | 00:00:00 | |
| DO2JMG | 2026-09-02 05:53:40 | 52.68156 | 8.37079 | 89° | 77km/h | 12372m | -6.4m/s | -50.2°C | 1.4% | 187.8hPa | 2.6V | 08:04:11 | 02:22:13 | 00:00:00 | |
| GOEST3-10 | 2026-09-02 05:53:40 | 52.68156 | 8.37079 | 89° | 82km/h | 12372m | -6.4m/s | -50.2°C | 4.3% | 187.8hPa | 2.5V | 00:00:00 | 02:22:13 | 00:00:00 | |
| DL3OBA | 2026-09-02 05:53:39 | 52.68156 | 8.37079 | 90° | 77km/h | 12372m | -6.4m/s | -50.2°C | 2.0% | 187.8hPa | 2.5V | 08:04:00 | 00:00:00 | 00:00:00 | |
| DD1CC1-15 | 2026-09-02 05:53:38 | 52.68155 | 8.37046 | 90° | 80km/h | 12379m | -6.3m/s | -50.3°C | 2.0% | 187.6hPa | 2.5V | 00:00:00 | 00:00:00 | 00:00:00 | |
| DO3DL | 2026-09-02 05:53:37 | 52.68155 | 8.37012 | 91° | 84km/h | 12385m | -6.5m/s | -50.3°C | 1.9% | 187.4hPa | 2.5V | 08:04:00 | 00:00:00 | 00:00:00 | |
| DM0DOS-11 | 2026-09-02 05:53:36 | 52.68169 | 8.36796 | 103° | 88km/h | 12423m | -6m/s | -50.4°C | 4.4% | 186.4hPa | 2.5V | 08:04:03 | 02:22:05 | 00:00:00 | |
| HSKMA3-T | 2026-09-02 05:53:36 | 52.68157 | 8.36941 | 93° | 88km/h | 12398m | -6.3m/s | -50.4°C | 1.5% | 187.1hPa | 2.5V | 08:04:11 | 02:22:09 | 00:00:00 | |
| BIOWL1-15 | 2026-09-02 05:53:35 | 52.68158 | 8.36905 | 96° | 89km/h | 12404m | -6.5m/s | -50.4°C | 1.5% | 186.9hPa | 2.6V | 08:04:11 | 02:22:08 | 00:00:00 | |
| AA1-15 | 2026-09-02 05:53:34 | 52.68161 | 8.36868 | 98° | 89km/h | 12411m | -6.3m/s | -50.4°C | 1.5% | 186.8hPa | 2.6V | 08:04:11 | 02:22:07 | 00:00:00 | |
| DL1XH-west | 2026-09-02 05:53:31 | 52.68175 | 8.36761 | 105° | 86km/h | 12429m | -6.1m/s | -50.4°C | 1.5% | 186.3hPa | 2.5V | 08:04:11 | 02:22:04 | 00:00:00 | |
| DF8AY | 2026-09-02 05:53:30 | 52.68181 | 8.36727 | 107° | 84km/h | 12435m | -6.2m/s | -50.4°C | 1.4% | 186.1hPa | 2.6V | 08:04:11 | 02:22:03 | 00:00:00 | |
| DO2JMG | 2026-09-02 05:53:29 | 52.68187 | 8.36694 | 107° | 84km/h | 12441m | -6.3m/s | -50.5°C | 1.4% | 185.9hPa | 2.6V | 08:04:11 | 02:22:02 | 00:00:00 | |
| EDDB2-12 | 2026-09-02 05:53:28 | 52.68193 | 8.36660 | 107° | 84km/h | 12448m | -6.4m/s | -50.5°C | 2.0% | 185.7hPa | 2.6V | 00:00:00 | 00:00:00 | 00:00:00 | |
| DL8DAS-14 | 2026-09-02 05:53:27 | 52.68207 | 8.36593 | 107° | 86km/h | 12461m | -6.6m/s | 0°C | -1.0% | -1.0hPa | 2.6V | 00:00:00 | 00:00:00 | 00:00:00 | |
| DM0DOS-11 | 2026-09-02 05:53:26 | 52.68233 | 8.36455 | 105° | 88km/h | 12487m | -6.3m/s | -50.8°C | 4.5% | 184.6hPa | 2.6V | 08:04:13 | 02:21:55 | 00:00:00 | |
| DB0DAN | 2026-09-02 05:53:25 | 52.68213 | 8.36559 | 108° | 82km/h | 12467m | -6.5m/s | -50.7°C | 2% | 185.17hPa | 2.5V | 00:00:00 | 00:00:00 | 00:00:00 | |
| HSKMA3-T | 2026-09-02 05:53:25 | 52.68213 | 8.36559 | 108° | 86km/h | 12467m | -6.5m/s | -50.7°C | 1.5% | 185.2hPa | 2.5V | 08:04:11 | 02:21:58 | 00:00:00 | |
| BIOWL1-15 | 2026-09-02 05:53:24 | 52.68238 | 8.36420 | 103° | 89km/h | 12493m | -6.4m/s | -50.8°C | 1.4% | 184.4hPa | 2.6V | 08:05:02 | 02:21:54 | 00:00:00 | |
| AA1-15 | 2026-09-02 05:53:23 | 52.68227 | 8.36490 | 107° | 88km/h | 12480m | -6.3m/s | -50.7°C | 1.4% | 184.7hPa | 2.6V | 08:05:02 | 02:21:56 | 00:00:00 | |
| DD8BA-10 | 2026-09-02 05:53:23 | 52.68227 | 8.36490 | 107° | 88km/h | 12481m | -6.3m/s | -50.7°C | 4.4% | 184.7hPa | 2.6V | 00:00:00 | 00:00:00 | 00:00:00 | |
| DO2SHX-10 | 2026-09-02 05:53:22 | 52.68233 | 8.36455 | 106° | 89km/h | 12487m | -6.2m/s | -50.8°C | 4.5% | 184.6hPa | 2.5V | 00:00:00 | 02:21:55 | 00:00:00 | |
| BIOWL7-15 | 2026-09-02 05:53:21 | 52.68233 | 8.36455 | 107° | 88km/h | 12487m | -6.3m/s | -50.8°C | 2.0% | 184.6hPa | 2.5V | 00:00:00 | 00:00:00 | 00:00:00 | |
| GOEST3-10 | 2026-09-02 05:53:20 | 52.68243 | 8.36384 | 101° | 88km/h | 12499m | -5.9m/s | -50.8°C | 4.5% | 184.2hPa | 2.5V | 00:00:00 | 02:21:53 | 00:00:00 | |
| DL1XH-west | 2026-09-02 05:53:20 | 52.68243 | 8.36384 | 100° | 88km/h | 12499m | -6m/s | -50.8°C | 1.5% | 184.2hPa | 2.5V | 08:05:02 | 02:21:53 | 00:00:00 | |
| DL1XH-15 | 2026-09-02 05:53:19 | 52.68261 | 8.36165 | 102° | 91km/h | 12537m | -6.6m/s | -50.6°C | 4.3% | 183.2hPa | 2.5V | 08:04:21 | 02:21:47 | 00:00:00 | |
| DF8AY | 2026-09-02 05:53:19 | 52.68246 | 8.36348 | 97° | 88km/h | 12505m | -5.7m/s | -50.8°C | 1.4% | 184hPa | 2.5V | 08:05:02 | 02:21:52 | 00:00:00 | |
| DB0UT-7 | 2026-09-02 05:53:19 | 52.68246 | 8.36348 | 98° | 84km/h | 12505m | -5.7m/s | -50.7°C | 4.4% | 184.0hPa | 2.6V | 00:00:00 | 02:21:52 | 00:00:00 | |
| DO3DL | 2026-09-02 05:53:18 | 52.68246 | 8.36348 | 98° | 88km/h | 12505m | -5.7m/s | -50.8°C | 2.0% | 184.0hPa | 2.6V | 08:05:00 | 00:00:00 | 00:00:00 | |
| DO2JMG | 2026-09-02 05:53:18 | 52.68249 | 8.36312 | 95° | 88km/h | 12511m | -6.1m/s | -50.7°C | 1.4% | 183.8hPa | 2.5V | 08:05:02 | 02:21:51 | 00:00:00 | |
| DO9LL-15 | 2026-09-02 05:53:17 | 52.68251 | 8.36275 | 96° | 82km/h | 12517m | -6.5m/s | -50.6°C | 4.4% | 183.6hPa | 2.6V | 00:00:00 | 02:21:50 | 00:00:00 | |
| DM0DOS-11 | 2026-09-02 05:53:16 | 52.68273 | 8.36094 | 109° | 88km/h | 12550m | -6.4m/s | -50.6°C | 4.3% | 182.8hPa | 2.6V | 08:04:23 | 02:21:45 | 00:00:00 | |
| HSKMA3-T | 2026-09-02 05:53:14 | 52.68261 | 8.36165 | 103° | 91km/h | 12537m | -6.6m/s | -50.6°C | 1.2% | 183.2hPa | 2.5V | 08:05:02 | 02:21:47 | 00:00:00 | |
| AA1-15 | 2026-09-02 05:53:12 | 52.68273 | 8.36094 | 109° | 88km/h | 12550m | -6.4m/s | -50.6°C | 1.2% | 182.8hPa | 2.6V | 08:05:02 | 02:21:45 | 00:00:00 | |
| DJ2DS-15 | 2026-09-02 05:53:12 | 52.68273 | 8.36093 | 110° | 82km/h | 12550m | -6.3m/s | -50.5°C | 4.3% | 182.7hPa | 2.6V | 00:00:00 | 02:21:45 | 00:00:00 | |
| DO3DL | 2026-09-02 05:53:11 | 52.68273 | 8.36093 | 110° | 88km/h | 12550m | -6.4m/s | -50.6°C | 1.9% | 182.8hPa | 2.6V | 08:05:00 | 00:00:00 | 00:00:00 | |
| DB0DAN | 2026-09-02 05:53:10 | 52.68289 | 8.36026 | 113° | 82km/h | 12563m | -6.7m/s | -50.5°C | 1.9% | 182.42hPa | 2.6V | 00:00:00 | 00:00:00 | 00:00:00 | |
| DL1XH-west | 2026-09-02 05:53:10 | 52.68289 | 8.36026 | 113° | 86km/h | 12563m | -6.7m/s | -50.5°C | 1.2% | 182.4hPa | 2.6V | 08:05:02 | 02:21:43 | 00:00:00 | |
| DF8AY | 2026-09-02 05:53:09 | 52.68298 | 8.35994 | 114° | 86km/h | 12570m | -6.3m/s | -50.5°C | 1.2% | 182.2hPa | 2.5V | 08:05:02 | 02:21:42 | 00:00:00 | |
| DO2JMG | 2026-09-02 05:53:08 | 52.68307 | 8.35961 | 115° | 84km/h | 12576m | -6.4m/s | -50.5°C | 1.2% | 182hPa | 2.5V | 08:05:02 | 02:21:41 | 00:00:00 | |
| DL1LOL-11 | 2026-09-02 05:53:08 | 52.68297 | 8.35993 | 115° | 86km/h | 12570m | -6.3m/s | -50.5°C | 1.8% | 182.2hPa | 2.5V | 00:00:00 | 00:00:00 | 00:00:00 | |
| DO2SHX-10 | 2026-09-02 05:53:07 | 52.68316 | 8.35929 | 116° | 84km/h | 12583m | -6.7m/s | -50.3°C | 4.2% | 181.8hPa | 2.5V | 00:00:00 | 02:21:40 | 00:00:00 | |
| DM0DOS-11 | 2026-09-02 05:53:06 | 52.68360 | 8.35774 | 115° | 78km/h | 12615m | -6.1m/s | -50.3°C | 4.2% | 180.9hPa | 2.5V | 08:04:33 | 02:21:35 | 00:00:00 | |
| BIOWL1-15 | 2026-09-02 05:53:04 | 52.68343 | 8.35834 | 115° | 82km/h | 12603m | -6.4m/s | -50.3°C | 1.1% | 181.3hPa | 2.5V | 08:05:02 | 02:21:37 | 00:00:00 | |
| AA1-15 | 2026-09-02 05:53:02 | 52.68360 | 8.35774 | 115° | 78km/h | 12615m | -6.1m/s | -50.3°C | 1.2% | 181hPa | 2.5V | 08:05:02 | 02:21:35 | 00:00:00 | |
| DL1XH-west | 2026-09-02 05:53:00 | 52.68376 | 8.35714 | 114° | 78km/h | 12627m | -6m/s | -50.4°C | 1% | 180.6hPa | 2.6V | 08:05:02 | 02:21:33 | 00:00:00 | |
| DF8AY | 2026-09-02 05:52:59 | 52.68385 | 8.35683 | 115° | 80km/h | 12633m | -6.3m/s | -50.4°C | 1.1% | 180.5hPa | 2.6V | 08:05:02 | 02:21:32 | 00:00:00 | |
| DO2JMG | 2026-09-02 05:52:57 | 52.68402 | 8.35621 | 115° | 82km/h | 12646m | -6.4m/s | -50.4°C | 1% | 180.1hPa | 2.5V | 08:05:02 | 02:21:30 | 00:00:00 | |
| EDDB2-12 | 2026-09-02 05:52:57 | 52.68402 | 8.35621 | 114° | 82km/h | 12646m | -6.4m/s | -50.4°C | 1.7% | 180.1hPa | 2.6V | 00:00:00 | 00:00:00 | 00:00:00 | |
| DB0DAN | 2026-09-02 05:52:55 | 52.68420 | 8.35560 | 115° | 77km/h | 12659m | -6.9m/s | -50.5°C | 1.7% | 179.7hPa | 2.6V | 00:00:00 | 00:00:00 | 00:00:00 | |
| GOEST3-10 | 2026-09-02 05:52:55 | 52.68420 | 8.35560 | 116° | 78km/h | 12659m | -6.8m/s | -50.4°C | 4.1% | 179.6hPa | 2.5V | 00:00:00 | 00:00:00 | 00:00:00 | |
| DL1XH1-15 | 2026-09-02 05:52:54 | 52.68462 | 8.35415 | 115° | 75km/h | 12692m | -6.6m/s | -50.1°C | 4.1% | 178.8hPa | 2.5V | 08:04:45 | 02:21:23 | 00:00:00 | |
| HSKMA3-T | 2026-09-02 05:52:54 | 52.68428 | 8.35530 | 115° | 80km/h | 12666m | -6.6m/s | -50.5°C | 1% | 179.5hPa | 2.6V | 08:05:02 | 02:21:27 | 00:00:00 | |
| AA1-15 | 2026-09-02 05:52:51 | 52.68454 | 8.35443 | 116° | 75km/h | 12685m | -6.8m/s | -50.3°C | 1% | 179hPa | 2.5V | 08:05:02 | 02:21:24 | 00:00:00 | |
| DL1XH-west | 2026-09-02 05:52:49 | 52.68470 | 8.35387 | 117° | 75km/h | 12698m | -6.4m/s | -49.9°C | 0.9% | 178.7hPa | 2.5V | 08:05:02 | 02:21:22 | 00:00:00 | |
| DF8AY | 2026-09-02 05:52:48 | 52.68479 | 8.35360 | 118° | 75km/h | 12705m | -6.6m/s | -49.9°C | 0.9% | 178.4hPa | 2.6V | 08:05:02 | 02:21:21 | 00:00:00 | |
| DO2JMG | 2026-09-02 05:52:47 | 52.68488 | 8.35332 | 117° | 75km/h | 12711m | -6.9m/s | -49.8°C | 0.9% | 178.2hPa | 2.6V | 08:05:02 | 02:21:20 | 00:00:00 | |
| DM0DOS-11 | 2026-09-02 05:52:47 | 52.68532 | 8.35181 | 112° | 89km/h | 12745m | -6.3m/s | -49.9°C | 4% | 177.4hPa | 2.6V | 08:04:53 | 02:21:15 | 00:00:00 | |
| BIOWL1-15 | 2026-09-02 05:52:45 | 52.68523 | 8.35214 | 114° | 86km/h | 12738m | -6.1m/s | -49.9°C | 0.9% | 177.5hPa | 2.6V | 08:05:02 | 02:21:16 | 00:00:00 | |
| DL4XJ-10 | 2026-09-02 05:52:45 | 52.68505 | 8.35275 | 118° | 86km/h | 12725m | -6.9m/s | -48.6°C | 0% | 0hPa | 2.5V | 00:00:00 | 00:00:00 | 00:00:00 | |
| DL1XH1-15 | 2026-09-02 05:52:44 | 52.68548 | 8.35109 | 108° | 93km/h | 12758m | -7.2m/s | -49.9°C | 4% | 177.1hPa | 2.5V | 08:04:55 | 02:21:13 | 00:00:00 | |
| HSKMA3-T | 2026-09-02 05:52:44 | 52.68514 | 8.35246 | 116° | 82km/h | 12732m | -6.6m/s | -49.9°C | 0.8% | 177.7hPa | 2.6V | 08:05:02 | 02:21:17 | 00:00:00 | |
| DF5WG-10 | 2026-09-02 05:52:44 | 52.68514 | 8.35245 | 116° | 89km/h | 12732m | -6.6m/s | -49.8°C | 4.0% | 177.6hPa | 2.5V | 00:00:00 | 02:21:17 | 00:00:00 | |
| DD8BA-10 | 2026-09-02 05:52:43 | 52.68523 | 8.35214 | 115° | 89km/h | 12739m | -6.1m/s | -49.8°C | 4.0% | 177.5hPa | 2.5V | 00:00:00 | 00:00:00 | 00:00:00 | |
| WEDDY | 2026-09-02 05:52:42 | 52.68523 | 8.35214 | 115° | 86km/h | 12739m | -6.1m/s | -49.9°C | 1.6% | 177.5hPa | 2.5V | 08:05:00 | 00:00:00 | 00:00:00 | |
| DB0DAN | 2026-09-02 05:52:40 | 52.68548 | 8.35109 | 109° | 88km/h | 12758m | -7.2m/s | -49.9°C | 1.6% | 177.05hPa | 2.5V | 00:00:00 | 00:00:00 | 00:00:00 | |
| AA1-15 | 2026-09-02 05:52:40 | 52.68548 | 8.35109 | 109° | 93km/h | 12758m | -7.2m/s | -49.9°C | 0.9% | 177.1hPa | 2.5V | 08:05:02 | 02:21:13 | 00:00:00 | |
| DL1XH-west | 2026-09-02 05:52:39 | 52.68555 | 8.35073 | 107° | 93km/h | 12765m | -6.9m/s | -49.9°C | 0.9% | 176.8hPa | 2.5V | 08:05:02 | 02:21:12 | 00:00:00 | |
| DF8AY | 2026-09-02 05:52:38 | 52.68561 | 8.35036 | 104° | 91km/h | 12772m | -6.9m/s | -50°C | 0.8% | 176.6hPa | 2.5V | 08:05:02 | 02:21:11 | 00:00:00 | |
| DM0DOS-11 | 2026-09-02 05:52:37 | 52.68582 | 8.34824 | 94° | 78km/h | 12812m | -6.4m/s | -49.9°C | 4% | 175.6hPa | 2.6V | 08:05:03 | 02:21:05 | 00:00:00 | |
| DO2JMG | 2026-09-02 05:52:36 | 52.68571 | 8.34963 | 101° | 89km/h | 12786m | -6.5m/s | -50°C | 0.9% | 176.2hPa | 2.6V | 08:05:02 | 02:21:09 | 00:00:00 | |
| DL4BBY-15 | 2026-09-02 05:52:35 | 52.68575 | 8.34927 | 100° | 89km/h | 12793m | -6.5m/s | -48.8°C | 0% | 0hPa | 2.6V | 00:00:00 | 00:00:00 | 00:00:00 | |
| DL1XH1-15 | 2026-09-02 05:52:34 | 52.68585 | 8.34758 | 94° | 80km/h | 12825m | -6.6m/s | -49.8°C | 4% | 175.2hPa | 2.6V | 08:05:05 | 02:21:03 | 00:00:00 | |
| HSKMA3-T | 2026-09-02 05:52:33 | 52.68580 | 8.34857 | 96° | 82km/h | 12805m | -6.6m/s | -50°C | 0.8% | 175.8hPa | 2.6V | 08:05:02 | 02:21:06 | 00:00:00 | |
| BIOWL1-15 | 2026-09-02 05:52:32 | 52.68582 | 8.34824 | 95° | 78km/h | 12812m | -6.4m/s | -49.9°C | 0.9% | 175.6hPa | 2.6V | 08:05:53 | 02:21:05 | 00:00:00 | |
| AA1-15 | 2026-09-02 05:52:29 | 52.68587 | 8.34724 | 96° | 82km/h | 12832m | -6.9m/s | -49.8°C | 0.8% | 175.1hPa | 2.5V | 08:05:53 | 02:21:02 | 00:00:00 | |
| DL1XH-15 | 2026-09-02 05:52:29 | 52.68605 | 8.34544 | 103° | 91km/h | 12866m | -6.6m/s | -49.3°C | 3.8% | 174.1hPa | 2.5V | 08:05:11 | 02:20:57 | 00:00:00 | |
| DL1XH-west | 2026-09-02 05:52:28 | 52.68590 | 8.34690 | 97° | 84km/h | 12839m | -6.7m/s | -49.7°C | 0.8% | 174.8hPa | 2.5V | 08:05:53 | 02:21:01 | 00:00:00 | |
| DF8AY | 2026-09-02 05:52:27 | 52.68592 | 8.34654 | 99° | 88km/h | 12846m | -7m/s | -49.5°C | 0.8% | 174.7hPa | 2.5V | 08:05:53 | 02:21:00 | 00:00:00 | |
| DO2JMG | 2026-09-02 05:52:25 | 52.68600 | 8.34582 | 102° | 91km/h | 12859m | -6.8m/s | -49.3°C | 0.7% | 174.4hPa | 2.6V | 08:05:53 | 02:20:58 | 00:00:00 | |
| BIOWL1-15 | 2026-09-02 05:52:25 | 52.68623 | 8.34432 | 107° | 95km/h | 12887m | -7m/s | -49.1°C | 0.7% | 173.6hPa | 2.6V | 08:05:53 | 02:20:54 | 00:00:00 | |
| HSKMA3-T | 2026-09-02 05:52:22 | 52.68617 | 8.34470 | 106° | 95km/h | 12880m | -7.1m/s | -49.2°C | 0.6% | 173.8hPa | 2.6V | 08:05:53 | 02:20:55 | 00:00:00 | |
| DF4FW | 2026-09-02 05:52:21 | 52.68617 | 8.34470 | 107° | 95km/h | 12880m | -7.1m/s | -49.2°C | 1.5% | 173.8hPa | 2.6V | 08:05:00 | 00:00:00 | 00:00:00 | |
| GOEST3-10 | 2026-09-02 05:52:20 | 52.68631 | 8.34394 | 108° | 95km/h | 12894m | -6.9m/s | -49.0°C | 3.7% | 173.4hPa | 2.6V | 00:00:00 | 02:20:53 | 00:00:00 | |
| DL1XH-15 | 2026-09-02 05:52:19 | 52.68682 | 8.34174 | 116° | 93km/h | 12936m | -6.6m/s | -49.1°C | 3.7% | 172.3hPa | 2.6V | 08:05:21 | 02:20:47 | 00:00:00 | |
| AA1-15 | 2026-09-02 05:52:18 | 52.68646 | 8.34319 | 110° | 95km/h | 12908m | -7m/s | -49°C | 0.6% | 173.1hPa | 2.5V | 08:05:53 | 02:20:51 | 00:00:00 | |
| DL1XH-west | 2026-09-02 05:52:17 | 52.68654 | 8.34282 | 111° | 93km/h | 12915m | -6.8m/s | -48.9°C | 0.6% | 172.9hPa | 2.5V | 08:05:53 | 02:20:50 | 00:00:00 | |
| DO2JMG | 2026-09-02 05:52:15 | 52.68673 | 8.34209 | 115° | 93km/h | 12929m | -6.6m/s | -49°C | 0.6% | 172.5hPa | 2.6V | 08:05:53 | 02:20:48 | 00:00:00 | |
| HSKMA3-T | 2026-09-02 05:52:12 | 52.68704 | 8.34106 | 118° | 91km/h | 12949m | -6.8m/s | -49.2°C | 0.7% | 172hPa | 2.6V | 08:05:53 | 02:20:45 | 00:00:00 | |
| BIOWL1-15 | 2026-09-02 05:52:10 | 52.68726 | 8.34040 | 120° | 89km/h | 12963m | -6.4m/s | -49.3°C | 0.6% | 171.6hPa | 2.5V | 08:05:53 | 02:20:43 | 00:00:00 | |
| GOEST3-10 | 2026-09-02 05:52:10 | 52.68725 | 8.34040 | 120° | 89km/h | 12963m | -6.4m/s | -49.2°C | 3.7% | 171.6hPa | 2.6V | 00:00:00 | 02:20:43 | 00:00:00 | |
| DL1XH-15 | 2026-09-02 05:52:09 | 52.68796 | 8.33849 | 122° | 84km/h | 13004m | -6.7m/s | -49.2°C | 3.7% | 170.6hPa | 2.6V | 08:05:31 | 02:20:37 | 00:00:00 | |
| DL1XH-west | 2026-09-02 05:52:07 | 52.68760 | 8.33943 | 121° | 89km/h | 12984m | -6.6m/s | -49.3°C | 0.6% | 171.1hPa | 2.6V | 08:05:53 | 02:20:40 | 00:00:00 | |
| DJ2DS-15 | 2026-09-02 05:52:07 | 52.68772 | 8.33911 | 122° | 89km/h | 12990m | -6.9m/s | -49.3°C | 1.5% | 170.9hPa | 2.6V | 00:00:00 | 00:00:00 | 00:00:00 | |
| DM0DOS-11 | 2026-09-02 05:52:06 | 52.68818 | 8.33792 | 121° | 77km/h | 13017m | -6.3m/s | -49.2°C | 3.7% | 170.2hPa | 2.6V | 08:05:33 | 02:20:35 | 00:00:00 | |
| DF8AY | 2026-09-02 05:52:06 | 52.68772 | 8.33911 | 122° | 89km/h | 12990m | -6.9m/s | -49.3°C | 0.6% | 170.9hPa | 2.5V | 08:05:53 | 02:20:39 | 00:00:00 | |
| DO2JMG | 2026-09-02 05:52:04 | 52.68796 | 8.33849 | 122° | 84km/h | 13004m | -6.7m/s | -49.2°C | 0.6% | 170.6hPa | 2.6V | 08:05:53 | 02:20:37 | 00:00:00 | |
| HSKMA3-T | 2026-09-02 05:52:01 | 52.68827 | 8.33766 | 120° | 73km/h | 13024m | -6.6m/s | -49.2°C | 0.6% | 170hPa | 2.6V | 08:05:53 | 02:20:34 | 00:00:00 | |
| BIOWL1-15 | 2026-09-02 05:52:01 | 52.68844 | 8.33715 | 117° | 68km/h | 13037m | -6.6m/s | -49.3°C | 0.6% | 169.7hPa | 2.5V | 08:05:53 | 02:20:32 | 00:00:00 | |
| GOEST3-10 | 2026-09-02 05:52:00 | 52.68836 | 8.33740 | 119° | 68km/h | 13031m | -6.5m/s | -49.2°C | 3.6% | 169.8hPa | 2.5V | 00:00:00 | 02:20:33 | 00:00:00 | |
| DJ2KF-10 | 2026-09-02 05:51:59 | 52.68844 | 8.33715 | 117° | 68km/h | 13037m | -6.5m/s | -49.3°C | 3.7% | 169.6hPa | 2.6V | 00:00:00 | 02:20:32 | 00:00:00 | |
| DL3OBA | 2026-09-02 05:51:57 | 52.68851 | 8.33690 | 117° | 66km/h | 13044m | -6.5m/s | -49.4°C | 1.5% | 169.5hPa | 2.6V | 08:05:00 | 00:00:00 | 00:00:00 | |
| DM0DOS-11 | 2026-09-02 05:51:56 | 52.68895 | 8.33542 | 116° | 64km/h | 13084m | -6.9m/s | -49.5°C | 3.7% | 168.5hPa | 2.6V | 08:05:43 | 02:20:25 | 00:00:00 | |
| DL1XH-west | 2026-09-02 05:51:56 | 52.68865 | 8.33640 | 115° | 66km/h | 13057m | -6.7m/s | -49.5°C | 0.6% | 169hPa | 2.6V | 08:05:53 | 02:20:29 | 00:00:00 | |
| DF8AY | 2026-09-02 05:51:55 | 52.68909 | 8.33495 | 117° | 64km/h | 13098m | -7.1m/s | -49.5°C | 0.7% | 168.1hPa | 2.6V | 08:05:53 | 02:20:23 | 00:00:00 | |
| DO2JMG | 2026-09-02 05:51:54 | 52.68880 | 8.33591 | 117° | 66km/h | 13070m | -6.5m/s | -49.6°C | 0.7% | 168.8hPa | 2.5V | 08:05:53 | 02:20:27 | 00:00:00 | |
| HSKMA3-T | 2026-09-02 05:51:51 | 52.68902 | 8.33519 | 116° | 64km/h | 13091m | -7.2m/s | -49.5°C | 0.6% | 168.3hPa | 2.6V | 08:05:53 | 02:20:24 | 00:00:00 | |
| GOEST3-10 | 2026-09-02 05:51:50 | 52.68909 | 8.33495 | 117° | 69km/h | 13098m | -7.1m/s | -49.4°C | 3.8% | 168.1hPa | 2.6V | 00:00:00 | 02:20:23 | 00:00:00 | |
| DL1XH-15 | 2026-09-02 05:51:49 | 52.68959 | 8.33333 | 116° | 82km/h | 13139m | -6.7m/s | -49.7°C | 3.8% | 167hPa | 2.6V | 08:05:51 | 02:20:17 | 00:00:00 | |
| BIOWL1-15 | 2026-09-02 05:51:49 | 52.68917 | 8.33471 | 116° | 66km/h | 13105m | -7.1m/s | -49.5°C | 0.7% | 167.9hPa | 2.5V | 08:05:53 | 02:20:22 | 00:00:00 | |
| D01LWL | 2026-09-02 05:51:48 | 52.68924 | 8.33446 | 117° | 68km/h | 13112m | -7.0m/s | -49.5°C | 1.5% | 167.8hPa | 2.5V | 00:00:00 | 00:00:00 | 00:00:00 | |
| DM0DOS-11 | 2026-09-02 05:51:46 | 52.68978 | 8.33272 | 116° | 80km/h | 13153m | -6.8m/s | -49.7°C | 3.8% | 166.7hPa | 2.5V | 08:05:53 | 02:20:15 | 00:00:00 | |
| DO9LL-15 | 2026-09-02 05:51:46 | 52.68941 | 8.33392 | 118° | 66km/h | 13127m | -6.6m/s | -49.5°C | 3.8% | 167.3hPa | 2.6V | 00:00:00 | 02:20:19 | 00:00:00 | |
| DL1XH1-15 | 2026-09-02 05:51:45 | 52.68996 | 8.33212 | 116° | 80km/h | 13167m | -7.1m/s | -49.8°C | 3.9% | 166.3hPa | 2.6V | 08:05:55 | 02:20:13 | 00:00:00 | |
| DL1XH-west | 2026-09-02 05:51:45 | 52.68950 | 8.33364 | 117° | 80km/h | 13133m | -6.5m/s | -49.6°C | 0.7% | 167.2hPa | 2.6V | 08:05:53 | 02:20:18 | 00:00:00 | |
| DF8AY | 2026-09-02 05:51:44 | 52.68960 | 8.33333 | 116° | 82km/h | 13139m | -6.7m/s | -49.7°C | 0.7% | 167hPa | 2.6V | 08:05:53 | 02:20:17 | 00:00:00 | |
| DO2JMG | 2026-09-02 05:51:43 | 52.68969 | 8.33303 | 116° | 82km/h | 13146m | -6.8m/s | -49.7°C | 0.7% | 166.9hPa | 2.6V | 08:05:53 | 02:20:16 | 00:00:00 | |
| HSKMA3-T | 2026-09-02 05:51:41 | 52.68987 | 8.33242 | 116° | 80km/h | 13160m | -7m/s | -49.8°C | 0.7% | 166.6hPa | 2.5V | 08:06:44 | 02:20:14 | 00:00:00 | |
| DB0DAN | 2026-09-02 05:51:40 | 52.68996 | 8.33212 | 116° | 77km/h | 13167m | -7.1m/s | -49.8°C | 1.5% | 166.3hPa | 2.6V | 00:00:00 | 00:00:00 | 00:00:00 | |
| GOEST3-10 | 2026-09-02 05:51:40 | 52.68996 | 8.33212 | 117° | 75km/h | 13167m | -7.0m/s | -49.7°C | 3.9% | 166.3hPa | 2.6V | 00:00:00 | 02:20:13 | 00:00:00 | |
| DL1XH-15 | 2026-09-02 05:51:39 | 52.69047 | 8.33054 | 117° | 62km/h | 13208m | -6.7m/s | -49.6°C | 3.8% | 165.3hPa | 2.6V | 08:06:01 | 02:20:07 | 00:00:00 | |
| BIOWL1-15 | 2026-09-02 05:51:38 | 52.69014 | 8.33155 | 118° | 75km/h | 13181m | -7m/s | -49.8°C | 0.7% | 166hPa | 2.6V | 08:06:44 | 02:20:11 | 00:00:00 | |
| DO3DL | 2026-09-02 05:51:37 | 52.69014 | 8.33154 | 119° | 75km/h | 13181m | -7.0m/s | -49.8°C | 1.5% | 166.0hPa | 2.6V | 08:06:00 | 00:00:00 | 00:00:00 | |
| DM0DOS-11 | 2026-09-02 05:51:36 | 52.69061 | 8.33008 | 116° | 60km/h | 13222m | -7.1m/s | -49.4°C | 3.8% | 165hPa | 2.6V | 08:06:03 | 02:20:05 | 00:00:00 | |
| DL1XH-west | 2026-09-02 05:51:35 | 52.69039 | 8.33077 | 118° | 66km/h | 13201m | -6.7m/s | -49.7°C | 0.7% | 165.5hPa | 2.6V | 08:06:44 | 02:20:08 | 00:00:00 | |
| DF8AY | 2026-09-02 05:51:34 | 52.69047 | 8.33054 | 118° | 62km/h | 13208m | -6.7m/s | -49.6°C | 0.7% | 165.3hPa | 2.6V | 08:06:44 | 02:20:07 | 00:00:00 | |
| DO2JMG | 2026-09-02 05:51:32 | 52.69061 | 8.33008 | 116° | 60km/h | 13222m | -7.1m/s | -49.4°C | 0.7% | 165hPa | 2.6V | 08:06:44 | 02:20:05 | 00:00:00 | |
| DL1XH1-15 | 2026-09-02 05:51:32 | 52.69074 | 8.32964 | 115° | 58km/h | 13236m | -6.9m/s | -49.3°C | 3.7% | 164.6hPa | 2.5V | 08:06:05 | 02:20:03 | 00:00:00 | |
| HSKMA3-T | 2026-09-02 05:51:30 | 52.69074 | 8.32964 | 115° | 58km/h | 13236m | -6.9m/s | -49.3°C | 0.7% | 164.6hPa | 2.5V | 08:06:44 | 02:20:03 | 00:00:00 | |
| GOEST3-10 | 2026-09-02 05:51:30 | 52.69074 | 8.32964 | 116° | 57km/h | 13236m | -6.9m/s | -49.2°C | 3.7% | 164.5hPa | 2.5V | 00:00:00 | 02:20:03 | 00:00:00 | |
| DL1XH-15 | 2026-09-02 05:51:29 | 52.69105 | 8.32834 | 107° | 53km/h | 13276m | -7.1m/s | -49.4°C | 3.8% | 163.6hPa | 2.6V | 08:06:11 | 02:19:57 | 00:00:00 | |
| BIOWL1-15 | 2026-09-02 05:51:27 | 52.69092 | 8.32898 | 112° | 55km/h | 13256m | -6.7m/s | -49.4°C | 0.7% | 164.1hPa | 2.6V | 08:06:44 | 02:20:00 | 00:00:00 | |
| DL1CLM-18 | 2026-09-02 05:51:26 | 52.69092 | 8.32898 | 113° | 55km/h | 13256m | -6.7m/s | -49.4°C | 1.5% | 164.1hPa | 2.5V | 00:00:00 | 00:00:00 | 00:00:00 | |
| DB0DAN | 2026-09-02 05:51:25 | 52.69101 | 8.32855 | 109° | 51km/h | 13269m | -6.8m/s | -49.4°C | 1.5% | 163.73hPa | 2.5V | 00:00:00 | 00:00:00 | 00:00:00 | |
| DL1XH-west | 2026-09-02 05:51:25 | 52.69101 | 8.32855 | 109° | 53km/h | 13270m | -6.8m/s | -49.4°C | 0.7% | 163.7hPa | 2.5V | 08:06:44 | 02:19:58 | 00:00:00 | |
| AA1-15 | 2026-09-02 05:51:23 | 52.69109 | 8.32813 | 107° | 53km/h | 13283m | -7.1m/s | -49.3°C | 0.7% | 163.4hPa | 2.6V | 08:06:44 | 02:19:56 | 00:00:00 | |
| DO2JMG | 2026-09-02 05:51:21 | 52.69117 | 8.32772 | 108° | 53km/h | 13298m | -7.1m/s | -49.3°C | 0.8% | 163hPa | 2.6V | 08:06:44 | 02:19:54 | 00:00:00 | |
| HSKMA3-T | 2026-09-02 05:51:19 | 52.69126 | 8.32731 | 111° | 55km/h | 13312m | -6.8m/s | -49.3°C | 0.8% | 162.7hPa | 2.5V | 08:06:44 | 02:19:52 | 00:00:00 | |
| BIOWL1-15 | 2026-09-02 05:51:17 | 52.69137 | 8.32688 | 115° | 58km/h | 13326m | -6.7m/s | -49.3°C | 0.7% | 162.4hPa | 2.6V | 08:06:44 | 02:19:50 | 00:00:00 | |
| DL1XH-west | 2026-09-02 05:51:15 | 52.69150 | 8.32642 | 116° | 62km/h | 13340m | -7.3m/s | -49.3°C | 0.8% | 162hPa | 2.5V | 08:06:44 | 02:19:48 | 00:00:00 | |
| DD8BA-10 | 2026-09-02 05:51:13 | 52.69164 | 8.32595 | 116° | 57km/h | 13354m | -7.0m/s | -49.3°C | 3.8% | 161.6hPa | 2.6V | 00:00:00 | 00:00:00 | 00:00:00 | |
| DL1XH1-15 | 2026-09-02 05:51:12 | 52.69183 | 8.32527 | 114° | 58km/h | 13374m | -7m/s | -49.5°C | 3.9% | 161.1hPa | 2.6V | 08:06:25 | 02:19:43 | 00:00:00 | |
| AA1-15 | 2026-09-02 05:51:12 | 52.69171 | 8.32572 | 115° | 60km/h | 13361m | -6.9m/s | -49.4°C | 0.9% | 161.5hPa | 2.6V | 08:06:44 | 02:19:45 | 00:00:00 | |
| DO2JMG | 2026-09-02 05:51:11 | 52.69177 | 8.32549 | 115° | 60km/h | 13367m | -6.9m/s | -49.5°C | 0.8% | 161.3hPa | 2.6V | 08:06:44 | 02:19:44 | 00:00:00 | |
| DB0DAN | 2026-09-02 05:51:10 | 52.69183 | 8.32527 | 115° | 57km/h | 13374m | -7m/s | -49.5°C | 1.6% | 161.13hPa | 2.6V | 00:00:00 | 00:00:00 | 00:00:00 | |
| HSKMA3-T | 2026-09-02 05:51:09 | 52.69189 | 8.32505 | 114° | 58km/h | 13381m | -7.1m/s | -49.5°C | 0.9% | 161hPa | 2.5V | 08:06:44 | 02:19:42 | 00:00:00 | |
| BIOWL9-15 | 2026-09-02 05:51:08 | 52.69195 | 8.32483 | 113° | 55km/h | 13388m | -6.9m/s | -49.5°C | -1.0% | -1.0hPa | 2.5V | 00:00:00 | 00:00:00 | 00:00:00 | |
| DM0DOS-11 | 2026-09-02 05:51:06 | 52.69225 | 8.32355 | 109° | 55km/h | 13430m | -7.1m/s | -49.5°C | 3.9% | 159.7hPa | 2.5V | 08:06:33 | 02:19:35 | 00:00:00 | |
| BIOWL1-15 | 2026-09-02 05:51:06 | 52.69206 | 8.32441 | 111° | 55km/h | 13402m | -7m/s | -49.5°C | 0.9% | 160.5hPa | 2.6V | 08:06:44 | 02:19:39 | 00:00:00 | |
| DL1XH1-15 | 2026-09-02 05:51:05 | 52.69234 | 8.32312 | 109° | 55km/h | 13444m | -7m/s | -49.6°C | 3.9% | 159.4hPa | 2.6V | 08:06:35 | 02:19:33 | 00:00:00 | |
| DL1XH-west | 2026-09-02 05:51:04 | 52.69215 | 8.32398 | 110° | 55km/h | 13416m | -7m/s | -49.5°C | 0.9% | 160.1hPa | 2.6V | 08:06:44 | 02:19:37 | 00:00:00 | |
| DF8AY | 2026-09-02 05:51:02 | 52.69225 | 8.32355 | 109° | 55km/h | 13430m | -7.1m/s | -49.5°C | 0.9% | 159.7hPa | 2.5V | 08:06:44 | 02:19:35 | 00:00:00 | |
| AA1-15 | 2026-09-02 05:51:01 | 52.69229 | 8.32333 | 109° | 55km/h | 13437m | -7.2m/s | -49.6°C | 0.9% | 159.6hPa | 2.5V | 08:06:44 | 02:19:34 | 00:00:00 | |
| GOEST3-10 | 2026-09-02 05:51:00 | 52.69234 | 8.32312 | 110° | 57km/h | 13445m | -7.0m/s | -49.6°C | 3.9% | 159.3hPa | 2.6V | 08:06:00 | 02:19:33 | 00:00:00 | |
| DL1XH-15 | 2026-09-02 05:50:59 | 52.69270 | 8.32175 | 117° | 66km/h | 13486m | -6.9m/s | -49.7°C | 3.9% | 158.3hPa | 2.6V | 08:06:41 | 02:19:27 | 00:00:00 | |
| HSKMA3-T | 2026-09-02 05:50:58 | 52.69244 | 8.32268 | 112° | 57km/h | 13459m | -7m/s | -49.7°C | 0.9% | 159.1hPa | 2.6V | 08:06:44 | 02:19:31 | 00:00:00 | |
| BIOWL1-15 | 2026-09-02 05:50:58 | 52.69256 | 8.32222 | 115° | 62km/h | 13473m | -6.8m/s | -49.7°C | 1% | 158.8hPa | 2.6V | 08:06:44 | 02:19:29 | 00:00:00 | |
| SMARD9-15 | 2026-09-02 05:50:57 | 52.69249 | 8.32245 | 113° | 58km/h | 13466m | -7.1m/s | -49.7°C | 1.6% | 158.9hPa | 2.6V | 00:00:00 | 00:00:00 | 00:00:00 | |
| DM0DOS-11 | 2026-09-02 05:50:55 | 52.69286 | 8.32125 | 117° | 68km/h | 13501m | -7.3m/s | -49.8°C | 3.9% | 158hPa | 2.6V | 08:06:43 | 02:19:25 | 00:00:00 | |
| DL1XH-west | 2026-09-02 05:50:53 | 52.69278 | 8.32150 | 118° | 68km/h | 13494m | -7.2m/s | -49.7°C | 0.9% | 158.2hPa | 2.6V | 08:06:44 | 02:19:26 | 00:00:00 | |
| EDDB2-12 | 2026-09-02 05:50:53 | 52.69286 | 8.32125 | 117° | 66km/h | 13501m | -7.3m/s | -49.8°C | 1.6% | 158.0hPa | 2.6V | 00:00:00 | 00:00:00 | 00:00:00 | |
| DL1XH1-15 | 2026-09-02 05:50:52 | 52.69301 | 8.32076 | 116° | 64km/h | 13515m | -6.7m/s | -49.8°C | 3.9% | 157.7hPa | 2.6V | 08:06:45 | 02:19:23 | 00:00:00 | |
| DF8AY | 2026-09-02 05:50:51 | 52.69294 | 8.32100 | 117° | 66km/h | 13508m | -6.9m/s | -49.8°C | 1% | 157.8hPa | 2.6V | 08:06:44 | 02:19:24 | 00:00:00 | |
| DO2JMG | 2026-09-02 05:50:50 | 52.69301 | 8.32076 | 117° | 64km/h | 13515m | -6.7m/s | -49.8°C | 0.9% | 157.7hPa | 2.6V | 08:07:35 | 02:19:23 | 00:00:00 | |
| GOEST3-10 | 2026-09-02 05:50:50 | 52.69301 | 8.32076 | 117° | 62km/h | 13515m | -6.7m/s | -49.8°C | 3.9% | 157.6hPa | 2.6V | 00:00:00 | 02:19:23 | 00:00:00 | |
| DL1XH-15 | 2026-09-02 05:50:49 | 52.69339 | 8.31935 | 114° | 62km/h | 13557m | -7.1m/s | -50°C | 4% | 156.6hPa | 2.6V | 08:06:51 | 02:19:17 | 00:00:00 | |
| HSKMA3-T | 2026-09-02 05:50:48 | 52.69315 | 8.32029 | 114° | 62km/h | 13529m | -7.2m/s | -49.9°C | 1% | 157.4hPa | 2.6V | 08:07:35 | 02:19:21 | 00:00:00 | |
| BIOWL1-15 | 2026-09-02 05:50:47 | 52.69333 | 8.31958 | 114° | 62km/h | 13550m | -7.2m/s | -50°C | 1% | 156.9hPa | 2.6V | 08:07:35 | 02:19:18 | 00:00:00 | |
| D01LWL | 2026-09-02 05:50:46 | 52.69327 | 8.31982 | 112° | 60km/h | 13543m | -7.2m/s | -50.0°C | 1.6% | 157.0hPa | 2.6V | 00:00:00 | 00:00:00 | 00:00:00 | |
| DL1XH-west | 2026-09-02 05:50:43 | 52.69346 | 8.31911 | 116° | 64km/h | 13564m | -7m/s | -50.1°C | 1% | 156.5hPa | 2.6V | 08:07:35 | 02:19:16 | 00:00:00 | |
| AA1-15 | 2026-09-02 05:50:41 | 52.69361 | 8.31863 | 117° | 64km/h | 13578m | -7.2m/s | -50.1°C | 1.1% | 156.2hPa | 2.6V | 08:07:35 | 02:19:14 | 00:00:00 | |
| DF8AY | 2026-09-02 05:50:40 | 52.69368 | 8.31840 | 117° | 64km/h | 13586m | -7.1m/s | -50.1°C | 1% | 156hPa | 2.5V | 08:07:35 | 02:19:13 | 00:00:00 | |
| DL1XH-15 | 2026-09-02 05:50:39 | 52.69414 | 8.31697 | 118° | 64km/h | 13629m | -7.2m/s | -50°C | 4% | 154.9hPa | 2.6V | 08:07:01 | 02:19:07 | 00:00:00 | |
| HSKMA3-T | 2026-09-02 05:50:37 | 52.69391 | 8.31768 | 118° | 66km/h | 13607m | -7m/s | -49.9°C | 0.9% | 155.5hPa | 2.6V | 08:07:35 | 02:19:10 | 00:00:00 | |
| BIOWL1-15 | 2026-09-02 05:50:37 | 52.69406 | 8.31720 | 119° | 66km/h | 13621m | -7.1m/s | -50°C | 0.9% | 155.1hPa | 2.5V | 08:07:35 | 02:19:08 | 00:00:00 | |
| DL1XH-west | 2026-09-02 05:50:32 | 52.69429 | 8.31651 | 117° | 62km/h | 13643m | -7.1m/s | -50.2°C | 1% | 154.6hPa | 2.6V | 08:07:35 | 02:19:05 | 00:00:00 | |
| DO9LL-15 | 2026-09-02 05:50:32 | 52.69429 | 8.31651 | 118° | 60km/h | 13643m | -7.0m/s | -50.1°C | 4.0% | 154.6hPa | 2.6V | 00:00:00 | 02:19:05 | 00:00:00 | |
| DL1XH1-15 | 2026-09-02 05:50:31 | 52.69442 | 8.31606 | 114° | 58km/h | 13657m | -7.2m/s | -50.2°C | 4% | 154.3hPa | 2.6V | 08:07:05 | 02:19:03 | 00:00:00 | |
| DF8AY | 2026-09-02 05:50:30 | 52.69442 | 8.31606 | 115° | 58km/h | 13657m | -7.2m/s | -50.2°C | 1% | 154.3hPa | 2.6V | 08:07:35 | 02:19:03 | 00:00:00 | |
| DO2JMG | 2026-09-02 05:50:29 | 52.69448 | 8.31584 | 114° | 57km/h | 13664m | -7.4m/s | -50.2°C | 1% | 154.1hPa | 2.5V | 08:07:35 | 02:19:02 | 00:00:00 | |
| HSKMA3-T | 2026-09-02 05:50:26 | 52.69464 | 8.31518 | 109° | 57km/h | 13686m | -7.1m/s | -50.1°C | 1% | 153.6hPa | 2.6V | 08:07:35 | 02:18:59 | 00:00:00 | |
| DB0DAN | 2026-09-02 05:50:25 | 52.69468 | 8.31495 | 107° | 55km/h | 13693m | -7m/s | -50°C | 1.6% | 153.44hPa | 2.6V | 00:00:00 | 00:00:00 | 00:00:00 | |
| DL1XH1-15 | 2026-09-02 05:50:25 | 52.69487 | 8.31380 | 104° | 58km/h | 13728m | -7.2m/s | -50°C | 3.9% | 152.6hPa | 2.6V | 08:07:15 | 02:18:53 | 00:00:00 | |
| BIOWL1-15 | 2026-09-02 05:50:24 | 52.69472 | 8.31473 | 105° | 57km/h | 13700m | -7.1m/s | -50°C | 0.9% | 153.3hPa | 2.6V | 08:07:35 | 02:18:57 | 00:00:00 | |
| DL1XH-west | 2026-09-02 05:50:21 | 52.69483 | 8.31404 | 105° | 58km/h | 13721m | -7.2m/s | -50°C | 0.9% | 152.8hPa | 2.6V | 08:07:35 | 02:18:54 | 00:00:00 | |
| DF8AY | 2026-09-02 05:50:20 | 52.69487 | 8.31380 | 105° | 58km/h | 13728m | -7.2m/s | -50°C | 0.9% | 152.6hPa | 2.6V | 08:07:35 | 02:18:53 | 00:00:00 | |
| AA1-15 | 2026-09-02 05:50:19 | 52.69490 | 8.31357 | 105° | 58km/h | 13735m | -7.2m/s | -50.1°C | 0.9% | 152.5hPa | 2.6V | 08:07:35 | 02:18:52 | 00:00:00 | |
| HSKMA3-T | 2026-09-02 05:50:16 | 52.69501 | 8.31285 | 104° | 60km/h | 13757m | -7m/s | -50.3°C | 0.9% | 152hPa | 2.6V | 08:07:35 | 02:18:49 | 00:00:00 | |
| DM0DOS-11 | 2026-09-02 05:50:15 | 52.69516 | 8.31186 | 104° | 62km/h | 13785m | -7.2m/s | -50.4°C | 4% | 151.3hPa | 2.6V | 08:07:23 | 02:18:45 | 00:00:00 | |
| GOEST3-10 | 2026-09-02 05:50:15 | 52.69505 | 8.31260 | 104° | 62km/h | 13764m | -7.2m/s | -50.2°C | 3.9% | 151.8hPa | 2.6V | 08:07:00 | 00:00:00 | 00:00:00 | |
| DL3OBA | 2026-09-02 05:50:14 | 52.69505 | 8.31260 | 105° | 60km/h | 13764m | -7.2m/s | -50.3°C | 1.6% | 151.8hPa | 2.6V | 08:07:00 | 00:00:00 | 00:00:00 | |
| DD8BA-10 | 2026-09-02 05:50:13 | 52.69512 | 8.31211 | 104° | 62km/h | 13778m | -7.0m/s | -50.3°C | 4.0% | 151.4hPa | 2.6V | 00:00:00 | 00:00:00 | 00:00:00 | |
| DL1XH1-15 | 2026-09-02 05:50:12 | 52.69525 | 8.31137 | 107° | 62km/h | 13799m | -7m/s | -50.5°C | 4% | 151hPa | 2.6V | 08:07:25 | 02:18:43 | 00:00:00 | |
| DJ2DS-15 | 2026-09-02 05:50:12 | 52.69516 | 8.31186 | 105° | 64km/h | 13785m | -7.1m/s | -50.4°C | 4.0% | 151.3hPa | 2.6V | 00:00:00 | 02:18:45 | 00:00:00 | |
| DB0DAN | 2026-09-02 05:50:10 | 52.69525 | 8.31137 | 108° | 58km/h | 13799m | -7m/s | -50.5°C | 1.6% | 150.99hPa | 2.6V | 00:00:00 | 00:00:00 | 00:00:00 | |
| DL1XH-west | 2026-09-02 05:50:10 | 52.69525 | 8.31137 | 108° | 62km/h | 13799m | -7m/s | -50.5°C | 0.9% | 151hPa | 2.6V | 08:07:35 | 02:18:43 | 00:00:00 | |
| DO2JMG | 2026-09-02 05:50:09 | 52.69530 | 8.31112 | 110° | 62km/h | 13806m | -7m/s | -50.6°C | 1% | 150.8hPa | 2.6V | 08:07:35 | 02:18:42 | 00:00:00 | |
| AA1-15 | 2026-09-02 05:50:08 | 52.69535 | 8.31088 | 110° | 62km/h | 13813m | -7m/s | -50.6°C | 0.9% | 150.7hPa | 2.6V | 08:07:35 | 02:18:41 | 00:00:00 | |
| HSKMA3-T | 2026-09-02 05:50:06 | 52.69546 | 8.31040 | 110° | 62km/h | 13827m | -7.4m/s | -50.7°C | 0.9% | 150.3hPa | 2.6V | 08:07:35 | 02:18:39 | 00:00:00 | |
| BIOWL1-15 | 2026-09-02 05:50:03 | 52.69566 | 8.30942 | 106° | 62km/h | 13856m | -7.1m/s | -50.9°C | 0.9% | 149.6hPa | 2.6V | 08:07:35 | 02:18:35 | 00:00:00 | |
| DL1XH-west | 2026-09-02 05:49:59 | 52.69577 | 8.30864 | 102° | 66km/h | 13877m | -7m/s | -50.7°C | 0.9% | 149.2hPa | 2.6V | 08:08:26 | 02:18:32 | 00:00:00 | |
| DO2JMG | 2026-09-02 05:49:58 | 52.69581 | 8.30837 | 103° | 66km/h | 13884m | -6.9m/s | -50.7°C | 0.9% | 149hPa | 2.5V | 08:08:26 | 02:18:31 | 00:00:00 | |
| AA1-15 | 2026-09-02 05:49:58 | 52.69584 | 8.30810 | 103° | 66km/h | 13891m | -7m/s | -50.6°C | 0.9% | 148.8hPa | 2.5V | 08:08:26 | 02:18:30 | 00:00:00 | |
| DO3DL | 2026-09-02 05:49:57 | 52.69580 | 8.30837 | 104° | 66km/h | 13885m | -6.9m/s | -50.7°C | 1.6% | 149.0hPa | 2.6V | 08:08:00 | 00:00:00 | 00:00:00 | |
| DK9SH | 2026-09-02 05:49:56 | 52.69584 | 8.30810 | 104° | 66km/h | 13892m | -7.0m/s | -50.6°C | 1.6% | 148.8hPa | 2.6V | 08:08:00 | 00:00:00 | 00:00:00 | |
| DM0DOS-11 | 2026-09-02 05:49:56 | 52.69605 | 8.30676 | 104° | 66km/h | 13926m | -7m/s | -50.7°C | 4% | 148.1hPa | 2.6V | 08:07:43 | 02:18:25 | 00:00:00 | |
| DB0DAN | 2026-09-02 05:49:55 | 52.69592 | 8.30756 | 104° | 64km/h | 13905m | -7m/s | -50.7°C | 1.5% | 148.53hPa | 2.6V | 00:00:00 | 00:00:00 | 00:00:00 | |
| HSKMA3-T | 2026-09-02 05:49:55 | 52.69592 | 8.30756 | 104° | 68km/h | 13905m | -7m/s | -50.7°C | 0.8% | 148.5hPa | 2.6V | 08:08:26 | 02:18:28 | 00:00:00 | |
| BIOWL1-15 | 2026-09-02 05:49:54 | 52.69605 | 8.30676 | 104° | 66km/h | 13926m | -7m/s | -50.7°C | 0.8% | 148.1hPa | 2.6V | 08:08:26 | 02:18:25 | 00:00:00 | |
| EDDB2-12 | 2026-09-02 05:49:51 | 52.69613 | 8.30624 | 104° | 62km/h | 13940m | -7.2m/s | -50.8°C | 1.5% | 147.8hPa | 2.6V | 00:00:00 | 00:00:00 | 00:00:00 | |
| GOEST3-10 | 2026-09-02 05:49:50 | 52.69613 | 8.30623 | 105° | 62km/h | 13940m | -7.1m/s | -50.8°C | 4.0% | 147.7hPa | 2.6V | 00:00:00 | 02:18:23 | 00:00:00 | |
| DL1XH-15 | 2026-09-02 05:49:49 | 52.69637 | 8.30474 | 101° | 66km/h | 13985m | -7.3m/s | -50.6°C | 4% | 146.7hPa | 2.6V | 08:07:51 | 02:18:17 | 00:00:00 | |
| DL1XH-west | 2026-09-02 05:49:49 | 52.69617 | 8.30598 | 106° | 62km/h | 13947m | -7m/s | -50.9°C | 0.9% | 147.5hPa | 2.6V | 08:08:26 | 02:18:22 | 00:00:00 | |
| DF8AY | 2026-09-02 05:49:48 | 52.69621 | 8.30574 | 106° | 60km/h | 13955m | -7.3m/s | -50.9°C | 0.8% | 147.4hPa | 2.6V | 08:08:26 | 02:18:21 | 00:00:00 | |
| DO2JMG | 2026-09-02 05:49:47 | 52.69625 | 8.30550 | 106° | 60km/h | 13962m | -7.6m/s | -50.9°C | 0.8% | 147.2hPa | 2.6V | 08:08:26 | 02:18:20 | 00:00:00 | |
| AA1-15 | 2026-09-02 05:49:46 | 52.69629 | 8.30526 | 105° | 62km/h | 13970m | -7.7m/s | -50.8°C | 0.9% | 147.1hPa | 2.6V | 08:08:26 | 02:18:19 | 00:00:00 | |
| DM0DOS-11 | 2026-09-02 05:49:46 | 52.69643 | 8.30417 | 99° | 71km/h | 13999m | -7.3m/s | -50.5°C | 3.9% | 146.3hPa | 2.6V | 08:07:53 | 02:18:15 | 00:00:00 | |
| HSKMA3-T | 2026-09-02 05:49:44 | 52.69637 | 8.30474 | 102° | 66km/h | 13985m | -7.3m/s | -50.7°C | 0.8% | 146.7hPa | 2.6V | 08:08:26 | 02:18:17 | 00:00:00 | |
| BIOWL1-15 | 2026-09-02 05:49:41 | 52.69646 | 8.30388 | 100° | 73km/h | 14006m | -7.4m/s | -50.6°C | 0.8% | 146.2hPa | 2.6V | 08:08:26 | 02:18:14 | 00:00:00 | |
| GOEST3-10 | 2026-09-02 05:49:40 | 52.69650 | 8.30357 | 102° | 77km/h | 14014m | -7.1m/s | -50.5°C | 3.9% | 146.0hPa | 2.6V | 00:00:00 | 02:18:13 | 00:00:00 | |
| DL1XH-15 | 2026-09-02 05:49:39 | 52.69687 | 8.30173 | 114° | 80km/h | 14055m | -7.2m/s | -50.9°C | 3.9% | 145.1hPa | 2.6V | 08:08:01 | 02:18:07 | 00:00:00 | |
| DL1XH-west | 2026-09-02 05:49:38 | 52.69659 | 8.30295 | 106° | 78km/h | 14028m | -7.1m/s | -50.7°C | 0.8% | 145.8hPa | 2.6V | 08:08:26 | 02:18:11 | 00:00:00 | |
| DF8AY | 2026-09-02 05:49:37 | 52.69664 | 8.30264 | 109° | 78km/h | 14035m | -6.6m/s | -50.8°C | 0.8% | 145.6hPa | 2.6V | 08:08:26 | 02:18:10 | 00:00:00 | |
| SONCRA | 2026-09-02 05:49:37 | 52.69664 | 8.30264 | 108° | 77km/h | 14035m | -6.6m/s | -50.8°C | 1.5% | 145.6hPa | 2.6V | 00:00:00 | 00:00:00 | 00:00:00 | |
| DK9SH | 2026-09-02 05:49:36 | 52.69664 | 8.30264 | 110° | 78km/h | 14035m | -6.6m/s | -50.8°C | 1.5% | 145.6hPa | 2.6V | 08:08:00 | 00:00:00 | 00:00:00 | |
| DL1XH1-15 | 2026-09-02 05:49:35 | 52.69717 | 8.30050 | 110° | 80km/h | 14084m | -7.3m/s | -51°C | 4% | 144.5hPa | 2.6V | 08:08:05 | 02:18:03 | 00:00:00 | |
| AA1-15 | 2026-09-02 05:49:35 | 52.69679 | 8.30203 | 114° | 80km/h | 14048m | -6.9m/s | -50.9°C | 0.8% | 145.3hPa | 2.5V | 08:08:26 | 02:18:08 | 00:00:00 | |
| HSKMA3-T | 2026-09-02 05:49:34 | 52.69687 | 8.30173 | 114° | 80km/h | 14055m | -7.2m/s | -50.9°C | 0.7% | 145.1hPa | 2.6V | 08:08:26 | 02:18:07 | 00:00:00 | |
| BIOWL1-15 | 2026-09-02 05:49:31 | 52.69710 | 8.30081 | 111° | 80km/h | 14077m | -7.1m/s | -51°C | 0.8% | 144.7hPa | 2.6V | 08:08:26 | 02:18:04 | 00:00:00 | |
| DO9LL-15 | 2026-09-02 05:49:31 | 52.69710 | 8.30081 | 112° | 66km/h | 14077m | -7.0m/s | -50.9°C | 4.0% | 144.6hPa | 2.6V | 00:00:00 | 02:18:04 | 00:00:00 | |
| GOEST3-10 | 2026-09-02 05:49:30 | 52.69718 | 8.30049 | 111° | 78km/h | 14084m | -7.3m/s | -50.9°C | 4.0% | 144.5hPa | 2.6V | 08:08:00 | 02:18:03 | 00:00:00 | |
| DL1XH-15 | 2026-09-02 05:49:29 | 52.69752 | 8.29863 | 102° | 73km/h | 14128m | -7.5m/s | -50.9°C | 4% | 143.5hPa | 2.6V | 08:08:11 | 02:17:57 | 00:00:00 | |
| DL1XH-west | 2026-09-02 05:49:27 | 52.69737 | 8.29956 | 107° | 78km/h | 14106m | -7.3m/s | -50.9°C | 0.7% | 144hPa | 2.6V | 08:08:26 | 02:18:00 | 00:00:00 | |
| HSKMA3-T | 2026-09-02 05:49:24 | 52.69752 | 8.29863 | 103° | 73km/h | 14128m | -7.5m/s | -50.9°C | 0.8% | 143.5hPa | 2.6V | 08:08:26 | 02:17:57 | 00:00:00 | |
| DO2SHX-10 | 2026-09-02 05:49:24 | 52.69752 | 8.29863 | 103° | 73km/h | 14128m | -7.4m/s | -50.8°C | 4.0% | 143.4hPa | 2.6V | 00:00:00 | 02:17:57 | 00:00:00 | |
| DD8BA-10 | 2026-09-02 05:49:23 | 52.69756 | 8.29834 | 101° | 58km/h | 14136m | -7.2m/s | -50.8°C | 3.9% | 143.3hPa | 2.6V | 00:00:00 | 00:00:00 | 00:00:00 | |
| DF5WG-10 | 2026-09-02 05:49:22 | 52.69759 | 8.29806 | 100° | 57km/h | 14143m | -7.2m/s | -50.8°C | 3.9% | 143.1hPa | 2.6V | 00:00:00 | 02:17:55 | 00:00:00 | |
| DO2SHX-10 | 2026-09-02 05:49:21 | 52.69762 | 8.29779 | 99° | 60km/h | 14150m | -7.2m/s | -50.9°C | 4.0% | 143.0hPa | 2.6V | 00:00:00 | 02:17:54 | 00:00:00 | |
| BIOWL1-15 | 2026-09-02 05:49:21 | 52.69762 | 8.29779 | 99° | 64km/h | 14150m | -7.2m/s | -50.9°C | 0.7% | 143hPa | 2.6V | 08:08:26 | 02:17:54 | 00:00:00 | |
| EDDB2-12 | 2026-09-02 05:49:20 | 52.69766 | 8.29730 | 98° | 55km/h | 14164m | -6.9m/s | -51.0°C | 1.5% | 142.7hPa | 2.6V | 00:00:00 | 00:00:00 | 00:00:00 | |
| DL1XH-15 | 2026-09-02 05:49:19 | 52.69776 | 8.29621 | 96° | 53km/h | 14200m | -7.6m/s | -51°C | 3.9% | 141.9hPa | 2.6V | 08:08:21 | 02:17:47 | 00:00:00 | |
| DF8AY | 2026-09-02 05:49:16 | 52.69780 | 8.29550 | 94° | 62km/h | 14223m | -7.7m/s | -51°C | 0.7% | 141.4hPa | 2.6V | 08:08:26 | 02:17:44 | 00:00:00 | |
| DM0DOS-11 | 2026-09-02 05:49:16 | 52.69778 | 8.29575 | 93° | 58km/h | 14216m | -7.7m/s | -51°C | 3.9% | 141.6hPa | 2.6V | 08:08:23 | 02:17:45 | 00:00:00 | |
| DL1XH-west | 2026-09-02 05:49:16 | 52.69773 | 8.29664 | 99° | 51km/h | 14185m | -7.4m/s | -51°C | 0.7% | 142.3hPa | 2.6V | 08:08:26 | 02:17:49 | 00:00:00 | |
| HSKMA3-T | 2026-09-02 05:49:13 | 52.69777 | 8.29598 | 95° | 55km/h | 14208m | -7.5m/s | -51°C | 0.7% | 141.7hPa | 2.6V | 08:08:26 | 02:17:46 | 00:00:00 | |
| DD8BA-10 | 2026-09-02 05:49:13 | 52.69777 | 8.29598 | 95° | 71km/h | 14208m | -7.4m/s | -50.9°C | 3.9% | 141.7hPa | 2.6V | 00:00:00 | 00:00:00 | 00:00:00 | |
| DO2SHX-10 | 2026-09-02 05:49:12 | 52.69779 | 8.29575 | 94° | 64km/h | 14216m | -7.7m/s | -50.9°C | 3.9% | 141.5hPa | 2.6V | 00:00:00 | 02:17:45 | 00:00:00 | |
| SMARD9-10 | 2026-09-02 05:49:11 | 52.69780 | 8.29550 | 95° | 62km/h | 14223m | -7.7m/s | -51.0°C | 1.4% | 141.4hPa | 2.6V | 00:00:00 | 00:00:00 | 00:00:00 | |
| GOEST3-10 | 2026-09-02 05:49:10 | 52.69780 | 8.29523 | 94° | 73km/h | 14231m | -7.5m/s | -50.9°C | 3.9% | 141.2hPa | 2.6V | 00:00:00 | 02:17:43 | 00:00:00 | |
| BIOWL1-15 | 2026-09-02 05:49:10 | 52.69781 | 8.29523 | 94° | 66km/h | 14231m | -7.5m/s | -50.9°C | 0.7% | 141.3hPa | 2.6V | 08:08:26 | 02:17:43 | 00:00:00 | |
| DL1XH-15 | 2026-09-02 05:49:09 | 52.69797 | 8.29334 | 101° | 82km/h | 14274m | -7.3m/s | -50.9°C | 4% | 140.3hPa | 2.6V | 08:08:31 | 02:17:37 | 00:00:00 | |
| DO2SHX-10 | 2026-09-02 05:49:08 | 52.69784 | 8.29465 | 97° | 77km/h | 14246m | -7.0m/s | -50.9°C | 3.9% | 140.9hPa | 2.6V | 00:00:00 | 02:17:41 | 00:00:00 | |
| DM0DOS-11 | 2026-09-02 05:49:06 | 52.69805 | 8.29266 | 101° | 82km/h | 14288m | -7.3m/s | -50.9°C | 3.9% | 140hPa | 2.6V | 08:08:33 | 02:17:35 | 00:00:00 | |
| DL1XH-west | 2026-09-02 05:49:06 | 52.69789 | 8.29401 | 99° | 80km/h | 14259m | -7m/s | -51°C | 0.7% | 140.7hPa | 2.6V | 08:09:17 | 02:17:39 | 00:00:00 | |
| DO2JMG | 2026-09-02 05:49:05 | 52.69793 | 8.29368 | 101° | 82km/h | 14266m | -7.1m/s | -50.9°C | 0.7% | 140.5hPa | 2.6V | 08:09:17 | 02:17:38 | 00:00:00 | |
| DL1XH1-15 | 2026-09-02 05:49:05 | 52.69814 | 8.29198 | 102° | 84km/h | 14303m | -7.1m/s | -50.9°C | 3.9% | 139.7hPa | 2.6V | 08:08:35 | 02:17:33 | 00:00:00 | |
| DF8AY | 2026-09-02 05:49:04 | 52.69797 | 8.29334 | 102° | 82km/h | 14274m | -7.3m/s | -50.9°C | 0.7% | 140.3hPa | 2.6V | 08:09:17 | 02:17:37 | 00:00:00 | |
| AA1-15 | 2026-09-02 05:49:04 | 52.69801 | 8.29300 | 102° | 84km/h | 14281m | -7.3m/s | -50.9°C | 0.7% | 140.2hPa | 2.6V | 08:09:17 | 02:17:36 | 00:00:00 | |
| HSKMA3-T | 2026-09-02 05:49:02 | 52.69805 | 8.29266 | 102° | 82km/h | 14288m | -7.3m/s | -50.9°C | 0.7% | 140hPa | 2.6V | 08:09:17 | 02:17:35 | 00:00:00 | |
| BIOWL1-15 | 2026-09-02 05:49:01 | 52.69814 | 8.29198 | 103° | 84km/h | 14303m | -7.1m/s | -50.9°C | 0.7% | 139.7hPa | 2.6V | 08:09:17 | 02:17:33 | 00:00:00 | |
| HTAHTA | 2026-09-02 05:49:01 | 52.69810 | 8.29232 | 102° | 84km/h | 14296m | -7.0m/s | -50.9°C | 1.4% | 139.8hPa | 2.6V | 00:00:00 | 00:00:00 | 00:00:00 | |
| GOEST3-10 | 2026-09-02 05:49:00 | 52.69814 | 8.29198 | 103° | 86km/h | 14303m | -7.1m/s | -50.8°C | 3.9% | 139.7hPa | 2.6V | 00:00:00 | 02:17:33 | 00:00:00 | |
| DL1XH-15 | 2026-09-02 05:48:59 | 52.69844 | 8.28989 | 104° | 88km/h | 14346m | -7.5m/s | -51°C | 4% | 138.8hPa | 2.6V | 08:08:41 | 02:17:27 | 00:00:00 | |
| DD1CC2-15 | 2026-09-02 05:48:59 | 52.69819 | 8.29164 | 104° | 84km/h | 14310m | -7.1m/s | -50.9°C | 1.4% | 139.6hPa | 2.6V | 08:09:00 | 00:00:00 | 00:00:00 | |
| DL1CLM-18 | 2026-09-02 05:48:58 | 52.69819 | 8.29164 | 104° | 84km/h | 14310m | -7.1m/s | -50.9°C | 1.4% | 139.6hPa | 2.6V | 00:00:00 | 00:00:00 | 00:00:00 | |
| DO9LL-15 | 2026-09-02 05:48:57 | 52.69829 | 8.29094 | 103° | 68km/h | 14324m | -7.2m/s | -51.0°C | 4.0% | 139.2hPa | 2.6V | 00:00:00 | 02:17:30 | 00:00:00 | |
| DM0DOS-11 | 2026-09-02 05:48:56 | 52.69855 | 8.28918 | 106° | 88km/h | 14362m | -7.6m/s | -51°C | 4% | 138.5hPa | 2.6V | 08:08:43 | 02:17:25 | 00:00:00 | |
| DB0DAN | 2026-09-02 05:48:55 | 52.69838 | 8.29024 | 103° | 84km/h | 14339m | -7.6m/s | -51.1°C | 1.5% | 138.97hPa | 2.6V | 00:00:00 | 00:00:00 | 00:00:00 | |
| DL1XH-west | 2026-09-02 05:48:55 | 52.69838 | 8.29024 | 103° | 88km/h | 14339m | -7.6m/s | -51.1°C | 0.8% | 139hPa | 2.6V | 08:09:17 | 02:17:28 | 00:00:00 | |
| DF8AY | 2026-09-02 05:48:54 | 52.69844 | 8.28989 | 104° | 88km/h | 14346m | -7.5m/s | -51.1°C | 0.7% | 138.8hPa | 2.6V | 08:09:17 | 02:17:27 | 00:00:00 | |
| AA1-15 | 2026-09-02 05:48:52 | 52.69855 | 8.28918 | 107° | 88km/h | 14362m | -7.6m/s | -51°C | 0.7% | 138.5hPa | 2.6V | 08:09:17 | 02:17:25 | 00:00:00 | |
| HSKMA3-T | 2026-09-02 05:48:51 | 52.69862 | 8.28884 | 109° | 86km/h | 14369m | -7.6m/s | -51°C | 0.7% | 138.3hPa | 2.6V | 08:09:17 | 02:17:24 | 00:00:00 | |
| BIOWL1-15 | 2026-09-02 05:48:50 | 52.69869 | 8.28851 | 111° | 84km/h | 14377m | -7.5m/s | -50.9°C | 0.7% | 138.1hPa | 2.6V | 08:09:17 | 02:17:23 | 00:00:00 | |
| EDDB2-12 | 2026-09-02 05:48:49 | 52.69885 | 8.28789 | 114° | 77km/h | 14391m | -7.2m/s | -50.9°C | 1.4% | 137.8hPa | 2.6V | 00:00:00 | 00:00:00 | 00:00:00 | |
| DL3AQ-11 | 2026-09-02 05:48:48 | 52.69893 | 8.28760 | 115° | 75km/h | 14398m | -7.3m/s | -50.9°C | 1.4% | 137.7hPa | 2.6V | 00:00:00 | 00:00:00 | 00:00:00 | |
| DM0DOS-11 | 2026-09-02 05:48:46 | 52.69935 | 8.28630 | 118° | 69km/h | 14435m | -7.5m/s | -51.1°C | 3.9% | 136.9hPa | 2.6V | 08:08:53 | 02:17:15 | 00:00:00 | |
| DL1XH-west | 2026-09-02 05:48:45 | 52.69910 | 8.28706 | 118° | 69km/h | 14413m | -7.3m/s | -51°C | 0.7% | 137.4hPa | 2.5V | 08:09:17 | 02:17:18 | 00:00:00 | |
| DF8AY | 2026-09-02 05:48:43 | 52.69927 | 8.28655 | 118° | 69km/h | 14427m | -7.4m/s | -51.1°C | 0.7% | 137.1hPa | 2.6V | 08:09:17 | 02:17:16 | 00:00:00 | |
| AA1-15 | 2026-09-02 05:48:41 | 52.69943 | 8.28605 | 119° | 69km/h | 14443m | -7.6m/s | -51.1°C | 0.7% | 136.7hPa | 2.6V | 08:09:17 | 02:17:14 | 00:00:00 | |
| HSKMA3-T | 2026-09-02 05:48:40 | 52.69952 | 8.28579 | 120° | 69km/h | 14450m | -7.4m/s | -51°C | 0.7% | 136.6hPa | 2.6V | 08:09:17 | 02:17:13 | 00:00:00 | |
| BIOWL1-15 | 2026-09-02 05:48:39 | 52.69961 | 8.28554 | 120° | 69km/h | 14458m | -7.5m/s | -51°C | 0.6% | 136.4hPa | 2.6V | 08:09:17 | 02:17:12 | 00:00:00 | |
| WEDDY | 2026-09-02 05:48:38 | 52.69969 | 8.28530 | 122° | 68km/h | 14465m | -7.5m/s | -51.0°C | 1.4% | 136.3hPa | 2.6V | 00:00:00 | 00:00:00 | 00:00:00 | |
| DB0ND-19 | 2026-09-02 05:48:37 | 52.69987 | 8.28482 | 120° | 64km/h | 14480m | -7.4m/s | -51.1°C | 1.4% | 136.0hPa | 2.6V | 00:00:00 | 00:00:00 | 00:00:00 | |
| DM0DOS-11 | 2026-09-02 05:48:36 | 52.70017 | 8.28393 | 118° | 58km/h | 14509m | -7.5m/s | -51.2°C | 4% | 135.3hPa | 2.6V | 08:09:03 | 02:17:05 | 00:00:00 | |
| DL1XH1-15 | 2026-09-02 05:48:35 | 52.70031 | 8.28350 | 118° | 58km/h | 14524m | -7.6m/s | -51.2°C | 3.9% | 135hPa | 2.6V | 08:09:05 | 02:17:03 | 00:00:00 | |
| DL1XH-west | 2026-09-02 05:48:34 | 52.70003 | 8.28436 | 119° | 62km/h | 14494m | -7m/s | -51.1°C | 0.6% | 135.7hPa | 2.6V | 08:09:17 | 02:17:07 | 00:00:00 | |
| DF8AY | 2026-09-02 05:48:33 | 52.70010 | 8.28414 | 118° | 60km/h | 14502m | -7.5m/s | -51.2°C | 0.7% | 135.5hPa | 2.6V | 08:09:17 | 02:17:06 | 00:00:00 | |
| AA1-15 | 2026-09-02 05:48:30 | 52.70031 | 8.28350 | 118° | 58km/h | 14524m | -7.6m/s | -51.2°C | 0.6% | 135hPa | 2.6V | 08:09:17 | 02:17:03 | 00:00:00 | |
| BIOWL1-15 | 2026-09-02 05:48:30 | 52.70045 | 8.28308 | 120° | 58km/h | 14539m | -7.3m/s | -51.2°C | 0.7% | 134.7hPa | 2.6V | 08:09:17 | 02:17:01 | 00:00:00 | |
| HSKMA3-T | 2026-09-02 05:48:29 | 52.70038 | 8.28329 | 119° | 58km/h | 14532m | -7.6m/s | -51.3°C | 0.7% | 134.9hPa | 2.6V | 08:09:17 | 02:17:02 | 00:00:00 | |
| DM0DOS-11 | 2026-09-02 05:48:28 | 52.70090 | 8.28181 | 121° | 58km/h | 14583m | -7.4m/s | -50.8°C | 3.9% | 133.8hPa | 2.6V | 08:09:13 | 02:16:55 | 00:00:00 | |
| DL1XH1-15 | 2026-09-02 05:48:25 | 52.70105 | 8.28140 | 122° | 58km/h | 14598m | -7.4m/s | -50.8°C | 3.9% | 133.5hPa | 2.6V | 08:09:15 | 02:16:53 | 00:00:00 | |
| DL1XH-west | 2026-09-02 05:48:24 | 52.70075 | 8.28223 | 120° | 58km/h | 14569m | -7.5m/s | -51°C | 0.7% | 134.1hPa | 2.6V | 08:09:17 | 02:16:57 | 00:00:00 | |
| DO2JMG | 2026-09-02 05:48:23 | 52.70082 | 8.28202 | 121° | 58km/h | 14576m | -7.4m/s | -50.9°C | 0.7% | 133.9hPa | 2.6V | 08:09:17 | 02:16:56 | 00:00:00 | |
| DF8AY | 2026-09-02 05:48:22 | 52.70090 | 8.28181 | 121° | 58km/h | 14583m | -7.4m/s | -50.8°C | 0.6% | 133.8hPa | 2.6V | 08:09:17 | 02:16:55 | 00:00:00 | |
| AA1-15 | 2026-09-02 05:48:19 | 52.70113 | 8.28120 | 123° | 58km/h | 14606m | -7.5m/s | -50.9°C | 0.6% | 133.3hPa | 2.6V | 08:09:17 | 02:16:52 | 00:00:00 | |
| HSKMA3-T | 2026-09-02 05:48:18 | 52.70121 | 8.28099 | 124° | 60km/h | 14614m | -7.6m/s | -50.9°C | 0.6% | 133.2hPa | 2.6V | 08:09:17 | 02:16:51 | 00:00:00 | |
| DD1CC2-15 | 2026-09-02 05:48:17 | 52.70121 | 8.28099 | 125° | 60km/h | 14614m | -7.6m/s | -50.9°C | 1.4% | 133.2hPa | 2.6V | 08:09:00 | 00:00:00 | 00:00:00 | |
| DL1XH1-15 | 2026-09-02 05:48:15 | 52.70192 | 8.27933 | 122° | 53km/h | 14675m | -7.5m/s | -51.2°C | 4% | 132hPa | 2.6V | 08:09:25 | 02:16:43 | 00:00:00 | |
| DL1XH-west | 2026-09-02 05:48:13 | 52.70167 | 8.27992 | 125° | 62km/h | 14652m | -7.8m/s | -51.2°C | 0.7% | 132.4hPa | 2.6V | 08:10:08 | 02:16:46 | 00:00:00 | |
| DF8AY | 2026-09-02 05:48:12 | 52.70175 | 8.27972 | 125° | 58km/h | 14660m | -7.6m/s | -51.3°C | 0.7% | 132.2hPa | 2.6V | 08:10:08 | 02:16:45 | 00:00:00 | |
| DO3DL | 2026-09-02 05:48:12 | 52.70175 | 8.27971 | 126° | 58km/h | 14660m | -7.6m/s | -51.3°C | 1.4% | 132.2hPa | 2.6V | 08:10:00 | 00:00:00 | 00:00:00 | |
| DF5WG-10 | 2026-09-02 05:48:11 | 52.70184 | 8.27952 | 125° | 49km/h | 14667m | -7.4m/s | -51.2°C | 4.0% | 132.1hPa | 2.6V | 00:00:00 | 02:16:44 | 00:00:00 | |
| GOEST3-10 | 2026-09-02 05:48:10 | 52.70191 | 8.27933 | 123° | 51km/h | 14675m | -7.4m/s | -51.1°C | 4.0% | 131.9hPa | 2.6V | 00:00:00 | 02:16:43 | 00:00:00 | |
| DL1XH-15 | 2026-09-02 05:48:09 | 52.70227 | 8.27824 | 114° | 47km/h | 14719m | -7.7m/s | -50.4°C | 3.8% | 131hPa | 2.6V | 08:09:31 | 02:16:37 | 00:00:00 | |
| AA1-15 | 2026-09-02 05:48:08 | 52.70205 | 8.27896 | 120° | 51km/h | 14689m | -7.3m/s | -50.6°C | 0.5% | 131.6hPa | 2.6V | 08:10:08 | 02:16:41 | 00:00:00 | |
| BIOWL1-15 | 2026-09-02 05:48:07 | 52.70211 | 8.27878 | 118° | 49km/h | 14697m | -7.6m/s | -50.5°C | 0.5% | 131.5hPa | 2.6V | 08:10:08 | 02:16:40 | 00:00:00 | |
| DB0ND-19 | 2026-09-02 05:48:06 | 52.70217 | 8.27860 | 115° | 47km/h | 14704m | -7.5m/s | -50.5°C | 1.3% | 131.4hPa | 2.6V | 00:00:00 | 00:00:00 | 00:00:00 | |
| DL1XH1-15 | 2026-09-02 05:48:05 | 52.70245 | 8.27752 | 109° | 47km/h | 14750m | -7.5m/s | -50.4°C | 3.8% | 130.4hPa | 2.6V | 08:09:35 | 02:16:33 | 00:00:00 | |
| DL1XH-west | 2026-09-02 05:48:02 | 52.70236 | 8.27788 | 113° | 46km/h | 14735m | -7.7m/s | -50.3°C | 0.6% | 130.7hPa | 2.6V | 08:10:08 | 02:16:35 | 00:00:00 | |
| DF8AY | 2026-09-02 05:48:01 | 52.70240 | 8.27770 | 111° | 46km/h | 14743m | -7.5m/s | -50.3°C | 0.5% | 130.6hPa | 2.6V | 08:10:08 | 02:16:34 | 00:00:00 | |
| DF5WG-10 | 2026-09-02 05:48:01 | 52.70240 | 8.27770 | 112° | 46km/h | 14743m | -7.5m/s | -50.3°C | 3.8% | 130.5hPa | 2.6V | 08:09:00 | 02:16:34 | 00:00:00 | |
| GOEST3-10 | 2026-09-02 05:48:00 | 52.70244 | 8.27752 | 110° | 47km/h | 14750m | -7.5m/s | -50.3°C | 3.8% | 130.4hPa | 2.6V | 08:09:00 | 02:16:33 | 00:00:00 | |
| DL1XH-15 | 2026-09-02 05:47:59 | 52.70262 | 8.27636 | 100° | 47km/h | 14796m | -7.8m/s | -50.4°C | 3.7% | 129.5hPa | 2.6V | 08:09:41 | 02:16:27 | 00:00:00 | |
| BIOWL1-15 | 2026-09-02 05:47:59 | 52.70255 | 8.27695 | 103° | 47km/h | 14772m | -7.4m/s | -50.5°C | 0.5% | 130hPa | 2.6V | 08:10:08 | 02:16:30 | 00:00:00 | |
| AA1-15 | 2026-09-02 05:47:58 | 52.70252 | 8.27715 | 105° | 47km/h | 14765m | -7.2m/s | -50.4°C | 0.5% | 130.1hPa | 2.6V | 08:10:08 | 02:16:31 | 00:00:00 | |
| HSKMA3-T | 2026-09-02 05:47:56 | 52.70257 | 8.27676 | 102° | 49km/h | 14780m | -7.6m/s | -50.5°C | 0.5% | 129.8hPa | 2.6V | 08:10:08 | 02:16:29 | 00:00:00 | |
| DB0DAN | 2026-09-02 05:47:55 | 52.70260 | 8.27656 | 102° | 46km/h | 14788m | -7.9m/s | -50.5°C | 1.3% | 129.74hPa | 2.6V | 00:00:00 | 00:00:00 | 00:00:00 | |
| DL1XH1-15 | 2026-09-02 05:47:55 | 52.70269 | 8.27564 | 100° | 40km/h | 14826m | -7.5m/s | -50.6°C | 3.8% | 128.9hPa | 2.6V | 08:09:45 | 02:16:23 | 00:00:00 | |
| DL1XH-west | 2026-09-02 05:47:52 | 52.70266 | 8.27598 | 100° | 44km/h | 14811m | -7.6m/s | -50.4°C | 0.4% | 129.2hPa | 2.6V | 08:10:08 | 02:16:25 | 00:00:00 | |
| DO2JMG | 2026-09-02 05:47:51 | 52.70268 | 8.27581 | 99° | 42km/h | 14819m | -7.7m/s | -50.6°C | 0.5% | 129.1hPa | 2.6V | 08:10:08 | 02:16:24 | 00:00:00 | |
| DF8AY | 2026-09-02 05:47:50 | 52.70270 | 8.27564 | 100° | 40km/h | 14826m | -7.5m/s | -50.6°C | 0.5% | 128.9hPa | 2.6V | 08:10:08 | 02:16:23 | 00:00:00 | |
| DO2SHX-10 | 2026-09-02 05:47:50 | 52.70269 | 8.27564 | 101° | 38km/h | 14827m | -7.5m/s | -50.6°C | 3.8% | 128.9hPa | 2.6V | 00:00:00 | 02:16:23 | 00:00:00 | |
| DL1XH-15 | 2026-09-02 05:47:49 | 52.70277 | 8.27472 | 94° | 37km/h | 14872m | -7.5m/s | -50.6°C | 3.8% | 128hPa | 2.6V | 08:09:51 | 02:16:17 | 00:00:00 | |
| AA1-15 | 2026-09-02 05:47:47 | 52.70274 | 8.27517 | 97° | 37km/h | 14849m | -7.8m/s | -50.7°C | 0.6% | 128.4hPa | 2.6V | 08:10:08 | 02:16:20 | 00:00:00 | |
| BIOWL1-15 | 2026-09-02 05:47:46 | 52.70275 | 8.27502 | 97° | 37km/h | 14857m | -7.8m/s | -50.7°C | 0.5% | 128.3hPa | 2.6V | 08:10:08 | 02:16:19 | 00:00:00 | |
| HSKMA3-T | 2026-09-02 05:47:45 | 52.70276 | 8.27487 | 96° | 35km/h | 14865m | -7.6m/s | -50.7°C | 0.6% | 128.2hPa | 2.6V | 08:10:08 | 02:16:18 | 00:00:00 | |
| DL1XH-west | 2026-09-02 05:47:41 | 52.70278 | 8.27425 | 90° | 42km/h | 14895m | -7.6m/s | -50.5°C | 0.5% | 127.5hPa | 2.6V | 08:10:08 | 02:16:14 | 00:00:00 | |
| DB0DAN | 2026-09-02 05:47:40 | 52.70278 | 8.27407 | 88° | 40km/h | 14902m | -7.8m/s | -50.6°C | 1.3% | 127.41hPa | 2.6V | 00:00:00 | 00:00:00 | 00:00:00 | |
| DO2JMG | 2026-09-02 05:47:40 | 52.70278 | 8.27407 | 88° | 42km/h | 14902m | -7.8m/s | -50.6°C | 0.5% | 127.4hPa | 2.6V | 08:10:08 | 02:16:13 | 00:00:00 | |
| AA1-15 | 2026-09-02 05:47:36 | 52.70276 | 8.27335 | 88° | 42km/h | 14933m | -7.8m/s | -50.3°C | 0.5% | 126.9hPa | 2.6V | 08:10:08 | 02:16:09 | 00:00:00 | |
| HSKMA3-T | 2026-09-02 05:47:35 | 52.70276 | 8.27318 | 88° | 40km/h | 14941m | -7.8m/s | -50.4°C | 0.4% | 126.6hPa | 2.6V | 08:10:08 | 02:16:08 | 00:00:00 | |
| DL1XH-west | 2026-09-02 05:47:31 | 52.70275 | 8.27254 | 91° | 35km/h | 14972m | -7.7m/s | -50.4°C | 0.5% | 126hPa | 2.6V | 08:10:08 | 02:16:04 | 00:00:00 | |
| DO2JMG | 2026-09-02 05:47:30 | 52.70275 | 8.27239 | 88° | 37km/h | 14980m | -8.3m/s | -50.4°C | 0.4% | 125.9hPa | 2.6V | 08:10:08 | 02:16:03 | 00:00:00 | |
| BIOWL1-15 | 2026-09-02 05:47:29 | 52.70270 | 8.27158 | 84° | 40km/h | 15021m | -8.2m/s | -50.3°C | 0.5% | 125.1hPa | 2.6V | 08:10:59 | 02:15:58 | 00:00:00 | |
| DF8AY | 2026-09-02 05:47:29 | 52.70274 | 8.27224 | 87° | 37km/h | 14989m | -8.1m/s | -50.3°C | 0.4% | 125.8hPa | 2.6V | 08:10:08 | 02:16:02 | 00:00:00 | |
| DL3AQ-11 | 2026-09-02 05:47:28 | 52.70273 | 8.27192 | 84° | 38km/h | 15005m | -8.1m/s | -50.3°C | 1.3% | 125.5hPa | 2.6V | 00:00:00 | 00:00:00 | 00:00:00 | |
| DM0DOS-11 | 2026-09-02 05:47:27 | 52.70269 | 8.27112 | 89° | 35km/h | 15045m | -7.7m/s | -50.2°C | 3.6% | 124.7hPa | 2.6V | 08:10:13 | 02:15:55 | 00:00:00 | |
| AA1-15 | 2026-09-02 05:47:26 | 52.70272 | 8.27175 | 82° | 40km/h | 15013m | -8.2m/s | -50.3°C | 0.5% | 125.3hPa | 2.6V | 08:10:59 | 02:15:59 | 00:00:00 | |
| DB0DAN | 2026-09-02 05:47:25 | 52.70270 | 8.27158 | 84° | 38km/h | 15021m | -8.2m/s | -50.3°C | 1.3% | 125.11hPa | 2.6V | 00:00:00 | 00:00:00 | 00:00:00 | |
| DL1XH1-15 | 2026-09-02 05:47:25 | 52.70270 | 8.27084 | 98° | 33km/h | 15060m | -7.7m/s | -50.2°C | 3.6% | 124.4hPa | 2.6V | 08:10:15 | 02:15:53 | 00:00:00 | |
| HSKMA3-T | 2026-09-02 05:47:24 | 52.70270 | 8.27142 | 87° | 38km/h | 15029m | -7.8m/s | -50.3°C | 0.5% | 125hPa | 2.6V | 08:10:59 | 02:15:57 | 00:00:00 | |
| DL1XH-west | 2026-09-02 05:47:20 | 52.70270 | 8.27084 | 99° | 33km/h | 15060m | -7.7m/s | -50.2°C | 0.4% | 124.4hPa | 2.6V | 08:10:59 | 02:15:53 | 00:00:00 | |
| DO2JMG | 2026-09-02 05:47:19 | 52.70271 | 8.27071 | 100° | 31km/h | 15068m | -7.7m/s | -50.3°C | 0.4% | 124.2hPa | 2.6V | 08:10:59 | 02:15:52 | 00:00:00 | |
| DF8AY | 2026-09-02 05:47:18 | 52.70273 | 8.27059 | 106° | 31km/h | 15076m | -7.9m/s | -50.3°C | 0.4% | 124hPa | 2.6V | 08:10:59 | 02:15:51 | 00:00:00 | |
| DO2SHX-10 | 2026-09-02 05:47:18 | 52.70273 | 8.27058 | 106° | 29km/h | 15076m | -7.9m/s | -50.3°C | 3.6% | 124.0hPa | 2.6V | 00:00:00 | 02:15:51 | 00:00:00 | |
| DM0DOS-11 | 2026-09-02 05:47:16 | 52.70278 | 8.26983 | 85° | 33km/h | 15124m | -8m/s | -50.7°C | 3.7% | 123.2hPa | 2.6V | 08:10:23 | 02:15:45 | 00:00:00 | |
| AA1-15 | 2026-09-02 05:47:16 | 52.70276 | 8.27034 | 100° | 29km/h | 15092m | -8m/s | -50.4°C | 0.4% | 123.8hPa | 2.6V | 08:10:59 | 02:15:49 | 00:00:00 | |
| EDDB2-12 | 2026-09-02 05:47:16 | 52.70278 | 8.27022 | 100° | 29km/h | 15100m | -8.0m/s | -50.5°C | 1.3% | 123.6hPa | 2.6V | 00:00:00 | 00:00:00 | 00:00:00 | |
| DL1XH1-15 | 2026-09-02 05:47:15 | 52.70275 | 8.26954 | 79° | 38km/h | 15141m | -8.3m/s | -50.8°C | 3.7% | 122.8hPa | 2.6V | 08:10:25 | 02:15:43 | 00:00:00 | |
| BIOWL1-15 | 2026-09-02 05:47:14 | 52.70278 | 8.27010 | 94° | 31km/h | 15108m | -8.2m/s | -50.6°C | 0.4% | 123.4hPa | 2.6V | 08:10:59 | 02:15:47 | 00:00:00 | |
| HSKMA3-T | 2026-09-02 05:47:13 | 52.70279 | 8.26996 | 89° | 33km/h | 15116m | -8.3m/s | -50.6°C | 0.5% | 123.3hPa | 2.6V | 08:10:59 | 02:15:46 | 00:00:00 | |
| DL1XH-west | 2026-09-02 05:47:09 | 52.70274 | 8.26937 | 78° | 42km/h | 15149m | -8.5m/s | -50.9°C | 0.5% | 122.6hPa | 2.6V | 08:10:59 | 02:15:42 | 00:00:00 | |
| DF8AY | 2026-09-02 05:47:08 | 52.70271 | 8.26920 | 77° | 46km/h | 15157m | -8.4m/s | -50.9°C | 0.5% | 122.5hPa | 2.6V | 08:10:59 | 02:15:41 | 00:00:00 | |
| DF4FW | 2026-09-02 05:47:07 | 52.70271 | 8.26919 | 78° | 46km/h | 15158m | -8.4m/s | -50.9°C | 1.3% | 122.5hPa | 2.6V | 00:00:00 | 00:00:00 | 00:00:00 | |
| DM0DOS-11 | 2026-09-02 05:47:06 | 52.70258 | 8.26787 | 88° | 60km/h | 15207m | -8.2m/s | -51°C | 3.8% | 121.6hPa | 2.6V | 08:10:33 | 02:15:35 | 00:00:00 | |
| DO2SHX-10 | 2026-09-02 05:47:06 | 52.70266 | 8.26881 | 79° | 55km/h | 15174m | -8.2m/s | -51.0°C | 3.9% | 122.2hPa | 2.6V | 00:00:00 | 02:15:39 | 00:00:00 | |
| DL1XH1-15 | 2026-09-02 05:47:05 | 52.70259 | 8.26735 | 96° | 64km/h | 15224m | -8.3m/s | -51°C | 3.8% | 121.3hPa | 2.6V | 08:10:35 | 02:15:33 | 00:00:00 | |
| AA1-15 | 2026-09-02 05:47:05 | 52.70263 | 8.26859 | 79° | 55km/h | 15182m | -8.6m/s | -51.1°C | 0.5% | 122.1hPa | 2.6V | 08:10:59 | 02:15:38 | 00:00:00 | |
| BIOWL1-15 | 2026-09-02 05:47:04 | 52.70259 | 8.26812 | 84° | 60km/h | 15199m | -8.5m/s | -51°C | 0.5% | 121.8hPa | 2.6V | 08:10:59 | 02:15:36 | 00:00:00 | |
| HSKMA3-T | 2026-09-02 05:47:02 | 52.70258 | 8.26787 | 88° | 60km/h | 15208m | -8.2m/s | -51°C | 0.5% | 121.6hPa | 2.6V | 08:10:59 | 02:15:35 | 00:00:00 | |
| DF5WG-10 | 2026-09-02 05:47:01 | 52.70258 | 8.26762 | 92° | 62km/h | 15216m | -8.0m/s | -51.0°C | 3.8% | 121.4hPa | 2.6V | 00:00:00 | 02:15:34 | 00:00:00 | |
| DO2SHX-10 | 2026-09-02 05:47:00 | 52.70259 | 8.26736 | 97° | 64km/h | 15224m | -8.3m/s | -51.0°C | 3.8% | 121.2hPa | 2.6V | 00:00:00 | 02:15:33 | 00:00:00 | |
| DL1XH-15 | 2026-09-02 05:46:59 | 52.70280 | 8.26585 | 108° | 58km/h | 15274m | -8.2m/s | -51.2°C | 3.8% | 120.4hPa | 2.6V | 08:10:41 | 02:15:27 | 00:00:00 | |
| DL1XH-west | 2026-09-02 05:46:59 | 52.70261 | 8.26709 | 100° | 64km/h | 15232m | -8.3m/s | -51.1°C | 0.5% | 121.1hPa | 2.6V | 08:10:59 | 02:15:32 | 00:00:00 | |
| DF8AY | 2026-09-02 05:46:58 | 52.70264 | 8.26683 | 102° | 64km/h | 15240m | -8.4m/s | -51.2°C | 0.5% | 121hPa | 2.6V | 08:10:59 | 02:15:31 | 00:00:00 | |
| AA1-15 | 2026-09-02 05:46:55 | 52.70276 | 8.26608 | 107° | 60km/h | 15265m | -8.4m/s | -51.2°C | 0.6% | 120.5hPa | 2.6V | 08:10:59 | 02:15:28 | 00:00:00 | |
| BIOWL1-15 | 2026-09-02 05:46:55 | 52.70285 | 8.26563 | 111° | 57km/h | 15281m | -8m/s | -51.2°C | 0.6% | 120.2hPa | 2.6V | 08:10:59 | 02:15:26 | 00:00:00 | |
| HSKMA3-T | 2026-09-02 05:46:51 | 52.70296 | 8.26522 | 116° | 53km/h | 15297m | -8.1m/s | -50.9°C | 0.5% | 119.9hPa | 2.6V | 08:10:59 | 02:15:24 | 00:00:00 | |
| DO2SHX-10 | 2026-09-02 05:46:51 | 52.70296 | 8.26521 | 116° | 53km/h | 15298m | -8.1m/s | -50.9°C | 3.8% | 119.9hPa | 2.6V | 00:00:00 | 02:15:24 | 00:00:00 | |
| GOEST3-10 | 2026-09-02 05:46:50 | 52.70303 | 8.26502 | 119° | 55km/h | 15306m | -8.4m/s | -50.8°C | 3.7% | 119.7hPa | 2.6V | 00:00:00 | 02:15:23 | 00:00:00 | |
| DL1XH-15 | 2026-09-02 05:46:49 | 52.70338 | 8.26373 | 110° | 60km/h | 15357m | -8.7m/s | -51.1°C | 3.9% | 118.8hPa | 2.6V | 08:10:51 | 02:15:17 | 00:00:00 | |
| DL1XH-west | 2026-09-02 05:46:48 | 52.70315 | 8.26462 | 117° | 55km/h | 15323m | -8.7m/s | -50.9°C | 0.5% | 119.4hPa | 2.6V | 08:10:59 | 02:15:21 | 00:00:00 | |
| DF8AY | 2026-09-02 05:46:47 | 52.70321 | 8.26441 | 115° | 57km/h | 15331m | -8.5m/s | -51°C | 0.5% | 119.3hPa | 2.7V | 08:10:59 | 02:15:20 | 00:00:00 | |
| DL1XH1-15 | 2026-09-02 05:46:45 | 52.70357 | 8.26276 | 103° | 62km/h | 15391m | -8.3m/s | -51°C | 3.8% | 118.2hPa | 2.6V | 08:10:55 | 02:15:13 | 00:00:00 | |
| AA1-15 | 2026-09-02 05:46:45 | 52.70333 | 8.26397 | 112° | 60km/h | 15349m | -8.7m/s | -51°C | 0.6% | 118.9hPa | 2.6V | 08:10:59 | 02:15:18 | 00:00:00 | |
| EDDB2-12 | 2026-09-02 05:46:44 | 52.70339 | 8.26373 | 110° | 60km/h | 15357m | -8.7m/s | -51.1°C | 1.3% | 118.8hPa | 2.6V | 00:00:00 | 00:00:00 | 00:00:00 | |
| BIOWL1-15 | 2026-09-02 05:46:43 | 52.70344 | 8.26349 | 109° | 60km/h | 15366m | -8.7m/s | -51.1°C | 0.6% | 118.6hPa | 2.6V | 08:10:59 | 02:15:16 | 00:00:00 | |
| HSKMA3-T | 2026-09-02 05:46:41 | 52.70353 | 8.26301 | 106° | 62km/h | 15383m | -8.4m/s | -51°C | 0.6% | 118.4hPa | 2.6V | 08:10:59 | 02:15:14 | 00:00:00 | |
| DB0DAN | 2026-09-02 05:46:40 | 52.70357 | 8.26276 | 104° | 60km/h | 15391m | -8.3m/s | -51°C | 1.3% | 118.18hPa | 2.6V | 00:00:00 | 00:00:00 | 00:00:00 | |
| DK5PH-5 | 2026-09-02 05:46:40 | 52.70357 | 8.26276 | 104° | 64km/h | 15391m | -8.3m/s | -51.0°C | 3.8% | 118.1hPa | 2.6V | 00:00:00 | 02:15:13 | 00:00:00 | |
| DL1XH-15 | 2026-09-02 05:46:39 | 52.70372 | 8.26123 | 95° | 62km/h | 15441m | -8.5m/s | -50.8°C | 3.8% | 117.3hPa | 2.6V | 08:11:01 | 02:15:07 | 00:00:00 | |
| DL1XH-west | 2026-09-02 05:46:37 | 52.70366 | 8.26200 | 98° | 62km/h | 15416m | -8.3m/s | -50.9°C | 0.5% | 117.8hPa | 2.6V | 08:10:59 | 02:15:10 | 00:00:00 | |
| DF8AY | 2026-09-02 05:46:36 | 52.70368 | 8.26174 | 97° | 62km/h | 15424m | -8.3m/s | -50.9°C | 0.5% | 117.6hPa | 2.6V | 08:10:59 | 02:15:09 | 00:00:00 | |
| DL1XH1-15 | 2026-09-02 05:46:35 | 52.70376 | 8.26022 | 91° | 60km/h | 15475m | -8.3m/s | -50.7°C | 3.7% | 116.7hPa | 2.6V | 08:11:05 | 02:15:03 | 00:00:00 | |
| AA1-15 | 2026-09-02 05:46:35 | 52.70372 | 8.26123 | 96° | 62km/h | 15441m | -8.5m/s | -50.8°C | 0.5% | 117.3hPa | 2.6V | 08:11:50 | 02:15:07 | 00:00:00 | |
| BIOWL1-15 | 2026-09-02 05:46:34 | 52.70374 | 8.26072 | 94° | 60km/h | 15458m | -8.3m/s | -50.8°C | 0.5% | 117hPa | 2.6V | 08:11:50 | 02:15:05 | 00:00:00 | |
| HSKMA3-T | 2026-09-02 05:46:30 | 52.70376 | 8.26022 | 92° | 60km/h | 15475m | -8.3m/s | -50.7°C | 0.5% | 116.7hPa | 2.6V | 08:11:50 | 02:15:03 | 00:00:00 | |
| DL1XH-15 | 2026-09-02 05:46:29 | 52.70375 | 8.25869 | 87° | 62km/h | 15525m | -8.5m/s | -50.8°C | 3.8% | 115.8hPa | 2.6V | 08:11:11 | 02:14:57 | 00:00:00 | |
| DL1XH-west | 2026-09-02 05:46:27 | 52.70376 | 8.25946 | 89° | 60km/h | 15500m | -8.3m/s | -50.7°C | 0.4% | 116.2hPa | 2.6V | 08:11:50 | 02:15:00 | 00:00:00 | |
| DF8AY | 2026-09-02 05:46:26 | 52.70376 | 8.25921 | 88° | 62km/h | 15508m | -8.4m/s | -50.7°C | 0.5% | 116hPa | 2.6V | 08:11:50 | 02:14:59 | 00:00:00 | |
| DB0DAN | 2026-09-02 05:46:25 | 52.70375 | 8.25895 | 88° | 58km/h | 15517m | -8.6m/s | -50.8°C | 1.2% | 115.96hPa | 2.7V | 00:00:00 | 00:00:00 | 00:00:00 | |
| DL1XH1-15 | 2026-09-02 05:46:25 | 52.70374 | 8.25762 | 91° | 66km/h | 15559m | -8.6m/s | -50.8°C | 3.8% | 115.2hPa | 2.6V | 08:11:15 | 02:14:53 | 00:00:00 | |
| AA1-15 | 2026-09-02 05:46:23 | 52.70374 | 8.25843 | 87° | 64km/h | 15534m | -8.5m/s | -50.8°C | 0.5% | 115.6hPa | 2.6V | 08:11:50 | 02:14:56 | 00:00:00 | |
| DD8BA-10 | 2026-09-02 05:46:23 | 52.70374 | 8.25843 | 88° | 68km/h | 15534m | -8.5m/s | -50.7°C | 3.8% | 115.5hPa | 2.6V | 00:00:00 | 00:00:00 | 00:00:00 | |
| DL1NUX | 2026-09-02 05:46:22 | 52.70377 | 8.25677 | 94° | 69km/h | 15585m | -8.6m/s | -50.9°C | 3.9% | 114.8hPa | 2.6V | 08:11:18 | 02:14:50 | 00:00:00 | |
| BIOWL1-15 | 2026-09-02 05:46:21 | 52.70374 | 8.25789 | 90° | 66km/h | 15551m | -8.5m/s | -50.8°C | 0.6% | 115.3hPa | 2.6V | 08:11:50 | 02:14:54 | 00:00:00 | |
| HSKMA3-T | 2026-09-02 05:46:19 | 52.70374 | 8.25734 | 93° | 68km/h | 15568m | -8.5m/s | -50.8°C | 0.6% | 115hPa | 2.7V | 08:11:50 | 02:14:52 | 00:00:00 | |
| DB0UT-7 | 2026-09-02 05:46:19 | 52.70374 | 8.25734 | 93° | 55km/h | 15568m | -8.5m/s | -50.8°C | 3.9% | 115.0hPa | 2.7V | 00:00:00 | 02:14:52 | 00:00:00 | |
| SMARD9-10 | 2026-09-02 05:46:18 | 52.70374 | 8.25734 | 94° | 68km/h | 15568m | -8.5m/s | -50.8°C | 1.3% | 115.0hPa | 2.6V | 08:11:00 | 00:00:00 | 00:00:00 | |
| DO3DL | 2026-09-02 05:46:17 | 52.70375 | 8.25705 | 95° | 69km/h | 15577m | -8.5m/s | -50.9°C | 1.3% | 114.9hPa | 2.6V | 08:11:00 | 00:00:00 | 00:00:00 | |
| DM0DOS-11 | 2026-09-02 05:46:16 | 52.70390 | 8.25533 | 102° | 69km/h | 15628m | -8.6m/s | -50.9°C | 4% | 114hPa | 2.6V | 08:11:23 | 02:14:45 | 00:00:00 | |
| DL1XH-west | 2026-09-02 05:46:16 | 52.70378 | 8.25648 | 96° | 69km/h | 15594m | -8.4m/s | -50.9°C | 0.6% | 114.5hPa | 2.6V | 08:11:50 | 02:14:49 | 00:00:00 | |
| DL1XH1-15 | 2026-09-02 05:46:15 | 52.70398 | 8.25478 | 105° | 66km/h | 15646m | -8.5m/s | -51°C | 4% | 113.7hPa | 2.6V | 08:11:25 | 02:14:43 | 00:00:00 | |
| AA1-15 | 2026-09-02 05:46:13 | 52.70386 | 8.25562 | 101° | 71km/h | 15619m | -8.9m/s | -50.9°C | 0.6% | 114.1hPa | 2.6V | 08:11:50 | 02:14:46 | 00:00:00 | |
| BIOWL1-15 | 2026-09-02 05:46:11 | 52.70394 | 8.25505 | 104° | 68km/h | 15637m | -8.8m/s | -50.9°C | 0.6% | 113.8hPa | 2.6V | 08:11:50 | 02:14:44 | 00:00:00 | |
| DJ2DS-15 | 2026-09-02 05:46:11 | 52.70394 | 8.25505 | 104° | 51km/h | 15637m | -8.7m/s | -50.9°C | 4.0% | 113.7hPa | 2.6V | 00:00:00 | 02:14:44 | 00:00:00 | |
| DK5PH-5 | 2026-09-02 05:46:10 | 52.70398 | 8.25478 | 106° | 46km/h | 15646m | -8.5m/s | -50.9°C | 4.0% | 113.7hPa | 2.6V | 00:00:00 | 02:14:43 | 00:00:00 | |
| DL1NUX | 2026-09-02 05:46:09 | 52.70426 | 8.25342 | 111° | 53km/h | 15695m | -8.6m/s | -50.6°C | 3.8% | 112.8hPa | 2.6V | 08:11:31 | 02:14:37 | 00:00:00 | |
| HSKMA3-T | 2026-09-02 05:46:09 | 52.70403 | 8.25453 | 107° | 62km/h | 15654m | -7.9m/s | -51°C | 0.6% | 113.5hPa | 2.6V | 08:11:50 | 02:14:42 | 00:00:00 | |
| WEDDY | 2026-09-02 05:46:08 | 52.70403 | 8.25453 | 108° | 62km/h | 15654m | -7.9m/s | -51.0°C | 1.3% | 113.5hPa | 2.7V | 08:11:00 | 00:00:00 | 00:00:00 | |
| D01LWL | 2026-09-02 05:46:07 | 52.70417 | 8.25384 | 109° | 53km/h | 15679m | -8.4m/s | -50.9°C | 1.3% | 113.1hPa | 2.7V | 00:00:00 | 00:00:00 | 00:00:00 | |
| DM0DOS-11 | 2026-09-02 05:46:06 | 52.70436 | 8.25300 | 111° | 53km/h | 15713m | -8.7m/s | -50.5°C | 3.7% | 112.5hPa | 2.7V | 08:11:33 | 02:14:35 | 00:00:00 | |
| DL1XH-west | 2026-09-02 05:46:06 | 52.70417 | 8.25384 | 110° | 55km/h | 15679m | -8.4m/s | -50.9°C | 0.6% | 113.1hPa | 2.6V | 08:11:50 | 02:14:39 | 00:00:00 | |
| DF8AY | 2026-09-02 05:46:05 | 52.70421 | 8.25363 | 110° | 55km/h | 15687m | -8.4m/s | -50.8°C | 0.6% | 113hPa | 2.6V | 08:11:50 | 02:14:38 | 00:00:00 | |
| AA1-15 | 2026-09-02 05:46:02 | 52.70436 | 8.25300 | 112° | 53km/h | 15713m | -8.7m/s | -50.5°C | 0.5% | 112.5hPa | 2.7V | 08:11:50 | 02:14:35 | 00:00:00 | |
| BIOWL1-15 | 2026-09-02 05:46:00 | 52.70445 | 8.25260 | 111° | 49km/h | 15730m | -8.5m/s | -50.5°C | 0.5% | 112.2hPa | 2.6V | 08:11:50 | 02:14:33 | 00:00:00 | |
| GOEST3-10 | 2026-09-02 05:46:00 | 52.70445 | 8.25260 | 112° | 46km/h | 15730m | -8.5m/s | -50.4°C | 3.8% | 112.1hPa | 2.6V | 00:00:00 | 02:14:33 | 00:00:00 | |
| DL1XH-15 | 2026-09-02 05:45:59 | 52.70467 | 8.25155 | 103° | 40km/h | 15782m | -8.4m/s | -50.2°C | 3.9% | 111.3hPa | 2.6V | 08:11:41 | 02:14:27 | 00:00:00 | |
| HSKMA3-T | 2026-09-02 05:45:58 | 52.70454 | 8.25223 | 110° | 46km/h | 15747m | -8.5m/s | -50.3°C | 0.5% | 111.9hPa | 2.6V | 08:11:50 | 02:14:31 | 00:00:00 | |
| DB0NH | 2026-09-02 05:45:58 | 52.70454 | 8.25223 | 110° | 37km/h | 15748m | -8.5m/s | -50.3°C | 3.8% | 111.8hPa | 2.6V | 08:11:00 | 02:14:31 | 00:00:00 | |
| DB0DAN | 2026-09-02 05:45:55 | 52.70464 | 8.25172 | 106° | 40km/h | 15774m | -8.9m/s | -50.2°C | 1.3% | 111.44hPa | 2.6V | 00:00:00 | 00:00:00 | 00:00:00 | |
| DL1XH-west | 2026-09-02 05:45:55 | 52.70464 | 8.25172 | 106° | 42km/h | 15774m | -8.9m/s | -50.2°C | 0.6% | 111.4hPa | 2.6V | 08:11:50 | 02:14:28 | 00:00:00 | |
| AA1-15 | 2026-09-02 05:45:52 | 52.70471 | 8.25122 | 100° | 40km/h | 15799m | -8.3m/s | -50.1°C | 0.6% | 111hPa | 2.6V | 08:11:50 | 02:14:25 | 00:00:00 | |
| BIOWL1-15 | 2026-09-02 05:45:50 | 52.70474 | 8.25089 | 97° | 40km/h | 15815m | -8.3m/s | -50°C | 0.5% | 110.7hPa | 2.6V | 08:11:50 | 02:14:23 | 00:00:00 | |
| GOEST3-10 | 2026-09-02 05:45:50 | 52.70473 | 8.25089 | 97° | 40km/h | 15816m | -8.2m/s | -50.0°C | 3.8% | 110.7hPa | 2.6V | 00:00:00 | 02:14:23 | 00:00:00 | |
| DL1XH-15 | 2026-09-02 05:45:49 | 52.70478 | 8.24990 | 91° | 40km/h | 15865m | -8.5m/s | -49.7°C | 3.6% | 109.9hPa | 2.6V | 08:11:51 | 02:14:17 | 00:00:00 | |
| DB0UT-7 | 2026-09-02 05:45:49 | 52.70475 | 8.25073 | 98° | 37km/h | 15824m | -8.3m/s | -49.9°C | 3.7% | 110.5hPa | 2.6V | 00:00:00 | 00:00:00 | 00:00:00 | |
| DK9SH | 2026-09-02 05:45:48 | 52.70475 | 8.25073 | 98° | 40km/h | 15824m | -8.4m/s | -49.9°C | 1.3% | 110.5hPa | 2.6V | 08:11:00 | 00:00:00 | 00:00:00 | |
| DM0DOS-11 | 2026-09-02 05:45:47 | 52.70478 | 8.24957 | 90° | 40km/h | 15883m | -8.6m/s | -49.8°C | 3.6% | 109.6hPa | 2.6V | 08:11:53 | 02:14:15 | 00:00:00 | |
| HSKMA3-T | 2026-09-02 05:45:47 | 52.70477 | 8.25040 | 95° | 40km/h | 15840m | -8.3m/s | -49.7°C | 0.4% | 110.3hPa | 2.6V | 08:11:50 | 02:14:20 | 00:00:00 | |
| DL1XH-west | 2026-09-02 05:45:45 | 52.70478 | 8.25007 | 92° | 40km/h | 15857m | -8.5m/s | -49.7°C | 0.5% | 110hPa | 2.6V | 08:11:50 | 02:14:18 | 00:00:00 | |
| DF8AY | 2026-09-02 05:45:44 | 52.70478 | 8.24990 | 91° | 40km/h | 15865m | -8.5m/s | -49.7°C | 0.5% | 109.9hPa | 2.6V | 08:12:41 | 02:14:17 | 00:00:00 | |
| DL1XH1-15 | 2026-09-02 05:45:44 | 52.70478 | 8.24925 | 90° | 37km/h | 15900m | -8.4m/s | -49.8°C | 3.6% | 109.3hPa | 2.6V | 08:11:55 | 02:14:13 | 00:00:00 | |
| BIOWL1-15 | 2026-09-02 05:45:41 | 52.70479 | 8.24909 | 89° | 37km/h | 15908m | -8.5m/s | -49.8°C | 0.5% | 109.2hPa | 2.6V | 08:12:41 | 02:14:12 | 00:00:00 | |
| AA1-15 | 2026-09-02 05:45:41 | 52.70479 | 8.24940 | 91° | 38km/h | 15891m | -8.5m/s | -49.8°C | 0.5% | 109.4hPa | 2.6V | 08:12:41 | 02:14:14 | 00:00:00 | |
| DB0DAN | 2026-09-02 05:45:40 | 52.70479 | 8.24925 | 90° | 35km/h | 15900m | -8.4m/s | -49.8°C | 1.2% | 109.29hPa | 2.6V | 00:00:00 | 00:00:00 | 00:00:00 | |
| DK5PH-5 | 2026-09-02 05:45:40 | 52.70479 | 8.24925 | 91° | 49km/h | 15900m | -8.4m/s | -49.8°C | 3.6% | 109.2hPa | 2.6V | 00:00:00 | 02:14:13 | 00:00:00 | |
| DL1XH-15 | 2026-09-02 05:45:39 | 52.70477 | 8.24840 | 87° | 31km/h | 15951m | -8.7m/s | -49.7°C | 3.6% | 108.4hPa | 2.6V | 08:12:01 | 02:14:07 | 00:00:00 | |
| DM0DOS-11 | 2026-09-02 05:45:37 | 52.70477 | 8.24816 | 94° | 29km/h | 15968m | -8.8m/s | -49.8°C | 3.7% | 108.1hPa | 2.6V | 08:12:03 | 02:14:05 | 00:00:00 | |
| HSKMA3-T | 2026-09-02 05:45:36 | 52.70478 | 8.24866 | 86° | 33km/h | 15934m | -8.6m/s | -49.7°C | 0.5% | 108.8hPa | 2.6V | 08:12:41 | 02:14:09 | 00:00:00 | |
| DL1NUX | 2026-09-02 05:45:36 | 52.70478 | 8.24804 | 99° | 29km/h | 15977m | -8.8m/s | -49.7°C | 3.6% | 108hPa | 2.7V | 08:12:04 | 02:14:04 | 00:00:00 | |
| DL1XH-west | 2026-09-02 05:45:35 | 52.70477 | 8.24853 | 87° | 31km/h | 15942m | -8.7m/s | -49.7°C | 0.5% | 108.6hPa | 2.6V | 08:12:41 | 02:14:08 | 00:00:00 | |
| DF8AY | 2026-09-02 05:45:34 | 52.70477 | 8.24840 | 88° | 31km/h | 15951m | -8.7m/s | -49.7°C | 0.4% | 108.4hPa | 2.6V | 08:12:41 | 02:14:07 | 00:00:00 | |
| DO2JMG | 2026-09-02 05:45:33 | 52.70477 | 8.24828 | 91° | 29km/h | 15960m | -8.6m/s | -49.8°C | 0.5% | 108.3hPa | 2.6V | 08:12:41 | 02:14:06 | 00:00:00 | |
| AA1-15 | 2026-09-02 05:45:30 | 52.70479 | 8.24792 | 107° | 29km/h | 15986m | -8.5m/s | -49.7°C | 0.5% | 107.9hPa | 2.6V | 08:12:41 | 02:14:03 | 00:00:00 | |
| BIOWL1-15 | 2026-09-02 05:45:29 | 52.70482 | 8.24781 | 111° | 31km/h | 15994m | -8.5m/s | -49.6°C | 0.5% | 107.7hPa | 2.6V | 08:12:41 | 02:14:02 | 00:00:00 | |
| DM0DOS-11 | 2026-09-02 05:45:28 | 52.70513 | 8.24686 | 119° | 44km/h | 16054m | -8.5m/s | -49.9°C | 3.6% | 106.7hPa | 2.6V | 08:12:13 | 02:13:55 | 00:00:00 | |
| BIOWL9-15 | 2026-09-02 05:45:27 | 52.70489 | 8.24756 | 118° | 35km/h | 16011m | -8.3m/s | 0°C | -1.0% | -1.0hPa | 2.7V | 00:00:00 | 00:00:00 | 00:00:00 | |
| DB0DAN | 2026-09-02 05:45:25 | 52.70498 | 8.24729 | 120° | 37km/h | 16028m | -8.7m/s | -49.7°C | 1.2% | 107.21hPa | 2.7V | 00:00:00 | 00:00:00 | 00:00:00 | |
| HSKMA3-T | 2026-09-02 05:45:25 | 52.70498 | 8.24729 | 120° | 38km/h | 16028m | -8.7m/s | -49.7°C | 0.5% | 107.2hPa | 2.7V | 08:12:41 | 02:13:58 | 00:00:00 | |
| DO2JMG | 2026-09-02 05:45:24 | 52.70508 | 8.24701 | 120° | 42km/h | 16045m | -8.7m/s | -49.9°C | 0.5% | 106.9hPa | 2.6V | 08:12:41 | 02:13:56 | 00:00:00 | |
| BIOWL1-15 | 2026-09-02 05:45:19 | 52.70530 | 8.24631 | 115° | 55km/h | 16079m | -8.2m/s | -50.1°C | 0.4% | 106.3hPa | 2.6V | 08:12:41 | 02:13:52 | 00:00:00 | |
| DM0DOS-11 | 2026-09-02 05:45:17 | 52.70568 | 8.24463 | 105° | 68km/h | 16139m | -8.9m/s | -50.5°C | 3.8% | 105.4hPa | 2.6V | 08:12:23 | 02:13:45 | 00:00:00 | |
| DL1NUX | 2026-09-02 05:45:16 | 52.70572 | 8.24435 | 103° | 69km/h | 16148m | -9.1m/s | -50.5°C | 3.8% | 105.2hPa | 2.6V | 08:12:24 | 02:13:44 | 00:00:00 | |
| SMARD9-15 | 2026-09-02 05:45:16 | 52.70552 | 8.24540 | 110° | 62km/h | 16113m | -8.6m/s | -50.3°C | 1.2% | 105.8hPa | 2.6V | 00:00:00 | 00:00:00 | 00:00:00 | |
| DL1XH1-15 | 2026-09-02 05:45:15 | 52.70576 | 8.24407 | 101° | 69km/h | 16157m | -9m/s | -50.5°C | 3.8% | 105.1hPa | 2.6V | 08:12:25 | 02:13:43 | 00:00:00 | |
| HSKMA3-T | 2026-09-02 05:45:14 | 52.70558 | 8.24515 | 109° | 64km/h | 16122m | -8.6m/s | -50.4°C | 0.5% | 105.6hPa | 2.7V | 08:12:41 | 02:13:47 | 00:00:00 | |
| DL1XH-west | 2026-09-02 05:45:13 | 52.70563 | 8.24489 | 108° | 66km/h | 16131m | -8.7m/s | -50.4°C | 0.5% | 105.5hPa | 2.6V | 08:12:41 | 02:13:46 | 00:00:00 | |
| DO2JMG | 2026-09-02 05:45:12 | 52.70568 | 8.24463 | 106° | 68km/h | 16139m | -8.9m/s | -50.5°C | 0.6% | 105.4hPa | 2.6V | 08:12:41 | 02:13:45 | 00:00:00 | |
| DF4FW | 2026-09-02 05:45:12 | 52.70568 | 8.24463 | 107° | 68km/h | 16139m | -8.9m/s | -50.5°C | 1.3% | 105.4hPa | 2.6V | 00:00:00 | 00:00:00 | 00:00:00 | |
| DB0DAN | 2026-09-02 05:45:10 | 52.70576 | 8.24407 | 102° | 68km/h | 16157m | -9m/s | -50.5°C | 1.3% | 105.08hPa | 2.6V | 00:00:00 | 00:00:00 | 00:00:00 | |
| DK5PH-5 | 2026-09-02 05:45:10 | 52.70576 | 8.24407 | 102° | 55km/h | 16157m | -9.0m/s | -50.4°C | 3.8% | 105.0hPa | 2.7V | 00:00:00 | 02:13:43 | 00:00:00 | |
| DL1XH-15 | 2026-09-02 05:45:09 | 52.70582 | 8.24238 | 85° | 62km/h | 16209m | -8.6m/s | -50.7°C | 3.8% | 104.3hPa | 2.7V | 08:12:31 | 02:13:37 | 00:00:00 | |
| BIOWL1-15 | 2026-09-02 05:45:08 | 52.70582 | 8.24349 | 96° | 69km/h | 16175m | -8.6m/s | -50.5°C | 0.6% | 104.7hPa | 2.6V | 08:12:41 | 02:13:41 | 00:00:00 | |
| DM0DOS-11 | 2026-09-02 05:45:07 | 52.70579 | 8.24188 | 84° | 58km/h | 16226m | -8.5m/s | -50.7°C | 3.8% | 104hPa | 2.6V | 08:12:33 | 02:13:35 | 00:00:00 | |
| DL1NUX | 2026-09-02 05:45:06 | 52.70577 | 8.24164 | 84° | 57km/h | 16234m | -8.7m/s | -50.7°C | 3.8% | 103.8hPa | 2.6V | 08:12:34 | 02:13:34 | 00:00:00 | |
| DL1XH1-15 | 2026-09-02 05:45:05 | 52.70576 | 8.24141 | 84° | 55km/h | 16243m | -8.7m/s | -50.7°C | 3.8% | 103.7hPa | 2.6V | 08:12:35 | 02:13:33 | 00:00:00 | |
| DF8AY | 2026-09-02 05:45:05 | 52.70583 | 8.24265 | 87° | 66km/h | 16200m | -8.4m/s | -50.6°C | 0.6% | 104.4hPa | 2.6V | 08:12:41 | 02:13:38 | 00:00:00 | |
| HSKMA3-T | 2026-09-02 05:45:04 | 52.70582 | 8.24238 | 85° | 62km/h | 16209m | -8.6m/s | -50.7°C | 0.5% | 104.3hPa | 2.7V | 08:12:41 | 02:13:37 | 00:00:00 | |
| DL1XH-west | 2026-09-02 05:45:02 | 52.70579 | 8.24188 | 84° | 58km/h | 16226m | -8.5m/s | -50.7°C | 0.6% | 104hPa | 2.6V | 08:12:41 | 02:13:35 | 00:00:00 | |
| DO2JMG | 2026-09-02 05:45:01 | 52.70577 | 8.24164 | 84° | 57km/h | 16234m | -8.7m/s | -50.7°C | 0.6% | 103.8hPa | 2.6V | 08:12:41 | 02:13:34 | 00:00:00 | |
| GOEST3-10 | 2026-09-02 05:45:00 | 52.70576 | 8.24141 | 85° | 51km/h | 16243m | -8.7m/s | -50.7°C | 3.8% | 103.7hPa | 2.6V | 08:12:00 | 02:13:33 | 00:00:00 | |
| DL1XH-15 | 2026-09-02 05:44:59 | 52.70573 | 8.24015 | 91° | 47km/h | 16295m | -8.6m/s | -50.8°C | 3.9% | 102.9hPa | 2.7V | 08:12:41 | 02:13:27 | 00:00:00 | |
| BIOWL1-15 | 2026-09-02 05:44:58 | 52.70574 | 8.24096 | 87° | 53km/h | 16260m | -8.6m/s | -50.8°C | 0.6% | 103.4hPa | 2.7V | 08:12:41 | 02:13:31 | 00:00:00 | |
| DB0NH | 2026-09-02 05:44:58 | 52.70574 | 8.24096 | 87° | 42km/h | 16260m | -8.5m/s | -50.7°C | 3.8% | 103.4hPa | 2.6V | 00:00:00 | 02:13:31 | 00:00:00 | |
| DM0DOS-11 | 2026-09-02 05:44:57 | 52.70574 | 8.23975 | 93° | 51km/h | 16311m | -8.4m/s | -50.8°C | 3.8% | 102.6hPa | 2.6V | 08:12:43 | 02:13:25 | 00:00:00 | |
| DL1NUX | 2026-09-02 05:44:56 | 52.70575 | 8.23953 | 94° | 53km/h | 16320m | -8.4m/s | -50.7°C | 3.8% | 102.5hPa | 2.6V | 08:12:44 | 02:13:24 | 00:00:00 | |
| DB0DAN | 2026-09-02 05:44:55 | 52.70573 | 8.24035 | 90° | 46km/h | 16286m | -8.5m/s | -50.8°C | 1.3% | 103.05hPa | 2.6V | 00:00:00 | 00:00:00 | 00:00:00 | |
| GOEST3-10 | 2026-09-02 05:44:55 | 52.70573 | 8.24035 | 91° | 49km/h | 16286m | -8.4m/s | -50.7°C | 3.8% | 103.0hPa | 2.6V | 00:00:00 | 00:00:00 | 00:00:00 | |
| DL1XH1-15 | 2026-09-02 05:44:54 | 52.70576 | 8.23931 | 94° | 53km/h | 16328m | -8.4m/s | -50.7°C | 3.8% | 102.4hPa | 2.6V | 08:12:45 | 02:13:23 | 00:00:00 | |
| HSKMA3-T | 2026-09-02 05:44:53 | 52.70573 | 8.23995 | 93° | 49km/h | 16303m | -8.3m/s | -50.8°C | 0.5% | 102.8hPa | 2.6V | 08:13:32 | 02:13:26 | 00:00:00 | |
| DL1XH-west | 2026-09-02 05:44:52 | 52.70574 | 8.23975 | 93° | 51km/h | 16311m | -8.4m/s | -50.8°C | 0.6% | 102.6hPa | 2.6V | 08:13:32 | 02:13:25 | 00:00:00 | |
| DO2JMG | 2026-09-02 05:44:51 | 52.70575 | 8.23953 | 95° | 53km/h | 16320m | -8.4m/s | -50.7°C | 0.5% | 102.5hPa | 2.6V | 08:13:32 | 02:13:24 | 00:00:00 | |
| DF8AY | 2026-09-02 05:44:50 | 52.70576 | 8.23931 | 95° | 53km/h | 16328m | -8.4m/s | -50.7°C | 0.6% | 102.4hPa | 2.6V | 08:13:32 | 02:13:23 | 00:00:00 | |
| AA1-15 | 2026-09-02 05:44:47 | 52.70579 | 8.23865 | 93° | 53km/h | 16354m | -8.8m/s | -50.4°C | 0.4% | 102hPa | 2.6V | 08:13:32 | 02:13:20 | 00:00:00 | |
| DL1NUX | 2026-09-02 05:44:46 | 52.70579 | 8.23757 | 90° | 33km/h | 16407m | -8.9m/s | -50.2°C | 3.5% | 101hPa | 2.6V | 08:12:54 | 02:13:14 | 00:00:00 | |
| WEDDY | 2026-09-02 05:44:45 | 52.70579 | 8.23823 | 91° | 47km/h | 16372m | -9.0m/s | -50.2°C | 1.2% | 101.7hPa | 2.6V | 00:00:00 | 00:00:00 | 00:00:00 | |
| DL1XH1-15 | 2026-09-02 05:44:44 | 52.70579 | 8.23744 | 93° | 27km/h | 16416m | -8.9m/s | -50.2°C | 3.5% | 100.9hPa | 2.6V | 08:12:55 | 02:13:13 | 00:00:00 | |
| HSKMA3-T | 2026-09-02 05:44:42 | 52.70579 | 8.23771 | 89° | 37km/h | 16399m | -8.8m/s | -50.2°C | 0.4% | 101.2hPa | 2.6V | 08:13:32 | 02:13:15 | 00:00:00 | |
| DL1XH-west | 2026-09-02 05:44:41 | 52.70579 | 8.23757 | 90° | 33km/h | 16407m | -8.9m/s | -50.2°C | 0.4% | 101.1hPa | 2.6V | 08:13:32 | 02:13:14 | 00:00:00 | |
| DB0DAN | 2026-09-02 05:44:40 | 52.70579 | 8.23744 | 93° | 27km/h | 16416m | -8.9m/s | -50.2°C | 1.1% | 100.93hPa | 2.6V | 00:00:00 | 00:00:00 | 00:00:00 | |
| DO2JMG | 2026-09-02 05:44:40 | 52.70579 | 8.23744 | 93° | 27km/h | 16416m | -8.9m/s | -50.2°C | 0.4% | 100.9hPa | 2.6V | 08:13:32 | 02:13:13 | 00:00:00 | |
| DF8AY | 2026-09-02 05:44:40 | 52.70580 | 8.23733 | 100° | 26km/h | 16425m | -8.8m/s | -50.3°C | 0.4% | 100.8hPa | 2.6V | 08:13:32 | 02:13:12 | 00:00:00 | |
| DK5PH-5 | 2026-09-02 05:44:40 | 52.70579 | 8.23744 | 94° | 29km/h | 16416m | -8.8m/s | -50.2°C | 3.5% | 100.9hPa | 2.6V | 08:12:00 | 02:13:13 | 00:00:00 | |
| DL1XH-15 | 2026-09-02 05:44:39 | 52.70595 | 8.23689 | 134° | 31km/h | 16470m | -9.1m/s | -50.7°C | 3.7% | 100.1hPa | 2.6V | 08:13:01 | 02:13:07 | 00:00:00 | |
| BIOWL1-15 | 2026-09-02 05:44:37 | 52.70583 | 8.23715 | 116° | 24km/h | 16443m | -9m/s | -50.4°C | 0.4% | 100.5hPa | 2.7V | 08:13:32 | 02:13:10 | 00:00:00 | |
| DL3AQ-11 | 2026-09-02 05:44:35 | 52.70595 | 8.23689 | 134° | 29km/h | 16470m | -9.1m/s | -50.7°C | 1.2% | 100.2hPa | 2.6V | 00:00:00 | 00:00:00 | 00:00:00 | |
| DL1XH1-15 | 2026-09-02 05:44:34 | 52.70623 | 8.23644 | 134° | 46km/h | 16505m | -8.9m/s | -51°C | 3.8% | 99.6hPa | 2.6V | 08:13:05 | 02:13:03 | 00:00:00 | |
| DL1XH-west | 2026-09-02 05:44:31 | 52.70615 | 8.23657 | 136° | 44km/h | 16496m | -9m/s | -51°C | 0.5% | 99.8hPa | 2.6V | 08:13:32 | 02:13:04 | 00:00:00 | |
| DO2JMG | 2026-09-02 05:44:30 | 52.70623 | 8.23644 | 134° | 46km/h | 16505m | -8.9m/s | -51°C | 0.6% | 99.6hPa | 2.6V | 08:13:32 | 02:13:03 | 00:00:00 | |
| GOEST3-10 | 2026-09-02 05:44:30 | 52.70623 | 8.23644 | 135° | 51km/h | 16505m | -8.8m/s | -51.0°C | 3.8% | 99.5hPa | 2.6V | 00:00:00 | 02:13:03 | 00:00:00 | |
| DL1XH-15 | 2026-09-02 05:44:29 | 52.70668 | 8.23538 | 113° | 55km/h | 16557m | -8.6m/s | -51.4°C | 3.9% | 98.8hPa | 2.6V | 08:13:11 | 02:12:57 | 00:00:00 | |
| DF8AY | 2026-09-02 05:44:28 | 52.70640 | 8.23614 | 129° | 51km/h | 16523m | -8.8m/s | -51.2°C | 0.6% | 99.3hPa | 2.6V | 08:13:32 | 02:13:01 | 00:00:00 | |
| DB0NH | 2026-09-02 05:44:28 | 52.70640 | 8.23614 | 129° | 55km/h | 16523m | -8.8m/s | -51.1°C | 3.9% | 99.3hPa | 2.6V | 00:00:00 | 02:13:01 | 00:00:00 | |
| DM0DOS-11 | 2026-09-02 05:44:27 | 52.70677 | 8.23495 | 107° | 55km/h | 16574m | -8.6m/s | -51.5°C | 3.9% | 98.5hPa | 2.6V | 08:13:13 | 02:12:55 | 00:00:00 | |
| BIOWL1-15 | 2026-09-02 05:44:26 | 52.70655 | 8.23578 | 121° | 53km/h | 16540m | -8.6m/s | -51.3°C | 0.5% | 99.1hPa | 2.7V | 08:13:32 | 02:12:59 | 00:00:00 | |
| HSKMA3-T | 2026-09-02 05:44:20 | 52.70685 | 8.23451 | 104° | 55km/h | 16591m | -8.7m/s | -51.5°C | 0.6% | 98.3hPa | 2.7V | 08:13:32 | 02:12:53 | 00:00:00 | |
| DO2JMG | 2026-09-02 05:44:19 | 52.70688 | 8.23428 | 102° | 57km/h | 16600m | -8.6m/s | -51.5°C | 0.6% | 98.2hPa | 2.6V | 08:13:32 | 02:12:52 | 00:00:00 | |
| DB0UT-7 | 2026-09-02 05:44:19 | 52.70688 | 8.23428 | 103° | 51km/h | 16600m | -8.6m/s | -51.5°C | 3.9% | 98.1hPa | 2.7V | 00:00:00 | 02:12:52 | 00:00:00 | |
| DJ2DS-15 | 2026-09-02 05:44:18 | 52.70691 | 8.23406 | 101° | 55km/h | 16609m | -8.8m/s | -51.6°C | 1.2% | 98.0hPa | 2.7V | 00:00:00 | 00:00:00 | 00:00:00 | |
| DM0DOS-11 | 2026-09-02 05:44:17 | 52.70710 | 8.23267 | 104° | 60km/h | 16662m | -9.2m/s | -51.3°C | 3.8% | 97.2hPa | 2.7V | 08:13:23 | 02:12:45 | 00:00:00 | |
| BIOWL1-15 | 2026-09-02 05:44:16 | 52.70696 | 8.23360 | 102° | 57km/h | 16627m | -8.8m/s | -51.5°C | 0.5% | 97.7hPa | 2.6V | 08:13:32 | 02:12:49 | 00:00:00 | |
| AA1-15 | 2026-09-02 05:44:15 | 52.70699 | 8.23337 | 103° | 57km/h | 16635m | -8.7m/s | -51.4°C | 0.5% | 97.6hPa | 2.6V | 08:13:32 | 02:12:48 | 00:00:00 | |
| GOEST3-10 | 2026-09-02 05:44:15 | 52.70699 | 8.23337 | 103° | 58km/h | 16636m | -8.7m/s | -51.4°C | 3.8% | 97.6hPa | 2.6V | 08:13:00 | 00:00:00 | 00:00:00 | |
| SMARD9-15 | 2026-09-02 05:44:14 | 52.70706 | 8.23291 | 104° | 58km/h | 16653m | -8.7m/s | -51.4°C | 1.2% | 97.3hPa | 2.7V | 00:00:00 | 00:00:00 | 00:00:00 | |
| DD8BA-10 | 2026-09-02 05:44:13 | 52.70706 | 8.23291 | 105° | 60km/h | 16653m | -8.7m/s | -51.3°C | 3.8% | 97.3hPa | 2.7V | 00:00:00 | 00:00:00 | 00:00:00 | |
| DD1CC2-15 | 2026-09-02 05:44:12 | 52.70706 | 8.23291 | 105° | 58km/h | 16653m | -8.7m/s | -51.4°C | 1.2% | 97.3hPa | 2.7V | 08:13:00 | 00:00:00 | 00:00:00 | |
| DL1XH1-15 | 2026-09-02 05:44:11 | 52.70717 | 8.23218 | 102° | 62km/h | 16680m | -9.1m/s | -51.2°C | 3.8% | 96.9hPa | 2.7V | 08:13:25 | 02:12:43 | 00:00:00 | |
| DB0DAN | 2026-09-02 05:44:10 | 52.70717 | 8.23218 | 103° | 58km/h | 16680m | -9.1m/s | -51.2°C | 1.2% | 96.93hPa | 2.7V | 00:00:00 | 00:00:00 | 00:00:00 | |
| DL1XH-west | 2026-09-02 05:44:09 | 52.70720 | 8.23192 | 100° | 62km/h | 16689m | -9.1m/s | -51.2°C | 0.6% | 96.8hPa | 2.6V | 08:13:32 | 02:12:42 | 00:00:00 | |
| DL3AQ-11 | 2026-09-02 05:44:08 | 52.70723 | 8.23141 | 92° | 60km/h | 16707m | -8.9m/s | -51.2°C | 1.3% | 96.5hPa | 2.6V | 00:00:00 | 00:00:00 | 00:00:00 | |
| DM0DOS-11 | 2026-09-02 05:44:07 | 52.70721 | 8.23023 | 83° | 49km/h | 16752m | -8.5m/s | -51.3°C | 3.9% | 95.8hPa | 2.6V | 08:13:33 | 02:12:35 | 00:00:00 | |
| DL1NUX | 2026-09-02 05:44:06 | 52.70719 | 8.23002 | 83° | 47km/h | 16761m | -8.4m/s | 0°C | 0% | 0hPa | 2.7V | 00:00:00 | 02:12:34 | 00:00:00 | |
| BIOWL1-15 | 2026-09-02 05:44:05 | 52.70724 | 8.23091 | 89° | 58km/h | 16725m | -9m/s | -51.3°C | 0.6% | 96.3hPa | 2.7V | 08:13:32 | 02:12:38 | 00:00:00 | |
| AA1-15 | 2026-09-02 05:44:04 | 52.70723 | 8.23067 | 86° | 57km/h | 16734m | -9.1m/s | -51.3°C | 0.6% | 96.2hPa | 2.6V | 08:13:32 | 02:12:37 | 00:00:00 | |
| DO2JMG | 2026-09-02 05:43:59 | 52.70717 | 8.22965 | 84° | 42km/h | 16778m | -8.4m/s | -51.5°C | 0.6% | 95.5hPa | 2.6V | 08:14:23 | 02:12:32 | 00:00:00 | |
| DB0NH | 2026-09-02 05:43:58 | 52.70716 | 8.22948 | 84° | 38km/h | 16787m | -8.4m/s | -51.5°C | 3.9% | 95.3hPa | 2.6V | 00:00:00 | 02:12:31 | 00:00:00 | |
| DL1XH-west | 2026-09-02 05:43:58 | 52.70716 | 8.22948 | 84° | 40km/h | 16786m | -8.5m/s | -51.5°C | 0.6% | 95.4hPa | 2.6V | 08:14:23 | 02:12:31 | 00:00:00 | |
| DM0DOS-11 | 2026-09-02 05:43:57 | 52.70710 | 8.22853 | 89° | 35km/h | 16839m | -9.3m/s | -51.3°C | 3.8% | 94.6hPa | 2.6V | 08:13:43 | 02:12:25 | 00:00:00 | |
| DL1NUX | 2026-09-02 05:43:56 | 52.70711 | 8.22839 | 93° | 33km/h | 16848m | -9.6m/s | 0°C | 0% | 0hPa | 2.7V | 00:00:00 | 02:12:24 | 00:00:00 | |
| DB0DAN | 2026-09-02 05:43:55 | 52.70713 | 8.22899 | 84° | 37km/h | 16812m | -8.6m/s | -51.5°C | 1.2% | 95.04hPa | 2.7V | 00:00:00 | 00:00:00 | 00:00:00 | |
| BIOWL1-15 | 2026-09-02 05:43:55 | 52.70713 | 8.22899 | 84° | 38km/h | 16812m | -8.6m/s | -51.5°C | 0.5% | 95hPa | 2.7V | 08:14:23 | 02:12:28 | 00:00:00 | |
| AA1-15 | 2026-09-02 05:43:53 | 52.70711 | 8.22868 | 86° | 37km/h | 16830m | -9.1m/s | -51.3°C | 0.5% | 94.8hPa | 2.6V | 08:14:23 | 02:12:26 | 00:00:00 | |
| DD1CC3-15 | 2026-09-02 05:43:53 | 52.70711 | 8.22868 | 87° | 37km/h | 16830m | -9.1m/s | -51.3°C | 1.2% | 94.7hPa | 2.7V | 08:14:00 | 00:00:00 | 00:00:00 | |
| DD1CC2-15 | 2026-09-02 05:43:52 | 52.70711 | 8.22868 | 87° | 37km/h | 16830m | -9.1m/s | -51.3°C | 1.2% | 94.7hPa | 2.7V | 08:14:00 | 00:00:00 | 00:00:00 | |
| DL1XH1-15 | 2026-09-02 05:43:51 | 52.70712 | 8.22826 | 101° | 31km/h | 16858m | -9.2m/s | -51.1°C | 3.8% | 94.3hPa | 2.7V | 08:13:45 | 02:12:23 | 00:00:00 | |
| DO2JMG | 2026-09-02 05:43:48 | 52.70717 | 8.22802 | 119° | 31km/h | 16876m | -9.2m/s | -50.9°C | 0.5% | 94hPa | 2.6V | 08:14:23 | 02:12:21 | 00:00:00 | |
| DL1XH-west | 2026-09-02 05:43:47 | 52.70722 | 8.22791 | 127° | 33km/h | 16886m | -9.2m/s | -50.9°C | 0.5% | 93.9hPa | 2.6V | 08:14:23 | 02:12:20 | 00:00:00 | |
| DL1XH-15 | 2026-09-02 05:43:46 | 52.70768 | 8.22716 | 134° | 51km/h | 16941m | -9.4m/s | -51.1°C | 3.7% | 93.1hPa | 2.6V | 08:13:54 | 02:12:14 | 00:00:00 | |
| BIOWL1-15 | 2026-09-02 05:43:44 | 52.70741 | 8.22757 | 137° | 44km/h | 16913m | -9.2m/s | -51°C | 0.5% | 93.5hPa | 2.7V | 08:14:23 | 02:12:17 | 00:00:00 | |
| AA1-15 | 2026-09-02 05:43:42 | 52.70759 | 8.22730 | 136° | 49km/h | 16932m | -9.7m/s | -51.1°C | 0.5% | 93.2hPa | 2.6V | 08:14:23 | 02:12:15 | 00:00:00 | |
| DL1XH1-15 | 2026-09-02 05:43:41 | 52.70777 | 8.22699 | 130° | 53km/h | 16951m | -9.4m/s | -51.1°C | 3.7% | 92.9hPa | 2.7V | 08:13:55 | 02:12:13 | 00:00:00 | |
| DB0DAN | 2026-09-02 05:43:40 | 52.70777 | 8.22699 | 130° | 51km/h | 16951m | -9.4m/s | -51.2°C | 1.2% | 92.94hPa | 2.7V | 00:00:00 | 00:00:00 | 00:00:00 | |
| DO2JMG | 2026-09-02 05:43:38 | 52.70793 | 8.22662 | 120° | 57km/h | 16969m | -9m/s | -51.3°C | 0.5% | 92.7hPa | 2.6V | 08:14:23 | 02:12:11 | 00:00:00 | |
| DL1XH-west | 2026-09-02 05:43:37 | 52.70799 | 8.22641 | 114° | 58km/h | 16978m | -8.6m/s | -51.4°C | 0.5% | 92.6hPa | 2.6V | 08:14:23 | 02:12:10 | 00:00:00 | |
| BIOWL1-15 | 2026-09-02 05:43:35 | 52.70814 | 8.22551 | 99° | 55km/h | 17014m | -9.2m/s | -51.6°C | 0.5% | 92.1hPa | 2.6V | 08:14:23 | 02:12:06 | 00:00:00 | |
| AA1-15 | 2026-09-02 05:43:32 | 52.70816 | 8.22528 | 97° | 53km/h | 17022m | -9.1m/s | -51.7°C | 0.6% | 92hPa | 2.6V | 08:14:23 | 02:12:05 | 00:00:00 | |
| DL1XH1-15 | 2026-09-02 05:43:31 | 52.70818 | 8.22486 | 92° | 49km/h | 17040m | -8.9m/s | -51.6°C | 3.9% | 91.7hPa | 2.6V | 08:14:05 | 02:12:03 | 00:00:00 | |
| DF8AY | 2026-09-02 05:43:28 | 52.70818 | 8.22447 | 87° | 46km/h | 17058m | -9m/s | -51.7°C | 0.5% | 91.5hPa | 2.7V | 08:14:23 | 02:12:01 | 00:00:00 | |
| HSKMA3-T | 2026-09-02 05:43:27 | 52.70817 | 8.22428 | 84° | 44km/h | 17067m | -8.9m/s | -51.7°C | 0.5% | 91.3hPa | 2.6V | 08:14:23 | 02:12:00 | 00:00:00 | |
| DL1XH-west | 2026-09-02 05:43:26 | 52.70816 | 8.22411 | 81° | 40km/h | 17076m | -8.7m/s | -51.8°C | 0.5% | 91.2hPa | 2.6V | 08:14:23 | 02:11:59 | 00:00:00 | |
| BIOWL1-15 | 2026-09-02 05:43:22 | 52.70807 | 8.22349 | 72° | 35km/h | 17113m | -9.4m/s | -51.9°C | 0.5% | 90.7hPa | 2.6V | 08:14:23 | 02:11:55 | 00:00:00 | |
| AA1-15 | 2026-09-02 05:43:21 | 52.70804 | 8.22336 | 70° | 33km/h | 17122m | -9.5m/s | -52°C | 0.6% | 90.5hPa | 2.6V | 08:14:23 | 02:11:54 | 00:00:00 | |
| DO2JMG | 2026-09-02 05:43:17 | 52.70795 | 8.22298 | 70° | 15km/h | 17159m | -8.9m/s | -52.2°C | 0.6% | 90hPa | 2.6V | 08:14:23 | 02:11:50 | 00:00:00 | |
| DL1XH-west | 2026-09-02 05:43:16 | 52.70794 | 8.22293 | 75° | 11km/h | 17168m | -9.1m/s | -52.2°C | 0.7% | 89.9hPa | 2.6V | 08:14:23 | 02:11:49 | 00:00:00 | |
| DF8AY | 2026-09-02 05:43:15 | 52.70793 | 8.22289 | 81° | 9km/h | 17177m | -9.3m/s | -52.2°C | 0.7% | 89.8hPa | 2.6V | 08:14:23 | 02:11:48 | 00:00:00 | |
| BIOWL1-15 | 2026-09-02 05:43:14 | 52.70794 | 8.22278 | 118° | 9km/h | 17205m | -9.3m/s | -52.2°C | 0.7% | 89.4hPa | 2.6V | 08:14:23 | 02:11:45 | 00:00:00 | |
| DL1XH1-15 | 2026-09-02 05:43:13 | 52.70798 | 8.22270 | 136° | 16km/h | 17223m | -8.8m/s | -52.2°C | 4% | 89.2hPa | 2.6V | 08:14:25 | 02:11:43 | 00:00:00 | |
| AA1-15 | 2026-09-02 05:43:11 | 52.70796 | 8.22274 | 130° | 13km/h | 17214m | -8.9m/s | -52.2°C | 0.7% | 89.3hPa | 2.6V | 08:15:14 | 02:11:44 | 00:00:00 | |
| DB0DAN | 2026-09-02 05:43:10 | 52.70798 | 8.22270 | 136° | 15km/h | 17223m | -8.8m/s | -52.2°C | 1.2% | 89.16hPa | 2.6V | 00:00:00 | 00:00:00 | 00:00:00 | |
| HSKMA3-T | 2026-09-02 05:43:06 | 52.70815 | 8.22244 | 135° | 29km/h | 17260m | -9m/s | -52.3°C | 0.7% | 88.7hPa | 2.6V | 08:15:14 | 02:11:39 | 00:00:00 | |
| DL1XH-west | 2026-09-02 05:43:05 | 52.70821 | 8.22235 | 133° | 33km/h | 17269m | -9.2m/s | -52.2°C | 0.7% | 88.5hPa | 2.6V | 08:15:14 | 02:11:38 | 00:00:00 | |
| DF8AY | 2026-09-02 05:43:04 | 52.70826 | 8.22224 | 128° | 35km/h | 17279m | -9.5m/s | -52.1°C | 0.6% | 88.4hPa | 2.6V | 08:15:14 | 02:11:37 | 00:00:00 | |
| BIOWL1-15 | 2026-09-02 05:43:03 | 52.70837 | 8.22199 | 121° | 40km/h | 17297m | -9.4m/s | -51.9°C | 0.6% | 88.2hPa | 2.7V | 08:15:14 | 02:11:35 | 00:00:00 | |
| AA1-15 | 2026-09-02 05:43:00 | 52.70846 | 8.22168 | 113° | 46km/h | 17316m | -9m/s | -51.9°C | 0.6% | 87.9hPa | 2.6V | 08:15:14 | 02:11:33 | 00:00:00 | |
| HSKMA3-T | 2026-09-02 05:42:56 | 52.70862 | 8.22088 | 104° | 55km/h | 17353m | -9.4m/s | -52°C | 0.7% | 87.3hPa | 2.6V | 08:15:14 | 02:11:29 | 00:00:00 | |
| DB0ND-19 | 2026-09-02 05:42:56 | 52.70881 | 8.21975 | 107° | 57km/h | 17400m | -9.4m/s | -52.2°C | 1.3% | 86.8hPa | 2.6V | 00:00:00 | 00:00:00 | 00:00:00 | |
| DB0DAN | 2026-09-02 05:42:55 | 52.70865 | 8.22066 | 104° | 53km/h | 17362m | -9.3m/s | -52°C | 1.2% | 87.23hPa | 2.6V | 00:00:00 | 00:00:00 | 00:00:00 | |
| DL1XH-west | 2026-09-02 05:42:55 | 52.70865 | 8.22066 | 104° | 57km/h | 17362m | -9.3m/s | -52°C | 0.6% | 87.2hPa | 2.6V | 08:15:14 | 02:11:28 | 00:00:00 | |
| DB0NH | 2026-09-02 05:42:55 | 52.70865 | 8.22066 | 105° | 31km/h | 17362m | -9.3m/s | -52.0°C | 4.0% | 87.2hPa | 2.6V | 00:00:00 | 02:11:28 | 00:00:00 | |
| DM0DOS-11 | 2026-09-02 05:42:54 | 52.70876 | 8.21998 | 106° | 57km/h | 17390m | -9.2m/s | -52.1°C | 4.1% | 86.8hPa | 2.7V | 08:14:43 | 02:11:25 | 00:00:00 | |
| DL1XH1-15 | 2026-09-02 05:42:53 | 52.70885 | 8.21952 | 108° | 57km/h | 17408m | -8.9m/s | -52.2°C | 4.1% | 86.6hPa | 2.6V | 08:14:45 | 02:11:23 | 00:00:00 | |
| DF8AY | 2026-09-02 05:42:53 | 52.70872 | 8.22021 | 105° | 57km/h | 17381m | -9.3m/s | -52.1°C | 0.7% | 87hPa | 2.7V | 08:15:14 | 02:11:26 | 00:00:00 | |
| BIOWL1-15 | 2026-09-02 05:42:51 | 52.70881 | 8.21975 | 108° | 58km/h | 17400m | -9.4m/s | -52.2°C | 0.7% | 86.8hPa | 2.6V | 08:15:14 | 02:11:24 | 00:00:00 | |
| AA1-15 | 2026-09-02 05:42:50 | 52.70885 | 8.21952 | 109° | 57km/h | 17409m | -8.9m/s | -52.2°C | 0.7% | 86.6hPa | 2.6V | 08:15:14 | 02:11:23 | 00:00:00 | |
| DO2JMG | 2026-09-02 05:42:46 | 52.70907 | 8.21860 | 111° | 62km/h | 17446m | -9.8m/s | -51.9°C | 0.6% | 86.1hPa | 2.6V | 08:15:14 | 02:11:19 | 00:00:00 | |
| DM0DOS-11 | 2026-09-02 05:42:46 | 52.70927 | 8.21757 | 102° | 68km/h | 17486m | -10.2m/s | -51.8°C | 4% | 85.6hPa | 2.6V | 08:14:53 | 02:11:15 | 00:00:00 | |
| HSKMA3-T | 2026-09-02 05:42:45 | 52.70913 | 8.21835 | 111° | 64km/h | 17456m | -9.6m/s | -51.9°C | 0.6% | 86hPa | 2.6V | 08:15:14 | 02:11:18 | 00:00:00 | |
| DL1XH-west | 2026-09-02 05:42:44 | 52.70918 | 8.21810 | 109° | 66km/h | 17466m | -10m/s | -51.9°C | 0.6% | 85.9hPa | 2.7V | 08:15:14 | 02:11:17 | 00:00:00 | |
| DF8AY | 2026-09-02 05:42:44 | 52.70923 | 8.21784 | 106° | 66km/h | 17476m | -9.8m/s | -51.9°C | 0.6% | 85.7hPa | 2.7V | 08:15:14 | 02:11:16 | 00:00:00 | |
| BIOWL1-15 | 2026-09-02 05:42:41 | 52.70930 | 8.21730 | 98° | 66km/h | 17496m | -10.2m/s | -51.8°C | 0.6% | 85.5hPa | 2.6V | 08:15:14 | 02:11:14 | 00:00:00 | |
| DO3DL | 2026-09-02 05:42:40 | 52.70932 | 8.21703 | 94° | 66km/h | 17506m | -9.6m/s | -51.8°C | 1.2% | 85.3hPa | 2.6V | 08:15:00 | 00:00:00 | 00:00:00 | |
| DL3OBA | 2026-09-02 05:42:39 | 52.70932 | 8.21703 | 94° | 66km/h | 17506m | -9.6m/s | -51.8°C | 1.2% | 85.3hPa | 2.6V | 08:15:00 | 00:00:00 | 00:00:00 | |
| AA1-15 | 2026-09-02 05:42:39 | 52.70932 | 8.21676 | 87° | 64km/h | 17516m | -9.7m/s | -51.8°C | 0.6% | 85.2hPa | 2.7V | 08:15:14 | 02:11:12 | 00:00:00 | |
| DL1XH-15 | 2026-09-02 05:42:36 | 52.70903 | 8.21540 | 60° | 20km/h | 17594m | -9.4m/s | -51.4°C | 4% | 84.2hPa | 2.6V | 08:15:04 | 02:11:04 | 00:00:00 | |
| DM0DOS-11 | 2026-09-02 05:42:36 | 52.70906 | 8.21549 | 58° | 26km/h | 17585m | -9.4m/s | -51.3°C | 3.9% | 84.3hPa | 2.7V | 08:15:03 | 02:11:05 | 00:00:00 | |
| HSKMA3-T | 2026-09-02 05:42:35 | 52.70919 | 8.21588 | 67° | 46km/h | 17555m | -10.2m/s | -51.4°C | 0.5% | 84.7hPa | 2.6V | 08:15:14 | 02:11:08 | 00:00:00 | |
| DL1XH-west | 2026-09-02 05:42:33 | 52.70910 | 8.21559 | 60° | 33km/h | 17575m | -9.7m/s | -51.3°C | 0.5% | 84.4hPa | 2.7V | 08:15:14 | 02:11:06 | 00:00:00 | |
| BIOWL1-15 | 2026-09-02 05:42:30 | 52.70902 | 8.21534 | 68° | 15km/h | 17604m | -9.3m/s | -51.5°C | 0.6% | 84hPa | 2.6V | 08:15:14 | 02:11:03 | 00:00:00 | |
| AA1-15 | 2026-09-02 05:42:29 | 52.70901 | 8.21529 | 83° | 11km/h | 17613m | -9.3m/s | -51.6°C | 0.6% | 84hPa | 2.6V | 08:15:14 | 02:11:02 | 00:00:00 | |
| DO2SHX-10 | 2026-09-02 05:42:27 | 52.70902 | 8.21520 | 119° | 24km/h | 17633m | -9.7m/s | -51.6°C | 4.0% | 83.6hPa | 2.7V | 00:00:00 | 02:11:00 | 00:00:00 | |
| DL1XH-15 | 2026-09-02 05:42:26 | 52.70921 | 8.21478 | 120° | 27km/h | 17691m | -9.7m/s | -51.5°C | 4.1% | 83hPa | 2.7V | 08:15:14 | 02:10:54 | 00:00:00 | |
| DM0DOS-11 | 2026-09-02 05:42:26 | 52.70917 | 8.21488 | 125° | 26km/h | 17681m | -9.6m/s | -51.5°C | 4.1% | 83.1hPa | 2.7V | 08:15:13 | 02:10:55 | 00:00:00 | |
| DB0DAN | 2026-09-02 05:42:25 | 52.70906 | 8.21510 | 131° | 18km/h | 17652m | -9.6m/s | -51.5°C | 1.2% | 83.5hPa | 2.6V | 00:00:00 | 00:00:00 | 00:00:00 | |
| DO2JMG | 2026-09-02 05:42:25 | 52.70906 | 8.21510 | 131° | 18km/h | 17652m | -9.6m/s | -51.5°C | 0.6% | 83.5hPa | 2.6V | 08:15:14 | 02:10:58 | 00:00:00 | |
| HSKMA3-T | 2026-09-02 05:42:24 | 52.70909 | 8.21503 | 130° | 22km/h | 17662m | -9.5m/s | -51.5°C | 0.6% | 83.3hPa | 2.6V | 08:15:14 | 02:10:57 | 00:00:00 | |
| DL1XH-west | 2026-09-02 05:42:23 | 52.70913 | 8.21496 | 127° | 24km/h | 17671m | -9.8m/s | -51.5°C | 0.6% | 83.2hPa | 2.6V | 08:15:14 | 02:10:56 | 00:00:00 | |
| DF8AY | 2026-09-02 05:42:22 | 52.70917 | 8.21488 | 126° | 27km/h | 17681m | -9.6m/s | -51.5°C | 0.7% | 83.1hPa | 2.7V | 08:15:14 | 02:10:55 | 00:00:00 | |
| AA1-15 | 2026-09-02 05:42:19 | 52.70928 | 8.21456 | 117° | 33km/h | 17709m | -9.2m/s | -51.2°C | 0.6% | 82.6hPa | 2.6V | 08:16:05 | 02:10:52 | 00:00:00 | |
| DB0UT-7 | 2026-09-02 05:42:19 | 52.70928 | 8.21456 | 118° | 37km/h | 17709m | -9.2m/s | -51.2°C | 4.0% | 82.6hPa | 2.7V | 00:00:00 | 02:10:52 | 00:00:00 | |
| DL3OBA | 2026-09-02 05:42:18 | 52.70928 | 8.21456 | 118° | 33km/h | 17709m | -9.2m/s | -51.2°C | 1.2% | 82.6hPa | 2.7V | 08:16:00 | 00:00:00 | 00:00:00 | |
| DB0NH | 2026-09-02 05:42:17 | 52.70935 | 8.21430 | 114° | 27km/h | 17728m | -9.5m/s | -51.1°C | 3.9% | 82.4hPa | 2.7V | 00:00:00 | 02:10:50 | 00:00:00 | |
| DL1XH-15 | 2026-09-02 05:42:16 | 52.70955 | 8.21342 | 108° | 38km/h | 17786m | -9.6m/s | -50.8°C | 3.9% | 81.7hPa | 2.7V | 08:15:24 | 02:10:44 | 00:00:00 | |
| DM0DOS-11 | 2026-09-02 05:42:16 | 52.70952 | 8.21358 | 109° | 38km/h | 17776m | -9.6m/s | -51.1°C | 4% | 81.8hPa | 2.7V | 08:15:23 | 02:10:45 | 00:00:00 | |
| HSKMA3-T | 2026-09-02 05:42:14 | 52.70946 | 8.21388 | 111° | 37km/h | 17757m | -9.6m/s | -51.2°C | 0.6% | 82.1hPa | 2.6V | 08:16:05 | 02:10:47 | 00:00:00 | |
| DL1XH-west | 2026-09-02 05:42:12 | 52.70952 | 8.21358 | 109° | 38km/h | 17776m | -9.6m/s | -51.1°C | 0.6% | 81.8hPa | 2.7V | 08:16:05 | 02:10:45 | 00:00:00 | |
| DF8AY | 2026-09-02 05:42:11 | 52.70955 | 8.21343 | 108° | 38km/h | 17786m | -9.6m/s | -50.8°C | 0.5% | 81.7hPa | 2.7V | 08:16:05 | 02:10:44 | 00:00:00 | |
| BIOWL1-15 | 2026-09-02 05:42:08 | 52.70965 | 8.21297 | 110° | 38km/h | 17815m | -9.5m/s | -50.3°C | 0.4% | 81.4hPa | 2.6V | 08:16:05 | 02:10:41 | 00:00:00 | |
| DL3AQ-11 | 2026-09-02 05:42:08 | 52.70969 | 8.21282 | 111° | 38km/h | 17824m | -9.7m/s | -50.3°C | 1.1% | 81.3hPa | 2.6V | 00:00:00 | 00:00:00 | 00:00:00 | |
| DO2SHX-10 | 2026-09-02 05:42:07 | 52.70969 | 8.21282 | 112° | 38km/h | 17824m | -9.7m/s | -50.3°C | 3.7% | 81.2hPa | 2.6V | 00:00:00 | 02:10:40 | 00:00:00 | |
| DL1XH-15 | 2026-09-02 05:42:06 | 52.70995 | 8.21192 | 118° | 42km/h | 17883m | -9.9m/s | -50.1°C | 3.6% | 80.5hPa | 2.6V | 08:15:34 | 02:10:34 | 00:00:00 | |
| DO2JMG | 2026-09-02 05:42:04 | 52.70981 | 8.21238 | 116° | 40km/h | 17853m | -9.5m/s | -50.1°C | 0.4% | 80.9hPa | 2.6V | 08:16:05 | 02:10:37 | 00:00:00 | |
| DL1XH1-15 | 2026-09-02 05:42:03 | 52.71000 | 8.21177 | 120° | 42km/h | 17892m | -9.9m/s | -50.1°C | 3.6% | 80.4hPa | 2.6V | 08:15:35 | 02:10:33 | 00:00:00 | |
| HSKMA3-T | 2026-09-02 05:42:03 | 52.70985 | 8.21223 | 117° | 40km/h | 17863m | -9.8m/s | -50.1°C | 0.3% | 80.8hPa | 2.7V | 08:16:05 | 02:10:36 | 00:00:00 | |
| DL1XH-west | 2026-09-02 05:42:01 | 52.70995 | 8.21192 | 118° | 42km/h | 17883m | -9.9m/s | -50.1°C | 0.4% | 80.5hPa | 2.6V | 08:16:05 | 02:10:34 | 00:00:00 | |
| DF8AY | 2026-09-02 05:42:00 | 52.71000 | 8.21177 | 121° | 42km/h | 17892m | -9.9m/s | -50.1°C | 0.4% | 80.4hPa | 2.6V | 08:16:05 | 02:10:33 | 00:00:00 | |
| BIOWL1-15 | 2026-09-02 05:42:00 | 52.71011 | 8.21146 | 123° | 44km/h | 17912m | -10.2m/s | -50.2°C | 0.4% | 80.2hPa | 2.7V | 08:16:05 | 02:10:31 | 00:00:00 | |
| AA1-15 | 2026-09-02 05:41:57 | 52.71018 | 8.21132 | 125° | 42km/h | 17923m | -10.1m/s | -50.3°C | 0.4% | 80hPa | 2.7V | 08:16:05 | 02:10:30 | 00:00:00 | |
| DL1XH-15 | 2026-09-02 05:41:56 | 52.71049 | 8.21064 | 128° | 26km/h | 17982m | -10m/s | -50.6°C | 3.7% | 79.3hPa | 2.7V | 08:15:44 | 02:10:24 | 00:00:00 | |
| DB0DAN | 2026-09-02 05:41:55 | 52.71030 | 8.21104 | 128° | 37km/h | 17943m | -10m/s | -50.4°C | 1.1% | 79.83hPa | 2.6V | 00:00:00 | 00:00:00 | 00:00:00 | |
| DL1XH1-15 | 2026-09-02 05:41:55 | 52.71053 | 8.21056 | 129° | 24km/h | 17991m | -10.1m/s | -50.7°C | 3.7% | 79.2hPa | 2.6V | 08:15:45 | 02:10:23 | 00:00:00 | |
| DO2JMG | 2026-09-02 05:41:54 | 52.71035 | 8.21093 | 129° | 35km/h | 17953m | -9.9m/s | -50.4°C | 0.4% | 79.6hPa | 2.6V | 08:16:05 | 02:10:27 | 00:00:00 | |
| HSKMA3-T | 2026-09-02 05:41:53 | 52.71040 | 8.21082 | 129° | 31km/h | 17962m | -9.6m/s | -50.5°C | 0.4% | 79.6hPa | 2.6V | 08:16:05 | 02:10:26 | 00:00:00 | |
| DL1XH-west | 2026-09-02 05:41:50 | 52.71053 | 8.21056 | 130° | 24km/h | 17992m | -10.1m/s | -50.7°C | 0.5% | 79.2hPa | 2.6V | 08:16:05 | 02:10:23 | 00:00:00 | |
| BIOWL1-15 | 2026-09-02 05:41:49 | 52.71065 | 8.21033 | 130° | 24km/h | 18023m | -10.2m/s | -50.8°C | 0.5% | 78.8hPa | 2.7V | 08:16:05 | 02:10:20 | 00:00:00 | |
| AA1-15 | 2026-09-02 05:41:46 | 52.71069 | 8.21025 | 131° | 26km/h | 18033m | -10.4m/s | -50.9°C | 0.6% | 78.7hPa | 2.7V | 08:16:05 | 02:10:19 | 00:00:00 | |
| DD1CC8 | 2026-09-02 05:41:45 | 52.71074 | 8.21017 | 131° | 26km/h | 18043m | -10.4m/s | -50.9°C | 1.2% | 78.6hPa | 2.6V | 00:00:00 | 00:00:00 | 00:00:00 | |
| HSKMA3-T | 2026-09-02 05:41:43 | 52.71083 | 8.21000 | 133° | 31km/h | 18063m | -9.9m/s | -50.8°C | 0.5% | 78.4hPa | 2.6V | 08:16:05 | 02:10:16 | 00:00:00 | |
| DD8BA-10 | 2026-09-02 05:41:43 | 52.71083 | 8.20999 | 133° | 31km/h | 18064m | -9.9m/s | -50.7°C | 3.8% | 78.3hPa | 2.7V | 00:00:00 | 00:00:00 | 00:00:00 | |
| DL1XH1-15 | 2026-09-02 05:41:41 | 52.71100 | 8.20970 | 131° | 33km/h | 18094m | -10.1m/s | -50.4°C | 3.7% | 78hPa | 2.7V | 08:15:55 | 02:10:13 | 00:00:00 | |
| DB0DAN | 2026-09-02 05:41:40 | 52.71100 | 8.20970 | 131° | 31km/h | 18094m | -10.1m/s | -50.4°C | 1.1% | 77.96hPa | 2.7V | 00:00:00 | 00:00:00 | 00:00:00 | |
| DF8AY | 2026-09-02 05:41:40 | 52.71100 | 8.20970 | 131° | 33km/h | 18094m | -10.1m/s | -50.4°C | 0.4% | 78hPa | 2.7V | 08:16:05 | 02:10:13 | 00:00:00 | |
| DL1XH-west | 2026-09-02 05:41:39 | 52.71105 | 8.20960 | 130° | 31km/h | 18104m | -10.2m/s | -50.3°C | 0.4% | 77.8hPa | 2.6V | 08:16:05 | 02:10:12 | 00:00:00 | |
| BIOWL1-15 | 2026-09-02 05:41:36 | 52.71119 | 8.20930 | 126° | 29km/h | 18134m | -10.1m/s | -50.5°C | 0.4% | 77.5hPa | 2.7V | 08:16:05 | 02:10:09 | 00:00:00 | |
| DO2JMG | 2026-09-02 05:41:34 | 52.71130 | 8.20902 | 119° | 24km/h | 18164m | -10m/s | -50.7°C | 0.5% | 77.1hPa | 2.6V | 08:16:05 | 02:10:06 | 00:00:00 | |
| HSKMA3-T | 2026-09-02 05:41:32 | 52.71133 | 8.20893 | 116° | 22km/h | 18175m | -10.1m/s | -50.8°C | 0.5% | 77hPa | 2.7V | 08:16:05 | 02:10:05 | 00:00:00 | |
| DL1XH1-15 | 2026-09-02 05:41:31 | 52.71137 | 8.20877 | 111° | 20km/h | 18195m | -10.1m/s | -50.8°C | 3.8% | 76.7hPa | 2.7V | 08:16:05 | 02:10:03 | 00:00:00 | |
| DF8AY | 2026-09-02 05:41:29 | 52.71139 | 8.20869 | 111° | 20km/h | 18205m | -10.2m/s | -50.9°C | 0.5% | 76.7hPa | 2.6V | 08:16:56 | 02:10:02 | 00:00:00 | |
| DL1XH-west | 2026-09-02 05:41:28 | 52.71141 | 8.20862 | 113° | 20km/h | 18215m | -10.4m/s | -50.9°C | 0.5% | 76.5hPa | 2.6V | 08:16:56 | 02:10:01 | 00:00:00 | |
| DM0DOS-11 | 2026-09-02 05:41:27 | 52.71159 | 8.20818 | 135° | 22km/h | 18277m | -10.2m/s | -50.3°C | 3.7% | 75.8hPa | 2.7V | 08:16:13 | 02:09:55 | 00:00:00 | |
| BIOWL1-15 | 2026-09-02 05:41:26 | 52.71145 | 8.20846 | 121° | 20km/h | 18236m | -10.2m/s | -50.7°C | 0.6% | 76.3hPa | 2.7V | 08:16:56 | 02:09:59 | 00:00:00 | |
| AA1-15 | 2026-09-02 05:41:26 | 52.71148 | 8.20839 | 125° | 22km/h | 18246m | -10.1m/s | -50.4°C | 0.4% | 76.2hPa | 2.7V | 08:16:56 | 02:09:58 | 00:00:00 | |
| HSKMA3-T | 2026-09-02 05:41:22 | 52.71159 | 8.20818 | 136° | 22km/h | 18277m | -10.2m/s | -50.3°C | 0.4% | 75.8hPa | 2.7V | 08:16:56 | 02:09:55 | 00:00:00 | |
| DF8AY | 2026-09-02 05:41:19 | 52.71171 | 8.20801 | 144° | 18km/h | 18308m | -10.4m/s | -50.5°C | 0.5% | 75.5hPa | 2.6V | 08:16:56 | 02:09:52 | 00:00:00 | |
| DL1XH-west | 2026-09-02 05:41:17 | 52.71178 | 8.20794 | 148° | 13km/h | 18329m | -10.5m/s | -50.5°C | 0.5% | 75.2hPa | 2.7V | 08:16:56 | 02:09:50 | 00:00:00 | |
| DM0DOS-11 | 2026-09-02 05:41:16 | 52.71186 | 8.20781 | 85° | 7km/h | 18382m | -10.2m/s | -50.5°C | 3.8% | 74.6hPa | 2.6V | 08:16:23 | 02:09:45 | 00:00:00 | |
| DL1XH-15 | 2026-09-02 05:41:16 | 52.71185 | 8.20777 | 68° | 11km/h | 18392m | -10.1m/s | -50.5°C | 3.7% | 74.5hPa | 2.7V | 08:16:24 | 02:09:44 | 00:00:00 | |
| BIOWL1-15 | 2026-09-02 05:41:16 | 52.71180 | 8.20791 | 148° | 11km/h | 18339m | -10.8m/s | -50.6°C | 0.5% | 75.1hPa | 2.7V | 08:16:56 | 02:09:49 | 00:00:00 | |
| AA1-15 | 2026-09-02 05:41:15 | 52.71183 | 8.20789 | 147° | 9km/h | 18350m | -10.6m/s | -50.6°C | 0.5% | 75hPa | 2.7V | 08:16:56 | 02:09:48 | 00:00:00 | |
| HSKMA3-T | 2026-09-02 05:41:11 | 52.71185 | 8.20777 | 68° | 11km/h | 18392m | -10.1m/s | -50.5°C | 0.5% | 74.5hPa | 2.7V | 08:16:56 | 02:09:44 | 00:00:00 | |
| DB0DAN | 2026-09-02 05:41:10 | 52.71184 | 8.20772 | 60° | 15km/h | 18402m | -10m/s | -50.5°C | 1.1% | 74.36hPa | 2.7V | 00:00:00 | 00:00:00 | 00:00:00 | |
| DF8AY | 2026-09-02 05:41:09 | 52.71182 | 8.20767 | 57° | 18km/h | 18412m | -10.2m/s | -50.5°C | 0.4% | 74.2hPa | 2.6V | 08:16:56 | 02:09:42 | 00:00:00 | |
| BIOWL1-15 | 2026-09-02 05:41:07 | 52.71168 | 8.20736 | 51° | 27km/h | 18454m | -10.7m/s | -50.4°C | 0.4% | 73.8hPa | 2.6V | 08:16:56 | 02:09:38 | 00:00:00 | |
| DL1XH-west | 2026-09-02 05:41:07 | 52.71176 | 8.20752 | 53° | 24km/h | 18433m | -10.5m/s | -50.4°C | 0.4% | 74hPa | 2.7V | 08:16:56 | 02:09:40 | 00:00:00 | |
| DL1XH-15 | 2026-09-02 05:41:06 | 52.71149 | 8.20689 | 64° | 40km/h | 18497m | -10.5m/s | -50.6°C | 3.7% | 73.3hPa | 2.7V | 08:16:34 | 02:09:34 | 00:00:00 | |
| DM0DOS-11 | 2026-09-02 05:41:06 | 52.71154 | 8.20703 | 60° | 37km/h | 18486m | -10.7m/s | -50.6°C | 3.7% | 73.4hPa | 2.7V | 08:16:33 | 02:09:35 | 00:00:00 | |
| AA1-15 | 2026-09-02 05:41:04 | 52.71163 | 8.20726 | 53° | 31km/h | 18465m | -10.7m/s | -50.5°C | 0.4% | 73.7hPa | 2.6V | 08:16:56 | 02:09:37 | 00:00:00 | |
| HSKMA3-T | 2026-09-02 05:41:01 | 52.71149 | 8.20689 | 64° | 40km/h | 18497m | -10.5m/s | -50.6°C | 0.5% | 73.3hPa | 2.7V | 08:16:56 | 02:09:34 | 00:00:00 | |
| DF8AY | 2026-09-02 05:40:58 | 52.71140 | 8.20636 | 80° | 47km/h | 18528m | -9.9m/s | -50.8°C | 0.5% | 72.9hPa | 2.6V | 08:16:56 | 02:09:31 | 00:00:00 | |
| DM0DOS-11 | 2026-09-02 05:40:57 | 52.71133 | 8.20514 | 82° | 49km/h | 18590m | -10.9m/s | -50.9°C | 3.7% | 72.2hPa | 2.7V | 08:16:43 | 02:09:25 | 00:00:00 | |
| DL1XH-west | 2026-09-02 05:40:57 | 52.71138 | 8.20617 | 84° | 49km/h | 18537m | -10.1m/s | -50.8°C | 0.5% | 72.8hPa | 2.6V | 08:16:56 | 02:09:30 | 00:00:00 | |
| DL1XH-15 | 2026-09-02 05:40:56 | 52.71132 | 8.20494 | 78° | 46km/h | 18601m | -10.2m/s | -50.9°C | 3.7% | 72.1hPa | 2.7V | 08:16:44 | 02:09:24 | 00:00:00 | |
| DO1YAY-16 | 2026-09-02 05:40:56 | 52.71136 | 8.20576 | 87° | 49km/h | 18558m | -10.4m/s | -50.9°C | 1.1% | 72.6hPa | 2.7V | 00:00:00 | 00:00:00 | 00:00:00 | |
| DB0DAN | 2026-09-02 05:40:55 | 52.71136 | 8.20576 | 87° | 47km/h | 18558m | -10.4m/s | -50.9°C | 1.1% | 72.61hPa | 2.7V | 00:00:00 | 00:00:00 | 00:00:00 | |
| BIOWL1-15 | 2026-09-02 05:40:54 | 52.71136 | 8.20555 | 87° | 49km/h | 18569m | -10.6m/s | -50.9°C | 0.5% | 72.5hPa | 2.6V | 08:16:56 | 02:09:27 | 00:00:00 | |
| HSKMA3-T | 2026-09-02 05:40:51 | 52.71131 | 8.20494 | 78° | 46km/h | 18601m | -10.2m/s | -50.9°C | 0.4% | 72.1hPa | 2.7V | 08:16:56 | 02:09:24 | 00:00:00 | |
| DL1XH1-15 | 2026-09-02 05:40:50 | 52.71129 | 8.20476 | 73° | 44km/h | 18611m | -10m/s | -50.8°C | 3.8% | 72hPa | 2.6V | 08:16:45 | 02:09:23 | 00:00:00 | |
| DF8AY | 2026-09-02 05:40:48 | 52.71122 | 8.20443 | 67° | 40km/h | 18631m | -10m/s | -50.9°C | 0.5% | 71.8hPa | 2.6V | 08:16:56 | 02:09:21 | 00:00:00 | |
| DL1XH-west | 2026-09-02 05:40:47 | 52.71118 | 8.20427 | 69° | 40km/h | 18641m | -10.2m/s | -50.9°C | 0.5% | 71.7hPa | 2.7V | 08:16:56 | 02:09:20 | 00:00:00 | |
| DO2SHX-10 | 2026-09-02 05:40:47 | 52.71118 | 8.20427 | 69° | 40km/h | 18641m | -10.2m/s | -50.8°C | 3.8% | 71.6hPa | 2.7V | 00:00:00 | 02:09:20 | 00:00:00 | |
| DL1XH-15 | 2026-09-02 05:40:46 | 52.71098 | 8.20332 | 70° | 42km/h | 18704m | -10.6m/s | -50.9°C | 3.7% | 71hPa | 2.7V | 08:16:54 | 02:09:14 | 00:00:00 | |
| DK5PH-5 | 2026-09-02 05:40:46 | 52.71114 | 8.20412 | 69° | 38km/h | 18652m | -10.1m/s | -50.9°C | 3.8% | 71.5hPa | 2.7V | 00:00:00 | 02:09:19 | 00:00:00 | |
| DL1XH1-15 | 2026-09-02 05:40:45 | 52.71094 | 8.20316 | 68° | 42km/h | 18714m | -10.6m/s | -50.8°C | 3.7% | 70.9hPa | 2.7V | 08:16:55 | 02:09:13 | 00:00:00 | |
| AA1-15 | 2026-09-02 05:40:44 | 52.71107 | 8.20381 | 72° | 40km/h | 18672m | -10.5m/s | -50.9°C | 0.5% | 71.3hPa | 2.6V | 08:16:56 | 02:09:17 | 00:00:00 | |
| BIOWL1-15 | 2026-09-02 05:40:43 | 52.71104 | 8.20365 | 72° | 42km/h | 18683m | -10.8m/s | -51°C | 0.5% | 71.2hPa | 2.6V | 08:16:56 | 02:09:16 | 00:00:00 | |
| HSKMA3-T | 2026-09-02 05:40:41 | 52.71097 | 8.20332 | 70° | 42km/h | 18704m | -10.6m/s | -50.9°C | 0.4% | 71hPa | 2.7V | 08:16:56 | 02:09:14 | 00:00:00 | |
| DO2JMG | 2026-09-02 05:40:40 | 52.71094 | 8.20316 | 69° | 42km/h | 18714m | -10.6m/s | -50.8°C | 0.5% | 70.9hPa | 2.7V | 08:16:56 | 02:09:13 | 00:00:00 | |
| DL1XH-west | 2026-09-02 05:40:37 | 52.71082 | 8.20269 | 67° | 40km/h | 18746m | -10.6m/s | -50.9°C | 0.5% | 70.5hPa | 2.6V | 08:17:47 | 02:09:10 | 00:00:00 | |
| BIOWL1-15 | 2026-09-02 05:40:33 | 52.71065 | 8.20210 | 64° | 38km/h | 18788m | -10.5m/s | -51.2°C | 0.5% | 70.1hPa | 2.6V | 08:17:47 | 02:09:06 | 00:00:00 | |
| DD8BA-10 | 2026-09-02 05:40:33 | 52.71065 | 8.20210 | 64° | 38km/h | 18788m | -10.5m/s | -51.1°C | 3.8% | 70.0hPa | 2.7V | 00:00:00 | 00:00:00 | 00:00:00 | |
| EDDB2-12 | 2026-09-02 05:40:32 | 52.71061 | 8.20195 | 62° | 38km/h | 18799m | -10.6m/s | -51.3°C | 1.2% | 70.0hPa | 2.7V | 00:00:00 | 00:00:00 | 00:00:00 | |
| DL8OAI-8 | 2026-09-02 05:40:31 | 52.71061 | 8.20195 | 63° | 38km/h | 18799m | -10.6m/s | -51.3°C | 1.2% | 70.0hPa | 2.7V | 08:17:00 | 00:00:00 | 00:00:00 | |
| DL1XH1-15 | 2026-09-02 05:40:30 | 52.71052 | 8.20167 | 62° | 38km/h | 18819m | -10.4m/s | -51.4°C | 3.9% | 69.7hPa | 2.7V | 08:17:05 | 02:09:03 | 00:00:00 | |
| HSKMA3-T | 2026-09-02 05:40:30 | 52.71052 | 8.20167 | 62° | 38km/h | 18820m | -10.4m/s | -51.4°C | 0.6% | 69.7hPa | 2.7V | 08:17:47 | 02:09:03 | 00:00:00 | |
| DL1XH-west | 2026-09-02 05:40:27 | 52.71040 | 8.20125 | 65° | 37km/h | 18851m | -10.5m/s | -51.4°C | 0.6% | 69.4hPa | 2.6V | 08:17:47 | 02:09:00 | 00:00:00 | |
| DM0DOS-11 | 2026-09-02 05:40:26 | 52.71021 | 8.20055 | 67° | 37km/h | 18904m | -10.7m/s | -51.5°C | 4% | 68.8hPa | 2.6V | 08:17:13 | 02:08:55 | 00:00:00 | |
| DF8AY | 2026-09-02 05:40:26 | 52.71036 | 8.20111 | 65° | 37km/h | 18862m | -10.5m/s | -51.4°C | 0.6% | 69.3hPa | 2.6V | 08:17:47 | 02:08:59 | 00:00:00 | |
| DB0DAN | 2026-09-02 05:40:25 | 52.71032 | 8.20097 | 66° | 35km/h | 18872m | -10.5m/s | -51.4°C | 1.1% | 69.14hPa | 2.6V | 00:00:00 | 00:00:00 | 00:00:00 | |
| AA1-15 | 2026-09-02 05:40:22 | 52.71021 | 8.20055 | 68° | 37km/h | 18904m | -10.7m/s | -51.5°C | 0.6% | 68.8hPa | 2.6V | 08:17:47 | 02:08:55 | 00:00:00 | |
| HSKMA3-T | 2026-09-02 05:40:19 | 52.71012 | 8.20011 | 76° | 38km/h | 18936m | -10.6m/s | -51.5°C | 0.6% | 68.5hPa | 2.7V | 08:17:47 | 02:08:52 | 00:00:00 | |
| DB0UT-7 | 2026-09-02 05:40:19 | 52.71012 | 8.20011 | 77° | 44km/h | 18937m | -10.5m/s | -51.5°C | 4.0% | 68.4hPa | 2.7V | 08:17:00 | 02:08:52 | 00:00:00 | |
| SONCRA | 2026-09-02 05:40:18 | 52.71008 | 8.19980 | 83° | 37km/h | 18957m | -10.5m/s | -51.6°C | 1.2% | 68.3hPa | 2.7V | 00:00:00 | 00:00:00 | 00:00:00 | |
| DM0DOS-11 | 2026-09-02 05:40:16 | 52.71004 | 8.19899 | 87° | 40km/h | 19011m | -10.7m/s | -51.5°C | 4% | 67.7hPa | 2.7V | 08:17:23 | 02:08:45 | 00:00:00 | |
| DL1XH-15 | 2026-09-02 05:40:16 | 52.71004 | 8.19882 | 89° | 40km/h | 19022m | -10.9m/s | -51.5°C | 4% | 67.6hPa | 2.7V | 08:17:24 | 02:08:44 | 00:00:00 | |
| DL1XH-west | 2026-09-02 05:40:16 | 52.71007 | 8.19965 | 85° | 38km/h | 18968m | -10.9m/s | -51.7°C | 0.7% | 68.2hPa | 2.6V | 08:17:47 | 02:08:49 | 00:00:00 | |
| DF8AY | 2026-09-02 05:40:15 | 52.71007 | 8.19949 | 85° | 38km/h | 18979m | -10.7m/s | -51.7°C | 0.7% | 68hPa | 2.6V | 08:17:47 | 02:08:48 | 00:00:00 | |
| BIOWL1-15 | 2026-09-02 05:40:12 | 52.71004 | 8.19899 | 88° | 40km/h | 19011m | -10.7m/s | -51.5°C | 0.6% | 67.7hPa | 2.7V | 08:17:47 | 02:08:45 | 00:00:00 | |
| DL1LOL-11 | 2026-09-02 05:40:11 | 52.71004 | 8.19899 | 89° | 40km/h | 19011m | -10.7m/s | -51.5°C | 1.2% | 67.7hPa | 2.6V | 08:17:00 | 00:00:00 | 00:00:00 | |
| DB0DAN | 2026-09-02 05:40:10 | 52.71004 | 8.19865 | 93° | 38km/h | 19033m | -10.8m/s | -51.4°C | 1.2% | 67.52hPa | 2.6V | 00:00:00 | 00:00:00 | 00:00:00 | |
| HSKMA3-T | 2026-09-02 05:40:09 | 52.71005 | 8.19848 | 96° | 40km/h | 19044m | -10.7m/s | -51.4°C | 0.7% | 67.4hPa | 2.6V | 08:17:47 | 02:08:42 | 00:00:00 | |
| DL3AQ-11 | 2026-09-02 05:40:08 | 52.71006 | 8.19831 | 96° | 40km/h | 19054m | -10.9m/s | -51.4°C | 1.2% | 67.2hPa | 2.7V | 00:00:00 | 00:00:00 | 00:00:00 | |
| DD1CC2-15 | 2026-09-02 05:40:07 | 52.71006 | 8.19831 | 97° | 42km/h | 19055m | -10.9m/s | -51.4°C | 1.2% | 67.2hPa | 2.7V | 08:17:00 | 00:00:00 | 00:00:00 | |
| DL1XH-15 | 2026-09-02 05:40:06 | 52.71013 | 8.19703 | 93° | 47km/h | 19130m | -10.9m/s | -51.3°C | 4.1% | 66.5hPa | 2.7V | 08:17:34 | 02:08:34 | 00:00:00 | |
| DM0DOS-11 | 2026-09-02 05:40:06 | 52.71012 | 8.19722 | 92° | 46km/h | 19119m | -10.8m/s | -51.3°C | 4.1% | 66.6hPa | 2.7V | 08:17:33 | 02:08:35 | 00:00:00 | |
| DJ2DS-15 | 2026-09-02 05:40:06 | 52.71010 | 8.19778 | 95° | 44km/h | 19087m | -10.6m/s | -51.3°C | 1.2% | 66.9hPa | 2.7V | 00:00:00 | 00:00:00 | 00:00:00 | |
| DL1XH1-15 | 2026-09-02 05:40:05 | 52.71014 | 8.19684 | 94° | 47km/h | 19141m | -10.6m/s | -51.2°C | 4.1% | 66.4hPa | 2.7V | 08:17:35 | 02:08:33 | 00:00:00 | |
| DL1XH-west | 2026-09-02 05:40:05 | 52.71010 | 8.19778 | 95° | 44km/h | 19087m | -10.6m/s | -51.3°C | 0.7% | 66.9hPa | 2.6V | 08:17:47 | 02:08:38 | 00:00:00 | |
| DF8AY | 2026-09-02 05:40:04 | 52.71011 | 8.19760 | 94° | 46km/h | 19098m | -10.9m/s | -51.3°C | 0.7% | 66.8hPa | 2.6V | 08:17:47 | 02:08:37 | 00:00:00 | |
| BIOWL1-15 | 2026-09-02 05:40:03 | 52.71013 | 8.19703 | 94° | 47km/h | 19130m | -10.9m/s | -51.3°C | 0.7% | 66.5hPa | 2.7V | 08:17:47 | 02:08:34 | 00:00:00 | |
| AA1-15 | 2026-09-02 05:40:02 | 52.71012 | 8.19722 | 93° | 46km/h | 19119m | -10.8m/s | -51.3°C | 0.7% | 66.6hPa | 2.7V | 08:17:47 | 02:08:35 | 00:00:00 | |
| HSKMA3-T | 2026-09-02 05:39:58 | 52.71017 | 8.19645 | 100° | 47km/h | 19162m | -11m/s | -51.2°C | 0.7% | 66.1hPa | 2.6V | 08:17:47 | 02:08:31 | 00:00:00 | |
| DM0DOS-11 | 2026-09-02 05:39:57 | 52.71038 | 8.19526 | 116° | 47km/h | 19230m | -11.8m/s | -50.7°C | 3.8% | 65.4hPa | 2.6V | 08:17:43 | 02:08:25 | 00:00:00 | |
| DL1XH-15 | 2026-09-02 05:39:56 | 52.71044 | 8.19509 | 122° | 46km/h | 19242m | -11.4m/s | -50.6°C | 3.7% | 65.3hPa | 2.6V | 08:17:44 | 02:08:24 | 00:00:00 | |
| DL1XH1-15 | 2026-09-02 05:39:55 | 52.71050 | 8.19495 | 129° | 40km/h | 19253m | -11.3m/s | -50.5°C | 3.7% | 65.2hPa | 2.7V | 08:17:45 | 02:08:23 | 00:00:00 | |
| DL1XH-west | 2026-09-02 05:39:54 | 52.71029 | 8.19564 | 108° | 51km/h | 19207m | -11.5m/s | -51°C | 0.6% | 65.7hPa | 2.7V | 08:17:47 | 02:08:27 | 00:00:00 | |
| DF8AY | 2026-09-02 05:39:53 | 52.71033 | 8.19544 | 112° | 49km/h | 19219m | -11.6m/s | -50.8°C | 0.5% | 65.5hPa | 2.6V | 08:17:47 | 02:08:26 | 00:00:00 | |
| BIOWL1-15 | 2026-09-02 05:39:52 | 52.71050 | 8.19495 | 130° | 40km/h | 19254m | -11.4m/s | -50.5°C | 0.5% | 65.2hPa | 2.7V | 08:17:47 | 02:08:23 | 00:00:00 | |
| AA1-15 | 2026-09-02 05:39:51 | 52.71044 | 8.19509 | 123° | 46km/h | 19242m | -11.5m/s | -50.6°C | 0.5% | 65.3hPa | 2.6V | 08:17:47 | 02:08:24 | 00:00:00 | |
| HSKMA3-T | 2026-09-02 05:39:48 | 52.71062 | 8.19473 | 135° | 31km/h | 19276m | -11.4m/s | -50.4°C | 0.5% | 65hPa | 2.6V | 08:17:47 | 02:08:21 | 00:00:00 | |
| DO2JMG | 2026-09-02 05:39:47 | 52.71067 | 8.19465 | 138° | 26km/h | 19288m | -10.8m/s | -50.3°C | 0.5% | 64.8hPa | 2.6V | 08:18:38 | 02:08:20 | 00:00:00 | |
| SONCRA | 2026-09-02 05:39:47 | 52.71071 | 8.19459 | 133° | 18km/h | 19298m | -10.8m/s | -50.3°C | 1.1% | 64.8hPa | 2.6V | 00:00:00 | 00:00:00 | 00:00:00 | |
| DL1XH-15 | 2026-09-02 05:39:46 | 52.71074 | 8.19435 | 71° | 13km/h | 19353m | -10.9m/s | -50.3°C | 3.7% | 64.2hPa | 2.6V | 08:17:54 | 02:08:14 | 00:00:00 | |
| DK5PH-5 | 2026-09-02 05:39:46 | 52.71071 | 8.19459 | 134° | 26km/h | 19299m | -10.8m/s | -50.2°C | 3.7% | 64.7hPa | 2.6V | 00:00:00 | 02:08:19 | 00:00:00 | |
| DL1XH1-15 | 2026-09-02 05:39:45 | 52.71074 | 8.19430 | 73° | 13km/h | 19364m | -11.1m/s | -50.3°C | 3.7% | 64.1hPa | 2.6V | 08:17:55 | 02:08:13 | 00:00:00 | |
| BIOWL9-15 | 2026-09-02 05:39:45 | 52.71074 | 8.19453 | 121° | 13km/h | 19309m | -10.7m/s | -50.1°C | 1.1% | 64.7hPa | 2.7V | 00:00:00 | 00:00:00 | 00:00:00 | |
| DL1XH-west | 2026-09-02 05:39:43 | 52.71075 | 8.19444 | 85° | 11km/h | 19331m | -10.8m/s | -50.1°C | 0.4% | 64.4hPa | 2.7V | 08:18:38 | 02:08:16 | 00:00:00 | |
| DF8AY | 2026-09-02 05:39:42 | 52.71075 | 8.19440 | 80° | 11km/h | 19342m | -10.8m/s | -50.2°C | 0.5% | 64.3hPa | 2.6V | 08:18:38 | 02:08:15 | 00:00:00 | |
| DB0DAN | 2026-09-02 05:39:40 | 52.71073 | 8.19430 | 74° | 13km/h | 19364m | -11.1m/s | -50.3°C | 1.1% | 64.12hPa | 2.6V | 00:00:00 | 00:00:00 | 00:00:00 | |
| BIOWL1-15 | 2026-09-02 05:39:40 | 52.71073 | 8.19430 | 74° | 13km/h | 19364m | -11.1m/s | -50.3°C | 0.5% | 64.1hPa | 2.6V | 08:18:38 | 02:08:13 | 00:00:00 | |
| HSKMA3-T | 2026-09-02 05:39:38 | 52.71071 | 8.19419 | 67° | 13km/h | 19386m | -11m/s | -50.5°C | 0.5% | 63.9hPa | 2.7V | 08:18:38 | 02:08:11 | 00:00:00 | |
| DO2JMG | 2026-09-02 05:39:37 | 52.71070 | 8.19414 | 64° | 15km/h | 19397m | -11.2m/s | -50.6°C | 0.6% | 63.8hPa | 2.7V | 08:18:38 | 02:08:10 | 00:00:00 | |
| DM0DOS-11 | 2026-09-02 05:39:37 | 52.71058 | 8.19389 | 46° | 18km/h | 19454m | -11.5m/s | -50.6°C | 3.8% | 63.3hPa | 2.7V | 08:18:03 | 02:08:05 | 00:00:00 | |
| DL1XH-west | 2026-09-02 05:39:33 | 52.71061 | 8.19394 | 47° | 16km/h | 19442m | -11.7m/s | -50.8°C | 0.6% | 63.3hPa | 2.7V | 08:18:38 | 02:08:06 | 00:00:00 | |
| DF8AY | 2026-09-02 05:39:32 | 52.71058 | 8.19389 | 46° | 18km/h | 19454m | -11.5m/s | -50.6°C | 0.5% | 63.3hPa | 2.7V | 08:18:38 | 02:08:05 | 00:00:00 | |
| DL1XH1-15 | 2026-09-02 05:39:30 | 52.71050 | 8.19376 | 46° | 24km/h | 19477m | -11.1m/s | -50.6°C | 3.8% | 63hPa | 2.6V | 08:18:05 | 02:08:03 | 00:00:00 | |
| BIOWL1-15 | 2026-09-02 05:39:30 | 52.71050 | 8.19376 | 47° | 24km/h | 19477m | -11.1m/s | -50.6°C | 0.5% | 63hPa | 2.6V | 08:18:38 | 02:08:03 | 00:00:00 | |
| HSKMA3-T | 2026-09-02 05:39:27 | 52.71035 | 8.19347 | 52° | 37km/h | 19510m | -11.1m/s | -50.6°C | 0.5% | 62.7hPa | 2.6V | 08:18:38 | 02:08:00 | 00:00:00 | |
| DO2JMG | 2026-09-02 05:39:26 | 52.71029 | 8.19335 | 53° | 37km/h | 19521m | -11.1m/s | -50.6°C | 0.6% | 62.6hPa | 2.6V | 08:18:38 | 02:07:59 | 00:00:00 | |
| DL1XH1-15 | 2026-09-02 05:39:25 | 52.70994 | 8.19251 | 56° | 44km/h | 19588m | -11m/s | -50.7°C | 3.8% | 62hPa | 2.6V | 08:18:15 | 02:07:53 | 00:00:00 | |
| DL1XH-west | 2026-09-02 05:39:23 | 52.71012 | 8.19295 | 55° | 42km/h | 19554m | -11.1m/s | -50.7°C | 0.5% | 62.3hPa | 2.7V | 08:18:38 | 02:07:56 | 00:00:00 | |
| BIOWL1-15 | 2026-09-02 05:39:22 | 52.70994 | 8.19251 | 56° | 44km/h | 19588m | -11m/s | -50.7°C | 0.6% | 62hPa | 2.6V | 08:18:38 | 02:07:53 | 00:00:00 | |
| DF8AY | 2026-09-02 05:39:22 | 52.71006 | 8.19280 | 56° | 42km/h | 19566m | -11.1m/s | -50.7°C | 0.5% | 62.1hPa | 2.7V | 08:18:38 | 02:07:55 | 00:00:00 | |
| AA1-15 | 2026-09-02 05:39:19 | 52.70988 | 8.19236 | 56° | 44km/h | 19599m | -11m/s | -50.6°C | 0.5% | 61.8hPa | 2.6V | 08:18:38 | 02:07:52 | 00:00:00 | |
| HSKMA3-T | 2026-09-02 05:39:17 | 52.70976 | 8.19206 | 57° | 44km/h | 19621m | -11m/s | -50.6°C | 0.5% | 61.6hPa | 2.7V | 08:18:38 | 02:07:50 | 00:00:00 | |
| DL1XH-15 | 2026-09-02 05:39:16 | 52.70939 | 8.19127 | 48° | 35km/h | 19689m | -11m/s | -50.4°C | 3.7% | 61hPa | 2.7V | 08:18:24 | 02:07:44 | 00:00:00 | |
| DO2JMG | 2026-09-02 05:39:15 | 52.70963 | 8.19176 | 54° | 42km/h | 19643m | -11.4m/s | -50.6°C | 0.6% | 61.4hPa | 2.6V | 08:18:38 | 02:07:48 | 00:00:00 | |
| DL1XH-west | 2026-09-02 05:39:13 | 52.70951 | 8.19150 | 50° | 38km/h | 19666m | -11.2m/s | -50.5°C | 0.5% | 61.2hPa | 2.6V | 08:18:38 | 02:07:46 | 00:00:00 | |
| DF8AY | 2026-09-02 05:39:12 | 52.70945 | 8.19138 | 48° | 37km/h | 19677m | -11.3m/s | -50.5°C | 0.5% | 61.1hPa | 2.7V | 08:18:38 | 02:07:45 | 00:00:00 | |
| DL1CLM-18 | 2026-09-02 05:39:11 | 52.70945 | 8.19138 | 49° | 37km/h | 19678m | -11.3m/s | -50.5°C | 1.1% | 61.1hPa | 2.6V | 08:18:00 | 00:00:00 | 00:00:00 | |
| DB0DAN | 2026-09-02 05:39:10 | 52.70933 | 8.19116 | 49° | 35km/h | 19700m | -11.1m/s | -50.4°C | 1.1% | 60.89hPa | 2.6V | 00:00:00 | 00:00:00 | 00:00:00 | |
| BIOWL1-15 | 2026-09-02 05:39:09 | 52.70927 | 8.19105 | 50° | 35km/h | 19711m | -11.1m/s | -50.5°C | 0.5% | 60.8hPa | 2.6V | 08:18:38 | 02:07:42 | 00:00:00 | |
| AM1SDL-15 | 2026-09-02 05:39:07 | 52.70916 | 8.19082 | 51° | 40km/h | 19734m | -11.3m/s | 0°C | 0% | 0hPa | 2.7V | 00:00:00 | 02:07:40 | 00:00:00 | |
| DL1XH-15 | 2026-09-02 05:39:06 | 52.70883 | 8.19006 | 55° | 38km/h | 19800m | -11.2m/s | -50.5°C | 3.7% | 59.9hPa | 2.7V | 08:18:34 | 02:07:34 | 00:00:00 | |
| HSKMA3-T | 2026-09-02 05:39:06 | 52.70910 | 8.19071 | 52° | 37km/h | 19744m | -10.9m/s | -50.6°C | 0.5% | 60.5hPa | 2.6V | 08:18:38 | 02:07:39 | 00:00:00 | |
| DO2JMG | 2026-09-02 05:39:05 | 52.70905 | 8.19059 | 55° | 37km/h | 19755m | -11m/s | -50.7°C | 0.5% | 60.4hPa | 2.6V | 08:18:38 | 02:07:38 | 00:00:00 | |
| DL1XH-west | 2026-09-02 05:39:02 | 52.70889 | 8.19020 | 55° | 38km/h | 19789m | -11.4m/s | -50.7°C | 0.5% | 60hPa | 2.7V | 08:18:38 | 02:07:35 | 00:00:00 | |
| DF8AY | 2026-09-02 05:39:01 | 52.70883 | 8.19006 | 55° | 38km/h | 19800m | -11.2m/s | -50.5°C | 0.5% | 59.9hPa | 2.7V | 08:18:38 | 02:07:34 | 00:00:00 | |
| AA1-15 | 2026-09-02 05:38:58 | 52.70866 | 8.18966 | 54° | 42km/h | 19834m | -11.3m/s | -50.4°C | 0.5% | 59.6hPa | 2.6V | 08:18:38 | 02:07:31 | 00:00:00 | |
| HSKMA3-T | 2026-09-02 05:38:56 | 52.70853 | 8.18937 | 53° | 44km/h | 19857m | -11.2m/s | -50.6°C | 0.4% | 59.5hPa | 2.7V | 08:19:29 | 02:07:29 | 00:00:00 | |
| DL1XH1-15 | 2026-09-02 05:38:55 | 52.70817 | 8.18843 | 63° | 46km/h | 19924m | -11.3m/s | -50.9°C | 3.8% | 58.8hPa | 2.7V | 08:18:45 | 02:07:23 | 00:00:00 | |
| DO2JMG | 2026-09-02 05:38:54 | 52.70840 | 8.18908 | 56° | 44km/h | 19879m | -11.3m/s | -50.7°C | 0.5% | 59.2hPa | 2.6V | 08:19:29 | 02:07:27 | 00:00:00 | |
| DL1XH-west | 2026-09-02 05:38:52 | 52.70828 | 8.18877 | 59° | 46km/h | 19902m | -11.3m/s | -50.8°C | 0.5% | 59hPa | 2.6V | 08:19:29 | 02:07:25 | 00:00:00 | |
| DF8AY | 2026-09-02 05:38:51 | 52.70822 | 8.18860 | 61° | 46km/h | 19913m | -11.2m/s | -50.9°C | 0.5% | 58.9hPa | 2.7V | 08:19:29 | 02:07:24 | 00:00:00 | |
| AA1-15 | 2026-09-02 05:38:48 | 52.70806 | 8.18808 | 65° | 47km/h | 19947m | -11.2m/s | -51°C | 0.6% | 58.6hPa | 2.6V | 08:19:29 | 02:07:21 | 00:00:00 | |
| BIOWL1-15 | 2026-09-02 05:38:47 | 52.70801 | 8.18790 | 66° | 47km/h | 19958m | -11.4m/s | -50.9°C | 0.6% | 58.5hPa | 2.7V | 08:19:29 | 02:07:20 | 00:00:00 | |
| HSKMA3-T | 2026-09-02 05:38:46 | 52.70797 | 8.18772 | 67° | 49km/h | 19969m | -11.4m/s | -51°C | 0.6% | 58.4hPa | 2.7V | 08:19:29 | 02:07:19 | 00:00:00 | |
| DO2JMG | 2026-09-02 05:38:44 | 52.70786 | 8.18734 | 66° | 51km/h | 19992m | -11.8m/s | -51°C | 0.6% | 58.2hPa | 2.6V | 08:19:29 | 02:07:17 | 00:00:00 | |
| DO3DL | 2026-09-02 05:38:43 | 52.70786 | 8.18734 | 67° | 51km/h | 19993m | -11.8m/s | -51.0°C | 1.2% | 58.2hPa | 2.7V | 08:19:00 | 00:00:00 | 00:00:00 | |
| DM0DOS-11 | 2026-09-02 05:38:42 | 52.70776 | 8.18693 | 67° | 55km/h | 20016m | -12.2m/s | -51°C | 3.9% | 58hPa | 2.7V | 08:18:53 | 02:07:15 | 00:00:00 | |
| DL1XH-west | 2026-09-02 05:38:41 | 52.70771 | 8.18672 | 72° | 55km/h | 20028m | -12m/s | -51°C | 0.6% | 57.9hPa | 2.7V | 08:19:29 | 02:07:14 | 00:00:00 | |
| DB0DAN | 2026-09-02 05:38:40 | 52.70767 | 8.18650 | 77° | 53km/h | 20040m | -11.8m/s | -51°C | 1.1% | 57.78hPa | 2.7V | 00:00:00 | 00:00:00 | 00:00:00 | |
| DF8AY | 2026-09-02 05:38:40 | 52.70767 | 8.18650 | 77° | 55km/h | 20040m | -11.8m/s | -51°C | 0.6% | 57.8hPa | 2.7V | 08:19:29 | 02:07:13 | 00:00:00 | |
| BIOWL1-15 | 2026-09-02 05:38:38 | 52.70764 | 8.18561 | 97° | 51km/h | 20088m | -11.4m/s | -51°C | 0.5% | 57.3hPa | 2.7V | 08:19:29 | 02:07:09 | 00:00:00 | |
| AA1-15 | 2026-09-02 05:38:37 | 52.70763 | 8.18583 | 92° | 53km/h | 20076m | -11.8m/s | -51°C | 0.5% | 57.5hPa | 2.6V | 08:19:29 | 02:07:10 | 00:00:00 | |
| DL1XH-15 | 2026-09-02 05:38:36 | 52.70781 | 8.18475 | 119° | 38km/h | 20145m | -11.6m/s | -51.2°C | 3.7% | 56.9hPa | 2.6V | 08:19:04 | 02:07:04 | 00:00:00 | |
| HSKMA3-T | 2026-09-02 05:38:35 | 52.70766 | 8.18541 | 102° | 47km/h | 20099m | -11.3m/s | -51°C | 0.4% | 57.2hPa | 2.7V | 08:19:29 | 02:07:08 | 00:00:00 | |
| DO2JMG | 2026-09-02 05:38:33 | 52.70773 | 8.18505 | 111° | 42km/h | 20122m | -11.4m/s | -51.1°C | 0.5% | 57hPa | 2.6V | 08:19:29 | 02:07:06 | 00:00:00 | |
| DL1XH-west | 2026-09-02 05:38:30 | 52.70786 | 8.18462 | 123° | 37km/h | 20156m | -11.9m/s | -51.2°C | 0.5% | 56.8hPa | 2.7V | 08:19:29 | 02:07:03 | 00:00:00 | |
| DF8AY | 2026-09-02 05:38:29 | 52.70791 | 8.18450 | 126° | 33km/h | 20169m | -12.5m/s | -51.3°C | 0.5% | 56.7hPa | 2.7V | 08:19:29 | 02:07:02 | 00:00:00 | |
| DJ2DS-15 | 2026-09-02 05:38:29 | 52.70790 | 8.18450 | 126° | 27km/h | 20169m | -12.4m/s | -51.3°C | 3.7% | 56.6hPa | 2.6V | 00:00:00 | 02:07:02 | 00:00:00 | |
| EDDB2-12 | 2026-09-02 05:38:28 | 52.70800 | 8.18431 | 133° | 26km/h | 20194m | -12.4m/s | -51.5°C | 1.1% | 56.4hPa | 2.6V | 00:00:00 | 00:00:00 | 00:00:00 | |
| DM0DOS-11 | 2026-09-02 05:38:27 | 52.70811 | 8.18405 | 68° | 11km/h | 20255m | -11.8m/s | -52°C | 4% | 55.9hPa | 2.6V | 08:19:13 | 02:06:55 | 00:00:00 | |
| AA1-15 | 2026-09-02 05:38:27 | 52.70800 | 8.18431 | 134° | 26km/h | 20194m | -12.4m/s | -51.5°C | 0.6% | 56.4hPa | 2.6V | 08:19:29 | 02:07:00 | 00:00:00 | |
| DL1XH1-15 | 2026-09-02 05:38:25 | 52.70807 | 8.18393 | 58° | 24km/h | 20279m | -11.3m/s | -52.1°C | 4.1% | 55.7hPa | 2.7V | 08:19:15 | 02:06:53 | 00:00:00 | |
| BIOWL1-15 | 2026-09-02 05:38:25 | 52.70808 | 8.18418 | 134° | 16km/h | 20218m | -12.4m/s | -51.7°C | 0.6% | 56.2hPa | 2.7V | 08:19:29 | 02:06:58 | 00:00:00 | |
| HSKMA3-T | 2026-09-02 05:38:25 | 52.70810 | 8.18414 | 124° | 13km/h | 20231m | -12.3m/s | -51.8°C | 0.6% | 56.1hPa | 2.6V | 08:19:29 | 02:06:57 | 00:00:00 | |
| DO2JMG | 2026-09-02 05:38:22 | 52.70811 | 8.18405 | 69° | 11km/h | 20255m | -11.8m/s | -52°C | 0.7% | 55.9hPa | 2.6V | 08:19:29 | 02:06:55 | 00:00:00 | |
| DL1XH-west | 2026-09-02 05:38:20 | 52.70807 | 8.18393 | 59° | 24km/h | 20279m | -11.3m/s | -52.1°C | 0.7% | 55.7hPa | 2.7V | 08:19:29 | 02:06:53 | 00:00:00 | |
| DF8AY | 2026-09-02 05:38:19 | 52.70803 | 8.18383 | 60° | 29km/h | 20290m | -11m/s | -52.2°C | 0.7% | 55.6hPa | 2.7V | 08:19:29 | 02:06:52 | 00:00:00 | |
| DB0UT-7 | 2026-09-02 05:38:19 | 52.70803 | 8.18383 | 60° | 26km/h | 20290m | -10.9m/s | -52.1°C | 4.1% | 55.5hPa | 2.6V | 00:00:00 | 02:06:52 | 00:00:00 | |
| DK9SH | 2026-09-02 05:38:18 | 52.70803 | 8.18383 | 61° | 29km/h | 20290m | -11.0m/s | -52.2°C | 1.2% | 55.6hPa | 2.6V | 08:19:00 | 00:00:00 | 00:00:00 | |
| DM0DOS-11 | 2026-09-02 05:38:17 | 52.70770 | 8.18291 | 49° | 35km/h | 20373m | -12.4m/s | -52.5°C | 4.2% | 54.9hPa | 2.6V | 08:19:23 | 02:06:45 | 00:00:00 | |
| DO9LL-15 | 2026-09-02 05:38:17 | 52.70795 | 8.18358 | 63° | 26km/h | 20312m | -11.3m/s | -52.2°C | 4.1% | 55.4hPa | 2.6V | 08:19:00 | 02:06:50 | 00:00:00 | |
| DL1XH-15 | 2026-09-02 05:38:16 | 52.70764 | 8.18281 | 43° | 31km/h | 20385m | -12.2m/s | -52.5°C | 4.2% | 54.8hPa | 2.6V | 08:19:24 | 02:06:44 | 00:00:00 | |
| AA1-15 | 2026-09-02 05:38:16 | 52.70790 | 8.18344 | 62° | 40km/h | 20323m | -11.9m/s | -52.4°C | 0.7% | 55.3hPa | 2.6V | 08:19:29 | 02:06:49 | 00:00:00 | |
| HSKMA3-T | 2026-09-02 05:38:14 | 52.70780 | 8.18315 | 58° | 38km/h | 20348m | -12.4m/s | -52.4°C | 0.8% | 55.1hPa | 2.7V | 08:19:29 | 02:06:47 | 00:00:00 | |
| DO2JMG | 2026-09-02 05:38:11 | 52.70764 | 8.18281 | 44° | 31km/h | 20385m | -12.2m/s | -52.5°C | 0.8% | 54.8hPa | 2.6V | 08:19:29 | 02:06:44 | 00:00:00 | |
| DB0DAN | 2026-09-02 05:38:10 | 52.70758 | 8.18274 | 38° | 26km/h | 20397m | -12.3m/s | -52.6°C | 1.2% | 54.66hPa | 2.6V | 00:00:00 | 00:00:00 | 00:00:00 | |
| DL1XH-west | 2026-09-02 05:38:09 | 52.70753 | 8.18268 | 33° | 22km/h | 20409m | -12.6m/s | -52.6°C | 0.8% | 54.6hPa | 2.7V | 08:19:29 | 02:06:42 | 00:00:00 | |
| DF8AY | 2026-09-02 05:38:08 | 52.70749 | 8.18264 | 26° | 16km/h | 20422m | -12.5m/s | -52.7°C | 0.9% | 54.5hPa | 2.7V | 08:19:29 | 02:06:41 | 00:00:00 | |
| AP2371 | 2026-09-02 05:38:07 | 52.70749 | 8.18264 | 27° | 16km/h | 20422m | -12.5m/s | -52.7°C | 0% | 0hPa | 2.7V | 00:00:00 | 00:00:00 | 00:00:00 | |
| DL1XH-15 | 2026-09-02 05:38:06 | 52.70755 | 8.18263 | 172° | 22km/h | 20507m | -11.5m/s | -51.8°C | 3.9% | 53.8hPa | 2.7V | 08:19:34 | 02:06:34 | 00:00:00 | |
| AA1-15 | 2026-09-02 05:38:05 | 52.70744 | 8.18262 | 245° | 2km/h | 20458m | -12.2m/s | -51.8°C | 0.7% | 54.1hPa | 2.7V | 08:20:20 | 02:06:38 | 00:00:00 | |
| BIOWL1-15 | 2026-09-02 05:38:03 | 52.70747 | 8.18264 | 188° | 11km/h | 20483m | -12.5m/s | -51.7°C | 0.7% | 54hPa | 2.6V | 08:20:20 | 02:06:36 | 00:00:00 | |
| DO2JMG | 2026-09-02 05:38:00 | 52.70761 | 8.18262 | 167° | 26km/h | 20519m | -11.8m/s | -51.8°C | 0.6% | 53.6hPa | 2.7V | 08:20:20 | 02:06:33 | 00:00:00 | |
| DL1XH-west | 2026-09-02 05:37:59 | 52.70767 | 8.18259 | 164° | 29km/h | 20530m | -12.1m/s | -51.9°C | 0.6% | 53.5hPa | 2.6V | 08:20:20 | 02:06:32 | 00:00:00 | |
| DF8AY | 2026-09-02 05:37:57 | 52.70782 | 8.18251 | 161° | 33km/h | 20554m | -12m/s | -52°C | 0.7% | 53.4hPa | 2.6V | 08:20:20 | 02:06:30 | 00:00:00 | |
| DL1XH-15 | 2026-09-02 05:37:56 | 52.70826 | 8.18231 | 176° | 20km/h | 20629m | -12.2m/s | -51.8°C | 3.9% | 52.7hPa | 2.6V | 08:19:44 | 02:06:24 | 00:00:00 | |
| AA1-15 | 2026-09-02 05:37:54 | 52.70806 | 8.18237 | 163° | 31km/h | 20591m | -12.7m/s | -52.1°C | 0.7% | 53hPa | 2.7V | 08:20:20 | 02:06:27 | 00:00:00 | |
| HSKMA3-T | 2026-09-02 05:37:53 | 52.70813 | 8.18234 | 167° | 29km/h | 20604m | -12.9m/s | -52°C | 0.7% | 53hPa | 2.6V | 08:20:20 | 02:06:26 | 00:00:00 | |
| DO2JMG | 2026-09-02 05:37:50 | 52.70830 | 8.18231 | 187° | 15km/h | 20641m | -11.6m/s | -51.7°C | 0.6% | 52.6hPa | 2.7V | 08:20:20 | 02:06:23 | 00:00:00 | |
| DL1XH-west | 2026-09-02 05:37:48 | 52.70834 | 8.18234 | 222° | 5km/h | 20665m | -11.9m/s | -52°C | 0.7% | 52.5hPa | 2.7V | 08:20:20 | 02:06:21 | 00:00:00 | |
| DO9LL-15 | 2026-09-02 05:37:47 | 52.70835 | 8.18235 | 237° | 26km/h | 20677m | -11.8m/s | -52.0°C | 4.1% | 52.3hPa | 2.6V | 00:00:00 | 02:06:20 | 00:00:00 | |
| DL1XH-15 | 2026-09-02 05:37:46 | 52.70835 | 8.18247 | 285° | 7km/h | 20750m | -12.3m/s | -52.3°C | 4.2% | 51.8hPa | 2.6V | 08:19:54 | 02:06:14 | 00:00:00 | |
| DF8AY | 2026-09-02 05:37:46 | 52.70835 | 8.18237 | 254° | 4km/h | 20689m | -12.3m/s | -52.1°C | 0.7% | 52.3hPa | 2.6V | 08:20:20 | 02:06:19 | 00:00:00 | |
| DL1XH1-15 | 2026-09-02 05:37:45 | 52.70835 | 8.18250 | 304° | 9km/h | 20762m | -12.5m/s | -52.4°C | 4.2% | 51.6hPa | 2.7V | 08:19:55 | 02:06:13 | 00:00:00 | |
| AA1-15 | 2026-09-02 05:37:44 | 52.70836 | 8.18240 | 262° | 5km/h | 20713m | -12.2m/s | -52.2°C | 0.8% | 52.1hPa | 2.7V | 08:20:20 | 02:06:17 | 00:00:00 | |
| BIOWL1-15 | 2026-09-02 05:37:44 | 52.70836 | 8.18245 | 273° | 5km/h | 20737m | -12.2m/s | -52.2°C | 0.8% | 51.9hPa | 2.6V | 08:20:20 | 02:06:15 | 00:00:00 | |
| HSKMA3-T | 2026-09-02 05:37:43 | 52.70836 | 8.18242 | 267° | 5km/h | 20725m | -12m/s | -52.2°C | 0.8% | 52hPa | 2.7V | 08:20:20 | 02:06:16 | 00:00:00 | |
| DD8BA-10 | 2026-09-02 05:37:43 | 52.70836 | 8.18242 | 267° | 15km/h | 20725m | -12.0m/s | -52.2°C | 4.1% | 51.9hPa | 2.6V | 00:00:00 | 00:00:00 | 00:00:00 | |
| DF5WG-10 | 2026-09-02 05:37:42 | 52.70836 | 8.18245 | 274° | 16km/h | 20738m | -12.2m/s | -52.2°C | 4.1% | 51.8hPa | 2.6V | 00:00:00 | 02:06:15 | 00:00:00 | |
| DB0DAN | 2026-09-02 05:37:40 | 52.70835 | 8.18250 | 304° | 7km/h | 20762m | -12.5m/s | -52.4°C | 1.2% | 51.65hPa | 2.7V | 00:00:00 | 00:00:00 | 00:00:00 | |
| DO2JMG | 2026-09-02 05:37:39 | 52.70833 | 8.18253 | 320° | 11km/h | 20775m | -12.6m/s | -52.4°C | 0.8% | 51.5hPa | 2.7V | 08:20:20 | 02:06:12 | 00:00:00 | |
| DL1XH-west | 2026-09-02 05:37:38 | 52.70831 | 8.18256 | 331° | 15km/h | 20787m | -12.9m/s | -52.5°C | 0.8% | 51.5hPa | 2.6V | 08:20:20 | 02:06:11 | 00:00:00 | |
| DF8AY | 2026-09-02 05:37:36 | 52.70822 | 8.18260 | 351° | 20km/h | 20813m | -13m/s | -52.5°C | 0.9% | 51.3hPa | 2.7V | 08:20:20 | 02:06:09 | 00:00:00 | |
| DM0DOS-11 | 2026-09-02 05:37:36 | 52.70798 | 8.18250 | 34° | 33km/h | 20864m | -12.3m/s | -52.5°C | 4.3% | 50.9hPa | 2.6V | 08:20:03 | 02:06:05 | 00:00:00 | |
| DL1XH1-15 | 2026-09-02 05:37:35 | 52.70785 | 8.18230 | 49° | 38km/h | 20889m | -12.2m/s | -52.3°C | 4.2% | 50.6hPa | 2.7V | 08:20:05 | 02:06:03 | 00:00:00 | |
| AA1-15 | 2026-09-02 05:37:34 | 52.70811 | 8.18260 | 13° | 26km/h | 20839m | -12.7m/s | -52.6°C | 0.9% | 51.1hPa | 2.6V | 08:20:20 | 02:06:07 | 00:00:00 | |
| HSKMA3-T | 2026-09-02 05:37:33 | 52.70805 | 8.18256 | 24° | 29km/h | 20852m | -12.5m/s | -52.6°C | 0.9% | 51hPa | 2.6V | 08:20:20 | 02:06:06 | 00:00:00 | |
| BIOWL1-15 | 2026-09-02 05:37:32 | 52.70798 | 8.18250 | 34° | 33km/h | 20864m | -12.3m/s | -52.6°C | 0.9% | 50.9hPa | 2.6V | 08:20:20 | 02:06:05 | 00:00:00 | |
| DO2JMG | 2026-09-02 05:37:29 | 52.70778 | 8.18217 | 53° | 40km/h | 20901m | -12.3m/s | -52.2°C | 0.8% | 50.6hPa | 2.7V | 08:20:20 | 02:06:02 | 00:00:00 | |
| DL1XH-west | 2026-09-02 05:37:28 | 52.70772 | 8.18203 | 55° | 42km/h | 20913m | -12.4m/s | -52.1°C | 0.8% | 50.5hPa | 2.6V | 08:20:20 | 02:06:01 | 00:00:00 | |
| DL1LOL-11 | 2026-09-02 05:37:27 | 52.70772 | 8.18203 | 56° | 42km/h | 20913m | -12.4m/s | -52.1°C | 1.2% | 50.5hPa | 2.6V | 00:00:00 | 00:00:00 | 00:00:00 | |
| DM0DOS-11 | 2026-09-02 05:37:26 | 52.70734 | 8.18128 | 40° | 38km/h | 20988m | -12.6m/s | -51.8°C | 3.9% | 49.9hPa | 2.6V | 08:20:13 | 02:05:55 | 00:00:00 | |
| DF8AY | 2026-09-02 05:37:26 | 52.70760 | 8.18175 | 54° | 40km/h | 20938m | -12.4m/s | -52°C | 0.8% | 50.3hPa | 2.6V | 08:20:20 | 02:05:59 | 00:00:00 | |
| EDDB2-12 | 2026-09-02 05:37:26 | 52.70754 | 8.18162 | 52° | 40km/h | 20950m | -12.4m/s | -51.9°C | 1.1% | 50.2hPa | 2.6V | 00:00:00 | 00:00:00 | 00:00:00 | |
| DL4XJ-10 | 2026-09-02 05:37:25 | 52.70754 | 8.18162 | 53° | 44km/h | 20951m | -12.4m/s | -50.7°C | 0% | 0hPa | 2.6V | 00:00:00 | 00:00:00 | 00:00:00 | |
| DL1XH1-15 | 2026-09-02 05:37:24 | 52.70719 | 8.18108 | 40° | 38km/h | 21014m | -13.4m/s | -51.9°C | 4% | 49.7hPa | 2.6V | 08:20:15 | 02:05:53 | 00:00:00 | |
| AA1-15 | 2026-09-02 05:37:23 | 52.70741 | 8.18138 | 43° | 38km/h | 20975m | -12.5m/s | -51.9°C | 0.7% | 50hPa | 2.7V | 08:20:20 | 02:05:56 | 00:00:00 | |
| HSKMA3-T | 2026-09-02 05:37:22 | 52.70734 | 8.18128 | 40° | 38km/h | 20988m | -12.6m/s | -51.8°C | 0.6% | 49.9hPa | 2.6V | 08:20:20 | 02:05:55 | 00:00:00 | |
| BIOWL1-15 | 2026-09-02 05:37:21 | 52.70727 | 8.18118 | 38° | 38km/h | 21000m | -12.7m/s | -51.8°C | 0.7% | 49.8hPa | 2.6V | 08:20:20 | 02:05:54 | 00:00:00 | |
| DO2JMG | 2026-09-02 05:37:18 | 52.70706 | 8.18084 | 54° | 42km/h | 21040m | -12.7m/s | -51.9°C | 0.7% | 49.5hPa | 2.7V | 08:20:20 | 02:05:51 | 00:00:00 | |
| DL1XH-west | 2026-09-02 05:37:17 | 52.70700 | 8.18069 | 62° | 44km/h | 21053m | -12.4m/s | -51.9°C | 0.8% | 49.4hPa | 2.7V | 08:20:20 | 02:05:50 | 00:00:00 | |
| DO9LL-15 | 2026-09-02 05:37:17 | 52.70700 | 8.18069 | 63° | 37km/h | 21053m | -12.4m/s | -51.9°C | 4.2% | 49.3hPa | 2.7V | 00:00:00 | 02:05:50 | 00:00:00 | |
| DL1XH-15 | 2026-09-02 05:37:17 | 52.70689 | 8.17957 | 95° | 47km/h | 21130m | -13.5m/s | -52°C | 4.2% | 48.8hPa | 2.6V | 08:20:24 | 02:05:44 | 00:00:00 | |
| Es werden nur die letzten 3500 von 8870 Frames angezeigt. GPX/KML und Diagramme bleiben verfügbar. | |||||||||||||||